/BCO-DMO/InVirT/AE2207_ctd_processed ---- Level 1

      Directory  DocumentationDownload and Other Operations...

        Level 0 - At last level -       Flat list

#  AE2207 Processed CTD
#  PI: Steven Wilhelm
#  Co-PIs: M. Sullivan & J. Weitz
#  Version date (v1): 2022-07-21
=========================
cast       
-------------------------
INV2C01    
=========================
ISO_DateTime_UTC        lat                 lon                  pressure  corrected_depth      par_value      par_relative  temp                absolute_salinity  density             fluor                    beam                                      oxygen              oxy_sol             oxy_sat              mld                 dcm                  
-------------------------
2022-04-22T17:09:08Z    31.6636666666667    -64.1648333333333    5         -5.11618978244283    1e-12          4.075e-14     21.3179333333333    36.862345          25.695565           0.0100333333333333       0.0557833333333333                        206.468333333333    217.834083333333    0.9477083            -46.687438221602    -74.0243190502437    
2022-04-22T17:09:08Z    31.6636666666667    -64.1648333333333    5.5       -5.63058221624951    1e-12          4.0664e-14    21.3050428571429    36.8620614285714   25.6988885714286    0.0107285714285714       0.0561857142857143                        206.503428571429    217.884171428571    0.947667685714286    -46.687438221602    -74.0243190502437    
2022-04-22T17:09:08Z    31.6636666666667    -64.1648333333333    6         -5.9831091021808     1e-12          4.08785e-14   21.2963625          36.86183375        25.7011925          0.01125                  0.056625                                  206.4990625         217.9178125         0.947514925          -46.687438221602    -74.0243190502437    
2022-04-22T17:09:08Z    31.6636666666667    -64.1648333333333    6.5       -6.34705523555617    1e-12          4.0721e-14    21.2857888888889    36.8614777777778   25.7039444444444    0.0124666666666667       0.0569666666666667                        206.500388888889    217.9589            0.947350655555555    -46.687438221602    -74.0243190502437    
2022-04-22T17:09:08Z    31.6636666666667    -64.1648333333333    7         -6.9026552458854     1e-12          4.0664e-14    21.27693            36.861187          25.706177           0.01344                  0.05734                                   206.5099            217.99351           0.94725225           -46.687438221602    -74.0243190502437    
2022-04-22T17:09:08Z    31.6636666666667    -64.1648333333333    7.5       -7.39221754276664    1e-12          4.0778e-14    21.2696             36.8609290909091   25.7080418181818    0.0135727272727273       0.0576454545454545                        206.513             218.022190909091    0.947154163636364    -46.687438221602    -74.0243190502437    
2022-04-22T17:09:08Z    31.6636666666667    -64.1648333333333    8         -7.98406005279444    1e-12          4.0807e-14    21.2535863636364    36.8604981818182   25.7122554545455    0.0142363636363636       0.0579363636363636                        206.477             218.084409090909    0.946721109090909    -46.687438221602    -74.0243190502437    
2022-04-22T17:09:08Z    31.6636666666667    -64.1648333333333    8.5       -8.48652902727985    1e-12          4.075e-14     21.2353590909091    36.8600718181818   25.7169727272727    0.0155636363636364       0.0584181818181818                        206.454863636364    218.155281818182    0.946319936363636    -46.687438221602    -74.0243190502437    
2022-04-22T17:09:08Z    31.6636666666667    -64.1648333333333    9         -8.80330231145819    1e-12          4.075e-14     21.2235590909091    36.8596854545455   25.7200072727273    0.0168909090909091       0.0589                                    206.471863636364    218.201581818182    0.946237318181818    -46.687438221602    -74.0243190502437    
2022-04-22T17:09:08Z    31.6636666666667    -64.1648333333333    9.5       -9.41798010426557    1e-12          4.075e-14     21.2169545454545    36.8592763636364   25.72179            0.0168909090909091       0.0594818181818182                        206.484909090909    218.227427272727    0.946184781818182    -46.687438221602    -74.0243190502437    
2022-04-22T17:09:08Z    31.6636666666667    -64.1648333333333    10        -10.0753556051594    1e-12          4.0721e-14    21.2072181818182    36.85886           25.7240263636364    0.0182181818181818       0.0601545454545454                        206.474045454545    218.266             0.945983572727273    -46.687438221602    -74.0243190502437    
2022-04-22T17:09:08Z    31.6636666666667    -64.1648333333333    10.5      -10.4884484934746    1e-12          4.075e-14     21.1984909090909    36.8585272727273   25.7261963636364    0.0175454545454545       0.0607272727272727                        206.450272727273    218.300327272727    0.9457203            -46.687438221602    -74.0243190502437    
2022-04-22T17:09:08Z    31.6636666666667    -64.1648333333333    11        -11.0316246511933    1e-12          4.0836e-14    21.1940727272727    36.8583081818182   25.7273190909091    0.0168818181818182       0.0610181818181818                        206.463             218.317936363636    0.945700763636364    -46.687438221602    -74.0243190502437    
2022-04-22T17:09:08Z    31.6636666666667    -64.1648333333333    11.5      -11.4437226017975    1e-12          4.08215e-14   21.1886             36.8580745454545   25.7286581818182    0.0175454545454545       0.0611090909090909                        206.506227272727    218.339781818182    0.945802381818182    -46.687438221602    -74.0243190502437    
2022-04-22T17:09:08Z    31.6636666666667    -64.1648333333333    12        -11.8985188942119    1e-12          4.075e-14     21.1859             36.8579545454545   25.7292790909091    0.0162181818181818       0.0612                                    206.531             218.350863636364    0.945867890909091    -46.687438221602    -74.0243190502437    
2022-04-22T17:09:08Z    31.6636666666667    -64.1648333333333    12.5      -12.2629510012295    1e-12          4.0635e-14    21.18275            36.8577827272727   25.7300236363636    0.0148909090909091       0.0612                                    206.505454545455    218.363672727273    0.945693645454545    -46.687438221602    -74.0243190502437    
2022-04-22T17:09:08Z    31.6636666666667    -64.1648333333333    13        -12.9014503751781    1e-12          4.075e-14     21.1786318181818    36.8575827272727   25.7310409090909    0.0162181818181818       0.0613                                    206.536             218.3801            0.945759054545455    -46.687438221602    -74.0243190502437    
2022-04-22T17:09:08Z    31.6636666666667    -64.1648333333333    13.5      -13.3979492882567    1e-12          4.0692e-14    21.1739             36.8572609090909   25.7320909090909    0.0175454545454545       0.0616363636363636                        206.616363636364    218.399245454545    0.946040281818182    -46.687438221602    -74.0243190502437    
2022-04-22T17:09:08Z    31.6636666666667    -64.1648333333333    14        -13.9470756823834    1e-12          4.0664e-14    21.1687545454545    36.8570127272727   25.7333481818182    0.0182090909090909       0.0619272727272727                        206.693727272727    218.419827272727    0.946305154545454    -46.687438221602    -74.0243190502437    
2022-04-22T17:09:08Z    31.6636666666667    -64.1648333333333    14.5      -14.3532098066019    1e-12          4.0721e-14    21.1629545454545    36.8567145454546   25.7347827272727    0.0188727272727273       0.0623090909090909                        206.760136363636    218.443127272727    0.946507909090909    -46.687438221602    -74.0243190502437    
2022-04-22T17:09:08Z    31.6636666666667    -64.1648333333333    15        -14.8705579747853    1e-12          4.09365e-14   21.1540818181818    36.85652           25.7371445454545    0.0202090909090909       0.0625                                    206.8055            218.477963636364    0.946562581818182    -46.687438221602    -74.0243190502437    
2022-04-22T17:09:08Z    31.6636666666667    -64.1648333333333    15.5      -15.4057785999046    1e-12          4.09655e-14   21.1439181818182    36.8564290909091   25.7398827272727    0.0208727272727273       0.0627818181818182                        206.8125            218.5177            0.946423709090909    -46.687438221602    -74.0243190502437    
2022-04-22T17:09:08Z    31.6636666666667    -64.1648333333333    16        -15.8804257731375    1e-12          4.0893e-14    21.1331545454545    36.8561554545455   25.7426681818182    0.0228727272727273       0.0628727272727273                        206.8465            218.560009090909    0.946396536363636    -46.687438221602    -74.0243190502437    
2022-04-22T17:09:08Z    31.6636666666667    -64.1648333333333    16.5      -16.4037279721288    1e-12          4.0721e-14    21.1207090909091    36.85583           25.7459036363636    0.0242                   0.0631545454545454                        206.794545454545    218.608863636364    0.945946781818182    -46.687438221602    -74.0243190502437    
2022-04-22T17:09:08Z    31.6636666666667    -64.1648333333333    17        -16.8873096478379    1e-12          4.0635e-14    21.1068136363636    36.8555527272727   25.7495481818182    0.0242                   0.0635363636363636                        206.738863636364    218.663245454545    0.945457609090909    -46.687438221602    -74.0243190502437    
2022-04-22T17:09:08Z    31.6636666666667    -64.1648333333333    17.5      -17.4076303381978    1e-12          4.0579e-14    21.0924318181818    36.8554145454545   25.7534409090909    0.0261909090909091       0.0640181818181818                        206.698727272727    218.719218181818    0.945036636363636    -46.687438221602    -74.0243190502437    
2022-04-22T17:09:08Z    31.6636666666667    -64.1648333333333    18        -17.9209988820545    1e-12          4.0778e-14    21.0786             36.8553954545455   25.7572790909091    0.0281818181818182       0.0645                                    206.696136363636    218.772954545454    0.944795909090909    -46.687438221602    -74.0243190502437    
2022-04-22T17:09:08Z    31.6636666666667    -64.1648333333333    18.5      -18.3638651019478    1e-12          4.0893e-14    21.0674090909091    36.8553518181818   25.7604009090909    0.0275181818181818       0.0647818181818182                        206.690954545455    218.816690909091    0.944560209090909    -46.687438221602    -74.0243190502437    
2022-04-22T17:09:08Z    31.6636666666667    -64.1648333333333    19        -18.8653156055492    1e-12          4.0807e-14    21.0547045454545    36.8553763636364   25.7639545454545    0.0281909090909091       0.0652181818181818                        206.659045454545    218.866136363636    0.944205118181818    -46.687438221602    -74.0243190502437    
2022-04-22T17:09:08Z    31.6636666666667    -64.1648333333333    19.5      -19.3558422284209    1e-12          4.0778e-14    21.0422545454545    36.8554327272727   25.7674609090909    0.0288636363636364       0.0654090909090909                        206.634454545455    218.914509090909    0.943883654545455    -46.687438221602    -74.0243190502437    
2022-04-22T17:09:08Z    31.6636666666667    -64.1648333333333    20        -19.8215435546297    1e-12          4.0721e-14    21.0304863636364    36.8555590909091   25.7708             0.0295363636363636       0.0654090909090909                        206.646727272727    218.960027272727    0.943742772727273    -46.687438221602    -74.0243190502437    
2022-04-22T17:09:08Z    31.6636666666667    -64.1648333333333    20.5      -20.3656878892578    1e-12          4.0692e-14    21.0218227272727    36.8556136363636   25.7732090909091    0.0288636363636364       0.0657                                    206.690954545455    218.9939            0.943800518181818    -46.687438221602    -74.0243190502437    
2022-04-22T17:09:08Z    31.6636666666667    -64.1648333333333    21        -20.8919574928301    1e-12          4.0836e-14    21.01425            36.85554           25.77528            0.0302                   0.0658                                    206.705272727273    219.023654545455    0.943736509090909    -46.687438221602    -74.0243190502437    
2022-04-22T17:09:08Z    31.6636666666667    -64.1648333333333    21.5      -21.2563735758682    1e-12          4.0692e-14    21.0073409090909    36.8555372727273   25.7771963636364    0.0328636363636364       0.0659                                    206.773181818182    219.050854545455    0.943929527272727    -46.687438221602    -74.0243190502437    
2022-04-22T17:09:08Z    31.6636666666667    -64.1648333333333    22        -21.8447006220716    1e-12          4.0807e-14    21.0021136363636    36.8556018181818   25.7786090909091    0.0355272727272727       0.066                                     206.843136363636    219.071463636364    0.944162463636364    -46.687438221602    -74.0243190502437    
2022-04-22T17:09:08Z    31.6636666666667    -64.1648333333333    22.5      -22.337702491069     1e-12          4.0721e-14    20.9986545454545    36.8556790909091   25.7796481818182    0.0381909090909091       0.066                                     206.8985            219.085127272727    0.944357090909091    -46.687438221602    -74.0243190502437    
2022-04-22T17:09:08Z    31.6636666666667    -64.1648333333333    23        -22.8460939073334    1e-12          4.075e-14     20.9960909090909    36.8557118181818   25.7804036363636    0.0388636363636364       0.0661                                    206.943409090909    219.0955            0.944513109090909    -46.687438221602    -74.0243190502437    
2022-04-22T17:09:08Z    31.6636666666667    -64.1648333333333    23.5      -23.3951949381724    1e-12          4.0721e-14    20.9938090909091    36.85568           25.7810609090909    0.0402                   0.0662909090909091                        207.026863636364    219.104736363636    0.944852836363636    -46.687438221602    -74.0243190502437    
2022-04-22T17:09:08Z    31.6636666666667    -64.1648333333333    24        -23.7367687951534    1e-12          4.0778e-14    20.9888363636364    36.8557663636364   25.7824327272727    0.0415363636363636       0.0665818181818182                        207.102681818182    219.124290909091    0.945134754545455    -46.687438221602    -74.0243190502437    
2022-04-22T17:09:08Z    31.6636666666667    -64.1648333333333    24.5      -24.3156557442201    1e-12          4.0807e-14    20.9856772727273    36.8557672727273   25.7833081818182    0.0415363636363636       0.0665818181818182                        207.141909090909    219.136872727273    0.945260136363636    -46.687438221602    -74.0243190502437    
2022-04-22T17:09:08Z    31.6636666666667    -64.1648333333333    25        -24.8061693032728    1e-12          4.075e-14     20.9829909090909    36.8557818181818   25.7840736363636    0.0418681818181818       0.0667727272727273                        207.125227272727    219.147627272727    0.945137636363636    -46.687438221602    -74.0243190502437    
2022-04-22T17:09:08Z    31.6636666666667    -64.1648333333333    25.5      -25.4217919464609    1e-12          4.0664e-14    20.9799136363636    36.8557745454545   25.7849309090909    0.0425318181818182       0.0669636363636364                        207.034772727273    219.159945454545    0.944670563636364    -46.687438221602    -74.0243190502437    
2022-04-22T17:09:08Z    31.6636666666667    -64.1648333333333    26        -25.6730051696658    1e-12          4.075e-14     20.9762045454545    36.8556581818182   25.7858509090909    0.0445318181818182       0.0670545454545455                        206.949272727273    219.174881818182    0.944216             -46.687438221602    -74.0243190502437    
2022-04-22T17:09:08Z    31.6636666666667    -64.1648333333333    26.5      -26.288625202882     1e-12          4.0922e-14    20.9721863636364    36.8555172727273   25.7868418181818    0.0451954545454545       0.0670545454545455                        206.947545454545    219.191045454545    0.944140427272727    -46.687438221602    -74.0243190502437    
2022-04-22T17:09:08Z    31.6636666666667    -64.1648333333333    27        -26.8203406889361    1e-12          4.0951e-14    20.9673636363636    36.8553409090909   25.7880536363636    0.0445318181818182       0.0671545454545455                        206.874545454545    219.210318181818    0.9437243            -46.687438221602    -74.0243190502437    
2022-04-22T17:09:08Z    31.6636666666667    -64.1648333333333    27.5      -27.3222669304588    1e-12          4.09075e-14   20.9618227272727    36.8552063636364   25.7895636363636    0.0445318181818182       0.0670545454545455                        206.827363636364    219.232318181818    0.943414845454545    -46.687438221602    -74.0243190502437    
2022-04-22T17:09:08Z    31.6636666666667    -64.1648333333333    28        -27.8217096209805    1e-12          4.08785e-14   20.9555772727273    36.8550409090909   25.7911727272727    0.0445318181818182       0.0670545454545455                        206.832227272727    219.257181818182    0.943329790909091    -46.687438221602    -74.0243190502437    
2022-04-22T17:09:08Z    31.6636666666667    -64.1648333333333    28.5      -28.3320732586299    1e-12          4.0721e-14    20.9492409090909    36.8549045454546   25.7928381818182    0.0471954545454545       0.0669545454545454                        206.8725            219.282318181818    0.943406663636364    -46.687438221602    -74.0243190502437    
2022-04-22T17:09:08Z    31.6636666666667    -64.1648333333333    29        -28.810662127343     1e-12          4.0607e-14    20.9424136363636    36.8547409090909   25.7946054545455    0.0491954545454545       0.0668636363636364                        206.888681818182    219.3094            0.943363009090909    -46.687438221602    -74.0243190502437    
2022-04-22T17:09:08Z    31.6636666666667    -64.1648333333333    29.5      -29.2644268879857    1e-12          4.098e-14     20.9364681818182    36.8545581818182   25.7961390909091    0.0511863636363636       0.0668636363636364                        206.869954545455    219.333063636364    0.943175418181818    -46.687438221602    -74.0243190502437    
2022-04-22T17:09:08Z    31.6636666666667    -64.1648333333333    30        -29.7787585941864    1e-12          4.1067e-14    20.9308545454545    36.8543972727273   25.7976036363636    0.0531772727272727       0.0668636363636364                        206.844272727273    219.355463636364    0.942961772727273    -46.687438221602    -74.0243190502437    
2022-04-22T17:09:08Z    31.6636666666667    -64.1648333333333    30.5      -30.2692590560885    1e-12          4.09945e-14   20.9251             36.8542381818182   25.7990990909091    0.0541727272727273       0.0668636363636364                        206.849727272727    219.378436363636    0.942888018181818    -46.687438221602    -74.0243190502437    
2022-04-22T17:09:08Z    31.6636666666667    -64.1648333333333    31        -30.7647229033499    1e-12          4.0951e-14    20.9191545454545    36.8541854545455   25.8007136363636    0.0548363636363636       0.0668636363636364                        206.829181818182    219.402018181818    0.942694763636364    -46.687438221602    -74.0243190502437    
2022-04-22T17:09:08Z    31.6636666666667    -64.1648333333333    31.5      -31.2969232143032    1e-12          4.0778e-14    20.9134227272727    36.8542345454545   25.8023718181818    0.0548363636363636       0.0668636363636364                        206.812727272727    219.424636363636    0.942522772727273    -46.687438221602    -74.0243190502437    
2022-04-22T17:09:08Z    31.6636666666667    -64.1648333333333    32        -31.841037026389     1e-12          4.0635e-14    20.9079636363636    36.8544181818182   25.8040690909091    0.0555                   0.0670545454545455                        206.841227272727    219.445936363636    0.942560754545454    -46.687438221602    -74.0243190502437    
2022-04-22T17:09:08Z    31.6636666666667    -64.1648333333333    32.5      -32.086284932098     1e-12          4.07065e-14   20.90295            36.8547018181818   25.8056890909091    0.0568272727272727       0.0670545454545455                        206.951045454545    219.465372727273    0.942976763636364    -46.687438221602    -74.0243190502437    
2022-04-22T17:09:08Z    31.6636666666667    -64.1648333333333    33        -32.7555024181277    1e-12          4.098e-14     20.8986454545455    36.8549881818182   25.80713            0.0568272727272727       0.0671545454545455                        206.988954545455    219.4821            0.943081536363636    -46.687438221602    -74.0243190502437    
2022-04-22T17:09:08Z    31.6636666666667    -64.1648333333333    33.5      -33.2430170419227    1e-12          4.0951e-14    20.8946227272727    36.8553            25.8085             0.0568272727272727       0.0672545454545455                        207.011181818182    219.497654545455    0.943116590909091    -46.687438221602    -74.0243190502437    
2022-04-22T17:09:08Z    31.6636666666667    -64.1648333333333    34        -33.7657783753452    1e-12          4.0807e-14    20.8901227272727    36.8555736363636   25.8099663636364    0.0568272727272727       0.0672545454545455                        206.998227272727    219.515127272727    0.942981836363636    -46.687438221602    -74.0243190502437    
2022-04-22T17:09:08Z    31.6636666666667    -64.1648333333333    34.5      -34.264708888718     1e-12          4.0778e-14    20.8857727272727    36.8558745454545   25.8114163636364    0.0568272727272727       0.0671545454545455                        206.954772727273    219.532027272727    0.942712581818182    -46.687438221602    -74.0243190502437    
2022-04-22T17:09:08Z    31.6636666666667    -64.1648333333333    35        -34.7581772784986    1e-12          4.0664e-14    20.8815             36.8561954545455   25.8128681818182    0.0581636363636364       0.0669636363636364                        206.882590909091    219.5486            0.942312681818182    -46.687438221602    -74.0243190502437    
2022-04-22T17:09:08Z    31.6636666666667    -64.1648333333333    35.5      -35.308239227753     1e-12          4.0692e-14    20.8771454545455    36.8565363636364   25.8143354545455    0.0595                   0.0667636363636364                        206.851772727273    219.565445454545    0.942099309090909    -46.687438221602    -74.0243190502437    
2022-04-22T17:09:08Z    31.6636666666667    -64.1648333333333    36        -35.7083736141583    1e-12          4.0836e-14    20.8726727272727    36.8568636363636   25.8158245454545    0.0608363636363636       0.0665727272727273                        206.871045454545    219.582781818182    0.942111945454546    -46.687438221602    -74.0243190502437    
2022-04-22T17:09:08Z    31.6636666666667    -64.1648333333333    36.5      -36.2494970387416    1e-12          4.0778e-14    20.8684909090909    36.8571609090909   25.8172181818182    0.0628363636363636       0.0663818181818182                        206.8905            219.598981818182    0.942130681818182    -46.687438221602    -74.0243190502437    
2022-04-22T17:09:08Z    31.6636666666667    -64.1648333333333    37        -36.7340246838768    1e-12          4.07925e-14   20.86455            36.8574581818182   25.8185636363636    0.0648363636363636       0.066                                     206.9035            219.6142            0.942125336363636    -46.687438221602    -74.0243190502437    
2022-04-22T17:09:08Z    31.6636666666667    -64.1648333333333    37.5      -37.2632308310652    1e-12          4.075e-14     20.8603909090909    36.8576563636364   25.8198218181818    0.0661727272727273       0.0657090909090909                        206.856772727273    219.630590909091    0.941842             -46.687438221602    -74.0243190502437    
2022-04-22T17:09:08Z    31.6636666666667    -64.1648333333333    38        -37.7229341177672    1e-12          4.075e-14     20.8560318181818    36.8578190909091   25.8211590909091    0.0681727272727273       0.0656090909090909                        206.740818181818    219.6477            0.941239709090909    -46.687438221602    -74.0243190502437    
2022-04-22T17:09:08Z    31.6636666666667    -64.1648333333333    38.5      -38.2134155340288    1e-12          4.0807e-14    20.8515590909091    36.8579527272727   25.8224936363636    0.0708363636363636       0.0655090909090909                        206.740636363636    219.665309090909    0.9411642            -46.687438221602    -74.0243190502437    
2022-04-22T17:09:08Z    31.6636666666667    -64.1648333333333    39        -38.7396392308623    1e-12          4.0807e-14    20.8471             36.8580654545455   25.8238145454545    0.0735                   0.0654090909090909                        206.720272727273    219.682963636364    0.940991236363636    -46.687438221602    -74.0243190502437    
2022-04-22T17:09:08Z    31.6636666666667    -64.1648333333333    39.5      -39.2350825676783    1e-12          4.075e-14     20.8418454545455    36.8581772727273   25.8253536363636    0.0774909090909091       0.0653090909090909                        206.699772727273    219.703618181818    0.940807209090909    -46.687438221602    -74.0243190502437    
2022-04-22T17:09:08Z    31.6636666666667    -64.1648333333333    40        -39.7851324823623    1e-12          4.0721e-14    20.8369681818182    36.8583309090909   25.8268181818182    0.0814818181818182       0.0653090909090909                        206.671590909091    219.722790909091    0.940596690909091    -46.687438221602    -74.0243190502437    
2022-04-22T17:09:08Z    31.6636666666667    -64.1648333333333    40.5      -40.2398657719563    1e-12          4.0692e-14    20.8321954545455    36.8584027272727   25.8282018181818    0.0848090909090909       0.0653090909090909                        206.644136363636    219.741590909091    0.940391472727273    -46.687438221602    -74.0243190502437    
2022-04-22T17:09:08Z    31.6636666666667    -64.1648333333333    41        -40.6519048887997    1e-12          4.0836e-14    20.8269545454545    36.8584381818182   25.8296990909091    0.0861363636363636       0.0654090909090909                        206.638590909091    219.762281818182    0.940278654545455    -46.687438221602    -74.0243190502437    
2022-04-22T17:09:08Z    31.6636666666667    -64.1648333333333    41.5      -41.1721651413937    1e-12          4.0836e-14    20.8215681818182    36.8585827272727   25.8313127272727    0.0894636363636364       0.0654090909090909                        206.621363636364    219.783390909091    0.940110145454546    -46.687438221602    -74.0243190502437    
2022-04-22T17:09:08Z    31.6636666666667    -64.1648333333333    42        -41.6983812297719    1e-12          4.0836e-14    20.8162363636364    36.8587109090909   25.8329072727273    0.0914636363636363       0.0652181818181818                        206.6435            219.804354545455    0.940119245454546    -46.687438221602    -74.0243190502437    
2022-04-22T17:09:08Z    31.6636666666667    -64.1648333333333    42.5      -42.2216173924348    1e-12          4.0807e-14    20.8103090909091    36.8588609090909   25.8346527272727    0.0934636363636363       0.0657                                    206.6845            219.827727272727    0.940205190909091    -46.687438221602    -74.0243190502437    
2022-04-22T17:09:08Z    31.6636666666667    -64.1648333333333    43        -42.7031523392706    1e-12          4.0807e-14    20.8046272727273    36.8590481818182   25.8364245454546    0.0954636363636364       0.0657                                    206.708181818182    219.849890909091    0.940218145454545    -46.687438221602    -74.0243190502437    
2022-04-22T17:09:08Z    31.6636666666667    -64.1648333333333    43.5      -43.2169538403773    1e-12          4.0764e-14    20.7996590909091    36.85923           25.8379490909091    0.0981272727272727       0.0656                                    206.740227272727    219.869381818182    0.940277263636364    -46.687438221602    -74.0243190502437    
2022-04-22T17:09:08Z    31.6636666666667    -64.1648333333333    44        -43.7669930524002    1e-12          4.0692e-14    20.79355            36.8594181818182   25.8397781818182    0.100790909090909        0.0656                                    206.736409090909    219.893272727273    0.940149172727273    -46.687438221602    -74.0243190502437    
2022-04-22T17:09:08Z    31.6636666666667    -64.1648333333333    44.5      -44.1556931572334    1e-12          4.0836e-14    20.7868181818182    36.8596690909091   25.8418372727273    0.104790909090909        0.0655545454545454                        206.733454545455    219.919463636364    0.940031518181818    -46.687438221602    -74.0243190502437    
2022-04-22T17:09:08Z    31.6636666666667    -64.1648333333333    45        -44.6580732962912    1e-12          4.0864e-14    20.7809545454545    36.8598990909091   25.8436236363636    0.105463636363636        0.0654636363636364                        206.731818181818    219.942463636364    0.939928218181818    -46.687438221602    -74.0243190502437    
2022-04-22T17:09:08Z    31.6636666666667    -64.1648333333333    45.5      -45.1842804186029    1e-12          4.0836e-14    20.7753181818182    36.8600609090909   25.8453190909091    0.106136363636364        0.0653636363636364                        206.734454545455    219.9646            0.9398507            -46.687438221602    -74.0243190502437    
2022-04-22T17:09:08Z    31.6636666666667    -64.1648333333333    46        -45.6618370347206    1e-12          4.0778e-14    20.7702454545455    36.8602172727273   25.8468518181818    0.107140909090909        0.0651727272727273                        206.739227272727    219.984536363636    0.939786945454545    -46.687438221602    -74.0243190502437    
2022-04-22T17:09:08Z    31.6636666666667    -64.1648333333333    46.5      -46.1642134766019    1e-12          4.0721e-14    20.7656818181818    36.8604236363636   25.8482654545455    0.111140909090909        0.0650727272727273                        206.695454545455    220.002490909091    0.939511372727273    -46.687438221602    -74.0243190502437    
2022-04-22T17:09:08Z    31.6636666666667    -64.1648333333333    47        -46.687438221602     1e-12          4.0664e-14    20.7613             36.8604490909091   25.8494918181818    0.113140909090909        0.0651227272727273                        206.639590909091    220.020127272727    0.939174854545454    -46.687438221602    -74.0243190502437    
2022-04-22T17:09:08Z    31.6636666666667    -64.1648333333333    47.5      -47.2583175866567    1e-12          4.0692e-14    20.7535772727273    36.8606281818182   25.8517072727273    0.115804545454545        0.0654136363636364                        206.642090909091    220.050481818182    0.939050445454546    -46.687438221602    -74.0243190502437    
2022-04-22T17:09:08Z    31.6636666666667    -64.1648333333333    48        -47.5333319467251    1e-12          4.0836e-14    20.7451863636364    36.8608736363636   25.8541781818182    0.118468181818182        0.0650227272727273                        206.569454545455    220.083236363636    0.938574536363636    -46.687438221602    -74.0243190502437    
2022-04-22T17:09:08Z    31.6636666666667    -64.1648333333333    48.5      -48.1667571175813    1e-12          4.08215e-14   20.7324954545455    36.8612018181818   25.8579290909091    0.119795454545455        0.0649318181818182                        206.629681818182    220.132736363636    0.938636554545454    -46.687438221602    -74.0243190502437    
2022-04-22T17:09:08Z    31.6636666666667    -64.1648333333333    49        -48.6452995973536    1e-12          4.07925e-14   20.7168590909091    36.8615045454545   25.86242            0.121131818181818        0.0650318181818182                        206.701681818182    220.193918181818    0.938702681818182    -46.687438221602    -74.0243190502437    
2022-04-22T17:09:08Z    31.6636666666667    -64.1648333333333    49.5      -49.1476687160706    1e-12          4.0721e-14    20.7007045454545    36.8621036363636   25.86728            0.122468181818182        0.0649409090909091                        206.695318181818    220.256763636364    0.938409890909091    -46.687438221602    -74.0243190502437    
2022-04-22T17:09:08Z    31.6636666666667    -64.1648333333333    50        -49.6738642982961    1e-12          4.0692e-14    20.6844045454545    36.8627563636364   25.8722245454545    0.125131818181818        0.0649863636363636                        206.588590909091    220.3201            0.937652590909091    -46.687438221602    -74.0243190502437    
2022-04-22T17:09:08Z    31.6636666666667    -64.1648333333333    50.5      -49.9905738165074    1e-12          4.075e-14     20.6684772727273    36.8633145454545   25.8770209090909    0.127795454545455        0.0650772727272727                        206.567045454545    220.381990909091    0.937292154545455    -46.687438221602    -74.0243190502437    
2022-04-22T17:09:08Z    31.6636666666667    -64.1648333333333    51        -50.6066171011686    1e-12          4.0836e-14    20.6509590909091    36.86401           25.8823236363636    0.130459090909091        0.0650772727272727                        206.540954545455    220.450045454545    0.936879127272727    -46.687438221602    -74.0243190502437    
2022-04-22T17:09:08Z    31.6636666666667    -64.1648333333333    51.5      -51.1263556449158    1e-12          4.075e-14     20.6323045454545    36.8648445454545   25.8880318181818    0.134781818181818        0.0651681818181818                        206.523090909091    220.522336363636    0.936491345454545    -46.687438221602    -74.0243190502437    
2022-04-22T17:09:08Z    31.6636666666667    -64.1648333333333    52        -51.6287186741042    1e-12          4.0778e-14    20.6133227272727    36.8656772727273   25.8938490909091    0.138781818181818        0.0649772727272727                        206.584818181818    220.595881818182    0.936459145454546    -46.687438221602    -74.0243190502437    
2022-04-22T17:09:08Z    31.6636666666667    -64.1648333333333    52.5      -52.1787352802599    1e-12          4.075e-14     20.5944636363636    36.8666327272727   25.8997372727273    0.143445454545455        0.0649272727272727                        206.650363636364    220.668663636364    0.936455254545455    -46.687438221602    -74.0243190502437    
2022-04-22T17:09:08Z    31.6636666666667    -64.1648333333333    53        -52.4964337295511    1e-12          4.0721e-14    20.5790772727273    36.8673527272727   25.9045209090909    0.148109090909091        0.0648272727272727                        206.665636363636    220.728281818182    0.936280272727273    -46.687438221602    -74.0243190502437    
2022-04-22T17:09:08Z    31.6636666666667    -64.1648333333333    53.5      -53.1358003640069    1e-12          4.0807e-14    20.5651136363636    36.8679263636364   25.9088027272727    0.153436363636364        0.0649272727272727                        206.717636363636    220.782581818182    0.936291709090909    -46.687438221602    -74.0243190502437    
2022-04-22T17:09:08Z    31.6636666666667    -64.1648333333333    54        -53.6381584614844    1e-12          4.0864e-14    20.5556863636364    36.8683654545455   25.9116890909091    0.160763636363636        0.0651181818181818                        206.626863636364    220.8194            0.935724681818182    -46.687438221602    -74.0243190502437    
2022-04-22T17:09:08Z    31.6636666666667    -64.1648333333333    54.5      -54.1166881494828    1e-12          4.0864e-14    20.5488227272727    36.8688427272727   25.91395            0.166754545454545        0.0652181818181818                        206.514863636364    220.846009090909    0.935112854545455    -46.687438221602    -74.0243190502437    
2022-04-22T17:09:08Z    31.6636666666667    -64.1648333333333    55        -54.5952167215712    1e-12          4.0807e-14    20.5435954545455    36.8690718181818   25.9155909090909    0.171418181818182        0.0653090909090909                        206.483227272727    220.866527272727    0.934885772727273    -46.687438221602    -74.0243190502437    
2022-04-22T17:09:08Z    31.6636666666667    -64.1648333333333    55.5      -55.0975712374163    1e-12          4.0692e-14    20.5391909090909    36.8692136363636   25.9169290909091    0.173418181818182        0.0654090909090909                        206.527136363636    220.884054545455    0.935009345454545    -46.687438221602    -74.0243190502437    
2022-04-22T17:09:08Z    31.6636666666667    -64.1648333333333    56        -55.6416217731037    1e-12          4.0635e-14    20.5341636363636    36.8693936363636   25.9184554545455    0.176745454545455        0.0655090909090909                        206.463045454545    220.903963636364    0.934632618181818    -46.687438221602    -74.0243190502437    
2022-04-22T17:09:08Z    31.6636666666667    -64.1648333333333    56.5      -56.0536298845242    1e-12          4.0836e-14    20.5287409090909    36.8694872727273   25.9200272727273    0.182736363636364        0.0656090909090909                        206.443545454546    220.925527272727    0.934463072727273    -46.687438221602    -74.0243190502437    
2022-04-22T17:09:08Z    31.6636666666667    -64.1648333333333    57        -56.5559808213357    1e-12          4.0922e-14    20.5232772727273    36.8695981818182   25.9216236363636    0.186736363636364        0.0657090909090909                        206.416636363636    220.947227272727    0.934246563636364    -46.687438221602    -74.0243190502437    
2022-04-22T17:09:08Z    31.6636666666667    -64.1648333333333    57.5      -57.1000274809786    1e-12          4.0836e-14    20.5174818181818    36.8696709090909   25.9233018181818    0.1894                   0.066                                     206.362227272727    220.970263636364    0.933902990909091    -46.687438221602    -74.0243190502437    
2022-04-22T17:09:08Z    31.6636666666667    -64.1648333333333    58        -57.6023758499517    1e-12          4.0807e-14    20.5104090909091    36.8694981818182   25.9250927272727    0.194054545454545        0.0661                                    206.2825            220.998763636364    0.933421709090909    -46.687438221602    -74.0243190502437    
2022-04-22T17:09:08Z    31.6636666666667    -64.1648333333333    58.5      -58.1047229861971    1e-12          4.0721e-14    20.5027590909091    36.8692281818182   25.9269881818182    0.198709090909091        0.0661                                    206.2315            221.0297            0.933056872727273    -46.687438221602    -74.0243190502437    
2022-04-22T17:09:08Z    31.6636666666667    -64.1648333333333    59        -58.6279172098065    1e-12          4.06495e-14   20.4935227272727    36.8690454545455   25.9293618181818    0.207363636363636        0.0661                                    206.189772727273    221.066827272727    0.932711645454545    -46.687438221602    -74.0243190502437    
2022-04-22T17:09:08Z    31.6636666666667    -64.1648333333333    59.5      -59.0141071565138    1e-12          4.075e-14     20.4835318181818    36.8690172727273   25.9320554545455    0.215354545454545        0.0662                                    206.158863636364    221.106663636364    0.932403572727273    -46.687438221602    -74.0243190502437    
2022-04-22T17:09:08Z    31.6636666666667    -64.1648333333333    60        -59.5164508285566    1e-12          4.0951e-14    20.4735590909091    36.8690236363636   25.9347927272727    0.246654545454545        0.0668727272727273                        205.961772727273    221.146290909091    0.931353327272727    -46.687438221602    -74.0243190502437    
2022-04-22T17:09:08Z    31.6636666666667    -64.1648333333333    60.5      -60.0396414442497    1e-12          4.0922e-14    20.4639409090909    36.8689609090909   25.9373690909091    0.268963636363636        0.0677454545454546                        205.716409090909    221.184663636364    0.930079527272727    -46.687438221602    -74.0243190502437    
2022-04-22T17:09:08Z    31.6636666666667    -64.1648333333333    61        -60.562830724995     1e-12          4.0836e-14    20.4547045454545    36.8688581818182   25.9398027272727    0.289609090909091        0.0685181818181818                        205.493681818182    221.221572727273    0.928918718181818    -46.687438221602    -74.0243190502437    
2022-04-22T17:09:08Z    31.6636666666667    -64.1648333333333    61.5      -61.0651705968215    1e-12          4.0778e-14    20.4462318181818    36.8687972727273   25.9420636363636    0.324909090909091        0.0702545454545454                        205.314090909091    221.255527272727    0.9279662            -46.687438221602    -74.0243190502437    
2022-04-22T17:09:08Z    31.6636666666667    -64.1648333333333    62        -61.5675092360531    1e-12          4.0664e-14    20.4394090909091    36.8686890909091   25.9438463636364    0.357545454545455        0.0722818181818182                        205.148772727273    221.282990909091    0.927093909090909    -46.687438221602    -74.0243190502437    
2022-04-22T17:09:08Z    31.6636666666667    -64.1648333333333    62.5      -62.1591950641881    1e-12          4.0721e-14    20.4332090909091    36.8684754545455   25.9453836363636    0.389509090909091        0.0742090909090909                        205.015227272727    221.308218181818    0.926387436363636    -46.687438221602    -74.0243190502437    
2022-04-22T17:09:08Z    31.6636666666667    -64.1648333333333    63        -62.5483566215696    1e-12          4.0951e-14    20.4277454545455    36.8682763636364   25.9467036363636    0.4248                   0.0761363636363636                        204.868727272727    221.330527272727    0.925631727272727    -46.687438221602    -74.0243190502437    
2022-04-22T17:09:08Z    31.6636666666667    -64.1648333333333    63.5      -63.0685612247827    1e-12          4.0951e-14    20.4234181818182    36.8682681818182   25.9479             0.4601                   0.0776727272727273                        204.686181818182    221.347981818182    0.924734418181818    -46.687438221602    -74.0243190502437    
2022-04-22T17:09:08Z    31.6636666666667    -64.1648333333333    64        -63.5500471296084    1e-12          4.0836e-14    20.4196545454545    36.8684181818182   25.9490336363636    0.494736363636364        0.0796                                    204.500181818182    221.363             0.923834363636364    -46.687438221602    -74.0243190502437    
2022-04-22T17:09:08Z    31.6636666666667    -64.1648333333333    64.5      -64.0255753984913    1e-12          4.075e-14     20.4173363636364    36.8685163636364   25.9497836363636    0.525372727272727        0.0818181818181818                        204.353454545455    221.3723            0.923134345454546    -46.687438221602    -74.0243190502437    
2022-04-22T17:09:08Z    31.6636666666667    -64.1648333333333    65        -64.5338632652172    1e-12          4.0664e-14    20.4155818181818    36.8685054545455   25.9502818181818    0.556672727272727        0.0837454545454546                        204.212545454545    221.379554545455    0.922466845454545    -46.687438221602    -74.0243190502437    
2022-04-22T17:09:08Z    31.6636666666667    -64.1648333333333    65.5      -65.1255405206962    1e-12          4.0721e-14    20.4125363636364    36.8683509090909   25.9510072727273    0.564663636363636        0.085                                     204.241727272727    221.392272727273    0.922534863636364    -46.687438221602    -74.0243190502437    
2022-04-22T17:09:08Z    31.6636666666667    -64.1648333333333    66        -65.5112218368863    1e-12          4.0951e-14    20.4087             36.86827           25.9519918181818    0.584309090909091        0.0864454545454545                        204.299909090909    221.408018181818    0.922732336363636    -46.687438221602    -74.0243190502437    
2022-04-22T17:09:08Z    31.6636666666667    -64.1648333333333    66.5      -66.0408499534636    1e-12          4.0864e-14    20.4047363636364    36.8681618181818   25.9530009090909    0.606945454545454        0.0877909090909091                        204.253772727273    221.424190909091    0.922456327272727    -46.687438221602    -74.0243190502437    
2022-04-22T17:09:08Z    31.6636666666667    -64.1648333333333    67        -66.5789149771298    1e-12          4.0836e-14    20.4                36.8679990909091   25.9541772727273    0.616263636363636        0.0896272727272727                        204.233363636364    221.443509090909    0.922288709090909    -46.687438221602    -74.0243190502437    
2022-04-22T17:09:08Z    31.6636666666667    -64.1648333333333    67.5      -67.0335887472751    1e-12          4.075e-14     20.3941181818182    36.8678454545455   25.9556381818182    0.626254545454545        0.0896272727272727                        204.159818181818    221.467472727273    0.921857072727273    -46.687438221602    -74.0243190502437    
2022-04-22T17:09:08Z    31.6636666666667    -64.1648333333333    68        -67.5359127429981    1e-12          4.0664e-14    20.3869136363636    36.8677563636364   25.9575336363636    0.640909090909091        0.0896272727272727                        204.031318181818    221.496481818182    0.921156909090909    -46.687438221602    -74.0243190502437    
2022-04-22T17:09:08Z    31.6636666666667    -64.1648333333333    68.5      -68.0441918953848    1e-12          4.0664e-14    20.37955            36.8677463636364   25.9595372727273    0.655563636363636        0.0897272727272727                        203.881954545455    221.526027272727    0.920359272727272    -46.687438221602    -74.0243190502437    
2022-04-22T17:09:08Z    31.6636666666667    -64.1648333333333    69        -68.4745405420825    1e-12          4.0778e-14    20.3724954545455    36.8677336363636   25.9614536363636    0.668881818181818        0.0898272727272727                        203.790045454545    221.554372727273    0.919825590909091    -46.687438221602    -74.0243190502437    
2022-04-22T17:09:08Z    31.6636666666667    -64.1648333333333    69.5      -68.958495553913     1e-12          4.0922e-14    20.3653590909091    36.8677090909091   25.9634018181818    0.684863636363636        0.0897272727272727                        203.655636363636    221.583027272727    0.919094718181818    -46.687438221602    -74.0243190502437    
2022-04-22T17:09:08Z    31.6636666666667    -64.1648333333333    70        -69.4608148273674    1e-12          4.075e-14     20.3579863636364    36.8676809090909   25.96537            0.700845454545455        0.0895363636363636                        203.474181818182    221.612636363636    0.918150881818182    -46.687438221602    -74.0243190502437    
2022-04-22T17:09:08Z    31.6636666666667    -64.1648333333333    70.5      -70.0028417520324    1e-12          4.0664e-14    20.3509136363636    36.8676481818182   25.96728            0.716163636363636        0.0891454545454545                        203.265             221.641081818182    0.917089363636364    -46.687438221602    -74.0243190502437    
2022-04-22T17:09:08Z    31.6636666666667    -64.1648333333333    71        -70.5051584635489    1e-12          4.0635e-14    20.3451136363636    36.86772           25.9689181818182    0.731481818181818        0.0887545454545454                        203.077             221.664290909091    0.916144972727273    -46.687438221602    -74.0243190502437    
2022-04-22T17:09:08Z    31.6636666666667    -64.1648333333333    71.5      -71.0581025097608    1e-12          4.0664e-14    20.3398136363636    36.8677418181818   25.9703918181818    0.743472727272727        0.0880818181818182                        202.868818181818    221.685472727273    0.915116445454546    -46.687438221602    -74.0243190502437    
2022-04-22T17:09:08Z    31.6636666666667    -64.1648333333333    72        -71.3688226560321    1e-12          4.098e-14     20.3342681818182    36.8677936363636   25.9719481818182    0.755463636363636        0.0875090909090909                        202.768772727273    221.707727272727    0.914572236363636    -46.687438221602    -74.0243190502437    
2022-04-22T17:09:08Z    31.6636666666667    -64.1648333333333    72.5      -71.9674291486501    1e-12          4.0922e-14    20.3292227272727    36.8678872727273   25.9734009090909    0.772118181818182        0.0854818181818182                        202.572636363636    221.727945454546    0.913598690909091    -46.687438221602    -74.0243190502437    
2022-04-22T17:09:08Z    31.6636666666667    -64.1648333333333    73        -72.463784780564     1e-12          4.07925e-14   20.3252727272727    36.8680036363636   25.9746145454545    0.785436363636364        0.0846090909090909                        202.400363636364    221.7437            0.912756854545455    -46.687438221602    -74.0243190502437    
2022-04-22T17:09:08Z    31.6636666666667    -64.1648333333333    73.5      -72.9601392095409    1e-12          4.0692e-14    20.3226318181818    36.8680518181818   25.9753909090909    0.794763636363636        0.0838363636363636                        202.284863636364    221.7545            0.912191527272727    -46.687438221602    -74.0243190502437    
2022-04-22T17:09:08Z    31.6636666666667    -64.1648333333333    74        -73.462448666744     1e-12          4.0635e-14    20.3201227272727    36.8680172727273   25.9760654545455    0.795427272727273        0.0826727272727273                        202.203272727273    221.764881818182    0.911781645454545    -46.687438221602    -74.0243190502437    
2022-04-22T17:09:08Z    31.6636666666667    -64.1648333333333    74.5      -74.0243190502437    1e-12          4.0692e-14    20.31795            36.8679754545455   25.9766345454545    0.797427272727273        0.0818                                    202.137090909091    221.774036363636    0.911437772727273    -46.687438221602    -74.0243190502437    
2022-04-22T17:09:08Z    31.6636666666667    -64.1648333333333    75        -74.3985675481652    1e-12          4.1183e-14    20.3149454545455    36.86798           25.9774481818182    0.796431818181818        0.0807454545454546                        202.080863636364    221.786245454545    0.911131281818182    -46.687438221602    -74.0243190502437    
2022-04-22T17:09:08Z    31.6636666666667    -64.1648333333333    75.5      -74.92767632896      1e-12          4.1096e-14    20.3103818181818    36.8680727272727   25.9787845454545    0.793104545454546        0.0792                                    202.004409090909    221.804590909091    0.910716390909091    -46.687438221602    -74.0243190502437    
2022-04-22T17:09:08Z    31.6636666666667    -64.1648333333333    76        -75.4716741745495    1e-12          4.0922e-14    20.3056090909091    36.8681663636364   25.98016            0.790440909090909        0.0778545454545455                        201.9405            221.823763636364    0.9103546            -46.687438221602    -74.0243190502437    
2022-04-22T17:09:08Z    31.6636666666667    -64.1648333333333    76.5      -75.971495733737     1e-12          4.0778e-14    20.3009636363636    36.8682709090909   25.9815090909091    0.78445                  0.0765090909090909                        201.878727272727    221.842454545455    0.910000590909091    -46.687438221602    -74.0243190502437    
2022-04-22T17:09:08Z    31.6636666666667    -64.1648333333333    77        -76.6083073447175    1e-12          4.1067e-14    20.2960636363636    36.8683990909091   25.9829636363636    0.78045                  0.0752545454545455                        201.835090909091    221.862163636364    0.909726745454546    -46.687438221602    -74.0243190502437    
2022-04-22T17:09:08Z    31.6636666666667    -64.1648333333333    77.5      -76.9820547772963    1e-12          4.1038e-14    20.2911090909091    36.8685545454545   25.9844445454545    0.776459090909091        0.074                                     201.786181818182    221.881963636364    0.909429763636364    -46.687438221602    -74.0243190502437    
2022-04-22T17:09:08Z    31.6636666666667    -64.1648333333333    78        -77.4759165409044    1e-12          4.0951e-14    20.2853818181818    36.8687718181818   25.98617            0.760477272727273        0.07255                                   201.784090909091    221.904781818182    0.909327081818182    -46.687438221602    -74.0243190502437    
2022-04-22T17:09:08Z    31.6636666666667    -64.1648333333333    78.5      -77.9285807493767    1e-12          4.0864e-14    20.2796136363636    36.8690009090909   25.9879236363636    0.747159090909091        0.0713954545454546                        201.750727272727    221.927663636364    0.909083118181818    -46.687438221602    -74.0243190502437    
2022-04-22T17:09:08Z    31.6636666666667    -64.1648333333333    79        -78.4298853390145    1e-12          4.0721e-14    20.2736318181818    36.8692236363636   25.9897281818182    0.728504545454545        0.0701409090909091                        201.714909090909    221.951463636364    0.908824590909091    -46.687438221602    -74.0243190502437    
2022-04-22T17:09:08Z    31.6636666666667    -64.1648333333333    79.5      -78.9311887015872    1e-12          4.0664e-14    20.2672772727273    36.8694690909091   25.9916345454545    0.722513636363636        0.0692772727272727                        201.701818181818    221.976690909091    0.908660945454545    -46.687438221602    -74.0243190502437    
2022-04-22T17:09:08Z    31.6636666666667    -64.1648333333333    80        -79.2567870599694    1e-12          4.0607e-14    20.2602136363636    36.8697963636364   25.9938127272727    0.71985                  0.0686045454545455                        201.670909090909    222.004445454545    0.908417345454545    -46.687438221602    -74.0243190502437    
2022-04-22T17:09:08Z    31.6636666666667    -64.1648333333333    80.5      -79.935777093307     1e-12          4.0836e-14    20.2540363636364    36.8701154545454   25.9957545454545    0.704863636363636        0.06745                                   201.594             222.028972727273    0.907978745454545    -46.687438221602    -74.0243190502437    
2022-04-22T17:09:08Z    31.6636666666667    -64.1648333333333    81        -80.4797616362141    1e-12          4.0778e-14    20.2499             36.8703472727273   25.99706            0.688881818181818        0.0663954545454545                        201.449636363636    222.045463636364    0.907257381818182    -46.687438221602    -74.0243190502437    
2022-04-22T17:09:08Z    31.6636666666667    -64.1648333333333    81.5      -80.9016464637436    1e-12          4.0721e-14    20.2454954545455    36.8705636363636   25.99838            0.673231818181818        0.0655318181818182                        201.440727272727    222.063054545455    0.907139863636364    -46.687438221602    -74.0243190502437    
2022-04-22T17:09:08Z    31.6636666666667    -64.1648333333333    82        -81.3950024425083    1e-12          4.0807e-14    20.2408227272727    36.8707854545454   25.9998381818182    0.658577272727273        0.0645681818181818                        201.462863636364    222.081663636364    0.907164163636363    -46.687438221602    -74.0243190502437    
2022-04-22T17:09:08Z    31.6636666666667    -64.1648333333333    82.5      -81.9191298250455    1e-12          4.0807e-14    20.2362318181818    36.8709609090909   26.0012181818182    0.643922727272727        0.0635136363636364                        201.462409090909    222.099981818182    0.907085954545454    -46.687438221602    -74.0243190502437    
2022-04-22T17:09:08Z    31.6636666666667    -64.1648333333333    83        -82.4601311164837    1e-12          4.0836e-14    20.2317590909091    36.8711236363636   26.00256            0.628604545454545        0.0624590909090909                        201.425318181818    222.117954545455    0.906843463636363    -46.687438221602    -74.0243190502437    
2022-04-22T17:09:08Z    31.6636666666667    -64.1648333333333    83.5      -82.8641439919298    1e-12          4.0807e-14    20.2280409090909    36.8712072727273   26.0036490909091    0.617277272727273        0.0615                                    201.360772727273    222.132972727273    0.906491854545455    -46.687438221602    -74.0243190502437    
2022-04-22T17:09:08Z    31.6636666666667    -64.1648333333333    84        -83.3783410438585    1e-12          4.0778e-14    20.2243318181818    36.8712754545455   26.0047118181818    0.605286363636364        0.0606363636363636                        201.272227272727    222.148054545455    0.906032336363636    -46.687438221602    -74.0243190502437    
2022-04-22T17:09:08Z    31.6636666666667    -64.1648333333333    84.5      -83.9024633532691    1e-12          4.075e-14     20.2204954545455    36.8713545454545   26.0058181818182    0.599959090909091        0.0596818181818182                        201.171954545455    222.163536363636    0.905516927272727    -46.687438221602    -74.0243190502437    
2022-04-22T17:09:08Z    31.6636666666667    -64.1648333333333    85        -84.4047459736074    1e-12          4.075e-14     20.2168863636364    36.8714490909091   26.0068872727273    0.587968181818182        0.0587181818181818                        201.035318181818    222.178163636364    0.904843590909091    -46.687438221602    -74.0243190502437    
2022-04-22T17:09:08Z    31.6636666666667    -64.1648333333333    85.5      -84.9070273622451    1e-12          4.075e-14     20.2127318181818    36.8715627272727   26.0081036363636    0.575313636363636        0.0575181818181818                        200.902545454545    222.194963636364    0.904180672727273    -46.687438221602    -74.0243190502437    
2022-04-22T17:09:08Z    31.6636666666667    -64.1648333333333    86        -85.4093075192013    1e-12          4.0778e-14    20.2084045454545    36.8717618181818   26.0094336363636    0.575977272727273        0.0567454545454545                        200.879454545455    222.212281818182    0.904007509090909    -46.687438221602    -74.0243190502437    
2022-04-22T17:09:08Z    31.6636666666667    -64.1648333333333    86.5      -85.8222483857792    1e-12          4.0864e-14    20.2030045454545    36.8720072727273   26.0110936363636    0.569986363636364        0.0561636363636364                        201.005318181818    222.233781818182    0.904484390909091    -46.687438221602    -74.0243190502437    
2022-04-22T17:09:08Z    31.6636666666667    -64.1648333333333    87        -86.3672099378561    1e-12          4.0836e-14    20.1979181818182    36.8722581818182   26.0127245454545    0.560336363636364        0.0555818181818182                        200.982227272727    222.253981818182    0.904298318181818    -46.687438221602    -74.0243190502437    
2022-04-22T17:09:08Z    31.6636666666667    -64.1648333333333    87.5      -86.8694865142821    1e-12          4.075e-14     20.1920363636364    36.8724454545455   26.01447            0.557009090909091        0.0549090909090909                        200.874136363636    222.277463636364    0.9037162            -46.687438221602    -74.0243190502437    
2022-04-22T17:09:08Z    31.6636666666667    -64.1648333333333    88        -87.3479385490257    1e-12          4.0721e-14    20.1864454545455    36.8726436363636   26.0161427272727    0.556345454545455        0.0540454545454545                        200.803045454545    222.299863636364    0.903304236363636    -46.687438221602    -74.0243190502437    
2022-04-22T17:09:08Z    31.6636666666667    -64.1648333333333    88.5      -87.8988518537071    1e-12          4.0692e-14    20.1808954545455    36.8728136363636   26.0177672727273    0.555009090909091        0.0528                                    200.791             222.322118181818    0.903156818181818    -46.687438221602    -74.0243190502437    
2022-04-22T17:09:08Z    31.6636666666667    -64.1648333333333    89        -88.5023731978022    1e-12          4.0778e-14    20.1752590909091    36.8729645454546   26.0194081818182    0.545681818181818        0.0511727272727273                        200.811863636364    222.344754545455    0.903158645454545    -46.687438221602    -74.0243190502437    
2022-04-22T17:09:08Z    31.6636666666667    -64.1648333333333    89.5      -88.7902363703281    1e-12          4.098e-14     20.1696954545455    36.8730936363636   26.0210163636364    0.531690909090909        0.0495454545454545                        200.848136363636    222.367036363636    0.903231109090909    -46.687438221602    -74.0243190502437    
2022-04-22T17:09:08Z    31.6636666666667    -64.1648333333333    90        -89.394251400817     1e-12          4.0922e-14    20.1643090909091    36.8731854545455   26.0225645454545    0.517377272727273        0.0484454545454545                        200.861318181818    222.388745454545    0.903199918181818    -46.687438221602    -74.0243190502437    
2022-04-22T17:09:08Z    31.6636666666667    -64.1648333333333    90.5      -89.8612823446436    1e-12          4.0836e-14    20.1586             36.8732563636364   26.0241763636364    0.499395454545455        0.0468272727272727                        200.821727272727    222.411663636364    0.902922836363636    -46.687438221602    -74.0243190502437    
2022-04-22T17:09:08Z    31.6636666666667    -64.1648333333333    91        -90.3635503523866    1e-12          4.075e-14     20.1530727272727    36.8732536363636   26.02569            0.47675                  0.0450636363636364                        200.807681818182    222.434072727273    0.902764881818182    -46.687438221602    -74.0243190502437    
2022-04-22T17:09:08Z    31.6636666666667    -64.1648333333333    91.5      -90.883684306369     1e-12          4.0692e-14    20.1474909090909    36.8730981818182   26.0270854545455    0.453440909090909        0.0432545454545455                        200.759045454545    222.456827272727    0.902453727272727    -46.687438221602    -74.0243190502437    
2022-04-22T17:09:08Z    31.6636666666667    -64.1648333333333    92        -91.3452524522449    1e-12          4.075e-14     20.1426727272727    36.8729127272727   26.0282672727273    0.436786363636364        0.0413454545454545                        200.547818181818    222.476663636364    0.901425081818182    -46.687438221602    -74.0243190502437    
2022-04-22T17:09:08Z    31.6636666666667    -64.1648333333333    92.5      -91.7998712438467    1e-12          4.0893e-14    20.1379454545455    36.8727172727273   26.0294127272727    0.422795454545455        0.0393454545454545                        200.335181818182    222.496218181818    0.9003901            -46.687438221602    -74.0243190502437    
2022-04-22T17:09:08Z    31.6636666666667    -64.1648333333333    93        -92.311068024822     1e-12          4.0893e-14    20.1344909090909    36.8725536363636   26.0302272727273    0.40415                  0.0374363636363636                        200.209090909091    222.5106            0.899764009090909    -46.687438221602    -74.0243190502437    
2022-04-22T17:09:08Z    31.6636666666667    -64.1648333333333    93.5      -92.8043965247279    1e-12          4.0864e-14    20.1312090909091    36.8723863636364   26.0310036363636    0.382177272727273        0.0361909090909091                        200.128545454545    222.524354545455    0.899346863636364    -46.687438221602    -74.0243190502437    
2022-04-22T17:09:08Z    31.6636666666667    -64.1648333333333    94        -93.3076499271347    1e-12          4.0807e-14    20.12815            36.8722354545454   26.0317509090909    0.357531818181818        0.0347545454545455                        200.013681818182    222.537109090909    0.8987809            -46.687438221602    -74.0243190502437    
2022-04-22T17:09:08Z    31.6636666666667    -64.1648333333333    94.5      -93.8307542233611    1e-12          4.075e-14     20.12535            36.8720981818182   26.0324254545455    0.34555                  0.0337090909090909                        199.884772727273    222.548836363636    0.898155036363636    -46.687438221602    -74.0243190502437    
2022-04-22T17:09:08Z    31.6636666666667    -64.1648333333333    95        -94.3548497900124    1e-12          4.075e-14     20.1225045454545    36.872             26.03313            0.338895454545455        0.0325636363636364                        199.786227272727    222.560745454545    0.897664909090909    -46.687438221602    -74.0243190502437    
2022-04-22T17:09:08Z    31.6636666666667    -64.1648333333333    95.5      -94.8154175135786    1e-12          4.0778e-14    20.1196727272727    36.8719163636364   26.0338390909091    0.3319                   0.0310818181818182                        199.6685            222.572518181818    0.897091672727273    -46.687438221602    -74.0243190502437    
2022-04-22T17:09:08Z    31.6636666666667    -64.1648333333333    96        -95.2700286046465    1e-12          4.0807e-14    20.1170272727273    36.8718336363636   26.0345027272727    0.324572727272727        0.0300272727272727                        199.632636363636    222.583645454545    0.896892027272727    -46.687438221602    -74.0243190502437    
2022-04-22T17:09:08Z    31.6636666666667    -64.1648333333333    96.5      -95.8149650242287    1e-12          4.0864e-14    20.1147363636364    36.87175           26.0350790909091    0.315918181818182        0.0292136363636364                        199.552818181818    222.593227272727    0.896493509090909    -46.687438221602    -74.0243190502437    
2022-04-22T17:09:08Z    31.6636666666667    -64.1648333333333    97        -96.3648629655992    1e-12          4.0864e-14    20.1126545454545    36.8716990909091   26.0356318181818    0.307927272727273        0.02845                                   199.437636363636    222.602             0.8959397            -46.687438221602    -74.0243190502437    
2022-04-22T17:09:08Z    31.6636666666667    -64.1648333333333    97.5      -96.8373372742843    1e-12          4.0836e-14    20.1105909090909    36.8716454545455   26.0361363636364    0.301263636363636        0.0277863636363636                        199.460181818182    222.610754545455    0.896007736363636    -46.687438221602    -74.0243190502437    
2022-04-22T17:09:08Z    31.6636666666667    -64.1648333333333    98        -97.2651439536618    1e-12          4.0778e-14    20.1079045454545    36.8715563636364   26.0368254545455    0.2946                   0.0271136363636364                        199.473             222.621927272727    0.896016             -46.687438221602    -74.0243190502437    
2022-04-22T17:09:08Z    31.6636666666667    -64.1648333333333    98.5      -97.7832752103585    1e-12          4.075e-14     20.1048090909091    36.87153           26.0376609090909    0.2926                   0.0264954545454545                        199.4545            222.634781818182    0.895882072727273    -46.687438221602    -74.0243190502437    
2022-04-22T17:09:08Z    31.6636666666667    -64.1648333333333    99        -98.32721236066      1e-12          4.075e-14     20.1011545454545    36.8714772727273   26.0386163636364    0.285936363636364        0.02535                                   199.352681818182    222.649772727273    0.895362636363636    -46.687438221602    -74.0243190502437    
2022-04-22T17:09:08Z    31.6636666666667    -64.1648333333333    99.5      -98.7401271894118    1e-12          4.0864e-14    20.0967727272727    36.8714009090909   26.0397481818182    0.278618181818182        0.0246863636363636                        199.290136363636    222.667772727273    0.895007218181818    -46.687438221602    -74.0243190502437    
2022-04-22T17:09:08Z    31.6636666666667    -64.1648333333333    100       -99.3029208202948    1e-12          4.0893e-14    20.0917272727273    36.8713327272727   26.0410645454545    0.267963636363636        0.0244909090909091                        199.250227272727    222.688427272727    0.8947479            -46.687438221602    -74.0243190502437    
2022-04-22T17:09:08Z    31.6636666666667    -64.1648333333333    100.5     -99.7967287732247    1e-12          4.0836e-14    20.0866272727273    36.8712390909091   26.0423972727273    0.253972727272727        0.0240181818181818                        199.2015            222.709309090909    0.894444363636364    -46.687438221602    -74.0243190502437    
2022-04-22T17:09:08Z    31.6636666666667    -64.1648333333333    101       -100.29946871301     1e-12          4.0807e-14    20.0813136363636    36.8711254545455   26.0437409090909    0.239990909090909        0.0235454545454545                        199.208818181818    222.731127272727    0.894390618181818    -46.687438221602    -74.0243190502437    
2022-04-22T17:09:08Z    31.6636666666667    -64.1648333333333    101.5     -100.792777978258    1e-12          4.075e-14     20.0759954545455    36.87103           26.0451154545455    0.230009090909091        0.0227909090909091                        199.180318181818    222.752845454546    0.894175181818182    -46.687438221602    -74.0243190502437    
2022-04-22T17:09:08Z    31.6636666666667    -64.1648333333333    102       -101.343655130142    1e-12          4.075e-14     20.0710772727273    36.8709436363636   26.0463763636364    0.222018181818182        0.0217954545454545                        199.157409090909    222.773054545455    0.893993090909091    -46.687438221602    -74.0243190502437    
2022-04-22T17:09:08Z    31.6636666666667    -64.1648333333333    102.5     -101.708920605267    1e-12          4.0807e-14    20.0662772727273    36.8708490909091   26.0476090909091    0.215354545454545        0.0208409090909091                        199.167181818182    222.792772727273    0.893958936363636    -46.687438221602    -74.0243190502437    
2022-04-22T17:09:08Z    31.6636666666667    -64.1648333333333    103       -102.237958847628    1e-12          4.0864e-14    20.0617136363636    36.8707409090909   26.0487863636364    0.206036363636364        0.0198863636363636                        199.127             222.811527272727    0.893702036363636    -46.687438221602    -74.0243190502437    
2022-04-22T17:09:08Z    31.6636666666667    -64.1648333333333    103.5     -102.765010598538    1e-12          4.0836e-14    20.0577454545455    36.8706636363636   26.0497918181818    0.199381818181818        0.0190318181818182                        199.167363636364    222.827909090909    0.893822036363636    -46.687438221602    -74.0243190502437    
2022-04-22T17:09:08Z    31.6636666666667    -64.1648333333333    104       -103.276180022278    1e-12          4.07925e-14   20.0540636363636    36.8705481818182   26.05071            0.187390909090909        0.0182227272727273                        199.181318181818    222.843145454545    0.893822527272727    -46.687438221602    -74.0243190502437    
2022-04-22T17:09:08Z    31.6636666666667    -64.1648333333333    104.5     -103.746653276874    1e-12          4.075e-14     20.0509             36.8704781818182   26.0515263636364    0.180727272727273        0.0174681818181818                        199.233136363636    222.856290909091    0.894004027272727    -46.687438221602    -74.0243190502437    
2022-04-22T17:09:08Z    31.6636666666667    -64.1648333333333    105       -104.248887247494    1e-12          4.075e-14     20.0485             36.8704136363636   26.0521381818182    0.178063636363636        0.0168045454545455                        199.270590909091    222.866363636364    0.894133727272727    -46.687438221602    -74.0243190502437    
2022-04-22T17:09:08Z    31.6636666666667    -64.1648333333333    105.5     -104.8146434086      1e-12          4.0807e-14    20.0468181818182    36.8703354545454   26.0525536363636    0.1754                   0.0157636363636364                        199.305772727273    222.873518181818    0.8942593            -46.687438221602    -74.0243190502437    
2022-04-22T17:09:08Z    31.6636666666667    -64.1648333333333    106       -105.191813314535    1e-12          4.0864e-14    20.0452272727273    36.8702754545454   26.0529554545455    0.174736363636364        0.0151                                    199.348409090909    222.880354545455    0.894422281818182    -46.687438221602    -74.0243190502437    
2022-04-22T17:09:08Z    31.6636666666667    -64.1648333333333    106.5     -105.7089319777      1e-12          4.0864e-14    20.0439909090909    36.8702363636364   26.0532981818182    0.1734                   0.0144363636363636                        199.393045454545    222.885645454545    0.894601427272727    -46.687438221602    -74.0243190502437    
2022-04-22T17:09:08Z    31.6636666666667    -64.1648333333333    107       -106.274684107832    1e-12          4.0836e-14    20.0426             36.8701754545455   26.0536454545455    0.174063636363636        0.0140545454545455                        199.399272727273    222.891681818182    0.8946058            -46.687438221602    -74.0243190502437    
2022-04-22T17:09:08Z    31.6636666666667    -64.1648333333333    107.5     -106.777904426378    1e-12          4.0807e-14    20.041              36.8700990909091   26.0540445454546    0.174063636363636        0.0138636363636364                        199.395363636364    222.898609090909    0.894558309090909    -46.687438221602    -74.0243190502437    
2022-04-22T17:09:08Z    31.6636666666667    -64.1648333333333    108       -107.262265221894    1e-12          4.0778e-14    20.0392909090909    36.8700336363636   26.0544690909091    0.169409090909091        0.0136727272727273                        199.363227272727    222.905918181818    0.894384054545455    -46.687438221602    -74.0243190502437    
2022-04-22T17:09:08Z    31.6636666666667    -64.1648333333333    108.5     -107.872677300638    1e-12          4.0864e-14    20.0374272727273    36.86996           26.0549090909091    0.168745454545455        0.0134818181818182                        199.336590909091    222.913909090909    0.894235154545455    -46.687438221602    -74.0243190502437    
2022-04-22T17:09:08Z    31.6636666666667    -64.1648333333333    109       -108.010640103747    1e-12          4.0778e-14    20.0354090909091    36.8699054545455   26.0554309090909    0.164081818181818        0.0132909090909091                        199.272772727273    222.922490909091    0.893913209090909    -46.687438221602    -74.0243190502437    
2022-04-22T17:09:08Z    31.6636666666667    -64.1648333333333    109.5     -108.683579638266    1e-12          4.0807e-14    20.0333590909091    36.8698672727273   26.0559645454545    0.162422727272727        0.0132                                    199.265636363636    222.931154545455    0.893846336363637    -46.687438221602    -74.0243190502437    
2022-04-22T17:09:08Z    31.6636666666667    -64.1648333333333    110       -109.201682023988    1e-12          4.075e-14     20.0312272727273    36.8697972727273   26.0565045454545    0.160431818181818        0.0130090909090909                        199.252818181818    222.940118181818    0.893753818181818    -46.687438221602    -74.0243190502437    
2022-04-22T17:09:08Z    31.6636666666667    -64.1648333333333    110.5     -109.662216377421    1e-12          4.075e-14     20.0288545454545    36.8697345454545   26.0571227272727    0.157768181818182        0.0128181818181818                        199.163863636364    222.950109090909    0.893314781818182    -46.687438221602    -74.0243190502437    
2022-04-22T17:09:08Z    31.6636666666667    -64.1648333333333    111       -110.398672179826    1e-12          4.0807e-14    20.0261818181818    36.8696745454546   26.0578072727273    0.153768181818182        0.0126272727272727                        199.029954545455    222.961254545455    0.892670027272727    -46.687438221602    -74.0243190502437    
2022-04-22T17:09:08Z    31.6636666666667    -64.1648333333333    111.5     -110.578319352748    1e-12          4.0807e-14    20.0233454545455    36.8696090909091   26.0585363636364    0.149777272727273        0.0124363636363636                        198.941863636364    222.973118181818    0.892228245454545    -46.687438221602    -74.0243190502437    
2022-04-22T17:09:08Z    31.6636666666667    -64.1648333333333    112       -111.218497224437    1e-12          4.0836e-14    20.0203409090909    36.8695309090909   26.0593018181818    0.14645                  0.0123363636363636                        198.844136363636    222.985663636364    0.891738709090909    -46.687438221602    -74.0243190502437    
2022-04-22T17:09:08Z    31.6636666666667    -64.1648333333333    112.5     -111.673071925429    1e-12          4.0778e-14    20.0176045454545    36.8694745454546   26.06002            0.139786363636364        0.0120454545454545                        198.746409090909    222.997127272727    0.8912541            -46.687438221602    -74.0243190502437    
2022-04-22T17:09:08Z    31.6636666666667    -64.1648333333333    113       -112.197121856875    1e-12          4.07355e-14   20.0151136363636    36.8694290909091   26.0606681818182    0.134459090909091        0.0118545454545455                        198.652363636364    223.007472727273    0.890792390909091    -46.687438221602    -74.0243190502437    
2022-04-22T17:09:08Z    31.6636666666667    -64.1648333333333    113.5     -112.678492300815    1e-12          4.075e-14     20.0128318181818    36.86938           26.0612690909091    0.132459090909091        0.0115727272727273                        198.567818181818    223.017090909091    0.890374454545454    -46.687438221602    -74.0243190502437    
2022-04-22T17:09:08Z    31.6636666666667    -64.1648333333333    114       -113.181696895309    1e-12          4.0893e-14    20.0105136363636    36.8693381818182   26.0619218181818    0.130459090909091        0.0112909090909091                        198.515636363636    223.026745454545    0.890091272727273    -46.687438221602    -74.0243190502437    
2022-04-22T17:09:08Z    31.6636666666667    -64.1648333333333    114.5     -113.636267242011    1e-12          4.0922e-14    20.0080318181818    36.8692845454545   26.0625590909091    0.128459090909091        0.0110090909090909                        198.435590909091    223.0371            0.889689518181818    -46.687438221602    -74.0243190502437    
2022-04-22T17:09:08Z    31.6636666666667    -64.1648333333333    115       -114.187109870011    1e-12          4.0893e-14    20.0050863636364    36.8691681818182   26.0632772727273    0.128127272727273        0.0106272727272727                        198.299090909091    223.049436363636    0.889027154545455    -46.687438221602    -74.0243190502437    
2022-04-22T17:09:08Z    31.6636666666667    -64.1648333333333    115.5     -114.666490626568    1e-12          4.08215e-14   20.0019318181818    36.8690418181818   26.06406            0.126127272727273        0.0104363636363636                        198.143             223.062672727273    0.8882742            -46.687438221602    -74.0243190502437    
2022-04-22T17:09:08Z    31.6636666666667    -64.1648333333333    116       -115.14487776141     1e-12          4.075e-14     19.9986227272727    36.8689154545455   26.0648509090909    0.124127272727273        0.0102454545454545                        198.052409090909    223.076454545455    0.887815545454545    -46.687438221602    -74.0243190502437    
2022-04-22T17:09:08Z    31.6636666666667    -64.1648333333333    116.5     -115.785041369554    1e-12          4.0807e-14    19.9954136363636    36.8688036363636   26.0656509090909    0.123463636363636        0.00986363636363636                       198.021954545455    223.089881818182    0.887625136363636    -46.687438221602    -74.0243190502437    
2022-04-22T17:09:08Z    31.6636666666667    -64.1648333333333    117       -116.013316281105    1e-12          4.0721e-14    19.9928227272727    36.8686627272727   26.0662736363636    0.122127272727273        0.00948181818181818                       197.977318181818    223.100854545455    0.887372963636364    -46.687438221602    -74.0243190502437    
2022-04-22T17:09:08Z    31.6636666666667    -64.1648333333333    117.5     -116.653477176894    1e-12          4.098e-14     19.9896318181818    36.8685427272727   26.0670372727273    0.119463636363636        0.00900909090909091                       197.929681818182    223.114236363636    0.887103463636364    -46.687438221602    -74.0243190502437    
2022-04-22T17:09:08Z    31.6636666666667    -64.1648333333333    118       -117.177514374386    1e-12          4.09075e-14   19.9862363636364    36.8683881818182   26.0678472727273    0.1188                   0.00872727272727273                       197.938181818182    223.128390909091    0.887085336363637    -46.687438221602    -74.0243190502437    
2022-04-22T17:09:08Z    31.6636666666667    -64.1648333333333    118.5     -117.6588731216      1e-12          4.0864e-14    19.9826272727273    36.8682127272727   26.0686963636364    0.1168                   0.00834545454545454                       197.959045454545    223.143518181818    0.8871187            -46.687438221602    -74.0243190502437    
2022-04-22T17:09:08Z    31.6636666666667    -64.1648333333333    119       -118.162065488983    1e-12          4.0864e-14    19.9790181818182    36.8680509090909   26.0695554545455    0.113463636363636        0.00815454545454545                       197.984818181818    223.158618181818    0.8871743            -46.687438221602    -74.0243190502437    
2022-04-22T17:09:08Z    31.6636666666667    -64.1648333333333    119.5     -118.664264134865    1e-12          4.0778e-14    19.9756545454545    36.8678954545454   26.0703427272727    0.109463636363636        0.00796363636363636                       197.996681818182    223.172754545455    0.887178645454545    -46.687438221602    -74.0243190502437    
2022-04-22T17:09:08Z    31.6636666666667    -64.1648333333333    120       -119.119814806682    1e-12          4.0692e-14    19.9727090909091    36.8677345454545   26.07104            0.1068                   0.00768181818181818                       198.009818181818    223.1852            0.887190354545455    -46.687438221602    -74.0243190502437    
2022-04-22T17:09:08Z    31.6636666666667    -64.1648333333333    120.5     -119.646326902142    1e-12          4.098e-14     19.9703272727273    36.8675954545455   26.0715936363636    0.0994727272727273       0.00749090909090909                       198.056409090909    223.195309090909    0.887360263636364    -46.687438221602    -74.0243190502437    
2022-04-22T17:09:08Z    31.6636666666667    -64.1648333333333    121       -120.166882774486    1e-12          4.0951e-14    19.9682590909091    36.8674627272727   26.0720654545455    0.0954727272727273       0.00720909090909091                       198.132409090909    223.204154545455    0.8876625            -46.687438221602    -74.0243190502437    
2022-04-22T17:09:08Z    31.6636666666667    -64.1648333333333    121.5     -120.673046414672    1e-12          4.0922e-14    19.9658727272727    36.8673063636364   26.0726181818182    0.0928090909090909       0.00692727272727273                       198.202545454545    223.214327272727    0.887933390909091    -46.687438221602    -74.0243190502437    
2022-04-22T17:09:08Z    31.6636666666667    -64.1648333333333    122       -121.173253960674    1e-12          4.0864e-14    19.9632181818182    36.8671745454545   26.0732581818182    0.0888090909090909       0.00683636363636364                       198.284636363636    223.225563636364    0.888256181818182    -46.687438221602    -74.0243190502437    
2022-04-22T17:09:08Z    31.6636666666667    -64.1648333333333    122.5     -121.609942088798    1e-12          4.075e-14     19.9597090909091    36.8670609090909   26.0741109090909    0.0868090909090909       0.00674545454545454                       198.333727272727    223.240209090909    0.888426109090909    -46.687438221602    -74.0243190502437    
2022-04-22T17:09:08Z    31.6636666666667    -64.1648333333333    123       -122.17862773701     1e-12          4.0692e-14    19.957              36.8669563636364   26.0747881818182    0.0841454545454545       0.00674545454545454                       198.333045454545    223.251618181818    0.8883799            -46.687438221602    -74.0243190502437    
2022-04-22T17:09:08Z    31.6636666666667    -64.1648333333333    123.5     -122.405903060384    1e-12          4.0836e-14    19.95465            36.8668563636364   26.0753627272727    0.0808181818181818       0.00655454545454545                       198.331727272727    223.261636363636    0.888334118181818    -46.687438221602    -74.0243190502437    
2022-04-22T17:09:08Z    31.6636666666667    -64.1648333333333    124       -123.094674772197    1e-12          4.0922e-14    19.9523772727273    36.8668009090909   26.0759481818182    0.0781545454545455       0.00641363636363636                       198.338590909091    223.271227272727    0.888326218181818    -46.687438221602    -74.0243190502437    
2022-04-22T17:09:08Z    31.6636666666667    -64.1648333333333    124.5     -123.596861333864    1e-12          4.0922e-14    19.9501045454545    36.8667463636364   26.0765345454545    0.0768272727272727       0.00632272727272727                       198.305             223.280781818182    0.888137727272727    -46.687438221602    -74.0243190502437    
2022-04-22T17:09:08Z    31.6636666666667    -64.1648333333333    125       -124.123858160291    1e-12          4.0893e-14    19.9477772727273    36.8666790909091   26.0771209090909    0.0741636363636364       0.00613181818181818                       198.270045454545    223.290554545455    0.887942154545455    -46.687438221602    -74.0243190502437    
2022-04-22T17:09:08Z    31.6636666666667    -64.1648333333333    125.5     -124.603215681573    1e-12          4.0836e-14    19.9453409090909    36.8666018181818   26.07773            0.0728363636363636       0.00603181818181818                       198.320045454545    223.300827272727    0.888125527272727    -46.687438221602    -74.0243190502437    
2022-04-22T17:09:08Z    31.6636666666667    -64.1648333333333    126       -125.106391002874    1e-12          4.0778e-14    19.9429772727273    36.8665518181818   26.0783554545455    0.0735                   0.00584090909090909                       198.356181818182    223.310763636364    0.888246963636364    -46.687438221602    -74.0243190502437    
2022-04-22T17:09:08Z    31.6636666666667    -64.1648333333333    126.5     -125.584753771251    1e-12          4.075e-14     19.9404318181818    36.8664909090909   26.0789881818182    0.0728363636363636       0.00565                                   198.365909090909    223.321481818182    0.888250381818182    -46.687438221602    -74.0243190502437    
2022-04-22T17:09:08Z    31.6636666666667    -64.1648333333333    127       -126.064107876599    1e-12          4.0721e-14    19.9384363636364    36.8664709090909   26.07953            0.0688363636363636       0.00555                                   198.3685            223.329945454545    0.888228745454545    -46.687438221602    -74.0243190502437    
2022-04-22T17:09:08Z    31.6636666666667    -64.1648333333333    127.5     -126.566287164317    1e-12          4.0807e-14    19.9367909090909    36.8664154545455   26.0799454545455    0.0661727272727273       0.00535909090909091                       198.344818181818    223.337036363636    0.8880949            -46.687438221602    -74.0243190502437    
2022-04-22T17:09:08Z    31.6636666666667    -64.1648333333333    128       -127.045638971904    1e-12          4.0922e-14    19.9354818181818    36.8663609090909   26.0802845454545    0.0635090909090909       0.00521363636363636                       198.335045454546    223.342681818182    0.888028127272727    -46.687438221602    -74.0243190502437    
2022-04-22T17:09:08Z    31.6636666666667    -64.1648333333333    128.5     -127.614309541605    1e-12          4.0893e-14    19.9338636363636    36.8662981818182   26.08069            0.0608454545454545       0.00493181818181818                       198.345318181818    223.3496            0.888047890909091    -46.687438221602    -74.0243190502437    
2022-04-22T17:09:08Z    31.6636666666667    -64.1648333333333    129       -128.075794969038    1e-12          4.0864e-14    19.9319272727273    36.8662490909091   26.0811881818182    0.0581818181818182       0.00484090909090909                       198.416409090909    223.3578            0.888332890909091    -46.687438221602    -74.0243190502437    
2022-04-22T17:09:08Z    31.6636666666667    -64.1648333333333    129.5     -128.619651730722    1e-12          4.0807e-14    19.9297181818182    36.8661345454545   26.0817154545455    0.0548545454545455       0.0047                                    198.436727272727    223.367227272727    0.888386836363636    -46.687438221602    -74.0243190502437    
2022-04-22T17:09:08Z    31.6636666666667    -64.1648333333333    130       -129.101976044811    1e-12          4.0721e-14    19.9271636363636    36.8659809090909   26.0823109090909    0.0515272727272727       0.00450909090909091                       198.476818181818    223.378109090909    0.888524363636364    -46.687438221602    -74.0243190502437    
2022-04-22T17:09:08Z    31.6636666666667    -64.1648333333333    130.5     -129.557007306004    1e-12          4.0721e-14    19.9241136363636    36.8657872727273   26.0829972727273    0.0502                   0.00441818181818182                       198.502045454545    223.391036363636    0.888585954545455    -46.687438221602    -74.0243190502437    
2022-04-22T17:09:08Z    31.6636666666667    -64.1648333333333    131       -129.997151088581    1e-12          4.0836e-14    19.9202045454545    36.8656272727273   26.0839245454545    0.0475363636363636       0.00432727272727273                       198.395318181818    223.407345454545    0.888040672727273    -46.687438221602    -74.0243190502437    
2022-04-22T17:09:08Z    31.6636666666667    -64.1648333333333    131.5     -130.500313171683    1e-12          4.0864e-14    19.9157772727273    36.8654090909091   26.0849272727273    0.0435363636363636       0.00423636363636364                       198.317136363636    223.425927272727    0.8876177            -46.687438221602    -74.0243190502437    
2022-04-22T17:09:08Z    31.6636666666667    -64.1648333333333    132       -131.045155928366    1e-12          4.085e-14     19.9107045454545    36.8651809090909   26.0861345454545    0.0395363636363636       0.00423636363636364                       198.289545454545    223.447045454545    0.887409627272727    -46.687438221602    -74.0243190502437    
2022-04-22T17:09:08Z    31.6636666666667    -64.1648333333333    132.5     -131.548315439594    1e-12          4.0778e-14    19.90555            36.86492           26.0873172727273    0.0375363636363636       0.00404545454545455                       198.280681818182    223.468536363636    0.887285690909091    -46.687438221602    -74.0243190502437    
2022-04-22T17:09:08Z    31.6636666666667    -64.1648333333333    133       -132.07181835231     1e-12          4.0764e-14    19.9003954545455    36.8646336363636   26.0884863636364    0.0355363636363636       0.00385454545454545                       198.210227272727    223.490045454545    0.886885172727273    -46.687438221602    -74.0243190502437    
2022-04-22T17:09:08Z    31.6636666666667    -64.1648333333333    133.5     -132.685630021686    1e-12          4.075e-14     19.8952318181818    36.8643327272727   26.0896418181818    0.0315454545454545       0.00361818181818182                       198.058272727273    223.511663636364    0.886119963636364    -46.687438221602    -74.0243190502437    
2022-04-22T17:09:08Z    31.6636666666667    -64.1648333333333    134       -132.966484222074    1e-12          4.0864e-14    19.8903954545455    36.8640172727273   26.0907163636364    0.0292136363636364       0.00342727272727273                       198.054             223.531954545455    0.886018990909091    -46.687438221602    -74.0243190502437    
2022-04-22T17:09:08Z    31.6636666666667    -64.1648333333333    134.5     -133.511320425371    1e-12          4.0836e-14    19.88585            36.8636972727273   26.0917018181818    0.0258772727272727       0.00323636363636364                       197.959272727273    223.551054545455    0.885519772727273    -46.687438221602    -74.0243190502437    
2022-04-22T17:09:08Z    31.6636666666667    -64.1648333333333    135       -134.020428356248    1e-12          4.0778e-14    19.8818045454545    36.8634154545454   26.0925818181818    0.0225409090909091       0.00304545454545455                       197.902181818182    223.5681            0.885196472727273    -46.687438221602    -74.0243190502437    
2022-04-22T17:09:08Z    31.6636666666667    -64.1648333333333    135.5     -134.523580566343    1e-12          4.075e-14     19.8781681818182    36.8631681818182   26.0933763636364    0.0192045454545455       0.00276363636363636                       197.875090909091    223.583436363636    0.8850132            -46.687438221602    -74.0243190502437    
2022-04-22T17:09:08Z    31.6636666666667    -64.1648333333333    136       -135.062458191326    1e-12          4.0807e-14    19.8750727272727    36.8629745454545   26.0940754545455    0.0158681818181818       0.00248181818181818                       197.860318181818    223.596545454545    0.884895409090909    -46.687438221602    -74.0243190502437    
2022-04-22T17:09:08Z    31.6636666666667    -64.1648333333333    136.5     -135.391936999191    1e-12          4.0864e-14    19.8730454545455    36.8627545454545   26.0944827272727    0.0125318181818182       0.00229090909090909                       197.866318181818    223.605390909091    0.884891172727273    -46.687438221602    -74.0243190502437    
2022-04-22T17:09:08Z    31.6636666666667    -64.1648333333333    137       -135.984402077811    1e-12          4.0807e-14    19.8714363636364    36.8625736363636   26.0948245454545    0.0112045454545455       0.00200909090909091                       197.867954545455    223.612363636364    0.8848698            -46.687438221602    -74.0243190502437    
2022-04-22T17:09:08Z    31.6636666666667    -64.1648333333333    137.5     -136.505412666257    1e-12          4.0721e-14    19.8705727272727    36.86245           26.0949845454546    0.00854090909090909      0.00172727272727273                       197.828363636364    223.616409090909    0.884677636363636    -46.687438221602    -74.0243190502437    
2022-04-22T17:09:08Z    31.6636666666667    -64.1648333333333    138       -137.026421932469    1e-12          4.0721e-14    19.8698909090909    36.8623263636364   26.09511            0.00587727272727273      0.00144545454545455                       197.773409090909    223.619718181818    0.884418654545455    -46.687438221602    -74.0243190502437    
2022-04-22T17:09:08Z    31.6636666666667    -64.1648333333333    138.5     -137.529566766621    1e-12          4.0721e-14    19.8692181818182    36.8622445454546   26.0952527272727    0.00321363636363636      0.00135454545454545                       197.756545454545    223.622954545455    0.884330609090909    -46.687438221602    -74.0243190502437    
2022-04-22T17:09:08Z    31.6636666666667    -64.1648333333333    139       -137.984083129439    1e-12          4.0864e-14    19.8686272727273    36.8622009090909   26.0953972727273    0.00321363636363636      0.00126363636363636                       197.815909090909    223.625763636364    0.884585263636364    -46.687438221602    -74.0243190502437    
2022-04-22T17:09:08Z    31.6636666666667    -64.1648333333333    139.5     -138.451499561004    1e-12          4.0836e-14    19.8679636363636    36.8621636363636   26.0955572727273    0.00220909090909091      0.00117272727272727                       197.781909090909    223.628890909091    0.884421336363636    -46.687438221602    -74.0243190502437    
2022-04-22T17:09:08Z    31.6636666666667    -64.1648333333333    140       -139.038001474357    1e-12          4.0778e-14    19.8673136363636    36.8621254545455   26.0957236363636    0.00220909090909091      0.00108181818181818                       197.776772727273    223.631972727273    0.884386209090909    -46.687438221602    -74.0243190502437    
2022-04-22T17:09:08Z    31.6636666666667    -64.1648333333333    140.5     -139.505415503688    1e-12          4.0721e-14    19.8669954545455    36.8620881818182   26.0958209090909    0.00220909090909091      0.000990909090909091                      197.7685            223.633772727273    0.884338672727273    -46.687438221602    -74.0243190502437    
2022-04-22T17:09:08Z    31.6636666666667    -64.1648333333333    141       -139.918247390912    1e-12          4.0807e-14    19.8661954545455    36.8620772727273   26.0960436363636    0.00220909090909091      0.000990909090909091                      197.743227272727    223.637390909091    0.884211709090909    -46.687438221602    -74.0243190502437    
2022-04-22T17:09:08Z    31.6636666666667    -64.1648333333333    141.5     -140.451156554967    1e-12          4.1038e-14    19.8654409090909    36.8620909090909   26.0962790909091    0.00220909090909091      0.000890909090909091                      197.727590909091    223.640781818182    0.884127709090909    -46.687438221602    -74.0243190502437    
2022-04-22T17:09:08Z    31.6636666666667    -64.1648333333333    142       -140.954292986402    1e-12          4.1009e-14    19.8645227272727    36.8620727272727   26.0965463636364    0.00354545454545454      0.0008                                    197.7515            223.644918181818    0.884214190909091    -46.687438221602    -74.0243190502437    
2022-04-22T17:09:08Z    31.6636666666667    -64.1648333333333    142.5     -141.502581276812    1e-12          4.1009e-14    19.8633136363636    36.8620718181818   26.0968863636364    0.00220909090909091      0.0008                                    197.751818181818    223.650236363636    0.884196927272727    -46.687438221602    -74.0243190502437    
2022-04-22T17:09:08Z    31.6636666666667    -64.1648333333333    143       -142.068730824968    1e-12          4.075e-14     19.8621590909091    36.8620572727273   26.0972054545454    0.00220909090909091      0.0008                                    197.757727272727    223.655245454545    0.884203190909091    -46.687438221602    -74.0243190502437    
2022-04-22T17:09:08Z    31.6636666666667    -64.1648333333333    143.5     -142.463694874376    1e-12          4.0807e-14    19.8609863636364    36.8620572727273   26.0975372727273    0.00220909090909091      0.0009                                    197.737545454545    223.660281818182    0.884092354545455    -46.687438221602    -74.0243190502437    
2022-04-22T17:09:08Z    31.6636666666667    -64.1648333333333    144       -142.888429234471    1e-12          4.0664e-14    19.8597863636364    36.8620172727273   26.0978381818182    0.00220909090909091      0.0008                                    197.749045454545    223.665536363636    0.884121881818182    -46.687438221602    -74.0243190502437    
2022-04-22T17:09:08Z    31.6636666666667    -64.1648333333333    144.5     -143.469956627946    1e-12          4.11395e-14   19.8585136363636    36.8619418181818   26.0981390909091    0.000872727272727272     0.0007                                    197.759954545455    223.671172727273    0.884148309090909    -46.687438221602    -74.0243190502437    
2022-04-22T17:09:08Z    31.6636666666667    -64.1648333333333    145       -143.958200196321    1e-12          4.1154e-14    19.8572363636364    36.8618736363636   26.0984563636364    0.000872727272727272     0.0006                                    197.755681818182    223.6768            0.884106845454545    -46.687438221602    -74.0243190502437    
2022-04-22T17:09:08Z    31.6636666666667    -64.1648333333333    145.5     -144.460831843154    1e-12          4.11105e-14   19.8560045454545    36.8618027272727   26.0987536363636    0.000872727272727272     0.0005                                    197.745727272727    223.682227272727    0.884041154545454    -46.687438221602    -74.0243190502437    
2022-04-22T17:09:08Z    31.6636666666667    -64.1648333333333    146       -144.979340001066    1e-12          4.098e-14     19.8544136363636    36.8617309090909   26.0991272727273    0.000872727272727273     0.0004                                    197.729136363636    223.689081818182    0.8839439            -46.687438221602    -74.0243190502437    
2022-04-22T17:09:08Z    31.6636666666667    -64.1648333333333    146.5     -145.53009842626     1e-12          4.0721e-14    19.8531227272727    36.8615581818182   26.0993754545455    0.000872727272727273     0.0003                                    197.711772727273    223.694936363636    0.883842827272727    -46.687438221602    -74.0243190502437    
2022-04-22T17:09:08Z    31.6636666666667    -64.1648333333333    147       -145.865514544359    1e-12          4.1154e-14    19.8520818181818    36.8614045454545   26.0995690909091    0.000209090909090909     0.0003                                    197.695181818182    223.699709090909    0.883749018181818    -46.687438221602    -74.0243190502437    
2022-04-22T17:09:08Z    31.6636666666667    -64.1648333333333    147.5     -146.404362366596    1e-12          4.1067e-14    19.8503909090909    36.8612818181818   26.0999227272727    -0.00112727272727273     0.0002                                    197.696727272727    223.707081818182    0.883732545454545    -46.687438221602    -74.0243190502437    
2022-04-22T17:09:08Z    31.6636666666667    -64.1648333333333    148       -146.883171619878    1e-12          4.10235e-14   19.8490454545455    36.8611354545455   26.1001845454545    -0.00112727272727273     0.0001                                    197.694954545455    223.713072727273    0.883699872727273    -46.687438221602    -74.0243190502437    
2022-04-22T17:09:08Z    31.6636666666667    -64.1648333333333    148.5     -147.356025688822    1e-12          4.09075e-14   19.8476454545455    36.8609954545455   26.1004763636364    -0.000454545454545455    -0.0000000000000000000172486709259058     197.703863636364    223.719327272727    0.883715336363636    -46.687438221602    -74.0243190502437    
2022-04-22T17:09:08Z    31.6636666666667    -64.1648333333333    149       -147.925632280167    1e-12          4.0836e-14    19.8462090909091    36.8609790909091   26.10087            -0.000454545454545455    -0.0001                                   197.728409090909    223.725518181818    0.883800009090909    -46.687438221602    -74.0243190502437    
2022-04-22T17:09:08Z    31.6636666666667    -64.1648333333333    149.5     -148.314630994491    1e-12          4.098e-14     19.8450818181818    36.8609890909091   26.1012109090909    -0.000454545454545455    -0.000145454545454545                     197.696863636364    223.730481818182    0.883638463636364    -46.687438221602    -74.0243190502437    
2022-04-22T17:09:08Z    31.6636666666667    -64.1648333333333    150       -148.908051081396    1e-12          4.0721e-14    19.8439272727273    36.8610454545455   26.1015963636364    -0.000454545454545455    -0.000145454545454545                     197.666954545455    223.7354            0.883484054545454    -46.687438221602    -74.0243190502437    
2022-04-22T17:09:08Z    31.6636666666667    -64.1648333333333    150.5     -149.320864042302    1e-12          4.0692e-14    19.8427863636364    36.8611654545455   26.1020136363636    -0.00111818181818182     -0.000145454545454545                     197.608227272727    223.740145454545    0.883203227272727    -46.687438221602    -74.0243190502437    
2022-04-22T17:09:08Z    31.6636666666667    -64.1648333333333    151       -149.892449846272    1e-12          4.0893e-14    19.8416545454545    36.8614490909091   26.1025563636364    -0.00111818181818182     -0.000145454545454545                     197.558909090909    223.744690909091    0.882965036363636    -46.687438221602    -74.0243190502437    
2022-04-22T17:09:08Z    31.6636666666667    -64.1648333333333    151.5     -150.374724131381    1e-12          4.0836e-14    19.8405454545455    36.8617518181818   26.1031118181818    -0.00111818181818182     -0.0000954545454545455                    197.508136363636    223.749045454545    0.8827204            -46.687438221602    -74.0243190502437    
2022-04-22T17:09:08Z    31.6636666666667    -64.1648333333333    152       -151.057447928004    1e-12          4.1038e-14    19.8396181818182    36.8621336363636   26.1036663636364    -0.00111818181818182     0.00000454545454545455                    197.455590909091    223.752590909091    0.882471672727273    -46.687438221602    -74.0243190502437    
2022-04-22T17:09:08Z    31.6636666666667    -64.1648333333333    152.5     -151.357131201084    1e-12          4.0922e-14    19.83845            36.8625045454545   26.1042745454545    -0.000454545454545455    0.000104545454545455                      197.376454545455    223.757172727273    0.8821011            -46.687438221602    -74.0243190502437    
2022-04-22T17:09:08Z    31.6636666666667    -64.1648333333333    153       -151.884056692871    1e-12          4.075e-14     19.83815            36.8627772727273   26.1045981818182    -0.00111818181818182     0.000104545454545455                      197.270363636364    223.758290909091    0.881618309090909    -46.687438221602    -74.0243190502437    
2022-04-22T17:09:08Z    31.6636666666667    -64.1648333333333    153.5     -152.384188104784    1e-12          4.08215e-14   19.8377772727273    36.8631490909091   26.10501            -0.00111818181818182     0.000104545454545455                      197.179909090909    223.759636363636    0.881208718181818    -46.687438221602    -74.0243190502437    
2022-04-22T17:09:08Z    31.6636666666667    -64.1648333333333    154       -152.887295263965    1e-12          4.08215e-14   19.8374681818182    36.86352           26.1054018181818    -0.00179090909090909     0.000104545454545455                      197.093863636364    223.760736363636    0.880821081818182    -46.687438221602    -74.0243190502437    
2022-04-22T17:09:08Z    31.6636666666667    -64.1648333333333    154.5     -153.393378148529    1e-12          4.0807e-14    19.8370772727273    36.8637545454545   26.1057036363636    -0.00179090909090909     0.000104545454545455                      197.087318181818    223.762409090909    0.880785709090909    -46.687438221602    -74.0243190502437    
2022-04-22T17:09:08Z    31.6636666666667    -64.1648333333333    155       -153.896482832543    1e-12          4.075e-14     19.8358590909091    36.8639245454545   26.1061836363636    -0.00179090909090909     0.0000590909090909091                     197.056727272727    223.767309090909    0.880631454545455    -46.687438221602    -74.0243190502437    
2022-04-22T17:09:08Z    31.6636666666667    -64.1648333333333    155.5     -154.351955239663    1e-12          4.0951e-14    19.8343863636364    36.8640536363636   26.1066836363636    -0.00212272727272727     0.0000590909090909091                     197.041318181818    223.773436363636    0.880539872727273    -46.687438221602    -74.0243190502437    
2022-04-22T17:09:08Z    31.6636666666667    -64.1648333333333    156       -154.944365550206    1e-12          4.0836e-14    19.8328863636364    36.8641127272727   26.10715            -0.00212272727272727     0.0000590909090909091                     197.061318181818    223.779827272727    0.880603954545455    -46.687438221602    -74.0243190502437    
2022-04-22T17:09:08Z    31.6636666666667    -64.1648333333333    156.5     -155.178550728781    1e-12          4.075e-14     19.8313181818182    36.8640109090909   26.1075090909091    -0.00212272727272727     0.0000590909090909091                     197.098545454545    223.786681818182    0.880742845454546    -46.687438221602    -74.0243190502437    
2022-04-22T17:09:08Z    31.6636666666667    -64.1648333333333    157       -155.90888922975     1e-12          4.0692e-14    19.8297181818182    36.8638909090909   26.1078618181818    -0.00345                 0.00000909090909090907                    197.154636363636    223.793690909091    0.880965872727273    -46.687438221602    -74.0243190502437    
2022-04-22T17:09:08Z    31.6636666666667    -64.1648333333333    157.5     -156.411987744437    1e-12          4.0692e-14    19.8281090909091    36.8637772727273   26.1082227272727    -0.00477727272727273     -0.0000909090909090909                    197.214363636364    223.800718181818    0.881204872727273    -46.687438221602    -74.0243190502437    
2022-04-22T17:09:08Z    31.6636666666667    -64.1648333333333    158       -156.825777905761    1e-12          4.0864e-14    19.8264909090909    36.8636445454545   26.1085736363636    -0.00544090909090909     -0.000190909090909091                     197.259727272727    223.807809090909    0.881379727272727    -46.687438221602    -74.0243190502437    
2022-04-22T17:09:08Z    31.6636666666667    -64.1648333333333    158.5     -157.328874171867    1e-12          4.0951e-14    19.8247818181818    36.8636109090909   26.1090190909091    -0.00577272727272727     -0.000190909090909091                     197.285136363636    223.815154545455    0.881465409090909    -46.687438221602    -74.0243190502437    
2022-04-22T17:09:08Z    31.6636666666667    -64.1648333333333    159       -157.8319692042      1e-12          4.098e-14     19.8232272727273    36.8635136363636   26.10938            -0.00577272727272727     -0.000190909090909091                     197.253409090909    223.821963636364    0.881296754545455    -46.687438221602    -74.0243190502437    
2022-04-22T17:09:08Z    31.6636666666667    -64.1648333333333    159.5     -158.33506300278     1e-12          4.0893e-14    19.8217318181818    36.8633927272727   26.1097             -0.00577272727272727     -0.000190909090909091                     197.224090909091    223.828509090909    0.881138490909091    -46.687438221602    -74.0243190502437    
2022-04-22T17:09:08Z    31.6636666666667    -64.1648333333333    160       -158.790525555187    1e-12          4.0778e-14    19.8204318181818    36.8633136363636   26.1100136363636    -0.00577272727272727     -0.000190909090909091                     197.148454545455    223.834190909091    0.8807782            -46.687438221602    -74.0243190502437    
2022-04-22T17:09:08Z    31.6636666666667    -64.1648333333333    160.5     -159.362084973565    1e-12          4.0692e-14    19.8197772727273    36.8632990909091   26.1101963636364    -0.00577272727272727     -0.0001                                   197.141636363636    223.837281818182    0.880735527272727    -46.687438221602    -74.0243190502437    
2022-04-22T17:09:08Z    31.6636666666667    -64.1648333333333    161       -159.796707217356    1e-12          4.0836e-14    19.8195409090909    36.8633245454545   26.1103072727273    -0.00477727272727273     -0.0001                                   197.133136363636    223.838554545455    0.880692518181818    -46.687438221602    -74.0243190502437    
2022-04-22T17:09:08Z    31.6636666666667    -64.1648333333333    161.5     -160.252166524814    1e-12          4.1009e-14    19.8194318181818    36.86333           26.1103672727273    -0.00477727272727273     -0.0001                                   197.111590909091    223.839381818182    0.880592381818182    -46.687438221602    -74.0243190502437    
2022-04-22T17:09:08Z    31.6636666666667    -64.1648333333333    162       -160.779069166661    1e-12          4.09655e-14   19.8193863636364    36.8633609090909   26.1104263636364    -0.00544090909090909     -0.0001                                   197.062909090909    223.839854545455    0.880373318181818    -46.687438221602    -74.0243190502437    
2022-04-22T17:09:08Z    31.6636666666667    -64.1648333333333    162.5     -161.305970458075    1e-12          4.0864e-14    19.8192681818182    36.8634027272727   26.1105172727273    -0.00477727272727273     -0.0000000000000000000197127667724637     197.026090909091    223.840636363636    0.8802046            -46.687438221602    -74.0243190502437    
2022-04-22T17:09:08Z    31.6636666666667    -64.1648333333333    163       -161.809055737717    1e-12          4.0807e-14    19.8190772727273    36.8634745454545   26.1106445454545    -0.00411363636363636     -0.0000000000000000000160166230026268     197.008636363636    223.841690909091    0.880122554545455    -46.687438221602    -74.0243190502437    
2022-04-22T17:09:08Z    31.6636666666667    -64.1648333333333    163.5     -162.336450518583    1e-12          4.0721e-14    19.8188             36.8635090909091   26.1107736363636    -0.00477727272727273     -0.0000000000000000000123204792327898     197.013772727273    223.843090909091    0.880140209090909    -46.687438221602    -74.0243190502437    
2022-04-22T17:09:08Z    31.6636666666667    -64.1648333333333    164       -162.815222596218    1e-12          4.0893e-14    19.8184             36.8635645454545   26.1109536363636    -0.00510909090909091     -0.00000000000000000000739228753967389    196.987954545455    223.845009090909    0.880017709090909    -46.687438221602    -74.0243190502437    
2022-04-22T17:09:08Z    31.6636666666667    -64.1648333333333    164.5     -163.166486786643    1e-12          4.0721e-14    19.8178227272727    36.8635936363636   26.11115            -0.00643636363636364     -0.00000000000000000000246409584655796    196.992045454545    223.847654545455    0.880024545454545    -46.687438221602    -74.0243190502437    
2022-04-22T17:09:08Z    31.6636666666667    -64.1648333333333    165       -163.779709272452    1e-12          4.0893e-14    19.8169545454545    36.8636854545454   26.1114727272727    -0.00643636363636364     -0.0000909090909090909                    196.956136363636    223.851409090909    0.879848981818182    -46.687438221602    -74.0243190502437    
2022-04-22T17:09:08Z    31.6636666666667    -64.1648333333333    165.5     -164.310571917428    1e-12          4.0836e-14    19.8159636363636    36.8637954545454   26.1118481818182    -0.0071                  -0.000136363636363636                     196.971909090909    223.855672727273    0.879903509090909    -46.687438221602    -74.0243190502437    
2022-04-22T17:09:08Z    31.6636666666667    -64.1648333333333    166       -164.792812308093    1e-12          4.07925e-14   19.8149454545455    36.8639736363636   26.1122772727273    -0.00776363636363636     -0.000227272727272727                     196.965545454545    223.859890909091    0.879858727272727    -46.687438221602    -74.0243190502437    
2022-04-22T17:09:08Z    31.6636666666667    -64.1648333333333    166.5     -165.316726508724    1e-12          4.075e-14     19.8139454545455    36.8641363636364   26.1126954545455    -0.00776363636363636     -0.000318181818181818                     196.947636363636    223.864090909091    0.879762272727273    -46.687438221602    -74.0243190502437    
2022-04-22T17:09:08Z    31.6636666666667    -64.1648333333333    167       -165.798964534618    1e-12          4.0807e-14    19.8128727272727    36.8643327272727   26.1131554545455    -0.0071                  -0.000318181818181818                     196.924181818182    223.868463636364    0.879641436363636    -46.687438221602    -74.0243190502437    
2022-04-22T17:09:08Z    31.6636666666667    -64.1648333333333    167.5     -166.434008765144    1e-12          4.0922e-14    19.8117272727273    36.8645318181818   26.1136336363636    -0.0071                  -0.000318181818181818                     196.904772727273    223.873136363636    0.879535936363636    -46.687438221602    -74.0243190502437    
2022-04-22T17:09:08Z    31.6636666666667    -64.1648333333333    168       -166.667188575085    1e-12          4.0893e-14    19.8106818181818    36.86472           26.1140754545455    -0.0071                  -0.000418181818181818                     196.846590909091    223.877481818182    0.879260263636364    -46.687438221602    -74.0243190502437    
2022-04-22T17:09:08Z    31.6636666666667    -64.1648333333333    168.5     -167.254602070942    1e-12          4.0807e-14    19.8096363636364    36.8648872727273   26.1145036363636    -0.00776363636363636     -0.000418181818181818                     196.740227272727    223.881790909091    0.878768263636364    -46.687438221602    -74.0243190502437    
2022-04-22T17:09:08Z    31.6636666666667    -64.1648333333333    169       -167.767099123604    1e-12          4.075e-14     19.8085409090909    36.8650545454545   26.1149336363636    -0.0071                  -0.000418181818181818                     196.69              223.886363636364    0.878527681818182    -46.687438221602    -74.0243190502437    
2022-04-22T17:09:08Z    31.6636666666667    -64.1648333333333    169.5     -168.260742226015    1e-12          4.0721e-14    19.8072136363636    36.86525           26.1154545454546    -0.00577272727272727     -0.000418181818181818                     196.711318181818    223.891827272727    0.878601254545455    -46.687438221602    -74.0243190502437    
2022-04-22T17:09:08Z    31.6636666666667    -64.1648333333333    170       -168.90272453966     1e-12          4.0807e-14    19.8060909090909    36.8654472727273   26.1159245454545    -0.00444545454545455     -0.000418181818181818                     196.739681818182    223.896445454545    0.878710227272727    -46.687438221602    -74.0243190502437    
2022-04-22T17:09:08Z    31.6636666666667    -64.1648333333333    170.5     -169.177575704429    1e-12          4.098e-14     19.8051             36.8655581818182   26.1162909090909    -0.00510909090909091     -0.000327272727272727                     196.793136363636    223.9007            0.878931563636364    -46.687438221602    -74.0243190502437    
2022-04-22T17:09:08Z    31.6636666666667    -64.1648333333333    171       -169.729261407825    1e-12          4.0951e-14    19.8039545454545    36.8656336363636   26.1166709090909    -0.00577272727272727     -0.000281818181818182                     196.792             223.905545454545    0.878906927272727    -46.687438221602    -74.0243190502437    
2022-04-22T17:09:08Z    31.6636666666667    -64.1648333333333    171.5     -170.232326035115    1e-12          4.0864e-14    19.8026636363636    36.8656218181818   26.1170381818182    -0.00643636363636364     -0.0000909090909090909                    196.788454545455    223.911136363636    0.878868218181818    -46.687438221602    -74.0243190502437    
2022-04-22T17:09:08Z    31.6636666666667    -64.1648333333333    172       -170.735389429127    1e-12          4.0807e-14    19.8012363636364    36.8656081818182   26.1174254545455    -0.0071                  0.0001                                    196.792090909091    223.917281818182    0.878860181818182    -46.687438221602    -74.0243190502437    
2022-04-22T17:09:08Z    31.6636666666667    -64.1648333333333    172.5     -171.250358371645    1e-12          4.075e-14     19.7998454545455    36.8656054545455   26.1178127272727    -0.00776363636363636     0.0001                                    196.797909090909    223.923263636364    0.878862036363636    -46.687438221602    -74.0243190502437    
2022-04-22T17:09:08Z    31.6636666666667    -64.1648333333333    173       -171.742504746805    1e-12          4.075e-14     19.7985409090909    36.8655836363636   26.1181672727273    -0.0071                  0.0001                                    196.803090909091    223.929018181818    0.878862836363636    -46.687438221602    -74.0243190502437    
2022-04-22T17:09:08Z    31.6636666666667    -64.1648333333333    173.5     -172.305098048408    1e-12          4.0922e-14    19.7972136363636    36.8655645454545   26.11853            -0.00776363636363636     0.0001                                    196.814636363636    223.934745454545    0.878891909090909    -46.687438221602    -74.0243190502437    
2022-04-22T17:09:08Z    31.6636666666667    -64.1648333333333    174       -172.59284358456     1e-12          4.098e-14     19.7959863636364    36.8655372727273   26.1188581818182    -0.00776363636363636     0.0001                                    196.847772727273    223.940136363636    0.879018990909091    -46.687438221602    -74.0243190502437    
2022-04-22T17:09:08Z    31.6636666666667    -64.1648333333333    174.5     -173.162380113643    1e-12          4.0864e-14    19.7948954545455    36.8655672727273   26.1191981818182    -0.00976363636363636     0.0001                                    196.832045454545    223.944872727273    0.878928590909091    -46.687438221602    -74.0243190502437    
2022-04-22T17:09:08Z    31.6636666666667    -64.1648333333333    175       -173.719016203695    1e-12          4.0778e-14    19.7941409090909    36.8655718181818   26.1194281818182    -0.00976363636363636     0.0001                                    196.827863636364    223.948245454545    0.878896963636364    -46.687438221602    -74.0243190502437    
2022-04-22T17:09:08Z    31.6636666666667    -64.1648333333333    175.5     -174.219094398144    1e-12          4.0721e-14    19.7933954545455    36.8656527272727   26.1197109090909    -0.00976363636363636     0.0001                                    196.861772727273    223.951472727273    0.879035909090909    -46.687438221602    -74.0243190502437    
2022-04-22T17:09:08Z    31.6636666666667    -64.1648333333333    176       -174.899754426999    1e-12          4.075e-14     19.7928227272727    36.8658081818182   26.1200127272727    -0.00976363636363636     0.0001                                    196.867136363636    223.9539            0.879051545454546    -46.687438221602    -74.0243190502437    
2022-04-22T17:09:08Z    31.6636666666667    -64.1648333333333    176.5     -175.088275026998    1e-12          4.1096e-14    19.7925636363636    36.8659336363636   26.1201990909091    -0.00843636363636363     0.0001                                    196.799909090909    223.955163636364    0.878746             -46.687438221602    -74.0243190502437    
2022-04-22T17:09:08Z    31.6636666666667    -64.1648333333333    177       -175.67864104889     1e-12          4.1154e-14    19.7924090909091    36.8661118181818   26.1203936363636    -0.00710909090909091     -0.0000909090909090909                    196.753818181818    223.955890909091    0.878538145454545    -46.687438221602    -74.0243190502437    
2022-04-22T17:09:08Z    31.6636666666667    -64.1648333333333    177.5     -176.211953431338    1e-12          4.1067e-14    19.7917909090909    36.8663236363636   26.1207418181818    -0.00710909090909091     -0.000190909090909091                     196.691454545455    223.958454545455    0.878249418181818    -46.687438221602    -74.0243190502437    
2022-04-22T17:09:08Z    31.6636666666667    -64.1648333333333    178       -176.739311198171    1e-12          4.098e-14     19.7911             36.8665545454545   26.1211263636364    -0.00710909090909091     -0.000281818181818182                     196.635272727273    223.961354545455    0.8779876            -46.687438221602    -74.0243190502437    
2022-04-22T17:09:08Z    31.6636666666667    -64.1648333333333    178.5     -177.153060368868    1e-12          4.0836e-14    19.7903045454545    36.8667645454545   26.1215263636364    -0.00710909090909091     -0.000281818181818182                     196.579545454545    223.964545454545    0.877726             -46.687438221602    -74.0243190502437    
2022-04-22T17:09:08Z    31.6636666666667    -64.1648333333333    179       -177.791046064506    1e-12          4.075e-14     19.7894590909091    36.8670218181818   26.1219663636364    -0.00710909090909091     -0.000281818181818182                     196.503545454545    223.967981818182    0.877373863636364    -46.687438221602    -74.0243190502437    
2022-04-22T17:09:08Z    31.6636666666667    -64.1648333333333    179.5     -178.015283178604    1e-12          4.07065e-14   19.7885318181818    36.8672536363636   26.1224127272727    -0.00710909090909091     -0.000372727272727273                     196.4765            223.971772727273    0.877237709090909    -46.687438221602    -74.0243190502437    
2022-04-22T17:09:08Z    31.6636666666667    -64.1648333333333    180       -178.663188153731    1e-12          4.1096e-14    19.7874409090909    36.8674609090909   26.1228890909091    -0.00510909090909091     -0.000463636363636364                     196.460454545455    223.976290909091    0.877148172727273    -46.687438221602    -74.0243190502437    
2022-04-22T17:09:08Z    31.6636666666667    -64.1648333333333    180.5     -179.187066943344    1e-12          4.1096e-14    19.7863045454545    36.8676563636364   26.1233590909091    -0.00643636363636364     -0.000554545454545455                     196.398181818182    223.980990909091    0.876852545454545    -46.687438221602    -74.0243190502437    
2022-04-22T17:09:08Z    31.6636666666667    -64.1648333333333    181       -179.669272376677    1e-12          4.098e-14     19.7850863636364    36.86782           26.1238363636364    -0.0071                  -0.000645454545454546                     196.280136363636    223.986072727273    0.876306309090909    -46.687438221602    -74.0243190502437    
2022-04-22T17:09:08Z    31.6636666666667    -64.1648333333333    181.5     -180.172312638768    1e-12          4.0807e-14    19.7838454545455    36.8679681818182   26.1243090909091    -0.0071                  -0.000645454545454546                     196.195590909091    223.991227272727    0.875908909090909    -46.687438221602    -74.0243190502437    
2022-04-22T17:09:08Z    31.6636666666667    -64.1648333333333    182       -180.697179762551    1e-12          4.0721e-14    19.7824590909091    36.8681972727273   26.1248736363636    -0.00842727272727273     -0.000645454545454546                     196.180136363636    223.996818181818    0.875817927272727    -46.687438221602    -74.0243190502437    
2022-04-22T17:09:08Z    31.6636666666667    -64.1648333333333    182.5     -181.200217505373    1e-12          4.075e-14     19.7811227272727    36.8683981818182   26.1254             -0.00975454545454545     -0.000554545454545455                     196.1415            224.002345454545    0.875623790909091    -46.687438221602    -74.0243190502437    
2022-04-22T17:09:08Z    31.6636666666667    -64.1648333333333    183       -181.499856759429    1e-12          4.0893e-14    19.7803227272727    36.86855           26.1257545454545    -0.00975454545454545     -0.000554545454545455                     196.082681818182    224.005727272727    0.875348290909091    -46.687438221602    -74.0243190502437    
2022-04-22T17:09:08Z    31.6636666666667    -64.1648333333333    183.5     -182.119969716829    1e-12          4.10235e-14   19.7795409090909    36.86866           26.1260681818182    -0.00975454545454545     -0.000463636363636364                     196.065409090909    224.009027272727    0.875257745454546    -46.687438221602    -74.0243190502437    
2022-04-22T17:09:08Z    31.6636666666667    -64.1648333333333    184       -182.644831862567    1e-12          4.1009e-14    19.7788227272727    36.8687990909091   26.1263781818182    -0.0104181818181818      -0.000554545454545455                     196.030863636364    224.012090909091    0.875091827272727    -46.687438221602    -74.0243190502437    
2022-04-22T17:09:08Z    31.6636666666667    -64.1648333333333    184.5     -183.124052647314    1e-12          4.1009e-14    19.7780863636364    36.8689181818182   26.1266890909091    -0.00975454545454545     -0.000554545454545455                     195.974318181818    224.015245454545    0.874825990909091    -46.687438221602    -74.0243190502437    
2022-04-22T17:09:08Z    31.6636666666667    -64.1648333333333    185       -183.653873084416    1e-12          4.0951e-14    19.7773681818182    36.8690618181818   26.1270145454545    -0.00909090909090909     -0.000554545454545454                     195.963772727273    224.018263636364    0.874767436363636    -46.687438221602    -74.0243190502437    
2022-04-22T17:09:08Z    31.6636666666667    -64.1648333333333    185.5     -184.157895750528    1e-12          4.0922e-14    19.7767409090909    36.8692027272727   26.1273136363636    -0.00909090909090909     -0.000463636363636364                     195.889636363636    224.020927272727    0.874425809090909    -46.687438221602    -74.0243190502437    
2022-04-22T17:09:08Z    31.6636666666667    -64.1648333333333    186       -184.571629966883    1e-12          4.0778e-14    19.7759590909091    36.8693536363636   26.1276654545454    -0.00842727272727273     -0.000372727272727273                     195.809909090909    224.024218181818    0.874056190909091    -46.687438221602    -74.0243190502437    
2022-04-22T17:09:08Z    31.6636666666667    -64.1648333333333    186.5     -185.116329138342    1e-12          4.0721e-14    19.7749681818182    36.8694836363636   26.1280381818182    -0.00776363636363636     -0.000281818181818182                     195.786727272727    224.028445454545    0.8739361            -46.687438221602    -74.0243190502437    
2022-04-22T17:09:08Z    31.6636666666667    -64.1648333333333    187       -185.758258729041    1e-12          4.0864e-14    19.7738636363636    36.8695809090909   26.1284136363636    -0.00909090909090909     -0.000281818181818182                     195.824681818182    224.033118181818    0.874086836363636    -46.687438221602    -74.0243190502437    
2022-04-22T17:09:08Z    31.6636666666667    -64.1648333333333    187.5     -186.078726686691    1e-12          4.1038e-14    19.7728636363636    36.8696172727273   26.12873            -0.00842727272727273     -0.000281818181818182                     195.804363636364    224.037472727273    0.873979472727273    -46.687438221602    -74.0243190502437    
2022-04-22T17:09:08Z    31.6636666666667    -64.1648333333333    188       -186.606059106337    1e-12          4.1009e-14    19.7716363636364    36.8696481818182   26.1291018181818    -0.00776363636363636     -0.000372727272727273                     195.809545454545    224.042772727273    0.8739827            -46.687438221602    -74.0243190502437    
2022-04-22T17:09:08Z    31.6636666666667    -64.1648333333333    188.5     -187.085270640451    1e-12          4.09075e-14   19.7703090909091    36.8696772727273   26.1294954545455    -0.00776363636363636     -0.000372727272727273                     195.826818181818    224.048454545455    0.874037236363636    -46.687438221602    -74.0243190502437    
2022-04-22T17:09:08Z    31.6636666666667    -64.1648333333333    189       -187.612600474572    1e-12          4.0864e-14    19.7685090909091    36.8696690909091   26.1299954545455    -0.00776363636363636     -0.000372727272727273                     195.788363636364    224.056118181818    0.873835145454546    -46.687438221602    -74.0243190502437    
2022-04-22T17:09:08Z    31.6636666666667    -64.1648333333333    189.5     -188.094786114988    1e-12          4.075e-14     19.7665             36.8696081818182   26.1305018181818    -0.00776363636363636     -0.000281818181818182                     195.768545454545    224.064754545455    0.873711827272727    -46.687438221602    -74.0243190502437    
2022-04-22T17:09:08Z    31.6636666666667    -64.1648333333333    190       -188.551174771461    1e-12          4.0721e-14    19.7644727272727    36.8695190909091   26.1309936363636    -0.0071                  -0.000281818181818182                     195.8015            224.073463636364    0.873825563636364    -46.687438221602    -74.0243190502437    
2022-04-22T17:09:08Z    31.6636666666667    -64.1648333333333    190.5     -189.1504313796      1e-12          4.0778e-14    19.7624454545455    36.8694463636364   26.1314936363636    -0.00643636363636364     -0.000281818181818182                     195.758863636364    224.082163636364    0.873601318181818    -46.687438221602    -74.0243190502437    
2022-04-22T17:09:08Z    31.6636666666667    -64.1648333333333    191       -189.515540508437    1e-12          4.098e-14     19.7604409090909    36.8693736363636   26.1319909090909    -0.0071                  -0.000372727272727273                     195.768818181818    224.090763636364    0.873612090909091    -46.687438221602    -74.0243190502437    
2022-04-22T17:09:08Z    31.6636666666667    -64.1648333333333    191.5     -190.08503008016     1e-12          4.1009e-14    19.7585409090909    36.8693090909091   26.1324654545455    -0.00776363636363636     -0.000463636363636364                     195.763772727273    224.098909090909    0.873557845454545    -46.687438221602    -74.0243190502437    
2022-04-22T17:09:08Z    31.6636666666667    -64.1648333333333    192       -190.564233498358    1e-12          4.0922e-14    19.7568136363636    36.86921           26.1328827272727    -0.00842727272727273     -0.000463636363636364                     195.734272727273    224.106390909091    0.873396954545455    -46.687438221602    -74.0243190502437    
2022-04-22T17:09:08Z    31.6636666666667    -64.1648333333333    192.5     -191.049388611769    1e-12          4.08215e-14   19.7548636363636    36.8691372727273   26.1333781818182    -0.0071                  -0.000363636363636364                     195.663272727273    224.114809090909    0.8730489            -46.687438221602    -74.0243190502437    
2022-04-22T17:09:08Z    31.6636666666667    -64.1648333333333    193       -191.577204327472    1e-12          4.0778e-14    19.7524818181818    36.8690918181818   26.1339972727273    -0.0071                  -0.000363636363636364                     195.627454545454    224.1249            0.872849609090909    -46.687438221602    -74.0243190502437    
2022-04-22T17:09:08Z    31.6636666666667    -64.1648333333333    193.5     -192.080215408917    1e-12          4.0692e-14    19.7501909090909    36.86906           26.1345981818182    -0.0071                  -0.000363636363636364                     195.630909090909    224.134536363636    0.872827436363636    -46.687438221602    -74.0243190502437    
2022-04-22T17:09:08Z    31.6636666666667    -64.1648333333333    194       -192.625886786054    1e-12          4.0721e-14    19.7479636363636    36.8690427272727   26.1351954545455    -0.0071                  -0.000454545454545455                     195.658454545455    224.143918181818    0.872915081818182    -46.687438221602    -74.0243190502437    
2022-04-22T17:09:08Z    31.6636666666667    -64.1648333333333    194.5     -193.087226000739    1e-12          4.1009e-14    19.7462727272727    36.8690736363636   26.1356790909091    -0.00776363636363636     -0.000545454545454546                     195.650818181818    224.151072727273    0.872854272727273    -46.687438221602    -74.0243190502437    
2022-04-22T17:09:08Z    31.6636666666667    -64.1648333333333    195       -193.500942221261    1e-12          4.098e-14     19.7448727272727    36.8691727272727   26.1361572727273    -0.00776363636363636     -0.000636363636363636                     195.608590909091    224.156963636364    0.872643954545455    -46.687438221602    -74.0243190502437    
2022-04-22T17:09:08Z    31.6636666666667    -64.1648333333333    195.5     -194.046609822312    1e-12          4.0807e-14    19.7436090909091    36.8692881818182   26.1366027272727    -0.00776363636363636     -0.000727272727272727                     195.534909090909    224.162245454545    0.872294672727273    -46.687438221602    -74.0243190502437    
2022-04-22T17:09:08Z    31.6636666666667    -64.1648333333333    196       -194.507945844538    1e-12          4.075e-14     19.7424181818182    36.8693881818182   26.1370209090909    -0.00909090909090909     -0.000636363636363636                     195.568545454545    224.167309090909    0.872425072727273    -46.687438221602    -74.0243190502437    
2022-04-22T17:09:08Z    31.6636666666667    -64.1648333333333    196.5     -195.03228025737     1e-12          4.0692e-14    19.7413045454545    36.8695245454545   26.1374381818182    -0.00842727272727273     -0.000545454545454546                     195.608772727273    224.171954545455    0.872586572727273    -46.687438221602    -74.0243190502437    
2022-04-22T17:09:08Z    31.6636666666667    -64.1648333333333    197       -195.562566019048    1e-12          4.0692e-14    19.7402909090909    36.8696609090909   26.1378336363636    -0.00776363636363636     -0.000454545454545455                     195.672272727273    224.176254545455    0.8728531            -46.687438221602    -74.0243190502437    
2022-04-22T17:09:08Z    31.6636666666667    -64.1648333333333    197.5     -196.204462946446    1e-12          4.0807e-14    19.7393636363636    36.8697809090909   26.13819            -0.00842727272727273     -0.000545454545454546                     195.691590909091    224.180172727273    0.872924118181818    -46.687438221602    -74.0243190502437    
2022-04-22T17:09:08Z    31.6636666666667    -64.1648333333333    198       -196.384034988852    1e-12          4.1038e-14    19.7387863636364    36.8698827272727   26.1384381818182    -0.00909090909090909     -0.000645454545454546                     195.686181818182    224.1827            0.872888636363636    -46.687438221602    -74.0243190502437    
2022-04-22T17:09:08Z    31.6636666666667    -64.1648333333333    198.5     -196.9773160897      1e-12          4.0951e-14    19.73865            36.8699672727273   26.1385645454545    -0.00909090909090909     -0.000736363636363636                     195.679545454545    224.183472727273    0.872855936363636    -46.687438221602    -74.0243190502437    
2022-04-22T17:09:08Z    31.6636666666667    -64.1648333333333    199       -197.528927080326    1e-12          4.0807e-14    19.7386227272727    36.8700572727273   26.1386709090909    -0.00909090909090909     -0.000645454545454546                     195.651818181818    224.183836363636    0.872730163636364    -46.687438221602    -74.0243190502437    
2022-04-22T17:09:08Z    31.6636666666667    -64.1648333333333    199.5     -198.031923580362    1e-12          4.0692e-14    19.7386409090909    36.8701436363636   26.1387518181818    -0.00909090909090909     -0.000554545454545455                     195.600363636364    224.184018181818    0.872499418181818    -46.687438221602    -74.0243190502437    
2022-04-22T17:09:08Z    31.6636666666667    -64.1648333333333    200       -198.632144615838    1e-12          4.0721e-14    19.7387318181818    36.8702181818182   26.1388154545455    -0.00909090909090909     -0.000463636363636364                     195.567227272727    224.183954545455    0.872351272727273    -46.687438221602    -74.0243190502437    
2022-04-22T17:09:08Z    31.6636666666667    -64.1648333333333    200.5     -198.901003386704    1e-12          4.0951e-14    19.7387863636364    36.8702627272727   26.1388627272727    -0.00909090909090909     -0.000463636363636364                     195.541272727273    224.184018181818    0.872235636363636    -46.687438221602    -74.0243190502437    
2022-04-22T17:09:08Z    31.6636666666667    -64.1648333333333    201       -199.501221881684    1e-12          4.1009e-14    19.7386863636364    36.8702827272727   26.1389263636364    -0.00975454545454545     -0.000463636363636364                     195.634272727273    224.184763636364    0.8726475            -46.687438221602    -74.0243190502437    
2022-04-22T17:09:08Z    31.6636666666667    -64.1648333333333    201.5     -200.028023774777    1e-12          4.09655e-14   19.73855            36.8702790909091   26.1389818181818    -0.00975454545454545     -0.000554545454545455                     195.637727272727    224.185663636364    0.872659463636364    -46.687438221602    -74.0243190502437    
2022-04-22T17:09:08Z    31.6636666666667    -64.1648333333333    202       -200.555816409229    1e-12          4.0922e-14    19.7382681818182    36.8702263636364   26.1390436363636    -0.0104181818181818      -0.000645454545454546                     195.6205            224.187272727273    0.8725753            -46.687438221602    -74.0243190502437    
2022-04-22T17:09:08Z    31.6636666666667    -64.1648333333333    202.5     -201.080135377975    1e-12          4.0778e-14    19.7377818181818    36.8701054545455   26.1391127272727    -0.0110818181818182      -0.000736363636363636                     195.5755            224.189763636364    0.872364945454545    -46.687438221602    -74.0243190502437    
2022-04-22T17:09:08Z    31.6636666666667    -64.1648333333333    203       -201.377265402487    1e-12          4.0721e-14    19.7371909090909    36.8700354545455   26.1392345454545    -0.0110818181818182      -0.000736363636363636                     195.521363636364    224.192672727273    0.872111609090909    -46.687438221602    -74.0243190502437    
2022-04-22T17:09:08Z    31.6636666666667    -64.1648333333333    203.5     -201.928864573093    1e-12          4.0864e-14    19.7364363636364    36.8699118181818   26.1393636363636    -0.00975454545454545     -0.000736363636363636                     195.441818181818    224.196218181818    0.8717421            -46.687438221602    -74.0243190502437    
2022-04-22T17:09:08Z    31.6636666666667    -64.1648333333333    204       -202.425897808346    1e-12          4.0893e-14    19.7356363636364    36.8697945454545   26.1395063636364    -0.00909090909090909     -0.000645454545454546                     195.398181818182    224.200018181818    0.871532318181818    -46.687438221602    -74.0243190502437    
2022-04-22T17:09:08Z    31.6636666666667    -64.1648333333333    204.5     -202.935826863466    1e-12          4.0922e-14    19.7349454545455    36.8696663636364   26.1396118181818    -0.00909090909090909     -0.000645454545454546                     195.370818181818    224.203390909091    0.871397172727273    -46.687438221602    -74.0243190502437    
2022-04-22T17:09:08Z    31.6636666666667    -64.1648333333333    205       -203.438810118856    1e-12          4.0922e-14    19.7341454545455    36.8695054545455   26.1397290909091    -0.00909090909090909     -0.000645454545454546                     195.381090909091    224.207263636364    0.871427554545455    -46.687438221602    -74.0243190502437    
2022-04-22T17:09:08Z    31.6636666666667    -64.1648333333333    205.5     -203.978498868891    1e-12          4.0864e-14    19.7332272727273    36.8693481818182   26.1398754545455    -0.00842727272727272     -0.000736363636363636                     195.385772727273    224.211554545455    0.871432009090909    -46.687438221602    -74.0243190502437    
2022-04-22T17:09:08Z    31.6636666666667    -64.1648333333333    206       -204.47354299978     1e-12          4.08215e-14   19.7322954545455    36.8691909090909   26.1400172727273    -0.00842727272727272     -0.000736363636363636                     195.408454545455    224.215909090909    0.871514954545454    -46.687438221602    -74.0243190502437    
2022-04-22T17:09:08Z    31.6636666666667    -64.1648333333333    206.5     -204.997355933195    1e-12          4.0778e-14    19.7313227272727    36.8690272727273   26.1401563636364    -0.00776363636363636     -0.000736363636363636                     195.359454545455    224.220490909091    0.871280372727273    -46.687438221602    -74.0243190502437    
2022-04-22T17:09:08Z    31.6636666666667    -64.1648333333333    207       -205.453707019947    1e-12          4.075e-14     19.7302409090909    36.8688336363636   26.1403245454546    -0.00643636363636364     -0.000645454545454546                     195.309727272727    224.225536363636    0.871039518181818    -46.687438221602    -74.0243190502437    
2022-04-22T17:09:08Z    31.6636666666667    -64.1648333333333    207.5     -205.956684108224    1e-12          4.075e-14     19.7287681818182    36.8686318181818   26.1405609090909    -0.00577272727272727     -0.000554545454545455                     195.268818181818    224.232190909091    0.870829618181818    -46.687438221602    -74.0243190502437    
2022-04-22T17:09:08Z    31.6636666666667    -64.1648333333333    208       -206.454699656531    1e-12          4.0807e-14    19.7268272727273    36.8684472727273   26.1409390909091    -0.00544090909090909     -0.000554545454545455                     195.258045454545    224.240736363636    0.870748381818182    -46.687438221602    -74.0243190502437    
2022-04-22T17:09:08Z    31.6636666666667    -64.1648333333333    208.5     -206.939817225786    1e-12          4.0864e-14    19.7244818181818    36.8682727272727   26.1414472727273    -0.00610454545454545     -0.000554545454545455                     195.296045454545    224.250845454545    0.870880063636364    -46.687438221602    -74.0243190502437    
2022-04-22T17:09:08Z    31.6636666666667    -64.1648333333333    209       -207.431878049212    1e-12          4.0922e-14    19.7219590909091    36.8681236363636   26.1420054545455    -0.00676818181818182     -0.000645454545454546                     195.340454545455    224.261763636364    0.871036681818182    -46.687438221602    -74.0243190502437    
2022-04-22T17:09:08Z    31.6636666666667    -64.1648333333333    209.5     -207.916993310955    1e-12          4.098e-14     19.71895            36.8679681818182   26.1427018181818    -0.00743181818181818     -0.000736363636363636                     195.337636363636    224.2746            0.870972709090909    -46.687438221602    -74.0243190502437    
2022-04-22T17:09:08Z    31.6636666666667    -64.1648333333333    210       -208.438813356191    1e-12          4.098e-14     19.7150954545455    36.8677745454545   26.1435845454546    -0.00743181818181818     -0.000827272727272727                     195.261454545455    224.290872727273    0.870569963636364    -46.687438221602    -74.0243190502437    
2022-04-22T17:09:08Z    31.6636666666667    -64.1648333333333    210.5     -208.95765592432     1e-12          4.098e-14     19.7107181818182    36.86765           26.14467            -0.00743181818181818     -0.000918181818181818                     195.159545454545    224.309136363636    0.870045509090909    -46.687438221602    -74.0243190502437    
2022-04-22T17:09:08Z    31.6636666666667    -64.1648333333333    211       -209.427886875938    1e-12          4.0893e-14    19.7059772727273    36.8675345454545   26.1458472727273    -0.00743181818181818     -0.000918181818181818                     195.076590909091    224.328890909091    0.8695978            -46.687438221602    -74.0243190502437    
2022-04-22T17:09:08Z    31.6636666666667    -64.1648333333333    211.5     -209.919941736557    1e-12          4.0836e-14    19.7009090909091    36.8673736363636   26.1471009090909    -0.00743181818181818     -0.000827272727272727                     194.986090909091    224.349990909091    0.869112981818182    -46.687438221602    -74.0243190502437    
2022-04-22T17:09:08Z    31.6636666666667    -64.1648333333333    212       -210.441756693477    1e-12          4.0778e-14    19.6951090909091    36.8672154545455   26.1485545454545    -0.00809545454545454     -0.000827272727272727                     194.897636363636    224.374090909091    0.868623627272727    -46.687438221602    -74.0243190502437    
2022-04-22T17:09:08Z    31.6636666666667    -64.1648333333333    212.5     -210.950673802119    1e-12          4.0778e-14    19.6888727272727    36.8671109090909   26.1501354545455    -0.00875909090909091     -0.000918181818181818                     194.748363636364    224.399909090909    0.867857572727273    -46.687438221602    -74.0243190502437    
2022-04-22T17:09:08Z    31.6636666666667    -64.1648333333333    213       -211.433796679649    1e-12          4.07065e-14   19.6826454545455    36.8669409090909   26.1516563636364    -0.00942272727272727     -0.00100909090909091                      194.579045454545    224.425790909091    0.867011845454545    -46.687438221602    -74.0243190502437    
2022-04-22T17:09:08Z    31.6636666666667    -64.1648333333333    213.5     -211.916422393968    1e-12          4.07355e-14   19.6760818181818    36.8668109090909   26.1533090909091    -0.00909090909090909     -0.00100909090909091                      194.435681818182    224.452945454545    0.866270745454545    -46.687438221602    -74.0243190502437    
2022-04-22T17:09:08Z    31.6636666666667    -64.1648333333333    214       -212.425831875218    1e-12          4.0721e-14    19.6698818181818    36.8666618181818   26.1548572727273    -0.00776363636363636     -0.00100909090909091                      194.286318181818    224.478663636364    0.865505327272727    -46.687438221602    -74.0243190502437    
2022-04-22T17:09:08Z    31.6636666666667    -64.1648333333333    214.5     -212.929783918973    1e-12          4.0721e-14    19.6638772727273    36.8665218181818   26.1563718181818    -0.00776363636363636     -0.00100909090909091                      194.128             224.503536363636    0.864704736363636    -46.687438221602    -74.0243190502437    
2022-04-22T17:09:08Z    31.6636666666667    -64.1648333333333    215       -213.432742698293    1e-12          4.0864e-14    19.6582545454545    36.8663554545455   26.1577490909091    -0.00776363636363636     -0.00100909090909091                      193.9855            224.526863636364    0.863982172727273    -46.687438221602    -74.0243190502437    
2022-04-22T17:09:08Z    31.6636666666667    -64.1648333333333    215.5     -213.846417930985    1e-12          4.1038e-14    19.6532818181818    36.8662327272727   26.1590081818182    -0.00776363636363636     -0.00100909090909091                      193.893409090909    224.547518181818    0.8634934            -46.687438221602    -74.0243190502437    
2022-04-22T17:09:08Z    31.6636666666667    -64.1648333333333    216       -214.404431761627    1e-12          4.1067e-14    19.6488227272727    36.8660754545455   26.1600854545455    -0.00776363636363636     -0.00100909090909091                      193.816363636364    224.566218181818    0.863077909090909    -46.687438221602    -74.0243190502437    
2022-04-22T17:09:08Z    31.6636666666667    -64.1648333333333    216.5     -214.884074440942    1e-12          4.1038e-14    19.6445818181818    36.8658636363636   26.1610636363636    -0.00776363636363636     -0.00100909090909091                      193.763590909091    224.584163636364    0.862774190909091    -46.687438221602    -74.0243190502437    
2022-04-22T17:09:08Z    31.6636666666667    -64.1648333333333    217       -215.405876785366    1e-12          4.098e-14     19.6405             36.8657527272727   26.1620654545455    -0.00776363636363636     -0.0011                                   193.744409090909    224.601372727273    0.862623309090909    -46.687438221602    -74.0243190502437    
2022-04-22T17:09:08Z    31.6636666666667    -64.1648333333333    217.5     -215.87609296905     1e-12          4.098e-14     19.6372045454545    36.8656590909091   26.16288            -0.00776363636363636     -0.0011                                   193.724454545455    224.615263636364    0.862480945454545    -46.687438221602    -74.0243190502437    
2022-04-22T17:09:08Z    31.6636666666667    -64.1648333333333    218       -216.394916755122    1e-12          4.0951e-14    19.6343318181818    36.8655163636364   26.1635581818182    -0.00776363636363636     -0.0011                                   193.741181818182    224.627581818182    0.862508136363636    -46.687438221602    -74.0243190502437    
2022-04-22T17:09:08Z    31.6636666666667    -64.1648333333333    218.5     -216.865626675062    1e-12          4.08785e-14   19.6317045454545    36.8654609090909   26.1642527272727    -0.0071                  -0.0011                                   193.765909090909    224.638672727273    0.862570036363636    -46.687438221602    -74.0243190502437    
2022-04-22T17:09:08Z    31.6636666666667    -64.1648333333333    219       -217.377999909435    1e-12          4.0836e-14    19.6299181818182    36.8653590909091   26.1646754545455    -0.0071                  -0.0011                                   193.797363636364    224.646436363636    0.862678345454545    -46.687438221602    -74.0243190502437    
2022-04-22T17:09:08Z    31.6636666666667    -64.1648333333333    219.5     -217.86408368636     1e-12          4.0807e-14    19.6281181818182    36.8652018181818   26.1650672727273    -0.0071                  -0.0011                                   193.848272727273    224.654336363636    0.862875054545455    -46.687438221602    -74.0243190502437    
2022-04-22T17:09:08Z    31.6636666666667    -64.1648333333333    220       -218.37943043127     1e-12          4.0764e-14    19.6259909090909    36.8650036363636   26.16549            -0.0071                  -0.00100909090909091                      193.902             224.663609090909    0.863077945454545    -46.687438221602    -74.0243190502437    
2022-04-22T17:09:08Z    31.6636666666667    -64.1648333333333    220.5     -218.919575927085    1e-12          4.0721e-14    19.62295            36.8644927272727   26.1659209090909    -0.0071                  -0.000918181818181818                     193.992772727273    224.677181818182    0.863433118181818    -46.687438221602    -74.0243190502437    
2022-04-22T17:09:08Z    31.6636666666667    -64.1648333333333    221       -219.42252003996     1e-12          4.0721e-14    19.6190545454545    36.8638627272727   26.1664981818182    -0.0071                  -0.000827272727272727                     194.088090909091    224.694318181818    0.863785781818182    -46.687438221602    -74.0243190502437    
2022-04-22T17:09:08Z    31.6636666666667    -64.1648333333333    221.5     -219.845111182597    1e-12          4.075e-14     19.6149090909091    36.8631436363636   26.1670654545455    -0.0071                  -0.000827272727272727                     194.174409090909    224.7126            0.864099763636364    -46.687438221602    -74.0243190502437    
2022-04-22T17:09:08Z    31.6636666666667    -64.1648333333333    222       -220.280101389296    1e-12          4.0836e-14    19.6108             36.8624336363636   26.1676290909091    -0.00643636363636364     -0.000736363636363636                     194.268772727273    224.730681818182    0.864451754545454    -46.687438221602    -74.0243190502437    
2022-04-22T17:09:08Z    31.6636666666667    -64.1648333333333    222.5     -220.796434071816    1e-12          4.0893e-14    19.6067545454545    36.8616309090909   26.1681072727273    -0.00577272727272727     -0.000645454545454546                     194.356136363636    224.748745454545    0.864771290909091    -46.687438221602    -74.0243190502437    
2022-04-22T17:09:08Z    31.6636666666667    -64.1648333333333    223       -221.323181346839    1e-12          4.0922e-14    19.6027863636364    36.8608209090909   26.1685554545455    -0.00510909090909091     -0.000554545454545455                     194.478227272727    224.766436363636    0.865246190909091    -46.687438221602    -74.0243190502437    
2022-04-22T17:09:08Z    31.6636666666667    -64.1648333333333    223.5     -221.827111560978    1e-12          4.0922e-14    19.5988409090909    36.8599890909091   26.1689736363636    -0.00377272727272727     -0.000463636363636364                     194.656045454546    224.784036363636    0.865969281818182    -46.687438221602    -74.0243190502437    
2022-04-22T17:09:08Z    31.6636666666667    -64.1648333333333    224       -222.30723290122     1e-12          4.0922e-14    19.5950318181818    36.8591127272727   26.1693354545455    -0.00243636363636364     -0.000372727272727273                     194.893772727273    224.801181818182    0.866960009090909    -46.687438221602    -74.0243190502437    
2022-04-22T17:09:08Z    31.6636666666667    -64.1648333333333    224.5     -222.811160702838    1e-12          4.0893e-14    19.5911772727273    36.8582254545455   26.1696881818182    -0.0011                  -0.000181818181818182                     195.158363636364    224.818527272727    0.868069327272727    -46.687438221602    -74.0243190502437    
2022-04-22T17:09:08Z    31.6636666666667    -64.1648333333333    225       -223.27243211481     1e-12          4.0893e-14    19.5870045454545    36.8571890909091   26.16999            0.000236363636363636     0.00000909090909090906                    195.439909090909    224.837409090909    0.869248036363636    -46.687438221602    -74.0243190502437    
2022-04-22T17:09:08Z    31.6636666666667    -64.1648333333333    225.5     -223.812068752814    1e-12          4.0893e-14    19.5825136363636    36.8560809090909   26.1703690909091    0.00157272727272727      0.000109090909090909                      195.752636363636    224.857681818182    0.870560681818182    -46.687438221602    -74.0243190502437    
2022-04-22T17:09:08Z    31.6636666666667    -64.1648333333333    226       -224.324920636863    1e-12          4.0864e-14    19.5777090909091    36.8552436363636   26.1710272727273    0.00290909090909091      0.0003                                    196.080590909091    224.8788            0.871932336363637    -46.687438221602    -74.0243190502437    
2022-04-22T17:09:08Z    31.6636666666667    -64.1648333333333    226.5     -224.831819412775    1e-12          4.0893e-14    19.5734181818182    36.8545527272727   26.1716445454545    0.00424545454545455      0.000490909090909091                      196.406181818182    224.897690909091    0.873311827272727    -46.687438221602    -74.0243190502437    
2022-04-22T17:09:08Z    31.6636666666667    -64.1648333333333    227       -225.317885552846    1e-12          4.0893e-14    19.5685318181818    36.8538618181818   26.1724081818182    0.00558181818181818      0.000681818181818182                      196.769545454545    224.919             0.874843790909091    -46.687438221602    -74.0243190502437    
2022-04-22T17:09:08Z    31.6636666666667    -64.1648333333333    227.5     -225.782127241309    1e-12          4.0836e-14    19.5633681818182    36.8531836363636   26.1732745454545    0.00758181818181818      0.00134545454545455                       197.101363636364    224.941409090909    0.876231154545455    -46.687438221602    -74.0243190502437    
2022-04-22T17:09:08Z    31.6636666666667    -64.1648333333333    228       -226.30092600708     1e-12          4.0864e-14    19.5576954545455    36.8525054545455   26.1742636363636    0.00825454545454546      0.00144545454545455                       197.391818181818    224.965781818182    0.877426363636364    -46.687438221602    -74.0243190502437    
2022-04-22T17:09:08Z    31.6636666666667    -64.1648333333333    228.5     -226.825675241195    1e-12          4.0864e-14    19.5516227272727    36.85182           26.1753472727273    0.0102545454545455       0.00154545454545455                       197.633772727273    224.9919            0.878399690909091    -46.687438221602    -74.0243190502437    
2022-04-22T17:09:08Z    31.6636666666667    -64.1648333333333    229       -227.308760782382    1e-12          4.0836e-14    19.5454590909091    36.8511709090909   26.1764963636364    0.0115818181818182       0.00164545454545455                       197.812318181818    225.018272727273    0.879092136363636    -46.687438221602    -74.0243190502437    
2022-04-22T17:09:08Z    31.6636666666667    -64.1648333333333    229.5     -227.764070344066    1e-12          4.0836e-14    19.5386590909091    36.8505045454545   26.1777172727273    0.0109090909090909       0.00174545454545455                       197.929681818182    225.047536363636    0.879498618181818    -46.687438221602    -74.0243190502437    
2022-04-22T17:09:08Z    31.6636666666667    -64.1648333333333    230       -228.267984761066    1e-12          4.0836e-14    19.5316772727273    36.8499063636364   26.1791163636364    0.0102363636363636       0.00174545454545455                       197.981409090909    225.0772            0.879612890909091    -46.687438221602    -74.0243190502437    
2022-04-22T17:09:08Z    31.6636666666667    -64.1648333333333    230.5     -228.730235875623    1e-12          4.0836e-14    19.52475            36.8494590909091   26.1806290909091    0.00956363636363636      0.00174545454545455                       198.004818181818    225.106472727273    0.879601427272727    -46.687438221602    -74.0243190502437    
2022-04-22T17:09:08Z    31.6636666666667    -64.1648333333333    231       -229.257458783606    1e-12          4.0864e-14    19.5182681818182    36.8489927272727   26.1820263636364    0.00889090909090909      0.00174545454545455                       197.998090909091    225.134009090909    0.879463945454545    -46.687438221602    -74.0243190502437    
2022-04-22T17:09:08Z    31.6636666666667    -64.1648333333333    231.5     -229.737066785292    1e-12          4.0836e-14    19.5122681818182    36.8486554545455   26.1833681818182    0.00889090909090909      0.00165454545454546                       197.950727272727    225.159290909091    0.879157027272727    -46.687438221602    -74.0243190502437    
2022-04-22T17:09:08Z    31.6636666666667    -64.1648333333333    232       -230.240976363367    1e-12          4.0864e-14    19.5065             36.8483445454545   26.18465            0.00889090909090909      0.00156363636363636                       197.879545454545    225.1836            0.8787461            -46.687438221602    -74.0243190502437    
2022-04-22T17:09:08Z    31.6636666666667    -64.1648333333333    232.5     -230.744884705606    1e-12          4.0864e-14    19.5015090909091    36.8480618181818   26.1857809090909    0.00821818181818182      0.00156363636363636                       197.752909090909    225.2047            0.878100881818182    -46.687438221602    -74.0243190502437    
2022-04-22T17:09:08Z    31.6636666666667    -64.1648333333333    233       -231.272598415025    1e-12          4.0864e-14    19.4963727272727    36.8477890909091   26.1869336363636    0.00621818181818182      0.0009                                    197.620545454545    225.226418181818    0.877430972727273    -46.687438221602    -74.0243190502437    
2022-04-22T17:09:08Z    31.6636666666667    -64.1648333333333    233.5     -231.803782554248    1e-12          4.0864e-14    19.4911363636364    36.8475745454545   26.1881627272727    0.00621818181818182      0.0008                                    197.494681818182    225.248481818182    0.876788454545455    -46.687438221602    -74.0243190502437    
2022-04-22T17:09:08Z    31.6636666666667    -64.1648333333333    234       -232.259082155126    1e-12          4.0836e-14    19.4862636363636    36.84735           26.1893109090909    0.00489090909090909      0.0007                                    197.343818181818    225.269109090909    0.876039063636364    -46.687438221602    -74.0243190502437    
2022-04-22T17:09:08Z    31.6636666666667    -64.1648333333333    234.5     -232.766457324146    1e-12          4.0836e-14    19.4813636363636    36.8471627272727   26.19047            0.00356363636363636      0.0006                                    197.156727272727    225.289772727273    0.875127045454545    -46.687438221602    -74.0243190502437    
2022-04-22T17:09:08Z    31.6636666666667    -64.1648333333333    235       -233.224730584202    1e-12          4.0864e-14    19.477              36.84701           26.1915936363636    0.00356363636363636      0.000409090909090909                      196.958272727273    225.307972727273    0.874176354545455    -46.687438221602    -74.0243190502437    
2022-04-22T17:09:08Z    31.6636666666667    -64.1648333333333    235.5     -233.725655824149    1e-12          4.0864e-14    19.473              36.8468409090909   26.1925418181818    0.00356363636363636      0.000218181818181818                      196.768181818182    225.325             0.8732666            -46.687438221602    -74.0243190502437    
2022-04-22T17:09:08Z    31.6636666666667    -64.1648333333333    236       -234.211700923207    1e-12          4.0893e-14    19.4692818181818    36.8466854545455   26.1934136363636    0.00356363636363636      0.0000272727272727273                     196.591136363636    225.3408            0.872421563636364    -46.687438221602    -74.0243190502437    
2022-04-22T17:09:08Z    31.6636666666667    -64.1648333333333    236.5     -234.691793323728    1e-12          4.0922e-14    19.4656818181818    36.84669           26.1943327272727    0.00356363636363636      -0.000163636363636364                     196.473863636364    225.355863636364    0.871842036363636    -46.687438221602    -74.0243190502437    
2022-04-22T17:09:08Z    31.6636666666667    -64.1648333333333    237       -235.207593824958    1e-12          4.0951e-14    19.4627772727273    36.8466272727273   26.1950609090909    0.00289090909090909      -0.000263636363636364                     196.367             225.368245454545    0.871318790909091    -46.687438221602    -74.0243190502437    
2022-04-22T17:09:08Z    31.6636666666667    -64.1648333333333    237.5     -235.698595022327    1e-12          4.0864e-14    19.4597681818182    36.8465163636364   26.1957872727273    0.00221818181818182      -0.000363636363636364                     196.286681818182    225.381145454545    0.870910545454545    -46.687438221602    -74.0243190502437    
2022-04-22T17:09:08Z    31.6636666666667    -64.1648333333333    238       -236.220344503928    1e-12          4.0893e-14    19.4565909090909    36.8464963636364   26.1966236363636    0.00221818181818182      -0.000463636363636364                     196.219590909091    225.394554545455    0.870562827272727    -46.687438221602    -74.0243190502437    
2022-04-22T17:09:08Z    31.6636666666667    -64.1648333333333    238.5     -236.712335196989    1e-12          4.0836e-14    19.4537090909091    36.84657           26.1974645454545    0.00221818181818182      -0.000463636363636364                     196.1405            225.4066            0.870163054545455    -46.687438221602    -74.0243190502437    
2022-04-22T17:09:08Z    31.6636666666667    -64.1648333333333    239       -237.264831405857    1e-12          4.0778e-14    19.4515181818182    36.8466545454545   26.1981227272727    0.00154545454545454      -0.000554545454545455                     196.057136363636    225.415818181818    0.869756236363636    -46.687438221602    -74.0243190502437    
2022-04-22T17:09:08Z    31.6636666666667    -64.1648333333333    239.5     -237.744420715323    1e-12          4.0764e-14    19.4493909090909    36.8467645454545   26.1987763636364    0.000872727272727273     -0.000645454545454546                     195.954454545455    225.4247            0.869266363636363    -46.687438221602    -74.0243190502437    
2022-04-22T17:09:08Z    31.6636666666667    -64.1648333333333    240       -238.203178833354    1e-12          4.0664e-14    19.4474818181818    36.8468827272727   26.1993863636364    0.000872727272727273     -0.000836363636363636                     195.854             225.432727272727    0.868789572727273    -46.687438221602    -74.0243190502437    
2022-04-22T17:09:08Z    31.6636666666667    -64.1648333333333    240.5     -238.637634226513    1e-12          4.0721e-14    19.4457727272727    36.8470109090909   26.1999581818182    0.000872727272727273     -0.000936363636363636                     195.718909090909    225.439872727273    0.868163436363636    -46.687438221602    -74.0243190502437    
2022-04-22T17:09:08Z    31.6636666666667    -64.1648333333333    241       -239.216906652166    1e-12          4.0692e-14    19.4440909090909    36.8471454545455   26.20052            0.000872727272727273     -0.00103636363636364                      195.607636363636    225.446872727273    0.867643127272727    -46.687438221602    -74.0243190502437    
2022-04-22T17:09:08Z    31.6636666666667    -64.1648333333333    241.5     -239.717817281015    1e-12          4.075e-14     19.4424909090909    36.8473109090909   26.2010945454546    0.000872727272727273     -0.00103636363636364                      195.510045454545    225.453590909091    0.867183881818182    -46.687438221602    -74.0243190502437    
2022-04-22T17:09:08Z    31.6636666666667    -64.1648333333333    242       -240.149293775655    1e-12          4.0778e-14    19.4410272727273    36.8474790909091   26.2016327272727    0.000872727272727273     -0.00103636363636364                      195.394727272727    225.459681818182    0.866649836363636    -46.687438221602    -74.0243190502437    
2022-04-22T17:09:08Z    31.6636666666667    -64.1648333333333    242.5     -240.65912920008     1e-12          4.0922e-14    19.4397454545455    36.8476481818182   26.2021181818182    0.000872727272727273     -0.00112727272727273                      195.294727272727    225.465027272727    0.866186163636364    -46.687438221602    -74.0243190502437    
2022-04-22T17:09:08Z    31.6636666666667    -64.1648333333333    243       -241.184337715371    1e-12          4.1038e-14    19.4386909090909    36.8478027272727   26.2025318181818    0.000209090909090909     -0.00131818181818182                      195.199045454545    225.469445454545    0.865746536363636    -46.687438221602    -74.0243190502437    
2022-04-22T17:09:08Z    31.6636666666667    -64.1648333333333    243.5     -241.666893555496    1e-12          4.1067e-14    19.4378909090909    36.8479209090909   26.2028590909091    -0.000454545454545454    -0.00140909090909091                      195.075681818182    225.472890909091    0.865185190909091    -46.687438221602    -74.0243190502437    
2022-04-22T17:09:08Z    31.6636666666667    -64.1648333333333    244       -242.150440148952    1e-12          4.1125e-14    19.4371272727273    36.8479809090909   26.2031227272727    -0.00111818181818182     -0.00130909090909091                      194.945954545455    225.476290909091    0.864596572727273    -46.687438221602    -74.0243190502437    
2022-04-22T17:09:08Z    31.6636666666667    -64.1648333333333    244.5     -242.660270609062    1e-12          4.1096e-14    19.4363272727273    36.8480272727273   26.2033954545455    -0.00178181818181818     -0.00111818181818182                      194.799363636364    225.479863636364    0.863932845454546    -46.687438221602    -74.0243190502437    
2022-04-22T17:09:08Z    31.6636666666667    -64.1648333333333    245       -243.142822984451    1e-12          4.1038e-14    19.4354818181818    36.8480881818182   26.2036836363636    -0.00244545454545455     -0.00111818181818182                      194.668181818182    225.483545454545    0.863337318181818    -46.687438221602    -74.0243190502437    
2022-04-22T17:09:08Z    31.6636666666667    -64.1648333333333    245.5     -243.66802515268     1e-12          4.10235e-14   19.4344545454545    36.8482            26.2040727272727    -0.00378181818181818     -0.00101818181818182                      194.593818181818    225.487954545455    0.862990127272727    -46.687438221602    -74.0243190502437    
2022-04-22T17:09:08Z    31.6636666666667    -64.1648333333333    246       -244.193225981025    1e-12          4.0893e-14    19.4335             36.8484727272727   26.2045581818182    -0.00444545454545455     -0.000918181818181818                     194.602090909091    225.491818181818    0.863012227272727    -46.687438221602    -74.0243190502437    
2022-04-22T17:09:08Z    31.6636666666667    -64.1648333333333    246.5     -244.61279055008     1e-12          4.0836e-14    19.4321727272727    36.8486854545455   26.2050972727273    -0.00577272727272727     -0.000918181818181818                     194.562590909091    225.497345454545    0.8628159            -46.687438221602    -74.0243190502437    
2022-04-22T17:09:08Z    31.6636666666667    -64.1648333333333    247       -245.116663652374    1e-12          4.0778e-14    19.4304818181818    36.8488572727273   26.2056927272727    -0.0071                  -0.000918181818181818                     194.422363636364    225.504309090909    0.862167545454545    -46.687438221602    -74.0243190502437    
2022-04-22T17:09:08Z    31.6636666666667    -64.1648333333333    247.5     -245.662194161787    1e-12          4.0692e-14    19.4279409090909    36.8489272727273   26.2064327272727    -0.00776363636363636     -0.000918181818181818                     194.245             225.514981818182    0.861340109090909    -46.687438221602    -74.0243190502437    
2022-04-22T17:09:08Z    31.6636666666667    -64.1648333333333    248       -246.167056561349    1e-12          4.0692e-14    19.4251318181818    36.8489727272727   26.2072345454545    -0.00842727272727273     -0.00101818181818182                      194.053636363636    225.526781818182    0.860446272727273    -46.687438221602    -74.0243190502437    
2022-04-22T17:09:08Z    31.6636666666667    -64.1648333333333    248.5     -246.670925853353    1e-12          4.0664e-14    19.42225            36.8489854545454   26.2080363636364    -0.00842727272727273     -0.00101818181818182                      193.861181818182    225.538954545455    0.859546136363636    -46.687438221602    -74.0243190502437    
2022-04-22T17:09:08Z    31.6636666666667    -64.1648333333333    249       -247.177769505222    1e-12          4.0692e-14    19.4187863636364    36.8489227272727   26.2089127272727    -0.00842727272727273     -0.00111818181818182                      193.713181818182    225.553572727273    0.858834281818182    -46.687438221602    -74.0243190502437    
2022-04-22T17:09:08Z    31.6636666666667    -64.1648333333333    249.5     -247.637002498076    1e-12          4.0778e-14    19.4154590909091    36.8488336363636   26.2097354545455    -0.00842727272727273     -0.0015                                   193.604181818182    225.567690909091    0.8582967            -46.687438221602    -74.0243190502437    
2022-04-22T17:09:08Z    31.6636666666667    -64.1648333333333    250       -248.095242604264    1e-12          4.0922e-14    19.4116409090909    36.8485954545455   26.2105672727273    -0.00776363636363636     -0.00188181818181818                      193.541454545455    225.584045454545    0.857955527272727    -46.687438221602    -74.0243190502437    
2022-04-22T17:09:08Z    31.6636666666667    -64.1648333333333    250.5     -248.554473547287    1e-12          4.1009e-14    19.40705            36.8482463636364   26.2115254545455    -0.0071                  -0.00198181818181818                      193.509545454545    225.603772727273    0.857738563636364    -46.687438221602    -74.0243190502437    
2022-04-22T17:09:08Z    31.6636666666667    -64.1648333333333    251       -249.105946066857    1e-12          4.1096e-14    19.4014909090909    36.8477736363636   26.2126336363636    -0.00643636363636364     -0.00208181818181818                      193.474681818182    225.627581818182    0.8574937            -46.687438221602    -74.0243190502437    
2022-04-22T17:09:08Z    31.6636666666667    -64.1648333333333    251.5     -249.652457841532    1e-12          4.1096e-14    19.3955             36.8472381818182   26.2138118181818    -0.00643636363636364     -0.00218181818181818                      193.436636363636    225.653281818182    0.8572269            -46.687438221602    -74.0243190502437    
2022-04-22T17:09:08Z    31.6636666666667    -64.1648333333333    252       -250.072011267025    1e-12          4.1067e-14    19.3898272727273    36.8467636363636   26.2149463636364    -0.00577272727272727     -0.00222727272727273                      193.438045454545    225.677572727273    0.857140845454545    -46.687438221602    -74.0243190502437    
2022-04-22T17:09:08Z    31.6636666666667    -64.1648333333333    252.5     -250.575870986698    1e-12          4.1009e-14    19.3845363636364    36.8463081818182   26.2159927272727    -0.00510909090909091     -0.00232727272727273                      193.528272727273    225.700309090909    0.857454145454545    -46.687438221602    -74.0243190502437    
2022-04-22T17:09:08Z    31.6636666666667    -64.1648333333333    253       -251.080721317511    1e-12          4.09655e-14   19.3801590909091    36.8459363636364   26.2168781818182    -0.00510909090909091     -0.00251818181818182                      193.633954545455    225.719154545455    0.857851236363636    -46.687438221602    -74.0243190502437    
2022-04-22T17:09:08Z    31.6636666666667    -64.1648333333333    253.5     -251.604911349162    1e-12          4.0864e-14    19.3760136363636    36.8455709090909   26.2176881818182    -0.00510909090909091     -0.00260909090909091                      193.702590909091    225.737009090909    0.858087963636364    -46.687438221602    -74.0243190502437    
2022-04-22T17:09:08Z    31.6636666666667    -64.1648333333333    254       -252.136042955033    1e-12          4.0836e-14    19.3720318181818    36.8452590909091   26.2184981818182    -0.00510909090909091     -0.0027                                   193.682954545455    225.754136363636    0.857936472727273    -46.687438221602    -74.0243190502437    
2022-04-22T17:09:08Z    31.6636666666667    -64.1648333333333    254.5     -252.570964815445    1e-12          4.0807e-14    19.3687409090909    36.8450236363636   26.2191945454545    -0.00510909090909091     -0.00279090909090909                      193.548590909091    225.768372727273    0.857287227272727    -46.687438221602    -74.0243190502437    
2022-04-22T17:09:08Z    31.6636666666667    -64.1648333333333    255       -253.075314328211    1e-12          4.075e-14     19.3655590909091    36.8447681818182   26.2198536363636    -0.00510909090909091     -0.00279090909090909                      193.351954545455    225.782154545455    0.856364563636364    -46.687438221602    -74.0243190502437    
2022-04-22T17:09:08Z    31.6636666666667    -64.1648333333333    255.5     -253.605946207435    1e-12          4.075e-14     19.3629318181818    36.8446472727273   26.22047            -0.00577272727272727     -0.0026                                   193.157318181818    225.793490909091    0.855460890909091    -46.687438221602    -74.0243190502437    
2022-04-22T17:09:08Z    31.6636666666667    -64.1648333333333    256       -254.062189343993    1e-12          4.075e-14     19.3610863636364    36.8446090909091   26.2209454545455    -0.00577272727272727     -0.00269090909090909                      192.974954545455    225.801490909091    0.8546233            -46.687438221602    -74.0243190502437    
2022-04-22T17:09:08Z    31.6636666666667    -64.1648333333333    256.5     -254.613647087881    1e-12          4.0721e-14    19.3604             36.8445990909091   26.2211345454546    -0.00577272727272727     -0.00278181818181818                      192.789545454545    225.804690909091    0.8537905            -46.687438221602    -74.0243190502437    
2022-04-22T17:09:08Z    31.6636666666667    -64.1648333333333    257       -255.117495675745    1e-12          4.075e-14     19.3600454545455    36.8445154545455   26.2211754545454    -0.00643636363636364     -0.00287272727272727                      192.573318181818    225.806627272727    0.852825581818182    -46.687438221602    -74.0243190502437    
2022-04-22T17:09:08Z    31.6636666666667    -64.1648333333333    257.5     -255.579686404641    1e-12          4.0807e-14    19.3597454545455    36.8444081818182   26.2211963636364    -0.0071                  -0.00291818181818182                      192.357227272727    225.808409090909    0.851861381818182    -46.687438221602    -74.0243190502437    
2022-04-22T17:09:08Z    31.6636666666667    -64.1648333333333    258       -256.035925160814    1e-12          4.0864e-14    19.3594454545455    36.84433           26.2212463636364    -0.00643636363636364     -0.00300909090909091                      192.123863636364    225.810118181818    0.850821790909091    -46.687438221602    -74.0243190502437    
2022-04-22T17:09:08Z    31.6636666666667    -64.1648333333333    258.5     -256.539770262867    1e-12          4.0893e-14    19.3591818181818    36.8442618181818   26.2212845454545    -0.00577272727272727     -0.00300909090909091                      191.887136363636    225.811690909091    0.849767709090909    -46.687438221602    -74.0243190502437    
2022-04-22T17:09:08Z    31.6636666666667    -64.1648333333333    259       -257.049565034533    1e-12          4.0951e-14    19.3589272727273    36.8442045454545   26.2213309090909    -0.00510909090909091     -0.00300909090909091                      191.660772727273    225.813227272727    0.848758981818182    -46.687438221602    -74.0243190502437    
2022-04-22T17:09:08Z    31.6636666666667    -64.1648333333333    259.5     -257.596055691291    1e-12          4.0922e-14    19.3586363636364    36.8441354545454   26.2213781818182    -0.00444545454545454     -0.00300909090909091                      191.489954545455    225.814909090909    0.847995681818182    -46.687438221602    -74.0243190502437    
2022-04-22T17:09:08Z    31.6636666666667    -64.1648333333333    260       -258.058240847949    1e-12          4.098e-14     19.3582272727273    36.8440190909091   26.2214109090909    -0.00378181818181818     -0.00300909090909091                      191.398954545455    225.817227272727    0.847584809090909    -46.687438221602    -74.0243190502437    
2022-04-22T17:09:08Z    31.6636666666667    -64.1648333333333    260.5     -258.492654274345    1e-12          4.0922e-14    19.3576363636364    36.84393           26.22153            -0.00444545454545455     -0.00300909090909091                      191.338772727273    225.820181818182    0.847307290909091    -46.687438221602    -74.0243190502437    
2022-04-22T17:09:08Z    31.6636666666667    -64.1648333333333    261       -258.999964683181    1e-12          4.0922e-14    19.3570090909091    36.84385           26.2216545454545    -0.00510909090909091     -0.0032                                   191.246681818182    225.823190909091    0.8468875            -46.687438221602    -74.0243190502437    
2022-04-22T17:09:08Z    31.6636666666667    -64.1648333333333    261.5     -259.528101757226    1e-12          4.0864e-14    19.3564318181818    36.8437681818182   26.2217645454545    -0.00643636363636364     -0.0032                                   191.148227272727    225.826072727273    0.846440418181818    -46.687438221602    -74.0243190502437    
2022-04-22T17:09:08Z    31.6636666666667    -64.1648333333333    262       -260.008135026107    1e-12          4.0893e-14    19.3558318181818    36.8436854545455   26.2218836363636    -0.00776363636363636     -0.0032                                   191.050136363636    225.829             0.845995072727273    -46.687438221602    -74.0243190502437    
2022-04-22T17:09:08Z    31.6636666666667    -64.1648333333333    262.5     -260.490646674002    1e-12          4.0864e-14    19.3550954545455    36.8436154545454   26.2220481818182    -0.00776363636363636     -0.0032                                   190.971590909091    225.832563636364    0.845633581818182    -46.687438221602    -74.0243190502437    
2022-04-22T17:09:08Z    31.6636666666667    -64.1648333333333    263       -260.992001368008    1e-12          4.0864e-14    19.3542045454546    36.8435481818182   26.2222509090909    -0.00776363636363636     -0.0032                                   190.882454545455    225.836672727273    0.845224272727273    -46.687438221602    -74.0243190502437    
2022-04-22T17:09:08Z    31.6636666666667    -64.1648333333333    263.5     -261.501785099975    1e-12          4.0836e-14    19.3533681818182    36.8434563636364   26.2224290909091    -0.00842727272727273     -0.0032                                   190.802227272727    225.840581818182    0.844855118181818    -46.687438221602    -74.0243190502437    
2022-04-22T17:09:08Z    31.6636666666667    -64.1648333333333    264       -262.026940364848    1e-12          4.0836e-14    19.3524318181818    36.8433390909091   26.2226072727273    -0.00909090909090909     -0.0032                                   190.688136363636    225.844972727273    0.844333454545454    -46.687438221602    -74.0243190502437    
2022-04-22T17:09:08Z    31.6636666666667    -64.1648333333333    264.5     -262.510439070767    1e-12          4.0836e-14    19.3509772727273    36.8431918181818   26.2228818181818    -0.00975454545454545     -0.0032                                   190.538590909091    225.851590909091    0.843647036363636    -46.687438221602    -74.0243190502437    
2022-04-22T17:09:08Z    31.6636666666667    -64.1648333333333    265       -263.014268306304    1e-12          4.0807e-14    19.3493318181818    36.8430327272727   26.2232081818182    -0.0104181818181818      -0.0032                                   190.380136363636    225.858863636364    0.842918036363636    -46.687438221602    -74.0243190502437    
2022-04-22T17:09:08Z    31.6636666666667    -64.1648333333333    265.5     -263.452142513726    1e-12          4.0807e-14    19.3472590909091    36.8428936363636   26.2236818181818    -0.0117454545454545      -0.0032                                   190.228045454545    225.867945454545    0.842212609090909    -46.687438221602    -74.0243190502437    
2022-04-22T17:09:08Z    31.6636666666667    -64.1648333333333    266       -263.980268151607    1e-12          4.0836e-14    19.3449318181818    36.8427081818182   26.2241318181818    -0.0117454545454545      -0.0032                                   190.1145            225.878218181818    0.841674290909091    -46.687438221602    -74.0243190502437    
2022-04-22T17:09:08Z    31.6636666666667    -64.1648333333333    266.5     -264.490044474627    1e-12          4.0836e-14    19.3423409090909    36.8425090909091   26.2246872727273    -0.0110818181818182      -0.0032                                   190.026681818182    225.889563636364    0.841243963636364    -46.687438221602    -74.0243190502437    
2022-04-22T17:09:08Z    31.6636666666667    -64.1648333333333    267       -264.988909964049    1e-12          4.0836e-14    19.3395272727273    36.8423090909091   26.2252890909091    -0.0104181818181818      -0.0032                                   189.903681818182    225.901809090909    0.840653936363637    -46.687438221602    -74.0243190502437    
2022-04-22T17:09:08Z    31.6636666666667    -64.1648333333333    267.5     -265.457029163533    1e-12          4.0836e-14    19.3355636363636    36.8419836363636   26.2260763636364    -0.0104181818181818      -0.0032                                   189.738045454545    225.919018181818    0.839856872727273    -46.687438221602    -74.0243190502437    
2022-04-22T17:09:08Z    31.6636666666667    -64.1648333333333    268       -265.954900532495    1e-12          4.0864e-14    19.3312454545455    36.8417018181818   26.2270118181818    -0.0104181818181818      -0.0032                                   189.538954545455    225.937518181818    0.838908563636364    -46.687438221602    -74.0243190502437    
2022-04-22T17:09:08Z    31.6636666666667    -64.1648333333333    268.5     -266.458721328096    1e-12          4.0922e-14    19.3266727272727    36.8413827272727   26.2279754545455    -0.0104181818181818      -0.0032                                   189.288             225.9572            0.837724627272727    -46.687438221602    -74.0243190502437    
2022-04-22T17:09:08Z    31.6636666666667    -64.1648333333333    269       -266.962540889253    1e-12          4.0951e-14    19.3216090909091    36.8411227272727   26.2291136363636    -0.0104181818181818      -0.0032                                   188.977090909091    225.978745454545    0.836268209090909    -46.687438221602    -74.0243190502437    
2022-04-22T17:09:08Z    31.6636666666667    -64.1648333333333    269.5     -267.467350983128    1e-12          4.0951e-14    19.3163863636364    36.8408645454545   26.2303027272727    -0.0104181818181818      -0.0032                                   188.622136363636    226.000918181818    0.834615663636364    -46.687438221602    -74.0243190502437    
2022-04-22T17:09:08Z    31.6636666666667    -64.1648333333333    270       -267.929513950984    1e-12          4.098e-14     19.3116             36.8406663636364   26.2314381818182    -0.0104181818181818      -0.0032                                   188.230272727273    226.021218181818    0.832807154545455    -46.687438221602    -74.0243190502437    
2022-04-22T17:09:08Z    31.6636666666667    -64.1648333333333    270.5     -268.433329908551    1e-12          4.0922e-14    19.3069272727273    36.8404636363636   26.2325209090909    -0.0104181818181818      -0.0032                                   187.817909090909    226.041163636364    0.8309097            -46.687438221602    -74.0243190502437    
2022-04-22T17:09:08Z    31.6636666666667    -64.1648333333333    271       -268.895490705379    1e-12          4.0951e-14    19.3027             36.8402945454545   26.2335072727273    -0.00975454545454545     -0.0032                                   187.426318181818    226.059072727273    0.829109363636364    -46.687438221602    -74.0243190502437    
2022-04-22T17:09:08Z    31.6636666666667    -64.1648333333333    271.5     -269.39930429628     1e-12          4.0922e-14    19.2988727272727    36.8401972727273   26.2344781818182    -0.00975454545454545     -0.0032                                   187.041272727273    226.075227272727    0.827344318181818    -46.687438221602    -74.0243190502437    
2022-04-22T17:09:08Z    31.6636666666667    -64.1648333333333    272       -269.927414657097    1e-12          4.0864e-14    19.2953409090909    36.8400790909091   26.2353263636364    -0.00975454545454545     -0.0032                                   186.655545454545    226.090245454545    0.825582009090909    -46.687438221602    -74.0243190502437    
2022-04-22T17:09:08Z    31.6636666666667    -64.1648333333333    272.5     -270.431721596308    1e-12          4.0864e-14    19.2918863636364    36.8399754545455   26.2361772727273    -0.00975454545454545     -0.0032                                   186.303090909091    226.104918181818    0.823969945454545    -46.687438221602    -74.0243190502437    
2022-04-22T17:09:08Z    31.6636666666667    -64.1648333333333    273       -270.935531423532    1e-12          4.0807e-14    19.2884727272727    36.8401318181818   26.2372236363636    -0.00975454545454545     -0.0032                                   186.005727272727    226.119118181818    0.822604363636364    -46.687438221602    -74.0243190502437    
2022-04-22T17:09:08Z    31.6636666666667    -64.1648333333333    273.5     -271.421488553377    1e-12          4.0807e-14    19.2851181818182    36.8401627272727   26.2381172727273    -0.00909090909090909     -0.0032                                   185.726             226.133281818182    0.821315436363636    -46.687438221602    -74.0243190502437    
2022-04-22T17:09:08Z    31.6636666666667    -64.1648333333333    274       -271.947114357686    1e-12          4.0778e-14    19.2816045454545    36.84034           26.23919            -0.00842727272727273     -0.0032                                   185.513954545455    226.1478            0.820324863636364    -46.687438221602    -74.0243190502437    
2022-04-22T17:09:08Z    31.6636666666667    -64.1648333333333    274.5     -272.453895701407    1e-12          4.07925e-14   19.2777954545455    36.8404154545455   26.2402672727273    -0.00842727272727273     -0.00329090909090909                      185.368227272727    226.163736363636    0.819622554545455    -46.687438221602    -74.0243190502437    
2022-04-22T17:09:08Z    31.6636666666667    -64.1648333333333    275       -272.892245681942    1e-12          4.0836e-14    19.2736272727273    36.8405872727273   26.2414972727273    -0.00842727272727273     -0.00338181818181818                      185.305272727273    226.181009090909    0.819281472727273    -46.687438221602    -74.0243190502437    
2022-04-22T17:09:08Z    31.6636666666667    -64.1648333333333    275.5     -273.348446025535    1e-12          4.08785e-14   19.2693954545455    36.8408054545455   26.2427872727273    -0.00842727272727273     -0.00338181818181818                      185.338318181818    226.198472727273    0.819364409090909    -46.687438221602    -74.0243190502437    
2022-04-22T17:09:08Z    31.6636666666667    -64.1648333333333    276       -273.900843782679    1e-12          4.0922e-14    19.2653227272727    36.8410518181818   26.2440554545455    -0.00842727272727273     -0.00338181818181818                      185.443590909091    226.215218181818    0.819769536363636    -46.687438221602    -74.0243190502437    
2022-04-22T17:09:08Z    31.6636666666667    -64.1648333333333    276.5     -274.383322824448    1e-12          4.0893e-14    19.2613954545455    36.84123           26.2452363636364    -0.00776363636363636     -0.00347272727272727                      185.554727272727    226.231509090909    0.820201072727273    -46.687438221602    -74.0243190502437    
2022-04-22T17:09:08Z    31.6636666666667    -64.1648333333333    277       -274.911916260221    1e-12          4.0922e-14    19.2574181818182    36.8414081818182   26.2464318181818    -0.00643636363636364     -0.00356363636363636                      185.655409090909    226.248036363636    0.820586109090909    -46.687438221602    -74.0243190502437    
2022-04-22T17:09:08Z    31.6636666666667    -64.1648333333333    277.5     -275.370591451299    1e-12          4.0922e-14    19.2534045454545    36.8416254545455   26.2476554545455    -0.00577272727272727     -0.00365454545454546                      185.752954545455    226.264581818182    0.820957590909091    -46.687438221602    -74.0243190502437    
2022-04-22T17:09:08Z    31.6636666666667    -64.1648333333333    278       -275.875380906202    1e-12          4.0893e-14    19.2496681818182    36.8418336363636   26.2488081818182    -0.00577272727272727     -0.00374545454545455                      185.846954545455    226.279981818182    0.821316118181818    -46.687438221602    -74.0243190502437    
2022-04-22T17:09:08Z    31.6636666666667    -64.1648333333333    278.5     -276.379177397998    1e-12          4.0922e-14    19.2470363636364    36.84191           26.2495772727273    -0.00510909090909091     -0.00383636363636364                      185.919681818182    226.290990909091    0.821595763636364    -46.687438221602    -74.0243190502437    
2022-04-22T17:09:08Z    31.6636666666667    -64.1648333333333    279       -276.931567014942    1e-12          4.0922e-14    19.2448545454545    36.8420590909091   26.2503045454545    -0.00510909090909091     -0.00392727272727273                      185.998409090909    226.300072727273    0.821909827272727    -46.687438221602    -74.0243190502437    
2022-04-22T17:09:08Z    31.6636666666667    -64.1648333333333    279.5     -277.381312216074    1e-12          4.0922e-14    19.2432318181818    36.8421109090909   26.25079            -0.00510909090909091     -0.00401818181818182                      186.072090909091    226.307018181818    0.822209990909091    -46.687438221602    -74.0243190502437    
2022-04-22T17:09:08Z    31.6636666666667    -64.1648333333333    280       -277.892047037295    1e-12          4.0922e-14    19.2423045454545    36.8422027272727   26.25111            -0.00510909090909091     -0.00401818181818182                      186.095545454545    226.311090909091    0.822298554545455    -46.687438221602    -74.0243190502437    
2022-04-22T17:09:08Z    31.6636666666667    -64.1648333333333    280.5     -278.380962878187    1e-12          4.0951e-14    19.2420045454545    36.8422118181818   26.2512218181818    -0.00510909090909091     -0.00401818181818182                      186.148545454545    226.312690909091    0.822527609090909    -46.687438221602    -74.0243190502437    
2022-04-22T17:09:08Z    31.6636666666667    -64.1648333333333    281       -278.906075042412    1e-12          4.0922e-14    19.2419             36.8421518181818   26.2512281818182    -0.00510909090909091     -0.00410909090909091                      186.202545454545    226.313581818182    0.822762545454546    -46.687438221602    -74.0243190502437    
2022-04-22T17:09:08Z    31.6636666666667    -64.1648333333333    281.5     -279.416806077422    1e-12          4.0893e-14    19.2417363636364    36.8420763636364   26.2512318181818    -0.00510909090909091     -0.0042                                   186.185909090909    226.314809090909    0.8226845            -46.687438221602    -74.0243190502437    
2022-04-22T17:09:08Z    31.6636666666667    -64.1648333333333    282       -279.872991949051    1e-12          4.0864e-14    19.2415727272727    36.8420563636364   26.2512790909091    -0.00577272727272727     -0.0042                                   186.136272727273    226.315890909091    0.822462009090909    -46.687438221602    -74.0243190502437    
2022-04-22T17:09:08Z    31.6636666666667    -64.1648333333333    282.5     -280.317276347166    1e-12          4.0836e-14    19.2414318181818    36.8420309090909   26.2513118181818    -0.00643636363636364     -0.0042                                   186.071818181818    226.316818181818    0.822173872727273    -46.687438221602    -74.0243190502437    
2022-04-22T17:09:08Z    31.6636666666667    -64.1648333333333    283       -280.815111741048    1e-12          4.0864e-14    19.2413590909091    36.8419936363636   26.2513290909091    -0.0071                  -0.0042                                   185.993272727273    226.317581818182    0.821823890909091    -46.687438221602    -74.0243190502437    
2022-04-22T17:09:08Z    31.6636666666667    -64.1648333333333    283.5     -281.312945932423    1e-12          4.0864e-14    19.2410772727273    36.8419554545455   26.2513881818182    -0.0071                  -0.0042                                   185.897818181818    226.319154545455    0.821395754545455    -46.687438221602    -74.0243190502437    
2022-04-22T17:09:08Z    31.6636666666667    -64.1648333333333    284       -281.829621178856    1e-12          4.0864e-14    19.2406909090909    36.8419490909091   26.2515036363636    -0.0071                  -0.0043                                   185.810681818182    226.321145454545    0.8210037            -46.687438221602    -74.0243190502437    
2022-04-22T17:09:08Z    31.6636666666667    -64.1648333333333    284.5     -282.358195471497    1e-12          4.0836e-14    19.2402363636364    36.8419090909091   26.2516154545455    -0.0071                  -0.0043                                   185.771227272727    226.3234            0.820821154545455    -46.687438221602    -74.0243190502437    
2022-04-22T17:09:08Z    31.6636666666667    -64.1648333333333    285       -282.819829130454    1e-12          4.0807e-14    19.2396727272727    36.84189           26.2517736363636    -0.0071                  -0.0043                                   185.755363636364    226.326118181818    0.820741318181818    -46.687438221602    -74.0243190502437    
2022-04-22T17:09:08Z    31.6636666666667    -64.1648333333333    285.5     -283.276503301797    1e-12          4.0807e-14    19.2392363636364    36.8418818181818   26.2519081818182    -0.0071                  -0.0043                                   185.793909090909    226.328318181818    0.820903836363636    -46.687438221602    -74.0243190502437    
2022-04-22T17:09:08Z    31.6636666666667    -64.1648333333333    286       -283.804082188111    1e-12          4.075e-14     19.2388090909091    36.8418890909091   26.2520527272727    -0.0071                  -0.0043                                   185.781181818182    226.3305            0.820838627272727    -46.687438221602    -74.0243190502437    
2022-04-22T17:09:08Z    31.6636666666667    -64.1648333333333    286.5     -284.36884793305     1e-12          4.0778e-14    19.2383318181818    36.8418863636364   26.2521918181818    -0.0071                  -0.0043                                   185.754909090909    226.332809090909    0.820714772727273    -46.687438221602    -74.0243190502437    
2022-04-22T17:09:08Z    31.6636666666667    -64.1648333333333    287       -284.836427184791    1e-12          4.075e-14     19.2378590909091    36.8418863636364   26.2523454545454    -0.0071                  -0.0043                                   185.754318181818    226.335081818182    0.820703854545455    -46.687438221602    -74.0243190502437    
2022-04-22T17:09:08Z    31.6636666666667    -64.1648333333333    287.5     -285.2871467902      1e-12          4.0836e-14    19.2373772727273    36.8418845454546   26.2524927272727    -0.0071                  -0.0043                                   185.768409090909    226.337418181818    0.820757454545454    -46.687438221602    -74.0243190502437    
2022-04-22T17:09:08Z    31.6636666666667    -64.1648333333333    288       -285.736873729766    1e-12          4.0864e-14    19.2369             36.8418927272727   26.2526490909091    -0.00776363636363636     -0.0043                                   185.766272727273    226.339745454545    0.8207395            -46.687438221602    -74.0243190502437    
2022-04-22T17:09:08Z    31.6636666666667    -64.1648333333333    288.5     -286.28923821709     1e-12          4.1009e-14    19.2363727272727    36.8419190909091   26.2528181818182    -0.00842727272727273     -0.0043                                   185.790545454545    226.342263636364    0.820837418181818    -46.687438221602    -74.0243190502437    
2022-04-22T17:09:08Z    31.6636666666667    -64.1648333333333    289       -286.802925939902    1e-12          4.1067e-14    19.2359727272727    36.8419136363636   26.2529427272727    -0.00909090909090909     -0.0043                                   185.839090909091    226.344354545455    0.821045881818182    -46.687438221602    -74.0243190502437    
2022-04-22T17:09:08Z    31.6636666666667    -64.1648333333333    289.5     -287.273970507873    1e-12          4.1125e-14    19.2356363636364    36.84189           26.2530354545455    -0.00909090909090909     -0.0042                                   185.895181818182    226.346154545455    0.821287963636364    -46.687438221602    -74.0243190502437    
2022-04-22T17:09:08Z    31.6636666666667    -64.1648333333333    290       -287.802530812614    1e-12          4.1096e-14    19.2352227272727    36.8418818181818   26.2531590909091    -0.00909090909090909     -0.0042                                   185.917227272727    226.348327272727    0.821377336363636    -46.687438221602    -74.0243190502437    
2022-04-22T17:09:08Z    31.6636666666667    -64.1648333333333    290.5     -288.330593923241    1e-12          4.10815e-14   19.2348318181818    36.8418681818182   26.2532654545455    -0.00909090909090909     -0.0042                                   185.923681818182    226.350336363636    0.821398618181818    -46.687438221602    -74.0243190502437    
2022-04-22T17:09:08Z    31.6636666666667    -64.1648333333333    291       -288.74461428991     1e-12          4.0922e-14    19.2342045454545    36.8418472727273   26.25344            -0.00909090909090909     -0.0042                                   185.911227272727    226.353281818182    0.821333009090909    -46.687438221602    -74.0243190502437    
2022-04-22T17:09:08Z    31.6636666666667    -64.1648333333333    291.5     -289.225571033295    1e-12          4.0922e-14    19.2335318181818    36.8418063636364   26.2536054545455    -0.00909090909090909     -0.0042                                   185.913863636364    226.356390909091    0.821334127272727    -46.687438221602    -74.0243190502437    
2022-04-22T17:09:08Z    31.6636666666667    -64.1648333333333    292       -289.74470554741     1e-12          4.0807e-14    19.2325363636364    36.8417590909091   26.2538554545455    -0.00909090909090909     -0.0042                                   185.937727272727    226.360945454545    0.821422572727273    -46.687438221602    -74.0243190502437    
2022-04-22T17:09:08Z    31.6636666666667    -64.1648333333333    292.5     -290.251443042927    1e-12          4.0721e-14    19.2315727272727    36.8417045454545   26.2540781818182    -0.00975454545454545     -0.0042                                   185.938954545455    226.365381818182    0.821413154545454    -46.687438221602    -74.0243190502437    
2022-04-22T17:09:08Z    31.6636666666667    -64.1648333333333    293       -290.759170952053    1e-12          4.0721e-14    19.2304590909091    36.8416336363636   26.2543318181818    -0.00909090909090909     -0.0042                                   185.940363636364    226.370436363636    0.821400609090909    -46.687438221602    -74.0243190502437    
2022-04-22T17:09:08Z    31.6636666666667    -64.1648333333333    293.5     -291.230702289374    1e-12          4.0692e-14    19.2290181818182    36.8414909090909   26.2545845454545    -0.00776363636363636     -0.0042                                   185.945409090909    226.377036363636    0.821398918181818    -46.687438221602    -74.0243190502437    
2022-04-22T17:09:08Z    31.6636666666667    -64.1648333333333    294       -291.752310876923    1e-12          4.0692e-14    19.2275681818182    36.8413609090909   26.2548945454545    -0.00643636363636364     -0.0042                                   185.912454545455    226.383590909091    0.821230072727273    -46.687438221602    -74.0243190502437    
2022-04-22T17:09:08Z    31.6636666666667    -64.1648333333333    294.5     -292.353249929622    1e-12          4.0721e-14    19.2260863636364    36.8412681818182   26.2552336363636    -0.00510909090909091     -0.0042                                   185.860090909091    226.390209090909    0.820973772727273    -46.687438221602    -74.0243190502437    
2022-04-22T17:09:08Z    31.6636666666667    -64.1648333333333    295       -292.581328648524    1e-12          4.0951e-14    19.2246545454545    36.84113           26.2555118181818    -0.00643636363636364     -0.0042                                   185.817909090909    226.3966            0.820763672727273    -46.687438221602    -74.0243190502437    
2022-04-22T17:09:08Z    31.6636666666667    -64.1648333333333    295.5     -293.238293107905    1e-12          4.1183e-14    19.2227954545455    36.84089           26.2558327272727    -0.00776363636363636     -0.0043                                   185.7805            226.404963636364    0.820568054545455    -46.687438221602    -74.0243190502437    
2022-04-22T17:09:08Z    31.6636666666667    -64.1648333333333    296       -293.733618136814    1e-12          4.1183e-14    19.2208772727273    36.8406345454545   26.2561690909091    -0.00909090909090909     -0.00435                                  185.749909090909    226.413645454545    0.820401518181818    -46.687438221602    -74.0243190502437    
2022-04-22T17:09:08Z    31.6636666666667    -64.1648333333333    296.5     -294.249766361152    1e-12          4.1183e-14    19.2188363636364    36.8402963636364   26.2564581818182    -0.0104181818181818      -0.00435                                  185.737909090909    226.423027272727    0.820316572727273    -46.687438221602    -74.0243190502437    
2022-04-22T17:09:08Z    31.6636666666667    -64.1648333333333    297       -294.742114054181    1e-12          4.1183e-14    19.2164454545455    36.8399981818182   26.2568809090909    -0.0117454545454545      -0.00435                                  185.733636363636    226.4337            0.820258254545455    -46.687438221602    -74.0243190502437    
2022-04-22T17:09:08Z    31.6636666666667    -64.1648333333333    297.5     -295.192811955703    1e-12          4.10815e-14   19.2141136363636    36.8395890909091   26.2571927272727    -0.0130727272727273      -0.00435                                  185.707409090909    226.444336363636    0.820106381818182    -46.687438221602    -74.0243190502437    
2022-04-22T17:09:08Z    31.6636666666667    -64.1648333333333    298       -295.661358238897    1e-12          4.1038e-14    19.2111590909091    36.8391718181818   26.25768            -0.0137363636363636      -0.00435                                  185.724318181818    226.457490909091    0.820131872727273    -46.687438221602    -74.0243190502437    
2022-04-22T17:09:08Z    31.6636666666667    -64.1648333333333    298.5     -296.213200261377    1e-12          4.098e-14     19.2081363636364    36.8387854545455   26.2582             -0.0144                  -0.00435                                  185.747363636364    226.470963636364    0.820185736363636    -46.687438221602    -74.0243190502437    
2022-04-22T17:09:08Z    31.6636666666667    -64.1648333333333    299       -296.735787846992    1e-12          4.085e-14     19.2051954545455    36.8384190909091   26.2587336363636    -0.0150636363636364      -0.00445                                  185.787681818182    226.483990909091    0.820317481818182    -46.687438221602    -74.0243190502437    
2022-04-22T17:09:08Z    31.6636666666667    -64.1648333333333    299.5     -297.200859931278    1e-12          4.0778e-14    19.2019818181818    36.8379590909091   26.2592336363636    -0.0157272727272727      -0.00445                                  185.871363636364    226.4983            0.820635072727273    -46.687438221602    -74.0243190502437    
2022-04-22T17:09:08Z    31.6636666666667    -64.1648333333333    300       -297.684275962214    1e-12          4.075e-14     19.1976727272727    36.8373418181818   26.2598809090909    -0.0157272727272727      -0.00445                                  185.972363636364    226.517418181818    0.821017090909091    -46.687438221602    -74.0243190502437    
2022-04-22T17:09:08Z    31.6636666666667    -64.1648333333333    300.5     -298.183060952194    1e-12          4.0692e-14    19.1920272727273    36.8367127272727   26.2608818181818    -0.0150636363636364      -0.00445                                  186.073136363636    226.542072727273    0.821372518181818    -46.687438221602    -74.0243190502437    
2022-04-22T17:09:08Z    31.6636666666667    -64.1648333333333    301       -298.692752516171    1e-12          4.075e-14     19.1863863636364    36.8361681818182   26.2619563636364    -0.0137363636363636      -0.00435                                  186.164045454545    226.566545454545    0.821684054545455    -46.687438221602    -74.0243190502437    
2022-04-22T17:09:08Z    31.6636666666667    -64.1648333333333    301.5     -299.218308642713    1e-12          4.075e-14     19.18055            36.83559           26.26305            -0.0124090909090909      -0.0044                                   186.223590909091    226.591854545455    0.821855090909091    -46.687438221602    -74.0243190502437    
2022-04-22T17:09:08Z    31.6636666666667    -64.1648333333333    302       -299.708165409659    1e-12          4.075e-14     19.1747727272727    36.8350409090909   26.2641581818182    -0.0110818181818182      -0.0045                                   186.240954545455    226.616845454545    0.821839090909091    -46.687438221602    -74.0243190502437    
2022-04-22T17:09:08Z    31.6636666666667    -64.1648333333333    302.5     -300.188104914853    1e-12          4.0893e-14    19.1689             36.8343581818182   26.2651727272727    -0.00975454545454545     -0.0046                                   186.220863636364    226.642563636364    0.821657681818182    -46.687438221602    -74.0243190502437    
2022-04-22T17:09:08Z    31.6636666666667    -64.1648333333333    303       -300.626395801775    1e-12          4.1125e-14    19.1626363636364    36.8337427272727   26.2663609090909    -0.00842727272727273     -0.0047                                   186.191045454545    226.669690909091    0.821425581818182    -46.687438221602    -74.0243190502437    
2022-04-22T17:09:08Z    31.6636666666667    -64.1648333333333    303.5     -301.154921803128    1e-12          4.11685e-14   19.1562             36.8330109090909   26.2674790909091    -0.0071                  -0.0048                                   186.1585            226.697772727273    0.821182418181818    -46.687438221602    -74.0243190502437    
2022-04-22T17:09:08Z    31.6636666666667    -64.1648333333333    304       -301.683446449767    1e-12          4.1096e-14    19.1494272727273    36.83235           26.2687463636364    -0.00776363636363636     -0.0049                                   186.1175            226.727054545455    0.820894081818182    -46.687438221602    -74.0243190502437    
2022-04-22T17:09:08Z    31.6636666666667    -64.1648333333333    304.5     -302.145532550858    1e-12          4.1096e-14    19.14275            36.8317336363636   26.27004            -0.00842727272727273     -0.0049                                   186.094045454545    226.755854545455    0.820685654545455    -46.687438221602    -74.0243190502437    
2022-04-22T17:09:08Z    31.6636666666667    -64.1648333333333    305       -302.650256312544    1e-12          4.1009e-14    19.1363227272727    36.8311781818182   26.2713063636364    -0.00909090909090909     -0.005                                    186.056409090909    226.7836            0.820419236363636    -46.687438221602    -74.0243190502437    
2022-04-22T17:09:08Z    31.6636666666667    -64.1648333333333    305.5     -303.153987241218    1e-12          4.0922e-14    19.1308727272727    36.8307327272727   26.2724190909091    -0.0104181818181818      -0.005                                    186.017909090909    226.807109090909    0.820159327272727    -46.687438221602    -74.0243190502437    
2022-04-22T17:09:08Z    31.6636666666667    -64.1648333333333    306       -303.65870852953     1e-12          4.0893e-14    19.1267181818182    36.8303645454545   26.2732463636364    -0.00909090909090909     -0.005                                    185.954772727273    226.825227272727    0.819815172727273    -46.687438221602    -74.0243190502437    
2022-04-22T17:09:08Z    31.6636666666667    -64.1648333333333    306.5     -304.120790195287    1e-12          4.0836e-14    19.1229181818182    36.8299245454546   26.2739290909091    -0.00842727272727273     -0.00505                                  185.880318181818    226.841972727273    0.819426063636364    -46.687438221602    -74.0243190502437    
2022-04-22T17:09:08Z    31.6636666666667    -64.1648333333333    307       -304.604189967971    1e-12          4.0764e-14    19.1191             36.8294945454545   26.2746036363636    -0.00842727272727273     -0.00505                                  185.830363636364    226.8588            0.819144890909091    -46.687438221602    -74.0243190502437    
2022-04-22T17:09:08Z    31.6636666666667    -64.1648333333333    307.5     -305.156503806861    1e-12          4.075e-14     19.1157045454545    36.82915           26.27522            -0.00776363636363636     -0.00505                                  185.882727272727    226.8737            0.819323190909091    -46.687438221602    -74.0243190502437    
2022-04-22T17:09:08Z    31.6636666666667    -64.1648333333333    308       -305.636926394716    1e-12          4.0764e-14    19.1125409090909    36.8288527272727   26.2758263636364    -0.0071                  -0.00505                                  185.955545454545    226.887509090909    0.819594645454545    -46.687438221602    -74.0243190502437    
2022-04-22T17:09:08Z    31.6636666666667    -64.1648333333333    308.5     -306.168414274371    1e-12          4.07355e-14   19.1098681818182    36.8285672727273   26.27631            -0.0071                  -0.00505                                  186.048636363636    226.899345454545    0.819962381818182    -46.687438221602    -74.0243190502437    
2022-04-22T17:09:08Z    31.6636666666667    -64.1648333333333    309       -306.672632380645    1e-12          4.0721e-14    19.1079590909091    36.8284227272727   26.27672            -0.0071                  -0.00505                                  186.141             226.907836363636    0.820337018181818    -46.687438221602    -74.0243190502437    
2022-04-22T17:09:08Z    31.6636666666667    -64.1648333333333    309.5     -307.201638644577    1e-12          4.07925e-14   19.1065863636364    36.8281863636364   26.2769163636364    -0.00643636363636364     -0.00505                                  186.243727272727    226.914272727273    0.820767336363636    -46.687438221602    -74.0243190502437    
2022-04-22T17:09:08Z    31.6636666666667    -64.1648333333333    310       -307.528858332436    1e-12          4.1067e-14    19.1053954545455    36.8279127272727   26.2770363636364    -0.00577272727272727     -0.00505                                  186.328409090909    226.919990909091    0.8211199            -46.687438221602    -74.0243190502437    
2022-04-22T17:09:08Z    31.6636666666667    -64.1648333333333    310.5     -308.119835601964    1e-12          4.1125e-14    19.1041727272727    36.8276263636364   26.2771518181818    -0.00510909090909091     -0.00505                                  186.385045454545    226.925881818182    0.821348227272727    -46.687438221602    -74.0243190502437    
2022-04-22T17:09:08Z    31.6636666666667    -64.1648333333333    311       -308.606696472252    1e-12          4.1096e-14    19.1029681818182    36.8273627272727   26.2772909090909    -0.00444545454545455     -0.00515                                  186.423545454545    226.931654545455    0.821497009090909    -46.687438221602    -74.0243190502437    
2022-04-22T17:09:08Z    31.6636666666667    -64.1648333333333    311.5     -309.086615228087    1e-12          4.1096e-14    19.1016681818182    36.8270718181818   26.2774363636364    -0.00510909090909091     -0.00525                                  186.456681818182    226.937772727273    0.821621245454546    -46.687438221602    -74.0243190502437    
2022-04-22T17:09:08Z    31.6636666666667    -64.1648333333333    312       -309.597271351575    1e-12          4.098e-14     19.1000954545455    36.8268027272727   26.2776309090909    -0.00510909090909091     -0.0053                                   186.501590909091    226.945027272727    0.821794090909091    -46.687438221602    -74.0243190502437    
2022-04-22T17:09:08Z    31.6636666666667    -64.1648333333333    312.5     -310.07768357567     1e-12          4.0922e-14    19.0979454545455    36.8265954545454   26.2780336363636    -0.00444545454545455     -0.0053                                   186.576318181818    226.954654545455    0.822088518181818    -46.687438221602    -74.0243190502437    
2022-04-22T17:09:08Z    31.6636666666667    -64.1648333333333    313       -310.62998272592     1e-12          4.08785e-14   19.0954136363636    36.8263909090909   26.2785736363636    -0.00510909090909091     -0.0053                                   186.577045454545    226.965827272727    0.822049681818182    -46.687438221602    -74.0243190502437    
2022-04-22T17:09:08Z    31.6636666666667    -64.1648333333333    313.5     -311.11634188293     1e-12          4.0807e-14    19.0929727272727    36.8262263636364   26.2791081818182    -0.00577272727272727     -0.0053                                   186.562227272727    226.976645454545    0.8219448            -46.687438221602    -74.0243190502437    
2022-04-22T17:09:08Z    31.6636666666667    -64.1648333333333    314       -311.621043644772    1e-12          4.075e-14     19.0901090909091    36.8260645454545   26.2797518181818    -0.00577272727272727     -0.0053                                   186.495409090909    226.989127272727    0.821604690909091    -46.687438221602    -74.0243190502437    
2022-04-22T17:09:08Z    31.6636666666667    -64.1648333333333    314.5     -312.101451145189    1e-12          4.075e-14     19.0870181818182    36.8259072727273   26.2804554545455    -0.00577272727272727     -0.0053                                   186.385318181818    227.002527272727    0.821071363636364    -46.687438221602    -74.0243190502437    
2022-04-22T17:09:08Z    31.6636666666667    -64.1648333333333    315       -312.608629365069    1e-12          4.0692e-14    19.0836318181818    36.8257218181818   26.2812145454545    -0.00577272727272727     -0.0053                                   186.226272727273    227.017172727273    0.8203189            -46.687438221602    -74.0243190502437    
2022-04-22T17:09:08Z    31.6636666666667    -64.1648333333333    315.5     -313.092504978931    1e-12          4.0721e-14    19.0798227272727    36.8255281818182   26.2820727272727    -0.00577272727272727     -0.0053                                   186.057727272727    227.033663636364    0.819520018181818    -46.687438221602    -74.0243190502437    
2022-04-22T17:09:08Z    31.6636666666667    -64.1648333333333    316       -313.551590829807    1e-12          4.0807e-14    19.0757181818182    36.8253518181818   26.2830363636364    -0.00577272727272727     -0.0053                                   185.894             227.051263636364    0.818735418181818    -46.687438221602    -74.0243190502437    
2022-04-22T17:09:08Z    31.6636666666667    -64.1648333333333    316.5     -314.059261248118    1e-12          4.0893e-14    19.0715181818182    36.8252027272727   26.2840236363636    -0.00510909090909091     -0.0053                                   185.735363636364    227.069218181818    0.817972154545454    -46.687438221602    -74.0243190502437    
2022-04-22T17:09:08Z    31.6636666666667    -64.1648333333333    317       -314.56395579393     1e-12          4.1009e-14    19.0673181818182    36.8250618181818   26.2850209090909    -0.00444545454545455     -0.00539090909090909                      185.574727272727    227.087209090909    0.8171999            -46.687438221602    -74.0243190502437    
2022-04-22T17:09:08Z    31.6636666666667    -64.1648333333333    317.5     -315.047331039517    1e-12          4.1009e-14    19.0634090909091    36.8249818181818   26.2860054545455    -0.00477727272727273     -0.00539090909090909                      185.412045454545    227.103881818182    0.816423527272727    -46.687438221602    -74.0243190502437    
2022-04-22T17:09:08Z    31.6636666666667    -64.1648333333333    318       -315.530705152206    1e-12          4.098e-14     19.0601045454545    36.8248245454545   26.2867945454546    -0.00544090909090909     -0.00539090909090909                      185.231             227.118081818182    0.815575290909091    -46.687438221602    -74.0243190502437    
2022-04-22T17:09:08Z    31.6636666666667    -64.1648333333333    318.5     -315.992760164948    1e-12          4.0951e-14    19.0564409090909    36.8246090909091   26.2875736363636    -0.00544090909090909     -0.00539090909090909                      185.068272727273    227.133918181818    0.8148019            -46.687438221602    -74.0243190502437    
2022-04-22T17:09:08Z    31.6636666666667    -64.1648333333333    319       -316.497449970131    1e-12          4.0864e-14    19.0516090909091    36.8242127272727   26.2884963636364    -0.00477727272727273     -0.00539090909090909                      184.941363636364    227.154963636364    0.814171963636364    -46.687438221602    -74.0243190502437    
2022-04-22T17:09:08Z    31.6636666666667    -64.1648333333333    319.5     -317.002138537934    1e-12          4.0864e-14    19.0464318181818    36.8238409090909   26.2895609090909    -0.00411363636363636     -0.00539090909090909                      184.803454545455    227.177372727273    0.813484945454546    -46.687438221602    -74.0243190502437    
2022-04-22T17:09:08Z    31.6636666666667    -64.1648333333333    320       -317.464686005303    1e-12          4.0836e-14    19.0410772727273    36.8234209090909   26.2906227272727    -0.00345                 -0.00539090909090909                      184.672363636364    227.200627272727    0.812826454545455    -46.687438221602    -74.0243190502437    
2022-04-22T17:09:08Z    31.6636666666667    -64.1648333333333    320.5     -317.992673012261    1e-12          4.07925e-14   19.0355863636364    36.8229472727273   26.2917             -0.00278636363636364     -0.00548181818181818                      184.598090909091    227.224463636364    0.812411627272727    -46.687438221602    -74.0243190502437    
2022-04-22T17:09:08Z    31.6636666666667    -64.1648333333333    321       -318.521154422677    1e-12          4.0807e-14    19.0295590909091    36.82235           26.2928054545455    -0.00278636363636364     -0.00557272727272727                      184.561181818182    227.250718181818    0.812155536363636    -46.687438221602    -74.0243190502437    
2022-04-22T17:09:08Z    31.6636666666667    -64.1648333333333    321.5     -319.050130232814    1e-12          4.0778e-14    19.0234409090909    36.8217163636364   26.2939036363636    -0.00278636363636364     -0.00557272727272727                      184.538181818182    227.277536363636    0.811959436363636    -46.687438221602    -74.0243190502437    
2022-04-22T17:09:08Z    31.6636666666667    -64.1648333333333    322       -319.554316784317    1e-12          4.0807e-14    19.0173227272727    36.8210563636364   26.2949836363636    -0.00345                 -0.00557272727272727                      184.518363636364    227.304227272727    0.811776836363636    -46.687438221602    -74.0243190502437    
2022-04-22T17:09:08Z    31.6636666666667    -64.1648333333333    322.5     -320.041150612418    1e-12          4.0807e-14    19.0107772727273    36.8202809090909   26.2960990909091    -0.00411363636363636     -0.00548181818181818                      184.518090909091    227.332981818182    0.8116735            -46.687438221602    -74.0243190502437    
2022-04-22T17:09:08Z    31.6636666666667    -64.1648333333333    323       -320.497246432014    1e-12          4.0864e-14    19.0040454545455    36.81951           26.2972527272727    -0.00378181818181818     -0.00548181818181818                      184.504863636364    227.362509090909    0.811509927272727    -46.687438221602    -74.0243190502437    
2022-04-22T17:09:08Z    31.6636666666667    -64.1648333333333    323.5     -321.001925193851    1e-12          4.0893e-14    18.9974727272727    36.8187536363636   26.2983854545455    -0.00311818181818182     -0.00548181818181818                      184.4705            227.391327272727    0.811255872727273    -46.687438221602    -74.0243190502437    
2022-04-22T17:09:08Z    31.6636666666667    -64.1648333333333    324       -321.512551758547    1e-12          4.0893e-14    18.9913636363636    36.8180427272727   26.2994527272727    -0.00378181818181818     -0.00548181818181818                      184.394409090909    227.418163636364    0.810825390909091    -46.687438221602    -74.0243190502437    
2022-04-22T17:09:08Z    31.6636666666667    -64.1648333333333    324.5     -321.974593345002    1e-12          4.0922e-14    18.9865363636364    36.8175318181818   26.3003581818182    -0.00510909090909091     -0.00557272727272727                      184.304318181818    227.439263636364    0.810349554545455    -46.687438221602    -74.0243190502437    
2022-04-22T17:09:08Z    31.6636666666667    -64.1648333333333    325       -322.431676383368    1e-12          4.0922e-14    18.9826136363636    36.8170181818182   26.3010027272727    -0.00643636363636364     -0.00566363636363636                      184.251863636364    227.456672727273    0.810057009090909    -46.687438221602    -74.0243190502437    
2022-04-22T17:09:08Z    31.6636666666667    -64.1648333333333    325.5     -323.026576865653    1e-12          4.0922e-14    18.9790409090909    36.8165445454545   26.3015972727273    -0.00776363636363636     -0.00575454545454545                      184.241772727273    227.472545454545    0.809954518181818    -46.687438221602    -74.0243190502437    
2022-04-22T17:09:08Z    31.6636666666667    -64.1648333333333    326       -323.488615054206    1e-12          4.0893e-14    18.9758909090909    36.8161690909091   26.3021354545455    -0.00909090909090909     -0.00575454545454545                      184.212636363636    227.486581818182    0.809779081818182    -46.687438221602    -74.0243190502437    
2022-04-22T17:09:08Z    31.6636666666667    -64.1648333333333    326.5     -323.950652205841    1e-12          4.0922e-14    18.9736090909091    36.8159254545455   26.3025672727273    -0.00975454545454545     -0.00566363636363636                      184.152636363636    227.496772727273    0.809476354545454    -46.687438221602    -74.0243190502437    
2022-04-22T17:09:08Z    31.6636666666667    -64.1648333333333    327       -324.545548298953    1e-12          4.0864e-14    18.9716             36.8156718181818   26.3029154545455    -0.0110818181818182      -0.00566363636363636                      184.1185            227.505763636364    0.809292072727273    -46.687438221602    -74.0243190502437    
2022-04-22T17:09:08Z    31.6636666666667    -64.1648333333333    327.5     -324.987257534996    1e-12          4.0864e-14    18.9687863636364    36.8154263636364   26.3034863636364    -0.0120772727272727      -0.00566363636363636                      184.105636363636    227.518227272727    0.809190372727273    -46.687438221602    -74.0243190502437    
2022-04-22T17:09:08Z    31.6636666666667    -64.1648333333333    328       -325.491925290277    1e-12          4.0864e-14    18.9663227272727    36.8153527272727   26.3040818181818    -0.0127409090909091      -0.00566363636363636                      184.076636363636    227.528963636364    0.809024381818182    -46.687438221602    -74.0243190502437    
2022-04-22T17:09:08Z    31.6636666666667    -64.1648333333333    328.5     -325.975274879558    1e-12          4.0836e-14    18.96425            36.8152872727273   26.3045981818182    -0.0140681818181818      -0.00575454545454545                      184.046727272727    227.538045454545    0.808860627272727    -46.687438221602    -74.0243190502437    
2022-04-22T17:09:08Z    31.6636666666667    -64.1648333333333    329       -326.431357553021    1e-12          4.0864e-14    18.9621681818182    36.8152363636364   26.3051072727273    -0.0140681818181818      -0.00584545454545455                      184.037727272727    227.547172727273    0.808787881818182    -46.687438221602    -74.0243190502437    
2022-04-22T17:09:08Z    31.6636666666667    -64.1648333333333    329.5     -326.960313039065    1e-12          4.0836e-14    18.9594318181818    36.8151572727273   26.30578            -0.0127409090909091      -0.00593636363636364                      184.074136363636    227.559018181818    0.808907454545455    -46.687438221602    -74.0243190502437    
2022-04-22T17:09:08Z    31.6636666666667    -64.1648333333333    330       -327.449608050003    1e-12          4.0864e-14    18.95635            36.8151545454545   26.3066154545455    -0.0120772727272727      -0.00593636363636364                      184.126318181818    227.572154545455    0.809091045454546    -46.687438221602    -74.0243190502437    
2022-04-22T17:09:08Z    31.6636666666667    -64.1648333333333    330.5     -327.951295342848    1e-12          4.0864e-14    18.9529545454545    36.8151618181818   26.3075054545455    -0.0114136363636364      -0.00593636363636364                      184.196227272727    227.586645454545    0.809343654545455    -46.687438221602    -74.0243190502437    
2022-04-22T17:09:08Z    31.6636666666667    -64.1648333333333    331       -328.414313953296    1e-12          4.08785e-14   18.9488090909091    36.8148663636364   26.3083718181818    -0.01075                 -0.00593636363636364                      184.2615            227.604727272727    0.809567090909091    -46.687438221602    -74.0243190502437    
2022-04-22T17:09:08Z    31.6636666666667    -64.1648333333333    331.5     -328.918973308562    1e-12          4.0893e-14    18.9434045454545    36.8143318181818   26.3093681818182    -0.0100863636363636      -0.00593636363636364                      184.347090909091    227.628445454545    0.809856190909091    -46.687438221602    -74.0243190502437    
2022-04-22T17:09:08Z    31.6636666666667    -64.1648333333333    332       -329.399340444202    1e-12          4.0922e-14    18.9368954545455    36.8136527272727   26.3104936363636    -0.00942272727272727     -0.00602727272727273                      184.430636363636    227.657072727273    0.810120818181818    -46.687438221602    -74.0243190502437    
2022-04-22T17:09:08Z    31.6636666666667    -64.1648333333333    332.5     -329.927296842273    1e-12          4.0864e-14    18.9302045454545    36.8130209090909   26.3117454545454    -0.00809545454545454     -0.00611818181818182                      184.465045454545    227.686363636364    0.810169263636364    -46.687438221602    -74.0243190502437    
2022-04-22T17:09:08Z    31.6636666666667    -64.1648333333333    333       -330.44137139433     1e-12          4.0893e-14    18.9242272727273    36.8123454545455   26.3127818181818    -0.00643636363636364     -0.00620909090909091                      184.473909090909    227.712672727273    0.810116027272727    -46.687438221602    -74.0243190502437    
2022-04-22T17:09:08Z    31.6636666666667    -64.1648333333333    333.5     -330.942555667134    1e-12          4.0864e-14    18.91835            36.8115490909091   26.3136945454545    -0.00510909090909091     -0.0063                                   184.513363636364    227.738745454545    0.810196318181818    -46.687438221602    -74.0243190502437    
2022-04-22T17:09:08Z    31.6636666666667    -64.1648333333333    334       -331.38127680229     1e-12          4.0836e-14    18.9123772727273    36.8107527272727   26.31464            -0.00444545454545455     -0.0063                                   184.585909090909    227.765172727273    0.810421109090909    -46.687438221602    -74.0243190502437    
2022-04-22T17:09:08Z    31.6636666666667    -64.1648333333333    334.5     -331.910219575267    1e-12          4.0864e-14    18.9065181818182    36.8099145454545   26.3155336363636    -0.00510909090909091     -0.0063                                   184.694636363636    227.791227272727    0.810806427272727    -46.687438221602    -74.0243190502437    
2022-04-22T17:09:08Z    31.6636666666667    -64.1648333333333    335       -332.414870362541    1e-12          4.0807e-14    18.9010363636364    36.8089818181818   26.31625            -0.00643636363636364     -0.0063                                   184.824227272727    227.815863636364    0.811287554545455    -46.687438221602    -74.0243190502437    
2022-04-22T17:09:08Z    31.6636666666667    -64.1648333333333    335.5     -332.898203698583    1e-12          4.0836e-14    18.8954818181818    36.8078981818182   26.31685            -0.0071                  -0.0063                                   184.949409090909    227.841027272727    0.811746181818182    -46.687438221602    -74.0243190502437    
2022-04-22T17:09:08Z    31.6636666666667    -64.1648333333333    336       -333.3577411114      1e-12          4.08215e-14   18.8900318181818    36.8067790909091   26.3174118181818    -0.0071                  -0.0063                                   185.0695            227.8658            0.812187427272727    -46.687438221602    -74.0243190502437    
2022-04-22T17:09:08Z    31.6636666666667    -64.1648333333333    336.5     -333.886183083869    1e-12          4.0864e-14    18.8852772727273    36.8059            26.3179854545455    -0.0071                  -0.0063                                   185.182545454545    227.887290909091    0.812605836363636    -46.687438221602    -74.0243190502437    
2022-04-22T17:09:08Z    31.6636666666667    -64.1648333333333    337       -334.396777696483    1e-12          4.0836e-14    18.8816272727273    36.8052345454545   26.3184372727273    -0.0071                  -0.0063                                   185.278590909091    227.903827272727    0.812970281818182    -46.687438221602    -74.0243190502437    
2022-04-22T17:09:08Z    31.6636666666667    -64.1648333333333    337.5     -334.914311138098    1e-12          4.0864e-14    18.8791318181818    36.8047018181818   26.3187454545455    -0.0071                  -0.0063                                   185.352             227.9153            0.813251790909091    -46.687438221602    -74.0243190502437    
2022-04-22T17:09:08Z    31.6636666666667    -64.1648333333333    338       -335.358476732841    1e-12          4.0893e-14    18.8769227272727    36.8041309090909   26.3189036363636    -0.0071                  -0.0063                                   185.446636363636    227.925681818182    0.813630263636364    -46.687438221602    -74.0243190502437    
2022-04-22T17:09:08Z    31.6636666666667    -64.1648333333333    338.5     -335.869067694956    1e-12          4.0922e-14    18.8748909090909    36.8036036363636   26.3190409090909    -0.00776363636363636     -0.0063                                   185.543863636364    227.935345454545    0.814022836363636    -46.687438221602    -74.0243190502437    
2022-04-22T17:09:08Z    31.6636666666667    -64.1648333333333    339       -336.349418617698    1e-12          4.098e-14     18.8729227272727    36.8031281818182   26.31921            -0.00842727272727273     -0.0063                                   185.645454545455    227.944645454545    0.814435454545455    -46.687438221602    -74.0243190502437    
2022-04-22T17:09:08Z    31.6636666666667    -64.1648333333333    339.5     -336.878348629592    1e-12          4.0922e-14    18.8709227272727    36.8025954545455   26.3193372727273    -0.00909090909090909     -0.0063                                   185.735590909091    227.954190909091    0.814796609090909    -46.687438221602    -74.0243190502437    
2022-04-22T17:09:08Z    31.6636666666667    -64.1648333333333    340       -337.36464578025     1e-12          4.0922e-14    18.8688636363636    36.8020918181818   26.3195             -0.00975454545454545     -0.0063                                   185.772227272727    227.9639            0.814921936363636    -46.687438221602    -74.0243190502437    
2022-04-22T17:09:08Z    31.6636666666667    -64.1648333333333    340.5     -337.845984645437    1e-12          4.0922e-14    18.8667772727273    36.8015945454545   26.3196718181818    -0.00909090909090909     -0.0063                                   185.779363636364    227.973736363636    0.814915190909091    -46.687438221602    -74.0243190502437    
2022-04-22T17:09:08Z    31.6636666666667    -64.1648333333333    341       -338.332279511177    1e-12          4.085e-14     18.8648954545455    36.8011281818182   26.3198145454545    -0.00909090909090909     -0.0063                                   185.770272727273    227.982681818182    0.814842481818182    -46.687438221602    -74.0243190502437    
2022-04-22T17:09:08Z    31.6636666666667    -64.1648333333333    341.5     -338.860708713218    1e-12          4.0864e-14    18.8630045454545    36.80064           26.3199709090909    -0.00975454545454545     -0.0063                                   185.704272727273    227.991663636364    0.814520918181818    -46.687438221602    -74.0243190502437    
2022-04-22T17:09:08Z    31.6636666666667    -64.1648333333333    342       -339.347496898132    1e-12          4.0807e-14    18.8610863636364    36.8001963636364   26.3201409090909    -0.00975454545454545     -0.0063                                   185.608727272727    228.000709090909    0.814069672727273    -46.687438221602    -74.0243190502437    
2022-04-22T17:09:08Z    31.6636666666667    -64.1648333333333    342.5     -339.870470701282    1e-12          4.0836e-14    18.8591954545455    36.7997354545454   26.3203045454546    -0.00975454545454545     -0.0063                                   185.527727272727    228.009681818182    0.813682336363636    -46.687438221602    -74.0243190502437    
2022-04-22T17:09:08Z    31.6636666666667    -64.1648333333333    343       -340.356760786711    1e-12          4.0807e-14    18.8570090909091    36.7992009090909   26.3204572727273    -0.0100863636363636      -0.0063                                   185.511590909091    228.019936363636    0.813574672727273    -46.687438221602    -74.0243190502437    
2022-04-22T17:09:08Z    31.6636666666667    -64.1648333333333    343.5     -340.837101245183    1e-12          4.0807e-14    18.8542454545455    36.7985463636364   26.3206972727273    -0.01075                 -0.0063                                   185.534863636364    228.032790909091    0.813629445454545    -46.687438221602    -74.0243190502437    
2022-04-22T17:09:08Z    31.6636666666667    -64.1648333333333    344       -341.347678624487    1e-12          4.0836e-14    18.8508227272727    36.7978609090909   26.3210727272727    -0.0114136363636364      -0.0063                                   185.592136363636    228.048509090909    0.813823554545455    -46.687438221602    -74.0243190502437    
2022-04-22T17:09:08Z    31.6636666666667    -64.1648333333333    344.5     -341.80471866127     1e-12          4.0836e-14    18.8471363636364    36.7972181818182   26.3215509090909    -0.0114136363636364      -0.0063                                   185.630409090909    228.065209090909    0.813931718181818    -46.687438221602    -74.0243190502437    
2022-04-22T17:09:08Z    31.6636666666667    -64.1648333333333    345       -342.267706124309    1e-12          4.0893e-14    18.8435272727273    36.7966127272727   26.3220354545455    -0.01075                 -0.0063                                   185.650818181818    228.081490909091    0.813961309090909    -46.687438221602    -74.0243190502437    
2022-04-22T17:09:08Z    31.6636666666667    -64.1648333333333    345.5     -342.796125231871    1e-12          4.08785e-14   18.8396090909091    36.7958927272727   26.3225172727273    -0.0100863636363636      -0.00639090909090909                      185.658181818182    228.099309090909    0.813924563636364    -46.687438221602    -74.0243190502437    
2022-04-22T17:09:08Z    31.6636666666667    -64.1648333333333    346       -343.324542986476    1e-12          4.0922e-14    18.8347863636364    36.7951263636364   26.3232             -0.00942272727272727     -0.00639090909090909                      185.654772727273    228.120981818182    0.813841845454546    -46.687438221602    -74.0243190502437    
2022-04-22T17:09:08Z    31.6636666666667    -64.1648333333333    346.5     -343.811320616284    1e-12          4.0922e-14    18.8296681818182    36.7944154545455   26.3239990909091    -0.00875909090909091     -0.00639090909090909                      185.670772727273    228.143872727273    0.813830872727273    -46.687438221602    -74.0243190502437    
2022-04-22T17:09:08Z    31.6636666666667    -64.1648333333333    347       -344.316437939853    1e-12          4.0922e-14    18.8246681818182    36.7938354545455   26.3248445454545    -0.00809545454545454     -0.00639090909090909                      185.747772727273    228.166081818182    0.814089490909091    -46.687438221602    -74.0243190502437    
2022-04-22T17:09:08Z    31.6636666666667    -64.1648333333333    347.5     -344.802717531015    1e-12          4.098e-14     18.8199590909091    36.7933154545455   26.3256727272727    -0.00743181818181818     -0.00639090909090909                      185.880954545455    228.186945454545    0.814599081818182    -46.687438221602    -74.0243190502437    
2022-04-22T17:09:08Z    31.6636666666667    -64.1648333333333    348       -345.349966583158    1e-12          4.0951e-14    18.8154363636364    36.7928163636364   26.3264654545455    -0.00676818181818182     -0.00639090909090909                      186.030045454545    228.207018181818    0.815181063636364    -46.687438221602    -74.0243190502437    
2022-04-22T17:09:08Z    31.6636666666667    -64.1648333333333    348.5     -345.811954687377    1e-12          4.0951e-14    18.8112954545455    36.7924545454545   26.3272918181818    -0.00610454545454545     -0.00639090909090909                      186.149636363636    228.2253            0.815639990909091    -46.687438221602    -74.0243190502437    
2022-04-22T17:09:08Z    31.6636666666667    -64.1648333333333    349       -346.274933142843    1e-12          4.0893e-14    18.8076772727273    36.7922081818182   26.3280427272727    -0.00610454545454546     -0.00639090909090909                      186.233909090909    228.241163636364    0.815953754545454    -46.687438221602    -74.0243190502437    
2022-04-22T17:09:08Z    31.6636666666667    -64.1648333333333    349.5     -346.780044419311    1e-12          4.0836e-14    18.8044954545455    36.7919581818182   26.3286981818182    -0.00610454545454545     -0.00648181818181818                      186.299318181818    228.255245454545    0.816190690909091    -46.687438221602    -74.0243190502437    
2022-04-22T17:09:08Z    31.6636666666667    -64.1648333333333    350       -347.287632919854    1e-12          4.08215e-14   18.8013             36.7917281818182   26.3293645454545    -0.00676818181818182     -0.00648181818181818                      186.362727272727    228.269381818182    0.816417736363636    -46.687438221602    -74.0243190502437    
2022-04-22T17:09:08Z    31.6636666666667    -64.1648333333333    350.5     -347.782827921585    1e-12          4.0764e-14    18.7980318181818    36.7915709090909   26.3300990909091    -0.00743181818181818     -0.00648181818181818                      186.390818181818    228.283745454545    0.816491236363636    -46.687438221602    -74.0243190502437    
2022-04-22T17:09:08Z    31.6636666666667    -64.1648333333333    351       -348.230931276636    1e-12          4.0778e-14    18.7950318181818    36.7915745454546   26.33088            -0.00743181818181818     -0.00639090909090909                      186.338909090909    228.296672727273    0.816222772727273    -46.687438221602    -74.0243190502437    
2022-04-22T17:09:08Z    31.6636666666667    -64.1648333333333    351.5     -348.762309214957    1e-12          4.075e-14     18.7931318181818    36.79172           26.3314890909091    -0.00875909090909091     -0.00639090909090909                      186.303181818182    228.3048            0.816029036363636    -46.687438221602    -74.0243190502437    
2022-04-22T17:09:08Z    31.6636666666667    -64.1648333333333    352       -349.255517917621    1e-12          4.0721e-14    18.7913227272727    36.7918881818182   26.3320881818182    -0.00942272727272727     -0.00648181818181818                      186.296727272727    228.312445454545    0.815973490909091    -46.687438221602    -74.0243190502437    
2022-04-22T17:09:08Z    31.6636666666667    -64.1648333333333    352.5     -349.729889401158    1e-12          4.075e-14     18.7893090909091    36.7920990909091   26.3327881818182    -0.0100863636363636      -0.00657272727272727                      186.297590909091    228.320909090909    0.815947             -46.687438221602    -74.0243190502437    
2022-04-22T17:09:08Z    31.6636666666667    -64.1648333333333    353       -350.258785049637    1e-12          4.0764e-14    18.7870636363636    36.7923127272727   26.3335509090909    -0.0114136363636364      -0.00666363636363636                      186.297863636364    228.330336363636    0.815914972727273    -46.687438221602    -74.0243190502437    
2022-04-22T17:09:08Z    31.6636666666667    -64.1648333333333    353.5     -350.730180122915    1e-12          4.0922e-14    18.78455            36.79254           26.3343972727273    -0.0127409090909091      -0.00675454545454545                      186.2675            228.340845454545    0.815743909090909    -46.687438221602    -74.0243190502437    
2022-04-22T17:09:08Z    31.6636666666667    -64.1648333333333    354       -351.202069798302    1e-12          4.1096e-14    18.7818636363636    36.7927409090909   26.3352590909091    -0.0130727272727273      -0.00684545454545455                      186.210909090909    228.352145454545    0.815456281818182    -46.687438221602    -74.0243190502437    
2022-04-22T17:09:08Z    31.6636666666667    -64.1648333333333    354.5     -351.706673318028    1e-12          4.1154e-14    18.7792590909091    36.79299           26.3361381818182    -0.0124090909090909      -0.00693636363636364                      186.141772727273    228.3631            0.8151144            -46.687438221602    -74.0243190502437    
2022-04-22T17:09:08Z    31.6636666666667    -64.1648333333333    355       -352.205823127493    1e-12          4.1067e-14    18.7766181818182    36.7931481818182   26.3369327272727    -0.0117454545454545      -0.00693636363636364                      186.033363636364    228.374363636364    0.814598736363636    -46.687438221602    -74.0243190502437    
2022-04-22T17:09:08Z    31.6636666666667    -64.1648333333333    355.5     -352.71042418855     1e-12          4.1038e-14    18.7738636363636    36.7932336363636   26.3377209090909    -0.0110818181818182      -0.00702727272727273                      185.911272727273    228.386136363636    0.814021409090909    -46.687438221602    -74.0243190502437    
2022-04-22T17:09:08Z    31.6636666666667    -64.1648333333333    356       -353.251208433329    1e-12          4.0922e-14    18.7706454545455    36.7931690909091   26.3385181818182    -0.0104181818181818      -0.00711818181818182                      185.835454545455    228.400063636364    0.813637081818182    -46.687438221602    -74.0243190502437    
2022-04-22T17:09:08Z    31.6636666666667    -64.1648333333333    356.5     -353.737962607131    1e-12          4.0807e-14    18.7666545454545    36.7929927272727   26.3393945454545    -0.0104181818181818      -0.00720909090909091                      185.856909090909    228.417472727273    0.813667390909091    -46.687438221602    -74.0243190502437    
2022-04-22T17:09:08Z    31.6636666666667    -64.1648333333333    357       -354.206871341706    1e-12          4.0778e-14    18.7621090909091    36.7928981818182   26.3404936363636    -0.0104181818181818      -0.0073                                   185.850681818182    228.437036363636    0.813571418181818    -46.687438221602    -74.0243190502437    
2022-04-22T17:09:08Z    31.6636666666667    -64.1648333333333    357.5     -354.714441542429    1e-12          4.0721e-14    18.7578545454545    36.79276           26.3415145454545    -0.00975454545454545     -0.0073                                   185.770863636364    228.455463636364    0.813155936363637    -46.687438221602    -74.0243190502437    
2022-04-22T17:09:08Z    31.6636666666667    -64.1648333333333    358       -355.210114361789    1e-12          4.0664e-14    18.75385            36.7924845454545   26.3423409090909    -0.00975454545454545     -0.0073                                   185.693727272727    228.472990909091    0.812755781818182    -46.687438221602    -74.0243190502437    
2022-04-22T17:09:08Z    31.6636666666667    -64.1648333333333    358.5     -355.727099838709    1e-12          4.07065e-14   18.7498772727273    36.7921263636364   26.3430963636364    -0.00975454545454545     -0.0073                                   185.626954545455    228.490590909091    0.812399681818182    -46.687438221602    -74.0243190502437    
2022-04-22T17:09:08Z    31.6636666666667    -64.1648333333333    359       -356.210874141607    1e-12          4.0692e-14    18.7460318181818    36.7917354545455   26.3437909090909    -0.00909090909090909     -0.0073                                   185.549681818182    228.507627272727    0.812001372727273    -46.687438221602    -74.0243190502437    
2022-04-22T17:09:08Z    31.6636666666667    -64.1648333333333    359.5     -356.721413416131    1e-12          4.0692e-14    18.7422227272727    36.7913018181818   26.3444563636364    -0.00909090909090909     -0.0073                                   185.461227272727    228.524627272727    0.811553145454545    -46.687438221602    -74.0243190502437    
2022-04-22T17:09:08Z    31.6636666666667    -64.1648333333333    360       -357.211629065589    1e-12          4.075e-14     18.7383909090909    36.7908327272727   26.3450954545455    -0.00909090909090909     -0.0073                                   185.353454545455    228.541736363636    0.811020372727273    -46.687438221602    -74.0243190502437    
2022-04-22T17:09:08Z    31.6636666666667    -64.1648333333333    360.5     -357.698373882359    1e-12          4.1067e-14    18.7348181818182    36.7904336363636   26.3457418181818    -0.00909090909090909     -0.0073                                   185.247409090909    228.557563636364    0.810500218181818    -46.687438221602    -74.0243190502437    
2022-04-22T17:09:08Z    31.6636666666667    -64.1648333333333    361       -358.161325624797    1e-12          4.1213e-14    18.7312636363636    36.7900263636364   26.3463381818182    -0.00909090909090909     -0.0073                                   185.149318181818    228.573490909091    0.810017645454545    -46.687438221602    -74.0243190502437    
2022-04-22T17:09:08Z    31.6636666666667    -64.1648333333333    361.5     -358.665912099325    1e-12          4.1242e-14    18.7281863636364    36.7897763636364   26.3469472727273    -0.00909090909090909     -0.0073                                   185.0335            228.587127272727    0.8094655            -46.687438221602    -74.0243190502437    
2022-04-22T17:09:08Z    31.6636666666667    -64.1648333333333    362       -359.128861667726    1e-12          4.1125e-14    18.72595            36.7896227272727   26.3474581818182    -0.00909090909090909     -0.0073                                   184.920272727273    228.597090909091    0.808937472727273    -46.687438221602    -74.0243190502437    
2022-04-22T17:09:08Z    31.6636666666667    -64.1648333333333    362.5     -359.63344577273     1e-12          4.1067e-14    18.7243409090909    36.7894290909091   26.3477472727273    -0.00842727272727273     -0.0073                                   184.840954545455    228.604472727273    0.8085636            -46.687438221602    -74.0243190502437    
2022-04-22T17:09:08Z    31.6636666666667    -64.1648333333333    363       -360.129106752659    1e-12          4.09075e-14   18.7228             36.7892154545455   26.3479854545455    -0.00842727272727273     -0.0074                                   184.823             228.611609090909    0.8084604            -46.687438221602    -74.0243190502437    
2022-04-22T17:09:08Z    31.6636666666667    -64.1648333333333    363.5     -360.618818634982    1e-12          4.0836e-14    18.7205727272727    36.7888763636364   26.3483272727273    -0.0071                  -0.0075                                   184.813363636364    228.621872727273    0.808382163636364    -46.687438221602    -74.0243190502437    
2022-04-22T17:09:08Z    31.6636666666667    -64.1648333333333    364       -361.117946849967    1e-12          4.0778e-14    18.7178             36.7886263636364   26.3488654545455    -0.00577272727272727     -0.0075                                   184.797454545455    228.634218181818    0.808268463636363    -46.687438221602    -74.0243190502437    
2022-04-22T17:09:08Z    31.6636666666667    -64.1648333333333    364.5     -361.62599566069     1e-12          4.0692e-14    18.7150636363636    36.78843           26.34943            -0.00643636363636364     -0.0075                                   184.816363636364    228.646418181818    0.80831              -46.687438221602    -74.0243190502437    
2022-04-22T17:09:08Z    31.6636666666667    -64.1648333333333    365       -362.13949547436     1e-12          4.0635e-14    18.7126636363636    36.7882581818182   26.3499263636364    -0.00643636363636364     -0.0075                                   184.863636363636    228.656945454545    0.8084801            -46.687438221602    -74.0243190502437    
2022-04-22T17:09:08Z    31.6636666666667    -64.1648333333333    365.5     -362.665385341409    1e-12          4.0692e-14    18.7096909090909    36.7880936363636   26.3506009090909    -0.00643636363636364     -0.0076                                   184.950363636364    228.669972727273    0.808812727272727    -46.687438221602    -74.0243190502437    
2022-04-22T17:09:08Z    31.6636666666667    -64.1648333333333    366       -363.185326031088    1e-12          4.0692e-14    18.7064136363636    36.7880018181818   26.3513636363636    -0.00643636363636364     -0.0077                                   185.066090909091    228.684290909091    0.809268118181818    -46.687438221602    -74.0243190502437    
2022-04-22T17:09:08Z    31.6636666666667    -64.1648333333333    366.5     -363.689900202348    1e-12          4.0692e-14    18.7034409090909    36.7879981818182   26.3521663636364    -0.00643636363636364     -0.0077                                   185.198272727273    228.697072727273    0.8097983            -46.687438221602    -74.0243190502437    
2022-04-22T17:09:08Z    31.6636666666667    -64.1648333333333    367       -364.152838482852    1e-12          4.0778e-14    18.7004590909091    36.7879027272727   26.3528845454545    -0.00643636363636364     -0.0077                                   185.344454545455    228.710163636364    0.810391181818182    -46.687438221602    -74.0243190502437    
2022-04-22T17:09:08Z    31.6636666666667    -64.1648333333333    367.5     -364.580088949472    1e-12          4.1154e-14    18.6974227272727    36.78779           26.3535781818182    -0.00643636363636364     -0.0077                                   185.468772727273    228.723372727273    0.810889236363636    -46.687438221602    -74.0243190502437    
2022-04-22T17:09:08Z    31.6636666666667    -64.1648333333333    368       -365.132241952607    1e-12          4.1242e-14    18.6940954545455    36.7876236363636   26.35433            -0.00643636363636364     -0.0077                                   185.581545454545    228.737972727273    0.811329636363636    -46.687438221602    -74.0243190502437    
2022-04-22T17:09:08Z    31.6636666666667    -64.1648333333333    368.5     -365.625907119187    1e-12          4.1213e-14    18.6907             36.7875281818182   26.3551509090909    -0.00643636363636364     -0.0076                                   185.687136363636    228.752772727273    0.811738727272727    -46.687438221602    -74.0243190502437    
2022-04-22T17:09:08Z    31.6636666666667    -64.1648333333333    369       -366.094788802702    1e-12          4.1183e-14    18.6881090909091    36.78762           26.3558963636364    -0.0071                  -0.0076                                   185.779227272727    228.763909090909    0.812101572727273    -46.687438221602    -74.0243190502437    
2022-04-22T17:09:08Z    31.6636666666667    -64.1648333333333    369.5     -366.599355849811    1e-12          4.1067e-14    18.6861272727273    36.7876254545455   26.3564281818182    -0.00776363636363636     -0.0076                                   185.871136363636    228.772627272727    0.812473063636364    -46.687438221602    -74.0243190502437    
2022-04-22T17:09:08Z    31.6636666666667    -64.1648333333333    370       -367.068235318455    1e-12          4.1009e-14    18.6841727272727    36.7876118181818   26.3569436363636    -0.0071                  -0.0076                                   185.958045454545    228.781218181818    0.812820436363636    -46.687438221602    -74.0243190502437    
2022-04-22T17:09:08Z    31.6636666666667    -64.1648333333333    370.5     -367.617903439106    1e-12          4.0864e-14    18.6819636363636    36.7875827272727   26.3575190909091    -0.0071                  -0.0076                                   186.068227272727    228.791127272727    0.813265390909091    -46.687438221602    -74.0243190502437    
2022-04-22T17:09:08Z    31.6636666666667    -64.1648333333333    371       -368.119988554692    1e-12          4.075e-14     18.6801545454545    36.7874318181818   26.3578836363636    -0.0071                  -0.0075                                   186.150227272727    228.799409090909    0.813596054545455    -46.687438221602    -74.0243190502437    
2022-04-22T17:09:08Z    31.6636666666667    -64.1648333333333    371.5     -368.576969202204    1e-12          4.0692e-14    18.6780909090909    36.7872918181818   26.3583454545455    -0.0071                  -0.0074                                   186.216227272727    228.808627272727    0.813854281818182    -46.687438221602    -74.0243190502437    
2022-04-22T17:09:08Z    31.6636666666667    -64.1648333333333    372       -369.051791838392    1e-12          4.0692e-14    18.6758636363636    36.7870818181818   26.3587745454545    -0.00776363636363636     -0.0075                                   186.246681818182    228.8187            0.8139513            -46.687438221602    -74.0243190502437    
2022-04-22T17:09:08Z    31.6636666666667    -64.1648333333333    372.5     -369.577664063974    1e-12          4.0664e-14    18.6734909090909    36.7868636363636   26.3592263636364    -0.00842727272727273     -0.0075                                   186.228045454545    228.8293            0.813832509090909    -46.687438221602    -74.0243190502437    
2022-04-22T17:09:08Z    31.6636666666667    -64.1648333333333    373       -370.05496257888     1e-12          4.0721e-14    18.6710727272727    36.7866381818182   26.3597045454546    -0.00909090909090909     -0.0075                                   186.285863636364    228.8402            0.814045354545454    -46.687438221602    -74.0243190502437    
2022-04-22T17:09:08Z    31.6636666666667    -64.1648333333333    373.5     -370.572406447067    1e-12          4.0721e-14    18.6688545454545    36.7863963636364   26.3601036363636    -0.00975454545454545     -0.0075                                   186.359727272727    228.850254545455    0.814333745454546    -46.687438221602    -74.0243190502437    
2022-04-22T17:09:08Z    31.6636666666667    -64.1648333333333    374       -371.125534662577    1e-12          4.0721e-14    18.6665818181818    36.7861072727273   26.3604754545455    -0.0104181818181818      -0.0075                                   186.408727272727    228.860645454545    0.814510363636364    -46.687438221602    -74.0243190502437    
2022-04-22T17:09:08Z    31.6636666666667    -64.1648333333333    374.5     -371.666766210635    1e-12          4.075e-14     18.6642545454545    36.7857754545455   26.3608318181818    -0.00975454545454545     -0.0074                                   186.449             228.871272727273    0.814648990909091    -46.687438221602    -74.0243190502437    
2022-04-22T17:09:08Z    31.6636666666667    -64.1648333333333    375       -371.955224202307    1e-12          4.1213e-14    18.6618772727273    36.7854663636364   26.3612190909091    -0.00909090909090909     -0.0074                                   186.464454545455    228.882072727273    0.814678163636364    -46.687438221602    -74.0243190502437    
2022-04-22T17:09:08Z    31.6636666666667    -64.1648333333333    375.5     -372.501409877804    1e-12          4.1242e-14    18.6594227272727    36.7851227272727   26.3615918181818    -0.00842727272727272     -0.0074                                   186.465727272727    228.893263636364    0.814643718181818    -46.687438221602    -74.0243190502437    
2022-04-22T17:09:08Z    31.6636666666667    -64.1648333333333    376       -373.012900050905    1e-12          4.1125e-14    18.6568272727273    36.7847254545455   26.3619672727273    -0.00776363636363636     -0.0074                                   186.439863636364    228.9051            0.814489309090909    -46.687438221602    -74.0243190502437    
2022-04-22T17:09:08Z    31.6636666666667    -64.1648333333333    376.5     -373.56602171647     1e-12          4.1038e-14    18.6542363636364    36.7844163636364   26.3623990909091    -0.00776363636363636     -0.0074                                   186.449409090909    228.916836363636    0.814489109090909    -46.687438221602    -74.0243190502437    
2022-04-22T17:09:08Z    31.6636666666667    -64.1648333333333    377       -374.022990265686    1e-12          4.09365e-14   18.6521090909091    36.7841336363636   26.3627436363636    -0.00776363636363636     -0.0074                                   186.4615            228.926645454545    0.814504209090909    -46.687438221602    -74.0243190502437    
2022-04-22T17:09:08Z    31.6636666666667    -64.1648333333333    377.5     -374.557771091992    1e-12          4.0836e-14    18.6501545454545    36.7838372727273   26.36303            -0.0071                  -0.0073                                   186.509227272727    228.935672727273    0.814682181818182    -46.687438221602    -74.0243190502437    
2022-04-22T17:09:08Z    31.6636666666667    -64.1648333333333    378       -375.044474933448    1e-12          4.0807e-14    18.6482636363636    36.7834990909091   26.3632545454545    -0.00643636363636364     -0.0073                                   186.589409090909    228.944527272727    0.814998690909091    -46.687438221602    -74.0243190502437    
2022-04-22T17:09:08Z    31.6636666666667    -64.1648333333333    378.5     -375.552985056326    1e-12          4.07925e-14   18.6458818181818    36.7830181818182   26.3634881818182    -0.00643636363636364     -0.0073                                   186.590954545455    228.955718181818    0.814965645454546    -46.687438221602    -74.0243190502437    
2022-04-22T17:09:08Z    31.6636666666667    -64.1648333333333    379       -376.057528947368    1e-12          4.075e-14     18.6443181818182    36.7827390909091   26.3636918181818    -0.00577272727272727     -0.0073                                   186.5615            228.963181818182    0.814810627272727    -46.687438221602    -74.0243190502437    
2022-04-22T17:09:08Z    31.6636666666667    -64.1648333333333    379.5     -376.516970104803    1e-12          4.075e-14     18.6416318181818    36.78226           26.3640563636364    -0.00444545454545454     -0.0073                                   186.542727272727    228.975654545455    0.814683090909091    -46.687438221602    -74.0243190502437    
2022-04-22T17:09:08Z    31.6636666666667    -64.1648333333333    380       -376.97987957221     1e-12          4.075e-14     18.6387818181818    36.7818590909091   26.3644736363636    -0.00577272727272727     -0.0073                                   186.503             228.988690909091    0.8144618            -46.687438221602    -74.0243190502437    
2022-04-22T17:09:08Z    31.6636666666667    -64.1648333333333    380.5     -377.485411207653    1e-12          4.075e-14     18.6358681818182    36.7812945454545   26.3648218181818    -0.0071                  -0.0073                                   186.451909090909    229.002181818182    0.8141896            -46.687438221602    -74.0243190502437    
2022-04-22T17:09:08Z    31.6636666666667    -64.1648333333333    381       -377.995897777419    1e-12          4.0692e-14    18.6328772727273    36.7808172727273   26.3652536363636    -0.00842727272727273     -0.0073                                   186.384636363636    229.015927272727    0.813847272727273    -46.687438221602    -74.0243190502437    
2022-04-22T17:09:08Z    31.6636666666667    -64.1648333333333    381.5     -378.411224752884    1e-12          4.09365e-14   18.6300272727273    36.7804254545455   26.36569            -0.00942272727272727     -0.0073                                   186.317636363636    229.028927272727    0.813508372727273    -46.687438221602    -74.0243190502437    
2022-04-22T17:09:08Z    31.6636666666667    -64.1648333333333    382       -379.030248726139    1e-12          4.1198e-14    18.6274272727273    36.7800836363636   26.3661063636364    -0.00875909090909091     -0.0074                                   186.241863636364    229.040754545455    0.813134845454545    -46.687438221602    -74.0243190502437    
2022-04-22T17:09:08Z    31.6636666666667    -64.1648333333333    382.5     -379.490178856183    1e-12          4.11395e-14   18.6249227272727    36.7796018181818   26.3664009090909    -0.00809545454545454     -0.0075                                   186.183681818182    229.052336363636    0.812839972727273    -46.687438221602    -74.0243190502437    
2022-04-22T17:09:08Z    31.6636666666667    -64.1648333333333    383       -379.974393003247    1e-12          4.1067e-14    18.6222             36.7790963636364   26.3667181818182    -0.00743181818181818     -0.0076                                   186.107363636364    229.064972727273    0.8124623            -46.687438221602    -74.0243190502437    
2022-04-22T17:09:08Z    31.6636666666667    -64.1648333333333    383.5     -380.461084057415    1e-12          4.09075e-14   18.6195             36.7786927272727   26.3671418181818    -0.00676818181818181     -0.0077                                   186.064636363636    229.077436363636    0.812233263636364    -46.687438221602    -74.0243190502437    
2022-04-22T17:09:08Z    31.6636666666667    -64.1648333333333    384       -380.992874494244    1e-12          4.0836e-14    18.6172409090909    36.77823           26.3674272727273    -0.00676818181818182     -0.0078                                   186.044636363636    229.087990909091    0.812111472727273    -46.687438221602    -74.0243190502437    
2022-04-22T17:09:08Z    31.6636666666667    -64.1648333333333    384.5     -381.477085103434    1e-12          4.0807e-14    18.6135954545455    36.7773963636364   26.3677590909091    -0.00743181818181818     -0.0079                                   186.037272727273    229.104836363636    0.812016745454546    -46.687438221602    -74.0243190502437    
2022-04-22T17:09:08Z    31.6636666666667    -64.1648333333333    385       -381.937009784385    1e-12          4.075e-14     18.61               36.7764936363636   26.36795            -0.00875909090909091     -0.008                                    186.051045454545    229.121718181818    0.812027118181818    -46.687438221602    -74.0243190502437    
2022-04-22T17:09:08Z    31.6636666666667    -64.1648333333333    385.5     -382.445007284607    1e-12          4.0678e-14    18.6049181818182    36.7755209090909   26.3685454545455    -0.00875909090909091     -0.0081                                   186.103863636364    229.144963636364    0.812185718181818    -46.687438221602    -74.0243190502437    
2022-04-22T17:09:08Z    31.6636666666667    -64.1648333333333    386       -383.022388314779    1e-12          4.0692e-14    18.6005090909091    36.7748554545455   26.3690981818182    -0.00875909090909091     -0.0082                                   186.072409090909    229.165109090909    0.811999854545455    -46.687438221602    -74.0243190502437    
2022-04-22T17:09:08Z    31.6636666666667    -64.1648333333333    386.5     -383.458024927723    1e-12          4.0721e-14    18.5965090909091    36.7742572727273   26.3695845454545    -0.00875909090909091     -0.0083                                   186.035318181818    229.1833            0.811772909090909    -46.687438221602    -74.0243190502437    
2022-04-22T17:09:08Z    31.6636666666667    -64.1648333333333    387       -383.942229754378    1e-12          4.0692e-14    18.5917             36.7731945454545   26.3700154545455    -0.00909090909090909     -0.0084                                   186.014454545455    229.205545454546    0.811603472727273    -46.687438221602    -74.0243190502437    
2022-04-22T17:09:08Z    31.6636666666667    -64.1648333333333    387.5     -384.452700334093    1e-12          4.0692e-14    18.5857136363636    36.7721472727273   26.3707636363636    -0.0104181818181818      -0.0084                                   186.001227272727    229.232736363636    0.811449645454545    -46.687438221602    -74.0243190502437    
2022-04-22T17:09:08Z    31.6636666666667    -64.1648333333333    388       -385.072201765581    1e-12          4.0721e-14    18.5796454545455    36.7712272727273   26.3716145454545    -0.0117454545454545      -0.0084                                   185.994227272727    229.260090909091    0.811322236363636    -46.687438221602    -74.0243190502437    
2022-04-22T17:09:08Z    31.6636666666667    -64.1648333333333    388.5     -385.258547432369    1e-12          4.10525e-14   18.5738045454545    36.7702727272727   26.3724090909091    -0.0130727272727273      -0.0084                                   185.999545454545    229.286563636364    0.811249527272727    -46.687438221602    -74.0243190502437    
2022-04-22T17:09:08Z    31.6636666666667    -64.1648333333333    389       -385.878046444968    1e-12          4.1213e-14    18.5677136363636    36.7690909090909   26.3730709090909    -0.0144                  -0.0084                                   185.993090909091    229.314336363636    0.811123054545455    -46.687438221602    -74.0243190502437    
2022-04-22T17:09:08Z    31.6636666666667    -64.1648333333333    389.5     -386.431133589231    1e-12          4.1154e-14    18.5613227272727    36.7681409090909   26.3739645454545    -0.0144                  -0.0084                                   185.965136363636    229.343090909091    0.810897245454546    -46.687438221602    -74.0243190502437    
2022-04-22T17:09:08Z    31.6636666666667    -64.1648333333333    390       -386.939120021516    1e-12          4.1125e-14    18.5557227272727    36.7676663636364   26.3750336363636    -0.0144                  -0.0084                                   185.937772727273    229.367836363636    0.810693109090909    -46.687438221602    -74.0243190502437    
2022-04-22T17:09:08Z    31.6636666666667    -64.1648333333333    390.5     -387.399528116005    1e-12          4.1038e-14    18.5511681818182    36.7672590909091   26.37597            -0.0137363636363636      -0.0084                                   185.885954545455    229.388018181818    0.810387254545455    -46.687438221602    -74.0243190502437    
2022-04-22T17:09:08Z    31.6636666666667    -64.1648333333333    391       -387.813844958111    1e-12          4.0922e-14    18.5477090909091    36.7668209090909   26.3765063636364    -0.0130727272727273      -0.0084                                   185.821727272727    229.403609090909    0.810045845454545    -46.687438221602    -74.0243190502437    
2022-04-22T17:09:08Z    31.6636666666667    -64.1648333333333    391.5     -388.41797292333     1e-12          4.0893e-14    18.5430363636364    36.7662327272727   26.3773272727273    -0.0124090909090909      -0.0084                                   185.840272727273    229.4244            0.810031963636364    -46.687438221602    -74.0243190502437    
2022-04-22T17:09:08Z    31.6636666666667    -64.1648333333333    392       -388.923476509267    1e-12          4.0836e-14    18.5385181818182    36.7655827272727   26.3780945454545    -0.0117454545454545      -0.0083                                   185.879590909091    229.4447            0.810136209090909    -46.687438221602    -74.0243190502437    
2022-04-22T17:09:08Z    31.6636666666667    -64.1648333333333    392.5     -389.431456810318    1e-12          4.0778e-14    18.5353909090909    36.7653836363636   26.37877            -0.0117454545454545      -0.0083                                   185.910181818182    229.458572727273    0.810220754545455    -46.687438221602    -74.0243190502437    
2022-04-22T17:09:08Z    31.6636666666667    -64.1648333333333    393       -389.936957911307    1e-12          4.075e-14     18.5325090909091    36.7649727272727   26.3792027272727    -0.0117454545454545      -0.0083                                   185.949363636364    229.471772727273    0.810341581818182    -46.687438221602    -74.0243190502437    
2022-04-22T17:09:08Z    31.6636666666667    -64.1648333333333    393.5     -390.42362544596     1e-12          4.075e-14     18.5290409090909    36.7645136363636   26.3797581818182    -0.0117454545454545      -0.0083                                   185.995681818182    229.487490909091    0.810490490909091    -46.687438221602    -74.0243190502437    
2022-04-22T17:09:08Z    31.6636666666667    -64.1648333333333    394       -390.952912257796    1e-12          4.075e-14     18.5252727272727    36.7640636363636   26.3803836363636    -0.0110818181818182      -0.0083                                   186.022318181818    229.504418181818    0.810547609090909    -46.687438221602    -74.0243190502437    
2022-04-22T17:09:08Z    31.6636666666667    -64.1648333333333    394.5     -391.367221959108    1e-12          4.0778e-14    18.5216181818182    36.7637727272727   26.3811081818182    -0.0104181818181818      -0.0083                                   186.023863636364    229.520672727273    0.810496963636364    -46.687438221602    -74.0243190502437    
2022-04-22T17:09:08Z    31.6636666666667    -64.1648333333333    395       -391.875196229328    1e-12          4.10815e-14   18.5182045454545    36.7633663636364   26.3816827272727    -0.00975454545454545     -0.0083                                   186.029545454545    229.536118181818    0.810466454545455    -46.687438221602    -74.0243190502437    
2022-04-22T17:09:08Z    31.6636666666667    -64.1648333333333    395.5     -392.356903365284    1e-12          4.1096e-14    18.5140681818182    36.7624172727273   26.3820109090909    -0.00909090909090909     -0.0083                                   186.017181818182    229.555490909091    0.810342409090909    -46.687438221602    -74.0243190502437    
2022-04-22T17:09:08Z    31.6636666666667    -64.1648333333333    396       -392.846538675058    1e-12          4.1125e-14    18.5094636363636    36.7616154545454   26.3825463636364    -0.00909090909090909     -0.0083                                   186.001409090909    229.576509090909    0.810199209090909    -46.687438221602    -74.0243190502437    
2022-04-22T17:09:08Z    31.6636666666667    -64.1648333333333    396.5     -393.330721445159    1e-12          4.1125e-14    18.5048545454545    36.7607363636364   26.3831063636364    -0.00909090909090909     -0.0083                                   185.985636363636    229.597727272727    0.810052463636364    -46.687438221602    -74.0243190502437    
2022-04-22T17:09:08Z    31.6636666666667    -64.1648333333333    397       -393.8629742696      1e-12          4.1038e-14    18.5004181818182    36.7598590909091   26.3835709090909    -0.00909090909090909     -0.0083                                   185.99              229.618227272727    0.810000118181818    -46.687438221602    -74.0243190502437    
2022-04-22T17:09:08Z    31.6636666666667    -64.1648333333333    397.5     -394.368464505788    1e-12          4.1038e-14    18.4949909090909    36.7586809090909   26.3840572727273    -0.00975454545454545     -0.0084                                   185.992954545455    229.643427272727    0.809916672727273    -46.687438221602    -74.0243190502437    
2022-04-22T17:09:08Z    31.6636666666667    -64.1648333333333    398       -394.872962349057    1e-12          4.1038e-14    18.4883545454545    36.75753           26.3848436363636    -0.00975454545454545     -0.0084                                   185.976818181818    229.673618181818    0.809739881818182    -46.687438221602    -74.0243190502437    
2022-04-22T17:09:08Z    31.6636666666667    -64.1648333333333    398.5     -395.377954529293    1e-12          4.098e-14     18.4823             36.7564981818182   26.3855981818182    -0.00975454545454545     -0.0084                                   185.921636363636    229.701209090909    0.809405872727273    -46.687438221602    -74.0243190502437    
2022-04-22T17:09:08Z    31.6636666666667    -64.1648333333333    399       -395.847264120362    1e-12          4.0893e-14    18.4765318181818    36.7554254545455   26.3862536363636    -0.00909090909090909     -0.0084                                   185.808409090909    229.727645454545    0.808817436363636    -46.687438221602    -74.0243190502437    
2022-04-22T17:09:08Z    31.6636666666667    -64.1648333333333    399.5     -396.346802612533    1e-12          4.0893e-14    18.4711             36.7543981818182   26.3868627272727    -0.00975454545454545     -0.0084                                   185.6655            229.752572727273    0.808107063636364    -46.687438221602    -74.0243190502437    
2022-04-22T17:09:08Z    31.6636666666667    -64.1648333333333    400       -396.857738048215    1e-12          4.0864e-14    18.4659             36.7533736363636   26.3874163636364    -0.0104181818181818      -0.0084                                   185.556590909091    229.7765            0.807549563636364    -46.687438221602    -74.0243190502437    
2022-04-22T17:09:08Z    31.6636666666667    -64.1648333333333    400.5     -397.362725376269    1e-12          4.0807e-14    18.4605045454545    36.7522718181818   26.3879836363636    -0.0104181818181818      -0.0084                                   185.433590909091    229.8014            0.806928681818182    -46.687438221602    -74.0243190502437    
2022-04-22T17:09:08Z    31.6636666666667    -64.1648333333333    401       -397.894967790291    1e-12          4.08215e-14   18.4541136363636    36.7511781818182   26.3887881818182    -0.00975454545454545     -0.0084                                   185.314             229.830463636364    0.806307345454545    -46.687438221602    -74.0243190502437    
2022-04-22T17:09:08Z    31.6636666666667    -64.1648333333333    401.5     -398.372696313716    1e-12          4.0778e-14    18.4480363636364    36.7500781818182   26.3895             -0.00975454545454545     -0.0084                                   185.212318181818    229.8583            0.8057685            -46.687438221602    -74.0243190502437    
2022-04-22T17:09:08Z    31.6636666666667    -64.1648333333333    402       -398.836547844233    1e-12          4.0778e-14    18.4425090909091    36.7490927272727   26.3901427272727    -0.00975454545454545     -0.0084                                   185.112454545455    229.883645454545    0.805245436363636    -46.687438221602    -74.0243190502437    
2022-04-22T17:09:08Z    31.6636666666667    -64.1648333333333    402.5     -399.341034755957    1e-12          4.0807e-14    18.4374636363636    36.7480954545455   26.3906863636364    -0.00975454545454545     -0.0084                                   185.006272727273    229.906945454545    0.804699981818182    -46.687438221602    -74.0243190502437    
2022-04-22T17:09:08Z    31.6636666666667    -64.1648333333333    403       -399.79249498176     1e-12          4.0922e-14    18.4329818181818    36.7473472727273   26.3912663636364    -0.00842727272727272     -0.0084                                   184.903909090909    229.927454545455    0.804186454545454    -46.687438221602    -74.0243190502437    
2022-04-22T17:09:08Z    31.6636666666667    -64.1648333333333    403.5     -400.31531541625     1e-12          4.1038e-14    18.4291090909091    36.7465354545455   26.3916645454545    -0.0071                  -0.0084                                   184.816818181818    229.945445454545    0.803744618181818    -46.687438221602    -74.0243190502437    
2022-04-22T17:09:08Z    31.6636666666667    -64.1648333333333    404       -400.832683336338    1e-12          4.1067e-14    18.4254863636364    36.7457927272727   26.3920363636364    -0.00577272727272727     -0.0084                                   184.753             229.962263636364    0.803406936363636    -46.687438221602    -74.0243190502437    
2022-04-22T17:09:08Z    31.6636666666667    -64.1648333333333    404.5     -401.307927244713    1e-12          4.1096e-14    18.4221863636364    36.74503           26.3923109090909    -0.00577272727272727     -0.0084                                   184.729272727273    229.977754545455    0.803249990909091    -46.687438221602    -74.0243190502437    
2022-04-22T17:09:08Z    31.6636666666667    -64.1648333333333    405       -401.789116782256    1e-12          4.1038e-14    18.41865            36.7442118181818   26.39259            -0.00510909090909091     -0.0084                                   184.746181818182    229.994427272727    0.803267236363636    -46.687438221602    -74.0243190502437    
2022-04-22T17:09:08Z    31.6636666666667    -64.1648333333333    405.5     -402.251969509975    1e-12          4.1038e-14    18.4148409090909    36.7434163636364   26.3929536363636    -0.00444545454545455     -0.0084                                   184.752409090909    230.012181818182    0.803233254545454    -46.687438221602    -74.0243190502437    
2022-04-22T17:09:08Z    31.6636666666667    -64.1648333333333    406       -402.757439182238    1e-12          4.1009e-14    18.4107181818182    36.7425481818182   26.3933336363636    -0.00444545454545455     -0.0084                                   184.771818181818    230.031345454545    0.803250427272727    -46.687438221602    -74.0243190502437    
2022-04-22T17:09:08Z    31.6636666666667    -64.1648333333333    406.5     -403.274800975575    1e-12          4.0893e-14    18.4076090909091    36.7419054545455   26.3936263636364    -0.00510909090909091     -0.0084                                   184.785954545455    230.045918181818    0.803260554545454    -46.687438221602    -74.0243190502437    
2022-04-22T17:09:08Z    31.6636666666667    -64.1648333333333    407       -403.773330364648    1e-12          4.0893e-14    18.4040909090909    36.7412145454545   26.3939936363636    -0.00510909090909091     -0.0084                                   184.770045454545    230.062209090909    0.803133436363636    -46.687438221602    -74.0243190502437    
2022-04-22T17:09:08Z    31.6636666666667    -64.1648333333333    407.5     -404.35412053816     1e-12          4.08215e-14   18.4004181818182    36.7404672727273   26.3943681818182    -0.00510909090909091     -0.0084                                   184.738727272727    230.079363636364    0.802940827272727    -46.687438221602    -74.0243190502437    
2022-04-22T17:09:08Z    31.6636666666667    -64.1648333333333    408       -404.790207648888    1e-12          4.07355e-14   18.3966318181818    36.7395890909091   26.3947218181818    -0.00444545454545455     -0.0084                                   184.689318181818    230.0972            0.802666345454545    -46.687438221602    -74.0243190502437    
2022-04-22T17:09:08Z    31.6636666666667    -64.1648333333333    408.5     -405.27386680823     1e-12          4.075e-14     18.39185            36.7385272727273   26.3951681818182    -0.00444545454545455     -0.0084                                   184.649318181818    230.119536363636    0.802414727272727    -46.687438221602    -74.0243190502437    
2022-04-22T17:09:08Z    31.6636666666667    -64.1648333333333    409       -405.770409174104    1e-12          4.0692e-14    18.3863318181818    36.73747           26.3957709090909    -0.00577272727272727     -0.0084                                   184.617045454545    230.145054545455    0.8021856            -46.687438221602    -74.0243190502437    
2022-04-22T17:09:08Z    31.6636666666667    -64.1648333333333    409.5     -406.323442963794    1e-12          4.0692e-14    18.3808863636364    36.7364709090909   26.3964045454545    -0.0071                  -0.0084                                   184.5855            230.170109090909    0.801962172727273    -46.687438221602    -74.0243190502437    
2022-04-22T17:09:08Z    31.6636666666667    -64.1648333333333    410       -406.726819720988    1e-12          4.0893e-14    18.3757363636364    36.7356227272727   26.3970772727273    -0.00776363636363636     -0.0084                                   184.539363636364    230.193709090909    0.801679181818182    -46.687438221602    -74.0243190502437    
2022-04-22T17:09:08Z    31.6636666666667    -64.1648333333333    410.5     -407.207996613067    1e-12          4.1096e-14    18.3707318181818    36.7347727272727   26.3977209090909    -0.0071                  -0.0084                                   184.460136363636    230.216618181818    0.801253954545455    -46.687438221602    -74.0243190502437    
2022-04-22T17:09:08Z    31.6636666666667    -64.1648333333333    411       -407.742691351332    1e-12          4.1183e-14    18.3657045454545    36.7339154545454   26.3983654545455    -0.00643636363636364     -0.0084                                   184.332409090909    230.239663636364    0.800617354545454    -46.687438221602    -74.0243190502437    
2022-04-22T17:09:08Z    31.6636666666667    -64.1648333333333    411.5     -408.24814756666     1e-12          4.1154e-14    18.3611818181818    36.7332345454545   26.3990118181818    -0.00577272727272727     -0.0084                                   184.203772727273    230.260327272727    0.799985363636364    -46.687438221602    -74.0243190502437    
2022-04-22T17:09:08Z    31.6636666666667    -64.1648333333333    412       -408.753602543288    1e-12          4.1067e-14    18.3569545454545    36.7325345454545   26.39955            -0.00643636363636364     -0.0084                                   184.062409090909    230.279854545455    0.799304981818182    -46.687438221602    -74.0243190502437    
2022-04-22T17:09:08Z    31.6636666666667    -64.1648333333333    412.5     -409.192653604573    1e-12          4.1067e-14    18.3529727272727    36.7318527272727   26.4000663636364    -0.0071                  -0.0084                                   183.944318181818    230.298209090909    0.798729236363636    -46.687438221602    -74.0243190502437    
2022-04-22T17:09:08Z    31.6636666666667    -64.1648333333333    413       -409.724865486972    1e-12          4.098e-14     18.3491272727273    36.7312709090909   26.4006118181818    -0.00776363636363636     -0.0084                                   183.858818181818    230.315754545455    0.798293672727273    -46.687438221602    -74.0243190502437    
2022-04-22T17:09:08Z    31.6636666666667    -64.1648333333333    413.5     -410.217928348267    1e-12          4.0864e-14    18.3453772727273    36.7308318181818   26.4011845454545    -0.00842727272727273     -0.0084                                   183.780136363636    230.332763636364    0.797891281818182    -46.687438221602    -74.0243190502437    
2022-04-22T17:09:08Z    31.6636666666667    -64.1648333333333    414       -410.726351724262    1e-12          4.0836e-14    18.3424863636364    36.7305727272727   26.4017009090909    -0.00975454545454545     -0.0083                                   183.618909090909    230.345818181818    0.7971461            -46.687438221602    -74.0243190502437    
2022-04-22T17:09:08Z    31.6636666666667    -64.1648333333333    414.5     -411.291760669476    1e-12          4.075e-14     18.3401909090909    36.7303209090909   26.4020927272727    -0.00975454545454545     -0.0083                                   183.420636363636    230.3563            0.796249181818182    -46.687438221602    -74.0243190502437    
2022-04-22T17:09:08Z    31.6636666666667    -64.1648333333333    415       -411.754592052403    1e-12          4.0692e-14    18.3376             36.7299554545455   26.4024754545455    -0.00975454545454545     -0.0083                                   183.259272727273    230.368263636364    0.795507509090909    -46.687438221602    -74.0243190502437    
2022-04-22T17:09:08Z    31.6636666666667    -64.1648333333333    415.5     -412.274904507285    1e-12          4.07065e-14   18.3346863636364    36.7294963636364   26.4028727272727    -0.00909090909090909     -0.0083                                   183.143045454545    230.381727272727    0.794956172727273    -46.687438221602    -74.0243190502437    
2022-04-22T17:09:08Z    31.6636666666667    -64.1648333333333    416       -412.699082055075    1e-12          4.0692e-14    18.3318090909091    36.7290945454545   26.4032990909091    -0.00975454545454545     -0.0083                                   183.082136363636    230.394936363636    0.794646227272727    -46.687438221602    -74.0243190502437    
2022-04-22T17:09:08Z    31.6636666666667    -64.1648333333333    416.5     -413.18668694333     1e-12          4.0778e-14    18.3292545454545    36.7287336363636   26.4036836363636    -0.0104181818181818      -0.0083                                   183.070409090909    230.406736363636    0.794554436363636    -46.687438221602    -74.0243190502437    
2022-04-22T17:09:08Z    31.6636666666667    -64.1648333333333    417       -413.670821956165    1e-12          4.09075e-14   18.3268318181818    36.7283527272727   26.4040090909091    -0.0110818181818182      -0.0083                                   183.071954545455    230.417981818182    0.794522272727273    -46.687438221602    -74.0243190502437    
2022-04-22T17:09:08Z    31.6636666666667    -64.1648333333333    417.5     -414.202526758531    1e-12          4.1038e-14    18.3247954545455    36.7280372727273   26.4043309090909    -0.0104181818181818      -0.0083                                   183.094227272727    230.427427272727    0.794584490909091    -46.687438221602    -74.0243190502437    
2022-04-22T17:09:08Z    31.6636666666667    -64.1648333333333    418       -414.70796714426     1e-12          4.1067e-14    18.3233136363636    36.7278427272727   26.4045745454545    -0.00975454545454545     -0.0083                                   183.098545454545    230.434454545455    0.794578454545455    -46.687438221602    -74.0243190502437    
2022-04-22T17:09:08Z    31.6636666666667    -64.1648333333333    418.5     -415.195567282524    1e-12          4.1096e-14    18.32175            36.7273554545455   26.4046172727273    -0.00909090909090909     -0.0083                                   183.079863636364    230.442254545455    0.794469127272727    -46.687438221602    -74.0243190502437    
2022-04-22T17:09:08Z    31.6636666666667    -64.1648333333333    419       -415.679697578135    1e-12          4.1038e-14    18.3185227272727    36.7264618181818   26.4047463636364    -0.00909090909090909     -0.0083                                   183.083272727273    230.457754545455    0.794430509090909    -46.687438221602    -74.0243190502437    
2022-04-22T17:09:08Z    31.6636666666667    -64.1648333333333    419.5     -416.115760747497    1e-12          4.1009e-14    18.3145681818182    36.7256218181818   26.4051109090909    -0.00842727272727273     -0.0084                                   183.147590909091    230.476263636364    0.794645863636363    -46.687438221602    -74.0243190502437    
2022-04-22T17:09:08Z    31.6636666666667    -64.1648333333333    420       -416.602862036326    1e-12          4.0922e-14    18.3104454545455    36.7248009090909   26.4055481818182    -0.00842727272727273     -0.0084                                   183.236409090909    230.495463636364    0.794964745454545    -46.687438221602    -74.0243190502437    
2022-04-22T17:09:08Z    31.6636666666667    -64.1648333333333    420.5     -417.15685782995     1e-12          4.0864e-14    18.3055909090909    36.7238018181818   26.4060245454545    -0.00842727272727273     -0.0084                                   183.262954545455    230.518027272727    0.795009181818182    -46.687438221602    -74.0243190502437    
2022-04-22T17:09:08Z    31.6636666666667    -64.1648333333333    421       -417.643461136956    1e-12          4.0836e-14    18.2999181818182    36.7227218181818   26.4066472727273    -0.00842727272727273     -0.0084                                   183.264363636364    230.5442            0.794921772727273    -46.687438221602    -74.0243190502437    
2022-04-22T17:09:08Z    31.6636666666667    -64.1648333333333    421.5     -418.127585686417    1e-12          4.075e-14     18.2937681818182    36.7215590909091   26.4073309090909    -0.00842727272727273     -0.0084                                   183.233             230.5726            0.794688272727273    -46.687438221602    -74.0243190502437    
2022-04-22T17:09:08Z    31.6636666666667    -64.1648333333333    422       -418.636485098424    1e-12          4.075e-14     18.2870681818182    36.7203            26.4080418181818    -0.00842727272727273     -0.0084                                   183.117045454545    230.603463636364    0.794079772727273    -46.687438221602    -74.0243190502437    
2022-04-22T17:09:08Z    31.6636666666667    -64.1648333333333    422.5     -419.14141909632     1e-12          4.075e-14     18.2803590909091    36.7190436363636   26.4087872727273    -0.00842727272727273     -0.0084                                   182.973181818182    230.634354545455    0.793350209090909    -46.687438221602    -74.0243190502437    
2022-04-22T17:09:08Z    31.6636666666667    -64.1648333333333    423       -419.647342904202    1e-12          4.0721e-14    18.2734863636364    36.7177236363636   26.40952            -0.00909090909090909     -0.0084                                   182.857090909091    230.666045454545    0.792739054545455    -46.687438221602    -74.0243190502437    
2022-04-22T17:09:08Z    31.6636666666667    -64.1648333333333    423.5     -420.170608528332    1e-12          4.075e-14     18.2656863636364    36.7160554545455   26.4102463636364    -0.00975454545454545     -0.0084                                   182.760318181818    230.702227272727    0.792191890909091    -46.687438221602    -74.0243190502437    
2022-04-22T17:09:08Z    31.6636666666667    -64.1648333333333    424       -420.642834793669    1e-12          4.08215e-14   18.2572             36.71463           26.4112954545455    -0.0100863636363636      -0.0084                                   182.669636363636    230.740981818182    0.7916672            -46.687438221602    -74.0243190502437    
2022-04-22T17:09:08Z    31.6636666666667    -64.1648333333333    424.5     -421.102672133342    1e-12          4.0951e-14    18.2502136363636    36.7135545454545   26.4122681818182    -0.00942272727272727     -0.0084                                   182.553272727273    230.772709090909    0.791053972727273    -46.687438221602    -74.0243190502437    
2022-04-22T17:09:08Z    31.6636666666667    -64.1648333333333    425       -421.589761647568    1e-12          4.1038e-14    18.24385            36.7123363636364   26.4129681818182    -0.00875909090909091     -0.0084                                   182.448636363636    230.802118181818    0.790499072727273    -46.687438221602    -74.0243190502437    
2022-04-22T17:09:08Z    31.6636666666667    -64.1648333333333    425.5     -422.095183934437    1e-12          4.1067e-14    18.2374636363636    36.71111           26.4136427272727    -0.00776363636363636     -0.0084                                   182.354             230.831627272727    0.789989781818182    -46.687438221602    -74.0243190502437    
2022-04-22T17:09:08Z    31.6636666666667    -64.1648333333333    426       -422.606551105757    1e-12          4.1038e-14    18.2318409090909    36.7100127272727   26.4142363636364    -0.0071                  -0.0084                                   182.267090909091    230.857718181818    0.789514054545455    -46.687438221602    -74.0243190502437    
2022-04-22T17:09:08Z    31.6636666666667    -64.1648333333333    426.5     -423.11197090175     1e-12          4.09945e-14   18.2267590909091    36.7088763636364   26.41466            -0.0071                  -0.0084                                   182.171681818182    230.881572727273    0.789022545454545    -46.687438221602    -74.0243190502437    
2022-04-22T17:09:08Z    31.6636666666667    -64.1648333333333    427       -423.551486912504    1e-12          4.0922e-14    18.2214681818182    36.7076654545455   26.4150736363636    -0.0071                  -0.0084                                   182.092318181818    230.906354545455    0.788593090909091    -46.687438221602    -74.0243190502437    
2022-04-22T17:09:08Z    31.6636666666667    -64.1648333333333    427.5     -424.081184223355    1e-12          4.0864e-14    18.2160954545455    36.7064672727273   26.4155590909091    -0.0071                  -0.0084                                   182.080136363636    230.931509090909    0.788454254545455    -46.687438221602    -74.0243190502437    
2022-04-22T17:09:08Z    31.6636666666667    -64.1648333333333    428       -424.616330730804    1e-12          4.07925e-14   18.2103136363636    36.7051954545455   26.4160545454545    -0.0071                  -0.0084                                   182.093681818182    230.958581818182    0.788422454545455    -46.687438221602    -74.0243190502437    
2022-04-22T17:09:08Z    31.6636666666667    -64.1648333333333    428.5     -425.14602530223     1e-12          4.075e-14     18.2040136363636    36.7039954545455   26.4167409090909    -0.00676818181818182     -0.0084                                   182.067             230.987709090909    0.788207490909091    -46.687438221602    -74.0243190502437    
2022-04-22T17:09:08Z    31.6636666666667    -64.1648333333333    429       -425.609321132394    1e-12          4.075e-14     18.1981772727273    36.7030836363636   26.4175027272727    -0.00676818181818182     -0.0084                                   182.013090909091    231.014481818182    0.787887445454545    -46.687438221602    -74.0243190502437    
2022-04-22T17:09:08Z    31.6636666666667    -64.1648333333333    429.5     -426.068651896611    1e-12          4.07355e-14   18.1932             36.7021418181818   26.4180645454545    -0.00643636363636364     -0.0084                                   181.934863636364    231.037609090909    0.787469072727273    -46.687438221602    -74.0243190502437    
2022-04-22T17:09:08Z    31.6636666666667    -64.1648333333333    430       -426.626090781869    1e-12          4.075e-14     18.1883136363636    36.7012545454546   26.4186245454545    -0.0071                  -0.0084                                   181.845545454545    231.060290909091    0.787005245454545    -46.687438221602    -74.0243190502437    
2022-04-22T17:09:08Z    31.6636666666667    -64.1648333333333    430.5     -427.059157814764    1e-12          4.0778e-14    18.1837136363636    36.7004563636364   26.41918            -0.00909090909090909     -0.0084                                   181.761181818182    231.081545454545    0.786568345454545    -46.687438221602    -74.0243190502437    
2022-04-22T17:09:08Z    31.6636666666667    -64.1648333333333    431       -427.555152235576    1e-12          4.0764e-14    18.1795             36.69967           26.4196672727273    -0.01075                 -0.0084                                   181.687545454545    231.101172727273    0.786181190909091    -46.687438221602    -74.0243190502437    
2022-04-22T17:09:08Z    31.6636666666667    -64.1648333333333    431.5     -428.117542070029    1e-12          4.0864e-14    18.1755227272727    36.6989718181818   26.4201454545455    -0.01075                 -0.0084                                   181.621954545455    231.119636363636    0.785837181818182    -46.687438221602    -74.0243190502437    
2022-04-22T17:09:08Z    31.6636666666667    -64.1648333333333    432       -428.514930262168    1e-12          4.098e-14     18.1718909090909    36.6983827272727   26.4206209090909    -0.01075                 -0.0084                                   181.543090909091    231.136463636364    0.785438636363636    -46.687438221602    -74.0243190502437    
2022-04-22T17:09:08Z    31.6636666666667    -64.1648333333333    432.5     -429.026281523057    1e-12          4.1009e-14    18.1689409090909    36.6979536363636   26.4210563636364    -0.01075                 -0.0084                                   181.446227272727    231.150163636364    0.784973390909091    -46.687438221602    -74.0243190502437    
2022-04-22T17:09:08Z    31.6636666666667    -64.1648333333333    433       -429.504433440231    1e-12          4.0951e-14    18.1665409090909    36.6975390909091   26.4213463636364    -0.01075                 -0.0084                                   181.3755            231.161445454545    0.784629036363636    -46.687438221602    -74.0243190502437    
2022-04-22T17:09:08Z    31.6636666666667    -64.1648333333333    433.5     -430.013304791838    1e-12          4.0922e-14    18.1644772727273    36.6972363636364   26.4216518181818    -0.01075                 -0.0084                                   181.313136363636    231.171118181818    0.784324218181818    -46.687438221602    -74.0243190502437    
2022-04-22T17:09:08Z    31.6636666666667    -64.1648333333333    434       -430.533571180404    1e-12          4.0893e-14    18.1629863636364    36.6968772727273   26.4217645454546    -0.0104181818181818      -0.0084                                   181.273272727273    231.178481818182    0.784126772727273    -46.687438221602    -74.0243190502437    
2022-04-22T17:09:08Z    31.6636666666667    -64.1648333333333    434.5     -430.996854906373    1e-12          4.0836e-14    18.1617136363636    36.6962509090909   26.4216263636364    -0.00975454545454545     -0.0084                                   181.262454545455    231.185236363636    0.784055972727273    -46.687438221602    -74.0243190502437    
2022-04-22T17:09:08Z    31.6636666666667    -64.1648333333333    435       -431.505227084314    1e-12          4.0836e-14    18.1580045454545    36.6954136363636   26.4219545454545    -0.00975454545454545     -0.0084                                   181.300727272727    231.202718181818    0.784171163636364    -46.687438221602    -74.0243190502437    
2022-04-22T17:09:08Z    31.6636666666667    -64.1648333333333    435.5     -432.028958127276    1e-12          4.0836e-14    18.1539181818182    36.6947254545455   26.4224754545455    -0.00975454545454545     -0.00835                                  181.358727272727    231.221663636364    0.784357018181818    -46.687438221602    -74.0243190502437    
2022-04-22T17:09:08Z    31.6636666666667    -64.1648333333333    436       -432.521967682081    1e-12          4.0778e-14    18.1496454545455    36.6939736363636   26.4229827272727    -0.00776363636363636     -0.00825                                  181.316272727273    231.241536363636    0.784104390909091    -46.687438221602    -74.0243190502437    
2022-04-22T17:09:08Z    31.6636666666667    -64.1648333333333    436.5     -433.045200653868    1e-12          4.075e-14     18.1455181818182    36.6930963636364   26.4233890909091    -0.00643636363636364     -0.00825                                  181.222             231.261263636364    0.783638627272727    -46.687438221602    -74.0243190502437    
2022-04-22T17:09:08Z    31.6636666666667    -64.1648333333333    437       -433.557036178254    1e-12          4.0778e-14    18.1400090909091    36.6920690909091   26.4239972727273    -0.00643636363636364     -0.00825                                  181.174772727273    231.286827272727    0.783351545454546    -46.687438221602    -74.0243190502437    
2022-04-22T17:09:08Z    31.6636666666667    -64.1648333333333    437.5     -434.013871842101    1e-12          4.075e-14     18.1336272727273    36.69083           26.4246772727273    -0.00643636363636364     -0.00825                                  181.158954545455    231.316463636364    0.783188609090909    -46.687438221602    -74.0243190502437    
2022-04-22T17:09:08Z    31.6636666666667    -64.1648333333333    438       -434.531650737253    1e-12          4.075e-14     18.1268363636364    36.6896063636364   26.4254536363636    -0.00776363636363636     -0.00825                                  181.157590909091    231.347845454545    0.783076572727273    -46.687438221602    -74.0243190502437    
2022-04-22T17:09:08Z    31.6636666666667    -64.1648333333333    438.5     -435.031591040795    1e-12          4.098e-14     18.1197818181818    36.6883654545455   26.4262718181818    -0.00909090909090909     -0.00825                                  181.142227272727    231.380390909091    0.782901045454546    -46.687438221602    -74.0243190502437    
2022-04-22T17:09:08Z    31.6636666666667    -64.1648333333333    439       -435.49436919171     1e-12          4.1009e-14    18.1125818181818    36.6869863636364   26.4270309090909    -0.0104181818181818      -0.00825                                  181.099863636364    231.413772727273    0.782606627272727    -46.687438221602    -74.0243190502437    
2022-04-22T17:09:08Z    31.6636666666667    -64.1648333333333    439.5     -436.005703158099    1e-12          4.098e-14     18.1049             36.6855854545455   26.4278972727273    -0.0117454545454545      -0.00825                                  181.0195            231.449236363636    0.782139563636364    -46.687438221602    -74.0243190502437    
2022-04-22T17:09:08Z    31.6636666666667    -64.1648333333333    440       -436.493252967265    1e-12          4.0922e-14    18.0971636363636    36.6845090909091   26.4290136363636    -0.0124090909090909      -0.00825                                  180.914045454545    231.484418181818    0.781565054545455    -46.687438221602    -74.0243190502437    
2022-04-22T17:09:08Z    31.6636666666667    -64.1648333333333    440.5     -436.986747337174    1e-12          4.0864e-14    18.0916545454545    36.6836218181818   26.4296936363636    -0.0130727272727273      -0.00825                                  180.754             231.509909090909    0.780779227272727    -46.687438221602    -74.0243190502437    
2022-04-22T17:09:08Z    31.6636666666667    -64.1648333333333    441       -437.516410158494    1e-12          4.0836e-14    18.0862590909091    36.68243           26.4301745454546    -0.0137363636363636      -0.0083                                   180.578636363636    231.535272727273    0.779936918181818    -46.687438221602    -74.0243190502437    
2022-04-22T17:09:08Z    31.6636666666667    -64.1648333333333    441.5     -437.944004131821    1e-12          4.0807e-14    18.0800818181818    36.6811190909091   26.4307263636364    -0.0157272727272727      -0.0084                                   180.503590909091    231.564190909091    0.779521518181818    -46.687438221602    -74.0243190502437    
2022-04-22T17:09:08Z    31.6636666666667    -64.1648333333333    442       -438.418667086251    1e-12          4.075e-14     18.0730454545455    36.6798936363636   26.4315090909091    -0.0157272727272727      -0.0084                                   180.408818181818    231.5963            0.778995954545455    -46.687438221602    -74.0243190502437    
2022-04-22T17:09:08Z    31.6636666666667    -64.1648333333333    442.5     -438.87648293082     1e-12          4.075e-14     18.0670909090909    36.6787209090909   26.4321481818182    -0.0150636363636364      -0.0083                                   180.225363636364    231.623881818182    0.778105709090909    -46.687438221602    -74.0243190502437    
2022-04-22T17:09:08Z    31.6636666666667    -64.1648333333333    443       -439.426455167565    1e-12          4.0764e-14    18.06155            36.6776618181818   26.4327518181818    -0.0144                  -0.0082                                   180.039772727273    231.649645454545    0.7772127            -46.687438221602    -74.0243190502437    
2022-04-22T17:09:08Z    31.6636666666667    -64.1648333333333    443.5     -439.893187213524    1e-12          4.075e-14     18.0557954545455    36.6765463636364   26.4333690909091    -0.0137363636363636      -0.0082                                   179.868318181818    231.676436363636    0.776381381818182    -46.687438221602    -74.0243190502437    
2022-04-22T17:09:08Z    31.6636666666667    -64.1648333333333    444       -440.495180804127    1e-12          4.075e-14     18.0500227272727    36.6754572727273   26.4340236363636    -0.0130727272727273      -0.0082                                   179.705409090909    231.703318181818    0.775586463636364    -46.687438221602    -74.0243190502437    
2022-04-22T17:09:08Z    31.6636666666667    -64.1648333333333    444.5     -440.976278955611    1e-12          4.08785e-14   18.0444045454545    36.6745163636364   26.4347145454545    -0.0124090909090909      -0.0082                                   179.546409090909    231.729363636364    0.774811527272727    -46.687438221602    -74.0243190502437    
2022-04-22T17:09:08Z    31.6636666666667    -64.1648333333333    445       -441.409315876083    1e-12          4.1038e-14    18.0391136363636    36.6735218181818   26.4353218181818    -0.0117454545454545      -0.0082                                   179.399409090909    231.754036363636    0.774094209090909    -46.687438221602    -74.0243190502437    
2022-04-22T17:09:08Z    31.6636666666667    -64.1648333333333    445.5     -441.876043438109    1e-12          4.1067e-14    18.0334863636364    36.6724            26.4359109090909    -0.0117454545454545      -0.0082                                   179.250772727273    231.780490909091    0.773366027272727    -46.687438221602    -74.0243190502437    
2022-04-22T17:09:08Z    31.6636666666667    -64.1648333333333    446       -442.40866648826     1e-12          4.098e-14     18.0276772727273    36.6713490909091   26.4365809090909    -0.0110818181818182      -0.0082                                   179.112545454545    231.807463636364    0.772679045454545    -46.687438221602    -74.0243190502437    
2022-04-22T17:09:08Z    31.6636666666667    -64.1648333333333    446.5     -442.944260929406    1e-12          4.0951e-14    18.0219409090909    36.6702927272727   26.4371936363636    -0.0104181818181818      -0.0082                                   178.997045454545    231.834181818182    0.772092527272727    -46.687438221602    -74.0243190502437    
2022-04-22T17:09:08Z    31.6636666666667    -64.1648333333333    447       -443.44368540079     1e-12          4.0864e-14    18.0160272727273    36.6692027272727   26.4378536363636    -0.00909090909090909     -0.0082                                   178.890363636364    231.861681818182    0.771538590909091    -46.687438221602    -74.0243190502437    
2022-04-22T17:09:08Z    31.6636666666667    -64.1648333333333    447.5     -443.9128856524      1e-12          4.0807e-14    18.0104863636364    36.6681790909091   26.4384936363636    -0.00909090909090909     -0.0082                                   178.836590909091    231.887545454545    0.771221881818182    -46.687438221602    -74.0243190502437    
2022-04-22T17:09:08Z    31.6636666666667    -64.1648333333333    448       -444.467303594592    1e-12          4.0807e-14    18.0045772727273    36.6671309090909   26.43915            -0.00975454545454545     -0.0083                                   178.810590909091    231.915245454545    0.771019281818182    -46.687438221602    -74.0243190502437    
2022-04-22T17:09:08Z    31.6636666666667    -64.1648333333333    448.5     -444.882496748883    1e-12          4.075e-14     17.99895            36.6661972727273   26.4398281818182    -0.0104181818181818      -0.0084                                   178.772318181818    231.941354545455    0.770765536363636    -46.687438221602    -74.0243190502437    
2022-04-22T17:09:08Z    31.6636666666667    -64.1648333333333    449       -445.390339263797    1e-12          4.0721e-14    17.9934954545455    36.6651990909091   26.4404272727273    -0.00909090909090909     -0.0084                                   178.714954545455    231.966781818182    0.770432281818182    -46.687438221602    -74.0243190502437    
2022-04-22T17:09:08Z    31.6636666666667    -64.1648333333333    449.5     -445.899171447707    1e-12          4.0778e-14    17.9881954545455    36.6642163636364   26.4409981818182    -0.00909090909090909     -0.0084                                   178.650954545455    231.991536363636    0.770074972727273    -46.687438221602    -74.0243190502437    
2022-04-22T17:09:08Z    31.6636666666667    -64.1648333333333    450       -446.431784117048    1e-12          4.0778e-14    17.98245            36.6631127272727   26.4415754545455    -0.00909090909090909     -0.0084                                   178.619409090909    232.018390909091    0.769850718181818    -46.687438221602    -74.0243190502437    
2022-04-22T17:09:08Z    31.6636666666667    -64.1648333333333    450.5     -446.916832042838    1e-12          4.0836e-14    17.9767636363636    36.6621245454545   26.4422145454545    -0.00909090909090909     -0.0084                                   178.601954545455    232.044818181818    0.769688263636364    -46.687438221602    -74.0243190502437    
2022-04-22T17:09:08Z    31.6636666666667    -64.1648333333333    451       -447.37958354601     1e-12          4.0893e-14    17.9716727272727    36.6611872727273   26.4427609090909    -0.00842727272727273     -0.0084                                   178.594681818182    232.068436363636    0.769576963636364    -46.687438221602    -74.0243190502437    
2022-04-22T17:09:08Z    31.6636666666667    -64.1648333333333    451.5     -447.884942674933    1e-12          4.098e-14     17.9663909090909    36.6600254545455   26.4431981818182    -0.00842727272727273     -0.0084                                   178.581045454545    232.093527272727    0.769435609090909    -46.687438221602    -74.0243190502437    
2022-04-22T17:09:08Z    31.6636666666667    -64.1648333333333    452       -448.3486829047      1e-12          4.10235e-14   17.9608909090909    36.6589927272727   26.4437790909091    -0.00842727272727273     -0.0084                                   178.553545454545    232.119236363636    0.769229681818182    -46.687438221602    -74.0243190502437    
2022-04-22T17:09:08Z    31.6636666666667    -64.1648333333333    452.5     -448.859985027428    1e-12          4.1038e-14    17.9562909090909    36.65818           26.44432            -0.00909090909090909     -0.0084                                   178.494             232.140718181818    0.768900872727273    -46.687438221602    -74.0243190502437    
2022-04-22T17:09:08Z    31.6636666666667    -64.1648333333333    453       -449.365835972598    1e-12          4.1009e-14    17.9515272727273    36.6569845454545   26.4446254545455    -0.00975454545454545     -0.0084                                   178.446090909091    232.1635            0.768615609090909    -46.687438221602    -74.0243190502437    
2022-04-22T17:09:08Z    31.6636666666667    -64.1648333333333    453.5     -449.874162908236    1e-12          4.1038e-14    17.9463272727273    36.6558609090909   26.4450718181818    -0.0104181818181818      -0.0084                                   178.420772727273    232.188009090909    0.768423563636364    -46.687438221602    -74.0243190502437    
2022-04-22T17:09:08Z    31.6636666666667    -64.1648333333333    454       -450.382984039962    1e-12          4.1009e-14    17.9405090909091    36.6546890909091   26.4456654545455    -0.0104181818181818      -0.0084                                   178.393772727273    232.215263636364    0.768222681818182    -46.687438221602    -74.0243190502437    
2022-04-22T17:09:08Z    31.6636666666667    -64.1648333333333    454.5     -450.894281124155    1e-12          4.0922e-14    17.9343818181818    36.6534836363636   26.4462290909091    -0.0104181818181818      -0.0084                                   178.3675            232.2441            0.768015             -46.687438221602    -74.0243190502437    
2022-04-22T17:09:08Z    31.6636666666667    -64.1648333333333    455       -451.400622531252    1e-12          4.0922e-14    17.9274909090909    36.6522809090909   26.4469663636364    -0.00909090909090909     -0.0084                                   178.341863636364    232.276209090909    0.767797618181818    -46.687438221602    -74.0243190502437    
2022-04-22T17:09:08Z    31.6636666666667    -64.1648333333333    455.5     -451.863859417919    1e-12          4.0893e-14    17.9208818181818    36.6511290909091   26.4477672727273    -0.00875909090909091     -0.0084                                   178.273045454545    232.306827272727    0.767398254545455    -46.687438221602    -74.0243190502437    
2022-04-22T17:09:08Z    31.6636666666667    -64.1648333333333    456       -452.32412263813     1e-12          4.0807e-14    17.9145681818182    36.6499581818182   26.4484454545455    -0.00809545454545454     -0.0084                                   178.128954545455    232.336281818182    0.7666803            -46.687438221602    -74.0243190502437    
2022-04-22T17:09:08Z    31.6636666666667    -64.1648333333333    456.5     -452.83244229396     1e-12          4.0778e-14    17.9063318181818    36.6484527272727   26.4493536363636    -0.00809545454545454     -0.0084                                   177.979136363636    232.374636363636    0.765925745454546    -46.687438221602    -74.0243190502437    
2022-04-22T17:09:08Z    31.6636666666667    -64.1648333333333    457       -453.344724184557    1e-12          4.075e-14     17.8982954545455    36.6471454545455   26.4503763636364    -0.00743181818181818     -0.0084                                   177.851545454545    232.411609090909    0.7652551            -46.687438221602    -74.0243190502437    
2022-04-22T17:09:08Z    31.6636666666667    -64.1648333333333    457.5     -453.850068711264    1e-12          4.0721e-14    17.8907318181818    36.6459090909091   26.4513363636364    -0.00676818181818182     -0.0084                                   177.742590909091    232.446590909091    0.764672272727273    -46.687438221602    -74.0243190502437    
2022-04-22T17:09:08Z    31.6636666666667    -64.1648333333333    458       -454.337576375197    1e-12          4.075e-14     17.8834409090909    36.6446309090909   26.4521863636364    -0.00610454545454545     -0.0084                                   177.648863636364    232.480454545455    0.7641569            -46.687438221602    -74.0243190502437    
2022-04-22T17:09:08Z    31.6636666666667    -64.1648333333333    458.5     -454.776530464298    1e-12          4.0893e-14    17.8765636363636    36.6436772727273   26.45315            -0.00544090909090909     -0.0084                                   177.553318181818    232.511990909091    0.763644318181818    -46.687438221602    -74.0243190502437    
2022-04-22T17:09:08Z    31.6636666666667    -64.1648333333333    459       -455.330423793975    1e-12          4.1038e-14    17.8706727272727    36.6427409090909   26.4539227272727    -0.00477727272727273     -0.0083                                   177.459363636364    232.539281818182    0.763153218181818    -46.687438221602    -74.0243190502437    
2022-04-22T17:09:08Z    31.6636666666667    -64.1648333333333    459.5     -455.76689861672     1e-12          4.10525e-14   17.8652136363636    36.6415872727273   26.4543990909091    -0.00610454545454546     -0.0082                                   177.367636363636    232.565145454545    0.7626746            -46.687438221602    -74.0243190502437    
2022-04-22T17:09:08Z    31.6636666666667    -64.1648333333333    460       -456.27570521092     1e-12          4.1096e-14    17.8595863636364    36.6402009090909   26.4548654545455    -0.00809545454545455     -0.0081                                   177.271             232.591936363636    0.762164790909091    -46.687438221602    -74.0243190502437    
2022-04-22T17:09:08Z    31.6636666666667    -64.1648333333333    460.5     -456.808291116998    1e-12          4.1067e-14    17.8533409090909    36.6388072727273   26.4554390909091    -0.0100863636363636      -0.0081                                   177.163181818182    232.621390909091    0.761603745454545    -46.687438221602    -74.0243190502437    
2022-04-22T17:09:08Z    31.6636666666667    -64.1648333333333    461       -457.268543318947    1e-12          4.1067e-14    17.8466954545455    36.6375363636364   26.4561209090909    -0.0110818181818182      -0.0081                                   177.070227272727    232.652527272727    0.761103236363636    -46.687438221602    -74.0243190502437    
2022-04-22T17:09:08Z    31.6636666666667    -64.1648333333333    461.5     -457.777841647939    1e-12          4.1067e-14    17.8390318181818    36.6360309090909   26.45692            -0.0110818181818182      -0.0081                                   177.056227272727    232.688536363636    0.760924254545455    -46.687438221602    -74.0243190502437    
2022-04-22T17:09:08Z    31.6636666666667    -64.1648333333333    462       -458.313396219462    1e-12          4.098e-14     17.8325727272727    36.6349754545455   26.4577318181818    -0.0110818181818182      -0.0081                                   177.044954545455    232.718490909091    0.760762536363637    -46.687438221602    -74.0243190502437    
2022-04-22T17:09:08Z    31.6636666666667    -64.1648333333333    462.5     -458.797425383878    1e-12          4.0951e-14    17.8264454545455    36.6339236363636   26.4584436363636    -0.0117454545454545      -0.0081                                   177.032363636364    232.747063636364    0.760615072727273    -46.687438221602    -74.0243190502437    
2022-04-22T17:09:08Z    31.6636666666667    -64.1648333333333    463       -459.282444255764    1e-12          4.0922e-14    17.8199545454545    36.6325790909091   26.4590981818182    -0.0124090909090909      -0.0081                                   176.983772727273    232.777790909091    0.760309872727273    -46.687438221602    -74.0243190502437    
2022-04-22T17:09:08Z    31.6636666666667    -64.1648333333333    463.5     -459.767461990543    1e-12          4.0836e-14    17.8119272727273    36.63104           26.4599527272727    -0.0124090909090909      -0.0081                                   176.900681818182    232.815554545455    0.759821545454545    -46.687438221602    -74.0243190502437    
2022-04-22T17:09:08Z    31.6636666666667    -64.1648333333333    464       -460.27873583486     1e-12          4.0778e-14    17.8036545454545    36.6295163636364   26.4608336363636    -0.0117454545454545      -0.0081                                   176.764227272727    232.8542            0.7591071            -46.687438221602    -74.0243190502437    
2022-04-22T17:09:08Z    31.6636666666667    -64.1648333333333    464.5     -460.763255808641    1e-12          4.075e-14     17.7929681818182    36.6273736363636   26.4618445454545    -0.0124090909090909      -0.0082                                   176.623954545455    232.904381818182    0.758344581818182    -46.687438221602    -74.0243190502437    
2022-04-22T17:09:08Z    31.6636666666667    -64.1648333333333    465       -461.247774647592    1e-12          4.0692e-14    17.7804818181818    36.6254654545455   26.4634781818182    -0.0110818181818182      -0.0083                                   176.471863636364    232.961863636364    0.757499554545455    -46.687438221602    -74.0243190502437    
2022-04-22T17:09:08Z    31.6636666666667    -64.1648333333333    465.5     -461.801650617669    1e-12          4.0692e-14    17.7686545454545    36.6238972727273   26.4651463636364    -0.00975454545454545     -0.0084                                   176.336409090909    233.016081818182    0.756750190909091    -46.687438221602    -74.0243190502437    
2022-04-22T17:09:08Z    31.6636666666667    -64.1648333333333    466       -462.312919425246    1e-12          4.0721e-14    17.7581363636364    36.62228           26.4664963636364    -0.00842727272727273     -0.0084                                   176.215136363636    233.064727272727    0.756073436363636    -46.687438221602    -74.0243190502437    
2022-04-22T17:09:08Z    31.6636666666667    -64.1648333333333    466.5     -462.656737077384    1e-12          4.0922e-14    17.7482727272727    36.6206527272727   26.4677090909091    -0.00643636363636364     -0.0084                                   176.103545454545    233.110527272727    0.755444036363636    -46.687438221602    -74.0243190502437    
2022-04-22T17:09:08Z    31.6636666666667    -64.1648333333333    467       -463.234389079243    1e-12          4.1067e-14    17.7390181818182    36.6190554545455   26.4687563636364    -0.00577272727272727     -0.0084                                   175.9955            233.153527272727    0.754841709090909    -46.687438221602    -74.0243190502437    
2022-04-22T17:09:08Z    31.6636666666667    -64.1648333333333    467.5     -463.739709401931    1e-12          4.1154e-14    17.7297954545455    36.6172245454545   26.4696536363636    -0.00510909090909091     -0.0084                                   175.899454545455    233.196890909091    0.754288518181818    -46.687438221602    -74.0243190502437    
2022-04-22T17:09:08Z    31.6636666666667    -64.1648333333333    468       -464.230661588064    1e-12          4.11105e-14   17.71995            36.6152845454545   26.4706163636364    -0.00444545454545455     -0.0084                                   175.784636363636    233.2431            0.753646390909091    -46.687438221602    -74.0243190502437    
2022-04-22T17:09:08Z    31.6636666666667    -64.1648333333333    468.5     -464.709722791364    1e-12          4.1067e-14    17.7100681818182    36.6135863636364   26.4716990909091    -0.00444545454545455     -0.0084                                   175.685318181818    233.288972727273    0.753070109090909    -46.687438221602    -74.0243190502437    
2022-04-22T17:09:08Z    31.6636666666667    -64.1648333333333    469       -465.215039503754    1e-12          4.1038e-14    17.70085            36.61187           26.4726327272727    -0.00444545454545455     -0.0084                                   175.615045454545    233.331981818182    0.752641336363636    -46.687438221602    -74.0243190502437    
2022-04-22T17:09:08Z    31.6636666666667    -64.1648333333333    469.5     -465.754042633024    1e-12          4.09365e-14   17.6911590909091    36.6100236363636   26.4736345454545    -0.00510909090909091     -0.0084                                   175.574181818182    233.377490909091    0.752322609090909    -46.687438221602    -74.0243190502437    
2022-04-22T17:09:08Z    31.6636666666667    -64.1648333333333    470       -466.262329222836    1e-12          4.0893e-14    17.6833772727273    36.6088372727273   26.4746463636364    -0.00477727272727273     -0.0084                                   175.530363636364    233.413490909091    0.752016309090909    -46.687438221602    -74.0243190502437    
2022-04-22T17:09:08Z    31.6636666666667    -64.1648333333333    470.5     -466.743862733359    1e-12          4.0864e-14    17.67695            36.6074618181818   26.4751290909091    -0.00544090909090909     -0.0084                                   175.489818181818    233.444090909091    0.751736118181818    -46.687438221602    -74.0243190502437    
2022-04-22T17:09:08Z    31.6636666666667    -64.1648333333333    471       -467.216973262293    1e-12          4.0807e-14    17.6677909090909    36.6050972727273   26.4755581818182    -0.00610454545454545     -0.0084                                   175.458863636364    233.488090909091    0.751469718181818    -46.687438221602    -74.0243190502437    
2022-04-22T17:09:08Z    31.6636666666667    -64.1648333333333    471.5     -467.719311425959    1e-12          4.075e-14     17.6554272727273    36.6030618181818   26.4770154545455    -0.00676818181818182     -0.0084                                   175.350772727273    233.545545454545    0.750820709090909    -46.687438221602    -74.0243190502437    
2022-04-22T17:09:08Z    31.6636666666667    -64.1648333333333    472       -468.203813948331    1e-12          4.075e-14     17.6461090909091    36.6012672727273   26.4779390909091    -0.00743181818181818     -0.0084                                   175.181954545455    233.589163636364    0.749957345454546    -46.687438221602    -74.0243190502437    
2022-04-22T17:09:08Z    31.6636666666667    -64.1648333333333    472.5     -468.667508544388    1e-12          4.07355e-14   17.6348045454545    36.5993118181818   26.47917            -0.00743181818181818     -0.0084                                   175.071727272727    233.642009090909    0.749317218181818    -46.687438221602    -74.0243190502437    
2022-04-22T17:09:08Z    31.6636666666667    -64.1648333333333    473       -469.194117706251    1e-12          4.0692e-14    17.6202045454545    36.5965736363636   26.4805509090909    -0.00743181818181818     -0.0084                                   174.989954545455    233.710690909091    0.748746645454545    -46.687438221602    -74.0243190502437    
2022-04-22T17:09:08Z    31.6636666666667    -64.1648333333333    473.5     -469.685056926742    1e-12          4.075e-14     17.6046227272727    36.59395           26.4823409090909    -0.00743181818181818     -0.0084                                   174.921772727273    233.783345454545    0.748221836363636    -46.687438221602    -74.0243190502437    
2022-04-22T17:09:08Z    31.6636666666667    -64.1648333333333    474       -470.362263806447    1e-12          4.0836e-14    17.5881590909091    36.5911118181818   26.4842063636364    -0.00743181818181818     -0.0084                                   174.864727272727    233.860136363636    0.7477306            -46.687438221602    -74.0243190502437    
2022-04-22T17:09:08Z    31.6636666666667    -64.1648333333333    474.5     -470.591136441304    1e-12          4.1125e-14    17.5717681818182    36.5884127272727   26.4861618181818    -0.00743181818181818     -0.0084                                   174.793             233.936427272727    0.747178736363636    -46.687438221602    -74.0243190502437    
2022-04-22T17:09:08Z    31.6636666666667    -64.1648333333333    475       -471.142014989852    1e-12          4.1067e-14    17.5555409090909    36.5857572727273   26.4881227272727    -0.00743181818181818     -0.0084                                   174.729227272727    234.011945454545    0.7466648            -46.687438221602    -74.0243190502437    
2022-04-22T17:09:08Z    31.6636666666667    -64.1648333333333    475.5     -471.627004869404    1e-12          4.10525e-14   17.5394045454545    36.5830590909091   26.4900172727273    -0.0071                  -0.0084                                   174.645954545455    234.087209090909    0.746068845454545    -46.687438221602    -74.0243190502437    
2022-04-22T17:09:08Z    31.6636666666667    -64.1648333333333    476       -472.12091065637     1e-12          4.0922e-14    17.5240318181818    36.5805627272727   26.49192            -0.00643636363636364     -0.0084                                   174.546318181818    234.158863636364    0.745423472727273    -46.687438221602    -74.0243190502437    
2022-04-22T17:09:08Z    31.6636666666667    -64.1648333333333    476.5     -472.66286810377     1e-12          4.0864e-14    17.5114454545455    36.5790472727273   26.4938636363636    -0.00577272727272727     -0.0084                                   174.409363636364    234.216718181818    0.744647409090909    -46.687438221602    -74.0243190502437    
2022-04-22T17:09:08Z    31.6636666666667    -64.1648333333333    477       -473.192439408031    1e-12          4.0778e-14    17.5022909090909    36.5772963636364   26.4948145454545    -0.00444545454545455     -0.0084                                   174.317681818182    234.260018181818    0.744119336363636    -46.687438221602    -74.0243190502437    
2022-04-22T17:09:08Z    31.6636666666667    -64.1648333333333    477.5     -473.63184880729     1e-12          4.0692e-14    17.4899727272727    36.5752309090909   26.4962627272727    -0.00378181818181818     -0.0083                                   174.282409090909    234.3178            0.743786509090909    -46.687438221602    -74.0243190502437    
2022-04-22T17:09:08Z    31.6636666666667    -64.1648333333333    478       -474.086614256129    1e-12          4.07355e-14   17.4796181818182    36.5734609090909   26.4974963636364    -0.00378181818181818     -0.0082                                   174.174363636364    234.366354545455    0.743170945454545    -46.687438221602    -74.0243190502437    
2022-04-22T17:09:08Z    31.6636666666667    -64.1648333333333    478.5     -474.649372730544    1e-12          4.0721e-14    17.4732181818182    36.5726181818182   26.49852            -0.00510909090909091     -0.0082                                   174.021636363636    234.395954545455    0.742425781818182    -46.687438221602    -74.0243190502437    
2022-04-22T17:09:08Z    31.6636666666667    -64.1648333333333    479       -475.113052855762    1e-12          4.0721e-14    17.4683454545455    36.5717472727273   26.4990845454545    -0.00643636363636364     -0.0082                                   173.865318181818    234.419054545455    0.741685572727273    -46.687438221602    -74.0243190502437    
2022-04-22T17:09:08Z    31.6636666666667    -64.1648333333333    479.5     -475.621811790609    1e-12          4.0778e-14    17.4647363636364    36.5710945454545   26.4994863636364    -0.00577272727272727     -0.0082                                   173.722454545455    234.436309090909    0.741021481818182    -46.687438221602    -74.0243190502437    
2022-04-22T17:09:08Z    31.6636666666667    -64.1648333333333    480       -476.179116888235    1e-12          4.0778e-14    17.4618363636364    36.5705290909091   26.4997872727273    -0.00510909090909091     -0.0082                                   173.622636363636    234.450309090909    0.740549781818182    -46.687438221602    -74.0243190502437    
2022-04-22T17:09:08Z    31.6636666666667    -64.1648333333333    480.5     -476.624464498822    1e-12          4.0893e-14    17.4594909090909    36.5700409090909   26.5000090909091    -0.00477727272727273     -0.00829090909090909                      173.535454545455    234.461781818182    0.740141809090909    -46.687438221602    -74.0243190502437    
2022-04-22T17:09:08Z    31.6636666666667    -64.1648333333333    481       -477.069811149957    1e-12          4.1067e-14    17.4576090909091    36.5695972727273   26.5001545454545    -0.00477727272727273     -0.00838181818181818                      173.456772727273    234.471109090909    0.739776427272727    -46.687438221602    -74.0243190502437    
2022-04-22T17:09:08Z    31.6636666666667    -64.1648333333333    481.5     -477.564199299499    1e-12          4.1154e-14    17.4557363636364    36.5691172727273   26.5002618181818    -0.00477727272727273     -0.00838181818181818                      173.395590909091    234.480409090909    0.739485972727273    -46.687438221602    -74.0243190502437    
2022-04-22T17:09:08Z    31.6636666666667    -64.1648333333333    482       -478.075429087454    1e-12          4.1198e-14    17.4541272727273    36.5686909090909   26.5003590909091    -0.00477727272727273     -0.00838181818181818                      173.3525            234.488545454546    0.7392759            -46.687438221602    -74.0243190502437    
2022-04-22T17:09:08Z    31.6636666666667    -64.1648333333333    482.5     -478.581703851465    1e-12          4.1154e-14    17.4523090909091    36.5680909090909   26.5003845454545    -0.00544090909090909     -0.00838181818181818                      173.361454545455    234.497881818182    0.739286954545455    -46.687438221602    -74.0243190502437    
2022-04-22T17:09:08Z    31.6636666666667    -64.1648333333333    483       -479.114232228864    1e-12          4.1096e-14    17.4498454545455    36.56739           26.5004818181818    -0.00610454545454546     -0.00848181818181818                      173.398545454545    234.510227272727    0.739408227272727    -46.687438221602    -74.0243190502437    
2022-04-22T17:09:08Z    31.6636666666667    -64.1648333333333    483.5     -479.608120112827    1e-12          4.098e-14     17.4460681818182    36.5663027272727   26.5006054545455    -0.00676818181818182     -0.00858181818181818                      173.440863636364    234.528863636364    0.739530636363636    -46.687438221602    -74.0243190502437    
2022-04-22T17:09:08Z    31.6636666666667    -64.1648333333333    484       -480.110428142952    1e-12          4.0893e-14    17.4395409090909    36.5651545454546   26.5013445454545    -0.00610454545454546     -0.00858181818181818                      173.427045454545    234.559736363636    0.739374181818182    -46.687438221602    -74.0243190502437    
2022-04-22T17:09:08Z    31.6636666666667    -64.1648333333333    484.5     -480.6048090149      1e-12          4.0836e-14    17.4324454545455    36.5639281818182   26.5021363636364    -0.00544090909090909     -0.00858181818181818                      173.388863636364    234.593327272727    0.739109627272727    -46.687438221602    -74.0243190502437    
2022-04-22T17:09:08Z    31.6636666666667    -64.1648333333333    485       -481.080364649691    1e-12          4.0721e-14    17.4250636363636    36.5626027272727   26.5029490909091    -0.00544090909090909     -0.00867272727272727                      173.301818181818    234.628290909091    0.738634981818182    -46.687438221602    -74.0243190502437    
2022-04-22T17:09:08Z    31.6636666666667    -64.1648333333333    485.5     -481.56186361419     1e-12          4.0721e-14    17.4164             36.5610445454545   26.5038990909091    -0.00544090909090909     -0.00867272727272727                      173.195272727273    234.669163636364    0.738052718181818    -46.687438221602    -74.0243190502437    
2022-04-22T17:09:08Z    31.6636666666667    -64.1648333333333    486       -482.028995795179    1e-12          4.07065e-14   17.4069             36.5593590909091   26.50492            -0.00510909090909091     -0.00858181818181818                      173.097090909091    234.713981818182    0.737492536363636    -46.687438221602    -74.0243190502437    
2022-04-22T17:09:08Z    31.6636666666667    -64.1648333333333    486.5     -482.604116788089    1e-12          4.075e-14     17.3968772727273    36.5575836363636   26.5060181818182    -0.00577272727272727     -0.00849090909090909                      173.025363636364    234.761309090909    0.7370385            -46.687438221602    -74.0243190502437    
2022-04-22T17:09:08Z    31.6636666666667    -64.1648333333333    487       -483.025177653178    1e-12          4.0807e-14    17.3863636363636    36.5557809090909   26.5072181818182    -0.00643636363636364     -0.00849090909090909                      172.966818181818    234.810818181818    0.736633572727273    -46.687438221602    -74.0243190502437    
2022-04-22T17:09:08Z    31.6636666666667    -64.1648333333333    487.5     -483.531440286467    1e-12          4.098e-14     17.3756545454545    36.5539845454545   26.50845            -0.0071                  -0.00858181818181818                      172.891545454545    234.861227272727    0.736154763636364    -46.687438221602    -74.0243190502437    
2022-04-22T17:09:08Z    31.6636666666667    -64.1648333333333    488       -484.061479091706    1e-12          4.1096e-14    17.3650818181818    36.5522954545455   26.5096863636364    -0.0071                  -0.00867272727272727                      172.786454545455    234.910954545455    0.7355501            -46.687438221602    -74.0243190502437    
2022-04-22T17:09:08Z    31.6636666666667    -64.1648333333333    488.5     -484.597460874515    1e-12          4.1154e-14    17.3553363636364    36.55072           26.5108481818182    -0.0071                  -0.00876363636363636                      172.648272727273    234.956736363636    0.734818872727273    -46.687438221602    -74.0243190502437    
2022-04-22T17:09:08Z    31.6636666666667    -64.1648333333333    489       -485.04576249655     1e-12          4.11395e-14   17.3464681818182    36.5493863636364   26.5119945454545    -0.0071                  -0.00876363636363636                      172.514318181818    234.998336363636    0.734119318181818    -46.687438221602    -74.0243190502437    
2022-04-22T17:09:08Z    31.6636666666667    -64.1648333333333    489.5     -485.533691888642    1e-12          4.1125e-14    17.3395590909091    36.5479963636364   26.5126127272727    -0.0071                  -0.00885454545454546                      172.462772727273    235.031418181818    0.733793627272727    -46.687438221602    -74.0243190502437    
2022-04-22T17:09:08Z    31.6636666666667    -64.1648333333333    490       -486.006264031249    1e-12          4.1038e-14    17.3323909090909    36.54646           26.5132481818182    -0.0071                  -0.00894545454545455                      172.450181818182    235.065809090909    0.733634072727273    -46.687438221602    -74.0243190502437    
2022-04-22T17:09:08Z    31.6636666666667    -64.1648333333333    490.5     -486.446141529832    1e-12          4.098e-14     17.3236727272727    36.5449227272727   26.5141518181818    -0.00776363636363636     -0.00885454545454546                      172.466454545455    235.107190909091    0.733568663636364    -46.687438221602    -74.0243190502437    
2022-04-22T17:09:08Z    31.6636666666667    -64.1648333333333    491       -486.999949931578    1e-12          4.0893e-14    17.3153181818182    36.5435536363636   26.5150972727273    -0.00842727272727273     -0.0089                                   172.461181818182    235.146827272727    0.733422790909091    -46.687438221602    -74.0243190502437    
2022-04-22T17:09:08Z    31.6636666666667    -64.1648333333333    491.5     -487.545335816662    1e-12          4.0778e-14    17.3073272727273    36.5422472727273   26.5160436363636    -0.00842727272727273     -0.00899090909090909                      172.435818181818    235.184590909091    0.733202972727273    -46.687438221602    -74.0243190502437    
2022-04-22T17:09:08Z    31.6636666666667    -64.1648333333333    492       -488.024342955319    1e-12          4.075e-14     17.2983727272727    36.5406072727273   26.51697            -0.0071                  -0.00899090909090909                      172.3735            235.227172727273    0.732797081818182    -46.687438221602    -74.0243190502437    
2022-04-22T17:09:08Z    31.6636666666667    -64.1648333333333    492.5     -488.482048834873    1e-12          4.0721e-14    17.2859409090909    36.5383345454545   26.51821            -0.00577272727272727     -0.00908181818181818                      172.262954545455    235.286290909091    0.732140681818182    -46.687438221602    -74.0243190502437    
2022-04-22T17:09:08Z    31.6636666666667    -64.1648333333333    493       -488.99325160558     1e-12          4.0721e-14    17.2713909090909    36.5358254545455   26.5198263636364    -0.00444545454545455     -0.00908181818181818                      172.157954545455    235.355063636364    0.731479854545455    -46.687438221602    -74.0243190502437    
2022-04-22T17:09:08Z    31.6636666666667    -64.1648333333333    493.5     -489.499499614563    1e-12          4.075e-14     17.2558454545455    36.5332145454545   26.5216436363636    -0.00378181818181818     -0.00908181818181818                      172.070590909091    235.428272727273    0.730880781818182    -46.687438221602    -74.0243190502437    
2022-04-22T17:09:08Z    31.6636666666667    -64.1648333333333    494       -490.011690564826    1e-12          4.0778e-14    17.2396727272727    36.5305018181818   26.5234890909091    -0.00311818181818182     -0.00899090909090909                      172.009863636364    235.504554545455    0.7303857            -46.687438221602    -74.0243190502437    
2022-04-22T17:09:08Z    31.6636666666667    -64.1648333333333    494.5     -490.475336210211    1e-12          4.0922e-14    17.2239227272727    36.5279281818182   26.52532            -0.00245454545454546     -0.00899090909090909                      171.959181818182    235.578763636364    0.729939445454546    -46.687438221602    -74.0243190502437    
2022-04-22T17:09:08Z    31.6636666666667    -64.1648333333333    495       -491.004861853767    1e-12          4.1067e-14    17.2086772727273    36.52543           26.5270990909091    -0.00245454545454546     -0.0089                                   171.897818181818    235.650663636364    0.729459481818182    -46.687438221602    -74.0243190502437    
2022-04-22T17:09:08Z    31.6636666666667    -64.1648333333333    495.5     -491.469000615549    1e-12          4.1096e-14    17.1941818181818    36.5231118181818   26.5288036363636    -0.00245454545454545     -0.00880909090909091                      171.833727272727    235.718927272727    0.728971936363636    -46.687438221602    -74.0243190502437    
2022-04-22T17:09:08Z    31.6636666666667    -64.1648333333333    496       -491.9564194962      1e-12          4.1125e-14    17.1812727272727    36.5209127272727   26.5302772727273    -0.00245454545454545     -0.0089                                   171.787454545455    235.779954545455    0.728586181818182    -46.687438221602    -74.0243190502437    
2022-04-22T17:09:08Z    31.6636666666667    -64.1648333333333    496.5     -492.465632295525    1e-12          4.1038e-14    17.1691272727273    36.5187018181818   26.5315609090909    -0.00245454545454545     -0.00894545454545455                      171.752909090909    235.837554545455    0.728262709090909    -46.687438221602    -74.0243190502437    
2022-04-22T17:09:08Z    31.6636666666667    -64.1648333333333    497       -492.974843849994    1e-12          4.1009e-14    17.1572454545455    36.5165436363636   26.5327990909091    -0.00245454545454545     -0.00894545454545455                      171.708545454545    235.894145454545    0.727894881818182    -46.687438221602    -74.0243190502437    
2022-04-22T17:09:08Z    31.6636666666667    -64.1648333333333    497.5     -493.456315094674    1e-12          4.0922e-14    17.1466318181818    36.5147327272727   26.5339909090909    -0.00245454545454545     -0.00894545454545455                      171.676363636364    235.944481818182    0.727611454545455    -46.687438221602    -74.0243190502437    
2022-04-22T17:09:08Z    31.6636666666667    -64.1648333333333    498       -493.956112754663    1e-12          4.0864e-14    17.1392             36.5133490909091   26.5347727272727    -0.00245454545454545     -0.00894545454545455                      171.670636363636    235.979945454545    0.727484218181818    -46.687438221602    -74.0243190502437    
2022-04-22T17:09:08Z    31.6636666666667    -64.1648333333333    498.5     -494.504452319878    1e-12          4.0864e-14    17.1328863636364    36.5121554545455   26.5353827272727    -0.00245454545454546     -0.00885454545454546                      171.668636363636    236.010254545455    0.727387245454545    -46.687438221602    -74.0243190502437    
2022-04-22T17:09:08Z    31.6636666666667    -64.1648333333333    499       -494.920535566465    1e-12          4.0807e-14    17.1272409090909    36.5111481818182   26.5359681818182    -0.00245454545454546     -0.00876363636363636                      171.598636363636    236.037381818182    0.727020663636364    -46.687438221602    -74.0243190502437    
2022-04-22T17:09:08Z    31.6636666666667    -64.1648333333333    499.5     -495.444601130101    1e-12          4.075e-14     17.1220318181818    36.5101081818182   26.5364381818182    -0.00311818181818182     -0.00876363636363636                      171.476454545455    236.062481818182    0.726424109090909    -46.687438221602    -74.0243190502437    
2022-04-22T17:09:08Z    31.6636666666667    -64.1648333333333    500       -495.913683261128    1e-12          4.0778e-14    17.1162045454545    36.5088845454545   26.53693            -0.00378181818181818     -0.00876363636363636                      171.346545454545    236.090736363636    0.725789063636364    -46.687438221602    -74.0243190502437    
2022-04-22T17:09:08Z    31.6636666666667    -64.1648333333333    500.5     -496.428830311565    1e-12          4.075e-14     17.1094272727273    36.5074963636364   26.5375263636364    -0.00378181818181818     -0.00876363636363636                      171.217863636364    236.123481818182    0.725142927272727    -46.687438221602    -74.0243190502437    
2022-04-22T17:09:08Z    31.6636666666667    -64.1648333333333    501       -497.003911222574    1e-12          4.075e-14     17.1019818181818    36.5059581818182   26.5381709090909    -0.00378181818181818     -0.00876363636363636                      171.098727272727    236.159481818182    0.724527036363636    -46.687438221602    -74.0243190502437    
2022-04-22T17:09:08Z    31.6636666666667    -64.1648333333333    501.5     -497.281296791556    1e-12          4.0836e-14    17.0934545454545    36.5041927272727   26.53888            -0.00378181818181818     -0.00867272727272727                      170.992181818182    236.200672727273    0.723953372727273    -46.687438221602    -74.0243190502437    
2022-04-22T17:09:08Z    31.6636666666667    -64.1648333333333    502       -497.883618459294    1e-12          4.1038e-14    17.0844363636364    36.5026309090909   26.5398636363636    -0.00378181818181818     -0.00858181818181818                      170.892136363636    236.243781818182    0.723396118181818    -46.687438221602    -74.0243190502437    
2022-04-22T17:09:08Z    31.6636666666667    -64.1648333333333    502.5     -498.360124982227    1e-12          4.1009e-14    17.0752818181818    36.5010790909091   26.5408827272727    -0.00444545454545455     -0.00849090909090909                      170.810136363636    236.287345454545    0.722914             -46.687438221602    -74.0243190502437    
2022-04-22T17:09:08Z    31.6636666666667    -64.1648333333333    503       -498.883686494955    1e-12          4.1009e-14    17.0661863636364    36.4995709090909   26.5419127272727    -0.00510909090909091     -0.00849090909090909                      170.696227272727    236.330645454545    0.722299336363636    -46.687438221602    -74.0243190502437    
2022-04-22T17:09:08Z    31.6636666666667    -64.1648333333333    503.5     -499.392882220386    1e-12          4.1009e-14    17.0577318181818    36.4983045454545   26.5429736363636    -0.00577272727272727     -0.0084                                   170.578636363636    236.370718181818    0.721676418181818    -46.687438221602    -74.0243190502437    
2022-04-22T17:09:08Z    31.6636666666667    -64.1648333333333    504       -499.87186189701     1e-12          4.0951e-14    17.04905            36.4967009090909   26.5438509090909    -0.00643636363636364     -0.0084                                   170.469545454545    236.412381818182    0.721084627272727    -46.687438221602    -74.0243190502437    
2022-04-22T17:09:08Z    31.6636666666667    -64.1648333333333    504.5     -500.383531808853    1e-12          4.0951e-14    17.0393818181818    36.4949554545454   26.5448581818182    -0.0071                  -0.0084                                   170.427909090909    236.458681818182    0.720751654545455    -46.687438221602    -74.0243190502437    
2022-04-22T17:09:08Z    31.6636666666667    -64.1648333333333    505       -500.889256596404    1e-12          4.0922e-14    17.0294090909091    36.49337           26.5460445454545    -0.00643636363636364     -0.0084                                   170.438318181818    236.506236363636    0.720651554545455    -46.687438221602    -74.0243190502437    
2022-04-22T17:09:08Z    31.6636666666667    -64.1648333333333    505.5     -501.323158557117    1e-12          4.0893e-14    17.0200045454545    36.4919772727273   26.5472363636364    -0.00577272727272727     -0.0084                                   170.453             236.550836363636    0.720574927272727    -46.687438221602    -74.0243190502437    
2022-04-22T17:09:08Z    31.6636666666667    -64.1648333333333    506       -501.847703202042    1e-12          4.0893e-14    17.0104227272727    36.4904309090909   26.5483409090909    -0.00510909090909091     -0.0084                                   170.495772727273    236.5965            0.7206206            -46.687438221602    -74.0243190502437    
2022-04-22T17:09:08Z    31.6636666666667    -64.1648333333333    506.5     -502.419797123079    1e-12          4.0864e-14    16.9999363636364    36.4889581818182   26.5497045454545    -0.00444545454545455     -0.0084                                   170.547181818182    236.646081818182    0.720686554545455    -46.687438221602    -74.0243190502437    
2022-04-22T17:09:08Z    31.6636666666667    -64.1648333333333    507       -502.859639681188    1e-12          4.0836e-14    16.9900454545455    36.4876081818182   26.5510681818182    -0.00444545454545455     -0.0084                                   170.586454545455    236.692818181818    0.720703545454546    -46.687438221602    -74.0243190502437    
2022-04-22T17:09:08Z    31.6636666666667    -64.1648333333333    507.5     -503.329200300035    1e-12          4.0836e-14    16.9804681818182    36.4860581818182   26.5521854545455    -0.00378181818181818     -0.00849090909090909                      170.6245            236.738490909091    0.720724945454546    -46.687438221602    -74.0243190502437    
2022-04-22T17:09:08Z    31.6636666666667    -64.1648333333333    508       -503.841356973171    1e-12          4.0836e-14    16.9703318181818    36.4843863636364   26.5533354545455    -0.00311818181818182     -0.00858181818181818                      170.650045454545    236.786863636364    0.720686227272727    -46.687438221602    -74.0243190502437    
2022-04-22T17:09:08Z    31.6636666666667    -64.1648333333333    508.5     -504.347568607989    1e-12          4.0836e-14    16.96015            36.4826854545455   26.5544827272727    -0.00378181818181818     -0.00858181818181818                      170.697863636364    236.8355            0.720742081818182    -46.687438221602    -74.0243190502437    
2022-04-22T17:09:08Z    31.6636666666667    -64.1648333333333    509       -504.841891493998    1e-12          4.0836e-14    16.9497727272727    36.48091           26.5556245454545    -0.00444545454545454     -0.00858181818181818                      170.760590909091    236.885136363636    0.720854972727273    -46.687438221602    -74.0243190502437    
2022-04-22T17:09:08Z    31.6636666666667    -64.1648333333333    509.5     -505.347110054851    1e-12          4.0836e-14    16.9404727272727    36.4794490909091   26.5567381818182    -0.00444545454545455     -0.00858181818181818                      170.802681818182    236.929481818182    0.720898609090909    -46.687438221602    -74.0243190502437    
2022-04-22T17:09:08Z    31.6636666666667    -64.1648333333333    510       -505.829543095795    1e-12          4.0864e-14    16.9322             36.4779981818182   26.5576063636364    -0.00444545454545454     -0.00858181818181818                      170.824954545455    236.969218181818    0.720875063636364    -46.687438221602    -74.0243190502437    
2022-04-22T17:09:08Z    31.6636666666667    -64.1648333333333    510.5     -506.323862437399    1e-12          4.0893e-14    16.9227545454545    36.4761790909091   26.5584263636364    -0.00510909090909091     -0.00858181818181818                      170.845227272727    237.015072727273    0.720823227272727    -46.687438221602    -74.0243190502437    
2022-04-22T17:09:08Z    31.6636666666667    -64.1648333333333    511       -506.823133677793    1e-12          4.0951e-14    16.9127590909091    36.4743372727273   26.5594709090909    -0.00510909090909091     -0.00858181818181818                      170.875227272727    237.063209090909    0.720803809090909    -46.687438221602    -74.0243190502437    
2022-04-22T17:09:08Z    31.6636666666667    -64.1648333333333    511.5     -507.311506957655    1e-12          4.0951e-14    16.9027727272727    36.4727545454545   26.5606436363636    -0.00510909090909091     -0.00858181818181818                      170.891136363636    237.110972727273    0.7207204            -46.687438221602    -74.0243190502437    
2022-04-22T17:09:08Z    31.6636666666667    -64.1648333333333    512       -507.793935415066    1e-12          4.0951e-14    16.8939454545455    36.4712363636364   26.56161            -0.00510909090909091     -0.00858181818181818                      170.888681818182    237.1534            0.720580918181818    -46.687438221602    -74.0243190502437    
2022-04-22T17:09:08Z    31.6636666666667    -64.1648333333333    512.5     -508.311529370101    1e-12          4.098e-14     16.8853818181818    36.4696927272727   26.5624963636364    -0.00510909090909091     -0.00858181818181818                      170.859772727273    237.1947            0.720335663636364    -46.687438221602    -74.0243190502437    
2022-04-22T17:09:08Z    31.6636666666667    -64.1648333333333    513       -508.841999926508    1e-12          4.0922e-14    16.87575            36.4679827272727   26.5634736363636    -0.00577272727272727     -0.00849090909090909                      170.855363636364    237.241090909091    0.720176036363636    -46.687438221602    -74.0243190502437    
2022-04-22T17:09:08Z    31.6636666666667    -64.1648333333333    513.5     -509.326901317744    1e-12          4.0922e-14    16.8655681818182    36.4662027272727   26.5645681818182    -0.00643636363636364     -0.0084                                   170.875363636364    237.290072727273    0.720113181818182    -46.687438221602    -74.0243190502437    
2022-04-22T17:09:08Z    31.6636666666667    -64.1648333333333    514       -509.79397074337     1e-12          4.0864e-14    16.8547363636364    36.4644109090909   26.5657745454545    -0.00577272727272727     -0.00849090909090909                      170.924681818182    237.342009090909    0.720162181818182    -46.687438221602    -74.0243190502437    
2022-04-22T17:09:08Z    31.6636666666667    -64.1648333333333    514.5     -510.257572009123    1e-12          4.0836e-14    16.8441545454545    36.4626909090909   26.5669890909091    -0.00510909090909091     -0.00858181818181818                      170.970863636364    237.392681818182    0.720204045454546    -46.687438221602    -74.0243190502437    
2022-04-22T17:09:08Z    31.6636666666667    -64.1648333333333    515       -510.80636361654     1e-12          4.0807e-14    16.8337318181818    36.4609236363636   26.5681318181818    -0.00444545454545455     -0.00867272727272727                      171.017136363636    237.442754545455    0.7202473            -46.687438221602    -74.0243190502437    
2022-04-22T17:09:08Z    31.6636666666667    -64.1648333333333    515.5     -511.248664815614    1e-12          4.0778e-14    16.8228318181818    36.4590536363636   26.5693145454545    -0.00378181818181818     -0.00867272727272727                      171.086909090909    237.495081818182    0.720389890909091    -46.687438221602    -74.0243190502437    
2022-04-22T17:09:08Z    31.6636666666667    -64.1648333333333    516       -511.740494716706    1e-12          4.0807e-14    16.8120954545455    36.4574054545455   26.57067            -0.00444545454545455     -0.00867272727272727                      171.139636363636    237.546181818182    0.7204558            -46.687438221602    -74.0243190502437    
2022-04-22T17:09:08Z    31.6636666666667    -64.1648333333333    516.5     -512.266994106523    1e-12          4.07925e-14   16.8011727272727    36.4556727272727   26.5718781818182    -0.00577272727272727     -0.00857272727272727                      171.154181818182    237.598554545455    0.720358427272727    -46.687438221602    -74.0243190502437    
2022-04-22T17:09:08Z    31.6636666666667    -64.1648333333333    517       -512.803398029608    1e-12          4.085e-14     16.7906909090909    36.4539490909091   26.5730763636364    -0.0071                  -0.00857272727272727                      171.140409090909    237.648845454545    0.720151927272727    -46.687438221602    -74.0243190502437    
2022-04-22T17:09:08Z    31.6636666666667    -64.1648333333333    517.5     -513.264020794641    1e-12          4.0864e-14    16.7803545454545    36.45226           26.5742318181818    -0.00842727272727273     -0.00857272727272727                      171.132409090909    237.698472727273    0.719968381818182    -46.687438221602    -74.0243190502437    
2022-04-22T17:09:08Z    31.6636666666667    -64.1648333333333    518       -513.749407107483    1e-12          4.0922e-14    16.7703590909091    36.4505945454545   26.5753481818182    -0.00776363636363636     -0.00857272727272727                      171.155409090909    237.746536363636    0.719920709090909    -46.687438221602    -74.0243190502437    
2022-04-22T17:09:08Z    31.6636666666667    -64.1648333333333    518.5     -514.240735767588    1e-12          4.0951e-14    16.7613409090909    36.4490781818182   26.5763436363636    -0.0071                  -0.00857272727272727                      171.170727272727    237.789936363636    0.719853663636364    -46.687438221602    -74.0243190502437    
2022-04-22T17:09:08Z    31.6636666666667    -64.1648333333333    519       -514.725624497812    1e-12          4.1038e-14    16.7531545454545    36.44767           26.5772154545455    -0.00643636363636363     -0.00857272727272727                      171.184090909091    237.829490909091    0.719789081818182    -46.687438221602    -74.0243190502437    
2022-04-22T17:09:08Z    31.6636666666667    -64.1648333333333    519.5     -515.259050318535    1e-12          4.1038e-14    16.7454318181818    36.44618           26.5779854545455    -0.00577272727272727     -0.00848181818181818                      171.194681818182    237.867209090909    0.719717281818182    -46.687438221602    -74.0243190502437    
2022-04-22T17:09:08Z    31.6636666666667    -64.1648333333333    520       -515.765233992521    1e-12          4.1038e-14    16.7373409090909    36.4447572727273   26.5788236363636    -0.00577272727272727     -0.00848181818181818                      171.208363636364    237.906436363636    0.719656663636364    -46.687438221602    -74.0243190502437    
2022-04-22T17:09:08Z    31.6636666666667    -64.1648333333333    520.5     -516.208019868095    1e-12          4.098e-14     16.7292636363636    36.4433745454546   26.5796872727273    -0.00643636363636364     -0.00839090909090909                      171.238636363636    237.945436363636    0.719665063636364    -46.687438221602    -74.0243190502437    
2022-04-22T17:09:08Z    31.6636666666667    -64.1648333333333    521       -516.740946579349    1e-12          4.098e-14     16.7214863636364    36.4420109090909   26.58051            -0.00643636363636364     -0.00839090909090909                      171.236227272727    237.983190909091    0.719533554545455    -46.687438221602    -74.0243190502437    
2022-04-22T17:09:08Z    31.6636666666667    -64.1648333333333    521.5     -517.271395498666    1e-12          4.0864e-14    16.7136136363636    36.4405227272727   26.58125            -0.00577272727272727     -0.00839090909090909                      171.228             238.021609090909    0.719382254545454    -46.687438221602    -74.0243190502437    
2022-04-22T17:09:08Z    31.6636666666667    -64.1648333333333    522       -517.759248814879    1e-12          4.0864e-14    16.7057818181818    36.4391463636364   26.5820909090909    -0.00510909090909091     -0.00849090909090909                      171.208954545455    238.059481818182    0.719191190909091    -46.687438221602    -74.0243190502437    
2022-04-22T17:09:08Z    31.6636666666667    -64.1648333333333    522.5     -518.271369736231    1e-12          4.0807e-14    16.6984409090909    36.4378272727273   26.5828245454545    -0.00411363636363636     -0.00853636363636364                      171.186409090909    238.095190909091    0.718986354545455    -46.687438221602    -74.0243190502437    
2022-04-22T17:09:08Z    31.6636666666667    -64.1648333333333    523       -518.663631710269    1e-12          4.075e-14     16.6910772727273    36.4364863636364   26.5835645454546    -0.00278636363636364     -0.00853636363636364                      171.144318181818    238.130990909091    0.718699472727273    -46.687438221602    -74.0243190502437    
2022-04-22T17:09:08Z    31.6636666666667    -64.1648333333333    523.5     -519.151977019767    1e-12          4.0807e-14    16.6836136363636    36.4352036363636   26.5843336363636    -0.00278636363636364     -0.00853636363636364                      171.101863636364    238.167181818182    0.718410936363637    -46.687438221602    -74.0243190502437    
2022-04-22T17:09:08Z    31.6636666666667    -64.1648333333333    524       -519.705697789092    1e-12          4.0864e-14    16.6765818181818    36.4339918181818   26.5851             -0.00345                 -0.00853636363636364                      171.060181818182    238.201318181818    0.718133363636364    -46.687438221602    -74.0243190502437    
2022-04-22T17:09:08Z    31.6636666666667    -64.1648333333333    524.5     -520.217813888976    1e-12          4.0864e-14    16.6699909090909    36.43287           26.5858118181818    -0.00411363636363636     -0.00853636363636364                      170.999681818182    238.233290909091    0.717783463636364    -46.687438221602    -74.0243190502437    
2022-04-22T17:09:08Z    31.6636666666667    -64.1648333333333    525       -520.727452341171    1e-12          4.0922e-14    16.6638090909091    36.4318936363636   26.5864972727273    -0.00477727272727273     -0.00853636363636364                      170.933136363636    238.263154545455    0.717414781818182    -46.687438221602    -74.0243190502437    
2022-04-22T17:09:08Z    31.6636666666667    -64.1648333333333    525.5     -521.237089546949    1e-12          4.0922e-14    16.6580318181818    36.4308581818182   26.5870890909091    -0.00477727272727273     -0.00849090909090909                      170.870727272727    238.291309090909    0.717067327272727    -46.687438221602    -74.0243190502437    
2022-04-22T17:09:08Z    31.6636666666667    -64.1648333333333    526       -521.72196186819     1e-12          4.1038e-14    16.6521409090909    36.4297936363636   26.5876718181818    -0.00477727272727273     -0.00858181818181818                      170.822454545455    238.320081818182    0.716775509090909    -46.687438221602    -74.0243190502437    
2022-04-22T17:09:08Z    31.6636666666667    -64.1648333333333    526.5     -522.185536385825    1e-12          4.1067e-14    16.6461954545455    36.42872           26.5882627272727    -0.00544090909090909     -0.00867272727272727                      170.810727272727    238.349072727273    0.716645190909091    -46.687438221602    -74.0243190502437    
2022-04-22T17:09:08Z    31.6636666666667    -64.1648333333333    527       -522.671397025446    1e-12          4.1125e-14    16.6409863636364    36.4278263636364   26.5888127272727    -0.00544090909090909     -0.00871818181818182                      170.814363636364    238.374381818182    0.716584509090909    -46.687438221602    -74.0243190502437    
2022-04-22T17:09:08Z    31.6636666666667    -64.1648333333333    527.5     -523.183505779596    1e-12          4.1096e-14    16.6359772727273    36.4269781818182   26.5893645454545    -0.00610454545454546     -0.00871818181818182                      170.864363636364    238.398809090909    0.7167181            -46.687438221602    -74.0243190502437    
2022-04-22T17:09:08Z    31.6636666666667    -64.1648333333333    528       -523.644105408119    1e-12          4.1096e-14    16.6314181818182    36.4261845454545   26.5898827272727    -0.0071                  -0.00867272727272727                      170.928045454545    238.421036363636    0.716918845454545    -46.687438221602    -74.0243190502437    
2022-04-22T17:09:08Z    31.6636666666667    -64.1648333333333    528.5     -524.153240158223    1e-12          4.1009e-14    16.6266727272727    36.4253545454545   26.5903754545455    -0.00842727272727273     -0.00867272727272727                      170.982590909091    238.444327272727    0.717084027272727    -46.687438221602    -74.0243190502437    
2022-04-22T17:09:08Z    31.6636666666667    -64.1648333333333    529       -524.665840502057    1e-12          4.0922e-14    16.6217454545455    36.4245863636364   26.5909645454545    -0.00975454545454545     -0.00867272727272727                      170.994181818182    238.468309090909    0.717061072727273    -46.687438221602    -74.0243190502437    
2022-04-22T17:09:08Z    31.6636666666667    -64.1648333333333    529.5     -525.126436834203    1e-12          4.0864e-14    16.6163590909091    36.4237536363636   26.5916036363636    -0.00909090909090909     -0.00867272727272727                      170.939409090909    238.494445454545    0.7167527            -46.687438221602    -74.0243190502437    
2022-04-22T17:09:08Z    31.6636666666667    -64.1648333333333    530       -525.593470566318    1e-12          4.075e-14     16.6111272727273    36.4228945454545   26.5922109090909    -0.00842727272727273     -0.00867272727272727                      170.806181818182    238.519954545455    0.7161173            -46.687438221602    -74.0243190502437    
2022-04-22T17:09:08Z    31.6636666666667    -64.1648333333333    530.5     -526.14816460318     1e-12          4.075e-14     16.6047818181818    36.4218872727273   26.5929381818182    -0.00842727272727273     -0.00867272727272727                      170.565909090909    238.550681818182    0.715019890909091    -46.687438221602    -74.0243190502437    
2022-04-22T17:09:08Z    31.6636666666667    -64.1648333333333    531       -526.611729203041    1e-12          4.0692e-14    16.5974636363636    36.4206036363636   26.5936990909091    -0.00842727272727272     -0.00862727272727273                      170.251909090909    238.586345454545    0.713597181818182    -46.687438221602    -74.0243190502437    
2022-04-22T17:09:08Z    31.6636666666667    -64.1648333333333    531.5     -527.142152798906    1e-12          4.0692e-14    16.5876545454545    36.4188981818182   26.5947027272727    -0.00842727272727272     -0.00853636363636364                      169.874181818182    238.634072727273    0.711879718181818    -46.687438221602    -74.0243190502437    
2022-04-22T17:09:08Z    31.6636666666667    -64.1648333333333    532       -527.630973342125    1e-12          4.075e-14     16.5766181818182    36.4170945454545   26.5959918181818    -0.00842727272727272     -0.00844545454545455                      169.431             238.687136363636    0.709860527272727    -46.687438221602    -74.0243190502437    
2022-04-22T17:09:08Z    31.6636666666667    -64.1648333333333    532.5     -528.118802212654    1e-12          4.09365e-14   16.5649272727273    36.4152472727273   26.5973427272727    -0.00842727272727273     -0.0084                                   168.95              238.743654545454    0.707682409090909    -46.687438221602    -74.0243190502437    
2022-04-22T17:09:08Z    31.6636666666667    -64.1648333333333    533       -528.649221945557    1e-12          4.1067e-14    16.5533318181818    36.4134263636364   26.5986818181818    -0.00776363636363636     -0.0084                                   168.405636363636    238.799718181818    0.705237090909091    -46.687438221602    -74.0243190502437    
2022-04-22T17:09:08Z    31.6636666666667    -64.1648333333333    533.5     -529.089503955828    1e-12          4.1183e-14    16.5413772727273    36.4115181818182   26.5999890909091    -0.0071                  -0.0084                                   167.824             238.857572727273    0.702631090909091    -46.687438221602    -74.0243190502437    
2022-04-22T17:09:08Z    31.6636666666667    -64.1648333333333    534       -529.625864241473    1e-12          4.1213e-14    16.5294             36.4094536363636   26.6012445454545    -0.00643636363636364     -0.0084                                   167.198772727273    238.915727272727    0.699839454545455    -46.687438221602    -74.0243190502437    
2022-04-22T17:09:08Z    31.6636666666667    -64.1648333333333    534.5     -530.089421039506    1e-12          4.1213e-14    16.5172727272727    36.4073163636364   26.6024572727273    -0.00577272727272727     -0.0084                                   166.5595            238.974709090909    0.696991818181818    -46.687438221602    -74.0243190502437    
2022-04-22T17:09:08Z    31.6636666666667    -64.1648333333333    535       -530.595568407901    1e-12          4.1154e-14    16.5049090909091    36.40505           26.6036354545455    -0.00643636363636364     -0.0084                                   165.942590909091    239.035163636364    0.694239654545455    -46.687438221602    -74.0243190502437    
2022-04-22T17:09:08Z    31.6636666666667    -64.1648333333333    535.5     -531.063085028066    1e-12          4.1125e-14    16.4920227272727    36.4028272727273   26.6049363636364    -0.0071                  -0.0084                                   165.388045454545    239.097772727273    0.691735690909091    -46.687438221602    -74.0243190502437    
2022-04-22T17:09:08Z    31.6636666666667    -64.1648333333333    536       -531.572201511712    1e-12          4.1038e-14    16.4793590909091    36.4006072727273   26.6061818181818    -0.0071                  -0.0084                                   164.929590909091    239.159536363636    0.689635272727273    -46.687438221602    -74.0243190502437    
2022-04-22T17:09:08Z    31.6636666666667    -64.1648333333333    536.5     -532.078840494343    1e-12          4.0893e-14    16.4680409090909    36.3987563636364   26.60753            -0.0071                  -0.0084                                   164.633409090909    239.214245454545    0.688246781818182    -46.687438221602    -74.0243190502437    
2022-04-22T17:09:08Z    31.6636666666667    -64.1648333333333    537       -532.567154123216    1e-12          4.085e-14     16.4592136363636    36.3973136363636   26.6084963636364    -0.00643636363636364     -0.0084                                   164.417636363636    239.257209090909    0.687217963636364    -46.687438221602    -74.0243190502437    
2022-04-22T17:09:08Z    31.6636666666667    -64.1648333333333    537.5     -533.103505389174    1e-12          4.075e-14     16.4499227272727    36.3957836363636   26.6094445454545    -0.00577272727272727     -0.0084                                   164.266454545455    239.302790909091    0.686454090909091    -46.687438221602    -74.0243190502437    
2022-04-22T17:09:08Z    31.6636666666667    -64.1648333333333    538       -533.588349886288    1e-12          4.0692e-14    16.4413045454545    36.3944609090909   26.6104527272727    -0.00577272727272727     -0.0084                                   164.152818181818    239.344654545455    0.685856254545455    -46.687438221602    -74.0243190502437    
2022-04-22T17:09:08Z    31.6636666666667    -64.1648333333333    538.5     -534.074183734712    1e-12          4.0721e-14    16.4333818181818    36.3931472727273   26.6113136363636    -0.00577272727272727     -0.0084                                   164.098             239.383318181818    0.685516236363636    -46.687438221602    -74.0243190502437    
2022-04-22T17:09:08Z    31.6636666666667    -64.1648333333333    539       -534.63479792818     1e-12          4.075e-14     16.4257954545455    36.3918945454545   26.6121690909091    -0.00577272727272727     -0.00844545454545455                      164.075681818182    239.420327272727    0.685316545454546    -46.687438221602    -74.0243190502437    
2022-04-22T17:09:08Z    31.6636666666667    -64.1648333333333    539.5     -534.996819179469    1e-12          4.1125e-14    16.4186954545455    36.3907545454545   26.61296            -0.00577272727272727     -0.00849090909090909                      164.116272727273    239.454990909091    0.685385590909091    -46.687438221602    -74.0243190502437    
2022-04-22T17:09:08Z    31.6636666666667    -64.1648333333333    540       -535.536135582482    1e-12          4.1213e-14    16.4117818181818    36.3894963636364   26.6136109090909    -0.00577272727272727     -0.00858181818181818                      164.1935            239.489054545455    0.685611290909091    -46.687438221602    -74.0243190502437    
2022-04-22T17:09:08Z    31.6636666666667    -64.1648333333333    540.5     -536.021469617061    1e-12          4.1183e-14    16.4052954545455    36.3884736363636   26.6143663636364    -0.00577272727272727     -0.00858181818181818                      164.286909090909    239.520627272727    0.685906018181818    -46.687438221602    -74.0243190502437    
2022-04-22T17:09:08Z    31.6636666666667    -64.1648333333333    541       -536.533545311552    1e-12          4.1213e-14    16.3985363636364    36.3866490909091   26.6145763636364    -0.00577272727272727     -0.00858181818181818                      164.403363636364    239.554872727273    0.686294754545455    -46.687438221602    -74.0243190502437    
2022-04-22T17:09:08Z    31.6636666666667    -64.1648333333333    541.5     -537.0396768662      1e-12          4.1213e-14    16.3893363636364    36.3847936363636   26.6153536363636    -0.00577272727272727     -0.00858181818181818                      164.518181818182    239.6002            0.686650690909091    -46.687438221602    -74.0243190502437    
2022-04-22T17:09:08Z    31.6636666666667    -64.1648333333333    542       -537.500740912175    1e-12          4.1183e-14    16.3787272727273    36.38316           26.6164854545455    -0.00577272727272727     -0.00858181818181818                      164.541454545455    239.651981818182    0.686590136363636    -46.687438221602    -74.0243190502437    
2022-04-22T17:09:08Z    31.6636666666667    -64.1648333333333    542.5     -537.992013140058    1e-12          4.1125e-14    16.3680636363636    36.3815863636364   26.6178018181818    -0.00643636363636364     -0.00858181818181818                      164.514409090909    239.703554545455    0.686321272727273    -46.687438221602    -74.0243190502437    
2022-04-22T17:09:08Z    31.6636666666667    -64.1648333333333    543       -538.525874171616    1e-12          4.1096e-14    16.3588             36.3802518181818   26.61895            -0.0071                  -0.00858181818181818                      164.4435            239.748481818182    0.685897090909091    -46.687438221602    -74.0243190502437    
2022-04-22T17:09:08Z    31.6636666666667    -64.1648333333333    543.5     -539.035467515446    1e-12          4.1096e-14    16.3498136363636    36.3787663636364   26.61993            -0.0071                  -0.00858181818181818                      164.294318181818    239.792272727273    0.685148945454546    -46.687438221602    -74.0243190502437    
2022-04-22T17:09:08Z    31.6636666666667    -64.1648333333333    544       -539.499003223088    1e-12          4.1009e-14    16.3398863636364    36.37711           26.6209681818182    -0.0071                  -0.00867272727272727                      164.080454545455    239.840836363636    0.684119336363636    -46.687438221602    -74.0243190502437    
2022-04-22T17:09:08Z    31.6636666666667    -64.1648333333333    544.5     -540.026917624332    1e-12          4.0922e-14    16.3296272727273    36.3753890909091   26.6220481818182    -0.00643636363636364     -0.00871818181818182                      163.876227272727    239.891072727273    0.683126045454545    -46.687438221602    -74.0243190502437    
2022-04-22T17:09:08Z    31.6636666666667    -64.1648333333333    545       -540.553840224497    1e-12          4.0864e-14    16.3185863636364    36.3736290909091   26.6232781818182    -0.00643636363636364     -0.00867272727272727                      163.720863636364    239.944927272727    0.682324881818182    -46.687438221602    -74.0243190502437    
2022-04-22T17:09:08Z    31.6636666666667    -64.1648333333333    545.5     -541.030248411926    1e-12          4.075e-14     16.3076863636364    36.3720063636364   26.6246009090909    -0.00643636363636364     -0.00867272727272727                      163.583363636364    239.997890909091    0.681599027272727    -46.687438221602    -74.0243190502437    
2022-04-22T17:09:08Z    31.6636666666667    -64.1648333333333    546       -541.494770099449    1e-12          4.0721e-14    16.2969454545455    36.3703445454545   26.62583            -0.00643636363636364     -0.00867272727272727                      163.430136363636    240.050190909091    0.680810909090909    -46.687438221602    -74.0243190502437    
2022-04-22T17:09:08Z    31.6636666666667    -64.1648333333333    546.5     -541.997918212868    1e-12          4.0692e-14    16.2866590909091    36.3693663636364   26.62749            -0.00643636363636364     -0.00867272727272727                      163.2795            240.099345454545    0.6800423            -46.687438221602    -74.0243190502437    
2022-04-22T17:09:08Z    31.6636666666667    -64.1648333333333    547       -542.51096955664     1e-12          4.0764e-14    16.2795409090909    36.3685818181818   26.6285627272727    -0.00643636363636364     -0.00876363636363636                      163.158136363636    240.133663636364    0.679436054545454    -46.687438221602    -74.0243190502437    
2022-04-22T17:09:08Z    31.6636666666667    -64.1648333333333    547.5     -542.935870188998    1e-12          4.098e-14     16.2735863636364    36.3674563636364   26.6290818181818    -0.00643636363636364     -0.00876363636363636                      163.057590909091    240.163136363636    0.678935881818182    -46.687438221602    -74.0243190502437    
2022-04-22T17:09:08Z    31.6636666666667    -64.1648333333333    548       -543.457337953196    1e-12          4.1154e-14    16.2673954545455    36.3661372727273   26.62955            -0.00577272727272727     -0.00876363636363636                      162.977454545455    240.194181818182    0.678521245454545    -46.687438221602    -74.0243190502437    
2022-04-22T17:09:08Z    31.6636666666667    -64.1648333333333    548.5     -543.984747033974    1e-12          4.1213e-14    16.2613590909091    36.3648990909091   26.63002            -0.00510909090909091     -0.00876363636363636                      162.924             240.224363636364    0.678213309090909    -46.687438221602    -74.0243190502437    
2022-04-22T17:09:08Z    31.6636666666667    -64.1648333333333    549       -544.503240843932    1e-12          4.1213e-14    16.2551181818182    36.3633572727273   26.6302681818182    -0.00444545454545455     -0.00876363636363636                      162.944181818182    240.256072727273    0.678208709090909    -46.687438221602    -74.0243190502437    
2022-04-22T17:09:08Z    31.6636666666667    -64.1648333333333    549.5     -544.973202120286    1e-12          4.1154e-14    16.2477636363636    36.3616354545454   26.6307136363636    -0.00510909090909091     -0.00867272727272727                      163.022772727273    240.293045454545    0.678431809090909    -46.687438221602    -74.0243190502437    
2022-04-22T17:09:08Z    31.6636666666667    -64.1648333333333    550       -545.455542708367    1e-12          4.11395e-14   16.2389181818182    36.35965           26.6312181818182    -0.00643636363636364     -0.00867272727272727                      163.094227272727    240.337436363636    0.678608736363636    -46.687438221602    -74.0243190502437    
2022-04-22T17:09:08Z    31.6636666666667    -64.1648333333333    550.5     -545.96511898382     1e-12          4.10235e-14   16.2295727272727    36.3577054545455   26.6319090909091    -0.0071                  -0.00867272727272727                      163.102772727273    240.383990909091    0.678512009090909    -46.687438221602    -74.0243190502437    
2022-04-22T17:09:08Z    31.6636666666667    -64.1648333333333    551       -546.48657911283     1e-12          4.0951e-14    16.2180818181818    36.3552827272727   26.6326818181818    -0.00776363636363636     -0.00858181818181818                      163.110090909091    240.441327272727    0.678374663636364    -46.687438221602    -74.0243190502437    
2022-04-22T17:09:08Z    31.6636666666667    -64.1648333333333    551.5     -546.951088547618    1e-12          4.0922e-14    16.2046181818182    36.3528709090909   26.6339636363636    -0.0071                  -0.00858181818181818                      163.168545454545    240.507690909091    0.678435554545455    -46.687438221602    -74.0243190502437    
2022-04-22T17:09:08Z    31.6636666666667    -64.1648333333333    552       -547.463137185037    1e-12          4.0836e-14    16.1903954545455    36.3505463636364   26.6354363636364    -0.00643636363636363     -0.00867272727272727                      163.250636363636    240.577518181818    0.678581009090909    -46.687438221602    -74.0243190502437    
2022-04-22T17:09:08Z    31.6636666666667    -64.1648333333333    552.5     -547.927644427052    1e-12          4.0778e-14    16.1779136363636    36.3485127272727   26.6368154545455    -0.00643636363636363     -0.00867272727272727                      163.473818181818    240.638645454545    0.679338981818182    -46.687438221602    -74.0243190502437    
2022-04-22T17:09:08Z    31.6636666666667    -64.1648333333333    553       -548.433748145258    1e-12          4.0778e-14    16.1657545454545    36.3461045454546   26.6379254545454    -0.00577272727272727     -0.00876363636363636                      163.634272727273    240.6989            0.679831909090909    -46.687438221602    -74.0243190502437    
2022-04-22T17:09:08Z    31.6636666666667    -64.1648333333333    553.5     -548.922518367662    1e-12          4.075e-14     16.1518318181818    36.3435145454546   26.6392045454545    -0.00577272727272727     -0.00885454545454546                      163.823454545454    240.767709090909    0.6804225            -46.687438221602    -74.0243190502437    
2022-04-22T17:09:08Z    31.6636666666667    -64.1648333333333    554       -549.429114859565    1e-12          4.0721e-14    16.1357181818182    36.3407454545455   26.6408172727273    -0.00577272727272727     -0.00894545454545455                      164.045772727273    240.846972727273    0.6811262            -46.687438221602    -74.0243190502437    
2022-04-22T17:09:08Z    31.6636666666667    -64.1648333333333    554.5     -549.96591760723     1e-12          4.075e-14     16.1199318181818    36.3385063636364   26.6427927272727    -0.0071                  -0.00903636363636364                      164.286             240.923818181818    0.681906027272727    -46.687438221602    -74.0243190502437    
2022-04-22T17:09:08Z    31.6636666666667    -64.1648333333333    555       -550.339301722898    1e-12          4.0864e-14    16.1058863636364    36.3365136363636   26.6444990909091    -0.0071                  -0.00912727272727273                      164.535909090909    240.992363636364    0.682746972727273    -46.687438221602    -74.0243190502437    
2022-04-22T17:09:08Z    31.6636666666667    -64.1648333333333    555.5     -550.918194329772    1e-12          4.1213e-14    16.0934409090909    36.3348654545455   26.6461518181818    -0.0071                  -0.00912727272727273                      164.783545454545    241.052854545455    0.683597409090909    -46.687438221602    -74.0243190502437    
2022-04-22T17:09:08Z    31.6636666666667    -64.1648333333333    556       -551.382693814222    1e-12          4.12275e-14   16.0819136363636    36.3331345454545   26.6474709090909    -0.0071                  -0.00921818181818182                      165.039909090909    241.109345454545    0.684502581818182    -46.687438221602    -74.0243190502437    
2022-04-22T17:09:08Z    31.6636666666667    -64.1648333333333    556.5     -551.925433893192    1e-12          4.1183e-14    16.0715636363636    36.3317681818182   26.6488772727273    -0.00577272727272727     -0.00930909090909091                      165.275590909091    241.159727272727    0.685342890909091    -46.687438221602    -74.0243190502437    
2022-04-22T17:09:08Z    31.6636666666667    -64.1648333333333    557       -552.389931116242    1e-12          4.1154e-14    16.0632727272727    36.3305309090909   26.6498581818182    -0.00577272727272727     -0.0094                                   165.474136363636    241.2005            0.686046             -46.687438221602    -74.0243190502437    
2022-04-22T17:09:08Z    31.6636666666667    -64.1648333333333    557.5     -552.865816851694    1e-12          4.1154e-14    16.0560363636364    36.3292654545455   26.65062            -0.00577272727272727     -0.0094                                   165.628863636364    241.236272727273    0.686587545454545    -46.687438221602    -74.0243190502437    
2022-04-22T17:09:08Z    31.6636666666667    -64.1648333333333    558       -553.378841243374    1e-12          4.1067e-14    16.0471136363636    36.3277218181818   26.6514618181818    -0.00577272727272727     -0.0094                                   165.615636363636    241.2806            0.686402236363636    -46.687438221602    -74.0243190502437    
2022-04-22T17:09:08Z    31.6636666666667    -64.1648333333333    558.5     -553.908701007486    1e-12          4.0951e-14    16.0372681818182    36.3264272727273   26.6526             -0.00643636363636364     -0.0094                                   165.618727272727    241.328745454545    0.686276136363636    -46.687438221602    -74.0243190502437    
2022-04-22T17:09:08Z    31.6636666666667    -64.1648333333333    559       -554.418256449056    1e-12          4.0893e-14    16.0272636363636    36.3250954545455   26.6537990909091    -0.0071                  -0.0094                                   165.576045454545    241.377781818182    0.685965809090909    -46.687438221602    -74.0243190502437    
2022-04-22T17:09:08Z    31.6636666666667    -64.1648333333333    559.5     -554.886214432022    1e-12          4.0836e-14    16.0198818181818    36.3241290909091   26.6547809090909    -0.0071                  -0.00930909090909091                      165.488090909091    241.413963636364    0.685493372727273    -46.687438221602    -74.0243190502437    
2022-04-22T17:09:08Z    31.6636666666667    -64.1648333333333    560       -555.325945408758    1e-12          4.075e-14     16.0126863636364    36.3229672727273   26.6555672727273    -0.0071                  -0.00930909090909091                      165.417318181818    241.449681818182    0.685098727272727    -46.687438221602    -74.0243190502437    
2022-04-22T17:09:08Z    31.6636666666667    -64.1648333333333    560.5     -555.844410795889    1e-12          4.075e-14     16.0059136363636    36.3218754545454   26.6562981818182    -0.00577272727272727     -0.00930909090909091                      165.348772727273    241.483281818182    0.684720872727273    -46.687438221602    -74.0243190502437    
2022-04-22T17:09:08Z    31.6636666666667    -64.1648333333333    561       -556.356932615355    1e-12          4.0721e-14    15.9988681818182    36.3206618181818   26.6569854545455    -0.00444545454545454     -0.00930909090909091                      165.260045454545    241.5184            0.684259190909091    -46.687438221602    -74.0243190502437    
2022-04-22T17:09:08Z    31.6636666666667    -64.1648333333333    561.5     -556.875890610896    1e-12          4.075e-14     15.9923045454545    36.3196336363636   26.65777            -0.00311818181818182     -0.00930909090909091                      165.187318181818    241.550936363636    0.683864236363636    -46.687438221602    -74.0243190502437    
2022-04-22T17:09:08Z    31.6636666666667    -64.1648333333333    562       -557.364145702907    1e-12          4.07355e-14   15.9866181818182    36.31871           26.6583818181818    -0.00378181818181818     -0.00930909090909091                      165.135454545455    241.579218181818    0.683570136363636    -46.687438221602    -74.0243190502437    
2022-04-22T17:09:08Z    31.6636666666667    -64.1648333333333    562.5     -557.852399645522    1e-12          4.0922e-14    15.9807363636364    36.3175427272727   26.6588427272727    -0.00444545454545455     -0.00930909090909091                      165.115772727273    241.608745454545    0.683403209090909    -46.687438221602    -74.0243190502437    
2022-04-22T17:09:08Z    31.6636666666667    -64.1648333333333    563       -558.316883562884    1e-12          4.1183e-14    15.9739090909091    36.31608           26.6593018181818    -0.00510909090909091     -0.00930909090909091                      165.124727272727    241.643236363636    0.683342527272727    -46.687438221602    -74.0243190502437    
2022-04-22T17:09:08Z    31.6636666666667    -64.1648333333333    563.5     -558.829894438974    1e-12          4.1183e-14    15.9665090909091    36.3145045454545   26.6598127272727    -0.00444545454545455     -0.00930909090909091                      165.150681818182    241.680554545455    0.683341590909091    -46.687438221602    -74.0243190502437    
2022-04-22T17:09:08Z    31.6636666666667    -64.1648333333333    564       -559.318144921613    1e-12          4.1154e-14    15.9577181818182    36.3127809090909   26.6605809090909    -0.00378181818181818     -0.00930909090909091                      165.202272727273    241.724672727273    0.683436581818182    -46.687438221602    -74.0243190502437    
2022-04-22T17:09:08Z    31.6636666666667    -64.1648333333333    564.5     -559.800452076599    1e-12          4.1038e-14    15.9509090909091    36.3116918181818   26.6613854545455    -0.00311818181818182     -0.00930909090909091                      165.268636363636    241.758454545455    0.683610118181818    -46.687438221602    -74.0243190502437    
2022-04-22T17:09:08Z    31.6636666666667    -64.1648333333333    565       -560.334256835846    1e-12          4.09945e-14   15.9435590909091    36.3099772727273   26.6617381818182    -0.00311818181818182     -0.0094                                   165.344272727273    241.796281818182    0.683817181818182    -46.687438221602    -74.0243190502437    
2022-04-22T17:09:08Z    31.6636666666667    -64.1648333333333    565.5     -560.868060214462    1e-12          4.09075e-14   15.9356772727273    36.3086145454545   26.6625236363636    -0.00311818181818182     -0.0094                                   165.364             241.835545454545    0.683787454545455    -46.687438221602    -74.0243190502437    
2022-04-22T17:09:08Z    31.6636666666667    -64.1648333333333    566       -561.308273661096    1e-12          4.0807e-14    15.9278181818182    36.3072527272727   26.6632918181818    -0.00444545454545454     -0.0094                                   165.363272727273    241.874709090909    0.683673418181818    -46.687438221602    -74.0243190502437    
2022-04-22T17:09:08Z    31.6636666666667    -64.1648333333333    566.5     -561.811868755611    1e-12          4.07925e-14   15.9202727272727    36.3059318181818   26.6640463636364    -0.00444545454545455     -0.0094                                   165.407454545455    241.912381818182    0.683743563636364    -46.687438221602    -74.0243190502437    
2022-04-22T17:09:08Z    31.6636666666667    -64.1648333333333    567       -562.351610443447    1e-12          4.0778e-14    15.9127363636364    36.3046454545455   26.6647854545455    -0.00510909090909091     -0.0094                                   165.413954545455    241.949945454545    0.683665418181818    -46.687438221602    -74.0243190502437    
2022-04-22T17:09:08Z    31.6636666666667    -64.1648333333333    567.5     -562.815093913551    1e-12          4.0721e-14    15.9052454545455    36.3032945454545   26.6654890909091    -0.00510909090909091     -0.0094                                   165.392590909091    241.9874            0.683470009090909    -46.687438221602    -74.0243190502437    
2022-04-22T17:09:08Z    31.6636666666667    -64.1648333333333    568       -563.279566691555    1e-12          4.0721e-14    15.8978636363636    36.3021081818182   26.6662981818182    -0.00510909090909091     -0.0094                                   165.345272727273    242.024154545455    0.683172172727273    -46.687438221602    -74.0243190502437    
2022-04-22T17:09:08Z    31.6636666666667    -64.1648333333333    568.5     -563.841092090877    1e-12          4.075e-14     15.8916             36.3012654545455   26.6671063636364    -0.00444545454545455     -0.0094                                   165.2975            242.055154545455    0.682887036363636    -46.687438221602    -74.0243190502437    
2022-04-22T17:09:08Z    31.6636666666667    -64.1648333333333    569       -564.304572225033    1e-12          4.0778e-14    15.8861318181818    36.3005381818182   26.6678163636364    -0.00444545454545455     -0.0094                                   165.246772727273    242.082190909091    0.682604581818182    -46.687438221602    -74.0243190502437    
2022-04-22T17:09:08Z    31.6636666666667    -64.1648333333333    569.5     -564.745273525234    1e-12          4.09945e-14   15.88275            36.3001836363636   26.6683181818182    -0.00510909090909091     -0.0094                                   165.177590909091    242.098936363636    0.682269427272727    -46.687438221602    -74.0243190502437    
2022-04-22T17:09:08Z    31.6636666666667    -64.1648333333333    570       -565.233510052548    1e-12          4.1096e-14    15.8799954545455    36.2996418181818   26.6685372727273    -0.00577272727272727     -0.0094                                   165.106227272727    242.113             0.681935036363637    -46.687438221602    -74.0243190502437    
2022-04-22T17:09:08Z    31.6636666666667    -64.1648333333333    570.5     -565.740561777046    1e-12          4.1154e-14    15.8782136363636    36.2996090909091   26.6689581818182    -0.00643636363636364     -0.0094                                   165.018590909091    242.121318181818    0.681548990909091    -46.687438221602    -74.0243190502437    
2022-04-22T17:09:08Z    31.6636666666667    -64.1648333333333    571       -566.205027989173    1e-12          4.1154e-14    15.8773363636364    36.2993063636364   26.6689363636364    -0.00577272727272727     -0.0094                                   164.950545454545    242.126309090909    0.681254409090909    -46.687438221602    -74.0243190502437    
2022-04-22T17:09:08Z    31.6636666666667    -64.1648333333333    571.5     -566.765555121491    1e-12          4.1096e-14    15.87645            36.2990436363636   26.6689527272727    -0.00510909090909091     -0.0094                                   164.894             242.131245454545    0.681007218181818    -46.687438221602    -74.0243190502437    
2022-04-22T17:09:08Z    31.6636666666667    -64.1648333333333    572       -567.232494847194    1e-12          4.10815e-14   15.8758863636364    36.29887           26.6689727272727    -0.00577272727272727     -0.0095                                   164.821090909091    242.134481818182    0.6806975            -46.687438221602    -74.0243190502437    
2022-04-22T17:09:08Z    31.6636666666667    -64.1648333333333    572.5     -567.712307747585    1e-12          4.09655e-14   15.8753863636364    36.29866           26.66895            -0.00510909090909091     -0.0096                                   164.757136363636    242.137472727273    0.680425418181818    -46.687438221602    -74.0243190502437    
2022-04-22T17:09:08Z    31.6636666666667    -64.1648333333333    573       -568.249063062274    1e-12          4.09075e-14   15.8751863636364    36.2985854545455   26.6689490909091    -0.00444545454545455     -0.0096                                   164.713181818182    242.1389            0.680241445454546    -46.687438221602    -74.0243190502437    
2022-04-22T17:09:08Z    31.6636666666667    -64.1648333333333    573.5     -568.737291326765    1e-12          4.0836e-14    15.8751772727273    36.2984863636364   26.6688909090909    -0.00378181818181818     -0.0096                                   164.680227272727    242.139536363636    0.6801035            -46.687438221602    -74.0243190502437    
2022-04-22T17:09:08Z    31.6636666666667    -64.1648333333333    574       -569.231460341556    1e-12          4.075e-14     15.87515            36.2983972727273   26.6688445454545    -0.00378181818181818     -0.0096                                   164.698636363636    242.140236363636    0.6801778            -46.687438221602    -74.0243190502437    
2022-04-22T17:09:08Z    31.6636666666667    -64.1648333333333    574.5     -569.684034935968    1e-12          4.0778e-14    15.8751136363636    36.2983036363636   26.6688009090909    -0.00378181818181818     -0.0097                                   164.710636363636    242.140918181818    0.680225063636364    -46.687438221602    -74.0243190502437    
2022-04-22T17:09:08Z    31.6636666666667    -64.1648333333333    575       -570.208901388146    1e-12          4.075e-14     15.8751318181818    36.2981381818182   26.6687245454545    -0.00311818181818182     -0.0098                                   164.726545454545    242.1415            0.680288809090909    -46.687438221602    -74.0243190502437    
2022-04-22T17:09:08Z    31.6636666666667    -64.1648333333333    575.5     -570.709503900115    1e-12          4.075e-14     15.87485            36.2980218181818   26.66872            -0.00245454545454546     -0.0098                                   164.748363636364    242.143390909091    0.680372672727273    -46.687438221602    -74.0243190502437    
2022-04-22T17:09:08Z    31.6636666666667    -64.1648333333333    576       -571.221988908277    1e-12          4.075e-14     15.8743954545455    36.2978345454545   26.6686954545455    -0.00179090909090909     -0.0098                                   164.782454545455    242.146254545455    0.680507327272727    -46.687438221602    -74.0243190502437    
2022-04-22T17:09:08Z    31.6636666666667    -64.1648333333333    576.5     -571.776560621644    1e-12          4.0864e-14    15.8736909090909    36.2975727272727   26.6686954545455    -0.00112727272727273     -0.0098                                   164.796863636364    242.150436363636    0.680554790909091    -46.687438221602    -74.0243190502437    
2022-04-22T17:09:08Z    31.6636666666667    -64.1648333333333    577       -572.126633249864    1e-12          4.1096e-14    15.8724818181818    36.2971363636364   26.6686554545455    -0.000463636363636364    -0.0099                                   164.806954545455    242.157227272727    0.680575736363636    -46.687438221602    -74.0243190502437    
2022-04-22T17:09:08Z    31.6636666666667    -64.1648333333333    577.5     -572.65793046595     1e-12          4.1125e-14    15.8695272727273    36.2958418181818   26.6683872727273    0.0002                   -0.0099                                   164.813227272727    242.173845454545    0.6805558            -46.687438221602    -74.0243190502437    
2022-04-22T17:09:08Z    31.6636666666667    -64.1648333333333    578       -573.169915494925    1e-12          4.1125e-14    15.8646727272727    36.2948027272727   26.6686772727273    0.0002                   -0.0099                                   164.845227272727    242.198645454545    0.680618318181818    -46.687438221602    -74.0243190502437    
2022-04-22T17:09:08Z    31.6636666666667    -64.1648333333333    578.5     -573.634365034996    1e-12          4.1067e-14    15.8587772727273    36.2936554545455   26.66916            0.0002                   -0.01                                     164.8915            242.228345454545    0.680724190909091    -46.687438221602    -74.0243190502437    
2022-04-22T17:09:08Z    31.6636666666667    -64.1648333333333    579       -574.171104995663    1e-12          4.098e-14     15.85075            36.2917381818182   26.6694827272727    0.0002                   -0.0101                                   164.966181818182    242.269345454545    0.680932427272727    -46.687438221602    -74.0243190502437    
2022-04-22T17:09:08Z    31.6636666666667    -64.1648333333333    579.5     -574.701901818298    1e-12          4.0951e-14    15.8393954545455    36.2896318181818   26.6705245454545    0.0002                   -0.0101                                   164.993681818182    242.326118181818    0.680879072727273    -46.687438221602    -74.0243190502437    
2022-04-22T17:09:08Z    31.6636666666667    -64.1648333333333    580       -575.117823749955    1e-12          4.0922e-14    15.8263681818182    36.2875072727273   26.6719018181818    -0.000463636363636364    -0.01                                     165.003363636364    242.390936363636    0.680738963636364    -46.687438221602    -74.0243190502437    
2022-04-22T17:09:08Z    31.6636666666667    -64.1648333333333    580.5     -575.630792981352    1e-12          4.0807e-14    15.8130545454545    36.2855363636364   26.6734018181818    -0.00112727272727273     -0.0099                                   164.968045454545    242.456872727273    0.680409490909091    -46.687438221602    -74.0243190502437    
2022-04-22T17:09:08Z    31.6636666666667    -64.1648333333333    581       -576.143265795051    1e-12          4.0778e-14    15.7994636363636    36.2833836363636   26.6748445454545    -0.00245454545454545     -0.01                                     164.836909090909    242.524381818182    0.6796811            -46.687438221602    -74.0243190502437    
2022-04-22T17:09:08Z    31.6636666666667    -64.1648333333333    581.5     -576.649795656716    1e-12          4.0778e-14    15.7855090909091    36.2811736363636   26.6763327272727    -0.00245454545454545     -0.01                                     164.631818181818    242.593681818182    0.6786405            -46.687438221602    -74.0243190502437    
2022-04-22T17:09:08Z    31.6636666666667    -64.1648333333333    582       -577.211284783269    1e-12          4.0721e-14    15.7712727272727    36.2789009090909   26.6778363636364    -0.00311818181818182     -0.01                                     164.419636363636    242.664336363636    0.6775685            -46.687438221602    -74.0243190502437    
2022-04-22T17:09:08Z    31.6636666666667    -64.1648333333333    582.5     -577.654434296114    1e-12          4.075e-14     15.7569363636364    36.2767190909091   26.6794145454545    -0.00378181818181818     -0.00914545454545455                      164.218454545455    242.735363636364    0.676540881818182    -46.687438221602    -74.0243190502437    
2022-04-22T17:09:08Z    31.6636666666667    -64.1648333333333    583       -578.181756225762    1e-12          4.07925e-14   15.7430090909091    36.2751309090909   26.6813527272727    -0.00444545454545455     -0.0082                                   164.03              242.803227272727    0.675579109090909    -46.687438221602    -74.0243190502437    
2022-04-22T17:09:08Z    31.6636666666667    -64.1648333333333    583.5     -578.583312210181    1e-12          4.09365e-14   15.7304090909091    36.2732336363636   26.6828036363636    -0.00444545454545455     -0.00815                                  163.856636363636    242.865863636364    0.674688063636364    -46.687438221602    -74.0243190502437    
2022-04-22T17:09:08Z    31.6636666666667    -64.1648333333333    584       -579.069040420361    1e-12          4.1067e-14    15.7186409090909    36.2714581818182   26.6841290909091    -0.00444545454545455     -0.00815                                  163.671590909091    242.924463636364    0.673764972727273    -46.687438221602    -74.0243190502437    
2022-04-22T17:09:08Z    31.6636666666667    -64.1648333333333    584.5     -579.581009592543    1e-12          4.1125e-14    15.7084909090909    36.27006           26.6854254545455    -0.00444545454545455     -0.00815                                  163.445681818182    242.974745454545    0.6726784            -46.687438221602    -74.0243190502437    
2022-04-22T17:09:08Z    31.6636666666667    -64.1648333333333    585       -580.136549176792    1e-12          4.1067e-14    15.6976045454545    36.2676181818182   26.6860518181818    -0.00444545454545455     -0.00825                                  163.212             243.030218181818    0.671579927272727    -46.687438221602    -74.0243190502437    
2022-04-22T17:09:08Z    31.6636666666667    -64.1648333333333    585.5     -580.600983086154    1e-12          4.1096e-14    15.6839             36.2650409090909   26.6871618181818    -0.00378181818181818     -0.00835                                  163.0015            243.0993            0.670521745454545    -46.687438221602    -74.0243190502437    
2022-04-22T17:09:08Z    31.6636666666667    -64.1648333333333    586       -581.110472813217    1e-12          4.098e-14     15.6690590909091    36.26244           26.68858            -0.00378181818181818     -0.00835                                  162.828181818182    243.1736            0.669603509090909    -46.687438221602    -74.0243190502437    
2022-04-22T17:09:08Z    31.6636666666667    -64.1648333333333    586.5     -581.625902845408    1e-12          4.0951e-14    15.6540272727273    36.2597554545454   26.6899854545455    -0.00311818181818182     -0.00825                                  162.722772727273    243.2491            0.668962845454546    -46.687438221602    -74.0243190502437    
2022-04-22T17:09:08Z    31.6636666666667    -64.1648333333333    587       -582.087362640623    1e-12          4.0864e-14    15.6379954545455    36.2569572727273   26.6915081818182    -0.00378181818181818     -0.00835                                  162.663227272727    243.3295            0.668502390909091    -46.687438221602    -74.0243190502437    
2022-04-22T17:09:08Z    31.6636666666667    -64.1648333333333    587.5     -582.597343840683    1e-12          4.0807e-14    15.6204181818182    36.25415           26.6933481818182    -0.00311818181818182     -0.00845                                  162.656045454545    243.417227272727    0.668236945454546    -46.687438221602    -74.0243190502437    
2022-04-22T17:09:08Z    31.6636666666667    -64.1648333333333    588       -583.109799413009    1e-12          4.0807e-14    15.6031090909091    36.2513427272727   26.6951563636364    -0.00444545454545455     -0.00930454545454545                      162.864863636364    243.503763636364    0.6688588            -46.687438221602    -74.0243190502437    
2022-04-22T17:09:08Z    31.6636666666667    -64.1648333333333    588.5     -583.622253722327    1e-12          4.0778e-14    15.5868045454545    36.2487818181818   26.6969081818182    -0.00378181818181818     -0.01025                                  163.129272727273    243.585018181818    0.669713809090909    -46.687438221602    -74.0243190502437    
2022-04-22T17:09:08Z    31.6636666666667    -64.1648333333333    589       -584.107970107796    1e-12          4.0778e-14    15.5700318181818    36.2458890909091   26.6984627272727    -0.00444545454545455     -0.0103                                   163.387045454545    243.669227272727    0.670541709090909    -46.687438221602    -74.0243190502437    
2022-04-22T17:09:08Z    31.6636666666667    -64.1648333333333    589.5     -584.593685355935    1e-12          4.0807e-14    15.5530681818182    36.2429645454545   26.7000663636364    -0.00510909090909091     -0.0103                                   163.658772727273    243.7544            0.6714208            -46.687438221602    -74.0243190502437    
2022-04-22T17:09:08Z    31.6636666666667    -64.1648333333333    590       -585.155152937163    1e-12          4.0807e-14    15.5356636363636    36.2401681818182   26.7018463636364    -0.00577272727272727     -0.0103                                   163.958227272727    243.841409090909    0.6724088            -46.687438221602    -74.0243190502437    
2022-04-22T17:09:08Z    31.6636666666667    -64.1648333333333    590.5     -585.432420316891    1e-12          4.0922e-14    15.52175            36.2386654545454   26.7037627272727    -0.00577272727272727     -0.0103                                   164.273363636364    243.910127272727    0.673501072727273    -46.687438221602    -74.0243190502437    
2022-04-22T17:09:08Z    31.6636666666667    -64.1648333333333    591       -586.059736391697    1e-12          4.1067e-14    15.5122909090909    36.2373218181818   26.7048736363636    -0.00577272727272727     -0.0103                                   164.584727272727    243.957381818182    0.674646981818182    -46.687438221602    -74.0243190502437    
2022-04-22T17:09:08Z    31.6636666666667    -64.1648333333333    591.5     -586.52415701374     1e-12          4.1096e-14    15.5040818181818    36.2358590909091   26.7055627272727    -0.00510909090909091     -0.0104                                   164.911181818182    243.9991            0.675870363636364    -46.687438221602    -74.0243190502437    
2022-04-22T17:09:08Z    31.6636666666667    -64.1648333333333    592       -587.054427048651    1e-12          4.1096e-14    15.4962954545455    36.2344763636364   26.7062281818182    -0.00444545454545455     -0.0105                                   165.256545454545    244.038590909091    0.6771767            -46.687438221602    -74.0243190502437    
2022-04-22T17:09:08Z    31.6636666666667    -64.1648333333333    592.5     -587.519835669534    1e-12          4.1067e-14    15.4892363636364    36.2331990909091   26.7068272727273    -0.00378181818181818     -0.0105                                   165.624863636364    244.074481818182    0.6785826            -46.687438221602    -74.0243190502437    
2022-04-22T17:09:08Z    31.6636666666667    -64.1648333333333    593       -588.031783944204    1e-12          4.1067e-14    15.4838409090909    36.2320181818182   26.70715            -0.00378181818181818     -0.0105                                   165.957409090909    244.102436363636    0.679866             -46.687438221602    -74.0243190502437    
2022-04-22T17:09:08Z    31.6636666666667    -64.1648333333333    593.5     -588.54472117815     1e-12          4.1038e-14    15.4783272727273    36.23092           26.7075363636364    -0.00179090909090909     -0.0105                                   166.050454545455    244.1308            0.680168872727273    -46.687438221602    -74.0243190502437    
2022-04-22T17:09:08Z    31.6636666666667    -64.1648333333333    594       -589.009136226315    1e-12          4.09365e-14   15.4728818181818    36.2298472727273   26.7079027272727    -0.00179090909090909     -0.0105                                   166.077272727273    244.158981818182    0.680202663636364    -46.687438221602    -74.0243190502437    
2022-04-22T17:09:08Z    31.6636666666667    -64.1648333333333    594.5     -589.516129716475    1e-12          4.0893e-14    15.4680272727273    36.2291027272727   26.7084636363636    -0.00112727272727273     -0.0105                                   166.097318181818    244.183490909091    0.680216345454545    -46.687438221602    -74.0243190502437    
2022-04-22T17:09:08Z    31.6636666666667    -64.1648333333333    595       -590.053323611335    1e-12          4.08785e-14   15.4635636363636    36.2283754545454   26.7089172727273    -0.000463636363636364    -0.0105                                   166.131045454545    244.206190909091    0.680291272727273    -46.687438221602    -74.0243190502437    
2022-04-22T17:09:08Z    31.6636666666667    -64.1648333333333    595.5     -590.541995559474    1e-12          4.0807e-14    15.4598681818182    36.2278690909091   26.7093781818182    -0.000463636363636364    -0.0105                                   166.126090909091    244.225036363636    0.680220354545455    -46.687438221602    -74.0243190502437    
2022-04-22T17:09:08Z    31.6636666666667    -64.1648333333333    596       -591.027200595073    1e-12          4.075e-14     15.4569863636364    36.2273227272727   26.7096054545455    -0.000463636363636364    -0.0105                                   166.078363636364    244.24              0.679984336363636    -46.687438221602    -74.0243190502437    
2022-04-22T17:09:08Z    31.6636666666667    -64.1648333333333    596.5     -591.53666468117     1e-12          4.075e-14     15.4534590909091    36.2265818181818   26.70984            -0.000463636363636364    -0.0105                                   166.022636363636    244.258354545455    0.679701790909091    -46.687438221602    -74.0243190502437    
2022-04-22T17:09:08Z    31.6636666666667    -64.1648333333333    597       -592.073853336961    1e-12          4.0692e-14    15.4489681818182    36.2257163636364   26.7101690909091    -0.00112727272727273     -0.0105                                   165.974454545455    244.281563636364    0.679442990909091    -46.687438221602    -74.0243190502437    
2022-04-22T17:09:08Z    31.6636666666667    -64.1648333333333    597.5     -592.538260469829    1e-12          4.075e-14     15.4442681818182    36.2249809090909   26.7106836363636    -0.00179090909090909     -0.0105                                   165.920818181818    244.3055            0.679155781818182    -46.687438221602    -74.0243190502437    
2022-04-22T17:09:08Z    31.6636666666667    -64.1648333333333    598       -592.955136774494    1e-12          4.098e-14     15.4394863636364    36.2241863636364   26.7111318181818    -0.00245454545454545     -0.0105                                   165.875772727273    244.329954545455    0.678905             -46.687438221602    -74.0243190502437    
2022-04-22T17:09:08Z    31.6636666666667    -64.1648333333333    598.5     -593.509650273429    1e-12          4.1038e-14    15.4347363636364    36.2234681818182   26.7116363636364    -0.00311818181818182     -0.0105                                   165.829090909091    244.354027272727    0.678646681818182    -46.687438221602    -74.0243190502437    
2022-04-22T17:09:08Z    31.6636666666667    -64.1648333333333    599       -593.979995380933    1e-12          4.1125e-14    15.4299818181818    36.2226381818182   26.71208            -0.00378181818181818     -0.0105                                   165.772045454545    244.378354545455    0.678346163636364    -46.687438221602    -74.0243190502437    
2022-04-22T17:09:08Z    31.6636666666667    -64.1648333333333    599.5     -594.535496331952    1e-12          4.1096e-14    15.42475            36.2216536363636   26.7125763636364    -0.00444545454545455     -0.0105                                   165.698             244.404990909091    0.677968972727273    -46.687438221602    -74.0243190502437    
2022-04-22T17:09:08Z    31.6636666666667    -64.1648333333333    600       -594.957319588123    1e-12          4.1125e-14    15.4194454545455    36.2207890909091   26.7131127272727    -0.00444545454545455     -0.0105                                   165.569863636364    244.432045454545    0.677369981818182    -46.687438221602    -74.0243190502437    
2022-04-22T17:09:08Z    31.6636666666667    -64.1648333333333    600.5     -595.506876766743    1e-12          4.1096e-14    15.4140909090909    36.2199081818182   26.7136445454545    -0.00444545454545455     -0.0105                                   165.385863636364    244.459336363636    0.676542309090909    -46.687438221602    -74.0243190502437    
2022-04-22T17:09:08Z    31.6636666666667    -64.1648333333333    601       -595.974246764287    1e-12          4.09945e-14   15.4079909090909    36.2186327272727   26.7140854545455    -0.00378181818181818     -0.0105909090909091                       165.206045454545    244.491081818182    0.675724963636364    -46.687438221602    -74.0243190502437    
2022-04-22T17:09:08Z    31.6636666666667    -64.1648333333333    601.5     -596.465875294468    1e-12          4.098e-14     15.3981909090909    36.2169581818182   26.7150254545455    -0.00378181818181818     -0.0106818181818182                       165.064954545455    244.540781818182    0.675008245454546    -46.687438221602    -74.0243190502437    
2022-04-22T17:09:08Z    31.6636666666667    -64.1648333333333    602       -596.948591010119    1e-12          4.0807e-14    15.3873727272727    36.2152290909091   26.7162090909091    -0.00444545454545455     -0.0107727272727273                       164.925954545455    244.595227272727    0.674292963636364    -46.687438221602    -74.0243190502437    
2022-04-22T17:09:08Z    31.6636666666667    -64.1648333333333    602.5     -597.461506151202    1e-12          4.0721e-14    15.3767             36.2136672727273   26.7174254545455    -0.00510909090909091     -0.0107727272727273                       164.772954545455    244.648881818182    0.6735182            -46.687438221602    -74.0243190502437    
2022-04-22T17:09:08Z    31.6636666666667    -64.1648333333333    603       -597.925901207503    1e-12          4.075e-14     15.3659454545455    36.2119209090909   26.7185336363636    -0.00444545454545455     -0.0108636363636364                       164.601863636364    244.703263636364    0.672666772727273    -46.687438221602    -74.0243190502437    
2022-04-22T17:09:08Z    31.6636666666667    -64.1648333333333    603.5     -598.438813933761    1e-12          4.0692e-14    15.3550636363636    36.2101609090909   26.7197036363636    -0.00444545454545455     -0.0108636363636364                       164.441272727273    244.758309090909    0.671851627272727    -46.687438221602    -74.0243190502437    
2022-04-22T17:09:08Z    31.6636666666667    -64.1648333333333    604       -598.993312749384    1e-12          4.0721e-14    15.3418136363636    36.2079327272727   26.7209445454545    -0.00444545454545455     -0.0108636363636364                       164.3195            244.825345454545    0.671171009090909    -46.687438221602    -74.0243190502437    
2022-04-22T17:09:08Z    31.6636666666667    -64.1648333333333    604.5     -599.458694538022    1e-12          4.0692e-14    15.3263636363636    36.2054281818182   26.7224863636364    -0.00378181818181818     -0.0108636363636364                       164.246727272727    244.903509090909    0.670658309090909    -46.687438221602    -74.0243190502437    
2022-04-22T17:09:08Z    31.6636666666667    -64.1648333333333    605       -599.97160346813     1e-12          4.0721e-14    15.31105            36.2030145454546   26.7240063636364    -0.00311818181818182     -0.0108636363636364                       164.177545454545    244.980981818182    0.670163418181818    -46.687438221602    -74.0243190502437    
2022-04-22T17:09:08Z    31.6636666666667    -64.1648333333333    605.5     -600.456786421049    1e-12          4.0864e-14    15.2961318181818    36.20055           26.7254609090909    -0.00444545454545455     -0.0108636363636364                       164.147363636364    245.056536363636    0.669833372727273    -46.687438221602    -74.0243190502437    
2022-04-22T17:09:08Z    31.6636666666667    -64.1648333333333    606       -600.942958405251    1e-12          4.1096e-14    15.2806409090909    36.1978209090909   26.7268263636364    -0.00577272727272727     -0.0108636363636364                       164.142727272727    245.135527272727    0.669598118181818    -46.687438221602    -74.0243190502437    
2022-04-22T17:09:08Z    31.6636666666667    -64.1648333333333    606.5     -601.407345649342    1e-12          4.1183e-14    15.2657545454545    36.1954727272727   26.7283481818182    -0.0071                  -0.0107727272727273                       164.153772727273    245.210472727273    0.669427563636364    -46.687438221602    -74.0243190502437    
2022-04-22T17:09:08Z    31.6636666666667    -64.1648333333333    607       -601.87470233126     1e-12          4.1198e-14    15.2536954545455    36.1934463636364   26.7294881818182    -0.00809545454545454     -0.0106818181818182                       164.150363636364    245.271745454545    0.669248772727273    -46.687438221602    -74.0243190502437    
2022-04-22T17:09:08Z    31.6636666666667    -64.1648333333333    607.5     -602.378693852743    1e-12          4.1125e-14    15.24305            36.1916345454545   26.7304136363636    -0.00809545454545454     -0.0105909090909091                       164.160272727273    245.326209090909    0.669140309090909    -46.687438221602    -74.0243190502437    
2022-04-22T17:09:08Z    31.6636666666667    -64.1648333333333    608       -602.87327765426     1e-12          4.10525e-14   15.2331318181818    36.1898136363636   26.7312363636364    -0.00743181818181818     -0.0105909090909091                       164.191636363636    245.377027272727    0.669128418181818    -46.687438221602    -74.0243190502437    
2022-04-22T17:09:08Z    31.6636666666667    -64.1648333333333    608.5     -603.407466437383    1e-12          4.0922e-14    15.2236772727273    36.1881336363636   26.7320181818182    -0.00809545454545454     -0.0105                                   164.264818181818    245.425318181818    0.669298963636364    -46.687438221602    -74.0243190502437    
2022-04-22T17:09:08Z    31.6636666666667    -64.1648333333333    609       -603.874818616102    1e-12          4.0864e-14    15.2148045454545    36.1866618181818   26.7328290909091    -0.00809545454545454     -0.0105                                   164.356954545455    245.470418181818    0.669557672727273    -46.687438221602    -74.0243190502437    
2022-04-22T17:09:08Z    31.6636666666667    -64.1648333333333    609.5     -604.406034340429    1e-12          4.0807e-14    15.2082181818182    36.1854363636364   26.7333809090909    -0.00743181818181818     -0.0105                                   164.4625            245.504627272727    0.6698927            -46.687438221602    -74.0243190502437    
2022-04-22T17:09:08Z    31.6636666666667    -64.1648333333333    610       -604.894672452391    1e-12          4.075e-14     15.2044590909091    36.1847190909091   26.7336863636364    -0.00743181818181818     -0.0105                                   164.653409090909    245.524209090909    0.670621545454545    -46.687438221602    -74.0243190502437    
2022-04-22T17:09:08Z    31.6636666666667    -64.1648333333333    610.5     -605.359050836347    1e-12          4.0692e-14    15.2017363636364    36.1840545454545   26.7338154545455    -0.00743181818181818     -0.0105                                   164.859681818182    245.538727272727    0.671422163636364    -46.687438221602    -74.0243190502437    
2022-04-22T17:09:08Z    31.6636666666667    -64.1648333333333    611       -605.90263956229     1e-12          4.0721e-14    15.1979727272727    36.1832872727273   26.7340809090909    -0.00610454545454545     -0.0105909090909091                       165.088090909091    245.558490909091    0.672298336363636    -46.687438221602    -74.0243190502437    
2022-04-22T17:09:08Z    31.6636666666667    -64.1648333333333    611.5     -606.367015686431    1e-12          4.0692e-14    15.1946             36.1825490909091   26.7343445454546    -0.00477727272727273     -0.0106818181818182                       165.311272727273    245.576090909091    0.673157081818182    -46.687438221602    -74.0243190502437    
2022-04-22T17:09:08Z    31.6636666666667    -64.1648333333333    612       -606.846737897744    1e-12          4.0692e-14    15.1897818181818    36.1811318181818   26.7343909090909    -0.00345                 -0.0106818181818182                       165.538636363636    245.601927272727    0.674013963636364    -46.687438221602    -74.0243190502437    
2022-04-22T17:09:08Z    31.6636666666667    -64.1648333333333    612.5     -607.404679681247    1e-12          4.0778e-14    15.1824681818182    36.1792072727273   26.7345936363636    -0.00245454545454546     -0.0106818181818182                       165.7685            245.640618181818    0.674849636363636    -46.687438221602    -74.0243190502437    
2022-04-22T17:09:08Z    31.6636666666667    -64.1648333333333    613       -607.839348454104    1e-12          4.11685e-14   15.1728545454545    36.1774545454546   26.7353863636364    -0.00179090909090909     -0.0106818181818182                       165.988909090909    245.690045454545    0.675610690909091    -46.687438221602    -74.0243190502437    
2022-04-22T17:09:08Z    31.6636666666667    -64.1648333333333    613.5     -608.327978428964    1e-12          4.1242e-14    15.1627             36.1757018181818   26.73632            -0.00112727272727273     -0.0106818181818182                       166.193909090909    245.742081818182    0.6762995            -46.687438221602    -74.0243190502437    
2022-04-22T17:09:08Z    31.6636666666667    -64.1648333333333    614       -608.750268666433    1e-12          4.1213e-14    15.1518818181818    36.1739190909091   26.7373172727273    -0.000463636363636364    -0.0106818181818182                       166.371545454545    245.7975            0.676872445454546    -46.687438221602    -74.0243190502437    
2022-04-22T17:09:08Z    31.6636666666667    -64.1648333333333    614.5     -609.293848492948    1e-12          4.1242e-14    15.1412363636364    36.1721763636364   26.7383390909091    0.0002                   -0.0106818181818182                       166.495454545455    245.851918181818    0.677227672727273    -46.687438221602    -74.0243190502437    
2022-04-22T17:09:08Z    31.6636666666667    -64.1648333333333    615       -609.806733068742    1e-12          4.1154e-14    15.1306136363636    36.1704654545455   26.7393727272727    0.0002                   -0.0107727272727273                       166.568818181818    245.905981818182    0.677377890909091    -46.687438221602    -74.0243190502437    
2022-04-22T17:09:08Z    31.6636666666667    -64.1648333333333    615.5     -610.325062036879    1e-12          4.10815e-14   15.11945            36.1686072727273   26.7404372727273    0.0002                   -0.0108636363636364                       166.515954545455    245.962945454545    0.677001418181818    -46.687438221602    -74.0243190502437    
2022-04-22T17:09:08Z    31.6636666666667    -64.1648333333333    616       -610.834973703407    1e-12          4.1038e-14    15.1077681818182    36.1667718181818   26.7416136363636    0.0002                   -0.0109545454545455                       166.437772727273    246.022363636364    0.676520218181818    -46.687438221602    -74.0243190502437    
2022-04-22T17:09:08Z    31.6636666666667    -64.1648333333333    616.5     -611.308744878719    1e-12          4.098e-14     15.0970590909091    36.1650472727273   26.7426645454545    0.0002                   -0.0108636363636364                       166.318363636364    246.076963636364    0.675885118181818    -46.687438221602    -74.0243190502437    
2022-04-22T17:09:08Z    31.6636666666667    -64.1648333333333    617       -611.870140036789    1e-12          4.0864e-14    15.0865227272727    36.1634472727273   26.74373            -0.000463636363636364    -0.0107727272727273                       166.200909090909    246.1305            0.675263672727273    -46.687438221602    -74.0243190502437    
2022-04-22T17:09:08Z    31.6636666666667    -64.1648333333333    617.5     -612.346879174521    1e-12          4.0807e-14    15.0779             36.1626136363636   26.7449845454545    -0.00112727272727273     -0.0107727272727273                       166.0885            246.173581818182    0.674689181818182    -46.687438221602    -74.0243190502437    
2022-04-22T17:09:08Z    31.6636666666667    -64.1648333333333    618       -612.787478230392    1e-12          4.0778e-14    15.0724727272727    36.1622081818182   26.7458136363636    -0.00112727272727273     -0.0107727272727273                       165.955954545455    246.2009            0.6740697            -46.687438221602    -74.0243190502437    
2022-04-22T17:09:08Z    31.6636666666667    -64.1648333333333    618.5     -613.287977825132    1e-12          4.075e-14     15.0685545454545    36.1614290909091   26.7461690909091    -0.00112727272727273     -0.0108636363636364                       165.802545454545    246.221645454545    0.673389163636364    -46.687438221602    -74.0243190502437    
2022-04-22T17:09:08Z    31.6636666666667    -64.1648333333333    619       -613.765208752326    1e-12          4.0692e-14    15.0644545454545    36.1605            26.74638            -0.00112727272727273     -0.0109545454545455                       165.658636363636    246.243245454545    0.672747554545455    -46.687438221602    -74.0243190502437    
2022-04-22T17:09:08Z    31.6636666666667    -64.1648333333333    619.5     -614.275111951923    1e-12          4.0721e-14    15.0585454545455    36.1591654545455   26.7467190909091    -0.00112727272727273     -0.0109545454545455                       165.551590909091    246.274181818182    0.672226263636364    -46.687438221602    -74.0243190502437    
2022-04-22T17:09:08Z    31.6636666666667    -64.1648333333333    620       -614.878578291611    1e-12          4.075e-14     15.0512454545455    36.1574727272727   26.7470663636364    -0.00112727272727273     -0.0109545454545455                       165.495409090909    246.312618181818    0.671885109090909    -46.687438221602    -74.0243190502437    
2022-04-22T17:09:08Z    31.6636666666667    -64.1648333333333    620.5     -615.243429524784    1e-12          4.1154e-14    15.0428272727273    36.1558127272727   26.7476436363636    -0.00112727272727273     -0.0108636363636364                       165.476409090909    246.356372727273    0.671690436363636    -46.687438221602    -74.0243190502437    
2022-04-22T17:09:08Z    31.6636666666667    -64.1648333333333    621       -615.738477659831    1e-12          4.1154e-14    15.0315590909091    36.1527081818182   26.7478409090909    -0.00179090909090909     -0.0107727272727273                       165.481954545455    246.416718181818    0.671548172727273    -46.687438221602    -74.0243190502437    
2022-04-22T17:09:08Z    31.6636666666667    -64.1648333333333    621.5     -616.287979705195    1e-12          4.1154e-14    15.0172590909091    36.1502427272727   26.7491081818182    -0.00245454545454545     -0.0106818181818182                       165.515590909091    246.4904            0.671483572727273    -46.687438221602    -74.0243190502437    
2022-04-22T17:09:08Z    31.6636666666667    -64.1648333333333    622       -616.77361947676     1e-12          4.11105e-14   15.0026045454545    36.1478463636364   26.7504918181818    -0.00311818181818182     -0.0106818181818182                       165.573863636364    246.565545454545    0.671514454545455    -46.687438221602    -74.0243190502437    
2022-04-22T17:09:08Z    31.6636666666667    -64.1648333333333    622.5     -617.289950853634    1e-12          4.1038e-14    14.9878             36.1455227272727   26.7519554545455    -0.00311818181818182     -0.0107727272727273                       165.606363636364    246.641290909091    0.671438409090909    -46.687438221602    -74.0243190502437    
2022-04-22T17:09:08Z    31.6636666666667    -64.1648333333333    623       -617.754301452136    1e-12          4.1009e-14    14.9719863636364    36.1425490909091   26.7531109090909    -0.00245454545454545     -0.0108636363636364                       165.604590909091    246.7231            0.671208854545455    -46.687438221602    -74.0243190502437    
2022-04-22T17:09:08Z    31.6636666666667    -64.1648333333333    623.5     -618.237462590539    1e-12          4.0951e-14    14.9502136363636    36.13858           26.7548990909091    -0.00245454545454545     -0.0108636363636364                       165.615318181818    246.835163636364    0.670948172727273    -46.687438221602    -74.0243190502437    
2022-04-22T17:09:08Z    31.6636666666667    -64.1648333333333    624       -618.725573006333    1e-12          4.0864e-14    14.9258772727273    36.1350054545455   26.7574427272727    -0.00245454545454545     -0.0107727272727273                       165.624454545455    246.959036363636    0.670653745454545    -46.687438221602    -74.0243190502437    
2022-04-22T17:09:08Z    31.6636666666667    -64.1648333333333    624.5     -619.22655328325     1e-12          4.0807e-14    14.9015454545455    36.1315636363636   26.7601336363636    -0.00245454545454546     -0.0106818181818182                       165.587272727273    247.082954545455    0.670168436363636    -46.687438221602    -74.0243190502437    
2022-04-22T17:09:08Z    31.6636666666667    -64.1648333333333    625       -619.739908315998    1e-12          4.0778e-14    14.8795272727273    36.1285218181818   26.7626236363636    -0.00245454545454546     -0.0106818181818182                       165.421227272727    247.195109090909    0.669193909090909    -46.687438221602    -74.0243190502437    
2022-04-22T17:09:08Z    31.6636666666667    -64.1648333333333    625.5     -620.216629345551    1e-12          4.0721e-14    14.8588             36.1256763636364   26.7649654545455    -0.00245454545454546     -0.0106818181818182                       165.171363636364    247.3007            0.6679077            -46.687438221602    -74.0243190502437    
2022-04-22T17:09:08Z    31.6636666666667    -64.1648333333333    626       -620.735922343771    1e-12          4.0721e-14    14.8394863636364    36.1229118181818   26.7671109090909    -0.00245454545454546     -0.0106818181818182                       164.910772727273    247.3993            0.666586727272727    -46.687438221602    -74.0243190502437    
2022-04-22T17:09:08Z    31.6636666666667    -64.1648333333333    626.5     -621.227492114896    1e-12          4.0721e-14    14.82335            36.1215845454545   26.7695427272727    -0.00179090909090909     -0.0106818181818182                       164.671681818182    247.479854545455    0.665403772727273    -46.687438221602    -74.0243190502437    
2022-04-22T17:09:08Z    31.6636666666667    -64.1648333333333    627       -621.737871982261    1e-12          4.0778e-14    14.8101590909091    36.1195790909091   26.7708863636364    -0.00112727272727273     -0.0107727272727273                       164.436045454545    247.547609090909    0.664268027272727    -46.687438221602    -74.0243190502437    
2022-04-22T17:09:08Z    31.6636666666667    -64.1648333333333    627.5     -622.21458841495     1e-12          4.0893e-14    14.79745            36.1174681818182   26.7720627272727    -0.000463636363636364    -0.0108636363636364                       164.202272727273    247.613236363636    0.663146563636364    -46.687438221602    -74.0243190502437    
2022-04-22T17:09:08Z    31.6636666666667    -64.1648333333333    628       -622.667047233079    1e-12          4.1009e-14    14.7846090909091    36.1150318181818   26.7730481818182    0.0002                   -0.0108636363636364                       164.0035            247.6801            0.662163181818182    -46.687438221602    -74.0243190502437    
2022-04-22T17:09:08Z    31.6636666666667    -64.1648333333333    628.5     -623.18039373056     1e-12          4.10235e-14   14.7716363636364    36.1131518181818   26.7744636363636    0.0002                   -0.0108636363636364                       163.816954545455    247.746645454545    0.661233463636364    -46.687438221602    -74.0243190502437    
2022-04-22T17:09:08Z    31.6636666666667    -64.1648333333333    629       -623.657106847264    1e-12          4.098e-14     14.7630818181818    36.1118909090909   26.7753363636364    0.0002                   -0.0109545454545455                       163.635863636364    247.790854545455    0.660386009090909    -46.687438221602    -74.0243190502437    
2022-04-22T17:09:08Z    31.6636666666667    -64.1648333333333    629.5     -624.146194550851    1e-12          4.098e-14     14.7571409090909    36.1106227272727   26.7756754545455    0.0002                   -0.0110454545454545                       163.482454545455    247.8223            0.659679263636364    -46.687438221602    -74.0243190502437    
2022-04-22T17:09:08Z    31.6636666666667    -64.1648333333333    630       -624.667952832246    1e-12          4.0922e-14    14.7516772727273    36.10943           26.7759663636364    0.0002                   -0.0111363636363636                       163.378318181818    247.851290909091    0.659181727272727    -46.687438221602    -74.0243190502437    
2022-04-22T17:09:08Z    31.6636666666667    -64.1648333333333    630.5     -625.142187398373    1e-12          4.0893e-14    14.7464             36.10838           26.7763309090909    0.0002                   -0.0112272727272727                       163.391409090909    247.879145454545    0.659161454545454    -46.687438221602    -74.0243190502437    
2022-04-22T17:09:08Z    31.6636666666667    -64.1648333333333    631       -625.684734171941    1e-12          4.0922e-14    14.7414045454545    36.1073854545455   26.7766736363636    0.0002                   -0.0113181818181818                       163.469818181818    247.905536363636    0.659407018181818    -46.687438221602    -74.0243190502437    
2022-04-22T17:09:08Z    31.6636666666667    -64.1648333333333    631.5     -626.167876818374    1e-12          4.0864e-14    14.7358545454545    36.1062945454545   26.7770563636364    0.0002                   -0.0114090909090909                       163.529409090909    247.934854545455    0.659569154545455    -46.687438221602    -74.0243190502437    
2022-04-22T17:09:08Z    31.6636666666667    -64.1648333333333    632       -626.674779367651    1e-12          4.0836e-14    14.7299818181818    36.1052454545455   26.7775354545455    0.0002                   -0.0115                                   163.547136363636    247.965654545455    0.659558236363636    -46.687438221602    -74.0243190502437    
2022-04-22T17:09:08Z    31.6636666666667    -64.1648333333333    632.5     -627.154949581473    1e-12          4.0864e-14    14.7241409090909    36.1041745454545   26.7780054545455    0.0002                   -0.0115                                   163.488272727273    247.996327272727    0.659239936363636    -46.687438221602    -74.0243190502437    
2022-04-22T17:09:08Z    31.6636666666667    -64.1648333333333    633       -627.646999121141    1e-12          4.0836e-14    14.7183454545455    36.1031427272727   26.7784890909091    -0.000463636363636364    -0.0115                                   163.401454545455    248.026690909091    0.658808918181818    -46.687438221602    -74.0243190502437    
2022-04-22T17:09:08Z    31.6636666666667    -64.1648333333333    633.5     -628.156868177211    1e-12          4.0807e-14    14.7124909090909    36.1023290909091   26.7791236363636    -0.000463636363636364    -0.0115                                   163.326727272727    248.056990909091    0.658426736363636    -46.687438221602    -74.0243190502437    
2022-04-22T17:09:08Z    31.6636666666667    -64.1648333333333    634       -628.631094766768    1e-12          4.0864e-14    14.7073272727273    36.1015627272727   26.7796545454545    -0.000463636363636364    -0.0115                                   163.28              248.083781818182    0.658166490909091    -46.687438221602    -74.0243190502437    
2022-04-22T17:09:08Z    31.6636666666667    -64.1648333333333    634.5     -629.234024281642    1e-12          4.0893e-14    14.7034227272727    36.1012572727273   26.7802909090909    -0.000463636363636364    -0.0115                                   163.253909090909    248.103690909091    0.658005281818182    -46.687438221602    -74.0243190502437    
2022-04-22T17:09:08Z    31.6636666666667    -64.1648333333333    635       -629.638946403058    1e-12          4.098e-14     14.6999863636364    36.1004518181818   26.7804572727273    -0.00112727272727273     -0.0115                                   163.215772727273    248.122263636364    0.6578017            -46.687438221602    -74.0243190502437    
2022-04-22T17:09:08Z    31.6636666666667    -64.1648333333333    635.5     -630.073568533221    1e-12          4.0951e-14    14.6957909090909    36.0995254545455   26.7806554545455    -0.00179090909090909     -0.0115                                   163.157090909091    248.144754545455    0.657505618181818    -46.687438221602    -74.0243190502437    
2022-04-22T17:09:08Z    31.6636666666667    -64.1648333333333    636       -630.62897270777     1e-12          4.0893e-14    14.6911318181818    36.0984672727273   26.7808627272727    -0.00245454545454545     -0.0115                                   163.087272727273    248.169681818182    0.657158654545455    -46.687438221602    -74.0243190502437    
2022-04-22T17:09:08Z    31.6636666666667    -64.1648333333333    636.5     -631.094283437177    1e-12          4.0864e-14    14.6856227272727    36.0971336363636   26.78105            -0.00311818181818182     -0.0115                                   163.010590909091    248.199227272727    0.656763236363636    -46.687438221602    -74.0243190502437    
2022-04-22T17:09:08Z    31.6636666666667    -64.1648333333333    637       -631.607114052136    1e-12          4.0836e-14    14.6783227272727    36.0954827272727   26.7813954545455    -0.00378181818181818     -0.0115                                   162.926318181818    248.238045454545    0.656319290909091    -46.687438221602    -74.0243190502437    
2022-04-22T17:09:08Z    31.6636666666667    -64.1648333333333    637.5     -632.119943392424    1e-12          4.07925e-14   14.6693954545455    36.09396           26.7821845454545    -0.00444545454545455     -0.0114090909090909                       162.864227272727    248.284581818182    0.655945363636364    -46.687438221602    -74.0243190502437    
2022-04-22T17:09:08Z    31.6636666666667    -64.1648333333333    638       -632.633266482275    1e-12          4.0807e-14    14.6597545454545    36.0924318181818   26.7831109090909    -0.00510909090909091     -0.0113181818181818                       162.854909090909    248.334690909091    0.655775690909091    -46.687438221602    -74.0243190502437    
2022-04-22T17:09:08Z    31.6636666666667    -64.1648333333333    638.5     -633.073822405221    1e-12          4.0778e-14    14.6491636363636    36.0908336363636   26.7841890909091    -0.00444545454545455     -0.0113181818181818                       162.842181818182    248.389490909091    0.655580536363636    -46.687438221602    -74.0243190502437    
2022-04-22T17:09:08Z    31.6636666666667    -64.1648333333333    639       -633.57476800307     1e-12          4.075e-14     14.6385090909091    36.0892909090909   26.7853245454545    -0.00444545454545455     -0.0113181818181818                       162.774727272727    248.444563636364    0.655165863636364    -46.687438221602    -74.0243190502437    
2022-04-22T17:09:08Z    31.6636666666667    -64.1648333333333    639.5     -634.070267351908    1e-12          4.0807e-14    14.6279             36.0877009090909   26.7864272727273    -0.00444545454545455     -0.0113181818181818                       162.691909090909    248.499636363636    0.654687663636364    -46.687438221602    -74.0243190502437    
2022-04-22T17:09:08Z    31.6636666666667    -64.1648333333333    640       -634.631600844915    1e-12          4.0807e-14    14.6167681818182    36.0859836363636   26.7875509090909    -0.00444545454545455     -0.0113181818181818                       162.597909090909    248.557381818182    0.654164372727273    -46.687438221602    -74.0243190502437    
2022-04-22T17:09:08Z    31.6636666666667    -64.1648333333333    640.5     -635.144422707168    1e-12          4.0864e-14    14.6051318181818    36.08444           26.7888518181818    -0.00378181818181818     -0.0113181818181818                       162.512772727273    248.617354545455    0.653665663636364    -46.687438221602    -74.0243190502437    
2022-04-22T17:09:08Z    31.6636666666667    -64.1648333333333    641       -635.561213286002    1e-12          4.0951e-14    14.5935318181818    36.0826718181818   26.7900672727273    -0.00311818181818182     -0.0113181818181818                       162.455863636364    248.677527272727    0.653274427272727    -46.687438221602    -74.0243190502437    
2022-04-22T17:09:08Z    31.6636666666667    -64.1648333333333    641.5     -636.050767894085    1e-12          4.1038e-14    14.5812454545455    36.0809709090909   26.79142            -0.00245454545454546     -0.0113181818181818                       162.410409090909    248.740918181818    0.652924909090909    -46.687438221602    -74.0243190502437    
2022-04-22T17:09:08Z    31.6636666666667    -64.1648333333333    642       -636.539331352997    1e-12          4.1125e-14    14.56885            36.0792945454545   26.7928154545455    -0.00311818181818182     -0.0113181818181818                       162.350363636364    248.804890909091    0.6525231            -46.687438221602    -74.0243190502437    
2022-04-22T17:09:08Z    31.6636666666667    -64.1648333333333    642.5     -637.053138488373    1e-12          4.1096e-14    14.5562863636364    36.0772809090909   26.7940381818182    -0.00378181818181818     -0.0113181818181818                       162.308272727273    248.870363636364    0.652190418181818    -46.687438221602    -74.0243190502437    
2022-04-22T17:09:08Z    31.6636666666667    -64.1648333333333    643       -637.56298438183     1e-12          4.1125e-14    14.5411772727273    36.0748781818182   26.7954790909091    -0.00378181818181818     -0.0114090909090909                       162.248545454545    248.948981818182    0.6517407            -46.687438221602    -74.0243190502437    
2022-04-22T17:09:08Z    31.6636666666667    -64.1648333333333    643.5     -638.024319594738    1e-12          4.1038e-14    14.5246090909091    36.0723081818182   26.7970381818182    -0.00311818181818182     -0.0115                                   162.187272727273    249.035163636364    0.651265727272727    -46.687438221602    -74.0243190502437    
2022-04-22T17:09:08Z    31.6636666666667    -64.1648333333333    644       -638.538123049009    1e-12          4.1038e-14    14.5070363636364    36.0697836363636   26.7988709090909    -0.00311818181818182     -0.0115                                   162.129272727273    249.126272727273    0.650795245454545    -46.687438221602    -74.0243190502437    
2022-04-22T17:09:08Z    31.6636666666667    -64.1648333333333    644.5     -639.050935245948    1e-12          4.0951e-14    14.4886909090909    36.0671754545455   26.8008163636364    -0.00378181818181818     -0.0115                                   162.064090909091    249.221363636364    0.650284681818182    -46.687438221602    -74.0243190502437    
2022-04-22T17:09:08Z    31.6636666666667    -64.1648333333333    645       -639.516227062473    1e-12          4.0836e-14    14.4701136363636    36.0644790909091   26.8027381818182    -0.00378181818181818     -0.0115                                   161.962227272727    249.317763636364    0.649624145454545    -46.687438221602    -74.0243190502437    
2022-04-22T17:09:08Z    31.6636666666667    -64.1648333333333    645.5     -640.02903684527     1e-12          4.0807e-14    14.45145            36.0618181818182   26.8047127272727    -0.00444545454545455     -0.0115                                   161.821954545455    249.414472727273    0.648794863636364    -46.687438221602    -74.0243190502437    
2022-04-22T17:09:08Z    31.6636666666667    -64.1648333333333    646       -640.518580901117    1e-12          4.0721e-14    14.4332954545455    36.0591481818182   26.8066227272727    -0.00510909090909091     -0.0115                                   161.673590909091    249.5087            0.647952381818182    -46.687438221602    -74.0243190502437    
2022-04-22T17:09:08Z    31.6636666666667    -64.1648333333333    646.5     -641.007133829293    1e-12          4.0721e-14    14.4147590909091    36.0565918181818   26.8085981818182    -0.00510909090909091     -0.0115                                   161.509318181818    249.604718181818    0.647049454545454    -46.687438221602    -74.0243190502437    
2022-04-22T17:09:08Z    31.6636666666667    -64.1648333333333    647       -641.520929889965    1e-12          4.0692e-14    14.3963090909091    36.0539018181818   26.8104854545455    -0.00510909090909091     -0.0115                                   161.333863636364    249.700772727273    0.6460964            -46.687438221602    -74.0243190502437    
2022-04-22T17:09:08Z    31.6636666666667    -64.1648333333333    647.5     -642.007005529321    1e-12          4.07065e-14   14.3785954545455    36.0515927272727   26.8125218181818    -0.00444545454545455     -0.0115                                   161.175136363636    249.792454545455    0.645223636363636    -46.687438221602    -74.0243190502437    
2022-04-22T17:09:08Z    31.6636666666667    -64.1648333333333    648       -642.493080030979    1e-12          4.0893e-14    14.3634409090909    36.0500409090909   26.8145127272727    -0.00378181818181818     -0.0115                                   161.018681818182    249.8703            0.644390336363636    -46.687438221602    -74.0243190502437    
2022-04-22T17:09:08Z    31.6636666666667    -64.1648333333333    648.5     -642.958364126814    1e-12          4.1154e-14    14.3526954545455    36.0486727272727   26.8157409090909    -0.00378181818181818     -0.0115                                   160.862590909091    249.926154545455    0.643625272727273    -46.687438221602    -74.0243190502437    
2022-04-22T17:09:08Z    31.6636666666667    -64.1648333333333    649       -643.471165388624    1e-12          4.1271e-14    14.3439363636364    36.0473972727273   26.8166672727273    -0.00444545454545455     -0.0115                                   160.729681818182    249.972045454545    0.642976118181818    -46.687438221602    -74.0243190502437    
2022-04-22T17:09:08Z    31.6636666666667    -64.1648333333333    649.5     -644.032473423711    1e-12          4.133e-14     14.3366454545455    36.0459590909091   26.8171509090909    -0.00510909090909091     -0.0115                                   160.631318181818    250.011036363636    0.642479927272727    -46.687438221602    -74.0243190502437    
2022-04-22T17:09:08Z    31.6636666666667    -64.1648333333333    650       -644.47646997168     1e-12          4.1301e-14    14.3296545454545    36.0442718181818   26.8173754545455    -0.00510909090909091     -0.0115                                   160.581227272727    250.048945454545    0.6421879            -46.687438221602    -74.0243190502437    
2022-04-22T17:09:08Z    31.6636666666667    -64.1648333333333    650.5     -644.914525836733    1e-12          4.1271e-14    14.3207863636364    36.0423036363636   26.8177609090909    -0.00577272727272727     -0.0115                                   160.559272727273    250.096590909091    0.641979236363636    -46.687438221602    -74.0243190502437    
2022-04-22T17:09:08Z    31.6636666666667    -64.1648333333333    651       -645.472860099606    1e-12          4.1213e-14    14.311              36.0404754545455   26.8184254545455    -0.00577272727272727     -0.0115                                   160.569363636364    250.148445454545    0.641895490909091    -46.687438221602    -74.0243190502437    
2022-04-22T17:09:08Z    31.6636666666667    -64.1648333333333    651.5     -645.898539475874    1e-12          4.1067e-14    14.2999045454545    36.0386963636364   26.8193745454545    -0.00577272727272727     -0.0115                                   160.593772727273    250.206954545455    0.641844781818182    -46.687438221602    -74.0243190502437    
2022-04-22T17:09:08Z    31.6636666666667    -64.1648333333333    652       -646.45390124852     1e-12          4.1038e-14    14.2897590909091    36.0372054545455   26.8203981818182    -0.00643636363636364     -0.0115                                   160.599409090909    250.260190909091    0.641730918181818    -46.687438221602    -74.0243190502437    
2022-04-22T17:09:08Z    31.6636666666667    -64.1648333333333    652.5     -646.961744134103    1e-12          4.0893e-14    14.2805045454545    36.0358818181818   26.8213845454545    -0.0071                  -0.0115                                   160.611863636364    250.308681818182    0.641656854545455    -46.687438221602    -74.0243190502437    
2022-04-22T17:09:08Z    31.6636666666667    -64.1648333333333    653       -647.432957862639    1e-12          4.0778e-14    14.2703909090909    36.0342554545455   26.8222718181818    -0.00643636363636364     -0.0115                                   160.611409090909    250.362327272727    0.641516390909091    -46.687438221602    -74.0243190502437    
2022-04-22T17:09:08Z    31.6636666666667    -64.1648333333333    653.5     -647.988315519186    1e-12          4.075e-14     14.2613318181818    36.0328572727273   26.8230645454545    -0.00577272727272727     -0.0115                                   160.551454545455    250.410209090909    0.6411442            -46.687438221602    -74.0243190502437    
2022-04-22T17:09:08Z    31.6636666666667    -64.1648333333333    654       -648.42883881427     1e-12          4.07355e-14   14.2490590909091    36.0306309090909   26.8238718181818    -0.00510909090909091     -0.0115                                   160.526409090909    250.474754545455    0.640891081818182    -46.687438221602    -74.0243190502437    
2022-04-22T17:09:08Z    31.6636666666667    -64.1648333333333    654.5     -648.917868069074    1e-12          4.0692e-14    14.2361772727273    36.02766           26.8247636363636    -0.00444545454545455     -0.0115                                   160.483318181818    250.544463636364    0.640544036363636    -46.687438221602    -74.0243190502437    
2022-04-22T17:09:08Z    31.6636666666667    -64.1648333333333    655       -649.431644518296    1e-12          4.07355e-14   14.2191863636364    36.0250109090909   26.8263427272727    -0.00444545454545455     -0.0115                                   160.446681818182    250.633845454545    0.640173927272727    -46.687438221602    -74.0243190502437    
2022-04-22T17:09:08Z    31.6636666666667    -64.1648333333333    655.5     -649.992936421169    1e-12          4.075e-14     14.2016090909091    36.0228118181818   26.8283581818182    -0.00444545454545455     -0.0115                                   160.410818181818    250.725463636364    0.639791081818182    -46.687438221602    -74.0243190502437    
2022-04-22T17:09:08Z    31.6636666666667    -64.1648333333333    656       -650.201811852819    1e-12          4.0951e-14    14.1858272727273    36.0210863636364   26.83039            -0.00444545454545455     -0.0115                                   160.383090909091    250.807345454545    0.6394707            -46.687438221602    -74.0243190502437    
2022-04-22T17:09:08Z    31.6636666666667    -64.1648333333333    656.5     -650.923469904696    1e-12          4.1301e-14    14.1715545454545    36.0192927272727   26.8320645454545    -0.00378181818181818     -0.0115                                   160.331409090909    250.8821            0.639074154545455    -46.687438221602    -74.0243190502437    
2022-04-22T17:09:08Z    31.6636666666667    -64.1648333333333    657       -651.388735080332    1e-12          4.133e-14     14.1588545454545    36.0175345454546   26.8334036363636    -0.00311818181818182     -0.0115                                   160.2725            250.948754545455    0.638671536363636    -46.687438221602    -74.0243190502437    
2022-04-22T17:09:08Z    31.6636666666667    -64.1648333333333    657.5     -651.901515489986    1e-12          4.1271e-14    14.1465090909091    36.0157436363636   26.8346663636364    -0.00245454545454546     -0.0115                                   160.214318181818    251.013763636364    0.638273627272727    -46.687438221602    -74.0243190502437    
2022-04-22T17:09:08Z    31.6636666666667    -64.1648333333333    658       -652.391031511113    1e-12          4.12275e-14   14.1343318181818    36.0138472727273   26.8357890909091    -0.00179090909090909     -0.0115                                   160.142454545455    251.078072727273    0.637822990909091    -46.687438221602    -74.0243190502437    
2022-04-22T17:09:08Z    31.6636666666667    -64.1648333333333    658.5     -652.922122917432    1e-12          4.1125e-14    14.1231136363636    36.0121818181818   26.8369209090909    -0.00179090909090909     -0.0115                                   160.075909090909    251.136936363636    0.637409581818182    -46.687438221602    -74.0243190502437    
2022-04-22T17:09:08Z    31.6636666666667    -64.1648333333333    659       -653.411636528989    1e-12          4.10235e-14   14.1098181818182    36.0096209090909   26.8378627272727    -0.00179090909090909     -0.0115                                   160.055954545455    251.2078            0.6371515            -46.687438221602    -74.0243190502437    
2022-04-22T17:09:08Z    31.6636666666667    -64.1648333333333    659.5     -653.855612993895    1e-12          4.09365e-14   14.0973590909091    36.0077409090909   26.8391618181818    -0.00179090909090909     -0.0114545454545455                       159.993             251.2742            0.636720172727273    -46.687438221602    -74.0243190502437    
2022-04-22T17:09:08Z    31.6636666666667    -64.1648333333333    660       -654.365417571004    1e-12          4.0864e-14    14.0842409090909    36.0068272727273   26.8408363636364    -0.00179090909090909     -0.0114545454545455                       159.938636363636    251.341409090909    0.636332363636364    -46.687438221602    -74.0243190502437    
2022-04-22T17:09:08Z    31.6636666666667    -64.1648333333333    660.5     -654.879180527204    1e-12          4.0807e-14    14.0750772727273    36.0058072727273   26.8419909090909    -0.00112727272727273     -0.0114545454545455                       159.851409090909    251.389409090909    0.635861027272727    -46.687438221602    -74.0243190502437    
2022-04-22T17:09:08Z    31.6636666666667    -64.1648333333333    661       -655.344436826548    1e-12          4.075e-14     14.0684181818182    36.0047909090909   26.8426             -0.00112727272727273     -0.0114545454545455                       159.685636363636    251.425945454545    0.635117654545455    -46.687438221602    -74.0243190502437    
2022-04-22T17:09:08Z    31.6636666666667    -64.1648333333333    661.5     -655.857207453544    1e-12          4.0778e-14    14.0609272727273    36.0035309090909   26.8432290909091    -0.00179090909090909     -0.0114545454545455                       159.476909090909    251.465627272727    0.6341908            -46.687438221602    -74.0243190502437    
2022-04-22T17:09:08Z    31.6636666666667    -64.1648333333333    662       -656.370966707844    1e-12          4.0778e-14    14.0521772727273    36.00205           26.8439472727273    -0.00179090909090909     -0.0114545454545455                       159.2825            251.512336363636    0.633298745454545    -46.687438221602    -74.0243190502437    
2022-04-22T17:09:08Z    31.6636666666667    -64.1648333333333    662.5     -656.884724700577    1e-12          4.075e-14     14.0430818181818    36.0007045454545   26.8448545454545    -0.00179090909090909     -0.0114545454545455                       159.097681818182    251.560527272727    0.632442336363636    -46.687438221602    -74.0243190502437    
2022-04-22T17:09:08Z    31.6636666666667    -64.1648333333333    663       -657.39452183027     1e-12          4.0778e-14    14.0336             35.9990281818182   26.8456             -0.00179090909090909     -0.0114545454545455                       158.943454545455    251.611290909091    0.631704327272727    -46.687438221602    -74.0243190502437    
2022-04-22T17:09:08Z    31.6636666666667    -64.1648333333333    663.5     -657.814237361431    1e-12          4.0922e-14    14.02295            35.9972609090909   26.8464836363636    -0.00179090909090909     -0.0114545454545455                       158.816181818182    251.668145454545    0.631057790909091    -46.687438221602    -74.0243190502437    
2022-04-22T17:09:08Z    31.6636666666667    -64.1648333333333    664       -658.280476967241    1e-12          4.1301e-14    14.0115863636364    35.9956309090909   26.8476381818182    -0.00179090909090909     -0.0114545454545455                       158.688636363636    251.728236363636    0.630399418181818    -46.687438221602    -74.0243190502437    
2022-04-22T17:09:08Z    31.6636666666667    -64.1648333333333    664.5     -658.78730099716     1e-12          4.133e-14     14.0010181818182    35.9945909090909   26.8490763636364    -0.00179090909090909     -0.0114545454545455                       158.568318181818    251.783345454545    0.629791045454545    -46.687438221602    -74.0243190502437    
2022-04-22T17:09:08Z    31.6636666666667    -64.1648333333333    665       -659.306992313998    1e-12          4.1242e-14    13.9924136363636    35.9936363636364   26.8501590909091    -0.00179090909090909     -0.0115                                   158.470227272727    251.828527272727    0.629288154545455    -46.687438221602    -74.0243190502437    
2022-04-22T17:09:08Z    31.6636666666667    -64.1648333333333    665.5     -659.793521204187    1e-12          4.11105e-14   13.9851045454545    35.9928272727273   26.8510918181818    -0.00179090909090909     -0.0115                                   158.370136363636    251.867054545455    0.628795990909091    -46.687438221602    -74.0243190502437    
2022-04-22T17:09:08Z    31.6636666666667    -64.1648333333333    666       -660.306280829586    1e-12          4.10525e-14   13.9787818181818    35.9922563636364   26.852              -0.00179090909090909     -0.0115                                   158.288909090909    251.900109090909    0.628390572727273    -46.687438221602    -74.0243190502437    
2022-04-22T17:09:08Z    31.6636666666667    -64.1648333333333    666.5     -660.817059427935    1e-12          4.0922e-14    13.9716181818182    35.9916245454545   26.8530754545455    -0.00112727272727273     -0.0115                                   158.283818181818    251.936363636364    0.628272463636364    -46.687438221602    -74.0243190502437    
2022-04-22T17:09:08Z    31.6636666666667    -64.1648333333333    667       -661.330806399868    1e-12          4.08215e-14   13.9657545454545    35.9913554545455   26.8541136363636    0.0002                   -0.0115                                   158.310636363636    251.967090909091    0.628300254545454    -46.687438221602    -74.0243190502437    
2022-04-22T17:09:08Z    31.6636666666667    -64.1648333333333    667.5     -661.771796284039    1e-12          4.0778e-14    13.9611909090909    35.9913509090909   26.8550872727273    0.0002                   -0.0115                                   158.336             251.990372727273    0.628343663636364    -46.687438221602    -74.0243190502437    
2022-04-22T17:09:08Z    31.6636666666667    -64.1648333333333    668       -662.281581394657    1e-12          4.0778e-14    13.9583090909091    35.9910736363636   26.8554909090909    -0.000463636363636364    -0.0115                                   157.308409090909    252.005845454545    0.624227272727273    -46.687438221602    -74.0243190502437    
2022-04-22T17:09:08Z    31.6636666666667    -64.1648333333333    668.5     -662.819081618815    1e-12          4.075e-14     13.9552636363636    35.9911154545455   26.8562227272727    -0.00112727272727273     -0.0115                                   156.533545454545    252.021190909091    0.621112318181818    -46.687438221602    -74.0243190502437    
2022-04-22T17:09:08Z    31.6636666666667    -64.1648333333333    669       -663.257593678101    1e-12          4.075e-14     13.9525454545455    35.9913536363636   26.8570945454545    -0.00179090909090909     -0.0115                                   156.193136363636    252.034527272727    0.619729181818182    -46.687438221602    -74.0243190502437    
2022-04-22T17:09:08Z    31.6636666666667    -64.1648333333333    669.5     -663.73470957067     1e-12          4.075e-14     13.9508727272727    35.9915154545454   26.8575609090909    -0.00245454545454545     -0.0115                                   155.244863636364    252.043127272727    0.6159467            -46.687438221602    -74.0243190502437    
2022-04-22T17:09:08Z    31.6636666666667    -64.1648333333333    670       -664.290023573773    1e-12          4.0807e-14    13.9491             35.9912081818182   26.8577890909091    -0.00311818181818182     -0.0115                                   154.388227272727    252.053009090909    0.612524345454545    -46.687438221602    -74.0243190502437    
2022-04-22T17:09:08Z    31.6636666666667    -64.1648333333333    670.5     -664.961149741502    1e-12          4.1271e-14    13.9462954545455    35.9911245454545   26.8583454545455    -0.00378181818181818     -0.0115                                   153.603045454545    252.067481818182    0.609376118181818    -46.687438221602    -74.0243190502437    
2022-04-22T17:09:08Z    31.6636666666667    -64.1648333333333    671       -665.263056824565    1e-12          4.1009e-14    13.9426227272727    35.9904972727273   26.8586372727273    -0.00444545454545455     -0.0115                                   152.911590909091    252.087363636364    0.606584218181818    -46.687438221602    -74.0243190502437    
2022-04-22T17:09:08Z    31.6636666666667    -64.1648333333333    671.5     -665.588720036371    1e-12          4.075e-14     13.9370090909091    35.9891809090909   26.8588345454545    -0.00510909090909091     -0.0115                                   152.311954545455    252.118309090909    0.604131872727273    -46.687438221602    -74.0243190502437    
2022-04-22T17:09:08Z    31.6636666666667    -64.1648333333333    672       -666.28359849296     1e-12          4.1213e-14    13.9296181818182    35.9878454545455   26.8593581818182    -0.00577272727272727     -0.0115                                   151.781772727273    252.158154545455    0.601932381818182    -46.687438221602    -74.0243190502437    
2022-04-22T17:09:08Z    31.6636666666667    -64.1648333333333    672.5     -666.731011878274    1e-12          4.11685e-14   13.9208772727273    35.9860081818182   26.8597790909091    -0.00643636363636364     -0.0115                                   151.298090909091    252.205563636364    0.599901281818182    -46.687438221602    -74.0243190502437    
2022-04-22T17:09:08Z    31.6636666666667    -64.1648333333333    673       -667.217523344755    1e-12          4.1096e-14    13.9108136363636    35.9840627272727   26.8603945454545    -0.0071                  -0.0115                                   150.806181818182    252.259981818182    0.597822936363636    -46.687438221602    -74.0243190502437    
2022-04-22T17:09:08Z    31.6636666666667    -64.1648333333333    673.5     -667.70650828398     1e-12          4.09945e-14   13.8985681818182    35.98235           26.8616390909091    -0.0071                  -0.0115                                   151.314363636364    252.324872727273    0.599683981818182    -46.687438221602    -74.0243190502437    
2022-04-22T17:09:08Z    31.6636666666667    -64.1648333333333    674       -668.241519856295    1e-12          4.0864e-14    13.8861772727273    35.9803081818182   26.8626445454545    -0.0071                  -0.0115                                   151.475727272727    252.3914            0.600166081818182    -46.687438221602    -74.0243190502437    
2022-04-22T17:09:08Z    31.6636666666667    -64.1648333333333    674.5     -668.802760842744    1e-12          4.0836e-14    13.8729863636364    35.9778781818182   26.8635072727273    -0.0071                  -0.0115                                   151.080272727273    252.462854545455    0.598427154545454    -46.687438221602    -74.0243190502437    
2022-04-22T17:09:08Z    31.6636666666667    -64.1648333333333    675       -669.243734836716    1e-12          4.07925e-14   13.8600363636364    35.9758445454545   26.8648027272727    -0.0071                  -0.0115                                   151.173772727273    252.531909090909    0.598643118181818    -46.687438221602    -74.0243190502437    
2022-04-22T17:09:08Z    31.6636666666667    -64.1648333333333    675.5     -669.684707895994    1e-12          4.075e-14     13.8476045454545    35.9738754545455   26.8657881818182    -0.00776363636363636     -0.0115                                   151.302727272727    252.600772727273    0.598966463636364    -46.687438221602    -74.0243190502437    
2022-04-22T17:09:08Z    31.6636666666667    -64.1648333333333    676       -670.149930981168    1e-12          4.0721e-14    13.8348045454545    35.9723354545455   26.8670872727273    -0.00776363636363636     -0.0115                                   151.373090909091    252.668454545455    0.599086172727273    -46.687438221602    -74.0243190502437    
2022-04-22T17:09:08Z    31.6636666666667    -64.1648333333333    676.5     -670.66365483526     1e-12          4.075e-14     13.8199318181818    35.9703109090909   26.8686454545455    -0.00776363636363636     -0.0115                                   151.368272727273    252.747354545455    0.598878518181818    -46.687438221602    -74.0243190502437    
2022-04-22T17:09:08Z    31.6636666666667    -64.1648333333333    677       -671.128875724758    1e-12          4.075e-14     13.8064272727273    35.9688954545454   26.8703618181818    -0.00776363636363636     -0.0115                                   151.286772727273    252.818281818182    0.598388045454545    -46.687438221602    -74.0243190502437    
2022-04-22T17:09:08Z    31.6636666666667    -64.1648333333333    677.5     -671.739600287209    1e-12          4.08215e-14   13.7946090909091    35.9674581818182   26.8717354545455    -0.0071                  -0.0115                                   151.119954545455    252.880836363636    0.597579681818182    -46.687438221602    -74.0243190502437    
2022-04-22T17:09:08Z    31.6636666666667    -64.1648333333333    678       -672.20481876354     1e-12          4.12565e-14   13.7840136363636    35.9662827272727   26.8730418181818    -0.00643636363636364     -0.0115                                   150.910181818182    252.936790909091    0.596615245454545    -46.687438221602    -74.0243190502437    
2022-04-22T17:09:08Z    31.6636666666667    -64.1648333333333    678.5     -672.693791950934    1e-12          4.1301e-14    13.7745409090909    35.9651063636364   26.87411            -0.00577272727272727     -0.0115                                   150.678181818182    252.987018181818    0.595576018181818    -46.687438221602    -74.0243190502437    
2022-04-22T17:09:08Z    31.6636666666667    -64.1648333333333    679       -673.182763988399    1e-12          4.1242e-14    13.7657454545455    35.9636245454545   26.8748354545455    -0.00510909090909091     -0.0115                                   150.447954545455    253.034436363636    0.594553981818182    -46.687438221602    -74.0243190502437    
2022-04-22T17:09:08Z    31.6636666666667    -64.1648333333333    679.5     -673.669260324678    1e-12          4.1213e-14    13.7566636363636    35.9619609090909   26.8754054545455    -0.00444545454545455     -0.0115                                   150.278909090909    253.083663636364    0.593767654545455    -46.687438221602    -74.0243190502437    
2022-04-22T17:09:08Z    31.6636666666667    -64.1648333333333    680       -674.161694418834    1e-12          4.1154e-14    13.7474909090909    35.9606545454545   26.8762718181818    -0.00378181818181818     -0.0115                                   150.187863636364    253.132563636364    0.593294290909091    -46.687438221602    -74.0243190502437    
2022-04-22T17:09:08Z    31.6636666666667    -64.1648333333333    680.5     -674.669469455439    1e-12          4.1038e-14    13.7371863636364    35.9587263636364   26.8768372727273    -0.00311818181818182     -0.0115                                   150.178636363636    253.188472727273    0.593121590909091    -46.687438221602    -74.0243190502437    
2022-04-22T17:09:08Z    31.6636666666667    -64.1648333333333    681       -675.183182116526    1e-12          4.0951e-14    13.7255409090909    35.9570645454545   26.8780172727273    -0.00179090909090909     -0.0115                                   150.003545454546    253.248227272727    0.592316618181818    -46.687438221602    -74.0243190502437    
2022-04-22T17:09:08Z    31.6636666666667    -64.1648333333333    681.5     -675.6716533788      1e-12          4.09075e-14   13.7126272727273    35.9539772727273   26.87838            -0.00179090909090909     -0.0115                                   149.735454545455    253.319809090909    0.591091645454546    -46.687438221602    -74.0243190502437    
2022-04-22T17:09:08Z    31.6636666666667    -64.1648333333333    682       -676.164577618292    1e-12          4.07785e-14   13.7009772727273    35.9520036363636   26.8792209090909    -0.00179090909090909     -0.0115                                   149.4205            253.3829            0.589705090909091    -46.687438221602    -74.0243190502437    
2022-04-22T17:09:08Z    31.6636666666667    -64.1648333333333    682.5     -676.650572064024    1e-12          4.0692e-14    13.6920590909091    35.9502154545455   26.8797609090909    -0.00112727272727273     -0.0115                                   149.459863636364    253.431727272727    0.589744936363636    -46.687438221602    -74.0243190502437    
2022-04-22T17:09:08Z    31.6636666666667    -64.1648333333333    683       -677.115779526728    1e-12          4.0664e-14    13.6800954545455    35.9481436363636   26.8807118181818    -0.00112727272727273     -0.0115                                   149.220409090909    253.496381818182    0.588650072727273    -46.687438221602    -74.0243190502437    
2022-04-22T17:09:08Z    31.6636666666667    -64.1648333333333    683.5     -677.653736218894    1e-12          4.0664e-14    13.6704590909091    35.9459418181818   26.8810636363636    -0.00112727272727273     -0.0115                                   149.496863636364    253.549645454545    0.589615054545454    -46.687438221602    -74.0243190502437    
2022-04-22T17:09:08Z    31.6636666666667    -64.1648333333333    684       -678.118941432019    1e-12          4.0635e-14    13.6594954545455    35.9436390909091   26.88167            -0.00112727272727273     -0.0115                                   149.758727272727    253.609936363636    0.590505618181818    -46.687438221602    -74.0243190502437    
2022-04-22T17:09:08Z    31.6636666666667    -64.1648333333333    684.5     -678.701931161523    1e-12          4.0635e-14    13.6473272727273    35.9416645454545   26.8826690909091    -0.00112727272727273     -0.0115                                   150.000272727273    253.675563636364    0.591303854545455    -46.687438221602    -74.0243190502437    
2022-04-22T17:09:08Z    31.6636666666667    -64.1648333333333    685       -679.097848569104    1e-12          4.098e-14     13.6351272727273    35.93996           26.8838963636364    -0.00112727272727273     -0.0115                                   150.183954545455    253.740909090909    0.591877581818182    -46.687438221602    -74.0243190502437    
2022-04-22T17:09:08Z    31.6636666666667    -64.1648333333333    685.5     -679.423490061019    1e-12          4.075e-14     13.6243545454545    35.9384690909091   26.8849945454545    -0.00112727272727273     -0.0115                                   150.318454545455    253.798636363636    0.592271763636364    -46.687438221602    -74.0243190502437    
2022-04-22T17:09:08Z    31.6636666666667    -64.1648333333333    686       -680.149005588131    1e-12          4.1154e-14    13.6137090909091    35.9367727272727   26.8859045454545    -0.00112727272727273     -0.0115                                   150.433363636364    253.856118181818    0.592591309090909    -46.687438221602    -74.0243190502437    
2022-04-22T17:09:08Z    31.6636666666667    -64.1648333333333    686.5     -680.635485585487    1e-12          4.1067e-14    13.6031727272727    35.9351172727273   26.88684            -0.00112727272727273     -0.0115                                   150.543181818182    253.913009090909    0.592892372727273    -46.687438221602    -74.0243190502437    
2022-04-22T17:09:08Z    31.6636666666667    -64.1648333333333    687       -681.127903146418    1e-12          4.10525e-14   13.5949818181818    35.9342827272727   26.8880354545455    -0.000463636363636364    -0.0115                                   150.717454545455    253.956272727273    0.593480354545455    -46.687438221602    -74.0243190502437    
2022-04-22T17:09:08Z    31.6636666666667    -64.1648333333333    687.5     -681.569345833861    1e-12          4.1009e-14    13.5881136363636    35.9331618181818   26.8886654545455    0.0002                   -0.0115                                   150.921681818182    253.993472727273    0.594201663636364    -46.687438221602    -74.0243190502437    
2022-04-22T17:09:08Z    31.6636666666667    -64.1648333333333    688       -682.012767126389    1e-12          4.0951e-14    13.5783272727273    35.9315636363636   26.8894281818182    0.0002                   -0.0115                                   150.784             254.046418181818    0.5935376            -46.687438221602    -74.0243190502437    
2022-04-22T17:09:08Z    31.6636666666667    -64.1648333333333    688.5     -682.526461604052    1e-12          4.0864e-14    13.5709272727273    35.9302954545455   26.8899327272727    0.0002                   -0.0115                                   150.964636363636    254.086863636364    0.594154981818182    -46.687438221602    -74.0243190502437    
2022-04-22T17:09:08Z    31.6636666666667    -64.1648333333333    689       -683.085684408345    1e-12          4.0836e-14    13.5607818181818    35.9291890909091   26.8911690909091    0.0002                   -0.0115                                   150.672454545455    254.140718181818    0.592876545454545    -46.687438221602    -74.0243190502437    
2022-04-22T17:09:08Z    31.6636666666667    -64.1648333333333    689.5     -683.574631951329    1e-12          4.0807e-14    13.5522090909091    35.9284009090909   26.8922254545455    0.0002                   -0.0115                                   150.536409090909    254.186027272727    0.592239718181818    -46.687438221602    -74.0243190502437    
2022-04-22T17:09:08Z    31.6636666666667    -64.1648333333333    690       -684.064568110908    1e-12          4.0778e-14    13.5455181818182    35.9275472727273   26.89289            0.0002                   -0.0115                                   150.502             254.221954545455    0.592017281818182    -46.687438221602    -74.0243190502437    
2022-04-22T17:09:08Z    31.6636666666667    -64.1648333333333    690.5     -684.574793325023    1e-12          4.0721e-14    13.5369090909091    35.9261045454545   26.8936172727273    0.0002                   -0.0115                                   150.493272727273    254.268690909091    0.591876954545454    -46.687438221602    -74.0243190502437    
2022-04-22T17:09:08Z    31.6636666666667    -64.1648333333333    691       -685.064232236947    1e-12          4.07355e-14   13.5252227272727    35.9240590909091   26.8944554545455    0.0002                   -0.0115                                   150.574772727273    254.332363636364    0.592054081818182    -46.687438221602    -74.0243190502437    
2022-04-22T17:09:08Z    31.6636666666667    -64.1648333333333    691.5     -685.565547143646    1e-12          4.075e-14     13.5120318181818    35.9223            26.89576            0.0002                   -0.0115                                   150.746954545455    254.403345454545    0.592565027272727    -46.687438221602    -74.0243190502437    
2022-04-22T17:09:08Z    31.6636666666667    -64.1648333333333    692       -686.250955982538    1e-12          4.0778e-14    13.4995590909091    35.9209063636364   26.8972409090909    0.0002                   -0.0115                                   150.967590909091    254.469890909091    0.593278045454545    -46.687438221602    -74.0243190502437    
2022-04-22T17:09:08Z    31.6636666666667    -64.1648333333333    692.5     -686.414266057752    1e-12          4.1067e-14    13.4854954545455    35.9190136363636   26.8986772727273    0.0002                   -0.0115                                   151.187818181818    254.545536363636    0.593967718181818    -46.687438221602    -74.0243190502437    
2022-04-22T17:09:08Z    31.6636666666667    -64.1648333333333    693       -687.012573689413    1e-12          4.1096e-14    13.4715590909091    35.9173309090909   26.9002390909091    0.0002                   -0.0115                                   151.381090909091    254.620145454545    0.594550381818182    -46.687438221602    -74.0243190502437    
2022-04-22T17:09:08Z    31.6636666666667    -64.1648333333333    693.5     -687.547535460418    1e-12          4.1096e-14    13.4575318181818    35.9155472727273   26.9017454545455    0.0002                   -0.0115                                   151.484863636364    254.695527272727    0.594782736363636    -46.687438221602    -74.0243190502437    
2022-04-22T17:09:08Z    31.6636666666667    -64.1648333333333    694       -688.02162624276     1e-12          4.1009e-14    13.4416136363636    35.9132590909091   26.9032590909091    0.0002                   -0.0115                                   151.528681818182    254.781445454545    0.594755636363636    -46.687438221602    -74.0243190502437    
2022-04-22T17:09:08Z    31.6636666666667    -64.1648333333333    694.5     -688.486808209565    1e-12          4.1009e-14    13.4248954545455    35.9109654545454   26.9048790909091    0.0002                   -0.0115                                   151.485             254.871663636364    0.594376418181818    -46.687438221602    -74.0243190502437    
2022-04-22T17:09:08Z    31.6636666666667    -64.1648333333333    695       -689.01285847476     1e-12          4.09365e-14   13.4075590909091    35.9085772727273   26.9066663636364    0.0002                   -0.0115                                   151.315             254.965163636364    0.593486936363636    -46.687438221602    -74.0243190502437    
2022-04-22T17:09:08Z    31.6636666666667    -64.1648333333333    695.5     -689.538907407085    1e-12          4.0864e-14    13.3896318181818    35.9062636363636   26.9086272727273    0.0002                   -0.0115                                   151.076363636364    255.061527272727    0.592325681818182    -46.687438221602    -74.0243190502437    
2022-04-22T17:09:08Z    31.6636666666667    -64.1648333333333    696       -689.991219336529    1e-12          4.085e-14     13.3743545454545    35.9045990909091   26.9104245454545    0.0002                   -0.0115                                   150.839136363636    255.143372727273    0.591202754545455    -46.687438221602    -74.0243190502437    
2022-04-22T17:09:08Z    31.6636666666667    -64.1648333333333    696.5     -690.529637522224    1e-12          4.0807e-14    13.3623045454545    35.9032836363636   26.9118745454545    -0.000463636363636364    -0.0115                                   150.4495            255.207927272727    0.589522118181818    -46.687438221602    -74.0243190502437    
2022-04-22T17:09:08Z    31.6636666666667    -64.1648333333333    697       -691.018567524348    1e-12          4.075e-14     13.35165            35.9019063636364   26.91303            -0.000463636363636364    -0.0115                                   149.910227272727    255.265354545455    0.587277490909091    -46.687438221602    -74.0243190502437    
2022-04-22T17:09:08Z    31.6636666666667    -64.1648333333333    697.5     -691.496609307704    1e-12          4.0778e-14    13.3413227272727    35.9003727272727   26.9139581818182    -0.000463636363636364    -0.0115454545454545                       149.335909090909    255.321536363636    0.584897745454545    -46.687438221602    -74.0243190502437    
2022-04-22T17:09:08Z    31.6636666666667    -64.1648333333333    698       -692.010280306755    1e-12          4.075e-14     13.3334409090909    35.8993790909091   26.91481            -0.000463636363636364    -0.0116363636363636                       148.7665            255.364154545455    0.582567936363636    -46.687438221602    -74.0243190502437    
2022-04-22T17:09:08Z    31.6636666666667    -64.1648333333333    698.5     -692.556611071727    1e-12          4.0807e-14    13.3257318181818    35.8980327272727   26.9153745454545    -0.000463636363636364    -0.0117272727272727                       148.240318181818    255.406672727273    0.580411763636364    -46.687438221602    -74.0243190502437    
2022-04-22T17:09:08Z    31.6636666666667    -64.1648333333333    699       -692.976750328966    1e-12          4.0922e-14    13.31835            35.8969063636364   26.9160136363636    -0.000463636363636364    -0.0118181818181818                       147.793             255.446963636364    0.578566890909091    -46.687438221602    -74.0243190502437    
2022-04-22T17:09:08Z    31.6636666666667    -64.1648333333333    699.5     -693.478046115605    1e-12          4.1038e-14    13.31355            35.8963263636364   26.9165545454545    -0.000463636363636364    -0.0119090909090909                       147.408181818182    255.473018181818    0.577000709090909    -46.687438221602    -74.0243190502437    
2022-04-22T17:09:08Z    31.6636666666667    -64.1648333333333    700       -693.955587371788    1e-12          4.1009e-14    13.3100045454545    35.8957045454545   26.9168536363636    -0.000463636363636364    -0.012                                    147.101772727273    255.492609090909    0.575755790909091    -46.687438221602    -74.0243190502437    
2022-04-22T17:09:08Z    31.6636666666667    -64.1648333333333    700.5     -694.456880793958    1e-12          4.1038e-14    13.3070954545455    35.8951136363636   26.9169590909091    -0.000463636363636364    -0.0120909090909091                       146.839681818182    255.508909090909    0.574691909090909    -46.687438221602    -74.0243190502437    
2022-04-22T17:09:08Z    31.6636666666667    -64.1648333333333    701       -694.979946772682    1e-12          4.0951e-14    13.3044272727273    35.89445           26.9169963636364    -0.000463636363636364    -0.0121818181818182                       146.613954545455    255.524327272727    0.573777054545454    -46.687438221602    -74.0243190502437    
2022-04-22T17:09:08Z    31.6636666666667    -64.1648333333333    701.5     -695.478268579553    1e-12          4.0922e-14    13.30185            35.8937236363636   26.9169772727273    -0.00112727272727273     -0.0122727272727273                       146.472090909091    255.539109090909    0.573188654545455    -46.687438221602    -74.0243190502437    
2022-04-22T17:09:08Z    31.6636666666667    -64.1648333333333    702       -695.943433831414    1e-12          4.0836e-14    13.2983045454545    35.8927172727273   26.9169809090909    -0.00112727272727273     -0.0123636363636364                       146.489818181818    255.559572727273    0.573214118181818    -46.687438221602    -74.0243190502437    
2022-04-22T17:09:08Z    31.6636666666667    -64.1648333333333    702.5     -696.396721520629    1e-12          4.0807e-14    13.2934227272727    35.8918663636364   26.9173518181818    -0.00112727272727273     -0.0124545454545455                       146.645909090909    255.586590909091    0.573763327272727    -46.687438221602    -74.0243190502437    
2022-04-22T17:09:08Z    31.6636666666667    -64.1648333333333    703       -696.916318636372    1e-12          4.07925e-14   13.2882954545455    35.8910072727273   26.9177581818182    -0.00112727272727273     -0.0125                                   146.888772727273    255.615063636364    0.574648945454545    -46.687438221602    -74.0243190502437    
2022-04-22T17:09:08Z    31.6636666666667    -64.1648333333333    703.5     -697.436409298403    1e-12          4.075e-14     13.2825045454545    35.8900981818182   26.91825            -0.00112727272727273     -0.0125                                   147.192772727273    255.646972727273    0.5757658            -46.687438221602    -74.0243190502437    
2022-04-22T17:09:08Z    31.6636666666667    -64.1648333333333    704       -697.931756101831    1e-12          4.0807e-14    13.2769863636364    35.8892518181818   26.9187172727273    -0.00112727272727273     -0.0125                                   147.427772727273    255.677227272727    0.576614827272727    -46.687438221602    -74.0243190502437    
2022-04-22T17:09:08Z    31.6636666666667    -64.1648333333333    704.5     -698.439472970089    1e-12          4.0764e-14    13.2714863636364    35.88839           26.9191827272727    -0.00112727272727273     -0.0125                                   147.529409090909    255.707472727273    0.576945527272727    -46.687438221602    -74.0243190502437    
2022-04-22T17:09:08Z    31.6636666666667    -64.1648333333333    705       -698.943724653828    1e-12          4.0807e-14    13.2656             35.8873890909091   26.9196272727273    -0.00112727272727273     -0.0124090909090909                       147.500636363636    255.740027272727    0.576760345454545    -46.687438221602    -74.0243190502437    
2022-04-22T17:09:08Z    31.6636666666667    -64.1648333333333    705.5     -699.39453155356     1e-12          4.0922e-14    13.25955            35.8864609090909   26.9201363636364    -0.00112727272727273     -0.0123181818181818                       147.373136363636    255.7733            0.576188409090909    -46.687438221602    -74.0243190502437    
2022-04-22T17:09:08Z    31.6636666666667    -64.1648333333333    706       -699.896306684885    1e-12          4.1009e-14    13.2531045454545    35.8853463636364   26.9205863636364    -0.00112727272727273     -0.0123181818181818                       147.177954545455    255.809036363636    0.575346545454546    -46.687438221602    -74.0243190502437    
2022-04-22T17:09:08Z    31.6636666666667    -64.1648333333333    706.5     -700.361462034745    1e-12          4.1096e-14    13.2461636363636    35.88424           26.9211390909091    -0.00112727272727273     -0.0123181818181818                       146.953863636364    255.847027272727    0.574386345454545    -46.687438221602    -74.0243190502437    
2022-04-22T17:09:08Z    31.6636666666667    -64.1648333333333    707       -700.90529659311     1e-12          4.1125e-14    13.2380636363636    35.8826054545455   26.9216145454545    -0.00112727272727273     -0.0123181818181818                       146.687909090909    255.892263636364    0.573256754545455    -46.687438221602    -74.0243190502437    
2022-04-22T17:09:08Z    31.6636666666667    -64.1648333333333    707.5     -701.418944305416    1e-12          4.11105e-14   13.2285545454545    35.8811436363636   26.9223727272727    -0.00112727272727273     -0.0123181818181818                       146.414681818182    255.944381818182    0.572071145454546    -46.687438221602    -74.0243190502437    
2022-04-22T17:09:08Z    31.6636666666667    -64.1648333333333    708       -701.865787087136    1e-12          4.10235e-14   13.2200954545455    35.8798272727273   26.9230518181818    -0.00179090909090909     -0.0123181818181818                       146.137045454545    255.990936363636    0.570883681818182    -46.687438221602    -74.0243190502437    
2022-04-22T17:09:08Z    31.6636666666667    -64.1648333333333    708.5     -702.330938028902    1e-12          4.1009e-14    13.2115409090909    35.8785472727273   26.9237881818182    -0.00311818181818182     -0.0123181818181818                       145.831045454545    256.037772727273    0.569584545454546    -46.687438221602    -74.0243190502437    
2022-04-22T17:09:08Z    31.6636666666667    -64.1648333333333    709       -702.881200343518    1e-12          4.0922e-14    13.2030909090909    35.8772036363636   26.9244827272727    -0.00444545454545454     -0.0123181818181818                       145.466045454545    256.084218181818    0.568055290909091    -46.687438221602    -74.0243190502437    
2022-04-22T17:09:08Z    31.6636666666667    -64.1648333333333    709.5     -703.376534144914    1e-12          4.0836e-14    13.1927636363636    35.8756036363636   26.9252581818182    -0.00444545454545454     -0.0122272727272727                       145.066045454545    256.141190909091    0.566366881818182    -46.687438221602    -74.0243190502437    
2022-04-22T17:09:08Z    31.6636666666667    -64.1648333333333    710       -703.859990675672    1e-12          4.0807e-14    13.1817363636364    35.8739636363636   26.9262727272727    -0.00444545454545454     -0.0121363636363636                       144.415772727273    256.201545454545    0.563695945454545    -46.687438221602    -74.0243190502437    
2022-04-22T17:09:08Z    31.6636666666667    -64.1648333333333    710.5     -704.362249846564    1e-12          4.0721e-14    13.1696545454545    35.8721581818182   26.9273281818182    -0.00444545454545455     -0.0121363636363636                       143.734409090909    256.267709090909    0.560894772727273    -46.687438221602    -74.0243190502437    
2022-04-22T17:09:08Z    31.6636666666667    -64.1648333333333    711       -704.851642099084    1e-12          4.0721e-14    13.1561590909091    35.8699827272727   26.9284236363636    -0.00444545454545454     -0.0121363636363636                       143.103863636364    256.341854545455    0.558275272727273    -46.687438221602    -74.0243190502437    
2022-04-22T17:09:08Z    31.6636666666667    -64.1648333333333    711.5     -705.365280045804    1e-12          4.0721e-14    13.1392363636364    35.8674            26.9297545454545    -0.00444545454545455     -0.0121363636363636                       142.526636363636    256.434754545455    0.555826845454545    -46.687438221602    -74.0243190502437    
2022-04-22T17:09:08Z    31.6636666666667    -64.1648333333333    712       -705.909596328632    1e-12          4.075e-14     13.1212272727273    35.8648790909091   26.9315036363636    -0.00444545454545454     -0.0121363636363636                       141.971181818182    256.533063636364    0.553449754545455    -46.687438221602    -74.0243190502437    
2022-04-22T17:09:08Z    31.6636666666667    -64.1648333333333    712.5     -706.248061370249    1e-12          4.0864e-14    13.1042090909091    35.8630227272727   26.9334363636364    -0.00378181818181818     -0.0120454545454545                       141.4235            256.624945454545    0.551106345454546    -46.687438221602    -74.0243190502437    
2022-04-22T17:09:08Z    31.6636666666667    -64.1648333333333    713       -706.80375643316     1e-12          4.1067e-14    13.0893             35.8611918181818   26.9350563636364    -0.00311818181818182     -0.0119545454545455                       140.8525            256.705963636364    0.548708127272727    -46.687438221602    -74.0243190502437    
2022-04-22T17:09:08Z    31.6636666666667    -64.1648333333333    713.5     -707.323822326312    1e-12          4.1125e-14    13.0744409090909    35.8590018181818   26.9363590909091    -0.00245454545454546     -0.0118636363636364                       140.268136363636    256.787509090909    0.546255309090909    -46.687438221602    -74.0243190502437    
2022-04-22T17:09:08Z    31.6636666666667    -64.1648333333333    714       -707.855267953033    1e-12          4.11395e-14   13.0590772727273    35.8567190909091   26.9377027272727    -0.00112727272727273     -0.0117727272727273                       139.632227272727    256.871745454545    0.5435946            -46.687438221602    -74.0243190502437    
2022-04-22T17:09:08Z    31.6636666666667    -64.1648333333333    714.5     -708.345146796385    1e-12          4.1096e-14    13.0437227272727    35.8545209090909   26.9390927272727    0.0002                   -0.0116818181818182                       138.978227272727    256.955854545455    0.540869454545455    -46.687438221602    -74.0243190502437    
2022-04-22T17:09:08Z    31.6636666666667    -64.1648333333333    715       -708.861745045785    1e-12          4.1096e-14    13.02825            35.8519936363636   26.9403309090909    0.0002                   -0.0116818181818182                       138.383863636364    257.041009090909    0.538372109090909    -46.687438221602    -74.0243190502437    
2022-04-22T17:09:08Z    31.6636666666667    -64.1648333333333    715.5     -709.323911365089    1e-12          4.1038e-14    13.0121590909091    35.84973           26.94181            0.0002                   -0.0116818181818182                       138.114136363636    257.129127272727    0.537137845454545    -46.687438221602    -74.0243190502437    
2022-04-22T17:09:08Z    31.6636666666667    -64.1648333333333    716       -709.795973112153    1e-12          4.0951e-14    12.9970909090909    35.8477563636364   26.9433218181818    -0.000463636363636364    -0.0116818181818182                       137.948818181818    257.211454545455    0.5363224            -46.687438221602    -74.0243190502437    
2022-04-22T17:09:08Z    31.6636666666667    -64.1648333333333    716.5     -710.345225995075    1e-12          4.0922e-14    12.9835545454545    35.8461136363636   26.9447354545455    -0.00112727272727273     -0.0116818181818182                       137.7895            257.285218181818    0.535549581818182    -46.687438221602    -74.0243190502437    
2022-04-22T17:09:08Z    31.6636666666667    -64.1648333333333    717       -710.817285419753    1e-12          4.08215e-14   12.9737772727273    35.8449863636364   26.9459581818182    -0.00179090909090909     -0.0115909090909091                       137.604772727273    257.338345454545    0.534719918181818    -46.687438221602    -74.0243190502437    
2022-04-22T17:09:08Z    31.6636666666667    -64.1648333333333    717.5     -711.288354132003    1e-12          4.075e-14     12.9650772727273    35.8436981818182   26.9466763636364    -0.00245454545454545     -0.0115                                   137.383590909091    257.386581818182    0.533758236363636    -46.687438221602    -74.0243190502437    
2022-04-22T17:09:08Z    31.6636666666667    -64.1648333333333    718       -711.796038333119    1e-12          4.075e-14     12.9557045454545    35.8422109090909   26.9473536363636    -0.00245454545454545     -0.0115                                   137.187409090909    257.438836363636    0.532888527272727    -46.687438221602    -74.0243190502437    
2022-04-22T17:09:08Z    31.6636666666667    -64.1648333333333    718.5     -712.288876778329    1e-12          4.0692e-14    12.9439954545455    35.8404772727273   26.9483527272727    -0.00245454545454545     -0.0115                                   137.010681818182    257.503518181818    0.532065718181818    -46.687438221602    -74.0243190502437    
2022-04-22T17:09:08Z    31.6636666666667    -64.1648333333333    719       -712.802991139569    1e-12          4.0721e-14    12.9323772727273    35.8388845454546   26.9494718181818    -0.00245454545454545     -0.0115                                   136.834772727273    257.5674            0.531253845454545    -46.687438221602    -74.0243190502437    
2022-04-22T17:09:08Z    31.6636666666667    -64.1648333333333    719.5     -713.289394604946    1e-12          4.07065e-14   12.9207727272727    35.8371072727273   26.9504254545455    -0.00245454545454546     -0.0115909090909091                       136.681772727273    257.631609090909    0.530530545454545    -46.687438221602    -74.0243190502437    
2022-04-22T17:09:08Z    31.6636666666667    -64.1648333333333    720       -713.803011675107    1e-12          4.0836e-14    12.9082727272727    35.8352081818182   26.9514490909091    -0.00245454545454546     -0.0116818181818182                       136.552636363636    257.700809090909    0.5298867            -46.687438221602    -74.0243190502437    
2022-04-22T17:09:08Z    31.6636666666667    -64.1648333333333    720.5     -714.178079985266    1e-12          4.1154e-14    12.8970818181818    35.8338481818182   26.9526863636364    -0.00245454545454546     -0.0116818181818182                       136.451909090909    257.762118181818    0.529373263636364    -46.687438221602    -74.0243190502437    
2022-04-22T17:09:08Z    31.6636666666667    -64.1648333333333    721       -714.740186368761    1e-12          4.1213e-14    12.8866181818182    35.8321227272727   26.9534309090909    -0.00245454545454546     -0.0116818181818182                       136.373363636364    257.820436363636    0.528948745454546    -46.687438221602    -74.0243190502437    
2022-04-22T17:09:08Z    31.6636666666667    -64.1648333333333    721.5     -715.253799849864    1e-12          4.1183e-14    12.8759181818182    35.83038           26.9542418181818    -0.00245454545454546     -0.0116818181818182                       136.319454545455    257.88              0.528619372727273    -46.687438221602    -74.0243190502437    
2022-04-22T17:09:08Z    31.6636666666667    -64.1648333333333    722       -715.740197571354    1e-12          4.1096e-14    12.8651             35.8286109090909   26.9550536363636    -0.00245454545454545     -0.0116818181818182                       136.256909090909    257.940281818182    0.528252909090909    -46.687438221602    -74.0243190502437    
2022-04-22T17:09:08Z    31.6636666666667    -64.1648333333333    722.5     -716.2325318484      1e-12          4.1038e-14    12.8536363636364    35.8265627272727   26.9558309090909    -0.00245454545454545     -0.0116818181818182                       136.209136363636    258.004372727273    0.527938481818182    -46.687438221602    -74.0243190502437    
2022-04-22T17:09:08Z    31.6636666666667    -64.1648333333333    723       -716.747131250802    1e-12          4.0951e-14    12.8419             35.8247781818182   26.9568136363636    -0.00245454545454545     -0.0116818181818182                       136.181045454545    258.069281818182    0.527698572727273    -46.687438221602    -74.0243190502437    
2022-04-22T17:09:08Z    31.6636666666667    -64.1648333333333    723.5     -717.212248844074    1e-12          4.0836e-14    12.8305636363636    35.8230572727273   26.9578027272727    -0.00378181818181818     -0.0116818181818182                       136.1355            258.131990909091    0.527398263636364    -46.687438221602    -74.0243190502437    
2022-04-22T17:09:08Z    31.6636666666667    -64.1648333333333    724       -717.725856209954    1e-12          4.0807e-14    12.82195            35.8218454545454   26.95859            -0.00510909090909091     -0.0116818181818182                       136.076181818182    258.179690909091    0.527072690909091    -46.687438221602    -74.0243190502437    
2022-04-22T17:09:08Z    31.6636666666667    -64.1648333333333    724.5     -718.239462305355    1e-12          4.075e-14     12.8126045454545    35.8203536363636   26.9593509090909    -0.00510909090909091     -0.0116818181818182                       136.019818181818    258.230772727273    0.526753181818182    -46.687438221602    -74.0243190502437    
2022-04-22T17:09:08Z    31.6636666666667    -64.1648333333333    725       -718.705566159342    1e-12          4.0692e-14    12.8032454545455    35.8189890909091   26.9600981818182    -0.00510909090909091     -0.0115909090909091                       135.959636363636    258.283345454545    0.526407309090909    -46.687438221602    -74.0243190502437    
2022-04-22T17:09:08Z    31.6636666666667    -64.1648333333333    725.5     -719.219169831346    1e-12          4.0721e-14    12.79335            35.8177472727273   26.9611318181818    -0.00510909090909091     -0.0115                                   135.875227272727    258.337918181818    0.525965963636364    -46.687438221602    -74.0243190502437    
2022-04-22T17:09:08Z    31.6636666666667    -64.1648333333333    726       -719.732772232931    1e-12          4.0721e-14    12.7839045454545    35.8165336363636   26.96206            -0.00577272727272727     -0.0115                                   135.783863636364    258.390127272727    0.525504954545455    -46.687438221602    -74.0243190502437    
2022-04-22T17:09:08Z    31.6636666666667    -64.1648333333333    726.5     -720.219654260411    1e-12          4.0692e-14    12.7751681818182    35.8154490909091   26.9629636363636    -0.00643636363636364     -0.0115                                   135.700318181818    258.4384            0.525082172727273    -46.687438221602    -74.0243190502437    
2022-04-22T17:09:08Z    31.6636666666667    -64.1648333333333    727       -720.75502525545     1e-12          4.075e-14     12.7666681818182    35.8143036363636   26.9637418181818    -0.00643636363636364     -0.0115                                   135.624             258.485627272727    0.524688481818182    -46.687438221602    -74.0243190502437    
2022-04-22T17:09:08Z    31.6636666666667    -64.1648333333333    727.5     -721.081590988048    1e-12          4.1154e-14    12.7581954545455    35.81318           26.9645672727273    -0.00577272727272727     -0.0115                                   135.580454545455    258.5327            0.524426227272727    -46.687438221602    -74.0243190502437    
2022-04-22T17:09:08Z    31.6636666666667    -64.1648333333333    728       -721.643678682606    1e-12          4.1271e-14    12.7502409090909    35.8123445454545   26.9654418181818    -0.00510909090909091     -0.0115                                   135.517909090909    258.576490909091    0.524092654545455    -46.687438221602    -74.0243190502437    
2022-04-22T17:09:08Z    31.6636666666667    -64.1648333333333    728.5     -722.157275087308    1e-12          4.1213e-14    12.7429909090909    35.81136           26.9661254545455    -0.00444545454545455     -0.0115                                   135.4715            258.616881818182    0.523832318181818    -46.687438221602    -74.0243190502437    
2022-04-22T17:09:08Z    31.6636666666667    -64.1648333333333    729       -722.622380561974    1e-12          4.1183e-14    12.7364454545455    35.8104781818182   26.9667636363636    -0.00378181818181818     -0.0115                                   135.424045454545    258.6533            0.523569854545455    -46.687438221602    -74.0243190502437    
2022-04-22T17:09:08Z    31.6636666666667    -64.1648333333333    729.5     -723.161208898366    1e-12          4.1096e-14    12.7295545454545    35.8093272727273   26.9672518181818    -0.00311818181818182     -0.0115                                   135.388136363636    258.692063636364    0.523353445454546    -46.687438221602    -74.0243190502437    
2022-04-22T17:09:08Z    31.6636666666667    -64.1648333333333    730       -723.650556839917    1e-12          4.098e-14     12.7230363636364    35.8081709090909   26.9676145454545    -0.00378181818181818     -0.0115                                   135.336590909091    258.729872727273    0.523075209090909    -46.687438221602    -74.0243190502437    
2022-04-22T17:09:08Z    31.6636666666667    -64.1648333333333    730.5     -724.115658969969    1e-12          4.0922e-14    12.7159727272727    35.80705           26.9682             -0.00444545454545455     -0.0115                                   135.302227272727    258.7691            0.5228617            -46.687438221602    -74.0243190502437    
2022-04-22T17:09:08Z    31.6636666666667    -64.1648333333333    731       -724.654483431651    1e-12          4.0864e-14    12.7095909090909    35.8059072727273   26.96859            -0.00444545454545455     -0.0115                                   135.307954545455    258.8052            0.522814427272727    -46.687438221602    -74.0243190502437    
2022-04-22T17:09:08Z    31.6636666666667    -64.1648333333333    731.5     -725.143827854352    1e-12          4.0778e-14    12.7041045454545    35.8050527272727   26.96906            -0.00378181818181818     -0.0115                                   135.273772727273    258.835981818182    0.522615109090909    -46.687438221602    -74.0243190502437    
2022-04-22T17:09:08Z    31.6636666666667    -64.1648333333333    732       -725.654446885668    1e-12          4.075e-14     12.69875            35.8038754545455   26.9691909090909    -0.00311818181818182     -0.0115                                   135.245590909091    258.866109090909    0.522444327272727    -46.687438221602    -74.0243190502437    
2022-04-22T17:09:08Z    31.6636666666667    -64.1648333333333    732.5     -726.123502805988    1e-12          4.075e-14     12.6895863636364    35.8021663636364   26.9697181818182    -0.00245454545454546     -0.0115                                   135.215636363636    258.917836363636    0.522228672727273    -46.687438221602    -74.0243190502437    
2022-04-22T17:09:08Z    31.6636666666667    -64.1648333333333    733       -726.679639459456    1e-12          4.0721e-14    12.6789909090909    35.8002663636364   26.9704             -0.00245454545454546     -0.0115                                   135.180772727273    258.9775            0.521964             -46.687438221602    -74.0243190502437    
2022-04-22T17:09:08Z    31.6636666666667    -64.1648333333333    733.5     -727.144734805452    1e-12          4.0692e-14    12.6663545454545    35.7983445454545   26.9714127272727    -0.00311818181818182     -0.0115                                   135.166772727273    259.048063636364    0.521769763636364    -46.687438221602    -74.0243190502437    
2022-04-22T17:09:08Z    31.6636666666667    -64.1648333333333    734       -727.616756038425    1e-12          4.0807e-14    12.6530590909091    35.79637           26.9725190909091    -0.00378181818181818     -0.0115                                   135.136             259.122272727273    0.521505109090909    -46.687438221602    -74.0243190502437    
2022-04-22T17:09:08Z    31.6636666666667    -64.1648333333333    734.5     -728.124400318048    1e-12          4.1154e-14    12.6388409090909    35.7943518181818   26.9737681818182    -0.00378181818181818     -0.0115                                   135.102363636364    259.201390909091    0.521214481818182    -46.687438221602    -74.0243190502437    
2022-04-22T17:09:08Z    31.6636666666667    -64.1648333333333    735       -728.575143855891    1e-12          4.1154e-14    12.6243909090909    35.7924545454545   26.9751690909091    -0.00378181818181818     -0.0115                                   135.066045454545    259.281618181818    0.520911             -46.687438221602    -74.0243190502437    
2022-04-22T17:09:08Z    31.6636666666667    -64.1648333333333    735.5     -729.109998534018    1e-12          4.1154e-14    12.6103454545455    35.7907127272727   26.9766127272727    -0.00378181818181818     -0.0115                                   135.049954545455    259.3595            0.520691590909091    -46.687438221602    -74.0243190502437    
2022-04-22T17:09:08Z    31.6636666666667    -64.1648333333333    736       -729.575088437274    1e-12          4.1154e-14    12.5968772727273    35.7890445454545   26.9780227272727    -0.00378181818181818     -0.0115                                   134.9965            259.434009090909    0.520341490909091    -46.687438221602    -74.0243190502437    
2022-04-22T17:09:08Z    31.6636666666667    -64.1648333333333    736.5     -730.089654771843    1e-12          4.11105e-14   12.5839136363636    35.7872118181818   26.9791881818182    -0.00444545454545455     -0.0115                                   134.922318181818    259.506354545454    0.519909454545455    -46.687438221602    -74.0243190502437    
2022-04-22T17:09:08Z    31.6636666666667    -64.1648333333333    737       -730.609167575055    1e-12          4.1038e-14    12.5689181818182    35.7849772727273   26.9803845454545    -0.00444545454545455     -0.0115                                   134.871681818182    259.590345454545    0.519550390909091    -46.687438221602    -74.0243190502437    
2022-04-22T17:09:08Z    31.6636666666667    -64.1648333333333    737.5     -731.069306397396    1e-12          4.1038e-14    12.5514090909091    35.7828145454545   26.9822163636364    -0.00444545454545455     -0.0115909090909091                       134.800136363636    259.687836363636    0.5190846            -46.687438221602    -74.0243190502437    
2022-04-22T17:09:08Z    31.6636666666667    -64.1648333333333    738       -731.607123276406    1e-12          4.0951e-14    12.5355090909091    35.7809372727273   26.9839009090909    -0.00444545454545455     -0.0116818181818182                       134.691727272727    259.776054545454    0.518485472727273    -46.687438221602    -74.0243190502437    
2022-04-22T17:09:08Z    31.6636666666667    -64.1648333333333    738.5     -732.09694608106     1e-12          4.0864e-14    12.5194136363636    35.7792218181818   26.9856618181818    -0.00444545454545455     -0.0116818181818182                       134.579681818182    259.864945454545    0.517885036363636    -46.687438221602    -74.0243190502437    
2022-04-22T17:09:08Z    31.6636666666667    -64.1648333333333    739       -732.562524069955    1e-12          4.0836e-14    12.5056136363636    35.7775736363636   26.9870927272727    -0.00444545454545455     -0.0116818181818182                       134.446772727273    259.9416            0.517219309090909    -46.687438221602    -74.0243190502437    
2022-04-22T17:09:08Z    31.6636666666667    -64.1648333333333    739.5     -733.118643481405    1e-12          4.075e-14     12.4918363636364    35.7757845454545   26.9884281818182    -0.00444545454545455     -0.0117727272727273                       134.304181818182    260.018427272727    0.516515418181818    -46.687438221602    -74.0243190502437    
2022-04-22T17:09:08Z    31.6636666666667    -64.1648333333333    740       -733.584713940925    1e-12          4.075e-14     12.4782             35.7739836363636   26.9896963636364    -0.00378181818181818     -0.0118636363636364                       134.164454545455    260.094709090909    0.515829709090909    -46.687438221602    -74.0243190502437    
2022-04-22T17:09:08Z    31.6636666666667    -64.1648333333333    740.5     -734.031487506512    1e-12          4.0778e-14    12.4642363636364    35.7720954545455   26.99096            -0.00311818181818182     -0.0119545454545455                       134.019590909091    260.172818181818    0.515120272727273    -46.687438221602    -74.0243190502437    
2022-04-22T17:09:08Z    31.6636666666667    -64.1648333333333    741       -734.521799364113    1e-12          4.0807e-14    12.4503909090909    35.7702181818182   26.9922145454545    -0.00245454545454545     -0.0120454545454545                       133.866454545455    260.250245454545    0.514376209090909    -46.687438221602    -74.0243190502437    
2022-04-22T17:09:08Z    31.6636666666667    -64.1648333333333    741.5     -735.035363921961    1e-12          4.0864e-14    12.4349636363636    35.7679690909091   26.9934681818182    -0.00179090909090909     -0.0121363636363636                       133.733636363636    260.336918181818    0.5136986            -46.687438221602    -74.0243190502437    
2022-04-22T17:09:08Z    31.6636666666667    -64.1648333333333    742       -735.534579118894    1e-12          4.0922e-14    12.4193181818182    35.7659509090909   26.9949245454545    -0.00112727272727273     -0.0122272727272727                       133.586545454545    260.424345454545    0.512955009090909    -46.687438221602    -74.0243190502437    
2022-04-22T17:09:08Z    31.6636666666667    -64.1648333333333    742.5     -736.014992216317    1e-12          4.0922e-14    12.4041727272727    35.7639363636364   26.9963227272727    -0.00112727272727273     -0.0123181818181818                       133.439             260.509063636364    0.512222363636364    -46.687438221602    -74.0243190502437    
2022-04-22T17:09:08Z    31.6636666666667    -64.1648333333333    743       -736.486993290555    1e-12          4.098e-14     12.391              35.7621790909091   26.9974990909091    -0.00112727272727273     -0.0123181818181818                       133.316363636364    260.583218181818    0.511604309090909    -46.687438221602    -74.0243190502437    
2022-04-22T17:09:08Z    31.6636666666667    -64.1648333333333    743.5     -737.001047743623    1e-12          4.0951e-14    12.3798090909091    35.7606136363636   26.9984409090909    -0.00112727272727273     -0.0123181818181818                       133.208227272727    260.646172727273    0.511069263636364    -46.687438221602    -74.0243190502437    
2022-04-22T17:09:08Z    31.6636666666667    -64.1648333333333    744       -737.515100932874    1e-12          4.09655e-14   12.3699272727273    35.7590227272727   26.9991609090909    -0.00112727272727273     -0.0124090909090909                       133.112227272727    260.702327272727    0.510591327272727    -46.687438221602    -74.0243190502437    
2022-04-22T17:09:08Z    31.6636666666667    -64.1648333333333    744.5     -738.026184307394    1e-12          4.0922e-14    12.3594818181818    35.7573172727273   26.9998809090909    -0.000463636363636364    -0.0125                                   133.054954545455    260.761681818182    0.510256309090909    -46.687438221602    -74.0243190502437    
2022-04-22T17:09:08Z    31.6636666666667    -64.1648333333333    745       -738.500654588797    1e-12          4.0922e-14    12.3459136363636    35.7547245454546   27.0004318181818    -0.000463636363636364    -0.0125                                   133.041363636364    260.839554545455    0.510043681818182    -46.687438221602    -74.0243190502437    
2022-04-22T17:09:08Z    31.6636666666667    -64.1648333333333    745.5     -739.002335226108    1e-12          4.0922e-14    12.3304045454545    35.7527172727273   27.0019027272727    -0.00112727272727273     -0.0125                                   133.035227272727    260.926672727273    0.509845354545455    -46.687438221602    -74.0243190502437    
2022-04-22T17:09:08Z    31.6636666666667    -64.1648333333333    746       -739.516878210906    1e-12          4.0864e-14    12.3152863636364    35.7508045454545   27.0033627272727    -0.00112727272727273     -0.0125                                   133.010363636364    261.011463636364    0.509583863636364    -46.687438221602    -74.0243190502437    
2022-04-22T17:09:08Z    31.6636666666667    -64.1648333333333    746.5     -739.994808341616    1e-12          4.0893e-14    12.29865            35.7486509090909   27.0049454545455    -0.00112727272727273     -0.0125                                   132.970863636364    261.104672727273    0.509250545454545    -46.687438221602    -74.0243190502437    
2022-04-22T17:09:08Z    31.6636666666667    -64.1648333333333    747       -740.496485370467    1e-12          4.0864e-14    12.2834727272727    35.7467163636364   27.0064081818182    -0.00112727272727273     -0.0125                                   132.931227272727    261.189918181818    0.508931363636364    -46.687438221602    -74.0243190502437    
2022-04-22T17:09:08Z    31.6636666666667    -64.1648333333333    747.5     -740.962539276209    1e-12          4.0864e-14    12.2684772727273    35.7445863636364   27.0077009090909    -0.00112727272727273     -0.0125                                   132.896272727273    261.274627272727    0.508637172727273    -46.687438221602    -74.0243190502437    
2022-04-22T17:09:08Z    31.6636666666667    -64.1648333333333    748       -741.500330539676    1e-12          4.0836e-14    12.2530545454545    35.7424409090909   27.0090345454545    -0.00112727272727273     -0.0125                                   132.870363636364    261.361736363636    0.508369854545454    -46.687438221602    -74.0243190502437    
2022-04-22T17:09:08Z    31.6636666666667    -64.1648333333333    748.5     -741.990624768072    1e-12          4.0836e-14    12.2367363636364    35.7399654545455   27.0102818181818    -0.00112727272727273     -0.0125                                   132.838136363636    261.454181818182    0.508065372727273    -46.687438221602    -74.0243190502437    
2022-04-22T17:09:08Z    31.6636666666667    -64.1648333333333    749       -742.426001113659    1e-12          4.0836e-14    12.2196227272727    35.7375245454545   27.0117209090909    -0.00112727272727273     -0.0125                                   132.826227272727    261.550945454545    0.507832372727273    -46.687438221602    -74.0243190502437    
2022-04-22T17:09:08Z    31.6636666666667    -64.1648333333333    749.5     -742.921735341663    1e-12          4.0836e-14    12.2020772727273    35.7350354545455   27.0131990909091    -0.00112727272727273     -0.0125                                   132.794409090909    261.650163636364    0.507519381818182    -46.687438221602    -74.0243190502437    
2022-04-22T17:09:08Z    31.6636666666667    -64.1648333333333    750       -743.436268618638    1e-12          4.0836e-14    12.1836772727273    35.7323927272727   27.0147318181818    -0.00112727272727273     -0.0125                                   132.749409090909    261.754290909091    0.507149336363636    -46.687438221602    -74.0243190502437    
2022-04-22T17:09:08Z    31.6636666666667    -64.1648333333333    750.5     -743.959211221882    1e-12          4.0836e-14    12.1675409090909    35.7307627272727   27.01666            -0.000463636363636364    -0.0125                                   132.673636363636    261.844345454545    0.506691854545454    -46.687438221602    -74.0243190502437    
2022-04-22T17:09:08Z    31.6636666666667    -64.1648333333333    751       -744.473247193179    1e-12          4.0836e-14    12.1532954545455    35.7287181818182   27.0177990909091    0.0002                   -0.0125                                   132.6               261.925172727273    0.506256881818182    -46.687438221602    -74.0243190502437    
2022-04-22T17:09:08Z    31.6636666666667    -64.1648333333333    751.5     -744.939292181115    1e-12          4.0864e-14    12.1389954545455    35.7265154545454   27.0188963636364    0.0002                   -0.0125                                   132.544363636364    262.006872727273    0.505889154545455    -46.687438221602    -74.0243190502437    
2022-04-22T17:09:08Z    31.6636666666667    -64.1648333333333    752       -745.443925698857    1e-12          4.0864e-14    12.12565            35.7247281818182   27.0200609090909    0.0002                   -0.0125                                   132.500454545455    262.082754545455    0.5055734            -46.687438221602    -74.0243190502437    
2022-04-22T17:09:08Z    31.6636666666667    -64.1648333333333    752.5     -745.867421116644    1e-12          4.0864e-14    12.1128045454545    35.72314           27.0213036363636    -0.000463636363636364    -0.0125                                   132.469454545455    262.155390909091    0.505312327272727    -46.687438221602    -74.0243190502437    
2022-04-22T17:09:08Z    31.6636666666667    -64.1648333333333    753       -746.423504910342    1e-12          4.0922e-14    12.1005909090909    35.7217281818182   27.0225472727273    -0.000795454545454545    -0.0125                                   132.428181818182    262.224281818182    0.505022390909091    -46.687438221602    -74.0243190502437    
2022-04-22T17:09:08Z    31.6636666666667    -64.1648333333333    753.5     -746.940997917256    1e-12          4.0922e-14    12.0895818181818    35.7204136363636   27.0236581818182    -0.000795454545454545    -0.0125                                   132.406636363636    262.286490909091    0.504819672727273    -46.687438221602    -74.0243190502437    
2022-04-22T17:09:08Z    31.6636666666667    -64.1648333333333    754       -747.45255284496     1e-12          4.0922e-14    12.0797090909091    35.7194181818182   27.0247972727273    -0.000795454545454545    -0.0125                                   132.3945            262.341990909091    0.504667245454545    -46.687438221602    -74.0243190502437    
2022-04-22T17:09:08Z    31.6636666666667    -64.1648333333333    754.5     -747.929969984497    1e-12          4.098e-14     12.07105            35.7184990909091   27.02575            -0.000795454545454545    -0.0125                                   132.3955            262.3908            0.504575881818182    -46.687438221602    -74.0243190502437    
2022-04-22T17:09:08Z    31.6636666666667    -64.1648333333333    755       -748.432122586068    1e-12          4.098e-14     12.0632045454545    35.7176290909091   27.0265981818182    -0.000795454545454545    -0.0125                                   132.414045454545    262.435172727273    0.504562481818182    -46.687438221602    -74.0243190502437    
2022-04-22T17:09:08Z    31.6636666666667    -64.1648333333333    755.5     -748.879853680966    1e-12          4.0951e-14    12.0563045454545    35.7169863636364   27.0274327272727    -0.000795454545454545    -0.0125                                   132.444409090909    262.473981818182    0.504598390909091    -46.687438221602    -74.0243190502437    
2022-04-22T17:09:08Z    31.6636666666667    -64.1648333333333    756       -749.3701304944      1e-12          4.0836e-14    12.0506681818182    35.7163354545455   27.0280054545455    -0.000122727272727273    -0.0125                                   132.500636363636    262.506063636364    0.504752327272727    -46.687438221602    -74.0243190502437    
2022-04-22T17:09:08Z    31.6636666666667    -64.1648333333333    756.5     -749.883658346624    1e-12          4.07925e-14   12.0446954545455    35.7153863636364   27.0284472727273    0.00055                  -0.0125                                   132.548409090909    262.5404            0.504870781818182    -46.687438221602    -74.0243190502437    
2022-04-22T17:09:08Z    31.6636666666667    -64.1648333333333    757       -750.398174382338    1e-12          4.0721e-14    12.0384090909091    35.7146054545455   27.0290072727273    0.00122272727272727      -0.0125                                   132.598909090909    262.576063636364    0.504990854545455    -46.687438221602    -74.0243190502437    
2022-04-22T17:09:08Z    31.6636666666667    -64.1648333333333    757.5     -750.864206076576    1e-12          4.075e-14     12.0326363636364    35.7136181818182   27.0293527272727    0.00122272727272727      -0.0125                                   132.650545454545    262.609518181818    0.505122636363636    -46.687438221602    -74.0243190502437    
2022-04-22T17:09:08Z    31.6636666666667    -64.1648333333333    758       -751.37871968421     1e-12          4.0721e-14    12.0254863636364    35.7124609090909   27.0298072727273    0.00188636363636364      -0.0125                                   132.694454545455    262.650754545455    0.505211290909091    -46.687438221602    -74.0243190502437    
2022-04-22T17:09:08Z    31.6636666666667    -64.1648333333333    758.5     -751.843759733399    1e-12          4.075e-14     12.0158136363636    35.7108481818182   27.0303881818182    0.00155454545454545      -0.0125                                   132.739454545455    262.706590909091    0.505281136363636    -46.687438221602    -74.0243190502437    
2022-04-22T17:09:08Z    31.6636666666667    -64.1648333333333    759       -752.358270915477    1e-12          4.0807e-14    12.0045590909091    35.7094254545455   27.03143            0.000890909090909091     -0.0125                                   132.762909090909    262.770590909091    0.505247218181818    -46.687438221602    -74.0243190502437    
2022-04-22T17:09:08Z    31.6636666666667    -64.1648333333333    759.5     -752.848539518533    1e-12          4.08215e-14   11.9933090909091    35.7079236363636   27.0324236363636    0.000890909090909091     -0.0125                                   132.781636363636    262.834909090909    0.505194890909091    -46.687438221602    -74.0243190502437    
2022-04-22T17:09:08Z    31.6636666666667    -64.1648333333333    760       -753.338806967657    1e-12          4.0922e-14    11.98175            35.70631           27.0333927272727    0.00089090909090909      -0.0125                                   132.787045454545    262.900945454546    0.505085981818182    -46.687438221602    -74.0243190502437    
2022-04-22T17:09:08Z    31.6636666666667    -64.1648333333333    760.5     -753.831052130231    1e-12          4.0951e-14    11.9698772727273    35.7047127272727   27.0344             0.000890909090909091     -0.0125                                   132.785954545455    262.9687            0.504949181818182    -46.687438221602    -74.0243190502437    
2022-04-22T17:09:08Z    31.6636666666667    -64.1648333333333    761       -754.345558391599    1e-12          4.1038e-14    11.9575136363636    35.70295           27.03535            0.000890909090909091     -0.0125                                   132.770954545455    263.039509090909    0.504752427272727    -46.687438221602    -74.0243190502437    
2022-04-22T17:09:08Z    31.6636666666667    -64.1648333333333    761.5     -754.838790603018    1e-12          4.1067e-14    11.9448363636364    35.7011845454545   27.0364172727273    0.000218181818181818     -0.0125                                   132.748318181818    263.111990909091    0.504528236363636    -46.687438221602    -74.0243190502437    
2022-04-22T17:09:08Z    31.6636666666667    -64.1648333333333    762       -755.292444470632    1e-12          4.10235e-14   11.9325             35.69932           27.0373572727273    -0.000454545454545455    -0.0125                                   132.731136363636    263.183045454545    0.504325609090909    -46.687438221602    -74.0243190502437    
2022-04-22T17:09:08Z    31.6636666666667    -64.1648333333333    762.5     -755.795073989029    1e-12          4.09945e-14   11.9194909090909    35.6972672727273   27.0382727272727    -0.00112727272727273     -0.0125                                   132.698181818182    263.257909090909    0.504060672727273    -46.687438221602    -74.0243190502437    
2022-04-22T17:09:08Z    31.6636666666667    -64.1648333333333    763       -756.285334486294    1e-12          4.0893e-14    11.9055045454545    35.6952490909091   27.0393590909091    -0.00112727272727273     -0.0125                                   132.677045454545    263.338127272727    0.503828036363636    -46.687438221602    -74.0243190502437    
2022-04-22T17:09:08Z    31.6636666666667    -64.1648333333333    763.5     -756.798845248792    1e-12          4.0864e-14    11.8916818181818    35.6931290909091   27.0403763636364    -0.00112727272727273     -0.0125                                   132.657045454545    263.417618181818    0.503601154545455    -46.687438221602    -74.0243190502437    
2022-04-22T17:09:08Z    31.6636666666667    -64.1648333333333    764       -757.313344156472    1e-12          4.0807e-14    11.8780636363636    35.69134           27.0416190909091    -0.000463636363636364    -0.0125                                   132.661636363636    263.495145454545    0.503466845454545    -46.687438221602    -74.0243190502437    
2022-04-22T17:09:08Z    31.6636666666667    -64.1648333333333    764.5     -757.779360347679    1e-12          4.075e-14     11.8637045454545    35.6893990909091   27.0428645454545    0.0002                   -0.0124545454545455                       132.657818181818    263.577318181818    0.503293581818182    -46.687438221602    -74.0243190502437    
2022-04-22T17:09:08Z    31.6636666666667    -64.1648333333333    765       -758.281489135506    1e-12          4.0778e-14    11.8470272727273    35.6869690909091   27.0441836363636    0.0002                   -0.0124545454545455                       132.649090909091    263.672836363636    0.503077690909091    -46.687438221602    -74.0243190502437    
2022-04-22T17:09:08Z    31.6636666666667    -64.1648333333333    765.5     -758.795489680359    1e-12          4.075e-14     11.82815            35.6842836363636   27.0456518181818    0.0002                   -0.0124545454545455                       132.625863636364    263.781409090909    0.502778954545455    -46.687438221602    -74.0243190502437    
2022-04-22T17:09:08Z    31.6636666666667    -64.1648333333333    766       -759.29761602083     1e-12          4.0721e-14    11.8075181818182    35.6816445454545   27.0475081818182    0.0002                   -0.0124545454545455                       132.606             263.899418181818    0.502480490909091    -46.687438221602    -74.0243190502437    
2022-04-22T17:09:08Z    31.6636666666667    -64.1648333333333    766.5     -759.811614045322    1e-12          4.075e-14     11.7869             35.67918           27.0495227272727    0.0002                   -0.0124545454545455                       132.571181818182    264.017090909091    0.5021301            -46.687438221602    -74.0243190502437    
2022-04-22T17:09:08Z    31.6636666666667    -64.1648333333333    767       -760.277624628688    1e-12          4.0836e-14    11.76665            35.6767772727273   27.0514663636364    0.0002                   -0.0124545454545455                       132.508045454545    264.132654545455    0.501670763636364    -46.687438221602    -74.0243190502437    
2022-04-22T17:09:08Z    31.6636666666667    -64.1648333333333    767.5     -760.725824904583    1e-12          4.0951e-14    11.7471863636364    35.6747063636364   27.0534863636364    0.0002                   -0.0124545454545455                       132.4205            264.243154545455    0.501130745454545    -46.687438221602    -74.0243190502437    
2022-04-22T17:09:08Z    31.6636666666667    -64.1648333333333    768       -761.240314095895    1e-12          4.098e-14     11.7289272727273    35.6727118181818   27.0553418181818    -0.000463636363636364    -0.0124545454545455                       132.328909090909    264.347245454546    0.500584627272727    -46.687438221602    -74.0243190502437    
2022-04-22T17:09:08Z    31.6636666666667    -64.1648333333333    768.5     -761.763706593002    1e-12          4.09655e-14   11.7118136363636    35.6708081818182   27.0571236363636    -0.00112727272727273     -0.0124545454545455                       132.2255            264.444809090909    0.500011018181818    -46.687438221602    -74.0243190502437    
2022-04-22T17:09:08Z    31.6636666666667    -64.1648333333333    769       -762.278193219154    1e-12          4.0951e-14    11.6961590909091    35.6692154545455   27.0588345454545    -0.00179090909090909     -0.0124545454545455                       132.117454545455    264.533963636364    0.499432463636364    -46.687438221602    -74.0243190502437    
2022-04-22T17:09:08Z    31.6636666666667    -64.1648333333333    769.5     -762.737767194004    1e-12          4.098e-14     11.6829227272727    35.6677290909091   27.0601536363636    -0.00245454545454545     -0.0124545454545455                       132.003545454545    264.610009090909    0.4988554            -46.687438221602    -74.0243190502437    
2022-04-22T17:09:08Z    31.6636666666667    -64.1648333333333    770       -763.248788555535    1e-12          4.0893e-14    11.6712318181818    35.6660081818182   27.0609927272727    -0.00311818181818182     -0.0125                                   131.931181818182    264.677890909091    0.498452972727273    -46.687438221602    -74.0243190502437    
2022-04-22T17:09:08Z    31.6636666666667    -64.1648333333333    770.5     -763.763271495625    1e-12          4.0922e-14    11.6613954545455    35.6649863636364   27.0619981818182    -0.00378181818181818     -0.0125                                   131.885363636364    264.734418181818    0.498174254545455    -46.687438221602    -74.0243190502437    
2022-04-22T17:09:08Z    31.6636666666667    -64.1648333333333    771       -764.247082186411    1e-12          4.0922e-14    11.6538227272727    35.6642618181818   27.0628745454545    -0.00378181818181818     -0.0125                                   131.871181818182    264.777736363636    0.498045509090909    -46.687438221602    -74.0243190502437    
2022-04-22T17:09:08Z    31.6636666666667    -64.1648333333333    771.5     -764.752658201892    1e-12          4.0893e-14    11.6478454545455    35.6634172727273   27.0633272727273    -0.00378181818181818     -0.0125                                   131.862954545455    264.812481818182    0.4979479            -46.687438221602    -74.0243190502437    
2022-04-22T17:09:08Z    31.6636666666667    -64.1648333333333    772       -765.215689560208    1e-12          4.0922e-14    11.6417818181818    35.6625154545454   27.0637618181818    -0.00378181818181818     -0.0125                                   131.842863636364    264.847918181818    0.497805290909091    -46.687438221602    -74.0243190502437    
2022-04-22T17:09:08Z    31.6636666666667    -64.1648333333333    772.5     -765.681688026599    1e-12          4.0922e-14    11.6355             35.6615545454545   27.0642118181818    -0.00378181818181818     -0.0125                                   131.839363636364    264.884672727273    0.497722             -46.687438221602    -74.0243190502437    
2022-04-22T17:09:08Z    31.6636666666667    -64.1648333333333    773       -766.213973743903    1e-12          4.0922e-14    11.6292590909091    35.6605845454545   27.0646627272727    -0.00378181818181818     -0.0125                                   131.829727272727    264.921336363636    0.497615727272727    -46.687438221602    -74.0243190502437    
2022-04-22T17:09:08Z    31.6636666666667    -64.1648333333333    773.5     -766.70965122517     1e-12          4.0922e-14    11.6233136363636    35.6597409090909   27.0651436363636    -0.00311818181818182     -0.0125                                   131.836454545455    264.955990909091    0.497576563636364    -46.687438221602    -74.0243190502437    
2022-04-22T17:09:08Z    31.6636666666667    -64.1648333333333    774       -767.224125604265    1e-12          4.0922e-14    11.6178863636364    35.65895           27.0655327272727    -0.00245454545454546     -0.0125                                   131.816             264.987790909091    0.497439054545455    -46.687438221602    -74.0243190502437    
2022-04-22T17:09:08Z    31.6636666666667    -64.1648333333333    774.5     -767.690119567798    1e-12          4.0922e-14    11.61225            35.6579172727273   27.0658081818182    -0.00179090909090909     -0.0125                                   131.799136363636    265.021181818182    0.497313736363636    -46.687438221602    -74.0243190502437    
2022-04-22T17:09:08Z    31.6636666666667    -64.1648333333333    775       -768.189751000311    1e-12          4.0864e-14    11.6061590909091    35.6569009090909   27.0661718181818    -0.00112727272727273     -0.0125                                   131.797954545455    265.056972727273    0.497242790909091    -46.687438221602    -74.0243190502437    
2022-04-22T17:09:08Z    31.6636666666667    -64.1648333333333    775.5     -768.658710896071    1e-12          4.0807e-14    11.5999045454545    35.6559690909091   27.0666154545455    -0.000463636363636364    -0.0125                                   131.777045454545    265.093518181818    0.497094536363636    -46.687438221602    -74.0243190502437    
2022-04-22T17:09:08Z    31.6636666666667    -64.1648333333333    776       -769.17862194847     1e-12          4.0807e-14    11.5933590909091    35.6546618181818   27.0668645454545    0.0002                   -0.0125                                   131.736954545455    265.132454545455    0.496868681818182    -46.687438221602    -74.0243190502437    
2022-04-22T17:09:08Z    31.6636666666667    -64.1648333333333    776.5     -769.656978544608    1e-12          4.075e-14     11.5831909090909    35.6530527272727   27.0675163636364    0.0002                   -0.0125                                   131.69              265.191927272727    0.496582354545454    -46.687438221602    -74.0243190502437    
2022-04-22T17:09:08Z    31.6636666666667    -64.1648333333333    777       -770.183317931119    1e-12          4.0807e-14    11.5726090909091    35.6515781818182   27.06836            0.0002                   -0.0125                                   131.626636363636    265.253636363636    0.496226109090909    -46.687438221602    -74.0243190502437    
2022-04-22T17:09:08Z    31.6636666666667    -64.1648333333333    777.5     -770.64930526066     1e-12          4.0778e-14    11.5624545454545    35.65013           27.0691318181818    0.0002                   -0.0125                                   131.577454545455    265.312809090909    0.495929490909091    -46.687438221602    -74.0243190502437    
2022-04-22T17:09:08Z    31.6636666666667    -64.1648333333333    778       -771.151897642612    1e-12          4.0836e-14    11.5523090909091    35.6486827272727   27.0699090909091    0.0002                   -0.0125                                   131.514909090909    265.371836363636    0.4955851            -46.687438221602    -74.0243190502437    
2022-04-22T17:09:08Z    31.6636666666667    -64.1648333333333    778.5     -771.629755020565    1e-12          4.0864e-14    11.5413681818182    35.6468727272727   27.0705327272727    0.0002                   -0.0125                                   131.469272727273    265.435954545455    0.495297481818182    -46.687438221602    -74.0243190502437    
2022-04-22T17:09:08Z    31.6636666666667    -64.1648333333333    779       -772.159552132695    1e-12          4.098e-14     11.5230318181818    35.6435590909091   27.0713563636364    0.0002                   -0.0125                                   131.432227272727    265.544009090909    0.494956463636364    -46.687438221602    -74.0243190502437    
2022-04-22T17:09:08Z    31.6636666666667    -64.1648333333333    779.5     -772.652742070468    1e-12          4.1067e-14    11.5011227272727    35.6406036363636   27.0730454545455    0.0002                   -0.0125                                   131.410954545455    265.671409090909    0.494640172727273    -46.687438221602    -74.0243190502437    
2022-04-22T17:09:08Z    31.6636666666667    -64.1648333333333    780       -773.13059599836     1e-12          4.1125e-14    11.4788681818182    35.6378827272727   27.0751127272727    0.0002                   -0.0125                                   131.377772727273    265.800281818182    0.494275145454545    -46.687438221602    -74.0243190502437    
2022-04-22T17:09:08Z    31.6636666666667    -64.1648333333333    780.5     -773.596576721134    1e-12          4.1183e-14    11.4567045454545    35.6352181818182   27.0771445454545    0.0002                   -0.0125                                   131.332590909091    265.928436363636    0.493867181818182    -46.687438221602    -74.0243190502437    
2022-04-22T17:09:08Z    31.6636666666667    -64.1648333333333    781       -774.098172637562    1e-12          4.1125e-14    11.4345             35.6324418181818   27.0791209090909    0.0002                   -0.0125                                   131.274227272727    266.057109090909    0.493411709090909    -46.687438221602    -74.0243190502437    
2022-04-22T17:09:08Z    31.6636666666667    -64.1648333333333    781.5     -774.661106258264    1e-12          4.1067e-14    11.4127818181818    35.63001           27.08122            0.0002                   -0.0125                                   131.201227272727    266.182363636364    0.4929065            -46.687438221602    -74.0243190502437    
2022-04-22T17:09:08Z    31.6636666666667    -64.1648333333333    782       -775.091467488478    1e-12          4.1009e-14    11.3946863636364    35.6277645454545   27.0828272727273    0.0002                   -0.0125                                   131.098909090909    266.287372727273    0.492325618181818    -46.687438221602    -74.0243190502437    
2022-04-22T17:09:08Z    31.6636666666667    -64.1648333333333    782.5     -775.653409087024    1e-12          4.0864e-14    11.3763590909091    35.6253190909091   27.0843163636364    0.0002                   -0.0125                                   130.997727272727    266.394072727273    0.491749781818182    -46.687438221602    -74.0243190502437    
2022-04-22T17:09:08Z    31.6636666666667    -64.1648333333333    783       -776.119384154943    1e-12          4.0836e-14    11.3577909090909    35.6230372727273   27.0859863636364    0.0002                   -0.0125                                   130.900318181818    266.501809090909    0.491184645454545    -46.687438221602    -74.0243190502437    
2022-04-22T17:09:08Z    31.6636666666667    -64.1648333333333    783.5     -776.606628728855    1e-12          4.0778e-14    11.3396409090909    35.6207863636364   27.08758            0.0002                   -0.0125                                   130.810181818182    266.607354545455    0.490650872727273    -46.687438221602    -74.0243190502437    
2022-04-22T17:09:08Z    31.6636666666667    -64.1648333333333    784       -777.093872162995    1e-12          4.0692e-14    11.3222772727273    35.6188727272727   27.0893081818182    0.0002                   -0.0125                                   130.713909090909    266.707809090909    0.490100627272727    -46.687438221602    -74.0243190502437    
2022-04-22T17:09:08Z    31.6636666666667    -64.1648333333333    784.5     -777.565779942563    1e-12          4.0721e-14    11.3120045454545    35.6183572727273   27.09082            0.0002                   -0.0125                                   130.623454545455    266.766354545455    0.489653754545455    -46.687438221602    -74.0243190502437    
2022-04-22T17:09:08Z    31.6636666666667    -64.1648333333333    785       -778.104465814225    1e-12          4.0721e-14    11.3052045454545    35.6174563636364   27.09147            0.0002                   -0.0125                                   130.555363636364    266.806118181818    0.489324363636364    -46.687438221602    -74.0243190502437    
2022-04-22T17:09:08Z    31.6636666666667    -64.1648333333333    785.5     -778.594673689395    1e-12          4.0721e-14    11.2987636363636    35.6163718181818   27.0917618181818    0.0002                   -0.0125                                   130.496772727273    266.8442            0.489035636363636    -46.687438221602    -74.0243190502437    
2022-04-22T17:09:08Z    31.6636666666667    -64.1648333333333    786       -779.084880415221    1e-12          4.075e-14     11.2919272727273    35.6148963636364   27.0919136363636    0.0002                   -0.0125                                   130.410909090909    266.8855            0.488637590909091    -46.687438221602    -74.0243190502437    
2022-04-22T17:09:08Z    31.6636666666667    -64.1648333333333    786.5     -779.581021865217    1e-12          4.0922e-14    11.2842863636364    35.6134063636364   27.0921954545455    0.000872727272727273     -0.0125                                   130.338636363636    266.931172727273    0.488286272727273    -46.687438221602    -74.0243190502437    
2022-04-22T17:09:08Z    31.6636666666667    -64.1648333333333    787       -779.9985118583      1e-12          4.1125e-14    11.2752909090909    35.6117145454545   27.0924718181818    0.00154545454545455      -0.0125                                   130.293772727273    266.985209090909    0.4880197            -46.687438221602    -74.0243190502437    
2022-04-22T17:09:08Z    31.6636666666667    -64.1648333333333    787.5     -780.561429502795    1e-12          4.1213e-14    11.2647136363636    35.60932           27.0925918181818    0.00221818181818182      -0.0125                                   130.255136363636    267.049181818182    0.4877688            -46.687438221602    -74.0243190502437    
2022-04-22T17:09:08Z    31.6636666666667    -64.1648333333333    788       -781.075869596874    1e-12          4.1154e-14    11.2526045454545    35.6077154545455   27.09358            0.00289090909090909      -0.0125                                   130.233045454545    267.120245454545    0.487556354545455    -46.687438221602    -74.0243190502437    
2022-04-22T17:09:08Z    31.6636666666667    -64.1648333333333    788.5     -781.590308423746    1e-12          4.1154e-14    11.2411090909091    35.6061272727273   27.0944481818182    0.00289090909090909      -0.0125                                   130.221363636364    267.187827272727    0.487389790909091    -46.687438221602    -74.0243190502437    
2022-04-22T17:09:08Z    31.6636666666667    -64.1648333333333    789       -782.007794387893    1e-12          4.1096e-14    11.2284318181818    35.6040254545455   27.0951372727273    0.00289090909090909      -0.0125                                   130.209409090909    267.2628            0.487209127272727    -46.687438221602    -74.0243190502437    
2022-04-22T17:09:08Z    31.6636666666667    -64.1648333333333    789.5     -782.54646875073     1e-12          4.098e-14     11.2142045454545    35.6019172727273   27.0961             0.00289090909090909      -0.0125                                   130.199772727273    267.3468            0.487020272727273    -46.687438221602    -74.0243190502437    
2022-04-22T17:09:08Z    31.6636666666667    -64.1648333333333    790       -783.015396262501    1e-12          4.09655e-14   11.1999318181818    35.5999772727273   27.0972063636364    0.00289090909090909      -0.0125                                   130.173136363636    267.430690909091    0.486763527272727    -46.687438221602    -74.0243190502437    
2022-04-22T17:09:08Z    31.6636666666667    -64.1648333333333    790.5     -783.508560448483    1e-12          4.0893e-14    11.1847954545455    35.5979145454545   27.0983663636364    0.00289090909090909      -0.0125                                   130.124772727273    267.519809090909    0.486421727272727    -46.687438221602    -74.0243190502437    
2022-04-22T17:09:08Z    31.6636666666667    -64.1648333333333    791       -784.022993256488    1e-12          4.0807e-14    11.1692272727273    35.5960418181818   27.0997090909091    0.00289090909090909      -0.0125                                   130.050545454545    267.611354545455    0.485978972727273    -46.687438221602    -74.0243190502437    
2022-04-22T17:09:08Z    31.6636666666667    -64.1648333333333    791.5     -784.537424791753    1e-12          4.0778e-14    11.1543090909091    35.5944490909091   27.1012072727273    0.00289090909090909      -0.0125                                   129.959772727273    267.698436363636    0.485487945454546    -46.687438221602    -74.0243190502437    
2022-04-22T17:09:08Z    31.6636666666667    -64.1648333333333    792       -785.051855054299    1e-12          4.0778e-14    11.1414363636364    35.5930190909091   27.1024109090909    0.00221818181818182      -0.0125                                   129.8335            267.773927272727    0.484876427272727    -46.687438221602    -74.0243190502437    
2022-04-22T17:09:08Z    31.6636666666667    -64.1648333333333    792.5     -785.51780905903     1e-12          4.0721e-14    11.1287227272727    35.59152           27.1036672727273    0.00154545454545454      -0.0125                                   129.692954545455    267.848181818182    0.484216554545455    -46.687438221602    -74.0243190502437    
2022-04-22T17:09:08Z    31.6636666666667    -64.1648333333333    793       -785.983762019633    1e-12          4.0721e-14    11.1163545454545    35.5906572727273   27.1052218181818    0.000872727272727273     -0.0125                                   129.5715            267.919636363636    0.483623590909091    -46.687438221602    -74.0243190502437    
2022-04-22T17:09:08Z    31.6636666666667    -64.1648333333333    793.5     -786.498188703989    1e-12          4.075e-14     11.1055272727273    35.5890563636364   27.1059436363636    0.0002                   -0.0125                                   129.4375            267.983881818182    0.483005             -46.687438221602    -74.0243190502437    
2022-04-22T17:09:08Z    31.6636666666667    -64.1648333333333    794       -787.152102325326    1e-12          4.0778e-14    11.0936090909091    35.5870945454546   27.1065945454545    0.0002                   -0.0125                                   129.308863636364    268.055081818182    0.482392790909091    -46.687438221602    -74.0243190502437    
2022-04-22T17:09:08Z    31.6636666666667    -64.1648333333333    794.5     -787.387550296681    1e-12          4.1096e-14    11.0806090909091    35.5849672727273   27.1073945454545    0.0002                   -0.0125                                   129.196590909091    268.1329            0.481835336363636    -46.687438221602    -74.0243190502437    
2022-04-22T17:09:08Z    31.6636666666667    -64.1648333333333    795       -787.901973508242    1e-12          4.1154e-14    11.0662454545455    35.5830290909091   27.1084609090909    0.0002                   -0.0125                                   129.103318181818    268.217927272727    0.481337845454545    -46.687438221602    -74.0243190502437    
2022-04-22T17:09:08Z    31.6636666666667    -64.1648333333333    795.5     -788.464869750981    1e-12          4.1213e-14    11.0503181818182    35.5808154545455   27.1096281818182    0.0002                   -0.0125                                   129.015863636364    268.312263636364    0.480833236363636    -46.687438221602    -74.0243190502437    
2022-04-22T17:09:08Z    31.6636666666667    -64.1648333333333    796       -788.979290303128    1e-12          4.1213e-14    11.0334272727273    35.5787354545455   27.1110645454545    0.0002                   -0.0125                                   128.944727272727    268.411763636364    0.4803849            -46.687438221602    -74.0243190502437    
2022-04-22T17:09:08Z    31.6636666666667    -64.1648333333333    796.5     -789.445235507497    1e-12          4.1154e-14    11.0162727272727    35.5767972727273   27.1127163636364    -0.000463636363636364    -0.0125                                   128.878909090909    268.512172727273    0.479960036363636    -46.687438221602    -74.0243190502437    
2022-04-22T17:09:08Z    31.6636666666667    -64.1648333333333    797       -789.95965362884     1e-12          4.1125e-14    10.9988727272727    35.5749418181818   27.1143745454545    -0.00112727272727273     -0.0125                                   128.850590909091    268.614154545455    0.479667181818182    -46.687438221602    -74.0243190502437    
2022-04-22T17:09:08Z    31.6636666666667    -64.1648333333333    797.5     -790.474070477679    1e-12          4.1067e-14    10.9812             35.5732763636364   27.1162836363636    -0.00179090909090909     -0.0125                                   128.854045454545    268.717309090909    0.479496809090909    -46.687438221602    -74.0243190502437    
2022-04-22T17:09:08Z    31.6636666666667    -64.1648333333333    798       -790.988486054035    1e-12          4.0951e-14    10.9651681818182    35.5717863636364   27.1179945454545    -0.00212272727272727     -0.0125                                   128.865318181818    268.811136363636    0.479372136363636    -46.687438221602    -74.0243190502437    
2022-04-22T17:09:08Z    31.6636666666667    -64.1648333333333    798.5     -791.460362300289    1e-12          4.0922e-14    10.9507772727273    35.5705345454545   27.1196272727273    -0.00212272727272727     -0.0125                                   128.886409090909    268.895181818182    0.479300590909091    -46.687438221602    -74.0243190502437    
2022-04-22T17:09:08Z    31.6636666666667    -64.1648333333333    799       -791.927291200728    1e-12          4.0864e-14    10.9376136363636    35.5694281818182   27.1211627272727    -0.00212272727272727     -0.0125                                   128.939590909091    268.972163636364    0.479364172727273    -46.687438221602    -74.0243190502437    
2022-04-22T17:09:08Z    31.6636666666667    -64.1648333333333    799.5     -792.417466491211    1e-12          4.0807e-14    10.9257954545455    35.5685309090909   27.1225981818182    -0.00212272727272727     -0.0125                                   128.998409090909    269.041109090909    0.479463172727273    -46.687438221602    -74.0243190502437    
2022-04-22T17:09:08Z    31.6636666666667    -64.1648333333333    800       -792.907640629188    1e-12          4.075e-14     10.9163954545455    35.5682909090909   27.1240381818182    -0.00212272727272727     -0.0125                                   129.078409090909    269.095118181818    0.479662827272727    -46.687438221602    -74.0243190502437    
2022-04-22T17:09:08Z    31.6636666666667    -64.1648333333333    800.5     -793.422050185996    1e-12          4.07355e-14   10.9099272727273    35.5678754545455   27.1249181818182    -0.00212272727272727     -0.0125                                   129.102863636364    269.1328            0.479683327272727    -46.687438221602    -74.0243190502437    
2022-04-22T17:09:08Z    31.6636666666667    -64.1648333333333    801       -793.936458470438    1e-12          4.0721e-14    10.9055863636364    35.5676827272727   27.1255654545455    -0.00212272727272727     -0.0125                                   129.117454545455    269.158163636364    0.479706236363636    -46.687438221602    -74.0243190502437    
2022-04-22T17:09:08Z    31.6636666666667    -64.1648333333333    801.5     -794.408328027867    1e-12          4.0721e-14    10.9032136363636    35.5675436363636   27.1259036363636    -0.00212272727272727     -0.0125                                   129.138318181818    269.172218181818    0.479763436363636    -46.687438221602    -74.0243190502437    
2022-04-22T17:09:08Z    31.6636666666667    -64.1648333333333    802       -794.965271222306    1e-12          4.0807e-14    10.90205            35.5671563636364   27.1258118181818    -0.00145909090909091     -0.0125                                   129.1865            269.179963636364    0.479926854545455    -46.687438221602    -74.0243190502437    
2022-04-22T17:09:08Z    31.6636666666667    -64.1648333333333    802.5     -795.340193065662    1e-12          4.1038e-14    10.9009             35.5666818181818   27.1256718181818    -0.000795454545454545    -0.0125                                   129.245181818182    269.187718181818    0.480130181818182    -46.687438221602    -74.0243190502437    
2022-04-22T17:09:08Z    31.6636666666667    -64.1648333333333    803       -795.830360312332    1e-12          4.1154e-14    10.89975            35.5661927272727   27.1255109090909    -0.000131818181818182    -0.0125                                   129.3105            269.195527272727    0.480359             -46.687438221602    -74.0243190502437    
2022-04-22T17:09:08Z    31.6636666666667    -64.1648333333333    803.5     -796.368998873723    1e-12          4.1125e-14    10.8985909090909    35.5657463636364   27.1253772727273    -0.000463636363636364    -0.0125                                   129.372727272727    269.203290909091    0.480576472727273    -46.687438221602    -74.0243190502437    
2022-04-22T17:09:08Z    31.6636666666667    -64.1648333333333    804       -796.877464480522    1e-12          4.1096e-14    10.8973454545455    35.5652563636364   27.1252327272727    -0.00112727272727273     -0.0125                                   129.421545454545    269.211636363636    0.480742927272727    -46.687438221602    -74.0243190502437    
2022-04-22T17:09:08Z    31.6636666666667    -64.1648333333333    804.5     -797.307779733029    1e-12          4.1009e-14    10.8960727272727    35.5648136363636   27.1251190909091    -0.00179090909090909     -0.0125                                   129.441909090909    269.219918181818    0.480804581818182    -46.687438221602    -74.0243190502437    
2022-04-22T17:09:08Z    31.6636666666667    -64.1648333333333    805       -797.86471515769     1e-12          4.098e-14     10.8946590909091    35.5643754545455   27.1250527272727    -0.00245454545454545     -0.0125                                   129.443863636364    269.229063636364    0.480795936363636    -46.687438221602    -74.0243190502437    
2022-04-22T17:09:08Z    31.6636666666667    -64.1648333333333    805.5     -798.357844133469    1e-12          4.09075e-14   10.89305            35.5639490909091   27.12501            -0.00311818181818182     -0.0125                                   129.4185            269.239390909091    0.480682863636364    -46.687438221602    -74.0243190502437    
2022-04-22T17:09:08Z    31.6636666666667    -64.1648333333333    806       -798.850971938012    1e-12          4.0836e-14    10.8910818181818    35.5635072727273   27.1250109090909    -0.00311818181818182     -0.0125                                   129.440272727273    269.251845454545    0.480741581818182    -46.687438221602    -74.0243190502437    
2022-04-22T17:09:08Z    31.6636666666667    -64.1648333333333    806.5     -799.365366795346    1e-12          4.0836e-14    10.8889272727273    35.56298           27.1250290909091    -0.00311818181818182     -0.0125                                   129.451818181818    269.2654            0.480759563636364    -46.687438221602    -74.0243190502437    
2022-04-22T17:09:08Z    31.6636666666667    -64.1648333333333    807       -799.831288731617    1e-12          4.0807e-14    10.8857954545455    35.5623663636364   27.12512            -0.00311818181818182     -0.0125                                   129.448454545455    269.284781818182    0.480712118181818    -46.687438221602    -74.0243190502437    
2022-04-22T17:09:08Z    31.6636666666667    -64.1648333333333    807.5     -800.318477748688    1e-12          4.0764e-14    10.8819045454545    35.5618190909091   27.1253954545455    -0.00311818181818182     -0.0125                                   129.431272727273    269.308263636364    0.480605754545455    -46.687438221602    -74.0243190502437    
2022-04-22T17:09:08Z    31.6636666666667    -64.1648333333333    808       -800.818525394302    1e-12          4.075e-14     10.8785909090909    35.5614445454545   27.1256827272727    -0.00311818181818182     -0.0124090909090909                       129.389272727273    269.328054545455    0.480412581818182    -46.687438221602    -74.0243190502437    
2022-04-22T17:09:08Z    31.6636666666667    -64.1648333333333    808.5     -801.369516163695    1e-12          4.07925e-14   10.8738954545455    35.5605836363636   27.1258463636364    -0.00244545454545455     -0.0124090909090909                       129.359             269.356754545455    0.480248390909091    -46.687438221602    -74.0243190502437    
2022-04-22T17:09:08Z    31.6636666666667    -64.1648333333333    809       -801.841368858059    1e-12          4.0778e-14    10.8681409090909    35.5596045454545   27.1261309090909    -0.00144545454545455     -0.0124090909090909                       129.342409090909    269.391672727273    0.480124145454545    -46.687438221602    -74.0243190502437    
2022-04-22T17:09:08Z    31.6636666666667    -64.1648333333333    809.5     -802.310252865283    1e-12          4.0778e-14    10.8609             35.5583172727273   27.1264309090909    -0.000781818181818182    -0.0124090909090909                       129.330636363636    269.435609090909    0.479991063636364    -46.687438221602    -74.0243190502437    
2022-04-22T17:09:08Z    31.6636666666667    -64.1648333333333    810       -802.912678234582    1e-12          4.0864e-14    10.8499545454545    35.5569354545455   27.12733            -0.000118181818181818    -0.0124090909090909                       129.305954545455    269.500818181818    0.479782790909091    -46.687438221602    -74.0243190502437    
2022-04-22T17:09:08Z    31.6636666666667    -64.1648333333333    810.5     -803.203503650495    1e-12          4.098e-14     10.8381954545455    35.5556409090909   27.12839            0.000545454545454545     -0.0124090909090909                       129.299636363636    269.570463636364    0.479639081818182    -46.687438221602    -74.0243190502437    
2022-04-22T17:09:08Z    31.6636666666667    -64.1648333333333    811       -803.778723469868    1e-12          4.1038e-14    10.8238954545455    35.5537318181818   27.12946            0.00120909090909091      -0.0124090909090909                       129.283818181818    269.6558            0.479423954545455    -46.687438221602    -74.0243190502437    
2022-04-22T17:09:08Z    31.6636666666667    -64.1648333333333    811.5     -804.256505877849    1e-12          4.1038e-14    10.8071045454545    35.5516327272727   27.1308072727273    0.00120909090909091      -0.0124090909090909                       129.270681818182    269.7558            0.479201263636364    -46.687438221602    -74.0243190502437    
2022-04-22T17:09:08Z    31.6636666666667    -64.1648333333333    812       -804.764952203271    1e-12          4.098e-14     10.7876818181818    35.5496254545455   27.1326836363636    0.00120909090909091      -0.0124090909090909                       129.262             269.870590909091    0.478966081818182    -46.687438221602    -74.0243190502437    
2022-04-22T17:09:08Z    31.6636666666667    -64.1648333333333    812.5     -805.279332437399    1e-12          4.0951e-14    10.7682681818182    35.5476527272727   27.1345927272727    0.00120909090909091      -0.0124090909090909                       129.262409090909    269.985281818182    0.478764754545455    -46.687438221602    -74.0243190502437    
2022-04-22T17:09:08Z    31.6636666666667    -64.1648333333333    813       -805.763541129731    1e-12          4.0922e-14    10.7493136363636    35.5455354545455   27.1363345454545    0.00120909090909091      -0.0124090909090909                       129.29              270.097736363636    0.478667627272727    -46.687438221602    -74.0243190502437    
2022-04-22T17:09:08Z    31.6636666666667    -64.1648333333333    813.5     -806.248243287672    1e-12          4.0836e-14    10.7291954545455    35.5428109090909   27.1379309090909    0.00120909090909091      -0.0125                                   129.330363636364    270.218136363636    0.478607490909091    -46.687438221602    -74.0243190502437    
2022-04-22T17:09:08Z    31.6636666666667    -64.1648333333333    814       -806.793284569362    1e-12          4.0836e-14    10.7082772727273    35.54054           27.1399054545455    0.000536363636363636     -0.0125                                   129.338954545455    270.342018181818    0.4784174            -46.687438221602    -74.0243190502437    
2022-04-22T17:09:08Z    31.6636666666667    -64.1648333333333    814.5     -807.276995146028    1e-12          4.0778e-14    10.6868318181818    35.5379918181818   27.1417563636364    0.0002                   -0.0125                                   129.330318181818    270.469718181818    0.478163854545455    -46.687438221602    -74.0243190502437    
2022-04-22T17:09:08Z    31.6636666666667    -64.1648333333333    815       -807.785434089778    1e-12          4.0807e-14    10.6651954545455    35.5358109090909   27.1439090909091    0.0002                   -0.0125                                   129.308818181818    270.597881818182    0.477866318181818    -46.687438221602    -74.0243190502437    
2022-04-22T17:09:08Z    31.6636666666667    -64.1648333333333    815.5     -808.182094737118    1e-12          4.08785e-14   10.6460045454545    35.5333327272727   27.1454245454545    0.0002                   -0.0125                                   129.289318181818    270.712818181818    0.477589854545455    -46.687438221602    -74.0243190502437    
2022-04-22T17:09:08Z    31.6636666666667    -64.1648333333333    816       -808.745430691469    1e-12          4.09075e-14   10.6261681818182    35.5307436363636   27.1469709090909    0.0002                   -0.0125                                   129.244090909091    270.831754545454    0.477207145454545    -46.687438221602    -74.0243190502437    
2022-04-22T17:09:08Z    31.6636666666667    -64.1648333333333    816.5     -809.244468906852    1e-12          4.098e-14     10.6079772727273    35.5289372727273   27.1488063636364    0.0002                   -0.0125                                   129.203181818182    270.939709090909    0.476873218181818    -46.687438221602    -74.0243190502437    
2022-04-22T17:09:08Z    31.6636666666667    -64.1648333333333    817       -809.701960763959    1e-12          4.1009e-14    10.5916590909091    35.5271809090909   27.1503245454545    0.0002                   -0.0125                                   129.151227272727    271.037090909091    0.476505854545455    -46.687438221602    -74.0243190502437    
2022-04-22T17:09:08Z    31.6636666666667    -64.1648333333333    817.5     -810.244025495057    1e-12          4.10525e-14   10.5775590909091    35.5255372727273   27.1515281818182    0.0002                   -0.0125                                   129.105181818182    271.121545454545    0.476187509090909    -46.687438221602    -74.0243190502437    
2022-04-22T17:09:08Z    31.6636666666667    -64.1648333333333    818       -810.697558496974    1e-12          4.1096e-14    10.5641590909091    35.52391           27.1526445454545    0.0002                   -0.0125                                   129.072318181818    271.202027272727    0.475924890909091    -46.687438221602    -74.0243190502437    
2022-04-22T17:09:08Z    31.6636666666667    -64.1648333333333    818.5     -811.203021591068    1e-12          4.11105e-14   10.5506045454545    35.5224245454545   27.1538772727273    0.000872727272727273     -0.0125                                   129.038727272727    271.283036363636    0.475659             -46.687438221602    -74.0243190502437    
2022-04-22T17:09:08Z    31.6636666666667    -64.1648333333333    819       -811.708483457522    1e-12          4.1125e-14    10.5376954545455    35.5213590909091   27.1552227272727    0.00154545454545455      -0.0125                                   128.998818181818    271.3596            0.475376727272727    -46.687438221602    -74.0243190502437    
2022-04-22T17:09:08Z    31.6636666666667    -64.1648333333333    819.5     -812.223835681151    1e-12          4.1154e-14    10.5259227272727    35.52012           27.1563218181818    0.00154545454545455      -0.0125                                   128.964727272727    271.430209090909    0.475130663636364    -46.687438221602    -74.0243190502437    
2022-04-22T17:09:08Z    31.6636666666667    -64.1648333333333    820       -812.7381974722      1e-12          4.1096e-14    10.5126181818182    35.5185181818182   27.1572845454545    0.00154545454545455      -0.0125                                   128.935272727273    271.510563636364    0.4748863            -46.687438221602    -74.0243190502437    
2022-04-22T17:09:08Z    31.6636666666667    -64.1648333333333    820.5     -813.221894227096    1e-12          4.1009e-14    10.4996090909091    35.5172818181818   27.1586             0.00154545454545455      -0.0125                                   128.902454545455    271.588272727273    0.474632081818182    -46.687438221602    -74.0243190502437    
2022-04-22T17:09:08Z    31.6636666666667    -64.1648333333333    821       -813.676904462937    1e-12          4.0864e-14    10.4870090909091    35.5161945454545   27.1599409090909    0.000881818181818181     -0.0125                                   128.895090909091    271.663345454545    0.4744814            -46.687438221602    -74.0243190502437    
2022-04-22T17:09:08Z    31.6636666666667    -64.1648333333333    821.5     -814.191262661774    1e-12          4.0778e-14    10.4751272727273    35.5150263636364   27.1611345454545    0.000218181818181818     -0.0125                                   128.930045454545    271.734454545455    0.474489418181818    -46.687438221602    -74.0243190502437    
2022-04-22T17:09:08Z    31.6636666666667    -64.1648333333333    822       -814.626487836863    1e-12          4.0807e-14    10.4633818181818    35.5138            27.1622263636364    -0.000445454545454546    -0.0125                                   128.9955            271.805018181818    0.474603609090909    -46.687438221602    -74.0243190502437    
2022-04-22T17:09:08Z    31.6636666666667    -64.1648333333333    822.5     -815.156670001453    1e-12          4.0778e-14    10.4521909090909    35.51263           27.16332            -0.000445454545454546    -0.0125                                   129.085454545455    271.871881818182    0.474817045454546    -46.687438221602    -74.0243190502437    
2022-04-22T17:09:08Z    31.6636666666667    -64.1648333333333    823       -815.641350271907    1e-12          4.07925e-14   10.4406636363636    35.5110136363636   27.1640809090909    -0.000445454545454546    -0.0125                                   129.168363636364    271.941945454545    0.474990118181818    -46.687438221602    -74.0243190502437    
2022-04-22T17:09:08Z    31.6636666666667    -64.1648333333333    823.5     -816.152736200037    1e-12          4.0807e-14    10.4263             35.5090336363636   27.1650818181818    -0.000445454545454546    -0.0125                                   129.208954545455    272.029027272727    0.474992063636364    -46.687438221602    -74.0243190502437    
2022-04-22T17:09:08Z    31.6636666666667    -64.1648333333333    824       -816.69181671183     1e-12          4.0807e-14    10.4102909090909    35.5069490909091   27.16619            -0.00111818181818182     -0.0125                                   129.217181818182    272.126190909091    0.474854318181818    -46.687438221602    -74.0243190502437    
2022-04-22T17:09:08Z    31.6636666666667    -64.1648333333333    824.5     -817.188363030119    1e-12          4.0836e-14    10.3936090909091    35.5049545454545   27.16755            -0.00111818181818182     -0.0125                                   129.236363636364    272.226854545455    0.474746854545455    -46.687438221602    -74.0243190502437    
2022-04-22T17:09:08Z    31.6636666666667    -64.1648333333333    825       -817.745245240386    1e-12          4.1038e-14    10.3767772727273    35.5030109090909   27.1689772727273    -0.000445454545454546    -0.0125                                   129.265818181818    272.328354545455    0.474682527272727    -46.687438221602    -74.0243190502437    
2022-04-22T17:09:08Z    31.6636666666667    -64.1648333333333    825.5     -818.095892331401    1e-12          4.1213e-14    10.36255            35.5019227272727   27.1707227272727    0.000227272727272727     -0.0125                                   129.274             272.412827272727    0.474557054545455    -46.687438221602    -74.0243190502437    
2022-04-22T17:09:08Z    31.6636666666667    -64.1648333333333    826       -818.611228734809    1e-12          4.1242e-14    10.3494818181818    35.5003863636364   27.1718045454545    0.000227272727272727     -0.0125                                   129.290409090909    272.491736363636    0.474480245454546    -46.687438221602    -74.0243190502437    
2022-04-22T17:09:08Z    31.6636666666667    -64.1648333333333    826.5     -819.15277568776     1e-12          4.1183e-14    10.3367181818182    35.4989118181818   27.1728509090909    0.000890909090909091     -0.0125                                   129.2965            272.568936363636    0.474361418181818    -46.687438221602    -74.0243190502437    
2022-04-22T17:09:08Z    31.6636666666667    -64.1648333333333    827       -819.640414029401    1e-12          4.1096e-14    10.3244772727273    35.49758           27.1739209090909    0.00155454545454545      -0.0125                                   129.246636363636    272.642736363636    0.474047636363636    -46.687438221602    -74.0243190502437    
2022-04-22T17:09:08Z    31.6636666666667    -64.1648333333333    827.5     -820.158219408682    1e-12          4.1067e-14    10.3128181818182    35.4961881818182   27.1748645454545    0.00221818181818182      -0.0125                                   129.177090909091    272.713409090909    0.473671236363636    -46.687438221602    -74.0243190502437    
2022-04-22T17:09:08Z    31.6636666666667    -64.1648333333333    828       -820.627062136975    1e-12          4.09945e-14   10.3013             35.4948972727273   27.1758654545455    0.00221818181818182      -0.0125                                   129.093454545455    272.783236363636    0.473245590909091    -46.687438221602    -74.0243190502437    
2022-04-22T17:09:08Z    31.6636666666667    -64.1648333333333    828.5     -821.142392271967    1e-12          4.08785e-14   10.2902318181818    35.4939154545455   27.1770227272727    0.00221818181818182      -0.0125                                   129.012590909091    272.849818181818    0.472842781818182    -46.687438221602    -74.0243190502437    
2022-04-22T17:09:08Z    31.6636666666667    -64.1648333333333    829       -821.680965302099    1e-12          4.0836e-14    10.2820363636364    35.4933327272727   27.1779654545455    0.00221818181818182      -0.0125                                   128.965590909091    272.898954545455    0.472581045454545    -46.687438221602    -74.0243190502437    
2022-04-22T17:09:08Z    31.6636666666667    -64.1648333333333    829.5     -822.123593146713    1e-12          4.0807e-14    10.2756272727273    35.4927772727273   27.1787209090909    0.00221818181818182      -0.0125                                   128.948             272.937445454545    0.472448936363636    -46.687438221602    -74.0243190502437    
2022-04-22T17:09:08Z    31.6636666666667    -64.1648333333333    830       -822.662163637461    1e-12          4.0764e-14    10.2701545454545    35.4922372727273   27.1792536363636    0.00154545454545454      -0.0125                                   128.920636363636    272.970690909091    0.4722921            -46.687438221602    -74.0243190502437    
2022-04-22T17:09:08Z    31.6636666666667    -64.1648333333333    830.5     -823.109734928991    1e-12          4.0778e-14    10.2662136363636    35.4919663636364   27.1797327272727    0.000872727272727273     -0.0125                                   128.885318181818    272.994490909091    0.472115609090909    -46.687438221602    -74.0243190502437    
2022-04-22T17:09:08Z    31.6636666666667    -64.1648333333333    831       -823.576592798909    1e-12          4.07925e-14   10.2621636363636    35.4916054545455   27.1801709090909    0.0002                   -0.0125                                   128.872363636364    273.019118181818    0.472026363636364    -46.687438221602    -74.0243190502437    
2022-04-22T17:09:08Z    31.6636666666667    -64.1648333333333    831.5     -824.11515952936     1e-12          4.0807e-14    10.2581181818182    35.4913572727273   27.1806854545455    0.0002                   -0.0125                                   128.873136363636    273.043681818182    0.471986181818182    -46.687438221602    -74.0243190502437    
2022-04-22T17:09:08Z    31.6636666666667    -64.1648333333333    832       -824.582015143783    1e-12          4.0922e-14    10.2538636363636    35.4911472727273   27.1812627272727    0.000872727272727273     -0.0125                                   128.877136363636    273.0692            0.471957690909091    -46.687438221602    -74.0243190502437    
2022-04-22T17:09:08Z    31.6636666666667    -64.1648333333333    832.5     -825.096346387891    1e-12          4.1183e-14    10.2494681818182    35.4909063636364   27.1818463636364    0.00154545454545455      -0.0125                                   128.885090909091    273.095681818182    0.471943             -46.687438221602    -74.0243190502437    
2022-04-22T17:09:08Z    31.6636666666667    -64.1648333333333    833       -825.569134371798    1e-12          4.1242e-14    10.2446909090909    35.4905709090909   27.1824127272727    0.00221818181818182      -0.0125                                   128.889636363636    273.124490909091    0.471908445454545    -46.687438221602    -74.0243190502437    
2022-04-22T17:09:08Z    31.6636666666667    -64.1648333333333    833.5     -826.080495893483    1e-12          4.1242e-14    10.2392727272727    35.4900390909091   27.1828754545455    0.00221818181818182      -0.0125                                   128.920363636364    273.1577            0.471962118181818    -46.687438221602    -74.0243190502437    
2022-04-22T17:09:08Z    31.6636666666667    -64.1648333333333    834       -826.598779800071    1e-12          4.1183e-14    10.2336318181818    35.4898572727273   27.1837290909091    0.00221818181818182      -0.0125                                   128.970181818182    273.191127272727    0.472087054545455    -46.687438221602    -74.0243190502437    
2022-04-22T17:09:08Z    31.6636666666667    -64.1648333333333    834.5     -827.064640755214    1e-12          4.1125e-14    10.2281454545455    35.4900309090909   27.1848254545455    0.00221818181818182      -0.0125                                   129.019863636364    273.223090909091    0.472213245454546    -46.687438221602    -74.0243190502437    
2022-04-22T17:09:08Z    31.6636666666667    -64.1648333333333    835       -827.537424267758    1e-12          4.098e-14     10.2227863636364    35.4903609090909   27.1860081818182    0.00221818181818182      -0.0125                                   129.101909090909    273.2541            0.472459427272727    -46.687438221602    -74.0243190502437    
2022-04-22T17:09:08Z    31.6636666666667    -64.1648333333333    835.5     -828.051748208166    1e-12          4.0922e-14    10.2170590909091    35.4903427272727   27.1869918181818    0.00289090909090909      -0.0125                                   129.235909090909    273.287836363636    0.472895381818182    -46.687438221602    -74.0243190502437    
2022-04-22T17:09:08Z    31.6636666666667    -64.1648333333333    836       -828.567059958417    1e-12          4.0893e-14    10.2097909090909    35.4901518181818   27.1880863636364    0.00356363636363636      -0.0125                                   129.4215            273.330981818182    0.473501136363636    -46.687438221602    -74.0243190502437    
2022-04-22T17:09:08Z    31.6636666666667    -64.1648333333333    836.5     -829.081381354422    1e-12          4.0807e-14    10.2018             35.48992           27.1892854545455    0.00423636363636364      -0.0126                                   129.621136363636    273.378409090909    0.474148481818182    -46.687438221602    -74.0243190502437    
2022-04-22T17:09:08Z    31.6636666666667    -64.1648333333333    837       -829.52696067851     1e-12          4.0778e-14    10.1928954545455    35.48979           27.1906436363636    0.00423636363636364      -0.0127                                   129.931590909091    273.431554545455    0.475188736363636    -46.687438221602    -74.0243190502437    
2022-04-22T17:09:08Z    31.6636666666667    -64.1648333333333    837.5     -830.017047399107    1e-12          4.0807e-14    10.1859227272727    35.4898463636364   27.1917563636364    0.00356363636363636      -0.0127                                   130.3505            273.4722            0.476651581818182    -46.687438221602    -74.0243190502437    
2022-04-22T17:09:08Z    31.6636666666667    -64.1648333333333    838       -830.504660284955    1e-12          4.0778e-14    10.1761318181818    35.4892390909091   27.1929681818182    0.00289090909090909      -0.0127                                   130.794863636364    273.530909090909    0.478171218181818    -46.687438221602    -74.0243190502437    
2022-04-22T17:09:08Z    31.6636666666667    -64.1648333333333    838.5     -830.976941447286    1e-12          4.075e-14     10.16555            35.4886472727273   27.1943336363636    0.00221818181818182      -0.0127                                   131.233863636364    273.594227272727    0.479665236363636    -46.687438221602    -74.0243190502437    
2022-04-22T17:09:08Z    31.6636666666667    -64.1648333333333    839       -831.516478095035    1e-12          4.0778e-14    10.15505            35.4882372727273   27.19589            0.00221818181818182      -0.0127                                   131.624681818182    273.656472727273    0.480983936363637    -46.687438221602    -74.0243190502437    
2022-04-22T17:09:08Z    31.6636666666667    -64.1648333333333    839.5     -832.127720488616    1e-12          4.09365e-14   10.1440318181818    35.4871872727273   27.1969290909091    0.00221818181818182      -0.0128                                   131.999954545455    273.723436363636    0.482237318181818    -46.687438221602    -74.0243190502437    
2022-04-22T17:09:08Z    31.6636666666667    -64.1648333333333    840       -832.425428512482    1e-12          4.1213e-14    10.1316318181818    35.4852936363636   27.1976263636364    0.00221818181818182      -0.0129                                   132.354363636364    273.799972727273    0.483405154545455    -46.687438221602    -74.0243190502437    
2022-04-22T17:09:08Z    31.6636666666667    -64.1648333333333    840.5     -832.970401233747    1e-12          4.1183e-14    10.1166636363636    35.4822072727273   27.1979945454545    0.00221818181818182      -0.013                                    132.668863636364    273.893836363636    0.484396272727273    -46.687438221602    -74.0243190502437    
2022-04-22T17:09:08Z    31.6636666666667    -64.1648333333333    841       -833.436247927878    1e-12          4.1125e-14    10.0984545454545    35.4795081818182   27.1989945454545    0.00154545454545454      -0.0131                                   132.949227272727    274.006027272727    0.485224127272727    -46.687438221602    -74.0243190502437    
2022-04-22T17:09:08Z    31.6636666666667    -64.1648333333333    841.5     -833.951546347482    1e-12          4.1038e-14    10.07875            35.4767272727273   27.2002372727273    0.000872727272727273     -0.0132                                   133.169409090909    274.126890909091    0.485814809090909    -46.687438221602    -74.0243190502437    
2022-04-22T17:09:08Z    31.6636666666667    -64.1648333333333    842       -834.465854438641    1e-12          4.1009e-14    10.0580681818182    35.4735281818182   27.2012636363636    0.0002                   -0.0132                                   133.3915            274.254836363636    0.486401181818182    -46.687438221602    -74.0243190502437    
2022-04-22T17:09:08Z    31.6636666666667    -64.1648333333333    842.5     -834.914389398597    1e-12          4.098e-14     10.0354909090909    35.4696145454545   27.2021554545455    0.0002                   -0.0132                                   133.474136363636    274.394763636364    0.486458736363636    -46.687438221602    -74.0243190502437    
2022-04-22T17:09:08Z    31.6636666666667    -64.1648333333333    843       -835.453915840423    1e-12          4.0922e-14    10.0080272727273    35.46545           27.2037345454545    0.0002                   -0.0133                                   133.444136363636    274.564872727273    0.486045963636364    -46.687438221602    -74.0243190502437    
2022-04-22T17:09:08Z    31.6636666666667    -64.1648333333333    843.5     -835.919756976583    1e-12          4.0864e-14    9.97856363636364    35.4620709090909   27.2061             -0.00112727272727273     -0.0134                                   133.418318181818    274.745290909091    0.4856348            -46.687438221602    -74.0243190502437    
2022-04-22T17:09:08Z    31.6636666666667    -64.1648333333333    844       -836.404388899294    1e-12          4.0864e-14    9.94868181818182    35.4590627272727   27.2088454545455    -0.00245454545454545     -0.0134                                   133.367318181818    274.927527272727    0.485125227272727    -46.687438221602    -74.0243190502437    
2022-04-22T17:09:08Z    31.6636666666667    -64.1648333333333    844.5     -836.968142981602    1e-12          4.0864e-14    9.91975454545454    35.4561409090909   27.2115136363636    -0.00211818181818182     -0.0134                                   133.175227272727    275.104109090909    0.484117263636364    -46.687438221602    -74.0243190502437    
2022-04-22T17:09:08Z    31.6636666666667    -64.1648333333333    845       -837.422112264478    1e-12          4.0836e-14    9.89383636363636    35.4533381818182   27.2137745454545    -0.00211818181818182     -0.0134                                   132.931590909091    275.262181818182    0.482952981818182    -46.687438221602    -74.0243190502437    
2022-04-22T17:09:08Z    31.6636666666667    -64.1648333333333    845.5     -837.949269252649    1e-12          4.0807e-14    9.86190909090909    35.45053           27.2168827272727    -0.00211818181818182     -0.0134                                   132.767090909091    275.4567            0.482006763636364    -46.687438221602    -74.0243190502437    
2022-04-22T17:09:08Z    31.6636666666667    -64.1648333333333    846       -838.403236395943    1e-12          4.0864e-14    9.8317              35.4487618181818   27.2203763636364    -0.00211818181818182     -0.0133                                   132.588454545455    275.639036363636    0.481029854545454    -46.687438221602    -74.0243190502437    
2022-04-22T17:09:08Z    31.6636666666667    -64.1648333333333    846.5     -838.887862537011    1e-12          4.0864e-14    9.80365909090909    35.4467263636364   27.2235445454545    -0.00211818181818182     -0.0132                                   132.384590909091    275.809290909091    0.479986290909091    -46.687438221602    -74.0243190502437    
2022-04-22T17:09:08Z    31.6636666666667    -64.1648333333333    847       -839.579194610125    1e-12          4.0922e-14    9.77747727272727    35.4448463636364   27.2264381818182    -0.00211818181818182     -0.0130090909090909                       132.184318181818    275.968727272727    0.478982727272727    -46.687438221602    -74.0243190502437    
2022-04-22T17:09:08Z    31.6636666666667    -64.1648333333333    847.5     -839.821506452904    1e-12          4.1009e-14    9.75319545454546    35.4432254545455   27.2292981818182    -0.00211818181818182     -0.0128181818181818                       131.971045454545    276.116136363636    0.477952763636364    -46.687438221602    -74.0243190502437    
2022-04-22T17:09:08Z    31.6636666666667    -64.1648333333333    848       -840.378822620867    1e-12          4.1038e-14    9.73129545454545    35.4422409090909   27.2321972727273    -0.00211818181818182     -0.0126727272727273                       131.773909090909    276.248227272727    0.477007272727273    -46.687438221602    -74.0243190502437    
2022-04-22T17:09:08Z    31.6636666666667    -64.1648333333333    848.5     -840.88767521055     1e-12          4.098e-14     9.71271818181818    35.4413527272727   27.2346009090909    -0.00211818181818182     -0.0125727272727273                       131.573454545455    276.3606            0.476085972727273    -46.687438221602    -74.0243190502437    
2022-04-22T17:09:08Z    31.6636666666667    -64.1648333333333    849       -841.387625376266    1e-12          4.1009e-14    9.69880909090909    35.4403            27.2361136363636    -0.00079090909090909     -0.0124727272727273                       131.369090909091    276.445672727273    0.475197627272727    -46.687438221602    -74.0243190502437    
2022-04-22T17:09:08Z    31.6636666666667    -64.1648333333333    849.5     -841.875706132754    1e-12          4.0951e-14    9.68626818181818    35.4387372727273   27.2369754545455    0.000536363636363636     -0.0124727272727273                       131.210363636364    276.523763636364    0.474487263636364    -46.687438221602    -74.0243190502437    
2022-04-22T17:09:08Z    31.6636666666667    -64.1648333333333    850       -842.341532898988    1e-12          4.0951e-14    9.67205             35.4369654545455   27.2379390909091    0.0002                   -0.0124727272727273                       131.225909090909    276.612154545455    0.474391836363636    -46.687438221602    -74.0243190502437    
2022-04-22T17:09:08Z    31.6636666666667    -64.1648333333333    850.5     -842.859776309358    1e-12          4.098e-14     9.65475             35.4354245454545   27.2396054545455    0.0002                   -0.0123727272727273                       131.315909090909    276.718863636364    0.474536609090909    -46.687438221602    -74.0243190502437    
2022-04-22T17:09:08Z    31.6636666666667    -64.1648333333333    851       -843.356754711926    1e-12          4.0922e-14    9.64401363636364    35.4341818181818   27.24049            0.0002                   -0.0123727272727273                       131.352772727273    276.785545454545    0.474557118181818    -46.687438221602    -74.0243190502437    
2022-04-22T17:09:08Z    31.6636666666667    -64.1648333333333    851.5     -843.850764902143    1e-12          4.0951e-14    9.63255454545454    35.4329572727273   27.2414790909091    0.0002                   -0.0124727272727273                       131.408227272727    276.856709090909    0.474640036363636    -46.687438221602    -74.0243190502437    
2022-04-22T17:09:08Z    31.6636666666667    -64.1648333333333    852       -844.365048533338    1e-12          4.0951e-14    9.62084090909091    35.4315545454545   27.2423590909091    0.0002                   -0.0125727272727273                       131.489090909091    276.929890909091    0.474815872727273    -46.687438221602    -74.0243190502437    
2022-04-22T17:09:08Z    31.6636666666667    -64.1648333333333    852.5     -844.874385886184    1e-12          4.0922e-14    9.60693181818182    35.4301536363636   27.2435863636364    0.0002                   -0.0127636363636364                       131.596136363636    277.016172727273    0.475053490909091    -46.687438221602    -74.0243190502437    
2022-04-22T17:09:08Z    31.6636666666667    -64.1648333333333    853       -845.325865425085    1e-12          4.0922e-14    9.59242272727273    35.4290654545455   27.2451063636364    0.0002                   -0.0129545454545455                       131.701863636364    277.105418181818    0.475279918181818    -46.687438221602    -74.0243190502437    
2022-04-22T17:09:08Z    31.6636666666667    -64.1648333333333    853.5     -845.815914946956    1e-12          4.098e-14     9.57935             35.4278054545455   27.2463390909091    -0.000463636363636364    -0.0131                                   131.839181818182    277.185990909091    0.475649672727273    -46.687438221602    -74.0243190502437    
2022-04-22T17:09:08Z    31.6636666666667    -64.1648333333333    854       -846.334149709813    1e-12          4.0922e-14    9.56573181818182    35.4266118181818   27.2476827272727    -0.000463636363636364    -0.0132                                   132.023727272727    277.270181818182    0.4761707            -46.687438221602    -74.0243190502437    
2022-04-22T17:09:08Z    31.6636666666667    -64.1648333333333    854.5     -846.897876908409    1e-12          4.098e-14     9.55268636363637    35.4254745454545   27.2489581818182    -0.000463636363636364    -0.0133                                   132.201590909091    277.350890909091    0.476673981818182    -46.687438221602    -74.0243190502437    
2022-04-22T17:09:08Z    31.6636666666667    -64.1648333333333    855       -847.336989664367    1e-12          4.09655e-14   9.5402              35.4245154545455   27.25028            -0.000463636363636364    -0.0134                                   132.393090909091    277.427818181818    0.477235318181818    -46.687438221602    -74.0243190502437    
2022-04-22T17:09:08Z    31.6636666666667    -64.1648333333333    855.5     -847.927416845158    1e-12          4.09655e-14   9.52877727272727    35.4235536363636   27.2514181818182    -0.000463636363636364    -0.0135                                   132.560045454545    277.498481818182    0.477715663636364    -46.687438221602    -74.0243190502437    
2022-04-22T17:09:08Z    31.6636666666667    -64.1648333333333    856       -848.186037267379    1e-12          4.0951e-14    9.51796818181818    35.4225009090909   27.2523881818182    -0.000463636363636364    -0.0136                                   132.694227272727    277.565690909091    0.478083690909091    -46.687438221602    -74.0243190502437    
2022-04-22T17:09:08Z    31.6636666666667    -64.1648333333333    856.5     -848.794263765169    1e-12          4.098e-14     9.5074              35.4215927272727   27.2534236363636    -0.000463636363636364    -0.01355                                  132.797227272727    277.631181818182    0.478341881818182    -46.687438221602    -74.0243190502437    
2022-04-22T17:09:08Z    31.6636666666667    -64.1648333333333    857       -849.239800906417    1e-12          4.0951e-14    9.49802272727273    35.4207572727273   27.2543127272727    -0.000463636363636364    -0.01355                                  132.875181818182    277.689390909091    0.478520218181818    -46.687438221602    -74.0243190502437    
2022-04-22T17:09:08Z    31.6636666666667    -64.1648333333333    857.5     -849.782257167823    1e-12          4.0951e-14    9.49015909090909    35.4203            27.2552281818182    -0.000463636363636364    -0.01355                                  132.935818181818    277.737690909091    0.478647718181818    -46.687438221602    -74.0243190502437    
2022-04-22T17:09:08Z    31.6636666666667    -64.1648333333333    858       -850.29751513051     1e-12          4.1009e-14    9.48487727272727    35.4196154545455   27.2556227272727    -0.000463636363636364    -0.01355                                  132.9745            277.771072727273    0.478729045454545    -46.687438221602    -74.0243190502437    
2022-04-22T17:09:08Z    31.6636666666667    -64.1648333333333    858.5     -850.787552951903    1e-12          4.098e-14     9.47975909090909    35.4187854545454   27.2558336363636    -0.000463636363636364    -0.01355                                  133.003590909091    277.803772727273    0.478779018181818    -46.687438221602    -74.0243190502437    
2022-04-22T17:09:08Z    31.6636666666667    -64.1648333333333    859       -851.278578590185    1e-12          4.0951e-14    9.47309090909091    35.4181363636364   27.2563845454545    0.0002                   -0.01355                                  133.022818181818    277.845936363636    0.478764127272727    -46.687438221602    -74.0243190502437    
2022-04-22T17:09:08Z    31.6636666666667    -64.1648333333333    859.5     -851.751307115107    1e-12          4.098e-14     9.46720909090909    35.41759           27.2569345454546    0.0002                   -0.01355                                  133.006772727273    277.882690909091    0.478643336363636    -46.687438221602    -74.0243190502437    
2022-04-22T17:09:08Z    31.6636666666667    -64.1648333333333    860       -852.284856118553    1e-12          4.1009e-14    9.46185454545454    35.4170681818182   27.2574272727273    0.0002                   -0.01355                                  132.990772727273    277.916436363636    0.478522481818182    -46.687438221602    -74.0243190502437    
2022-04-22T17:09:08Z    31.6636666666667    -64.1648333333333    860.5     -852.757582359073    1e-12          4.098e-14     9.45736363636364    35.4164990909091   27.2577572727273    0.0002                   -0.01355                                  132.977727272727    277.9449            0.478425090909091    -46.687438221602    -74.0243190502437    
2022-04-22T17:09:08Z    31.6636666666667    -64.1648333333333    861       -853.27184399615     1e-12          4.098e-14     9.45204090909091    35.4161136363636   27.2583363636364    0.0002                   -0.01355                                  132.987954545455    277.978             0.478403527272727    -46.687438221602    -74.0243190502437    
2022-04-22T17:09:08Z    31.6636666666667    -64.1648333333333    861.5     -853.741601091242    1e-12          4.098e-14     9.44699090909091    35.4156963636364   27.2588618181818    0.0002                   -0.01355                                  133.019818181818    278.009527272727    0.4784667            -46.687438221602    -74.0243190502437    
2022-04-22T17:09:08Z    31.6636666666667    -64.1648333333333    862       -854.256849273277    1e-12          4.0951e-14    9.44208636363637    35.4152763636364   27.2593445454545    0.0002                   -0.0136                                   133.061954545455    278.040218181818    0.478565354545455    -46.687438221602    -74.0243190502437    
2022-04-22T17:09:08Z    31.6636666666667    -64.1648333333333    862.5     -854.866047000401    1e-12          4.0951e-14    9.43693181818182    35.4146663636364   27.2597118181818    0.0002                   -0.0136                                   133.102454545455    278.072736363636    0.478651027272727    -46.687438221602    -74.0243190502437    
2022-04-22T17:09:08Z    31.6636666666667    -64.1648333333333    863       -855.150866103286    1e-12          4.1009e-14    9.43012272727273    35.4136963636364   27.2600554545455    0.0002                   -0.0136                                   133.157454545455    278.116154545454    0.478774072727273    -46.687438221602    -74.0243190502437    
2022-04-22T17:09:08Z    31.6636666666667    -64.1648333333333    863.5     -855.757094355191    1e-12          4.1009e-14    9.42244090909091    35.4132181818182   27.26092            0.0002                   -0.0136                                   133.237545454545    278.163681818182    0.478981745454545    -46.687438221602    -74.0243190502437    
2022-04-22T17:09:08Z    31.6636666666667    -64.1648333333333    864       -856.22684586043     1e-12          4.1038e-14    9.41545             35.4128109090909   27.2617418181818    0.0002                   -0.0136                                   133.317454545455    278.207018181818    0.479193263636364    -46.687438221602    -74.0243190502437    
2022-04-22T17:09:08Z    31.6636666666667    -64.1648333333333    864.5     -856.745054723258    1e-12          4.1009e-14    9.40892727272727    35.41206           27.2622463636364    0.0002                   -0.0136                                   133.387681818182    278.248154545455    0.479376363636364    -46.687438221602    -74.0243190502437    
2022-04-22T17:09:08Z    31.6636666666667    -64.1648333333333    865       -857.210848225985    1e-12          4.1009e-14    9.40088181818182    35.4109109090909   27.2626427272727    -0.000463636363636364    -0.0136                                   133.428045454545    278.299381818182    0.479434345454545    -46.687438221602    -74.0243190502437    
2022-04-22T17:09:08Z    31.6636666666667    -64.1648333333333    865.5     -857.677629629466    1e-12          4.098e-14     9.39129090909091    35.4101            27.2635745454545    -0.00112727272727273     -0.0136                                   133.479227272727    278.358927272727    0.479518772727273    -46.687438221602    -74.0243190502437    
2022-04-22T17:09:08Z    31.6636666666667    -64.1648333333333    866       -858.198801697603    1e-12          4.0922e-14    9.37985454545455    35.4092381818182   27.2647218181818    -0.00179090909090909     -0.0136                                   133.483772727273    278.430027272727    0.479417345454546    -46.687438221602    -74.0243190502437    
2022-04-22T17:09:08Z    31.6636666666667    -64.1648333333333    866.5     -858.711072018029    1e-12          4.0922e-14    9.36883636363636    35.4082663636364   27.2657609090909    -0.00179090909090909     -0.0136                                   133.466772727273    278.498763636364    0.479239163636364    -46.687438221602    -74.0243190502437    
2022-04-22T17:09:08Z    31.6636666666667    -64.1648333333333    867       -859.18081687028     1e-12          4.0922e-14    9.35600454545455    35.4072863636364   27.26709            -0.00179090909090909     -0.0136                                   133.457636363636    278.578436363636    0.479066381818182    -46.687438221602    -74.0243190502437    
2022-04-22T17:09:08Z    31.6636666666667    -64.1648333333333    867.5     -859.650560653096    1e-12          4.0864e-14    9.34286363636364    35.4064509090909   27.2685890909091    -0.00245454545454545     -0.0136                                   133.514181818182    278.659754545455    0.4791297            -46.687438221602    -74.0243190502437    
2022-04-22T17:09:08Z    31.6636666666667    -64.1648333333333    868       -860.189528539932    1e-12          4.0864e-14    9.32969090909091    35.4055790909091   27.2700718181818    -0.00245454545454545     -0.0136                                   133.638181818182    278.741390909091    0.479438981818182    -46.687438221602    -74.0243190502437    
2022-04-22T17:09:08Z    31.6636666666667    -64.1648333333333    868.5     -860.683004333565    1e-12          4.0864e-14    9.31731818181818    35.4049227272727   27.2715972727273    -0.00245454545454546     -0.0136                                   133.745181818182    278.817718181818    0.479693972727273    -46.687438221602    -74.0243190502437    
2022-04-22T17:09:08Z    31.6636666666667    -64.1648333333333    869       -861.198235326262    1e-12          4.0864e-14    9.30439090909091    35.4035736363636   27.2726536363636    -0.00245454545454546     -0.0136                                   133.858545454545    278.898954545455    0.479960290909091    -46.687438221602    -74.0243190502437    
2022-04-22T17:09:08Z    31.6636666666667    -64.1648333333333    869.5     -861.689236418773    1e-12          4.0893e-14    9.28924545454545    35.4023009090909   27.2741327272727    -0.00245454545454546     -0.0136                                   133.962909090909    278.993436363636    0.4801741            -46.687438221602    -74.0243190502437    
2022-04-22T17:09:08Z    31.6636666666667    -64.1648333333333    870       -862.158974549427    1e-12          4.10815e-14   9.27405             35.4014272727273   27.2758936363636    -0.00245454545454546     -0.0136                                   134.067681818182    279.087436363636    0.480386072727273    -46.687438221602    -74.0243190502437    
2022-04-22T17:09:08Z    31.6636666666667    -64.1648333333333    870.5     -862.604483103696    1e-12          4.1213e-14    9.26026818181818    35.4007054545455   27.2775981818182    -0.00179090909090909     -0.0136                                   134.181227272727    279.172545454545    0.480645618181818    -46.687438221602    -74.0243190502437    
2022-04-22T17:09:08Z    31.6636666666667    -64.1648333333333    871       -863.143937799593    1e-12          4.1125e-14    9.24656818181818    35.3995227272727   27.2789109090909    -0.00112727272727273     -0.0136                                   134.269727272727    279.258236363636    0.480817163636364    -46.687438221602    -74.0243190502437    
2022-04-22T17:09:08Z    31.6636666666667    -64.1648333333333    871.5     -863.634934308196    1e-12          4.1096e-14    9.23310909090909    35.3985154545455   27.2803327272727    -0.000463636363636364    -0.0136                                   134.366727272727    279.342154545455    0.481017527272727    -46.687438221602    -74.0243190502437    
2022-04-22T17:09:08Z    31.6636666666667    -64.1648333333333    872       -864.150157998738    1e-12          4.098e-14     9.22008181818182    35.3977136363636   27.2818290909091    -0.000463636363636364    -0.0136                                   134.464454545455    279.423081818182    0.481230781818182    -46.687438221602    -74.0243190502437    
2022-04-22T17:09:08Z    31.6636666666667    -64.1648333333333    872.5     -864.668347137941    1e-12          4.0922e-14    9.20714545454546    35.3966327272727   27.2830772727273    -0.000463636363636364    -0.0136                                   134.583             279.504127272727    0.481521154545454    -46.687438221602    -74.0243190502437    
2022-04-22T17:09:08Z    31.6636666666667    -64.1648333333333    873       -865.1613178693      1e-12          4.0864e-14    9.19386363636364    35.3956254545455   27.2844363636364    0.0002                   -0.0136                                   134.6625            279.587127272727    0.481662209090909    -46.687438221602    -74.0243190502437    
2022-04-22T17:09:08Z    31.6636666666667    -64.1648333333333    873.5     -865.603853287553    1e-12          4.0836e-14    9.18082727272727    35.39496           27.2860390909091    0.0002                   -0.0136                                   134.7005            279.667981818182    0.481657427272727    -46.687438221602    -74.0243190502437    
2022-04-22T17:09:08Z    31.6636666666667    -64.1648333333333    874       -866.119072102285    1e-12          4.0778e-14    9.1688              35.3944409090909   27.2875836363636    0.0002                   -0.0136                                   134.762954545455    279.742454545455    0.481748954545455    -46.687438221602    -74.0243190502437    
2022-04-22T17:09:08Z    31.6636666666667    -64.1648333333333    874.5     -866.64022305394     1e-12          4.0807e-14    9.15868181818182    35.3942745454546   27.2890963636364    0.0002                   -0.0136                                   134.872045454545    279.804654545455    0.482033927272727    -46.687438221602    -74.0243190502437    
2022-04-22T17:09:08Z    31.6636666666667    -64.1648333333333    875       -867.05852732918     1e-12          4.0807e-14    9.15057272727273    35.3938527272727   27.2900718181818    0.0002                   -0.0136                                   135.092409090909    279.855154545455    0.482729236363636    -46.687438221602    -74.0243190502437    
2022-04-22T17:09:08Z    31.6636666666667    -64.1648333333333    875.5     -867.597970489864    1e-12          4.0778e-14    9.14232272727273    35.3932863636364   27.2909709090909    0.0002                   -0.0136                                   135.317545454545    279.906836363636    0.483442454545455    -46.687438221602    -74.0243190502437    
2022-04-22T17:09:08Z    31.6636666666667    -64.1648333333333    876       -868.094889858164    1e-12          4.0807e-14    9.13393636363636    35.3928818181818   27.2920090909091    0.0002                   -0.0136                                   135.548954545455    279.959063636364    0.484179609090909    -46.687438221602    -74.0243190502437    
2022-04-22T17:09:08Z    31.6636666666667    -64.1648333333333    876.5     -868.61010251725     1e-12          4.0836e-14    9.12643636363637    35.3925981818182   27.29298            0.0002                   -0.0136                                   135.784909090909    280.005627272727    0.484941818181818    -46.687438221602    -74.0243190502437    
2022-04-22T17:09:08Z    31.6636666666667    -64.1648333333333    877       -869.173769417808    1e-12          4.1183e-14    9.11955909090909    35.3922518181818   27.2938354545455    0.0002                   -0.0136                                   136.032863636364    280.048436363636    0.485753954545455    -46.687438221602    -74.0243190502437    
2022-04-22T17:09:08Z    31.6636666666667    -64.1648333333333    877.5     -869.549546504179    1e-12          4.1419e-14    9.11300454545455    35.39173           27.2944818181818    0.0002                   -0.0136                                   136.269681818182    280.089754545455    0.486528509090909    -46.687438221602    -74.0243190502437    
2022-04-22T17:09:08Z    31.6636666666667    -64.1648333333333    878       -870.064755565532    1e-12          4.1301e-14    9.10795             35.3914427272727   27.2950581818182    0.0002                   -0.0136                                   136.461863636364    280.121481818182    0.487154436363636    -46.687438221602    -74.0243190502437    
2022-04-22T17:09:08Z    31.6636666666667    -64.1648333333333    878.5     -870.56710789556     1e-12          4.1183e-14    9.10297727272727    35.3906863636364   27.2952827272727    0.0002                   -0.0136                                   136.649409090909    280.153645454545    0.487769418181818    -46.687438221602    -74.0243190502437    
2022-04-22T17:09:08Z    31.6636666666667    -64.1648333333333    879       -871.049186989617    1e-12          4.09945e-14   9.09593636363637    35.3885318181818   27.2947745454546    0.0002                   -0.0136                                   136.831227272727    280.201318181818    0.488335509090909    -46.687438221602    -74.0243190502437    
2022-04-22T17:09:08Z    31.6636666666667    -64.1648333333333    879.5     -871.539670429105    1e-12          4.0893e-14    9.08399090909091    35.38671           27.2952645454545    0.0002                   -0.0136                                   137.018272727273    280.278272727273    0.488869663636364    -46.687438221602    -74.0243190502437    
2022-04-22T17:09:08Z    31.6636666666667    -64.1648333333333    880       -872.033613771478    1e-12          4.0836e-14    9.07062727272727    35.3856581818182   27.2965727272727    0.0002                   -0.0136                                   137.129772727273    280.362372727273    0.4891185            -46.687438221602    -74.0243190502437    
2022-04-22T17:09:08Z    31.6636666666667    -64.1648333333333    880.5     -872.548816689426    1e-12          4.0778e-14    9.05698181818182    35.3847172727273   27.2980418181818    0.0002                   -0.0136                                   137.143227272727    280.447972727273    0.4890189            -46.687438221602    -74.0243190502437    
2022-04-22T17:09:08Z    31.6636666666667    -64.1648333333333    881       -873.036824418608    1e-12          4.075e-14     9.04964090909091    35.3840136363636   27.2987881818182    0.0002                   -0.0136                                   137.137681818182    280.494709090909    0.488879509090909    -46.687438221602    -74.0243190502437    
2022-04-22T17:09:08Z    31.6636666666667    -64.1648333333333    881.5     -873.527797603756    1e-12          4.07925e-14   9.03774090909091    35.3831636363636   27.3000518181818    0.0002                   -0.0136                                   137.1315            280.569454545455    0.488742236363636    -46.687438221602    -74.0243190502437    
2022-04-22T17:09:08Z    31.6636666666667    -64.1648333333333    882       -874.027669425828    1e-12          4.0836e-14    9.02462272727273    35.3823227272727   27.3014827272727    0.0002                   -0.0136                                   137.120545454545    280.651736363636    0.488552690909091    -46.687438221602    -74.0243190502437    
2022-04-22T17:09:08Z    31.6636666666667    -64.1648333333333    882.5     -874.521606848446    1e-12          4.0836e-14    9.01370454545455    35.3801327272727   27.3010727272727    0.0002                   -0.0136                                   137.225590909091    280.726318181818    0.488784290909091    -46.687438221602    -74.0243190502437    
2022-04-22T17:09:08Z    31.6636666666667    -64.1648333333333    883       -874.973516576871    1e-12          4.0807e-14    8.99962272727273    35.3785490909091   27.3021827272727    0.0002                   -0.0136                                   137.353772727273    280.816263636364    0.489080036363636    -46.687438221602    -74.0243190502437    
2022-04-22T17:09:08Z    31.6636666666667    -64.1648333333333    883.5     -875.645940585053    1e-12          4.1448e-14    8.98389545454545    35.3770036363636   27.3035072727273    0.0002                   -0.0136                                   137.507954545455    280.916009090909    0.489446572727273    -46.687438221602    -74.0243190502437    
2022-04-22T17:09:08Z    31.6636666666667    -64.1648333333333    884       -876.021705997309    1e-12          4.1301e-14    8.96675454545455    35.3757518181818   27.3052645454545    0.0002                   -0.0136                                   137.639227272727    281.023890909091    0.489728954545455    -46.687438221602    -74.0243190502437    
2022-04-22T17:09:08Z    31.6636666666667    -64.1648333333333    884.5     -876.34901689624     1e-12          4.0922e-14    8.95026818181818    35.3759827272727   27.3080418181818    0.000872727272727273     -0.0136                                   137.747454545455    281.1248            0.489938136363636    -46.687438221602    -74.0243190502437    
2022-04-22T17:09:08Z    31.6636666666667    -64.1648333333333    885       -877.040224627728    1e-12          4.1096e-14    8.93756818181818    35.3760672727273   27.3101263636364    0.00154545454545455      -0.0136                                   137.828045454545    281.202981818182    0.490090154545455    -46.687438221602    -74.0243190502437    
2022-04-22T17:09:08Z    31.6636666666667    -64.1648333333333    885.5     -877.540088017066    1e-12          4.1009e-14    8.92573636363636    35.3754354545455   27.31152            0.00221818181818182      -0.0136                                   137.898545454545    281.277327272727    0.490210027272727    -46.687438221602    -74.0243190502437    
2022-04-22T17:09:08Z    31.6636666666667    -64.1648333333333    886       -877.991496754663    1e-12          4.0922e-14    8.9137              35.3745754545455   27.3127636363636    0.00289090909090909      -0.0136                                   137.963090909091    281.353463636364    0.490307609090909    -46.687438221602    -74.0243190502437    
2022-04-22T17:09:08Z    31.6636666666667    -64.1648333333333    886.5     -878.431038376016    1e-12          4.085e-14     8.89486818181818    35.3736472727273   27.3149254545455    0.00289090909090909      -0.0136                                   138.003909090909    281.471209090909    0.490287854545455    -46.687438221602    -74.0243190502437    
2022-04-22T17:09:08Z    31.6636666666667    -64.1648333333333    887       -878.970452097423    1e-12          4.0778e-14    8.88027727272727    35.3728745454545   27.3166254545455    0.00289090909090909      -0.0136                                   138.063636363636    281.562881818182    0.490322163636364    -46.687438221602    -74.0243190502437    
2022-04-22T17:09:08Z    31.6636666666667    -64.1648333333333    887.5     -879.494537416565    1e-12          4.0778e-14    8.86643181818182    35.3721481818182   27.3182672727273    0.00289090909090909      -0.0136                                   138.116454545455    281.649827272727    0.490368118181818    -46.687438221602    -74.0243190502437    
2022-04-22T17:09:08Z    31.6636666666667    -64.1648333333333    888       -879.970662826933    1e-12          4.08215e-14   8.84961363636364    35.3726336363636   27.3217272727273    0.00289090909090909      -0.0136                                   138.052545454545    281.749672727273    0.489978990909091    -46.687438221602    -74.0243190502437    
2022-04-22T17:09:08Z    31.6636666666667    -64.1648333333333    888.5     -880.43393232433     1e-12          4.0836e-14    8.83494090909091    35.3726027272727   27.3239227272727    0.00289090909090909      -0.0136                                   138.026636363636    281.840190909091    0.489730545454545    -46.687438221602    -74.0243190502437    
2022-04-22T17:09:08Z    31.6636666666667    -64.1648333333333    889       -880.888795705182    1e-12          4.0836e-14    8.82398636363636    35.3728790909091   27.3258981818182    0.00289090909090909      -0.0136                                   138.186818181818    281.907527272727    0.490188881818182    -46.687438221602    -74.0243190502437    
2022-04-22T17:09:08Z    31.6636666666667    -64.1648333333333    889.5     -881.421775664124    1e-12          4.0836e-14    8.81451818181818    35.3722981818182   27.3268636363636    0.00289090909090909      -0.0136                                   138.462136363636    281.966654545455    0.491071981818182    -46.687438221602    -74.0243190502437    
2022-04-22T17:09:08Z    31.6636666666667    -64.1648333333333    890       -881.949315707379    1e-12          4.0864e-14    8.80647272727273    35.3718872727273   27.3278245454545    0.00221818181818182      -0.0136                                   138.763909090909    282.017372727273    0.492051509090909    -46.687438221602    -74.0243190502437    
2022-04-22T17:09:08Z    31.6636666666667    -64.1648333333333    890.5     -882.434334947765    1e-12          4.0836e-14    8.79856818181818    35.3714481818182   27.3287709090909    0.00154545454545454      -0.0136                                   139.095090909091    282.0673            0.493136672727273    -46.687438221602    -74.0243190502437    
2022-04-22T17:09:08Z    31.6636666666667    -64.1648333333333    891       -882.90105983587     1e-12          4.0778e-14    8.79053636363636    35.37096           27.3296636363636    0.000872727272727273     -0.0136                                   139.434090909091    282.118045454545    0.494249681818182    -46.687438221602    -74.0243190502437    
2022-04-22T17:09:08Z    31.6636666666667    -64.1648333333333    891.5     -883.416235882033    1e-12          4.1271e-14    8.78280454545455    35.3707054545455   27.3306736363636    0.0002                   -0.0136                                   139.763636363636    282.166627272727    0.495332427272727    -46.687438221602    -74.0243190502437    
2022-04-22T17:09:08Z    31.6636666666667    -64.1648333333333    892       -883.970468956015    1e-12          4.13155e-14   8.77557727272727    35.3702954545454   27.3314836363636    0.0002                   -0.0136                                   140.104454545455    282.212436363636    0.496459918181818    -46.687438221602    -74.0243190502437    
2022-04-22T17:09:08Z    31.6636666666667    -64.1648333333333    892.5     -884.428291064867    1e-12          4.1183e-14    8.76833181818182    35.3697281818182   27.3321881818182    0.0002                   -0.0136                                   140.409409090909    282.258709090909    0.497458427272727    -46.687438221602    -74.0243190502437    
2022-04-22T17:09:08Z    31.6636666666667    -64.1648333333333    893       -884.858425390971    1e-12          4.11105e-14   8.76081363636364    35.3691727272727   27.3329663636364    0.0002                   -0.0136                                   140.700590909091    282.306645454545    0.498404472727273    -46.687438221602    -74.0243190502437    
2022-04-22T17:09:08Z    31.6636666666667    -64.1648333333333    893.5     -885.343437858392    1e-12          4.098e-14     8.75341818181818    35.3685509090909   27.3337172727273    0.0002                   -0.0136                                   140.988409090909    282.353909090909    0.499341236363636    -46.687438221602    -74.0243190502437    
2022-04-22T17:09:08Z    31.6636666666667    -64.1648333333333    894       -885.882833678528    1e-12          4.08785e-14   8.74600909090909    35.3679863636364   27.3344290909091    0.0002                   -0.0136909090909091                       141.234045454545    282.401336363636    0.500127963636364    -46.687438221602    -74.0243190502437    
2022-04-22T17:09:08Z    31.6636666666667    -64.1648333333333    894.5     -886.373776600796    1e-12          4.0807e-14    8.73621818181818    35.3673218181818   27.3353963636364    0.0002                   -0.0137818181818182                       141.289772727273    282.463454545455    0.500215445454546    -46.687438221602    -74.0243190502437    
2022-04-22T17:09:08Z    31.6636666666667    -64.1648333333333    895       -886.86471836365     1e-12          4.0807e-14    8.72589545454545    35.3673836363636   27.3371845454545    0.0002                   -0.0138727272727273                       141.256227272727    282.528218181818    0.499962863636364    -46.687438221602    -74.0243190502437    
2022-04-22T17:09:08Z    31.6636666666667    -64.1648333333333    895.5     -887.313140496573    1e-12          4.0836e-14    8.71492272727273    35.3673281818182   27.3388372727273    0.0002                   -0.0139636363636364                       141.233045454545    282.5968            0.499760845454546    -46.687438221602    -74.0243190502437    
2022-04-22T17:09:08Z    31.6636666666667    -64.1648333333333    896       -887.864891202141    1e-12          4.08215e-14   8.7065              35.3670081818182   27.3398463636364    0.0002                   -0.0140545454545455                       141.247863636364    282.649754545455    0.499723418181818    -46.687438221602    -74.0243190502437    
2022-04-22T17:09:08Z    31.6636666666667    -64.1648333333333    896.5     -888.295018442599    1e-12          4.0864e-14    8.69750909090909    35.3666536363636   27.3409790909091    0.0002                   -0.0141454545454545                       141.384681818182    282.706818181818    0.500106372727273    -46.687438221602    -74.0243190502437    
2022-04-22T17:09:08Z    31.6636666666667    -64.1648333333333    897       -888.817102717333    1e-12          4.0893e-14    8.68873636363636    35.3664            27.3421581818182    -0.000463636363636364    -0.0142363636363636                       141.545681818182    282.762063636364    0.500577263636364    -46.687438221602    -74.0243190502437    
2022-04-22T17:09:08Z    31.6636666666667    -64.1648333333333    897.5     -889.332264138225    1e-12          4.0864e-14    8.6803              35.3660127272727   27.3432154545455    -0.00112727272727273     -0.0143272727272727                       141.710363636364    282.815518181818    0.501062818181818    -46.687438221602    -74.0243190502437    
2022-04-22T17:09:08Z    31.6636666666667    -64.1648333333333    898       -889.919605932071    1e-12          4.0864e-14    8.67064545454545    35.3655536363636   27.3443363636364    -0.00179090909090909     -0.0144181818181818                       141.886272727273    282.876772727273    0.501587309090909    -46.687438221602    -74.0243190502437    
2022-04-22T17:09:08Z    31.6636666666667    -64.1648333333333    898.5     -890.271614698714    1e-12          4.1183e-14    8.66086363636364    35.3651881818182   27.3455645454545    -0.00179090909090909     -0.0145090909090909                       142.091818181818    282.938636363636    0.502207381818182    -46.687438221602    -74.0243190502437    
2022-04-22T17:09:08Z    31.6636666666667    -64.1648333333333    899       -890.810997763472    1e-12          4.1345e-14    8.65087727272727    35.3649390909091   27.3468372727273    -0.00179090909090909     -0.0146                                   142.311090909091    283.001663636364    0.502871118181818    -46.687438221602    -74.0243190502437    
2022-04-22T17:09:08Z    31.6636666666667    -64.1648333333333    899.5     -891.301929076311    1e-12          4.1198e-14    8.64128181818182    35.3644409090909   27.3479981818182    -0.00179090909090909     -0.0146                                   142.541363636364    283.062518181818    0.503573127272727    -46.687438221602    -74.0243190502437    
2022-04-22T17:09:08Z    31.6636666666667    -64.1648333333333    900       -891.792859229916    1e-12          4.11105e-14   8.63092272727273    35.3638463636364   27.3491772727273    -0.00179090909090909     -0.0146                                   142.770545454545    283.128536363636    0.504261918181818    -46.687438221602    -74.0243190502437    
2022-04-22T17:09:08Z    31.6636666666667    -64.1648333333333    900.5     -892.33520468965     1e-12          4.0922e-14    8.6213              35.3636809090909   27.3505063636364    -0.00179090909090909     -0.0146                                   142.980954545455    283.1892            0.504901318181818    -46.687438221602    -74.0243190502437    
2022-04-22T17:09:08Z    31.6636666666667    -64.1648333333333    901       -892.805862512568    1e-12          4.0893e-14    8.61267272727273    35.3632381818182   27.3515145454545    -0.00179090909090909     -0.0146                                   143.1655            283.244081818182    0.505455754545455    -46.687438221602    -74.0243190502437    
2022-04-22T17:09:08Z    31.6636666666667    -64.1648333333333    901.5     -893.321014073992    1e-12          4.0864e-14    8.60242727272727    35.3629327272727   27.3528963636364    -0.00179090909090909     -0.0146                                   143.307090909091    283.309054545455    0.505835827272727    -46.687438221602    -74.0243190502437    
2022-04-22T17:09:08Z    31.6636666666667    -64.1648333333333    902       -893.811939471674    1e-12          4.0836e-14    8.59338636363636    35.3626818181818   27.3541036363636    -0.00179090909090909     -0.0146                                   143.338909090909    283.366018181818    0.505846681818182    -46.687438221602    -74.0243190502437    
2022-04-22T17:09:08Z    31.6636666666667    -64.1648333333333    902.5     -894.272706259131    1e-12          4.0807e-14    8.58427272727273    35.3622181818182   27.3551690909091    -0.00112727272727273     -0.0146                                   143.361090909091    283.424045454545    0.505821554545455    -46.687438221602    -74.0243190502437    
2022-04-22T17:09:08Z    31.6636666666667    -64.1648333333333    903       -894.775494617808    1e-12          4.0836e-14    8.57578181818182    35.3620036363636   27.3562709090909    -0.00112727272727273     -0.0146                                   143.544318181818    283.477927272727    0.506372390909091    -46.687438221602    -74.0243190502437    
2022-04-22T17:09:08Z    31.6636666666667    -64.1648333333333    903.5     -895.290641316684    1e-12          4.0836e-14    8.56840909090909    35.3620309090909   27.3575018181818    -0.000463636363636364    -0.0146                                   143.662090909091    283.523945454545    0.506698009090909    -46.687438221602    -74.0243190502437    
2022-04-22T17:09:08Z    31.6636666666667    -64.1648333333333    904       -895.760303694096    1e-12          4.08215e-14   8.56116363636364    35.3613790909091   27.3581972727273    -0.000795454545454545    -0.0146                                   143.924590909091    283.5704            0.507538054545455    -46.687438221602    -74.0243190502437    
2022-04-22T17:09:08Z    31.6636666666667    -64.1648333333333    904.5     -896.276436712714    1e-12          4.0778e-14    8.55349090909091    35.3610145454545   27.3591645454546    -0.00145909090909091     -0.0146                                   144.205590909091    283.619145454546    0.508440554545455    -46.687438221602    -74.0243190502437    
2022-04-22T17:09:08Z    31.6636666666667    -64.1648333333333    905       -896.794545972027    1e-12          4.0807e-14    8.54591363636363    35.3608327272727   27.3601781818182    -0.00212272727272727     -0.0146                                   144.476954545455    283.667136363636    0.509314427272727    -46.687438221602    -74.0243190502437    
2022-04-22T17:09:08Z    31.6636666666667    -64.1648333333333    905.5     -897.358136637458    1e-12          4.1242e-14    8.53926363636364    35.3606390909091   27.3610536363636    -0.00278636363636364     -0.0146                                   144.728227272727    283.709372727273    0.510128218181818    -46.687438221602    -74.0243190502437    
2022-04-22T17:09:08Z    31.6636666666667    -64.1648333333333    906       -897.594448761285    1e-12          4.1009e-14    8.53260454545454    35.3603054545455   27.3618272727273    -0.00278636363636364     -0.0146                                   144.940636363636    283.751963636364    0.510801509090909    -46.687438221602    -74.0243190502437    
2022-04-22T17:09:08Z    31.6636666666667    -64.1648333333333    906.5     -898.22477790533     1e-12          4.1183e-14    8.52565454545454    35.3596536363636   27.36242            -0.00278636363636364     -0.0146                                   145.145909090909    283.797209090909    0.5114447            -46.687438221602    -74.0243190502437    
2022-04-22T17:09:08Z    31.6636666666667    -64.1648333333333    907       -898.716680503925    1e-12          4.1067e-14    8.51766363636364    35.3589563636364   27.3631072727273    -0.00278636363636364     -0.0146                                   145.306772727273    283.848909090909    0.511918272727273    -46.687438221602    -74.0243190502437    
2022-04-22T17:09:08Z    31.6636666666667    -64.1648333333333    907.5     -899.207098822135    1e-12          4.0951e-14    8.50860454545454    35.3581063636364   27.3638818181818    -0.00278636363636364     -0.0146                                   145.479909090909    283.907590909091    0.512429181818182    -46.687438221602    -74.0243190502437    
2022-04-22T17:09:08Z    31.6636666666667    -64.1648333333333    908       -899.752885593904    1e-12          4.0893e-14    8.49826818181818    35.3574836363636   27.3649845454545    -0.00278636363636364     -0.0146                                   145.629545454545    283.9738            0.512844836363636    -46.687438221602    -74.0243190502437    
2022-04-22T17:09:08Z    31.6636666666667    -64.1648333333333    908.5     -900.243795843113    1e-12          4.085e-14     8.4867              35.3569936363636   27.3664163636364    -0.00212272727272727     -0.0146                                   145.652454545455    284.047163636364    0.5127955            -46.687438221602    -74.0243190502437    
2022-04-22T17:09:08Z    31.6636666666667    -64.1648333333333    909       -900.690211710314    1e-12          4.0807e-14    8.47578181818182    35.3565245454545   27.3677081818182    -0.00212272727272727     -0.0146                                   145.734727272727    284.116809090909    0.512959454545455    -46.687438221602    -74.0243190502437    
2022-04-22T17:09:08Z    31.6636666666667    -64.1648333333333    909.5     -901.208309999006    1e-12          4.0778e-14    8.46538181818182    35.3565172727273   27.3692381818182    -0.00245454545454546     -0.0146                                   145.7015            284.182545454546    0.512722918181818    -46.687438221602    -74.0243190502437    
2022-04-22T17:09:08Z    31.6636666666667    -64.1648333333333    910       -901.677959043139    1e-12          4.0807e-14    8.45595909090909    35.35634           27.3705463636364    -0.00245454545454545     -0.0146909090909091                       145.656636363636    284.242209090909    0.512456972727273    -46.687438221602    -74.0243190502437    
2022-04-22T17:09:08Z    31.6636666666667    -64.1648333333333    910.5     -902.19012248922     1e-12          4.0807e-14    8.44774090909091    35.3561809090909   27.3717154545455    -0.00179090909090909     -0.0146909090909091                       145.742             284.294327272727    0.512663481818182    -46.687438221602    -74.0243190502437    
2022-04-22T17:09:08Z    31.6636666666667    -64.1648333333333    911       -902.693880475676    1e-12          4.0807e-14    8.44001363636364    35.3558536363636   27.3725481818182    -0.00112727272727273     -0.0146909090909091                       145.912             284.344181818182    0.513167318181818    -46.687438221602    -74.0243190502437    
2022-04-22T17:09:08Z    31.6636666666667    -64.1648333333333    911.5     -903.275746626743    1e-12          4.0836e-14    8.43179090909091    35.3552954545455   27.3733790909091    -0.00112727272727273     -0.0146909090909091                       146.114727272727    284.397172727273    0.513780736363636    -46.687438221602    -74.0243190502437    
2022-04-22T17:09:08Z    31.6636666666667    -64.1648333333333    912       -903.693977367905    1e-12          4.0836e-14    8.42281363636364    35.3549445454545   27.37445            -0.00112727272727273     -0.0146909090909091                       146.326545454545    284.454345454545    0.5144221            -46.687438221602    -74.0243190502437    
2022-04-22T17:09:08Z    31.6636666666667    -64.1648333333333    912.5     -904.191305028028    1e-12          4.085e-14     8.41355909090909    35.3545918181818   27.3756054545455    -0.00112727272727273     -0.0147818181818182                       146.550909090909    284.5134            0.515106             -46.687438221602    -74.0243190502437    
2022-04-22T17:09:08Z    31.6636666666667    -64.1648333333333    913       -904.682699187896    1e-12          4.1154e-14    8.40417727272727    35.3545745454545   27.3769927272727    -0.00112727272727273     -0.0148727272727273                       146.761409090909    284.572627272727    0.515730927272727    -46.687438221602    -74.0243190502437    
2022-04-22T17:09:08Z    31.6636666666667    -64.1648333333333    913.5     -905.128116834643    1e-12          4.1213e-14    8.39633181818182    35.3545790909091   27.3782             -0.00112727272727273     -0.0149636363636364                       146.995136363636    284.622181818182    0.516455490909091    -46.687438221602    -74.0243190502437    
2022-04-22T17:09:08Z    31.6636666666667    -64.1648333333333    914       -905.628901578496    1e-12          4.11685e-14   8.38916363636364    35.3541781818182   27.37899            -0.00112727272727273     -0.0150545454545455                       147.215318181818    284.668363636364    0.5171439            -46.687438221602    -74.0243190502437    
2022-04-22T17:09:08Z    31.6636666666667    -64.1648333333333    914.5     -906.138089175543    1e-12          4.1067e-14    8.38066363636364    35.3535454545455   27.3798009090909    -0.00112727272727273     -0.0151454545454545                       147.453772727273    284.723390909091    0.517882854545455    -46.687438221602    -74.0243190502437    
2022-04-22T17:09:08Z    31.6636666666667    -64.1648333333333    915       -906.653207789745    1e-12          4.1009e-14    8.3712              35.3531236363636   27.3809545454545    -0.000463636363636364    -0.0152363636363636                       147.6715            284.783909090909    0.518539881818182    -46.687438221602    -74.0243190502437    
2022-04-22T17:09:08Z    31.6636666666667    -64.1648333333333    915.5     -907.175246084891    1e-12          4.0922e-14    8.36143181818182    35.3527745454545   27.38218            0.0002                   -0.0152363636363636                       147.876181818182    284.846009090909    0.519146281818182    -46.687438221602    -74.0243190502437    
2022-04-22T17:09:08Z    31.6636666666667    -64.1648333333333    916       -907.605333470971    1e-12          4.0864e-14    8.35073181818182    35.3524436363636   27.3835309090909    0.000872727272727273     -0.0153272727272727                       147.936             284.914045454545    0.519231190909091    -46.687438221602    -74.0243190502437    
2022-04-22T17:09:08Z    31.6636666666667    -64.1648333333333    916.5     -908.12143716313     1e-12          4.0864e-14    8.33951363636364    35.3523054545455   27.3851909090909    0.00154545454545455      -0.0154181818181818                       147.962227272727    284.984972727273    0.519196127272727    -46.687438221602    -74.0243190502437    
2022-04-22T17:09:08Z    31.6636666666667    -64.1648333333333    917       -908.636550876983    1e-12          4.0836e-14    8.33074545454546    35.3522409090909   27.3864545454545    0.00154545454545455      -0.0155090909090909                       148.054318181818    285.041345454545    0.519424127272727    -46.687438221602    -74.0243190502437    
2022-04-22T17:09:08Z    31.6636666666667    -64.1648333333333    917.5     -909.109149287709    1e-12          4.0807e-14    8.32198636363636    35.3521872727273   27.3877627272727    0.00154545454545455      -0.0155090909090909                       148.234227272727    285.096772727273    0.519952145454545    -46.687438221602    -74.0243190502437    
2022-04-22T17:09:08Z    31.6636666666667    -64.1648333333333    918       -909.612396208446    1e-12          4.0807e-14    8.31453181818182    35.3521918181818   27.3889072727273    0.00154545454545455      -0.0155090909090909                       148.4195            285.143927272727    0.520513827272727    -46.687438221602    -74.0243190502437    
2022-04-22T17:09:08Z    31.6636666666667    -64.1648333333333    918.5     -910.134427094154    1e-12          4.0807e-14    8.30821363636364    35.35203           27.3897527272727    0.00154545454545454      -0.0155090909090909                       148.610636363636    285.184354545454    0.521111418181818    -46.687438221602    -74.0243190502437    
2022-04-22T17:09:08Z    31.6636666666667    -64.1648333333333    919       -910.740495403305    1e-12          4.08215e-14   8.30209545454546    35.3517581818182   27.3904854545455    0.00154545454545454      -0.0155090909090909                       148.802090909091    285.223872727273    0.521709827272727    -46.687438221602    -74.0243190502437    
2022-04-22T17:09:08Z    31.6636666666667    -64.1648333333333    919.5     -910.892753722846    1e-12          4.1038e-14    8.29611363636364    35.35164           27.3913072727273    0.00154545454545454      -0.0155090909090909                       148.992636363636    285.262090909091    0.522308118181818    -46.687438221602    -74.0243190502437    
2022-04-22T17:09:08Z    31.6636666666667    -64.1648333333333    920       -911.566544885203    1e-12          4.1154e-14    8.29134090909091    35.3515690909091   27.3919827272727    0.00154545454545454      -0.0155090909090909                       149.166227272727    285.292790909091    0.522862809090909    -46.687438221602    -74.0243190502437    
2022-04-22T17:09:08Z    31.6636666666667    -64.1648333333333    920.5     -912.057427320173    1e-12          4.1154e-14    8.28702272727273    35.3514318181818   27.3924654545455    0.00221818181818182      -0.0156090909090909                       149.354136363636    285.321054545455    0.523470536363636    -46.687438221602    -74.0243190502437    
2022-04-22T17:09:08Z    31.6636666666667    -64.1648333333333    921       -912.582418130306    1e-12          4.1125e-14    8.28308181818182    35.3512854545455   27.3929609090909    0.00289090909090909      -0.0157090909090909                       149.521090909091    285.346936363636    0.524007745454545    -46.687438221602    -74.0243190502437    
2022-04-22T17:09:08Z    31.6636666666667    -64.1648333333333    921.5     -913.052041557936    1e-12          4.1067e-14    8.27958181818182    35.35113           27.3933890909091    0.00289090909090909      -0.0157090909090909                       149.695772727273    285.369918181818    0.524577954545455    -46.687438221602    -74.0243190502437    
2022-04-22T17:09:08Z    31.6636666666667    -64.1648333333333    922       -913.518697889501    1e-12          4.1038e-14    8.27670909090909    35.3509418181818   27.39373            0.00221818181818182      -0.0157090909090909                       149.852545454545    285.3884            0.525095127272727    -46.687438221602    -74.0243190502437    
2022-04-22T17:09:08Z    31.6636666666667    -64.1648333333333    922.5     -914.083232021421    1e-12          4.098e-14     8.27273636363636    35.3507527272727   27.3942490909091    0.00221818181818182      -0.0157090909090909                       149.955545454545    285.413236363636    0.525405254545455    -46.687438221602    -74.0243190502437    
2022-04-22T17:09:08Z    31.6636666666667    -64.1648333333333    923       -914.598331011077    1e-12          4.0893e-14    8.26922272727273    35.35065           27.3947081818182    0.00221818181818182      -0.0158                                   149.984727272727    285.436054545455    0.525464063636364    -46.687438221602    -74.0243190502437    
2022-04-22T17:09:08Z    31.6636666666667    -64.1648333333333    923.5     -915.044716145669    1e-12          4.0893e-14    8.26568636363636    35.3505545454545   27.3951709090909    0.00221818181818182      -0.0159                                   150.041409090909    285.459063636364    0.525618581818182    -46.687438221602    -74.0243190502437    
2022-04-22T17:09:08Z    31.6636666666667    -64.1648333333333    924       -915.538556390476    1e-12          4.0864e-14    8.26205909090909    35.3503            27.3955654545455    0.00221818181818182      -0.0159                                   150.1               285.483036363636    0.525769836363636    -46.687438221602    -74.0243190502437    
2022-04-22T17:09:08Z    31.6636666666667    -64.1648333333333    924.5     -916.012127828978    1e-12          4.0836e-14    8.25496818181818    35.3499318181818   27.39635            0.00221818181818182      -0.016                                    150.182363636364    285.528818181818    0.525959736363636    -46.687438221602    -74.0243190502437    
2022-04-22T17:09:08Z    31.6636666666667    -64.1648333333333    925       -916.527222049489    1e-12          4.0864e-14    8.24526363636364    35.3499481818182   27.3978318181818    0.00221818181818182      -0.0161                                   150.234954545455    285.590472727273    0.526034545454545    -46.687438221602    -74.0243190502437    
2022-04-22T17:09:08Z    31.6636666666667    -64.1648333333333    925.5     -917.043303658504    1e-12          4.0864e-14    8.23499090909091    35.3501181818182   27.3995072727273    0.00221818181818182      -0.0161                                   150.281909090909    285.655263636364    0.526076390909091    -46.687438221602    -74.0243190502437    
2022-04-22T17:09:08Z    31.6636666666667    -64.1648333333333    926       -917.540599478077    1e-12          4.0922e-14    8.22520909090909    35.3501954545455   27.4010909090909    0.00154545454545454      -0.0161                                   150.302181818182    285.717036363636    0.526029772727273    -46.687438221602    -74.0243190502437    
2022-04-22T17:09:08Z    31.6636666666667    -64.1648333333333    926.5     -917.983518019459    1e-12          4.1009e-14    8.21542727272727    35.3501627272727   27.4025381818182    0.000872727272727273     -0.0161                                   150.339818181818    285.779218181818    0.526047845454546    -46.687438221602    -74.0243190502437    
2022-04-22T17:09:08Z    31.6636666666667    -64.1648333333333    927       -918.499596024397    1e-12          4.1096e-14    8.20555454545455    35.3501081818182   27.4039827272727    0.0002                   -0.0161                                   150.4275            285.842063636364    0.526239045454545    -46.687438221602    -74.0243190502437    
2022-04-22T17:09:08Z    31.6636666666667    -64.1648333333333    927.5     -919.01765005516     1e-12          4.1096e-14    8.19583636363636    35.3500554545455   27.4054254545455    0.0002                   -0.0161                                   150.557409090909    285.904136363636    0.5265783            -46.687438221602    -74.0243190502437    
2022-04-22T17:09:08Z    31.6636666666667    -64.1648333333333    928       -919.488247639381    1e-12          4.1125e-14    8.1861              35.3499427272727   27.4067990909091    0.0002                   -0.0161                                   150.739772727273    285.966445454545    0.527100318181818    -46.687438221602    -74.0243190502437    
2022-04-22T17:09:08Z    31.6636666666667    -64.1648333333333    928.5     -920.003333273696    1e-12          4.1096e-14    8.17686363636364    35.3497790909091   27.4080536363636    0.0002                   -0.0162                                   150.958818181818    286.025454545455    0.527758363636364    -46.687438221602    -74.0243190502437    
2022-04-22T17:09:08Z    31.6636666666667    -64.1648333333333    929       -920.501116356882    1e-12          4.1067e-14    8.16761818181818    35.3495863636364   27.4093054545455    0.0002                   -0.0162                                   151.200954545455    286.084690909091    0.528497763636364    -46.687438221602    -74.0243190502437    
2022-04-22T17:09:08Z    31.6636666666667    -64.1648333333333    929.5     -920.991977759826    1e-12          4.1038e-14    8.15860909090909    35.3495081818182   27.4105718181818    0.000872727272727273     -0.0163                                   151.461090909091    286.141981818182    0.529311181818182    -46.687438221602    -74.0243190502437    
2022-04-22T17:09:08Z    31.6636666666667    -64.1648333333333    930       -921.483826644423    1e-12          4.0922e-14    8.15284545454545    35.3495290909091   27.4114554545455    0.00154545454545455      -0.0163                                   151.716136363636    286.178754545455    0.530149981818182    -46.687438221602    -74.0243190502437    
2022-04-22T17:09:08Z    31.6636666666667    -64.1648333333333    930.5     -921.975674371847    1e-12          4.0922e-14    8.14958636363636    35.34915           27.4116718181818    0.00154545454545455      -0.0162                                   152.006818181818    286.200518181818    0.531121872727273    -46.687438221602    -74.0243190502437    
2022-04-22T17:09:08Z    31.6636666666667    -64.1648333333333    931       -922.44824255162     1e-12          4.0836e-14    8.14686818181818    35.3487427272727   27.4117772727273    0.00154545454545455      -0.0162                                   152.314181818182    286.218963636364    0.532161181818182    -46.687438221602    -74.0243190502437    
2022-04-22T17:09:08Z    31.6636666666667    -64.1648333333333    931.5     -923.012752509241    1e-12          4.0864e-14    8.14406818181818    35.3482763636364   27.4118272727273    0.00154545454545455      -0.0162                                   152.603909090909    286.238136363636    0.533134045454545    -46.687438221602    -74.0243190502437    
2022-04-22T17:09:08Z    31.6636666666667    -64.1648333333333    932       -923.461096893363    1e-12          4.0864e-14    8.14104545454546    35.3478036363636   27.4119236363636    0.000881818181818181     -0.0162                                   152.847136363636    286.258681818182    0.533942818181818    -46.687438221602    -74.0243190502437    
2022-04-22T17:09:08Z    31.6636666666667    -64.1648333333333    932.5     -923.952939957702    1e-12          4.0893e-14    8.1376              35.3472972727273   27.4120527272727    0.000218181818181818     -0.0163                                   153.040272727273    286.281909090909    0.534574563636364    -46.687438221602    -74.0243190502437    
2022-04-22T17:09:08Z    31.6636666666667    -64.1648333333333    933       -924.469003190821    1e-12          4.0893e-14    8.13302727272727    35.3466745454546   27.4122609090909    0.000218181818181818     -0.0164                                   153.185181818182    286.3125            0.535023790909091    -46.687438221602    -74.0243190502437    
2022-04-22T17:09:08Z    31.6636666666667    -64.1648333333333    933.5     -924.941565721055    1e-12          4.0951e-14    8.12816363636364    35.3462236363636   27.41263            0.000218181818181818     -0.0165                                   153.281363636364    286.344672727273    0.535299690909091    -46.687438221602    -74.0243190502437    
2022-04-22T17:09:08Z    31.6636666666667    -64.1648333333333    934       -925.366673358518    1e-12          4.1009e-14    8.12366363636364    35.3458254545455   27.4130027272727    0.000218181818181818     -0.0165                                   153.326454545455    286.374454545455    0.535396554545454    -46.687438221602    -74.0243190502437    
2022-04-22T17:09:08Z    31.6636666666667    -64.1648333333333    934.5     -925.925243704487    1e-12          4.1009e-14    8.11681818181818    35.3448890909091   27.4131363636364    0.000218181818181818     -0.0165                                   153.330090909091    286.420718181818    0.5353185            -46.687438221602    -74.0243190502437    
2022-04-22T17:09:08Z    31.6636666666667    -64.1648333333333    935       -926.446245138991    1e-12          4.1009e-14    8.10871818181818    35.3441645454545   27.4138109090909    -0.000454545454545455    -0.0164                                   153.307045454545    286.473945454545    0.535138354545455    -46.687438221602    -74.0243190502437    
2022-04-22T17:09:08Z    31.6636666666667    -64.1648333333333    935.5     -926.913860119033    1e-12          4.1009e-14    8.09938181818182    35.3434818181818   27.4146463636364    -0.00112727272727273     -0.0163                                   153.266590909091    286.535163636364    0.534885636363636    -46.687438221602    -74.0243190502437    
2022-04-22T17:09:08Z    31.6636666666667    -64.1648333333333    936       -927.408660873864    1e-12          4.1009e-14    8.0894              35.3429            27.41569            -0.00112727272727273     -0.0163                                   153.1835            286.600127272727    0.534474145454546    -46.687438221602    -74.0243190502437    
2022-04-22T17:09:08Z    31.6636666666667    -64.1648333333333    936.5     -927.899506014541    1e-12          4.098e-14     8.07899545454546    35.3421209090909   27.4166990909091    -0.000454545454545454    -0.0164                                   153.094954545455    286.668336363636    0.534039218181818    -46.687438221602    -74.0243190502437    
2022-04-22T17:09:08Z    31.6636666666667    -64.1648333333333    937       -928.376015205897    1e-12          4.1009e-14    8.06768636363636    35.3415209090909   27.4179227272727    0.000218181818181818     -0.0164                                   153.050227272727    286.741672727273    0.533750872727273    -46.687438221602    -74.0243190502437    
2022-04-22T17:09:08Z    31.6636666666667    -64.1648333333333    937.5     -928.885147262279    1e-12          4.1009e-14    8.05561363636363    35.3407863636364   27.41913            0.000218181818181818     -0.0164                                   153.069863636364    286.820381818182    0.533675445454545    -46.687438221602    -74.0243190502437    
2022-04-22T17:09:08Z    31.6636666666667    -64.1648333333333    938       -929.40712990562     1e-12          4.09945e-14   8.04337272727273    35.3401918181818   27.4204981818182    0.000218181818181818     -0.0164                                   153.128681818182    286.899818181818    0.533732763636364    -46.687438221602    -74.0243190502437    
2022-04-22T17:09:08Z    31.6636666666667    -64.1648333333333    938.5     -929.923179643942    1e-12          4.098e-14     8.03217272727273    35.3397236363636   27.42181            -0.000445454545454545    -0.0164                                   153.191318181818    286.972390909091    0.533815790909091    -46.687438221602    -74.0243190502437    
2022-04-22T17:09:08Z    31.6636666666667    -64.1648333333333    939       -930.347288530572    1e-12          4.0951e-14    8.02086363636364    35.3390454545455   27.4229636363636    -0.000445454545454546    -0.0164                                   153.259             287.046118181818    0.533914218181818    -46.687438221602    -74.0243190502437    
2022-04-22T17:09:08Z    31.6636666666667    -64.1648333333333    939.5     -930.866301728959    1e-12          4.0922e-14    8.00645909090909    35.3379545454546   27.4242227272727    -0.000445454545454546    -0.0164                                   153.367136363636    287.140663636364    0.534136709090909    -46.687438221602    -74.0243190502437    
2022-04-22T17:09:08Z    31.6636666666667    -64.1648333333333    940       -931.37938207864     1e-12          4.0922e-14    7.99150454545455    35.3376190909091   27.4263190909091    0.000227272727272727     -0.0164                                   153.504136363636    287.236618181818    0.534435818181818    -46.687438221602    -74.0243190502437    
2022-04-22T17:09:08Z    31.6636666666667    -64.1648333333333    940.5     -931.873183650037    1e-12          4.0922e-14    7.97714090909091    35.3372409090909   27.4281281818182    0.0009                   -0.0165                                   153.646227272727    287.329445454546    0.534757472727273    -46.687438221602    -74.0243190502437    
2022-04-22T17:09:08Z    31.6636666666667    -64.1648333333333    941       -932.367972642872    1e-12          4.0922e-14    7.96398636363636    35.33673           27.4297281818182    0.0009                   -0.0166                                   153.792727272727    287.414745454545    0.535101927272727    -46.687438221602    -74.0243190502437    
2022-04-22T17:09:08Z    31.6636666666667    -64.1648333333333    941.5     -932.838540105595    1e-12          4.0893e-14    7.95103181818182    35.3361445454546   27.4311872727273    0.0009                   -0.0167                                   153.965             287.498954545455    0.535545427272727    -46.687438221602    -74.0243190502437    
2022-04-22T17:09:08Z    31.6636666666667    -64.1648333333333    942       -933.353592766413    1e-12          4.08785e-14   7.93847272727273    35.33572           27.4326572727273    0.000227272727272727     -0.0166                                   154.179363636364    287.580436363636    0.536139109090909    -46.687438221602    -74.0243190502437    
2022-04-22T17:09:08Z    31.6636666666667    -64.1648333333333    942.5     -933.872598489835    1e-12          4.0864e-14    7.92627272727273    35.3351690909091   27.4340563636364    -0.000445454545454546    -0.0166                                   154.423727272727    287.659845454545    0.536842527272727    -46.687438221602    -74.0243190502437    
2022-04-22T17:09:08Z    31.6636666666667    -64.1648333333333    943       -934.388637181113    1e-12          4.0893e-14    7.91349545454545    35.3346545454545   27.4355245454545    0.000218181818181818     -0.0166                                   154.667181818182    287.743054545455    0.537534609090909    -46.687438221602    -74.0243190502437    
2022-04-22T17:09:08Z    31.6636666666667    -64.1648333333333    943.5     -934.904674595858    1e-12          4.0922e-14    7.90014090909091    35.3342754545454   27.4372             0.000881818181818182     -0.0166                                   154.910227272727    287.829681818182    0.538219209090909    -46.687438221602    -74.0243190502437    
2022-04-22T17:09:08Z    31.6636666666667    -64.1648333333333    944       -935.35299341949     1e-12          4.1009e-14    7.88646818181818    35.3339472727273   27.4389663636364    0.00154545454545454      -0.0166                                   155.1335            287.918318181818    0.538830527272727    -46.687438221602    -74.0243190502437    
2022-04-22T17:09:08Z    31.6636666666667    -64.1648333333333    944.5     -935.796368422662    1e-12          4.1009e-14    7.87296818181818    35.3337390909091   27.4407981818182    0.00154545454545454      -0.0165                                   155.351363636364    288.005454545455    0.5394246            -46.687438221602    -74.0243190502437    
2022-04-22T17:09:08Z    31.6636666666667    -64.1648333333333    945       -936.318333772254    1e-12          4.1067e-14    7.8622              35.3338636363636   27.4425372727273    0.00154545454545454      -0.0165                                   155.534             288.074309090909    0.539913418181818    -46.687438221602    -74.0243190502437    
2022-04-22T17:09:08Z    31.6636666666667    -64.1648333333333    945.5     -936.784938049354    1e-12          4.1067e-14    7.85395454545455    35.3337381818182   27.4436745454545    0.000209090909090909     -0.0165                                   155.677             288.127727272727    0.540313663636364    -46.687438221602    -74.0243190502437    
2022-04-22T17:09:08Z    31.6636666666667    -64.1648333333333    946       -937.279715395846    1e-12          4.1096e-14    7.84578181818182    35.3335418181818   27.4447281818182    -0.00112727272727273     -0.0165                                   155.869454545455    288.180963636364    0.540881472727273    -46.687438221602    -74.0243190502437    
2022-04-22T17:09:08Z    31.6636666666667    -64.1648333333333    946.5     -937.774491565441    1e-12          4.1038e-14    7.83774545454545    35.3334563636364   27.4458609090909    -0.00112727272727273     -0.0165                                   156.090272727273    288.232954545455    0.541549845454545    -46.687438221602    -74.0243190502437    
2022-04-22T17:09:08Z    31.6636666666667    -64.1648333333333    947       -938.265312318063    1e-12          4.1038e-14    7.83004545454546    35.3334136363636   27.4469609090909    -0.00112727272727273     -0.0165                                   156.351             288.282945454545    0.542359036363636    -46.687438221602    -74.0243190502437    
2022-04-22T17:09:08Z    31.6636666666667    -64.1648333333333    947.5     -938.805559810397    1e-12          4.09945e-14   7.82283181818182    35.3334236363636   27.4480390909091    -0.00179090909090909     -0.0166                                   156.579409090909    288.329390909091    0.543063572727273    -46.687438221602    -74.0243190502437    
2022-04-22T17:09:08Z    31.6636666666667    -64.1648333333333    948       -939.266227197152    1e-12          4.0951e-14    7.81665909090909    35.3334254545455   27.4489409090909    -0.00245454545454545     -0.0166                                   156.793227272727    288.369490909091    0.5437286            -46.687438221602    -74.0243190502437    
2022-04-22T17:09:08Z    31.6636666666667    -64.1648333333333    948.5     -939.794115183682    1e-12          4.0922e-14    7.81245454545455    35.3335790909091   27.44973            -0.00245454545454545     -0.0166                                   157.013590909091    288.396418181818    0.544441045454546    -46.687438221602    -74.0243190502437    
2022-04-22T17:09:08Z    31.6636666666667    -64.1648333333333    949       -940.255768938513    1e-12          4.0864e-14    7.80964090909091    35.3334863636364   27.4500781818182    -0.00245454545454545     -0.0166                                   157.227590909091    288.415018181818    0.545145154545455    -46.687438221602    -74.0243190502437    
2022-04-22T17:09:08Z    31.6636666666667    -64.1648333333333    949.5     -940.753009419666    1e-12          4.0836e-14    7.80728636363636    35.3333336363636   27.4503072727273    -0.00245454545454545     -0.0166                                   157.434863636364    288.430745454546    0.545832327272727    -46.687438221602    -74.0243190502437    
2022-04-22T17:09:08Z    31.6636666666667    -64.1648333333333    950       -941.25617999398     1e-12          4.0807e-14    7.80495454545454    35.3331036363636   27.4504763636364    -0.00245454545454546     -0.0167                                   157.636409090909    288.446618181818    0.546500190909091    -46.687438221602    -74.0243190502437    
2022-04-22T17:09:08Z    31.6636666666667    -64.1648333333333    950.5     -941.772200422013    1e-12          4.0778e-14    7.80202727272727    35.3329354545455   27.4507918181818    -0.00245454545454546     -0.0167                                   157.860863636364    288.466172727273    0.547240936363636    -46.687438221602    -74.0243190502437    
2022-04-22T17:09:08Z    31.6636666666667    -64.1648333333333    951       -942.2397810487      1e-12          4.0807e-14    7.79900909090909    35.3329472727273   27.45126            -0.00179090909090909     -0.0167                                   158.110090909091    288.485845454545    0.548065609090909    -46.687438221602    -74.0243190502437    
2022-04-22T17:09:08Z    31.6636666666667    -64.1648333333333    951.5     -942.712303323598    1e-12          4.0922e-14    7.79662727272727    35.3328809090909   27.45157            -0.00112727272727273     -0.0167                                   158.300909090909    288.501527272727    0.548697981818182    -46.687438221602    -74.0243190502437    
2022-04-22T17:09:08Z    31.6636666666667    -64.1648333333333    952       -943.22832015034     1e-12          4.1009e-14    7.79424090909091    35.3328163636364   27.4518581818182    -0.00112727272727273     -0.0167                                   158.437681818182    288.5174            0.549144181818182    -46.687438221602    -74.0243190502437    
2022-04-22T17:09:08Z    31.6636666666667    -64.1648333333333    952.5     -943.72308221096     1e-12          4.1125e-14    7.79205454545455    35.3327045454545   27.4521             -0.00112727272727273     -0.0167                                   158.521409090909    288.532054545454    0.549407427272727    -46.687438221602    -74.0243190502437    
2022-04-22T17:09:08Z    31.6636666666667    -64.1648333333333    953       -944.193624061974    1e-12          4.1154e-14    7.78991818181818    35.3326736363636   27.4523963636364    -0.000463636363636364    -0.0167                                   158.587818181818    288.546190909091    0.549610563636364    -46.687438221602    -74.0243190502437    
2022-04-22T17:09:08Z    31.6636666666667    -64.1648333333333    953.5     -944.702717517545    1e-12          4.1213e-14    7.78772272727273    35.3326127272727   27.4526709090909    0.0002                   -0.0167                                   158.615954545455    288.560781818182    0.549679827272727    -46.687438221602    -74.0243190502437    
2022-04-22T17:09:08Z    31.6636666666667    -64.1648333333333    954       -945.248879503995    1e-12          4.1183e-14    7.78552272727273    35.3325663636364   27.45297            -0.000463636363636364    -0.0167                                   158.613954545455    288.575336363636    0.549645190909091    -46.687438221602    -74.0243190502437    
2022-04-22T17:09:08Z    31.6636666666667    -64.1648333333333    954.5     -945.737705615666    1e-12          4.1183e-14    7.78311363636364    35.3325463636364   27.4533109090909    -0.00112727272727273     -0.0167                                   158.625454545455    288.591245454545    0.549654972727273    -46.687438221602    -74.0243190502437    
2022-04-22T17:09:08Z    31.6636666666667    -64.1648333333333    955       -946.231473214285    1e-12          4.1154e-14    7.78057727272727    35.3325018181818   27.4536527272727    -0.00112727272727273     -0.0167                                   158.670863636364    288.608154545455    0.549778818181818    -46.687438221602    -74.0243190502437    
2022-04-22T17:09:08Z    31.6636666666667    -64.1648333333333    955.5     -946.702009405331    1e-12          4.1067e-14    7.77811818181818    35.33255           27.4540645454545    -0.00112727272727273     -0.0167                                   158.749363636364    288.624245454545    0.550020863636364    -46.687438221602    -74.0243190502437    
2022-04-22T17:09:08Z    31.6636666666667    -64.1648333333333    956       -947.212085240804    1e-12          4.1038e-14    7.77654545454546    35.3326236363636   27.4543390909091    -0.00112727272727273     -0.0167                                   158.786             288.634672727273    0.550127736363636    -46.687438221602    -74.0243190502437    
2022-04-22T17:09:08Z    31.6636666666667    -64.1648333333333    956.5     -947.651975257755    1e-12          4.0922e-14    7.77538181818182    35.3324890909091   27.45443            -0.00112727272727273     -0.0167                                   158.792863636364    288.642763636364    0.550136209090909    -46.687438221602    -74.0243190502437    
2022-04-22T17:09:08Z    31.6636666666667    -64.1648333333333    957       -948.167485606295    1e-12          4.0864e-14    7.77330909090909    35.33231           27.4545718181818    -0.00112727272727273     -0.0166                                   158.7895            288.657490909091    0.5500837            -46.687438221602    -74.0243190502437    
2022-04-22T17:09:08Z    31.6636666666667    -64.1648333333333    957.5     -948.677063623966    1e-12          4.0807e-14    7.76866818181818    35.3321745454545   27.4551290909091    -0.00112727272727273     -0.0165                                   158.8135            288.688345454545    0.550108163636364    -46.687438221602    -74.0243190502437    
2022-04-22T17:09:08Z    31.6636666666667    -64.1648333333333    958       -949.147594307045    1e-12          4.0778e-14    7.76261818181818    35.3321809090909   27.4560272727273    -0.000454545454545454    -0.0165                                   158.858227272727    288.727645454545    0.550187336363636    -46.687438221602    -74.0243190502437    
2022-04-22T17:09:08Z    31.6636666666667    -64.1648333333333    958.5     -949.62405496517     1e-12          4.0778e-14    7.75616818181818    35.3321518181818   27.4569609090909    0.000218181818181818     -0.0165                                   158.921727272727    288.769627272727    0.550326318181818    -46.687438221602    -74.0243190502437    
2022-04-22T17:09:08Z    31.6636666666667    -64.1648333333333    959       -950.145985723642    1e-12          4.0807e-14    7.74928181818182    35.3321336363636   27.4579681818182    0.000218181818181818     -0.0165                                   158.993772727273    288.814318181818    0.550491318181818    -46.687438221602    -74.0243190502437    
2022-04-22T17:09:08Z    31.6636666666667    -64.1648333333333    959.5     -950.676317438862    1e-12          4.0807e-14    7.74154545454545    35.3319954545454   27.4589872727273    0.000881818181818182     -0.0165                                   159.1135            288.8651            0.550808763636364    -46.687438221602    -74.0243190502437    
2022-04-22T17:09:08Z    31.6636666666667    -64.1648333333333    960       -951.1468436112      1e-12          4.0922e-14    7.73313636363636    35.3317654545454   27.4600509090909    0.00154545454545455      -0.0165                                   159.263363636364    288.920227272727    0.551220636363636    -46.687438221602    -74.0243190502437    
2022-04-22T17:09:08Z    31.6636666666667    -64.1648333333333    960.5     -951.65048337029     1e-12          4.098e-14     7.72412727272727    35.3314909090909   27.46116            0.00154545454545454      -0.0165                                   159.431909090909    288.979045454545    0.551688263636364    -46.687438221602    -74.0243190502437    
2022-04-22T17:09:08Z    31.6636666666667    -64.1648333333333    961       -952.123478581129    1e-12          4.1067e-14    7.71310909090909    35.3309945454545   27.4623790909091    0.00154545454545454      -0.0165                                   159.603227272727    289.051490909091    0.552139154545455    -46.687438221602    -74.0243190502437    
2022-04-22T17:09:08Z    31.6636666666667    -64.1648333333333    961.5     -952.63996638295     1e-12          4.1154e-14    7.70180909090909    35.3307009090909   27.4638             0.00154545454545454      -0.0165                                   159.786590909091    289.125245454545    0.552631354545455    -46.687438221602    -74.0243190502437    
2022-04-22T17:09:08Z    31.6636666666667    -64.1648333333333    962       -953.106534167863    1e-12          4.1183e-14    7.69096363636364    35.3305545454545   27.4652681818182    0.00154545454545454      -0.0165                                   159.989045454545    289.195945454545    0.553196836363636    -46.687438221602    -74.0243190502437    
2022-04-22T17:09:08Z    31.6636666666667    -64.1648333333333    962.5     -953.580020323857    1e-12          4.1183e-14    7.68145             35.3307345454545   27.46682            0.00154545454545454      -0.0166                                   160.209409090909    289.256736363636    0.553853818181818    -46.687438221602    -74.0243190502437    
2022-04-22T17:09:08Z    31.6636666666667    -64.1648333333333    963       -954.087113909013    1e-12          4.1096e-14    7.67468636363636    35.3308218181818   27.4678963636364    0.00154545454545454      -0.0167                                   160.412909090909    289.300272727273    0.554474254545455    -46.687438221602    -74.0243190502437    
2022-04-22T17:09:08Z    31.6636666666667    -64.1648333333333    963.5     -954.611998954185    1e-12          4.098e-14     7.66930454545454    35.3308136363636   27.4686690909091    0.000872727272727273     -0.0167                                   160.600409090909    289.335372727273    0.555054654545455    -46.687438221602    -74.0243190502437    
2022-04-22T17:09:08Z    31.6636666666667    -64.1648333333333    964       -955.073125686512    1e-12          4.0893e-14    7.66385             35.3306163636364   27.4693272727273    0.0002                   -0.0167                                   160.812090909091    289.371390909091    0.555718427272727    -46.687438221602    -74.0243190502437    
2022-04-22T17:09:08Z    31.6636666666667    -64.1648333333333    964.5     -955.553032490722    1e-12          4.0864e-14    7.65798636363636    35.3304781818182   27.4700881818182    0.0002                   -0.0167                                   161.032545454545    289.409890909091    0.556405081818182    -46.687438221602    -74.0243190502437    
2022-04-22T17:09:08Z    31.6636666666667    -64.1648333333333    965       -956.086810128558    1e-12          4.0807e-14    7.65206363636364    35.3304354545455   27.4709045454545    0.0002                   -0.0167                                   161.229227272727    289.448418181818    0.557010790909091    -46.687438221602    -74.0243190502437    
2022-04-22T17:09:08Z    31.6636666666667    -64.1648333333333    965.5     -956.553864447447    1e-12          4.0807e-14    7.64648181818182    35.3305545454545   27.4718054545455    0.0002                   -0.0167                                   161.369409090909    289.484490909091    0.557427336363636    -46.687438221602    -74.0243190502437    
2022-04-22T17:09:08Z    31.6636666666667    -64.1648333333333    966       -957.039698674904    1e-12          4.0836e-14    7.64110454545454    35.33067           27.4726772727273    0.0002                   -0.0167                                   161.4885            289.519490909091    0.557776936363636    -46.687438221602    -74.0243190502437    
2022-04-22T17:09:08Z    31.6636666666667    -64.1648333333333    966.5     -957.555680074468    1e-12          4.0807e-14    7.63786818181818    35.3309636363636   27.4734009090909    0.0002                   -0.0167                                   161.634863636364    289.5401            0.558246763636364    -46.687438221602    -74.0243190502437    
2022-04-22T17:09:08Z    31.6636666666667    -64.1648333333333    967       -958.071660198422    1e-12          4.0807e-14    7.63252272727273    35.3306672727273   27.4739509090909    0.0002                   -0.0167                                   161.828545454545    289.575727272727    0.558845436363636    -46.687438221602    -74.0243190502437    
2022-04-22T17:09:08Z    31.6636666666667    -64.1648333333333    967.5     -958.556502427943    1e-12          4.0836e-14    7.62500909090909    35.3301309090909   27.4745909090909    0.0002                   -0.0167                                   162.040818181818    289.625854545455    0.5594806            -46.687438221602    -74.0243190502437    
2022-04-22T17:09:08Z    31.6636666666667    -64.1648333333333    968       -959.060124306352    1e-12          4.0807e-14    7.61503181818182    35.3290809090909   27.4751345454545    0.0002                   -0.0167                                   162.250363636364    289.693318181818    0.560073936363636    -46.687438221602    -74.0243190502437    
2022-04-22T17:09:08Z    31.6636666666667    -64.1648333333333    968.5     -959.576100711115    1e-12          4.0893e-14    7.60375             35.3281672727273   27.4760572727273    0.0002                   -0.0167                                   162.463681818182    289.768709090909    0.560666718181818    -46.687438221602    -74.0243190502437    
2022-04-22T17:09:08Z    31.6636666666667    -64.1648333333333    969       -959.983345555205    1e-12          4.1125e-14    7.59202272727273    35.3271836363636   27.4769990909091    0.0002                   -0.0167                                   162.690363636364    289.847227272727    0.561297818181818    -46.687438221602    -74.0243190502437    
2022-04-22T17:09:08Z    31.6636666666667    -64.1648333333333    969.5     -960.511675363878    1e-12          4.11105e-14   7.58016818181818    35.3264409090909   27.4780963636364    0.0002                   -0.0167                                   162.872363636364    289.926             0.561774145454545    -46.687438221602    -74.0243190502437    
2022-04-22T17:09:08Z    31.6636666666667    -64.1648333333333    970       -961.00343109109     1e-12          4.09945e-14   7.5685              35.3252645454546   27.4788390909091    0.0002                   -0.0167909090909091                       163.038045454545    290.004618181818    0.5621949            -46.687438221602    -74.0243190502437    
2022-04-22T17:09:08Z    31.6636666666667    -64.1648333333333    970.5     -961.506552843191    1e-12          4.098e-14     7.55559090909091    35.3238036363636   27.47957            0.0002                   -0.0167909090909091                       163.183363636364    290.0918            0.562532754545455    -46.687438221602    -74.0243190502437    
2022-04-22T17:09:08Z    31.6636666666667    -64.1648333333333    971       -962.065026445589    1e-12          4.0893e-14    7.54143181818182    35.3226763636364   27.4807227272727    -0.000463636363636364    -0.0168363636363636                       163.307227272727    290.186536363636    0.562776663636364    -46.687438221602    -74.0243190502437    
2022-04-22T17:09:08Z    31.6636666666667    -64.1648333333333    971.5     -962.495989124477    1e-12          4.0836e-14    7.52715909090909    35.3217372727273   27.4820390909091    -0.00112727272727273     -0.0168363636363636                       163.407454545455    290.281527272727    0.562937381818182    -46.687438221602    -74.0243190502437    
2022-04-22T17:09:08Z    31.6636666666667    -64.1648333333333    972       -962.945731346431    1e-12          4.0807e-14    7.51220909090909    35.32072           27.48337            -0.00179090909090909     -0.0168363636363636                       163.447409090909    290.381309090909    0.562881872727273    -46.687438221602    -74.0243190502437    
2022-04-22T17:09:08Z    31.6636666666667    -64.1648333333333    972.5     -963.509637524007    1e-12          4.0807e-14    7.49904090909091    35.3201772727273   27.4848354545455    -0.00245454545454545     -0.0168363636363636                       163.446181818182    290.468481818182    0.562710181818182    -46.687438221602    -74.0243190502437    
2022-04-22T17:09:08Z    31.6636666666667    -64.1648333333333    973       -963.943562532098    1e-12          4.0807e-14    7.48778181818182    35.3198063636364   27.4861790909091    -0.00245454545454545     -0.0168363636363636                       163.416772727273    290.542872727273    0.562468036363636    -46.687438221602    -74.0243190502437    
2022-04-22T17:09:08Z    31.6636666666667    -64.1648333333333    973.5     -964.471882320533    1e-12          4.0778e-14    7.47937727272727    35.3196427272727   27.4873463636364    -0.00245454545454545     -0.0168363636363636                       163.452272727273    290.598054545455    0.562484972727273    -46.687438221602    -74.0243190502437    
2022-04-22T17:09:08Z    31.6636666666667    -64.1648333333333    974       -964.957698122382    1e-12          4.0807e-14    7.47115909090909    35.3192854545455   27.4882336363636    -0.00245454545454545     -0.0168363636363636                       163.563045454545    290.652690909091    0.562757127272727    -46.687438221602    -74.0243190502437    
2022-04-22T17:09:08Z    31.6636666666667    -64.1648333333333    974.5     -965.461304551761    1e-12          4.0807e-14    7.46314090909091    35.3189845454545   27.4891318181818    -0.00245454545454546     -0.0168363636363636                       163.699045454545    290.705809090909    0.563121518181818    -46.687438221602    -74.0243190502437    
2022-04-22T17:09:08Z    31.6636666666667    -64.1648333333333    975       -965.980230425561    1e-12          4.08215e-14   7.4551              35.3185118181818   27.4899163636364    -0.00245454545454546     -0.0168363636363636                       163.847318181818    290.759618181818    0.563526318181818    -46.687438221602    -74.0243190502437    
2022-04-22T17:09:08Z    31.6636666666667    -64.1648333333333    975.5     -966.605905043204    1e-12          4.098e-14     7.44687727272727    35.3184472727273   27.4910536363636    -0.00245454545454546     -0.0167454545454545                       163.999272727273    290.813672727273    0.563946036363636    -46.687438221602    -74.0243190502437    
2022-04-22T17:09:08Z    31.6636666666667    -64.1648333333333    976       -966.872779902483    1e-12          4.1183e-14    7.44025             35.3187790909091   27.4922672727273    -0.00245454545454546     -0.0167454545454545                       164.148863636364    290.856527272727    0.564372718181818    -46.687438221602    -74.0243190502437    
2022-04-22T17:09:08Z    31.6636666666667    -64.1648333333333    976.5     -967.486590783293    1e-12          4.1154e-14    7.43513636363636    35.3187036363636   27.4929327272727    -0.00179090909090909     -0.0167                                   164.302636363636    290.890454545455    0.564834990909091    -46.687438221602    -74.0243190502437    
2022-04-22T17:09:08Z    31.6636666666667    -64.1648333333333    977       -967.911611752754    1e-12          4.1096e-14    7.43015909090909    35.3184272727273   27.4934345454545    -0.00112727272727273     -0.0167                                   164.459454545455    290.9239            0.565307772727273    -46.687438221602    -74.0243190502437    
2022-04-22T17:09:08Z    31.6636666666667    -64.1648333333333    977.5     -968.42756627844     1e-12          4.10235e-14   7.42482727272727    35.3183545454545   27.4941454545455    -0.000463636363636364    -0.0167                                   164.600227272727    290.959145454545    0.565721518181818    -46.687438221602    -74.0243190502437    
2022-04-22T17:09:08Z    31.6636666666667    -64.1648333333333    978       -968.943519528949    1e-12          4.098e-14     7.41969545454545    35.3182109090909   27.4947645454545    0.0002                   -0.0167                                   164.734772727273    290.993345454546    0.566114809090909    -46.687438221602    -74.0243190502437    
2022-04-22T17:09:08Z    31.6636666666667    -64.1648333333333    978.5     -969.414004518274    1e-12          4.0893e-14    7.41398181818182    35.31808           27.4954845454545    0.0002                   -0.0167                                   164.879727272727    291.031154545455    0.566536690909091    -46.687438221602    -74.0243190502437    
2022-04-22T17:09:08Z    31.6636666666667    -64.1648333333333    979       -969.93292056668     1e-12          4.0836e-14    7.40692272727273    35.3180054545455   27.4964081818182    0.0002                   -0.0167                                   164.964681818182    291.077718181818    0.566735254545455    -46.687438221602    -74.0243190502437    
2022-04-22T17:09:08Z    31.6636666666667    -64.1648333333333    979.5     -970.403403326269    1e-12          4.0836e-14    7.40025909090909    35.3180363636364   27.4973909090909    0.0002                   -0.0167                                   165.028590909091    291.121563636364    0.566869509090909    -46.687438221602    -74.0243190502437    
2022-04-22T17:09:08Z    31.6636666666667    -64.1648333333333    980       -970.922316915446    1e-12          4.0836e-14    7.39401363636363    35.31801           27.4982590909091    0.0002                   -0.0167                                   165.140318181818    291.162654545455    0.567171681818182    -46.687438221602    -74.0243190502437    
2022-04-22T17:09:08Z    31.6636666666667    -64.1648333333333    980.5     -971.392797445369    1e-12          4.0778e-14    7.3875              35.31802           27.4992145454545    0.0002                   -0.0167                                   165.284954545455    291.205372727273    0.567586945454545    -46.687438221602    -74.0243190502437    
2022-04-22T17:09:08Z    31.6636666666667    -64.1648333333333    981       -971.863276924956    1e-12          4.0807e-14    7.38102727272727    35.3178836363636   27.4999954545455    0.0002                   -0.0167                                   165.454045454545    291.248627272727    0.568085018181818    -46.687438221602    -74.0243190502437    
2022-04-22T17:09:08Z    31.6636666666667    -64.1648333333333    981.5     -972.427653215335    1e-12          4.0807e-14    7.37451363636364    35.31771           27.50079            0.0002                   -0.0167                                   165.633636363636    291.291963636364    0.568615954545455    -46.687438221602    -74.0243190502437    
2022-04-22T17:09:08Z    31.6636666666667    -64.1648333333333    982       -972.922346063462    1e-12          4.08785e-14   7.36765             35.3174754545455   27.5015936363636    -0.000463636363636364    -0.0167909090909091                       165.805045454545    291.337663636364    0.569116318181818    -46.687438221602    -74.0243190502437    
2022-04-22T17:09:08Z    31.6636666666667    -64.1648333333333    982.5     -973.278662565411    1e-12          4.1067e-14    7.36086818181818    35.31735           27.5024490909091    -0.00112727272727273     -0.0168818181818182                       165.969318181818    291.382763636364    0.569592281818182    -46.687438221602    -74.0243190502437    
2022-04-22T17:09:08Z    31.6636666666667    -64.1648333333333    983       -973.84303502976     1e-12          4.11395e-14   7.35471363636364    35.31713           27.5031627272727    -0.00179090909090909     -0.0168818181818182                       166.147545454545    291.423863636364    0.570121990909091    -46.687438221602    -74.0243190502437    
2022-04-22T17:09:08Z    31.6636666666667    -64.1648333333333    983.5     -974.310543814299    1e-12          4.1096e-14    7.34865             35.3169309090909   27.5038745454545    -0.00245454545454545     -0.0169727272727273                       166.352363636364    291.464281818182    0.570748909090909    -46.687438221602    -74.0243190502437    
2022-04-22T17:09:08Z    31.6636666666667    -64.1648333333333    984       -974.874913489387    1e-12          4.1009e-14    7.34323181818182    35.3167463636364   27.5044990909091    -0.00245454545454545     -0.0169727272727273                       166.540136363636    291.500672727273    0.571321509090909    -46.687438221602    -74.0243190502437    
2022-04-22T17:09:08Z    31.6636666666667    -64.1648333333333    984.5     -975.34835026576     1e-12          4.0807e-14    7.33829545454545    35.3165009090909   27.5050418181818    -0.00245454545454545     -0.0169727272727273                       166.745045454545    291.533945454545    0.571960509090909    -46.687438221602    -74.0243190502437    
2022-04-22T17:09:08Z    31.6636666666667    -64.1648333333333    985       -975.815855685345    1e-12          4.0836e-14    7.33382272727273    35.3162481818182   27.5054845454545    -0.00245454545454545     -0.0169727272727273                       166.906454545455    291.564054545454    0.572455709090909    -46.687438221602    -74.0243190502437    
2022-04-22T17:09:08Z    31.6636666666667    -64.1648333333333    985.5     -976.335250002561    1e-12          4.0807e-14    7.32887727272727    35.3159218181818   27.5059609090909    -0.00245454545454546     -0.0169727272727273                       166.966090909091    291.597645454545    0.572595727272727    -46.687438221602    -74.0243190502437    
2022-04-22T17:09:08Z    31.6636666666667    -64.1648333333333    986       -976.866503567725    1e-12          4.0721e-14    7.32418636363636    35.3157981818182   27.5065327272727    -0.00245454545454546     -0.0169727272727273                       166.995363636364    291.629009090909    0.572630672727273    -46.687438221602    -74.0243190502437    
2022-04-22T17:09:08Z    31.6636666666667    -64.1648333333333    986.5     -977.352290522966    1e-12          4.075e-14     7.32053636363636    35.3157690909091   27.5070790909091    -0.00178181818181818     -0.0169727272727273                       167.045818181818    291.653018181818    0.5727518            -46.687438221602    -74.0243190502437    
2022-04-22T17:09:08Z    31.6636666666667    -64.1648333333333    987       -977.844006586685    1e-12          4.0721e-14    7.31682727272727    35.3156954545455   27.5075481818182    -0.00178181818181818     -0.0170636363636364                       167.119227272727    291.677845454545    0.5729547            -46.687438221602    -74.0243190502437    
2022-04-22T17:09:08Z    31.6636666666667    -64.1648333333333    987.5     -978.335721490256    1e-12          4.0678e-14    7.31365454545455    35.3156990909091   27.5080045454545    -0.00111818181818182     -0.0170636363636364                       167.200636363636    291.698981818182    0.573191490909091    -46.687438221602    -74.0243190502437    
2022-04-22T17:09:08Z    31.6636666666667    -64.1648333333333    988       -978.833365447687    1e-12          4.0807e-14    7.31085454545455    35.3156845454545   27.5084             -0.000454545454545454    -0.0169727272727273                       167.283181818182    291.717609090909    0.573438890909091    -46.687438221602    -74.0243190502437    
2022-04-22T17:09:08Z    31.6636666666667    -64.1648333333333    988.5     -979.398711263586    1e-12          4.0922e-14    7.30847272727273    35.31568           27.5087290909091    0.000209090909090909     -0.0170636363636364                       167.358136363636    291.733572727273    0.573666227272727    -46.687438221602    -74.0243190502437    
2022-04-22T17:09:08Z    31.6636666666667    -64.1648333333333    989       -979.726848342809    1e-12          4.1067e-14    7.30640909090909    35.3156181818182   27.5089790909091    0.000872727272727273     -0.0169727272727273                       167.399045454545    291.747572727273    0.573778418181818    -46.687438221602    -74.0243190502437    
2022-04-22T17:09:08Z    31.6636666666667    -64.1648333333333    989.5     -980.272918692348    1e-12          4.1096e-14    7.30435909090909    35.31551           27.5091972727273    0.000872727272727273     -0.0170636363636364                       167.451             291.761590909091    0.573929209090909    -46.687438221602    -74.0243190502437    
2022-04-22T17:09:08Z    31.6636666666667    -64.1648333333333    990       -980.767592951919    1e-12          4.10815e-14   7.30217727272727    35.3154272727273   27.50944            0.000872727272727273     -0.0170636363636364                       167.504272727273    291.776354545455    0.574081727272727    -46.687438221602    -74.0243190502437    
2022-04-22T17:09:08Z    31.6636666666667    -64.1648333333333    990.5     -981.232121167291    1e-12          4.1038e-14    7.29985909090909    35.3152272727273   27.5096372727273    0.00154545454545455      -0.0171545454545455                       167.558954545455    291.792427272727    0.574240727272727    -46.687438221602    -74.0243190502437    
2022-04-22T17:09:08Z    31.6636666666667    -64.1648333333333    991       -981.757926320331    1e-12          4.1038e-14    7.29708181818182    35.3152690909091   27.5100490909091    0.00221818181818182      -0.0172454545454545                       167.649863636364    291.810918181818    0.574516309090909    -46.687438221602    -74.0243190502437    
2022-04-22T17:09:08Z    31.6636666666667    -64.1648333333333    991.5     -982.22245232776     1e-12          4.0951e-14    7.29371363636364    35.3149972727273   27.5102709090909    0.00221818181818182      -0.0173363636363636                       167.745590909091    291.834181818182    0.574800290909091    -46.687438221602    -74.0243190502437    
2022-04-22T17:09:08Z    31.6636666666667    -64.1648333333333    992       -982.768516152046    1e-12          4.09365e-14   7.28787272727273    35.3148890909091   27.5109936363636    0.00154545454545455      -0.0174272727272727                       167.802318181818    291.873190909091    0.574917663636364    -46.687438221602    -74.0243190502437    
2022-04-22T17:09:08Z    31.6636666666667    -64.1648333333333    992.5     -983.260219462511    1e-12          4.0893e-14    7.28120909090909    35.3148918181818   27.5119318181818    0.00154545454545455      -0.0174272727272727                       167.828272727273    291.917345454546    0.574920136363636    -46.687438221602    -74.0243190502437    
2022-04-22T17:09:08Z    31.6636666666667    -64.1648333333333    993       -983.78206613016     1e-12          4.0864e-14    7.27416363636364    35.3148936363636   27.5129336363636    0.00154545454545454      -0.0174272727272727                       167.860909090909    291.964009090909    0.574942136363636    -46.687438221602    -74.0243190502437    
2022-04-22T17:09:08Z    31.6636666666667    -64.1648333333333    993.5     -984.277226249303    1e-12          4.0893e-14    7.26669090909091    35.3148754545455   27.5139781818182    0.00154545454545454      -0.0175181818181818                       167.937909090909    292.013518181818    0.575108236363636    -46.687438221602    -74.0243190502437    
2022-04-22T17:09:08Z    31.6636666666667    -64.1648333333333    994       -984.745205844114    1e-12          4.08785e-14   7.25896363636364    35.3148018181818   27.5150072727273    0.00154545454545454      -0.0174272727272727                       168.056590909091    292.064818181818    0.575413172727273    -46.687438221602    -74.0243190502437    
2022-04-22T17:09:08Z    31.6636666666667    -64.1648333333333    994.5     -985.239869513605    1e-12          4.0864e-14    7.25096363636364    35.3147336363636   27.5160809090909    0.00154545454545454      -0.0175181818181818                       168.204954545455    292.117927272727    0.575816027272727    -46.687438221602    -74.0243190502437    
2022-04-22T17:09:08Z    31.6636666666667    -64.1648333333333    995       -985.755781222209    1e-12          4.0807e-14    7.24261363636364    35.3146345454545   27.5171836363636    0.00154545454545454      -0.0175181818181818                       168.373772727273    292.173381818182    0.576282536363636    -46.687438221602    -74.0243190502437    
2022-04-22T17:09:08Z    31.6636666666667    -64.1648333333333    995.5     -986.229193335402    1e-12          4.0893e-14    7.23420454545454    35.3145918181818   27.5183381818182    0.00154545454545454      -0.0176090909090909                       168.552318181818    292.229181818182    0.576784718181818    -46.687438221602    -74.0243190502437    
2022-04-22T17:09:08Z    31.6636666666667    -64.1648333333333    996       -986.703592706352    1e-12          4.0922e-14    7.22587727272727    35.3146154545455   27.5195109090909    0.000872727272727273     -0.0176090909090909                       168.743909090909    292.284209090909    0.577329472727273    -46.687438221602    -74.0243190502437    
2022-04-22T17:09:08Z    31.6636666666667    -64.1648333333333    996.5     -987.174037685008    1e-12          4.0864e-14    7.21797272727273    35.3145345454545   27.5205581818182    -0.00112727272727273     -0.0176090909090909                       168.9525            292.336727272727    0.577938263636364    -46.687438221602    -74.0243190502437    
2022-04-22T17:09:08Z    31.6636666666667    -64.1648333333333    997       -987.692909594316    1e-12          4.0922e-14    7.21102272727273    35.31455           27.5216272727273    -0.00245454545454545     -0.0176090909090909                       169.157272727273    292.382663636364    0.578548827272727    -46.687438221602    -74.0243190502437    
2022-04-22T17:09:08Z    31.6636666666667    -64.1648333333333    997.5     -988.230064202241    1e-12          4.0893e-14    7.20566818181818    35.3145018181818   27.5223418181818    -0.00245454545454545     -0.0176090909090909                       169.337363636364    292.418354545455    0.5790962            -46.687438221602    -74.0243190502437    
2022-04-22T17:09:08Z    31.6636666666667    -64.1648333333333    998       -988.725707939017    1e-12          4.0893e-14    7.20155909090909    35.3143490909091   27.5228109090909    -0.00245454545454545     -0.0176090909090909                       169.534590909091    292.446109090909    0.579714363636364    -46.687438221602    -74.0243190502437    
2022-04-22T17:09:08Z    31.6636666666667    -64.1648333333333    998.5     -989.220362167863    1e-12          4.0864e-14    7.19668636363636    35.3139781818182   27.5231645454545    -0.00245454545454545     -0.0175181818181818                       169.756227272727    292.479463636364    0.580408336363636    -46.687438221602    -74.0243190502437    
2022-04-22T17:09:08Z    31.6636666666667    -64.1648333333333    999       -989.715015242805    1e-12          4.0951e-14    7.19127727272727    35.3136763636364   27.52365            -0.00245454545454545     -0.0174727272727273                       169.955909090909    292.516272727273    0.581017909090909    -46.687438221602    -74.0243190502437    
2022-04-22T17:09:08Z    31.6636666666667    -64.1648333333333    999.5     -990.209667144757    1e-12          4.0922e-14    7.18579545454545    35.3134881818182   27.5242772727273    -0.00245454545454545     -0.0175636363636364                       170.142045454545    292.553209090909    0.581581054545455    -46.687438221602    -74.0243190502437    
2022-04-22T17:09:08Z    31.6636666666667    -64.1648333333333    1000      -990.705306183724    1e-12          4.0922e-14    7.18049545454546    35.3132918181818   27.5248672727273    -0.00178181818181818     -0.0175636363636364                       170.296045454545    292.588918181818    0.582037163636364    -46.687438221602    -74.0243190502437    
2022-04-22T17:09:08Z    31.6636666666667    -64.1648333333333    1000.5    -991.196990805531    1e-12          4.08785e-14   7.17534545454545    35.3131145454545   27.52544            -0.00110909090909091     -0.0175636363636364                       170.419136363636    292.623672727273    0.58239              -46.687438221602    -74.0243190502437    
2022-04-22T17:09:08Z    31.6636666666667    -64.1648333333333    1001      -991.694604116463    1e-12          4.0893e-14    7.17031818181818    35.3129163636364   27.5259818181818    0.000227272727272727     -0.0175636363636364                       170.506590909091    292.657590909091    0.582621663636364    -46.687438221602    -74.0243190502437    
2022-04-22T17:09:08Z    31.6636666666667    -64.1648333333333    1001.5    -992.186286409407    1e-12          4.0893e-14    7.1655              35.31274           27.5265254545455    0.000563636363636363     -0.0175636363636364                       170.602318181818    292.690136363636    0.582882345454545    -46.687438221602    -74.0243190502437    
2022-04-22T17:09:08Z    31.6636666666667    -64.1648333333333    1002      -992.660178098182    1e-12          4.085e-14     7.16084545454546    35.31254           27.5270290909091    0.00189090909090909      -0.0175636363636364                       170.693090909091    292.721663636364    0.583130372727273    -46.687438221602    -74.0243190502437    
2022-04-22T17:09:08Z    31.6636666666667    -64.1648333333333    1002.5    -993.152352271229    1e-12          4.0893e-14    7.15625454545454    35.3124118181818   27.52754            0.00321818181818182      -0.0175636363636364                       170.808590909091    292.752627272727    0.583462845454546    -46.687438221602    -74.0243190502437    
2022-04-22T17:09:08Z    31.6636666666667    -64.1648333333333    1003      -993.625747619184    1e-12          4.0864e-14    7.15228181818182    35.3122418181818   27.5279763636364    0.00321818181818182      -0.0175636363636364                       170.9635            292.779609090909    0.583935536363636    -46.687438221602    -74.0243190502437    
2022-04-22T17:09:08Z    31.6636666666667    -64.1648333333333    1003.5    -994.141638613845    1e-12          4.0922e-14    7.14836363636364    35.31205           27.5283727272727    0.00321818181818182      -0.0175636363636364                       171.090909090909    292.806236363636    0.584318445454545    -46.687438221602    -74.0243190502437    
2022-04-22T17:09:08Z    31.6636666666667    -64.1648333333333    1004      -994.664446387083    1e-12          4.098e-14     7.14550909090909    35.3120472727273   27.5288136363636    0.00321818181818182      -0.0176545454545455                       171.175545454545    292.825318181818    0.584565027272727    -46.687438221602    -74.0243190502437    
2022-04-22T17:09:08Z    31.6636666666667    -64.1648333333333    1004.5    -995.131908562066    1e-12          4.1009e-14    7.1433              35.3119536363636   27.5291018181818    0.00321818181818182      -0.0177                                   171.232681818182    292.840218181818    0.584730427272727    -46.687438221602    -74.0243190502437    
2022-04-22T17:09:08Z    31.6636666666667    -64.1648333333333    1005      -995.647795836849    1e-12          4.098e-14     7.14105             35.3118163636364   27.5293218181818    0.00321818181818182      -0.0177                                   171.262181818182    292.855681818182    0.584799681818182    -46.687438221602    -74.0243190502437    
2022-04-22T17:09:08Z    31.6636666666667    -64.1648333333333    1005.5    -996.121185529316    1e-12          4.098e-14     7.13845909090909    35.3116754545455   27.5295881818182    0.00254545454545454      -0.0177                                   171.301090909091    292.873445454545    0.584894854545455    -46.687438221602    -74.0243190502437    
2022-04-22T17:09:08Z    31.6636666666667    -64.1648333333333    1006      -996.595562433065    1e-12          4.0922e-14    7.13541363636364    35.3114890909091   27.5298590909091    0.00187272727272727      -0.0177                                   171.385363636364    292.894227272727    0.585143209090909    -46.687438221602    -74.0243190502437    
2022-04-22T17:09:08Z    31.6636666666667    -64.1648333333333    1006.5    -997.068949977682    1e-12          4.0951e-14    7.13135454545455    35.3112681818182   27.5302527272727    0.000536363636363636     -0.0177                                   171.490227272727    292.921836363636    0.585445536363636    -46.687438221602    -74.0243190502437    
2022-04-22T17:09:08Z    31.6636666666667    -64.1648333333333    1007      -997.584832468627    1e-12          4.0922e-14    7.12511363636364    35.3111209090909   27.5310054545455    0.0002                   -0.0177                                   171.574272727273    292.963727272727    0.585647272727273    -46.687438221602    -74.0243190502437    
2022-04-22T17:09:08Z    31.6636666666667    -64.1648333333333    1007.5    -998.100713685559    1e-12          4.08785e-14   7.11855909090909    35.31113           27.53192            0.0002                   -0.0177                                   171.619909090909    293.007390909091    0.585714790909091    -46.687438221602    -74.0243190502437    
2022-04-22T17:09:08Z    31.6636666666667    -64.1648333333333    1008      -998.596333998519    1e-12          4.0893e-14    7.11195909090909    35.3111009090909   27.5328118181818    0.0002                   -0.0177                                   171.643090909091    293.051345454545    0.585705681818182    -46.687438221602    -74.0243190502437    
2022-04-22T17:09:08Z    31.6636666666667    -64.1648333333333    1008.5    -999.090964865478    1e-12          4.0836e-14    7.10521363636364    35.3110354545455   27.5336981818182    0.0002                   -0.0177                                   171.764818181818    293.096363636364    0.586032             -46.687438221602    -74.0243190502437    
2022-04-22T17:09:08Z    31.6636666666667    -64.1648333333333    1009      -999.609807172493    1e-12          4.085e-14     7.09832272727273    35.3108863636364   27.5345490909091    0.0002                   -0.0177                                   171.933             293.142572727273    0.586512936363636    -46.687438221602    -74.0243190502437    
2022-04-22T17:09:08Z    31.6636666666667    -64.1648333333333    1009.5    -1000.05650465833    1e-12          4.0864e-14    7.09079545454545    35.3107590909091   27.5355045454545    0.000872727272727273     -0.0177                                   172.140636363636    293.193             0.587119836363636    -46.687438221602    -74.0243190502437    
2022-04-22T17:09:08Z    31.6636666666667    -64.1648333333333    1010      -1000.59708640351    1e-12          4.0893e-14    7.08316363636364    35.3107190909091   27.5365290909091    0.00154545454545455      -0.0177                                   172.3675            293.244009090909    0.587791190909091    -46.687438221602    -74.0243190502437    
2022-04-22T17:09:08Z    31.6636666666667    -64.1648333333333    1010.5    -1001.06453530275    1e-12          4.1009e-14    7.07585             35.3106690909091   27.5375018181818    0.00221818181818182      -0.0177                                   172.611             293.292854545454    0.588524             -46.687438221602    -74.0243190502437    
2022-04-22T17:09:08Z    31.6636666666667    -64.1648333333333    1011      -1001.5379127204     1e-12          4.1096e-14    7.06898636363636    35.3106045454545   27.5384063636364    0.00221818181818182      -0.0177                                   172.863             293.338709090909    0.589293336363636    -46.687438221602    -74.0243190502437    
2022-04-22T17:09:08Z    31.6636666666667    -64.1648333333333    1011.5    -1002.06070197893    1e-12          4.1096e-14    7.06277727272727    35.3106336363636   27.5393145454545    0.00221818181818182      -0.0177                                   173.067863636364    293.380063636364    0.589907272727273    -46.687438221602    -74.0243190502437    
2022-04-22T17:09:08Z    31.6636666666667    -64.1648333333333    1012      -1002.52814760761    1e-12          4.1125e-14    7.05772727272727    35.3107009090909   27.5400827272727    0.00221818181818182      -0.0177                                   173.233727272727    293.413745454546    0.590405036363636    -46.687438221602    -74.0243190502437    
2022-04-22T17:09:08Z    31.6636666666667    -64.1648333333333    1012.5    -1003.02276916251    1e-12          4.10815e-14   7.05465909090909    35.3105809090909   27.5404027272727    0.00221818181818182      -0.0177                                   173.401727272727    293.434727272727    0.590936990909091    -46.687438221602    -74.0243190502437    
2022-04-22T17:09:08Z    31.6636666666667    -64.1648333333333    1013      -1003.51837780127    1e-12          4.1067e-14    7.05171363636364    35.3103518181818   27.5406354545455    0.00221818181818182      -0.0177                                   173.592045454545    293.455072727273    0.591544681818182    -46.687438221602    -74.0243190502437    
2022-04-22T17:09:08Z    31.6636666666667    -64.1648333333333    1013.5    -1004.03424436608    1e-12          4.1067e-14    7.04882272727273    35.3102281818182   27.5409481818182    0.00221818181818182      -0.0176090909090909                       173.784136363636    293.474927272727    0.592159327272727    -46.687438221602    -74.0243190502437    
2022-04-22T17:09:08Z    31.6636666666667    -64.1648333333333    1014      -1004.53182709534    1e-12          4.1009e-14    7.04608636363636    35.3101327272727   27.5412572727273    0.00221818181818182      -0.0175181818181818                       173.869681818182    293.493672727273    0.592412745454545    -46.687438221602    -74.0243190502437    
2022-04-22T17:09:08Z    31.6636666666667    -64.1648333333333    1014.5    -1004.97505520447    1e-12          4.0951e-14    7.04365909090909    35.3101127272727   27.5415836363636    0.00155454545454545      -0.0175181818181818                       173.939045454545    293.510154545455    0.592615709090909    -46.687438221602    -74.0243190502437    
2022-04-22T17:09:08Z    31.6636666666667    -64.1648333333333    1015      -1005.49783586653    1e-12          4.0951e-14    7.04205             35.3100736363636   27.5417672727273    0.000881818181818182     -0.0175181818181818                       173.996954545455    293.521327272727    0.592790690909091    -46.687438221602    -74.0243190502437    
2022-04-22T17:09:08Z    31.6636666666667    -64.1648333333333    1015.5    -1005.96823851506    1e-12          4.0893e-14    7.0411              35.3099618181818   27.5418190909091    0.000209090909090909     -0.0175181818181818                       174.058090909091    293.528190909091    0.592985172727273    -46.687438221602    -74.0243190502437    
2022-04-22T17:09:08Z    31.6636666666667    -64.1648333333333    1016      -1006.53054618457    1e-12          4.0836e-14    7.03928181818182    35.3097109090909   27.5418790909091    -0.000463636363636364    -0.0175181818181818                       174.090681818182    293.541181818182    0.593069763636364    -46.687438221602    -74.0243190502437    
2022-04-22T17:09:08Z    31.6636666666667    -64.1648333333333    1016.5    -1007.05233471995    1e-12          4.0864e-14    7.0367              35.3095372727273   27.5421045454545    -0.000463636363636364    -0.0175181818181818                       174.120636363636    293.559036363636    0.593137418181818    -46.687438221602    -74.0243190502437    
2022-04-22T17:09:08Z    31.6636666666667    -64.1648333333333    1017      -1007.51976917635    1e-12          4.0807e-14    7.03319090909091    35.3090590909091   27.5422609090909    -0.000463636363636364    -0.0175181818181818                       174.169227272727    293.583727272727    0.593254936363636    -46.687438221602    -74.0243190502437    
2022-04-22T17:09:08Z    31.6636666666667    -64.1648333333333    1017.5    -1008.08503735459    1e-12          4.0864e-14    7.02741818181818    35.30868           27.5427645454545    -0.000463636363636364    -0.0175181818181818                       174.243045454545    293.6232            0.593431927272727    -46.687438221602    -74.0243190502437    
2022-04-22T17:09:08Z    31.6636666666667    -64.1648333333333    1018      -1008.37063555543    1e-12          4.1038e-14    7.02116818181818    35.3086290909091   27.5436027272727    -0.000463636363636364    -0.0175181818181818                       174.308681818182    293.665090909091    0.593569663636364    -46.687438221602    -74.0243190502437    
2022-04-22T17:09:08Z    31.6636666666667    -64.1648333333333    1018.5    -1008.95912473348    1e-12          4.1096e-14    7.01439545454546    35.3083390909091   27.5443127272727    -0.000463636363636364    -0.0175181818181818                       174.359909090909    293.710954545455    0.593652418181818    -46.687438221602    -74.0243190502437    
2022-04-22T17:09:08Z    31.6636666666667    -64.1648333333333    1019      -1009.43050781803    1e-12          4.1067e-14    7.00619545454545    35.3079363636364   27.5451445454545    -0.000463636363636364    -0.0176090909090909                       174.383090909091    293.766481818182    0.593619327272727    -46.687438221602    -74.0243190502437    
2022-04-22T17:09:08Z    31.6636666666667    -64.1648333333333    1019.5    -1009.92511303566    1e-12          4.1067e-14    6.99626363636364    35.3076381818182   27.54628            -0.000463636363636364    -0.0177                                   174.389636363636    293.833481818182    0.593502872727273    -46.687438221602    -74.0243190502437    
2022-04-22T17:09:08Z    31.6636666666667    -64.1648333333333    1020      -1010.44195200105    1e-12          4.1038e-14    6.98554545454546    35.3075145454545   27.5476472727273    0.0002                   -0.0177                                   174.375181818182    293.905463636364    0.593308718181818    -46.687438221602    -74.0243190502437    
2022-04-22T17:09:08Z    31.6636666666667    -64.1648333333333    1020.5    -1010.93951947079    1e-12          4.09945e-14   6.97411818181818    35.3074327272727   27.5491427272727    0.0002                   -0.0177                                   174.344363636364    293.982             0.593048809090909    -46.687438221602    -74.0243190502437    
2022-04-22T17:09:08Z    31.6636666666667    -64.1648333333333    1021      -1011.48056716518    1e-12          4.1009e-14    6.96206363636364    35.3074136363636   27.5507918181818    0.0002                   -0.0177                                   174.332             294.062481818182    0.592844281818182    -46.687438221602    -74.0243190502437    
2022-04-22T17:09:08Z    31.6636666666667    -64.1648333333333    1021.5    -1011.9297098009     1e-12          4.098e-14     6.95041818181818    35.3075445454545   27.5524927272727    0.0002                   -0.0177                                   174.360409090909    294.139945454545    0.592784209090909    -46.687438221602    -74.0243190502437    
2022-04-22T17:09:08Z    31.6636666666667    -64.1648333333333    1022      -1012.40009797475    1e-12          4.0922e-14    6.93926363636364    35.3076309090909   27.5540927272727    0.0002                   -0.0177                                   174.424363636364    294.214427272727    0.592849772727273    -46.687438221602    -74.0243190502437    
2022-04-22T17:09:08Z    31.6636666666667    -64.1648333333333    1022.5    -1012.91989543883    1e-12          4.0922e-14    6.92893636363636    35.3080109090909   27.5557836363636    0.0002                   -0.0177                                   174.499545454545    294.282690909091    0.592965418181818    -46.687438221602    -74.0243190502437    
2022-04-22T17:09:08Z    31.6636666666667    -64.1648333333333    1023      -1013.36903498367    1e-12          4.0893e-14    6.91996363636364    35.3082281818182   27.5571363636364    0.0002                   -0.0177                                   174.620363636364    294.342527272727    0.5932551            -46.687438221602    -74.0243190502437    
2022-04-22T17:09:08Z    31.6636666666667    -64.1648333333333    1023.5    -1013.88586543096    1e-12          4.0893e-14    6.91068636363636    35.3083745454545   27.5585254545455    0.0002                   -0.0177                                   174.785954545455    294.404427272727    0.593694472727273    -46.687438221602    -74.0243190502437    
2022-04-22T17:09:08Z    31.6636666666667    -64.1648333333333    1024      -1014.35921380137    1e-12          4.0893e-14    6.90216818181818    35.3087354545455   27.5599990909091    0.0002                   -0.0177                                   174.966409090909    294.460754545455    0.594193381818182    -46.687438221602    -74.0243190502437    
2022-04-22T17:09:08Z    31.6636666666667    -64.1648333333333    1024.5    -1014.87604179971    1e-12          4.0922e-14    6.89496818181818    35.3091472727273   27.5612945454545    0.0002                   -0.0177                                   175.220681818182    294.508309090909    0.594961390909091    -46.687438221602    -74.0243190502437    
2022-04-22T17:09:08Z    31.6636666666667    -64.1648333333333    1025      -1015.38002198207    1e-12          4.0893e-14    6.88935454545455    35.3094545454545   27.5623072727273    0.000872727272727273     -0.0177                                   175.492545454545    294.545518181818    0.595813827272727    -46.687438221602    -74.0243190502437    
2022-04-22T17:09:08Z    31.6636666666667    -64.1648333333333    1025.5    -1015.86621347673    1e-12          4.0951e-14    6.88394545454546    35.3095790909091   27.5631454545455    0.00154545454545455      -0.0177                                   175.784636363636    294.581654545455    0.596733781818182    -46.687438221602    -74.0243190502437    
2022-04-22T17:09:08Z    31.6636666666667    -64.1648333333333    1026      -1016.37612041433    1e-12          4.0922e-14    6.87780909090909    35.3095463636364   27.5639981818182    0.00221818181818182      -0.0177                                   176.112590909091    294.622981818182    0.597766063636364    -46.687438221602    -74.0243190502437    
2022-04-22T17:09:08Z    31.6636666666667    -64.1648333333333    1026.5    -1016.85638046215    1e-12          4.098e-14     6.8701              35.3095227272727   27.5650163636364    0.00221818181818182      -0.0177                                   176.454954545455    294.674990909091    0.598819354545454    -46.687438221602    -74.0243190502437    
2022-04-22T17:09:08Z    31.6636666666667    -64.1648333333333    1027      -1017.3722140989     1e-12          4.098e-14     6.86237727272727    35.3095254545455   27.5660754545455    0.00155454545454545      -0.0177                                   176.784954545455    294.726981818182    0.599833863636364    -46.687438221602    -74.0243190502437    
2022-04-22T17:09:08Z    31.6636666666667    -64.1648333333333    1027.5    -1017.84654275613    1e-12          4.1009e-14    6.85399545454545    35.3094063636364   27.5671318181818    0.000890909090909091     -0.0177                                   177.064136363636    294.783490909091    0.600665627272727    -46.687438221602    -74.0243190502437    
2022-04-22T17:09:08Z    31.6636666666667    -64.1648333333333    1028      -1018.33223441971    1e-12          4.1038e-14    6.84546818181818    35.3093672727273   27.56825            0.000890909090909091     -0.0177                                   177.329772727273    294.840909090909    0.601449763636364    -46.687438221602    -74.0243190502437    
2022-04-22T17:09:08Z    31.6636666666667    -64.1648333333333    1028.5    -1018.85201713063    1e-12          4.1038e-14    6.83784090909091    35.3093772727273   27.56935            0.000890909090909091     -0.0177                                   177.537863636364    294.891981818182    0.602045781818182    -46.687438221602    -74.0243190502437    
2022-04-22T17:09:08Z    31.6636666666667    -64.1648333333333    1029      -1019.35351728411    1e-12          4.1038e-14    6.83101363636364    35.3093118181818   27.5702354545455    0.000890909090909091     -0.0177                                   177.696727272727    294.938081818182    0.602490681818182    -46.687438221602    -74.0243190502437    
2022-04-22T17:09:08Z    31.6636666666667    -64.1648333333333    1029.5    -1019.84216996752    1e-12          4.1009e-14    6.82429545454545    35.3092790909091   27.5711145454545    0.000227272727272727     -0.0177                                   177.884727272727    294.983472727273    0.603035972727273    -46.687438221602    -74.0243190502437    
2022-04-22T17:09:08Z    31.6636666666667    -64.1648333333333    1030      -1020.32489248257    1e-12          4.1009e-14    6.81773181818182    35.3092636363636   27.5719954545455    -0.000436363636363637    -0.0177                                   178.033363636364    295.027781818182    0.603448909090909    -46.687438221602    -74.0243190502437    
2022-04-22T17:09:08Z    31.6636666666667    -64.1648333333333    1030.5    -1020.78389780821    1e-12          4.0951e-14    6.81123181818182    35.3092481818182   27.5728718181818    -0.00177272727272727     -0.0177                                   178.188954545455    295.071554545455    0.603886009090909    -46.687438221602    -74.0243190502437    
2022-04-22T17:09:08Z    31.6636666666667    -64.1648333333333    1031      -1021.2429021269     1e-12          4.0951e-14    6.80522272727273    35.3092490909091   27.5737063636364    -0.00244545454545455     -0.0177                                   178.345136363636    295.111972727273    0.604329881818182    -46.687438221602    -74.0243190502437    
2022-04-22T17:09:08Z    31.6636666666667    -64.1648333333333    1031.5    -1021.80813318534    1e-12          4.0922e-14    6.80045             35.3093581818182   27.5744327272727    -0.00311818181818182     -0.0177                                   178.495090909091    295.144009090909    0.604770209090909    -46.687438221602    -74.0243190502437    
2022-04-22T17:09:08Z    31.6636666666667    -64.1648333333333    1032      -1022.32395460046    1e-12          4.0893e-14    6.79732272727273    35.3094109090909   27.5749145454545    -0.00378181818181818     -0.0177                                   178.635409090909    295.165172727273    0.605204954545455    -46.687438221602    -74.0243190502437    
2022-04-22T17:09:08Z    31.6636666666667    -64.1648333333333    1032.5    -1022.83483393943    1e-12          4.0893e-14    6.79457272727273    35.3094118181818   27.5752981818182    -0.00378181818181818     -0.0177                                   178.759318181818    295.184             0.605585318181818    -46.687438221602    -74.0243190502437    
2022-04-22T17:09:08Z    31.6636666666667    -64.1648333333333    1033      -1023.3140909911     1e-12          4.0836e-14    6.79248636363636    35.3095318181818   27.5756772727273    -0.00345                 -0.0177                                   178.923636363636    295.1981            0.606112418181818    -46.687438221602    -74.0243190502437    
2022-04-22T17:09:08Z    31.6636666666667    -64.1648333333333    1033.5    -1023.78840616326    1e-12          4.0864e-14    6.79033181818182    35.3095754545455   27.5760072727273    -0.00345                 -0.0177                                   179.110136363636    295.212781818182    0.606713772727273    -46.687438221602    -74.0243190502437    
2022-04-22T17:09:08Z    31.6636666666667    -64.1648333333333    1034      -1024.31113976246    1e-12          4.0864e-14    6.78781363636364    35.3096272727273   27.5763954545455    -0.00345                 -0.0177                                   179.310863636364    295.229909090909    0.607358727272727    -46.687438221602    -74.0243190502437    
2022-04-22T17:09:08Z    31.6636666666667    -64.1648333333333    1034.5    -1024.76074890123    1e-12          4.0951e-14    6.78507727272727    35.3096281818182   27.5767772727273    -0.00345                 -0.0177                                   179.553090909091    295.248581818182    0.608140281818182    -46.687438221602    -74.0243190502437    
2022-04-22T17:09:08Z    31.6636666666667    -64.1648333333333    1035      -1025.22913189856    1e-12          4.1038e-14    6.78220454545455    35.3096163636364   27.5771581818182    -0.00278636363636364     -0.0177                                   179.759             295.2682            0.608796845454545    -46.687438221602    -74.0243190502437    
2022-04-22T17:09:08Z    31.6636666666667    -64.1648333333333    1035.5    -1025.7335811887     1e-12          4.1125e-14    6.77935909090909    35.3095545454545   27.5775027272727    -0.00212272727272727     -0.0177                                   179.949181818182    295.287809090909    0.609399927272727    -46.687438221602    -74.0243190502437    
2022-04-22T17:09:08Z    31.6636666666667    -64.1648333333333    1036      -1026.21974859766    1e-12          4.1125e-14    6.77648636363636    35.3095263636364   27.5778790909091    -0.000786363636363637    -0.0177                                   180.101909090909    295.307463636364    0.609876909090909    -46.687438221602    -74.0243190502437    
2022-04-22T17:09:08Z    31.6636666666667    -64.1648333333333    1036.5    -1026.71826664912    1e-12          4.1038e-14    6.77358636363636    35.3095045454546   27.5782654545455    -0.000113636363636364    -0.0177                                   180.220272727273    295.327372727273    0.610238009090909    -46.687438221602    -74.0243190502437    
2022-04-22T17:09:08Z    31.6636666666667    -64.1648333333333    1037      -1027.222218273      1e-12          4.1009e-14    6.77075             35.3094890909091   27.5786445454545    0.000559090909090908     -0.0177                                   180.302454545455    295.346790909091    0.610475318181818    -46.687438221602    -74.0243190502437    
2022-04-22T17:09:08Z    31.6636666666667    -64.1648333333333    1037.5    -1027.75087210863    1e-12          4.0893e-14    6.76795             35.3094463636364   27.5789972727273    0.00189545454545455      -0.0176090909090909                       180.353681818182    295.365954545454    0.610608418181818    -46.687438221602    -74.0243190502437    
2022-04-22T17:09:08Z    31.6636666666667    -64.1648333333333    1038      -1028.20047384864    1e-12          4.0893e-14    6.76460454545455    35.3094336363636   27.5794463636364    0.00323181818181818      -0.0175181818181818                       180.409954545455    295.388709090909    0.610752445454545    -46.687438221602    -74.0243190502437    
2022-04-22T17:09:08Z    31.6636666666667    -64.1648333333333    1038.5    -1028.71726762111    1e-12          4.0893e-14    6.76122272727273    35.3094481818182   27.5799263636364    0.00423636363636364      -0.0174727272727273                       180.464181818182    295.411763636364    0.610888945454545    -46.687438221602    -74.0243190502437    
2022-04-22T17:09:08Z    31.6636666666667    -64.1648333333333    1039      -1029.20293401785    1e-12          4.0836e-14    6.75759545454545    35.3094618181818   27.5804345454545    0.00490909090909091      -0.0174727272727273                       180.514045454545    295.436427272727    0.611006990909091    -46.687438221602    -74.0243190502437    
2022-04-22T17:09:08Z    31.6636666666667    -64.1648333333333    1039.5    -1029.70737372736    1e-12          4.0836e-14    6.75416363636363    35.3095445454545   27.5809818181818    0.00424545454545455      -0.0174727272727273                       180.576727272727    295.459554545455    0.611171254545455    -46.687438221602    -74.0243190502437    
2022-04-22T17:09:08Z    31.6636666666667    -64.1648333333333    1040      -1030.18167439236    1e-12          4.0836e-14    6.75116363636364    35.3095118181818   27.5813563636364    0.00424545454545455      -0.0174727272727273                       180.632318181818    295.480327272727    0.611317718181818    -46.687438221602    -74.0243190502437    
2022-04-22T17:09:08Z    31.6636666666667    -64.1648333333333    1040.5    -1030.67968893241    1e-12          4.0836e-14    6.74758181818182    35.3094954545455   27.5818454545455    0.00424545454545455      -0.0174727272727273                       180.705090909091    295.504745454545    0.611514072727273    -46.687438221602    -74.0243190502437    
2022-04-22T17:09:08Z    31.6636666666667    -64.1648333333333    1041      -1031.19647657014    1e-12          4.0836e-14    6.74335909090909    35.3095190909091   27.5824454545455    0.00424545454545455      -0.0174727272727273                       180.795             295.533363636364    0.611759581818182    -46.687438221602    -74.0243190502437    
2022-04-22T17:09:08Z    31.6636666666667    -64.1648333333333    1041.5    -1031.68263127732    1e-12          4.0893e-14    6.73896818181818    35.3096209090909   27.5831218181818    0.00357272727272727      -0.0174727272727273                       180.895090909091    295.563081818182    0.612037236363636    -46.687438221602    -74.0243190502437    
2022-04-22T17:09:08Z    31.6636666666667    -64.1648333333333    1042      -1032.28439437974    1e-12          4.1125e-14    6.73463181818182    35.3097463636364   27.58381            0.0029                   -0.0174727272727273                       180.994272727273    295.592290909091    0.612312481818182    -46.687438221602    -74.0243190502437    
2022-04-22T17:09:08Z    31.6636666666667    -64.1648333333333    1042.5    -1032.62183549078    1e-12          4.1271e-14    6.73038636363636    35.3098827272727   27.5844909090909    0.00222727272727273      -0.0174727272727273                       181.094681818182    295.620827272727    0.612594127272727    -46.687438221602    -74.0243190502437    
2022-04-22T17:09:08Z    31.6636666666667    -64.1648333333333    1043      -1033.16579139154    1e-12          4.1198e-14    6.72641363636364    35.3100618181818   27.5851709090909    0.00222727272727273      -0.0175636363636364                       181.183681818182    295.647518181818    0.612840927272727    -46.687438221602    -74.0243190502437    
2022-04-22T17:09:08Z    31.6636666666667    -64.1648333333333    1043.5    -1033.66132855076    1e-12          4.1154e-14    6.72309090909091    35.3101981818182   27.5857309090909    0.00222727272727273      -0.0176545454545455                       181.261227272727    295.669872727273    0.613057127272727    -46.687438221602    -74.0243190502437    
2022-04-22T17:09:08Z    31.6636666666667    -64.1648333333333    1044      -1034.1440191509     1e-12          4.1096e-14    6.71996818181818    35.3103036363636   27.5862318181818    0.00222727272727273      -0.0177                                   181.320636363636    295.690936363636    0.613214218181818    -46.687438221602    -74.0243190502437    
2022-04-22T17:09:08Z    31.6636666666667    -64.1648333333333    1044.5    -1034.69142945502    1e-12          4.1009e-14    6.71675909090909    35.3102272727273   27.5865663636364    0.000227272727272727     -0.0177                                   181.369181818182    295.713136363636    0.613329136363637    -46.687438221602    -74.0243190502437    
2022-04-22T17:09:08Z    31.6636666666667    -64.1648333333333    1045      -1035.12570068133    1e-12          4.0951e-14    6.71302727272727    35.31023           27.5870627272727    -0.000436363636363636    -0.0177                                   181.423318181818    295.738663636364    0.613459836363636    -46.687438221602    -74.0243190502437    
2022-04-22T17:09:08Z    31.6636666666667    -64.1648333333333    1045.5    -1035.63309039719    1e-12          4.0922e-14    6.70892272727273    35.3103945454545   27.5877563636364    -0.00176363636363636     -0.0177                                   181.457318181818    295.766081818182    0.613516336363636    -46.687438221602    -74.0243190502437    
2022-04-22T17:09:08Z    31.6636666666667    -64.1648333333333    1046      -1036.11676453393    1e-12          4.09075e-14   6.70562727272727    35.3105227272727   27.58831            -0.00176363636363636     -0.0177                                   181.516136363636    295.788327272727    0.613666990909091    -46.687438221602    -74.0243190502437    
2022-04-22T17:09:08Z    31.6636666666667    -64.1648333333333    1046.5    -1036.62069350108    1e-12          4.0836e-14    6.70373181818182    35.3105136363636   27.5885681818182    -0.00109090909090909     -0.0177                                   181.592590909091    295.801336363636    0.613897827272727    -46.687438221602    -74.0243190502437    
2022-04-22T17:09:08Z    31.6636666666667    -64.1648333333333    1047      -1037.09744872473    1e-12          4.0864e-14    6.70021363636364    35.3102045454545   27.5888             -0.00109090909090909     -0.0177                                   181.7085            295.825927272727    0.614233136363636    -46.687438221602    -74.0243190502437    
2022-04-22T17:09:08Z    31.6636666666667    -64.1648333333333    1047.5    -1037.62657162303    1e-12          4.0864e-14    6.69623636363636    35.3101290909091   27.5892554545454    -0.00109090909090909     -0.0177                                   181.839409090909    295.853090909091    0.614621218181818    -46.687438221602    -74.0243190502437    
2022-04-22T17:09:08Z    31.6636666666667    -64.1648333333333    1048      -1038.17051450922    1e-12          4.0836e-14    6.69195909090909    35.3099027272727   27.5896563636364    -0.00109090909090909     -0.0177                                   181.960409090909    295.882909090909    0.614971463636364    -46.687438221602    -74.0243190502437    
2022-04-22T17:09:08Z    31.6636666666667    -64.1648333333333    1048.5    -1038.76929468085    1e-12          4.1038e-14    6.6867              35.3097681818182   27.5902609090909    -0.00176363636363636     -0.0177                                   182.104090909091    295.918954545455    0.6153838            -46.687438221602    -74.0243190502437    
2022-04-22T17:09:08Z    31.6636666666667    -64.1648333333333    1049      -1039.02520845387    1e-12          4.1242e-14    6.68101363636364    35.3096045454545   27.5909054545455    -0.00243636363636364     -0.0177                                   182.248818181818    295.957936363636    0.615794409090909    -46.687438221602    -74.0243190502437    
2022-04-22T17:09:08Z    31.6636666666667    -64.1648333333333    1049.5    -1039.61509345281    1e-12          4.1213e-14    6.67494090909091    35.3094554545454   27.5916054545455    -0.00310909090909091     -0.0177                                   182.381590909091    295.9995            0.616156754545455    -46.687438221602    -74.0243190502437    
2022-04-22T17:09:08Z    31.6636666666667    -64.1648333333333    1050      -1040.06466967695    1e-12          4.11395e-14   6.66921363636364    35.3094627272727   27.5924245454545    -0.00244545454545455     -0.0177                                   182.526863636364    296.038336363636    0.616569609090909    -46.687438221602    -74.0243190502437    
2022-04-22T17:09:08Z    31.6636666666667    -64.1648333333333    1050.5    -1040.59921949295    1e-12          4.1067e-14    6.66395             35.3092618181818   27.5929836363636    -0.00178181818181818     -0.0177                                   182.660681818182    296.074563636364    0.616944109090909    -46.687438221602    -74.0243190502437    
2022-04-22T17:09:08Z    31.6636666666667    -64.1648333333333    1051      -1041.10363169567    1e-12          4.09945e-14   6.65881818181818    35.3090581818182   27.5935145454545    -0.00111818181818182     -0.0177                                   182.784772727273    296.109909090909    0.617289109090909    -46.687438221602    -74.0243190502437    
2022-04-22T17:09:08Z    31.6636666666667    -64.1648333333333    1051.5    -1041.55369875785    1e-12          4.0922e-14    6.65346818181818    35.3088363636364   27.5940418181818    -0.00178181818181818     -0.0177                                   182.876272727273    296.146918181818    0.6175222            -46.687438221602    -74.0243190502437    
2022-04-22T17:09:08Z    31.6636666666667    -64.1648333333333    1052      -1042.08873879944    1e-12          4.0893e-14    6.64717727272727    35.3087381818182   27.5948063636364    -0.00311818181818182     -0.0177                                   182.926727272727    296.189909090909    0.617604081818182    -46.687438221602    -74.0243190502437    
2022-04-22T17:09:08Z    31.6636666666667    -64.1648333333333    1052.5    -1042.5872190113     1e-12          4.0864e-14    6.64262272727273    35.3088081818182   27.5954781818182    -0.00311818181818182     -0.0177                                   182.982636363636    296.220727272727    0.617733163636364    -46.687438221602    -74.0243190502437    
2022-04-22T17:09:08Z    31.6636666666667    -64.1648333333333    1053      -1043.06099641986    1e-12          4.0864e-14    6.63821818181818    35.3086890909091   27.5960163636364    -0.00311818181818182     -0.0177                                   183.060909090909    296.250990909091    0.617932018181818    -46.687438221602    -74.0243190502437    
2022-04-22T17:09:08Z    31.6636666666667    -64.1648333333333    1053.5    -1043.57725943481    1e-12          4.0864e-14    6.63301363636363    35.30856           27.5966163636364    -0.00311818181818182     -0.0177                                   183.1995            296.2865            0.618322690909091    -46.687438221602    -74.0243190502437    
2022-04-22T17:09:08Z    31.6636666666667    -64.1648333333333    1054      -1044.10093161566    1e-12          4.0864e-14    6.62822727272727    35.3082663636364   27.5970227272727    -0.00311818181818182     -0.0177                                   183.309363636364    296.319736363636    0.618623890909091    -46.687438221602    -74.0243190502437    
2022-04-22T17:09:08Z    31.6636666666667    -64.1648333333333    1054.5    -1044.57421157163    1e-12          4.0893e-14    6.62245             35.3080009090909   27.5976218181818    -0.00311818181818182     -0.0177                                   183.429             296.3595            0.618943845454545    -46.687438221602    -74.0243190502437    
2022-04-22T17:09:08Z    31.6636666666667    -64.1648333333333    1055      -1044.99413547913    1e-12          4.1009e-14    6.61577727272727    35.3076645454545   27.5982327272727    -0.00378181818181818     -0.0177                                   183.567181818182    296.405563636364    0.6193167            -46.687438221602    -74.0243190502437    
2022-04-22T17:09:08Z    31.6636666666667    -64.1648333333333    1055.5    -1045.51088773775    1e-12          4.1096e-14    6.6089              35.3073654545455   27.5989227272727    -0.00378181818181818     -0.0177                                   183.703272727273    296.452936363636    0.619677154545455    -46.687438221602    -74.0243190502437    
2022-04-22T17:09:08Z    31.6636666666667    -64.1648333333333    1056      -1046.03356703019    1e-12          4.1183e-14    6.60194545454545    35.3069181818182   27.59961            -0.00378181818181818     -0.0177                                   183.847272727273    296.501209090909    0.620055109090909    -46.687438221602    -74.0243190502437    
2022-04-22T17:09:08Z    31.6636666666667    -64.1648333333333    1056.5    -1046.4836234787     1e-12          4.1154e-14    6.59331363636364    35.3063818181818   27.60032            -0.00311818181818182     -0.0177                                   184.005545454545    296.561054545455    0.620462590909091    -46.687438221602    -74.0243190502437    
2022-04-22T17:09:08Z    31.6636666666667    -64.1648333333333    1057      -1047.00333619854    1e-12          4.1154e-14    6.58448636363636    35.3058918181818   27.6011154545455    -0.00245454545454546     -0.0178                                   184.159818181818    296.621990909091    0.620854836363636    -46.687438221602    -74.0243190502437    
2022-04-22T17:09:08Z    31.6636666666667    -64.1648333333333    1057.5    -1047.45042643149    1e-12          4.1096e-14    6.57566818181818    35.3053363636364   27.6018418181818    -0.00179090909090909     -0.0178                                   184.316727272727    296.683118181818    0.621255109090909    -46.687438221602    -74.0243190502437    
2022-04-22T17:09:08Z    31.6636666666667    -64.1648333333333    1058      -1047.99434375519    1e-12          4.10525e-14   6.56642272727273    35.3047654545455   27.60262            -0.00179090909090909     -0.0178                                   184.459818181818    296.747209090909    0.621603236363636    -46.687438221602    -74.0243190502437    
2022-04-22T17:09:08Z    31.6636666666667    -64.1648333333333    1058.5    -1048.48885773475    1e-12          4.0951e-14    6.55695909090909    35.3040045454545   27.6032727272727    -0.00179090909090909     -0.0178                                   184.608363636364    296.813572727273    0.6219646            -46.687438221602    -74.0243190502437    
2022-04-22T17:09:08Z    31.6636666666667    -64.1648333333333    1059      -1048.93890889917    1e-12          4.0922e-14    6.54774090909091    35.3034763636364   27.6040872727273    -0.00179090909090909     -0.0179                                   184.766636363636    296.877354545454    0.622363254545455    -46.687438221602    -74.0243190502437    
2022-04-22T17:09:08Z    31.6636666666667    -64.1648333333333    1059.5    -1049.43144457689    1e-12          4.0836e-14    6.53887727272727    35.3030072727273   27.6049063636364    -0.00179090909090909     -0.0179                                   184.961454545455    296.938736363636    0.622888563636363    -46.687438221602    -74.0243190502437    
2022-04-22T17:09:08Z    31.6636666666667    -64.1648333333333    1060      -1049.95411406608    1e-12          4.0864e-14    6.53152727272727    35.3025736363636   27.6055118181818    -0.00179090909090909     -0.0179                                   185.181909090909    296.989863636364    0.623521545454545    -46.687438221602    -74.0243190502437    
2022-04-22T17:09:08Z    31.6636666666667    -64.1648333333333    1060.5    -1050.47085407278    1e-12          4.0836e-14    6.52566363636364    35.3022081818182   27.6060327272727    -0.00112727272727273     -0.0179                                   185.417863636364    297.030781818182    0.624226963636364    -46.687438221602    -74.0243190502437    
2022-04-22T17:09:08Z    31.6636666666667    -64.1648333333333    1061      -1050.94510763979    1e-12          4.0893e-14    6.52042272727273    35.3018218181818   27.6064290909091    -0.000463636363636364    -0.0179                                   185.668318181818    297.067427272727    0.624993272727273    -46.687438221602    -74.0243190502437    
2022-04-22T17:09:08Z    31.6636666666667    -64.1648333333333    1061.5    -1051.46184519791    1e-12          4.0922e-14    6.51552272727273    35.3016754545455   27.6068536363636    0.0002                   -0.018                                    185.925045454545    297.101272727273    0.625794609090909    -46.687438221602    -74.0243190502437    
2022-04-22T17:09:08Z    31.6636666666667    -64.1648333333333    1062      -1051.96030306524    1e-12          4.1009e-14    6.51256363636364    35.3015754545455   27.6071945454545    0.0002                   -0.018                                    186.160863636364    297.121818181818    0.626546090909091    -46.687438221602    -74.0243190502437    
2022-04-22T17:09:08Z    31.6636666666667    -64.1648333333333    1062.5    -1052.45283162732    1e-12          4.10525e-14   6.51003636363636    35.3014372727273   27.60743            0.0002                   -0.0179                                   186.382681818182    297.139609090909    0.6272555            -46.687438221602    -74.0243190502437    
2022-04-22T17:09:08Z    31.6636666666667    -64.1648333333333    1063      -1052.95128713279    1e-12          4.1154e-14    6.50775454545454    35.3013809090909   27.6077054545455    0.0002                   -0.0179                                   186.611318181818    297.155618181818    0.627991563636364    -46.687438221602    -74.0243190502437    
2022-04-22T17:09:08Z    31.6636666666667    -64.1648333333333    1063.5    -1053.4497414531     1e-12          4.1213e-14    6.50609090909091    35.3013645454545   27.6079181818182    0.0002                   -0.0179                                   186.8415            297.167281818182    0.628741681818182    -46.687438221602    -74.0243190502437    
2022-04-22T17:09:08Z    31.6636666666667    -64.1648333333333    1064      -1053.91756617442    1e-12          4.1183e-14    6.50506363636364    35.3014936363636   27.6081536363636    0.0002                   -0.0179                                   187.048136363636    297.174045454545    0.629422681818182    -46.687438221602    -74.0243190502437    
2022-04-22T17:09:08Z    31.6636666666667    -64.1648333333333    1064.5    -1054.44071846339    1e-12          4.1125e-14    6.50485909090909    35.3015490909091   27.6082281818182    0.0002                   -0.0178                                   187.193181818182    297.1757            0.629907481818182    -46.687438221602    -74.0243190502437    
2022-04-22T17:09:08Z    31.6636666666667    -64.1648333333333    1065      -1054.90903497806    1e-12          4.1038e-14    6.50491363636364    35.3016927272727   27.6083327272727    0.0002                   -0.0178                                   187.300272727273    297.175281818182    0.630268618181818    -46.687438221602    -74.0243190502437    
2022-04-22T17:09:08Z    31.6636666666667    -64.1648333333333    1065.5    -1055.4316907784     1e-12          4.098e-14     6.50493181818182    35.30181           27.6084227272727    0.0002                   -0.0178                                   187.389818181818    297.175309090909    0.630569954545455    -46.687438221602    -74.0243190502437    
2022-04-22T17:09:08Z    31.6636666666667    -64.1648333333333    1066      -1055.85653290524    1e-12          4.0922e-14    6.50467272727273    35.3019445454545   27.6085636363636    0.0002                   -0.0178                                   187.453272727273    297.177118181818    0.630781009090909    -46.687438221602    -74.0243190502437    
2022-04-22T17:09:08Z    31.6636666666667    -64.1648333333333    1066.5    -1056.42265839827    1e-12          4.0864e-14    6.50418181818182    35.3020545454545   27.6087181818182    0.0002                   -0.0179                                   187.454181818182    297.180636363636    0.630774509090909    -46.687438221602    -74.0243190502437    
2022-04-22T17:09:08Z    31.6636666666667    -64.1648333333333    1067      -1056.8959104705     1e-12          4.0864e-14    6.50254090909091    35.3019172727273   27.6088463636364    0.0002                   -0.0178                                   187.442545454545    297.192263636364    0.630693527272727    -46.687438221602    -74.0243190502437    
2022-04-22T17:09:08Z    31.6636666666667    -64.1648333333333    1067.5    -1057.41263332654    1e-12          4.0836e-14    6.49808636363636    35.3017463636364   27.6092881818182    0.0002                   -0.0178                                   187.447727272727    297.223272727273    0.630645509090909    -46.687438221602    -74.0243190502437    
2022-04-22T17:09:08Z    31.6636666666667    -64.1648333333333    1068      -1057.88687115324    1e-12          4.0893e-14    6.49279545454545    35.30168           27.6099354545455    0.000872727272727273     -0.0179                                   187.446045454545    297.259627272727    0.630562936363636    -46.687438221602    -74.0243190502437    
2022-04-22T17:09:08Z    31.6636666666667    -64.1648333333333    1068.5    -1058.40457955315    1e-12          4.08785e-14   6.48735909090909    35.3015736363636   27.6105709090909    0.00154545454545455      -0.0179                                   187.439409090909    297.297090909091    0.630461736363636    -46.687438221602    -74.0243190502437    
2022-04-22T17:09:08Z    31.6636666666667    -64.1648333333333    1069      -1058.82941564169    1e-12          4.098e-14     6.48179545454545    35.3014236363636   27.6111990909091    0.00154545454545455      -0.0179                                   187.415318181818    297.335545454545    0.630299209090909    -46.687438221602    -74.0243190502437    
2022-04-22T17:09:08Z    31.6636666666667    -64.1648333333333    1069.5    -1059.32884393864    1e-12          4.1154e-14    6.476               35.3011418181818   27.6117554545455    0.00154545454545455      -0.0179                                   187.401227272727    297.375836363636    0.6301684            -46.687438221602    -74.0243190502437    
2022-04-22T17:09:08Z    31.6636666666667    -64.1648333333333    1070      -1059.82135514957    1e-12          4.1213e-14    6.46958181818182    35.3008090909091   27.6123236363636    0.00154545454545455      -0.0179                                   187.408             297.420581818182    0.630095690909091    -46.687438221602    -74.0243190502437    
2022-04-22T17:09:08Z    31.6636666666667    -64.1648333333333    1070.5    -1060.34103472221    1e-12          4.1271e-14    6.46261818181818    35.3003754545455   27.6128909090909    0.00154545454545454      -0.0179                                   187.434636363636    297.469172727273    0.630082390909091    -46.687438221602    -74.0243190502437    
2022-04-22T17:09:08Z    31.6636666666667    -64.1648333333333    1071      -1060.81230197305    1e-12          4.1213e-14    6.45475454545455    35.2997627272727   27.6134327272727    0.00154545454545454      -0.0179                                   187.477272727273    297.524309090909    0.6301035            -46.687438221602    -74.0243190502437    
2022-04-22T17:09:08Z    31.6636666666667    -64.1648333333333    1071.5    -1061.33494302299    1e-12          4.1213e-14    6.44643181818182    35.2992890909091   27.6141572727273    0.00154545454545454      -0.0179                                   187.540227272727    297.5821            0.630190409090909    -46.687438221602    -74.0243190502437    
2022-04-22T17:09:08Z    31.6636666666667    -64.1648333333333    1072      -1061.85165490785    1e-12          4.11105e-14   6.43798636363636    35.2988418181818   27.6149190909091    0.00154545454545454      -0.0178                                   187.643590909091    297.640636363636    0.6304156            -46.687438221602    -74.0243190502437    
2022-04-22T17:09:08Z    31.6636666666667    -64.1648333333333    1072.5    -1062.32588267069    1e-12          4.1096e-14    6.43028181818182    35.2984854545454   27.6156645454545    0.00154545454545454      -0.0178                                   187.751863636364    297.6943            0.630681381818182    -46.687438221602    -74.0243190502437    
2022-04-22T17:09:08Z    31.6636666666667    -64.1648333333333    1073      -1062.80010936407    1e-12          4.1067e-14    6.42451818181818    35.2980109090909   27.6160290909091    0.00154545454545454      -0.0178                                   187.848863636364    297.734990909091    0.630919027272727    -46.687438221602    -74.0243190502437    
2022-04-22T17:09:08Z    31.6636666666667    -64.1648333333333    1073.5    -1063.26840716327    1e-12          4.098e-14     6.41907727272727    35.2976009090909   27.6164254545454    0.000872727272727273     -0.0177                                   187.951181818182    297.773318181818    0.631180554545455    -46.687438221602    -74.0243190502437    
2022-04-22T17:09:08Z    31.6636666666667    -64.1648333333333    1074      -1063.79104207685    1e-12          4.0922e-14    6.41353181818182    35.2972418181818   27.6168809090909    0.0002                   -0.0177                                   188.058954545455    297.812118181818    0.631460018181818    -46.687438221602    -74.0243190502437    
2022-04-22T17:09:08Z    31.6636666666667    -64.1648333333333    1074.5    -1064.30774790065    1e-12          4.0922e-14    6.40912272727273    35.2969245454546   27.6172190909091    0.0002                   -0.0177                                   188.233             297.843172727273    0.631982209090909    -46.687438221602    -74.0243190502437    
2022-04-22T17:09:08Z    31.6636666666667    -64.1648333333333    1075      -1064.78197009571    1e-12          4.0893e-14    6.40411363636364    35.2967363636364   27.6177372727273    0.0002                   -0.0177                                   188.353727272727    297.877809090909    0.632313190909091    -46.687438221602    -74.0243190502437    
2022-04-22T17:09:08Z    31.6636666666667    -64.1648333333333    1075.5    -1065.30460122799    1e-12          4.0864e-14    6.39998181818182    35.2963990909091   27.6180381818182    0.0002                   -0.0177                                   188.600272727273    297.906927272727    0.633081845454545    -46.687438221602    -74.0243190502437    
2022-04-22T17:09:08Z    31.6636666666667    -64.1648333333333    1076      -1065.81883341619    1e-12          4.0864e-14    6.39550454545455    35.2961018181818   27.6184172727273    0.0002                   -0.0177                                   188.864090909091    297.938454545455    0.6339023            -46.687438221602    -74.0243190502437    
2022-04-22T17:09:08Z    31.6636666666667    -64.1648333333333    1076.5    -1066.29305219092    1e-12          4.0864e-14    6.39160454545454    35.2960181818182   27.61888            0.0002                   -0.0177                                   189.104363636364    297.965536363636    0.634655190909091    -46.687438221602    -74.0243190502437    
2022-04-22T17:09:08Z    31.6636666666667    -64.1648333333333    1077      -1066.7223180462     1e-12          4.1038e-14    6.38804090909091    35.2957681818182   27.6191590909091    0.0002                   -0.0178                                   189.305181818182    297.9908            0.635274981818182    -46.687438221602    -74.0243190502437    
2022-04-22T17:09:08Z    31.6636666666667    -64.1648333333333    1077.5    -1067.07155900599    1e-12          4.0922e-14    6.38412272727273    35.2952336363636   27.6192745454545    0.0002                   -0.0179                                   189.491181818182    298.0191            0.635832563636364    -46.687438221602    -74.0243190502437    
2022-04-22T17:09:08Z    31.6636666666667    -64.1648333333333    1078      -1067.78041262867    1e-12          4.1009e-14    6.37956818181818    35.2949863636364   27.6196718181818    0.0002                   -0.018                                    189.603272727273    298.050954545455    0.636142081818182    -46.687438221602    -74.0243190502437    
2022-04-22T17:09:08Z    31.6636666666667    -64.1648333333333    1078.5    -1068.27586777324    1e-12          4.1009e-14    6.37540909090909    35.2947636363636   27.6200836363636    0.0002                   -0.0181                                   189.7275            298.079981818182    0.636500281818182    -46.687438221602    -74.0243190502437    
2022-04-22T17:09:08Z    31.6636666666667    -64.1648333333333    1079      -1068.74761112104    1e-12          4.1038e-14    6.37025454545455    35.2941072727273   27.6201954545455    0.0002                   -0.0182                                   189.858272727273    298.117081818182    0.636864418181818    -46.687438221602    -74.0243190502437    
2022-04-22T17:09:08Z    31.6636666666667    -64.1648333333333    1079.5    -1069.26430470314    1e-12          4.1009e-14    6.36502272727273    35.2939381818182   27.6207481818182    0.0002                   -0.0182                                   189.972409090909    298.153563636364    0.637169154545454    -46.687438221602    -74.0243190502437    
2022-04-22T17:09:08Z    31.6636666666667    -64.1648333333333    1080      -1069.73851566315    1e-12          4.098e-14     6.35884545454546    35.2937590909091   27.6214118181818    0.0002                   -0.0182                                   190.038636363636    298.196427272727    0.637296581818182    -46.687438221602    -74.0243190502437    
2022-04-22T17:09:08Z    31.6636666666667    -64.1648333333333    1080.5    -1070.21865316511    1e-12          4.1038e-14    6.35327272727273    35.2935281818182   27.6219509090909    0.0002                   -0.0182                                   190.1565            298.235472727273    0.6376074            -46.687438221602    -74.0243190502437    
2022-04-22T17:09:08Z    31.6636666666667    -64.1648333333333    1081      -1070.70817493479    1e-12          4.1038e-14    6.34703636363636    35.2933963636364   27.6226709090909    0.0002                   -0.0183                                   190.161318181818    298.278681818182    0.6375271            -46.687438221602    -74.0243190502437    
2022-04-22T17:09:08Z    31.6636666666667    -64.1648333333333    1081.5    -1071.20658694588    1e-12          4.1009e-14    6.34118636363636    35.29322           27.6232981818182    0.0002                   -0.0184                                   190.197136363636    298.319281818182    0.637556154545455    -46.687438221602    -74.0243190502437    
2022-04-22T17:09:08Z    31.6636666666667    -64.1648333333333    1082      -1071.69907019155    1e-12          4.1038e-14    6.33463636363636    35.2929063636364   27.6239109090909    0.0002                   -0.0184                                   190.264590909091    298.364936363636    0.637687018181818    -46.687438221602    -74.0243190502437    
2022-04-22T17:09:08Z    31.6636666666667    -64.1648333333333    1082.5    -1072.19451606191    1e-12          4.1038e-14    6.32726818181818    35.2924818181818   27.6245481818182    0.0002                   -0.0183                                   190.401181818182    298.4165            0.638036654545455    -46.687438221602    -74.0243190502437    
2022-04-22T17:09:08Z    31.6636666666667    -64.1648333333333    1083      -1072.71762263984    1e-12          4.1038e-14    6.31963181818182    35.2923236363636   27.6253990909091    0.0002                   -0.0182                                   190.538363636364    298.469318181818    0.638389945454545    -46.687438221602    -74.0243190502437    
2022-04-22T17:09:08Z    31.6636666666667    -64.1648333333333    1083.5    -1073.19231973421    1e-12          4.1009e-14    6.31204090909091    35.2919172727273   27.6260436363636    0.0002                   -0.0181                                   190.725909090909    298.522454545455    0.638901954545454    -46.687438221602    -74.0243190502437    
2022-04-22T17:09:08Z    31.6636666666667    -64.1648333333333    1084      -1073.66059427254    1e-12          4.0922e-14    6.30470909090909    35.2917245454545   27.6268481818182    0.0002                   -0.018                                    190.887909090909    298.573336363636    0.639333681818182    -46.687438221602    -74.0243190502437    
2022-04-22T17:09:08Z    31.6636666666667    -64.1648333333333    1084.5    -1074.15307174252    1e-12          4.0922e-14    6.29896818181818    35.2918263636364   27.6277318181818    0.0002                   -0.018                                    191.050590909091    298.612527272727    0.639791027272727    -46.687438221602    -74.0243190502437    
2022-04-22T17:09:08Z    31.6636666666667    -64.1648333333333    1085      -1074.67567946657    1e-12          4.0922e-14    6.2933              35.2912636363636   27.6280463636364    0.0002                   -0.01805                                  191.229318181818    298.652854545455    0.640303290909091    -46.687438221602    -74.0243190502437    
2022-04-22T17:09:08Z    31.6636666666667    -64.1648333333333    1085.5    -1075.1469144241     1e-12          4.0922e-14    6.28673181818182    35.2907872727273   27.6285436363636    0.0002                   -0.01805                                  191.387863636364    298.699145454545    0.640732081818182    -46.687438221602    -74.0243190502437    
2022-04-22T17:09:08Z    31.6636666666667    -64.1648333333333    1086      -1075.6423521299     1e-12          4.0951e-14    6.27993636363636    35.2903581818182   27.6290927272727    0.0002                   -0.01815                                  191.579363636364    298.746972727273    0.641270981818182    -46.687438221602    -74.0243190502437    
2022-04-22T17:09:08Z    31.6636666666667    -64.1648333333333    1086.5    -1076.14075238527    1e-12          4.09655e-14   6.27346818181818    35.2900318181818   27.6296745454546    0.0002                   -0.01815                                  191.764772727273    298.792236363636    0.641795809090909    -46.687438221602    -74.0243190502437    
2022-04-22T17:09:08Z    31.6636666666667    -64.1648333333333    1087      -1076.63421192607    1e-12          4.1038e-14    6.26743181818182    35.2897254545455   27.6302254545455    0.0002                   -0.01805                                  191.900318181818    298.834727272727    0.642159827272727    -46.687438221602    -74.0243190502437    
2022-04-22T17:09:08Z    31.6636666666667    -64.1648333333333    1087.5    -1077.1355735205     1e-12          4.1067e-14    6.26233181818182    35.2895118181818   27.6307309090909    0.0002                   -0.01815                                  191.986727272727    298.870463636364    0.642370072727273    -46.687438221602    -74.0243190502437    
2022-04-22T17:09:08Z    31.6636666666667    -64.1648333333333    1088      -1077.62507911971    1e-12          4.1183e-14    6.25819545454546    35.2893627272727   27.6311518181818    0.0002                   -0.01825                                  192.034681818182    298.899427272727    0.642465463636364    -46.687438221602    -74.0243190502437    
2022-04-22T17:09:08Z    31.6636666666667    -64.1648333333333    1088.5    -1078.14767817245    1e-12          4.1183e-14    6.25449545454545    35.2891345454545   27.6314736363636    0.0002                   -0.01825                                  192.1115            298.925709090909    0.6426665            -46.687438221602    -74.0243190502437    
2022-04-22T17:09:08Z    31.6636666666667    -64.1648333333333    1089      -1078.59470184528    1e-12          4.1213e-14    6.25145909090909    35.2890418181818   27.6317963636364    0.0002                   -0.01825                                  192.217954545455    298.947072727273    0.642979             -46.687438221602    -74.0243190502437    
2022-04-22T17:09:08Z    31.6636666666667    -64.1648333333333    1089.5    -1079.09013138811    1e-12          4.1096e-14    6.24815909090909    35.2887790909091   27.6320054545454    0.0002                   -0.01825                                  192.347363636364    298.970763636364    0.643364809090909    -46.687438221602    -74.0243190502437    
2022-04-22T17:09:08Z    31.6636666666667    -64.1648333333333    1090      -1079.58951132306    1e-12          4.1067e-14    6.24452272727273    35.2884281818182   27.63219            0.0002                   -0.01815                                  192.503454545455    298.996663636364    0.643827354545455    -46.687438221602    -74.0243190502437    
2022-04-22T17:09:08Z    31.6636666666667    -64.1648333333333    1090.5    -1080.08197483682    1e-12          4.09655e-14   6.24044090909091    35.2878363636364   27.6322563636364    0.0002                   -0.0181                                   192.665909090909    299.026336363636    0.644307627272727    -46.687438221602    -74.0243190502437    
2022-04-22T17:09:08Z    31.6636666666667    -64.1648333333333    1091      -1080.58036452334    1e-12          4.0951e-14    6.23392727272727    35.2868436363636   27.6323036363636    -0.000131818181818182    -0.0182                                   192.849681818182    299.073581818182    0.644818218181818    -46.687438221602    -74.0243190502437    
2022-04-22T17:09:08Z    31.6636666666667    -64.1648333333333    1091.5    -1081.07282571099    1e-12          4.0893e-14    6.22652727272727    35.2860909090909   27.6326509090909    -0.000131818181818182    -0.0181                                   193.000409090909    299.126290909091    0.6452106            -46.687438221602    -74.0243190502437    
2022-04-22T17:09:08Z    31.6636666666667    -64.1648333333333    1092      -1081.54700991053    1e-12          4.0864e-14    6.21834090909091    35.2852281818182   27.6330418181818    -0.000131818181818182    -0.018                                    193.128181818182    299.184936363636    0.645513172727273    -46.687438221602    -74.0243190502437    
2022-04-22T17:09:08Z    31.6636666666667    -64.1648333333333    1092.5    -1082.0705870494     1e-12          4.0864e-14    6.20968636363636    35.2843245454545   27.6333163636364    -0.000131818181818182    -0.018                                    193.269909090909    299.246690909091    0.645851536363636    -46.687438221602    -74.0243190502437    
2022-04-22T17:09:08Z    31.6636666666667    -64.1648333333333    1093      -1082.58724772885    1e-12          4.0864e-14    6.20006363636364    35.2832154545454   27.6336845454545    -0.000131818181818182    -0.0179                                   193.476318181818    299.315536363636    0.646392336363636    -46.687438221602    -74.0243190502437    
2022-04-22T17:09:08Z    31.6636666666667    -64.1648333333333    1093.5    -1083.08612538673    1e-12          4.085e-14     6.19048181818182    35.2821281818182   27.6340736363636    -0.000131818181818182    -0.0178                                   193.666227272727    299.384063636364    0.646880190909091    -46.687438221602    -74.0243190502437    
2022-04-22T17:09:08Z    31.6636666666667    -64.1648333333333    1094      -1083.52968095687    1e-12          4.0922e-14    6.18093181818182    35.2811409090909   27.6345118181818    -0.000131818181818182    -0.0179                                   193.853681818182    299.452136363636    0.6473578            -46.687438221602    -74.0243190502437    
2022-04-22T17:09:08Z    31.6636666666667    -64.1648333333333    1094.5    -1084.00484746077    1e-12          4.1096e-14    6.17166818181818    35.2801745454545   27.6349709090909    -0.000131818181818182    -0.018                                    194.0235            299.518172727273    0.6477812            -46.687438221602    -74.0243190502437    
2022-04-22T17:09:08Z    31.6636666666667    -64.1648333333333    1095      -1084.52743058217    1e-12          4.1213e-14    6.16286818181818    35.2793363636364   27.6354645454545    -0.000131818181818182    -0.018                                    194.1855            299.5807            0.648182563636364    -46.687438221602    -74.0243190502437    
2022-04-22T17:09:08Z    31.6636666666667    -64.1648333333333    1095.5    -1085.04507306818    1e-12          4.1213e-14    6.15417727272727    35.2785281818182   27.6359690909091    -0.000131818181818182    -0.018                                    194.338590909091    299.6427            0.648563172727273    -46.687438221602    -74.0243190502437    
2022-04-22T17:09:08Z    31.6636666666667    -64.1648333333333    1096      -1085.49504559984    1e-12          4.1125e-14    6.14614090909091    35.2781354545455   27.6366772727273    -0.000131818181818182    -0.018                                    194.497954545455    299.699036363636    0.648972536363636    -46.687438221602    -74.0243190502437    
2022-04-22T17:09:08Z    31.6636666666667    -64.1648333333333    1096.5    -1085.99045880305    1e-12          4.1096e-14    6.14127272727273    35.2780509090909   27.6372345454545    0.0002                   -0.0179                                   194.619272727273    299.733             0.649308872727273    -46.687438221602    -74.0243190502437    
2022-04-22T17:09:08Z    31.6636666666667    -64.1648333333333    1097      -1086.51007339395    1e-12          4.1009e-14    6.13760909090909    35.2776927272727   27.6374390909091    0.0002                   -0.0178090909090909                       194.725681818182    299.759363636364    0.649604927272727    -46.687438221602    -74.0243190502437    
2022-04-22T17:09:08Z    31.6636666666667    -64.1648333333333    1097.5    -1086.98523313138    1e-12          4.0951e-14    6.13419090909091    35.2771609090909   27.6375154545455    0.0002                   -0.0177181818181818                       194.850772727273    299.784418181818    0.649958590909091    -46.687438221602    -74.0243190502437    
2022-04-22T17:09:08Z    31.6636666666667    -64.1648333333333    1098      -1087.50188168414    1e-12          4.0922e-14    6.12990909090909    35.27673           27.63786            -0.000463636363636364    -0.0177181818181818                       194.972318181818    299.815136363636    0.650299709090909    -46.687438221602    -74.0243190502437    
2022-04-22T17:09:08Z    31.6636666666667    -64.1648333333333    1098.5    -1087.97605131768    1e-12          4.0864e-14    6.12611818181818    35.27649           27.6381554545455    -0.00112727272727273     -0.0177181818181818                       195.087545454545    299.842136363636    0.650626972727273    -46.687438221602    -74.0243190502437    
2022-04-22T17:09:08Z    31.6636666666667    -64.1648333333333    1099      -1088.49368527453    1e-12          4.0864e-14    6.12225909090909    35.2763081818182   27.6384954545455    -0.00112727272727273     -0.0177181818181818                       195.194454545455    299.869572727273    0.650923654545455    -46.687438221602    -74.0243190502437    
2022-04-22T17:09:08Z    31.6636666666667    -64.1648333333333    1099.5    -1088.98267037204    1e-12          4.085e-14     6.11881818181818    35.2761081818182   27.6387963636364    -0.00112727272727273     -0.0176181818181818                       195.271727272727    299.894145454545    0.651128372727273    -46.687438221602    -74.0243190502437    
2022-04-22T17:09:08Z    31.6636666666667    -64.1648333333333    1100      -1089.49042339103    1e-12          4.0864e-14    6.11485454545454    35.2757527272727   27.6390227272727    -0.00179090909090909     -0.0175181818181818                       195.356545454545    299.922590909091    0.651350318181818    -46.687438221602    -74.0243190502437    
2022-04-22T17:09:08Z    31.6636666666667    -64.1648333333333    1100.5    -1089.95866146225    1e-12          4.0893e-14    6.11065             35.2753536363636   27.6392454545455    -0.00245454545454545     -0.0175181818181818                       195.4675            299.9528            0.651654472727273    -46.687438221602    -74.0243190502437    
2022-04-22T17:09:08Z    31.6636666666667    -64.1648333333333    1101      -1090.44863097798    1e-12          4.1009e-14    6.1063              35.2749227272727   27.6394563636364    -0.00245454545454545     -0.0175181818181818                       195.5595            299.984081818182    0.6518959            -46.687438221602    -74.0243190502437    
2022-04-22T17:09:08Z    31.6636666666667    -64.1648333333333    1101.5    -1090.95638044086    1e-12          4.1125e-14    6.1017              35.2744754545455   27.6396863636364    -0.00245454545454545     -0.0175181818181818                       195.637954545455    300.017163636364    0.652086245454545    -46.687438221602    -74.0243190502437    
2022-04-22T17:09:08Z    31.6636666666667    -64.1648333333333    1102      -1091.42461523276    1e-12          4.1183e-14    6.09691818181818    35.27401           27.6399354545455    -0.00178181818181818     -0.0175181818181818                       195.737045454545    300.051454545455    0.652339118181818    -46.687438221602    -74.0243190502437    
2022-04-22T17:09:08Z    31.6636666666667    -64.1648333333333    1102.5    -1091.94816766271    1e-12          4.1242e-14    6.0918              35.2735527272727   27.6402390909091    -0.00110909090909091     -0.0176090909090909                       195.817727272727    300.088127272727    0.652529372727273    -46.687438221602    -74.0243190502437    
2022-04-22T17:09:08Z    31.6636666666667    -64.1648333333333    1103      -1092.48949974016    1e-12          4.1213e-14    6.08716363636364    35.2733936363636   27.6406481818182    -0.000436363636363637    -0.0177                                   195.903909090909    300.120609090909    0.652753527272727    -46.687438221602    -74.0243190502437    
2022-04-22T17:09:08Z    31.6636666666667    -64.1648333333333    1103.5    -1093.01255559247    1e-12          4.1198e-14    6.08377272727273    35.2732127272727   27.6409409090909    0.000227272727272727     -0.0177                                   195.969727272727    300.144663636364    0.652920363636364    -46.687438221602    -74.0243190502437    
2022-04-22T17:09:08Z    31.6636666666667    -64.1648333333333    1104      -1093.46251099892    1e-12          4.1096e-14    6.0808              35.2730490909091   27.6412036363636    0.000890909090909091     -0.0177                                   196.001227272727    300.165963636364    0.652977463636364    -46.687438221602    -74.0243190502437    
2022-04-22T17:09:08Z    31.6636666666667    -64.1648333333333    1104.5    -1093.93074018495    1e-12          4.1067e-14    6.07790909090909    35.2728781818182   27.6414409090909    0.000890909090909091     -0.0177                                   196.047590909091    300.186645454545    0.653088118181818    -46.687438221602    -74.0243190502437    
2022-04-22T17:09:08Z    31.6636666666667    -64.1648333333333    1105      -1094.45428634683    1e-12          4.098e-14     6.07501818181818    35.2727554545455   27.6417127272727    0.000890909090909091     -0.0177                                   196.0915            300.207118181818    0.653189481818182    -46.687438221602    -74.0243190502437    
2022-04-22T17:09:08Z    31.6636666666667    -64.1648333333333    1105.5    -1094.92844023143    1e-12          4.0893e-14    6.07240909090909    35.2727136363636   27.6420163636364    0.00155454545454545      -0.0177                                   196.109772727273    300.225545454545    0.653210109090909    -46.687438221602    -74.0243190502437    
2022-04-22T17:09:08Z    31.6636666666667    -64.1648333333333    1106      -1095.44605699597    1e-12          4.0864e-14    6.07005454545455    35.2726954545455   27.6423154545455    0.00221818181818182      -0.0177                                   196.099181818182    300.242190909091    0.6531391            -46.687438221602    -74.0243190502437    
2022-04-22T17:09:08Z    31.6636666666667    -64.1648333333333    1106.5    -1095.89551326289    1e-12          4.0807e-14    6.06802272727273    35.2727381818182   27.6426172727273    0.00289090909090909      -0.0178                                   196.152363636364    300.256427272727    0.653282536363636    -46.687438221602    -74.0243190502437    
2022-04-22T17:09:08Z    31.6636666666667    -64.1648333333333    1107      -1096.3943591985     1e-12          4.0807e-14    6.06697727272727    35.2730281818182   27.6429836363636    0.00356363636363636      -0.0179                                   196.250545454545    300.263136363636    0.653594045454545    -46.687438221602    -74.0243190502437    
2022-04-22T17:09:08Z    31.6636666666667    -64.1648333333333    1107.5    -1096.91197233843    1e-12          4.0807e-14    6.06680454545455    35.27356           27.6433845454545    0.00289090909090909      -0.018                                    196.354             300.2631            0.653946172727273    -46.687438221602    -74.0243190502437    
2022-04-22T17:09:08Z    31.6636666666667    -64.1648333333333    1108      -1097.38612065645    1e-12          4.0807e-14    6.06771818181818    35.2741645454545   27.6437554545455    0.00155454545454545      -0.0181                                   196.500363636364    300.255836363636    0.654449190909091    -46.687438221602    -74.0243190502437    
2022-04-22T17:09:08Z    31.6636666666667    -64.1648333333333    1108.5    -1097.9279325746     1e-12          4.0893e-14    6.07030909090909    35.2751254545455   27.6441809090909    0.000218181818181818     -0.0182                                   196.635272727273    300.236290909091    0.654942545454546    -46.687438221602    -74.0243190502437    
2022-04-22T17:09:08Z    31.6636666666667    -64.1648333333333    1109      -1098.35417013798    1e-12          4.1154e-14    6.07280909090909    35.2758427272727   27.6444336363636    0.000218181818181818     -0.0183                                   196.780363636364    300.217954545455    0.655464027272727    -46.687438221602    -74.0243190502437    
2022-04-22T17:09:08Z    31.6636666666667    -64.1648333333333    1109.5    -1098.853010215      1e-12          4.1242e-14    6.07486363636364    35.27657           27.6447463636364    0.000218181818181818     -0.0184                                   196.921954545455    300.202481818182    0.655969972727273    -46.687438221602    -74.0243190502437    
2022-04-22T17:09:08Z    31.6636666666667    -64.1648333333333    1110      -1099.32715413689    1e-12          4.1213e-14    6.07680909090909    35.2773445454545   27.6451145454545    0.000218181818181818     -0.0185                                   197.057863636364    300.187718181818    0.6564554            -46.687438221602    -74.0243190502437    
2022-04-22T17:09:08Z    31.6636666666667    -64.1648333333333    1110.5    -1099.82055901407    1e-12          4.1125e-14    6.07861363636364    35.2780972727273   27.6454781818182    0.000218181818181818     -0.0186                                   197.199727272727    300.173936363636    0.656958072727273    -46.687438221602    -74.0243190502437    
2022-04-22T17:09:08Z    31.6636666666667    -64.1648333333333    1111      -1100.36730360381    1e-12          4.1067e-14    6.08035909090909    35.2787772727273   27.6457918181818    0.000890909090909091     -0.0186                                   197.331909090909    300.160718181818    0.6574277            -46.687438221602    -74.0243190502437    
2022-04-22T17:09:08Z    31.6636666666667    -64.1648333333333    1111.5    -1100.86021213531    1e-12          4.0951e-14    6.08170454545455    35.2794590909091   27.6461627272727    0.00156363636363636      -0.0186                                   197.458954545455    300.150209090909    0.657873554545454    -46.687438221602    -74.0243190502437    
2022-04-22T17:09:08Z    31.6636666666667    -64.1648333333333    1112      -1101.34422940318    1e-12          4.0922e-14    6.08279545454545    35.2800518181818   27.6464981818182    0.00156363636363636      -0.0185                                   197.507909090909    300.141718181818    0.658054190909091    -46.687438221602    -74.0243190502437    
2022-04-22T17:09:08Z    31.6636666666667    -64.1648333333333    1112.5    -1101.85195243785    1e-12          4.0922e-14    6.08232272727273    35.2803336363636   27.6468254545455    0.00156363636363636      -0.0185                                   197.506727272727    300.144845454545    0.658045063636364    -46.687438221602    -74.0243190502437    
2022-04-22T17:09:08Z    31.6636666666667    -64.1648333333333    1113      -1102.35078417527    1e-12          4.0864e-14    6.08085             35.2805227272727   27.6472209090909    0.00223636363636364      -0.0184                                   197.507090909091    300.155381818182    0.6580176            -46.687438221602    -74.0243190502437    
2022-04-22T17:09:08Z    31.6636666666667    -64.1648333333333    1113.5    -1102.79528671287    1e-12          4.0836e-14    6.0782              35.2806154545455   27.6476290909091    0.0029                   -0.0183                                   197.507545454545    300.173727272727    0.657977981818182    -46.687438221602    -74.0243190502437    
2022-04-22T17:09:08Z    31.6636666666667    -64.1648333333333    1114      -1103.30646345086    1e-12          4.0864e-14    6.07406363636364    35.2803545454545   27.6479609090909    0.00356363636363636      -0.0182                                   197.463454545455    300.203090909091    0.657765645454545    -46.687438221602    -74.0243190502437    
2022-04-22T17:09:08Z    31.6636666666667    -64.1648333333333    1114.5    -1103.7776339611     1e-12          4.0836e-14    6.06999090909091    35.2802418181818   27.6484             0.00356363636363636      -0.0181                                   197.416090909091    300.231745454545    0.657548827272727    -46.687438221602    -74.0243190502437    
2022-04-22T17:09:08Z    31.6636666666667    -64.1648333333333    1115      -1104.26115059765    1e-12          4.0836e-14    6.06637727272727    35.2801090909091   27.6487636363636    0.00356363636363636      -0.018                                    197.385363636364    300.257372727273    0.6573889            -46.687438221602    -74.0243190502437    
2022-04-22T17:09:08Z    31.6636666666667    -64.1648333333333    1115.5    -1104.8152918864     1e-12          4.0893e-14    6.06240454545455    35.2798145454545   27.6490454545455    0.00356363636363636      -0.0179                                   197.381818181818    300.285863636364    0.657315063636364    -46.687438221602    -74.0243190502437    
2022-04-22T17:09:08Z    31.6636666666667    -64.1648333333333    1116      -1105.35066407371    1e-12          4.1009e-14    6.05817272727273    35.2795618181818   27.6493945454545    0.00356363636363636      -0.01785                                  197.401181818182    300.316009090909    0.657313681818182    -46.687438221602    -74.0243190502437    
2022-04-22T17:09:08Z    31.6636666666667    -64.1648333333333    1116.5    -1105.67959132541    1e-12          4.1183e-14    6.05432727272727    35.2794372727273   27.6497972727273    0.00289090909090909      -0.01795                                  197.445090909091    300.343227272727    0.657399890909091    -46.687438221602    -74.0243190502437    
2022-04-22T17:09:08Z    31.6636666666667    -64.1648333333333    1117      -1106.25150864989    1e-12          4.1213e-14    6.05078636363636    35.2791972727273   27.6500609090909    0.00155454545454545      -0.01805                                  197.496318181818    300.368763636364    0.657514863636364    -46.687438221602    -74.0243190502437    
2022-04-22T17:09:08Z    31.6636666666667    -64.1648333333333    1117.5    -1106.76860353328    1e-12          4.1125e-14    6.04718636363636    35.2790909090909   27.6504409090909    0.000218181818181818     -0.01815                                  197.568727272727    300.394136363636    0.657700927272727    -46.687438221602    -74.0243190502437    
2022-04-22T17:09:08Z    31.6636666666667    -64.1648333333333    1118      -1107.28569715111    1e-12          4.1096e-14    6.04477727272727    35.2792945454545   27.6508990909091    -0.00111818181818182     -0.01815                                  197.649636363636    300.410836363636    0.657931145454545    -46.687438221602    -74.0243190502437    
2022-04-22T17:09:08Z    31.6636666666667    -64.1648333333333    1118.5    -1107.75093214265    1e-12          4.098e-14     6.04335             35.2794154545455   27.6511754545455    -0.00212272727272727     -0.01825                                  197.706909090909    300.420845454545    0.658101027272727    -46.687438221602    -74.0243190502437    
2022-04-22T17:09:08Z    31.6636666666667    -64.1648333333333    1119      -1108.21616610799    1e-12          4.0922e-14    6.04208636363636    35.2794118181818   27.65135            -0.00212272727272727     -0.01835                                  197.768545454545    300.429872727273    0.6582824            -46.687438221602    -74.0243190502437    
2022-04-22T17:09:08Z    31.6636666666667    -64.1648333333333    1119.5    -1108.78807650433    1e-12          4.0893e-14    6.03996818181818    35.2792818181818   27.6514881818182    -0.00212272727272727     -0.01845                                  197.870363636364    300.445109090909    0.658586890909091    -46.687438221602    -74.0243190502437    
2022-04-22T17:09:08Z    31.6636666666667    -64.1648333333333    1120      -1109.24491226962    1e-12          4.0836e-14    6.03732272727273    35.2792563636364   27.6518118181818    -0.00212272727272727     -0.01855                                  197.966818181818    300.463709090909    0.658864772727273    -46.687438221602    -74.0243190502437    
2022-04-22T17:09:08Z    31.6636666666667    -64.1648333333333    1120.5    -1109.70075929008    1e-12          4.0864e-14    6.03466818181818    35.2791954545455   27.6521027272727    -0.00212272727272727     -0.01865                                  198.044181818182    300.4825            0.659079927272727    -46.687438221602    -74.0243190502437    
2022-04-22T17:09:08Z    31.6636666666667    -64.1648333333333    1121      -1110.24253934219    1e-12          4.0864e-14    6.02961363636364    35.27889           27.6525027272727    -0.00212272727272727     -0.01875                                  198.1375            300.518381818182    0.659306745454546    -46.687438221602    -74.0243190502437    
2022-04-22T17:09:08Z    31.6636666666667    -64.1648333333333    1121.5    -1110.74184497032    1e-12          4.0864e-14    6.02438636363636    35.27855           27.6528972727273    -0.00212272727272727     -0.0188                                   198.205590909091    300.555827272727    0.6594525            -46.687438221602    -74.0243190502437    
2022-04-22T17:09:08Z    31.6636666666667    -64.1648333333333    1122      -1111.25250844506    1e-12          4.0922e-14    6.01887727272727    35.2781818181818   27.6533090909091    -0.00212272727272727     -0.0188                                   198.245136363636    300.595272727273    0.659497172727273    -46.687438221602    -74.0243190502437    
2022-04-22T17:09:08Z    31.6636666666667    -64.1648333333333    1122.5    -1111.68513919602    1e-12          4.0951e-14    6.01353181818182    35.2778972727273   27.6537645454545    -0.00145909090909091     -0.0188                                   198.275090909091    300.633027272727    0.659513663636364    -46.687438221602    -74.0243190502437    
2022-04-22T17:09:08Z    31.6636666666667    -64.1648333333333    1123      -1112.22592637695    1e-12          4.1038e-14    6.00867727272727    35.2777254545455   27.6542445454545    -0.000795454545454545    -0.0188                                   198.314409090909    300.667436363636    0.659573954545455    -46.687438221602    -74.0243190502437    
2022-04-22T17:09:08Z    31.6636666666667    -64.1648333333333    1123.5    -1112.70399095976    1e-12          4.11105e-14   6.00412272727273    35.27751           27.6546372727273    -0.000131818181818182    -0.0188                                   198.386954545455    300.699709090909    0.659745345454545    -46.687438221602    -74.0243190502437    
2022-04-22T17:09:08Z    31.6636666666667    -64.1648333333333    1124      -1113.19390724817    1e-12          4.1125e-14    5.99935             35.2772681818182   27.6550527272727    0.0002                   -0.0188                                   198.4885            300.733609090909    0.660008272727273    -46.687438221602    -74.0243190502437    
2022-04-22T17:09:08Z    31.6636666666667    -64.1648333333333    1124.5    -1113.67443895356    1e-12          4.1154e-14    5.99394090909091    35.27688           27.6554372727273    0.0002                   -0.0188                                   198.599590909091    300.772136363636    0.660297036363636    -46.687438221602    -74.0243190502437    
2022-04-22T17:09:08Z    31.6636666666667    -64.1648333333333    1125      -1114.12484382079    1e-12          4.11105e-14   5.98786818181818    35.2764654545455   27.6559181818182    0.0002                   -0.0187                                   198.7365            300.815427272727    0.6606606            -46.687438221602    -74.0243190502437    
2022-04-22T17:09:08Z    31.6636666666667    -64.1648333333333    1125.5    -1114.66611856712    1e-12          4.1096e-14    5.98262272727273    35.2763054545455   27.6564681818182    0.0002                   -0.0186                                   198.872136363636    300.8525            0.661030681818182    -46.687438221602    -74.0243190502437    
2022-04-22T17:09:08Z    31.6636666666667    -64.1648333333333    1126      -1115.12936171772    1e-12          4.1038e-14    5.97724090909091    35.2759209090909   27.6568618181818    0.0002                   -0.0186                                   198.996772727273    300.890972727273    0.661355872727273    -46.687438221602    -74.0243190502437    
2022-04-22T17:09:08Z    31.6636666666667    -64.1648333333333    1126.5    -1115.65878120657    1e-12          4.1009e-14    5.97341363636364    35.2758909090909   27.6573336363636    0.0002                   -0.0186                                   199.074909090909    300.917881818182    0.661564090909091    -46.687438221602    -74.0243190502437    
2022-04-22T17:09:08Z    31.6636666666667    -64.1648333333333    1127      -1116.18128532272    1e-12          4.0922e-14    5.96990454545455    35.27591           27.6577990909091    0.0002                   -0.0186                                   199.175136363636    300.942327272727    0.661841818181818    -46.687438221602    -74.0243190502437    
2022-04-22T17:09:08Z    31.6636666666667    -64.1648333333333    1127.5    -1116.65637772593    1e-12          4.0951e-14    5.96573636363636    35.2756781818182   27.6581127272727    0.0002                   -0.0186                                   199.308681818182    300.972290909091    0.662218227272727    -46.687438221602    -74.0243190502437    
2022-04-22T17:09:08Z    31.6636666666667    -64.1648333333333    1128      -1117.12455504818    1e-12          4.0893e-14    5.96026363636364    35.2754618181818   27.6585854545454    0.0002                   -0.0186                                   199.484818181818    301.011272727273    0.662725218181818    -46.687438221602    -74.0243190502437    
2022-04-22T17:09:08Z    31.6636666666667    -64.1648333333333    1128.5    -1117.62384426573    1e-12          4.08785e-14   5.95437272727273    35.2751954545455   27.6591227272727    0.0002                   -0.0186                                   199.652272727273    301.053109090909    0.663186063636364    -46.687438221602    -74.0243190502437    
2022-04-22T17:09:08Z    31.6636666666667    -64.1648333333333    1129      -1118.16560382393    1e-12          4.0893e-14    5.948               35.2747609090909   27.6595963636364    0.0002                   -0.0186                                   199.7615            301.098618181818    0.663448963636364    -46.687438221602    -74.0243190502437    
2022-04-22T17:09:08Z    31.6636666666667    -64.1648333333333    1129.5    -1118.63970401832    1e-12          4.0864e-14    5.94129090909091    35.2742736363636   27.6600681818182    0.0002                   -0.0186                                   199.890318181818    301.146609090909    0.663771127272727    -46.687438221602    -74.0243190502437    
2022-04-22T17:09:08Z    31.6636666666667    -64.1648333333333    1130      -1119.11479084491    1e-12          4.0922e-14    5.93563636363636    35.2741154545455   27.66065            0.0002                   -0.0186                                   199.994227272727    301.186790909091    0.664028036363636    -46.687438221602    -74.0243190502437    
2022-04-22T17:09:08Z    31.6636666666667    -64.1648333333333    1130.5    -1119.63234782456    1e-12          4.098e-14     5.93171818181818    35.2742063636364   27.6612145454545    0.0002                   -0.0187                                   200.076909090909    301.214109090909    0.664238718181818    -46.687438221602    -74.0243190502437    
2022-04-22T17:09:08Z    31.6636666666667    -64.1648333333333    1131      -1120.05804735879    1e-12          4.10525e-14   5.92780909090909    35.2740454545455   27.66157            -0.000463636363636364    -0.0188                                   200.191636363636    301.241854545455    0.664557345454545    -46.687438221602    -74.0243190502437    
2022-04-22T17:09:08Z    31.6636666666667    -64.1648333333333    1131.5    -1120.58152819291    1e-12          4.1125e-14    5.92425909090909    35.2742045454545   27.6621354545455    -0.00112727272727273     -0.0188                                   200.306318181818    301.266454545455    0.664890936363636    -46.687438221602    -74.0243190502437    
2022-04-22T17:09:08Z    31.6636666666667    -64.1648333333333    1132      -1121.09908155384    1e-12          4.1183e-14    5.92208636363636    35.2743745454545   27.6625472727273    -0.00179090909090909     -0.0188                                   200.423772727273    301.281518181818    0.665243290909091    -46.687438221602    -74.0243190502437    
2022-04-22T17:09:08Z    31.6636666666667    -64.1648333333333    1132.5    -1121.574162802      1e-12          4.1183e-14    5.92079545454545    35.2746490909091   27.6629409090909    -0.00245454545454545     -0.0188                                   200.531772727273    301.290172727273    0.665582590909091    -46.687438221602    -74.0243190502437    
2022-04-22T17:09:08Z    31.6636666666667    -64.1648333333333    1133      -1122.09714600122    1e-12          4.1213e-14    5.92006363636364    35.27512           27.6634454545455    -0.00311818181818182     -0.0188                                   200.641454545455    301.2941            0.665939790909091    -46.687438221602    -74.0243190502437    
2022-04-22T17:09:08Z    31.6636666666667    -64.1648333333333    1133.5    -1122.61420177288    1e-12          4.1183e-14    5.92026363636363    35.2755609090909   27.6638309090909    -0.00345                 -0.0188                                   200.729454545455    301.291863636364    0.6662294            -46.687438221602    -74.0243190502437    
2022-04-22T17:09:08Z    31.6636666666667    -64.1648333333333    1134      -1123.04680905483    1e-12          4.1125e-14    5.9204              35.2758390909091   27.6640427272727    -0.00345                 -0.0188                                   200.848954545455    301.290745454545    0.666628981818182    -46.687438221602    -74.0243190502437    
2022-04-22T17:09:08Z    31.6636666666667    -64.1648333333333    1134.5    -1123.53917036371    1e-12          4.1125e-14    5.91989090909091    35.2760836363636   27.6643036363636    -0.00345                 -0.0183272727272727                       201.005681818182    301.294036363636    0.6671416            -46.687438221602    -74.0243190502437    
2022-04-22T17:09:08Z    31.6636666666667    -64.1648333333333    1135      -1124.05967945767    1e-12          4.1009e-14    5.9193              35.2764154545455   27.6646427272727    -0.00345                 -0.0178545454545455                       201.110954545455    301.2977            0.667482445454545    -46.687438221602    -74.0243190502437    
2022-04-22T17:09:08Z    31.6636666666667    -64.1648333333333    1135.5    -1124.58018725757    1e-12          4.098e-14     5.91823636363636    35.2765590909091   27.6648936363636    -0.00345                 -0.0178545454545455                       201.191681818182    301.305190909091    0.667736590909091    -46.687438221602    -74.0243190502437    
2022-04-22T17:09:08Z    31.6636666666667    -64.1648333333333    1136      -1125.05476677166    1e-12          4.08785e-14   5.91666363636364    35.2766663636364   27.6651881818182    -0.00277727272727273     -0.0178545454545455                       201.252727272727    301.316318181818    0.667918127272727    -46.687438221602    -74.0243190502437    
2022-04-22T17:09:08Z    31.6636666666667    -64.1648333333333    1136.5    -1125.54761720123    1e-12          4.0864e-14    5.9149              35.27674           27.6654745454545    -0.00144090909090909     -0.0178545454545455                       201.309727272727    301.328845454545    0.6680807            -46.687438221602    -74.0243190502437    
2022-04-22T17:09:08Z    31.6636666666667    -64.1648333333333    1137      -1126.00095955531    1e-12          4.0864e-14    5.91301818181818    35.2767490909091   27.6657218181818    -0.000104545454545455    -0.0178545454545455                       201.387             301.342245454545    0.668307227272727    -46.687438221602    -74.0243190502437    
2022-04-22T17:09:08Z    31.6636666666667    -64.1648333333333    1137.5    -1126.47553585138    1e-12          4.0836e-14    5.91106363636364    35.2767318181818   27.6659581818182    0.00123181818181818      -0.0178545454545455                       201.472363636364    301.356236363636    0.668559036363636    -46.687438221602    -74.0243190502437    
2022-04-22T17:09:08Z    31.6636666666667    -64.1648333333333    1138      -1126.97183977705    1e-12          4.0864e-14    5.90843636363636    35.2765318181818   27.6661272727273    0.00189545454545455      -0.0178545454545455                       201.568909090909    301.375390909091    0.668837427272727    -46.687438221602    -74.0243190502437    
2022-04-22T17:09:08Z    31.6636666666667    -64.1648333333333    1138.5    -1127.48937734356    1e-12          4.0864e-14    5.90604545454545    35.2763572727273   27.66629            0.00255909090909091      -0.0178545454545455                       201.651136363636    301.392954545455    0.669070809090909    -46.687438221602    -74.0243190502437    
2022-04-22T17:09:08Z    31.6636666666667    -64.1648333333333    1139      -1128.03703736319    1e-12          4.098e-14     5.90370909090909    35.2760763636364   27.6663736363636    0.00289090909090909      -0.0178545454545455                       201.736136363636    301.410336363636    0.669311190909091    -46.687438221602    -74.0243190502437    
2022-04-22T17:09:08Z    31.6636666666667    -64.1648333333333    1139.5    -1128.53284375923    1e-12          4.10525e-14   5.90119090909091    35.2758709090909   27.6665281818182    0.00289090909090909      -0.0178545454545455                       201.800681818182    301.428518181818    0.669483409090909    -46.687438221602    -74.0243190502437    
2022-04-22T17:09:08Z    31.6636666666667    -64.1648333333333    1140      -1129.00445134256    1e-12          4.1213e-14    5.89909090909091    35.2756618181818   27.6666272727273    0.00289090909090909      -0.0183272727272727                       201.85              301.443981818182    0.6696129            -46.687438221602    -74.0243190502437    
2022-04-22T17:09:08Z    31.6636666666667    -64.1648333333333    1140.5    -1129.43111948745    1e-12          4.1301e-14    5.89696818181818    35.2752890909091   27.6666172727273    0.00289090909090909      -0.0188                                   201.914227272727    301.459954545455    0.6697897            -46.687438221602    -74.0243190502437    
2022-04-22T17:09:08Z    31.6636666666667    -64.1648333333333    1141      -1129.97877443092    1e-12          4.1301e-14    5.89437727272727    35.2747036363636   27.66647            0.00289090909090909      -0.0188                                   201.962045454545    301.479518181818    0.669901572727273    -46.687438221602    -74.0243190502437    
2022-04-22T17:09:08Z    31.6636666666667    -64.1648333333333    1141.5    -1130.47210710196    1e-12          4.1183e-14    5.89052727272727    35.2740436363636   27.6664345454545    0.00221818181818182      -0.0188                                   202.040090909091    301.508109090909    0.670095945454546    -46.687438221602    -74.0243190502437    
2022-04-22T17:09:08Z    31.6636666666667    -64.1648333333333    1142      -1130.99556191759    1e-12          4.1096e-14    5.88632272727273    35.2734581818182   27.6665063636364    0.00154545454545454      -0.0188                                   202.099136363636    301.539018181818    0.670222645454546    -46.687438221602    -74.0243190502437    
2022-04-22T17:09:08Z    31.6636666666667    -64.1648333333333    1142.5    -1131.51210189695    1e-12          4.0922e-14    5.88153636363636    35.2727263636364   27.6665254545455    0.000872727272727273     -0.0188                                   202.132181818182    301.574263636364    0.670250818181818    -46.687438221602    -74.0243190502437    
2022-04-22T17:09:08Z    31.6636666666667    -64.1648333333333    1143      -1131.98715953001    1e-12          4.0893e-14    5.8753              35.2716381818182   27.6663981818182    0.0002                   -0.0188                                   202.168681818182    301.620609090909    0.670273054545455    -46.687438221602    -74.0243190502437    
2022-04-22T17:09:08Z    31.6636666666667    -64.1648333333333    1143.5    -1132.41283395768    1e-12          4.0836e-14    5.86785454545455    35.2707009090909   27.6665836363636    0.0002                   -0.0188                                   202.205954545455    301.674881818182    0.6702793            -46.687438221602    -74.0243190502437    
2022-04-22T17:09:08Z    31.6636666666667    -64.1648333333333    1144      -1132.88788954274    1e-12          4.0807e-14    5.85989090909091    35.2699318181818   27.6669772727273    0.0002                   -0.0188                                   202.241636363636    301.732345454545    0.670270627272727    -46.687438221602    -74.0243190502437    
2022-04-22T17:09:08Z    31.6636666666667    -64.1648333333333    1144.5    -1133.43257254237    1e-12          4.0836e-14    5.85242727272727    35.2692481818182   27.6673463636364    0.0002                   -0.0187                                   202.237681818182    301.786118181818    0.670139718181818    -46.687438221602    -74.0243190502437    
2022-04-22T17:09:08Z    31.6636666666667    -64.1648333333333    1145      -1133.95305705473    1e-12          4.085e-14     5.84583636363636    35.2684327272727   27.66752            0.0002                   -0.0187                                   202.321681818182    301.834563636364    0.670309863636364    -46.687438221602    -74.0243190502437    
2022-04-22T17:09:08Z    31.6636666666667    -64.1648333333333    1145.5    -1134.42810915304    1e-12          4.0807e-14    5.83904545454546    35.2677945454545   27.6678745454545    0.0002                   -0.0186                                   202.437772727273    301.883654545455    0.670584763636364    -46.687438221602    -74.0243190502437    
2022-04-22T17:09:08Z    31.6636666666667    -64.1648333333333    1146      -1134.94513448495    1e-12          4.0864e-14    5.83238636363636    35.2672909090909   27.6683036363636    0.0002                   -0.0185                                   202.551863636364    301.931454545455    0.670857463636364    -46.687438221602    -74.0243190502437    
2022-04-22T17:09:08Z    31.6636666666667    -64.1648333333333    1146.5    -1135.44438122657    1e-12          4.0864e-14    5.82695909090909    35.2674045454545   27.6690863636364    0.0002                   -0.0185                                   202.716227272727    301.969272727273    0.671318590909091    -46.687438221602    -74.0243190502437    
2022-04-22T17:09:08Z    31.6636666666667    -64.1648333333333    1147      -1135.96239168239    1e-12          4.1242e-14    5.8238              35.2676863636364   27.6697381818182    0.0002                   -0.0185                                   202.832818181818    301.990772727273    0.6716496            -46.687438221602    -74.0243190502437    
2022-04-22T17:09:08Z    31.6636666666667    -64.1648333333333    1147.5    -1136.34559019983    1e-12          4.136e-14     5.82152272727273    35.26787           27.6701672727273    0.0002                   -0.0185                                   202.949863636364    302.006545454545    0.672002727272727    -46.687438221602    -74.0243190502437    
2022-04-22T17:09:08Z    31.6636666666667    -64.1648333333333    1148      -1136.86310461103    1e-12          4.133e-14     5.82005454545455    35.2682654545455   27.6706763636364    0.0002                   -0.0185                                   203.0615            302.016336363636    0.6723536            -46.687438221602    -74.0243190502437    
2022-04-22T17:09:08Z    31.6636666666667    -64.1648333333333    1148.5    -1137.38703726343    1e-12          4.1213e-14    5.82010454545454    35.2689718181818   27.6712845454545    -0.000463636363636364    -0.0185                                   203.146045454545    302.014581818182    0.672633890909091    -46.687438221602    -74.0243190502437    
2022-04-22T17:09:08Z    31.6636666666667    -64.1648333333333    1149      -1137.86158776756    1e-12          4.10815e-14   5.82139545454545    35.2695509090909   27.6715954545454    -0.00112727272727273     -0.0185                                   203.223909090909    302.004618181818    0.672910254545455    -46.687438221602    -74.0243190502437    
2022-04-22T17:09:08Z    31.6636666666667    -64.1648333333333    1149.5    -1138.33663100977    1e-12          4.1038e-14    5.82342272727273    35.2703709090909   27.6719936363636    -0.00179090909090909     -0.0185                                   203.304409090909    301.989018181818    0.673216972727273    -46.687438221602    -74.0243190502437    
2022-04-22T17:09:08Z    31.6636666666667    -64.1648333333333    1150      -1138.85414050339    1e-12          4.0922e-14    5.82602272727273    35.2714109090909   27.6725263636364    -0.00245454545454545     -0.0186                                   203.412             301.968736363636    0.673621618181818    -46.687438221602    -74.0243190502437    
2022-04-22T17:09:08Z    31.6636666666667    -64.1648333333333    1150.5    -1139.39535134386    1e-12          4.08215e-14   5.82842272727273    35.2725318181818   27.6731336363636    -0.00245454545454545     -0.0186                                   203.454             301.949518181818    0.673804018181818    -46.687438221602    -74.0243190502437    
2022-04-22T17:09:08Z    31.6636666666667    -64.1648333333333    1151      -1139.82743018078    1e-12          4.0807e-14    5.83135909090909    35.2735509090909   27.6735718181818    -0.00245454545454545     -0.0187                                   203.449727272727    301.927181818182    0.673839118181818    -46.687438221602    -74.0243190502437    
2022-04-22T17:09:08Z    31.6636666666667    -64.1648333333333    1151.5    -1140.36666330278    1e-12          4.0807e-14    5.83415             35.2744327272727   27.6739254545455    -0.00311818181818182     -0.0188                                   203.459454545455    301.906118181818    0.673922545454546    -46.687438221602    -74.0243190502437    
2022-04-22T17:09:08Z    31.6636666666667    -64.1648333333333    1152      -1140.83824425628    1e-12          4.0836e-14    5.83655             35.2750609090909   27.6741318181818    -0.00311818181818182     -0.0188                                   203.503863636364    301.888390909091    0.6741084            -46.687438221602    -74.0243190502437    
2022-04-22T17:09:08Z    31.6636666666667    -64.1648333333333    1152.5    -1141.36759877763    1e-12          4.0807e-14    5.83847727272727    35.2756736363636   27.6743418181818    -0.00311818181818182     -0.0188                                   203.583136363636    301.874172727273    0.674408545454546    -46.687438221602    -74.0243190502437    
2022-04-22T17:09:08Z    31.6636666666667    -64.1648333333333    1153      -1141.85794183628    1e-12          4.0864e-14    5.84004090909091    35.2763009090909   27.6746463636364    -0.00311818181818182     -0.0188                                   203.637227272727    301.862245454545    0.674615963636364    -46.687438221602    -74.0243190502437    
2022-04-22T17:09:08Z    31.6636666666667    -64.1648333333333    1153.5    -1142.30482952916    1e-12          4.0864e-14    5.84189545454545    35.2771918181818   27.67513            -0.00311818181818182     -0.0188                                   203.704272727273    301.847690909091    0.674871090909091    -46.687438221602    -74.0243190502437    
2022-04-22T17:09:08Z    31.6636666666667    -64.1648333333333    1154      -1143.01787266731    1e-12          4.1009e-14    5.84410909090909    35.2781781818182   27.6756254545455    -0.00245454545454546     -0.0188                                   203.776681818182    301.830381818182    0.675150454545455    -46.687438221602    -74.0243190502437    
2022-04-22T17:09:08Z    31.6636666666667    -64.1648333333333    1154.5    -1143.23415535384    1e-12          4.1448e-14    5.84652727272727    35.2791927272727   27.6761254545455    -0.00179090909090909     -0.0188                                   203.830545454545    301.811645454545    0.675370454545455    -46.687438221602    -74.0243190502437    
2022-04-22T17:09:08Z    31.6636666666667    -64.1648333333333    1155      -1143.7793052509     1e-12          4.1478e-14    5.84887727272727    35.2797536363636   27.6762827272727    -0.00112727272727273     -0.0188                                   203.874090909091    301.794381818182    0.675547627272727    -46.687438221602    -74.0243190502437    
2022-04-22T17:09:08Z    31.6636666666667    -64.1648333333333    1155.5    -1144.2968013033     1e-12          4.1419e-14    5.85043181818182    35.2801736363636   27.6764118181818    -0.000463636363636364    -0.0188                                   203.918454545455    301.783127272727    0.675718081818182    -46.687438221602    -74.0243190502437    
2022-04-22T17:09:08Z    31.6636666666667    -64.1648333333333    1156      -1144.77133615929    1e-12          4.1242e-14    5.85176818181818    35.2806209090909   27.6766             -0.000795454545454546    -0.0188909090909091                       203.928409090909    301.773118181818    0.675773054545455    -46.687438221602    -74.0243190502437    
2022-04-22T17:09:08Z    31.6636666666667    -64.1648333333333    1156.5    -1145.28833597098    1e-12          4.1183e-14    5.85282272727273    35.2810136363636   27.6767872727273    -0.000795454545454546    -0.0189818181818182                       203.944227272727    301.765145454545    0.675844             -46.687438221602    -74.0243190502437    
2022-04-22T17:09:08Z    31.6636666666667    -64.1648333333333    1157      -1145.7268219176     1e-12          4.1067e-14    5.85395909090909    35.2815463636364   27.6770727272727    -0.000131818181818182    -0.0190727272727273                       203.947954545455    301.756363636364    0.675871754545455    -46.687438221602    -74.0243190502437    
2022-04-22T17:09:08Z    31.6636666666667    -64.1648333333333    1157.5    -1146.26603985061    1e-12          4.09075e-14   5.85510454545455    35.2820827272727   27.6773636363636    -0.000131818181818182    -0.0191636363636364                       203.906818181818    301.747590909091    0.6757554            -46.687438221602    -74.0243190502437    
2022-04-22T17:09:08Z    31.6636666666667    -64.1648333333333    1158      -1146.81068808101    1e-12          4.0864e-14    5.85581363636364    35.2824781818182   27.6776063636364    -0.000131818181818182    -0.0192545454545455                       203.872454545455    301.742209090909    0.675652636363636    -46.687438221602    -74.0243190502437    
2022-04-22T17:09:08Z    31.6636666666667    -64.1648333333333    1158.5    -1147.25163974518    1e-12          4.085e-14     5.85651363636364    35.2828854545455   27.6778418181818    -0.000131818181818182    -0.0192545454545455                       203.884             301.736854545455    0.675703627272727    -46.687438221602    -74.0243190502437    
2022-04-22T17:09:08Z    31.6636666666667    -64.1648333333333    1159      -1147.77850917358    1e-12          4.0836e-14    5.85660454545455    35.2830036363636   27.67792            -0.000131818181818182    -0.0192545454545455                       203.887409090909    301.736281818182    0.675715972727273    -46.687438221602    -74.0243190502437    
2022-04-22T17:09:08Z    31.6636666666667    -64.1648333333333    1159.5    -1148.25352993004    1e-12          4.0836e-14    5.85627272727273    35.2830309090909   27.6780036363636    0.000540909090909091     -0.0192545454545455                       203.914681818182    301.738836363636    0.675799763636364    -46.687438221602    -74.0243190502437    
2022-04-22T17:09:08Z    31.6636666666667    -64.1648333333333    1160      -1148.71027964288    1e-12          4.0864e-14    5.8556              35.2830309090909   27.6780981818182    0.000540909090909091     -0.0192545454545455                       203.942454545455    301.743863636364    0.675880736363636    -46.687438221602    -74.0243190502437    
2022-04-22T17:09:08Z    31.6636666666667    -64.1648333333333    1160.5    -1149.22085057515    1e-12          4.0893e-14    5.85476363636364    35.2830954545455   27.6782618181818    0.000540909090909091     -0.0192545454545455                       203.979409090909    301.7499            0.675989827272727    -46.687438221602    -74.0243190502437    
2022-04-22T17:09:08Z    31.6636666666667    -64.1648333333333    1161      -1149.89733045555    1e-12          4.1125e-14    5.8538              35.2831390909091   27.6784227272727    0.000540909090909091     -0.0192545454545455                       204.017863636364    301.756872727273    0.676101709090909    -46.687438221602    -74.0243190502437    
2022-04-22T17:09:08Z    31.6636666666667    -64.1648333333333    1161.5    -1150.0741036703     1e-12          4.0951e-14    5.85276363636364    35.2832063636364   27.6786145454545    0.000872727272727273     -0.0191636363636364                       204.067727272727    301.764290909091    0.676249836363636    -46.687438221602    -74.0243190502437    
2022-04-22T17:09:08Z    31.6636666666667    -64.1648333333333    1162      -1150.71058476347    1e-12          4.1508e-14    5.85171818181818    35.2832363636364   27.6787718181818    0.000209090909090909     -0.0191636363636364                       204.129             301.771881818182    0.676435836363636    -46.687438221602    -74.0243190502437    
2022-04-22T17:09:08Z    31.6636666666667    -64.1648333333333    1162.5    -1151.20633750716    1e-12          4.1419e-14    5.85063636363637    35.2832563636364   27.6789272727273    -0.000454545454545454    -0.0191636363636364                       204.167363636364    301.779781818182    0.676545936363636    -46.687438221602    -74.0243190502437    
2022-04-22T17:09:08Z    31.6636666666667    -64.1648333333333    1163      -1151.69073223916    1e-12          4.1389e-14    5.84955909090909    35.2833027272727   27.6791018181818    -0.00111818181818182     -0.0191181818181818                       204.200909090909    301.787518181818    0.676639772727273    -46.687438221602    -74.0243190502437    
2022-04-22T17:09:08Z    31.6636666666667    -64.1648333333333    1163.5    -1152.20524611232    1e-12          4.1271e-14    5.84855             35.2833027272727   27.6792245454545    -0.00178181818181818     -0.0190272727272727                       204.224             301.794845454545    0.676699809090909    -46.687438221602    -74.0243190502437    
2022-04-22T17:09:08Z    31.6636666666667    -64.1648333333333    1164      -1152.67433155289    1e-12          4.1125e-14    5.84730454545454    35.2833418181818   27.6794263636364    -0.00178181818181818     -0.0190272727272727                       204.214090909091    301.803672727273    0.676644318181818    -46.687438221602    -74.0243190502437    
2022-04-22T17:09:08Z    31.6636666666667    -64.1648333333333    1164.5    -1153.20661880916    1e-12          4.1038e-14    5.84607727272727    35.2833527272727   27.6795963636364    -0.00244545454545455     -0.0190272727272727                       204.221318181818    301.812554545455    0.676648590909091    -46.687438221602    -74.0243190502437    
2022-04-22T17:09:08Z    31.6636666666667    -64.1648333333333    1165      -1153.72409158426    1e-12          4.0922e-14    5.84486818181818    35.28341           27.6797954545455    -0.00311818181818182     -0.0190272727272727                       204.238136363636    301.821363636364    0.676684318181818    -46.687438221602    -74.0243190502437    
2022-04-22T17:09:08Z    31.6636666666667    -64.1648333333333    1165.5    -1154.15367202422    1e-12          4.0836e-14    5.84378636363636    35.2834309090909   27.6799527272727    -0.00311818181818182     -0.0190272727272727                       204.251727272727    301.829181818182    0.676711409090909    -46.687438221602    -74.0243190502437    
2022-04-22T17:09:08Z    31.6636666666667    -64.1648333333333    1166      -1154.61584033819    1e-12          4.0836e-14    5.84294545454545    35.2834245454545   27.6800654545455    -0.00311818181818182     -0.0190272727272727                       204.274318181818    301.8354            0.676770909090909    -46.687438221602    -74.0243190502437    
2022-04-22T17:09:08Z    31.6636666666667    -64.1648333333333    1166.5    -1155.18861161527    1e-12          4.0836e-14    5.84194545454546    35.2834318181818   27.6802054545455    -0.00378181818181818     -0.0190272727272727                       204.289409090909    301.842727272727    0.676798554545455    -46.687438221602    -74.0243190502437    
2022-04-22T17:09:08Z    31.6636666666667    -64.1648333333333    1167      -1155.6636155836     1e-12          4.0836e-14    5.84002272727273    35.28321           27.6802736363636    -0.00310909090909091     -0.0190272727272727                       204.298954545455    301.856981818182    0.676798327272727    -46.687438221602    -74.0243190502437    
2022-04-22T17:09:08Z    31.6636666666667    -64.1648333333333    1167.5    -1156.15688778884    1e-12          4.0836e-14    5.83790454545455    35.2831481818182   27.6804972727273    -0.00244545454545455     -0.0189363636363636                       204.311863636364    301.872281818182    0.676806845454546    -46.687438221602    -74.0243190502437    
2022-04-22T17:09:08Z    31.6636666666667    -64.1648333333333    1168      -1156.60670757937    1e-12          4.0864e-14    5.83571818181818    35.2830509090909   27.6806954545455    -0.00178181818181818     -0.0188454545454546                       204.342363636364    301.888109090909    0.676871745454546    -46.687438221602    -74.0243190502437    
2022-04-22T17:09:08Z    31.6636666666667    -64.1648333333333    1168.5    -1157.27131331672    1e-12          4.11685e-14   5.83347727272727    35.2829409090909   27.6808909090909    -0.00111818181818182     -0.0188                                   204.365909090909    301.9043            0.676913745454546    -46.687438221602    -74.0243190502437    
2022-04-22T17:09:08Z    31.6636666666667    -64.1648333333333    1169      -1157.41154189552    1e-12          4.0951e-14    5.83118636363636    35.2828163636364   27.6810854545455    -0.000454545454545455    -0.0188                                   204.419545454545    301.920918181818    0.677057154545455    -46.687438221602    -74.0243190502437    
2022-04-22T17:09:08Z    31.6636666666667    -64.1648333333333    1169.5    -1158.09984560015    1e-12          4.133e-14     5.82878636363636    35.2825872727273   27.6812109090909    -0.000454545454545455    -0.0188909090909091                       204.473454545455    301.938572727273    0.677197036363636    -46.687438221602    -74.0243190502437    
2022-04-22T17:09:08Z    31.6636666666667    -64.1648333333333    1170      -1158.59903718546    1e-12          4.12565e-14   5.82597727272727    35.2823045454545   27.6813554545455    0.000209090909090909     -0.0189818181818182                       204.503818181818    301.959054545454    0.677249772727273    -46.687438221602    -74.0243190502437    
2022-04-22T17:09:08Z    31.6636666666667    -64.1648333333333    1170.5    -1159.11945919979    1e-12          4.1198e-14    5.82285454545455    35.2820527272727   27.6815627272727    0.000209090909090909     -0.0189818181818182                       204.513818181818    301.981690909091    0.677234490909091    -46.687438221602    -74.0243190502437    
2022-04-22T17:09:08Z    31.6636666666667    -64.1648333333333    1171      -1159.59445425529    1e-12          4.11685e-14   5.81951363636364    35.2817909090909   27.6817763636364    0.000209090909090909     -0.0189818181818182                       204.515863636364    302.005872727273    0.677186427272727    -46.687438221602    -74.0243190502437    
2022-04-22T17:09:08Z    31.6636666666667    -64.1648333333333    1171.5    -1160.01760383467    1e-12          4.1096e-14    5.81560454545455    35.2815109090909   27.6820345454545    0.000209090909090909     -0.0189818181818182                       204.5175            302.034090909091    0.677132290909091    -46.687438221602    -74.0243190502437    
2022-04-22T17:09:08Z    31.6636666666667    -64.1648333333333    1172      -1160.56567260743    1e-12          4.09945e-14   5.81176818181818    35.2812309090909   27.68229            0.000872727272727273     -0.0190727272727273                       204.551409090909    302.061727272727    0.677188372727273    -46.687438221602    -74.0243190502437    
2022-04-22T17:09:08Z    31.6636666666667    -64.1648333333333    1172.5    -1161.01597669165    1e-12          4.098e-14     5.80848181818182    35.2810290909091   27.6825381818182    0.000872727272727273     -0.0191636363636364                       204.563954545455    302.085327272727    0.677176672727273    -46.687438221602    -74.0243190502437    
2022-04-22T17:09:08Z    31.6636666666667    -64.1648333333333    1173      -1161.58280545583    1e-12          4.0922e-14    5.80478181818182    35.28069           27.6827427272727    0.00154545454545455      -0.0192545454545455                       204.603227272727    302.112118181818    0.677245709090909    -46.687438221602    -74.0243190502437    
2022-04-22T17:09:08Z    31.6636666666667    -64.1648333333333    1173.5    -1162.07013871648    1e-12          4.0864e-14    5.80081363636364    35.2803718181818   27.6829918181818    0.00154545454545455      -0.0193454545454546                       204.661136363636    302.140845454545    0.677372445454545    -46.687438221602    -74.0243190502437    
2022-04-22T17:09:08Z    31.6636666666667    -64.1648333333333    1174      -1162.53278332776    1e-12          4.0893e-14    5.79661363636364    35.2800109090909   27.6832290909091    0.00154545454545455      -0.0194363636363636                       204.7125            302.1714            0.677472627272727    -46.687438221602    -74.0243190502437    
2022-04-22T17:09:08Z    31.6636666666667    -64.1648333333333    1174.5    -1163.08084552651    1e-12          4.0864e-14    5.79244545454545    35.2796354545455   27.6834545454545    0.00154545454545455      -0.0194363636363636                       204.778409090909    302.201609090909    0.677620827272727    -46.687438221602    -74.0243190502437    
2022-04-22T17:09:08Z    31.6636666666667    -64.1648333333333    1175      -1163.54990662939    1e-12          4.0893e-14    5.78822727272727    35.2792963636364   27.6837109090909    0.00154545454545454      -0.0194363636363636                       204.868818181818    302.232127272727    0.677850718181818    -46.687438221602    -74.0243190502437    
2022-04-22T17:09:08Z    31.6636666666667    -64.1648333333333    1175.5    -1164.02489164666    1e-12          4.0922e-14    5.78414545454546    35.2789418181818   27.6839336363636    0.00154545454545454      -0.0194363636363636                       204.979818181818    302.261872727273    0.678153618181818    -46.687438221602    -74.0243190502437    
2022-04-22T17:09:08Z    31.6636666666667    -64.1648333333333    1176      -1164.52456287488    1e-12          4.1038e-14    5.77971363636364    35.27847           27.6840936363636    0.00154545454545454      -0.0195272727272727                       205.111681818182    302.294254545455    0.678516163636364    -46.687438221602    -74.0243190502437    
2022-04-22T17:09:08Z    31.6636666666667    -64.1648333333333    1176.5    -1165.04200771224    1e-12          4.1154e-14    5.77513181818182    35.2780145454545   27.6843027272727    0.00154545454545454      -0.0196181818181818                       205.277590909091    302.327627272727    0.678989445454545    -46.687438221602    -74.0243190502437    
2022-04-22T17:09:08Z    31.6636666666667    -64.1648333333333    1177      -1165.5051395081     1e-12          4.1154e-14    5.76968636363636    35.2773227272727   27.6844381818182    0.00154545454545454      -0.0197090909090909                       205.444318181818    302.367590909091    0.679449827272727    -46.687438221602    -74.0243190502437    
2022-04-22T17:09:08Z    31.6636666666667    -64.1648333333333    1177.5    -1165.99196990984    1e-12          4.1154e-14    5.76345             35.2766109090909   27.6846572727273    0.00154545454545454      -0.0197090909090909                       205.593227272727    302.413181818182    0.679843327272727    -46.687438221602    -74.0243190502437    
2022-04-22T17:09:08Z    31.6636666666667    -64.1648333333333    1178      -1166.51632349962    1e-12          4.1096e-14    5.75709545454546    35.27616           27.6850954545455    0.000872727272727273     -0.0196181818181818                       205.740863636364    302.459036363636    0.680229027272727    -46.687438221602    -74.0243190502437    
2022-04-22T17:09:08Z    31.6636666666667    -64.1648333333333    1178.5    -1167.00957016958    1e-12          4.1067e-14    5.75146818181818    35.2757218181818   27.6854427272727    0.000872727272727273     -0.0195272727272727                       205.8295            302.499781818182    0.680431836363636    -46.687438221602    -74.0243190502437    
2022-04-22T17:09:08Z    31.6636666666667    -64.1648333333333    1179      -1167.49689081465    1e-12          4.10235e-14   5.74623181818182    35.27527           27.6857354545455    0.00154545454545455      -0.0194363636363636                       205.894136363636    302.537809090909    0.680560563636364    -46.687438221602    -74.0243190502437    
2022-04-22T17:09:08Z    31.6636666666667    -64.1648333333333    1179.5    -1168.00247862007    1e-12          4.1009e-14    5.74126818181818    35.2748418181818   27.6860309090909    0.00154545454545455      -0.0193454545454546                       205.993954545455    302.573936363636    0.680808909090909    -46.687438221602    -74.0243190502437    
2022-04-22T17:09:08Z    31.6636666666667    -64.1648333333333    1180      -1168.50806520316    1e-12          4.098e-14     5.73571818181818    35.2744336363636   27.6863963636364    0.00154545454545455      -0.0194363636363636                       206.076136363636    302.614009090909    0.680992018181818    -46.687438221602    -74.0243190502437    
2022-04-22T17:09:08Z    31.6636666666667    -64.1648333333333    1180.5    -1168.93366546376    1e-12          4.1009e-14    5.73040909090909    35.2740554545455   27.6867536363636    0.000881818181818182     -0.0194363636363636                       206.141090909091    302.652345454545    0.681120690909091    -46.687438221602    -74.0243190502437    
2022-04-22T17:09:08Z    31.6636666666667    -64.1648333333333    1181      -1169.45208688793    1e-12          4.1009e-14    5.72548181818182    35.2737472727273   27.6871190909091    0.000881818181818182     -0.0194363636363636                       206.230636363636    302.687818181818    0.681336190909091    -46.687438221602    -74.0243190502437    
2022-04-22T17:09:08Z    31.6636666666667    -64.1648333333333    1181.5    -1169.97544435885    1e-12          4.1009e-14    5.72122272727273    35.2734963636364   27.6874609090909    0.00055                  -0.0194363636363636                       206.345909090909    302.718454545455    0.681646363636364    -46.687438221602    -74.0243190502437    
2022-04-22T17:09:08Z    31.6636666666667    -64.1648333333333    1182      -1170.50521903399    1e-12          4.1009e-14    5.71735454545455    35.2732827272727   27.6877790909091    -0.000113636363636364    -0.0193454545454546                       206.449681818182    302.746390909091    0.681926490909091    -46.687438221602    -74.0243190502437    
2022-04-22T17:09:08Z    31.6636666666667    -64.1648333333333    1182.5    -1170.92538420455    1e-12          4.1038e-14    5.71458181818182    35.2732945454545   27.6881409090909    -0.000777272727272728    -0.0192545454545455                       206.562409090909    302.766118181818    0.682253145454545    -46.687438221602    -74.0243190502437    
2022-04-22T17:09:08Z    31.6636666666667    -64.1648333333333    1183      -1171.44380070433    1e-12          4.1009e-14    5.71252727272727    35.27335           27.6884354545455    -0.00144090909090909     -0.0191636363636364                       206.646954545455    302.780736363636    0.682497372727273    -46.687438221602    -74.0243190502437    
2022-04-22T17:09:08Z    31.6636666666667    -64.1648333333333    1183.5    -1171.91876783906    1e-12          4.1009e-14    5.71085454545455    35.2732672727273   27.6885854545455    -0.00144090909090909     -0.0192545454545455                       206.703954545455    302.793009090909    0.682659009090909    -46.687438221602    -74.0243190502437    
2022-04-22T17:09:08Z    31.6636666666667    -64.1648333333333    1184      -1172.42730733894    1e-12          4.098e-14     5.70899090909091    35.2730654545455   27.68867            -0.00211363636363636     -0.0193454545454546                       206.797772727273    302.806881818182    0.682937081818182    -46.687438221602    -74.0243190502437    
2022-04-22T17:09:08Z    31.6636666666667    -64.1648333333333    1184.5    -1172.91807147859    1e-12          4.1009e-14    5.70674545454545    35.2729481818182   27.6888609090909    -0.00278636363636364     -0.0194363636363636                       206.913090909091    302.823218181818    0.683281145454545    -46.687438221602    -74.0243190502437    
2022-04-22T17:09:08Z    31.6636666666667    -64.1648333333333    1185      -1173.34465023799    1e-12          4.1009e-14    5.70448636363636    35.2728463636364   27.6890536363636    -0.00278636363636364     -0.0195272727272727                       207.005818181818    302.8395            0.683551790909091    -46.687438221602    -74.0243190502437    
2022-04-22T17:09:08Z    31.6636666666667    -64.1648333333333    1185.5    -1173.95884313127    1e-12          4.098e-14     5.70286818181818    35.2727636363636   27.6891954545455    -0.00278636363636364     -0.0195272727272727                       207.074             302.851436363636    0.683748490909091    -46.687438221602    -74.0243190502437    
2022-04-22T17:09:08Z    31.6636666666667    -64.1648333333333    1186      -1174.43479201399    1e-12          4.1009e-14    5.70124090909091    35.2726690909091   27.6893290909091    -0.00278636363636364     -0.0195272727272727                       207.112454545455    302.863418181818    0.683848809090909    -46.687438221602    -74.0243190502437    
2022-04-22T17:09:08Z    31.6636666666667    -64.1648333333333    1186.5    -1174.87321699989    1e-12          4.1009e-14    5.69971363636364    35.2726527272727   27.6895127272727    -0.00345                 -0.0195272727272727                       207.131545454545    302.874563636364    0.683887863636364    -46.687438221602    -74.0243190502437    
2022-04-22T17:09:08Z    31.6636666666667    -64.1648333333333    1187      -1175.41186626203    1e-12          4.098e-14     5.69847727272727    35.2726754545454   27.6896881818182    -0.00244545454545455     -0.0195272727272727                       207.128863636364    302.883590909091    0.683858663636364    -46.687438221602    -74.0243190502437    
2022-04-22T17:09:08Z    31.6636666666667    -64.1648333333333    1187.5    -1175.9327402627     1e-12          4.1009e-14    5.69725454545454    35.2726590909091   27.68983            -0.00110909090909091     -0.0196181818181818                       207.162             302.892554545455    0.683949081818182    -46.687438221602    -74.0243190502437    
2022-04-22T17:09:08Z    31.6636666666667    -64.1648333333333    1188      -1176.42645850408    1e-12          4.1009e-14    5.69619090909091    35.2727            27.6899918181818    -0.00110909090909091     -0.0197090909090909                       207.182272727273    302.900272727273    0.683998609090909    -46.687438221602    -74.0243190502437    
2022-04-22T17:09:08Z    31.6636666666667    -64.1648333333333    1188.5    -1176.9014143532     1e-12          4.1096e-14    5.6952              35.2726345454545   27.6900818181818    -0.00110909090909091     -0.0198                                   207.224363636364    302.907690909091    0.684116554545455    -46.687438221602    -74.0243190502437    
2022-04-22T17:09:08Z    31.6636666666667    -64.1648333333333    1189      -1177.40401718789    1e-12          4.11105e-14   5.69409090909091    35.2725554545455   27.6901590909091    -0.00110909090909091     -0.0198                                   207.319318181818    302.915990909091    0.684407945454546    -46.687438221602    -74.0243190502437    
2022-04-22T17:09:08Z    31.6636666666667    -64.1648333333333    1189.5    -1177.87600853587    1e-12          4.1154e-14    5.69243636363636    35.2724909090909   27.69031            -0.00177272727272727     -0.0198                                   207.410863636364    302.928227272727    0.684679545454545    -46.687438221602    -74.0243190502437    
2022-04-22T17:09:08Z    31.6636666666667    -64.1648333333333    1190      -1178.38157131595    1e-12          4.1183e-14    5.68981818181818    35.2722254545455   27.6903854545455    -0.00243636363636364     -0.0198                                   207.490409090909    302.947963636364    0.684897036363636    -46.687438221602    -74.0243190502437    
2022-04-22T17:09:08Z    31.6636666666667    -64.1648333333333    1190.5    -1178.87577750105    1e-12          4.1125e-14    5.68661363636364    35.2720154545455   27.6906145454545    -0.0031                  -0.0198                                   207.5615            302.971245454545    0.685079609090909    -46.687438221602    -74.0243190502437    
2022-04-22T17:09:08Z    31.6636666666667    -64.1648333333333    1191      -1179.36307057283    1e-12          4.1096e-14    5.68332727272727    35.2717581818182   27.6908290909091    -0.0031                  -0.0198                                   207.631045454546    302.995281818182    0.685255036363636    -46.687438221602    -74.0243190502437    
2022-04-22T17:09:08Z    31.6636666666667    -64.1648333333333    1191.5    -1179.89282153257    1e-12          4.09945e-14   5.67969090909091    35.2715145454546   27.6910927272727    -0.00243636363636364     -0.0198                                   207.723954545455    303.021645454545    0.685502854545455    -46.687438221602    -74.0243190502437    
2022-04-22T17:09:08Z    31.6636666666667    -64.1648333333333    1192      -1180.36233873918    1e-12          4.0951e-14    5.67588181818182    35.2711927272727   27.6913081818182    -0.0011                  -0.0197090909090909                       207.794272727273    303.049427272727    0.685670981818182    -46.687438221602    -74.0243190502437    
2022-04-22T17:09:08Z    31.6636666666667    -64.1648333333333    1192.5    -1180.84321015758    1e-12          4.0864e-14    5.67163181818182    35.2708072727273   27.6915263636364    -0.0011                  -0.0197090909090909                       207.844136363636    303.080436363636    0.6857656            -46.687438221602    -74.0243190502437    
2022-04-22T17:09:08Z    31.6636666666667    -64.1648333333333    1193      -1181.37345108903    1e-12          4.0893e-14    5.66720454545454    35.2704236363636   27.6917709090909    -0.00177272727272727     -0.0197090909090909                       207.869681818182    303.112763636364    0.685776809090909    -46.687438221602    -74.0243190502437    
2022-04-22T17:09:08Z    31.6636666666667    -64.1648333333333    1193.5    -1181.86073835598    1e-12          4.0836e-14    5.66204090909091    35.2698927272727   27.6920072727273    -0.00110909090909091     -0.0196181818181818                       207.943590909091    303.150736363636    0.685938954545455    -46.687438221602    -74.0243190502437    
2022-04-22T17:09:08Z    31.6636666666667    -64.1648333333333    1194      -1182.31741485964    1e-12          4.0893e-14    5.65602272727273    35.2693754545455   27.6923327272727    -0.000445454545454546    -0.0196181818181818                       208.031727272727    303.194572727273    0.6861319            -46.687438221602    -74.0243190502437    
2022-04-22T17:09:08Z    31.6636666666667    -64.1648333333333    1194.5    -1182.81062436507    1e-12          4.0893e-14    5.64984090909091    35.2688772727273   27.6927009090909    -0.00110909090909091     -0.0196181818181818                       208.137136363636    303.239545454545    0.686379990909091    -46.687438221602    -74.0243190502437    
2022-04-22T17:09:08Z    31.6636666666667    -64.1648333333333    1195      -1183.31666895005    1e-12          4.1009e-14    5.64422272727273    35.2684854545455   27.6930781818182    -0.000445454545454546    -0.0195272727272727                       208.2395            303.280072727273    0.6866288            -46.687438221602    -74.0243190502437    
2022-04-22T17:09:08Z    31.6636666666667    -64.1648333333333    1195.5    -1183.83406741866    1e-12          4.1154e-14    5.63971818181818    35.2681736363636   27.6934409090909    -0.000445454545454545    -0.0194363636363636                       208.342590909091    303.3123            0.686894781818182    -46.687438221602    -74.0243190502437    
2022-04-22T17:09:08Z    31.6636666666667    -64.1648333333333    1196      -1184.29715771368    1e-12          4.1271e-14    5.63563181818182    35.2677990909091   27.6936481818182    -0.000445454545454546    -0.0193454545454546                       208.448181818182    303.342172727273    0.687174545454545    -46.687438221602    -74.0243190502437    
2022-04-22T17:09:08Z    31.6636666666667    -64.1648333333333    1196.5    -1184.75481630696    1e-12          4.1301e-14    5.63148181818182    35.2674454545455   27.6938690909091    -0.00110909090909091     -0.0192545454545455                       208.543090909091    303.372363636364    0.687419581818182    -46.687438221602    -74.0243190502437    
2022-04-22T17:09:08Z    31.6636666666667    -64.1648333333333    1197      -1185.25986880751    1e-12          4.1183e-14    5.62741818181818    35.2670990909091   27.6940927272727    -0.00177272727272727     -0.0191636363636364                       208.638545454545    303.402072727273    0.687665490909091    -46.687438221602    -74.0243190502437    
2022-04-22T17:09:08Z    31.6636666666667    -64.1648333333333    1197.5    -1185.77528770006    1e-12          4.10815e-14   5.62334090909091    35.2667772727273   27.69434            -0.00310909090909091     -0.0192545454545455                       208.753045454545    303.431818181818    0.687975945454545    -46.687438221602    -74.0243190502437    
2022-04-22T17:09:08Z    31.6636666666667    -64.1648333333333    1198      -1186.27441340797    1e-12          4.1009e-14    5.61954545454545    35.2665609090909   27.6946463636364    -0.00444545454545455     -0.0192545454545455                       208.882090909091    303.459236363636    0.688339190909091    -46.687438221602    -74.0243190502437    
2022-04-22T17:09:08Z    31.6636666666667    -64.1648333333333    1198.5    -1186.72564966823    1e-12          4.09655e-14   5.61600909090909    35.2663336363636   27.6949045454545    -0.00510909090909091     -0.0191636363636364                       208.992136363636    303.484918181818    0.688643781818182    -46.687438221602    -74.0243190502437    
2022-04-22T17:09:08Z    31.6636666666667    -64.1648333333333    1199      -1187.25241988571    1e-12          4.0864e-14    5.61322727272727    35.2661972727273   27.6951236363636    -0.00510909090909091     -0.0191636363636364                       209.032             303.504918181818    0.688725845454546    -46.687438221602    -74.0243190502437    
2022-04-22T17:09:08Z    31.6636666666667    -64.1648333333333    1199.5    -1187.72142692665    1e-12          4.0893e-14    5.61144545454545    35.2661163636364   27.69528            -0.00510909090909091     -0.0190727272727273                       209.082636363636    303.517954545454    0.6888644            -46.687438221602    -74.0243190502437    
2022-04-22T17:09:08Z    31.6636666666667    -64.1648333333333    1200      -1188.26695484867    1e-12          4.0864e-14    5.60984090909091    35.2659963636364   27.69539            -0.00510909090909091     -0.0190727272727273                       209.144             303.529845454545    0.689038718181818    -46.687438221602    -74.0243190502437    
2022-04-22T17:09:08Z    31.6636666666667    -64.1648333333333    1200.5    -1188.72065527258    1e-12          4.0836e-14    5.60840454545455    35.2658409090909   27.6954545454545    -0.00510909090909091     -0.0190727272727273                       209.233636363636    303.540790909091    0.689305772727273    -46.687438221602    -74.0243190502437    
2022-04-22T17:09:08Z    31.6636666666667    -64.1648333333333    1201      -1189.19262115635    1e-12          4.0836e-14    5.60531818181818    35.2654309090909   27.6954690909091    -0.00444545454545455     -0.0191636363636364                       209.354772727273    303.564063636364    0.689641772727273    -46.687438221602    -74.0243190502437    
2022-04-22T17:09:08Z    31.6636666666667    -64.1648333333333    1201.5    -1189.71049881741    1e-12          4.0864e-14    5.60108636363636    35.2649854545455   27.6956354545454    -0.00378181818181818     -0.0192545454545455                       209.483727272727    303.5952            0.689987972727273    -46.687438221602    -74.0243190502437    
2022-04-22T17:09:08Z    31.6636666666667    -64.1648333333333    1202      -1190.23775521231    1e-12          4.0864e-14    5.59622272727273    35.2644563636364   27.6958081818182    -0.00378181818181818     -0.0193454545454546                       209.623636363636    303.631145454546    0.690364254545454    -46.687438221602    -74.0243190502437    
2022-04-22T17:09:08Z    31.6636666666667    -64.1648333333333    1202.5    -1190.8499239081     1e-12          4.1009e-14    5.59118636363636    35.2639490909091   27.6960181818182    -0.00311818181818182     -0.0194363636363636                       209.7355            303.667981818182    0.690649181818182    -46.687438221602    -74.0243190502437    
2022-04-22T17:09:08Z    31.6636666666667    -64.1648333333333    1203      -1191.04196678232    1e-12          4.1213e-14    5.58575909090909    35.2633136363636   27.69618            -0.00245454545454546     -0.0194363636363636                       209.819             303.707909090909    0.690832590909091    -46.687438221602    -74.0243190502437    
2022-04-22T17:09:08Z    31.6636666666667    -64.1648333333333    1203.5    -1191.66400676165    1e-12          4.1213e-14    5.58005909090909    35.2626436363636   27.6963463636364    -0.00179090909090909     -0.0193454545454546                       209.875590909091    303.749963636364    0.690923245454545    -46.687438221602    -74.0243190502437    
2022-04-22T17:09:08Z    31.6636666666667    -64.1648333333333    1204      -1192.22976533161    1e-12          4.1183e-14    5.57412727272727    35.2620036363636   27.69657            -0.00112727272727273     -0.0193454545454546                       209.919318181818    303.793618181818    0.690967536363636    -46.687438221602    -74.0243190502437    
2022-04-22T17:09:08Z    31.6636666666667    -64.1648333333333    1204.5    -1192.70567275515    1e-12          4.1096e-14    5.56813636363636    35.2613454545454   27.6967972727273    -0.00112727272727273     -0.0193454545454546                       209.984909090909    303.837745454545    0.691083681818182    -46.687438221602    -74.0243190502437    
2022-04-22T17:09:08Z    31.6636666666667    -64.1648333333333    1205      -1193.18059174261    1e-12          4.10815e-14   5.56198181818182    35.2606845454545   27.6970209090909    -0.00112727272727273     -0.0194363636363636                       210.032863636364    303.882954545455    0.691137927272727    -46.687438221602    -74.0243190502437    
2022-04-22T17:09:08Z    31.6636666666667    -64.1648333333333    1205.5    -1193.6772314453     1e-12          4.10235e-14   5.55610454545455    35.2600527272727   27.6972409090909    -0.000463636363636364    -0.0194363636363636                       210.057681818182    303.926136363636    0.691122018181818    -46.687438221602    -74.0243190502437    
2022-04-22T17:09:08Z    31.6636666666667    -64.1648333333333    1206      -1194.14967985336    1e-12          4.098e-14     5.55010454545454    35.2593863636364   27.6974409090909    -0.000463636363636364    -0.0195272727272727                       210.059227272727    303.970118181818    0.6910303            -46.687438221602    -74.0243190502437    
2022-04-22T17:09:08Z    31.6636666666667    -64.1648333333333    1206.5    -1194.69815310919    1e-12          4.1009e-14    5.54584090909091    35.2590254545455   27.6977109090909    -0.000463636363636364    -0.0195272727272727                       210.047409090909    304.001036363636    0.690932509090909    -46.687438221602    -74.0243190502437    
2022-04-22T17:09:08Z    31.6636666666667    -64.1648333333333    1207      -1195.12468757422    1e-12          4.098e-14     5.54307727272727    35.2586954545455   27.6977990909091    -0.000463636363636364    -0.0195272727272727                       210.086             304.021681818182    0.691018945454545    -46.687438221602    -74.0243190502437    
2022-04-22T17:09:08Z    31.6636666666667    -64.1648333333333    1207.5    -1195.69043681143    1e-12          4.0922e-14    5.54124090909091    35.2584536363636   27.6978527272727    0.0002                   -0.0194363636363636                       210.154545454545    304.035554545455    0.691211372727273    -46.687438221602    -74.0243190502437    
2022-04-22T17:09:08Z    31.6636666666667    -64.1648333333333    1208      -1196.1663363845     1e-12          4.0951e-14    5.53962272727273    35.2581454545455   27.6978154545455    0.0002                   -0.0193454545454546                       210.280409090909    304.048109090909    0.6915957            -46.687438221602    -74.0243190502437    
2022-04-22T17:09:08Z    31.6636666666667    -64.1648333333333    1208.5    -1196.6412475379     1e-12          4.0922e-14    5.53725454545455    35.2575927272727   27.69765            0.0002                   -0.0193454545454546                       210.424             304.066563636364    0.692022436363636    -46.687438221602    -74.0243190502437    
2022-04-22T17:09:08Z    31.6636666666667    -64.1648333333333    1209      -1197.18971427724    1e-12          4.09365e-14   5.53403636363636    35.2571681818182   27.6977063636364    -0.000463636363636364    -0.0194363636363636                       210.577909090909    304.090618181818    0.692475090909091    -46.687438221602    -74.0243190502437    
2022-04-22T17:09:08Z    31.6636666666667    -64.1648333333333    1209.5    -1197.73225557552    1e-12          4.098e-14     5.5309              35.2567627272727   27.6977645454545    -0.000463636363636364    -0.0194363636363636                       210.777818181818    304.113936363636    0.693080127272727    -46.687438221602    -74.0243190502437    
2022-04-22T17:09:08Z    31.6636666666667    -64.1648333333333    1210      -1198.01956987062    1e-12          4.1038e-14    5.52772727272727    35.2563781818182   27.6978354545455    -0.00112727272727273     -0.0194363636363636                       210.946818181818    304.137472727273    0.6935823            -46.687438221602    -74.0243190502437    
2022-04-22T17:09:08Z    31.6636666666667    -64.1648333333333    1210.5    -1198.63467784622    1e-12          4.1067e-14    5.52476363636364    35.2559772727273   27.6978881818182    -0.00179090909090909     -0.0193454545454546                       211.080545454546    304.159481818182    0.693972790909091    -46.687438221602    -74.0243190502437    
2022-04-22T17:09:08Z    31.6636666666667    -64.1648333333333    1211      -1199.06120430265    1e-12          4.1067e-14    5.52172727272727    35.2555745454545   27.6979363636364    -0.00179090909090909     -0.0193454545454546                       211.190090909091    304.182163636364    0.694281436363636    -46.687438221602    -74.0243190502437    
2022-04-22T17:09:08Z    31.6636666666667    -64.1648333333333    1211.5    -1199.58547522988    1e-12          4.1096e-14    5.51880909090909    35.25522           27.6980172727273    -0.00179090909090909     -0.0193454545454546                       211.2815            304.203927272727    0.694532409090909    -46.687438221602    -74.0243190502437    
2022-04-22T17:09:08Z    31.6636666666667    -64.1648333333333    1212      -1200.0845680808     1e-12          4.10815e-14   5.51586363636364    35.2547945454545   27.6980318181818    -0.00245454545454545     -0.0193454545454546                       211.382045454545    304.2263            0.6948134            -46.687438221602    -74.0243190502437    
2022-04-22T17:09:08Z    31.6636666666667    -64.1648333333333    1212.5    -1200.60291251634    1e-12          4.1067e-14    5.51223636363636    35.2541963636364   27.6980145454545    -0.00311818181818182     -0.0193454545454546                       211.472272727273    304.253527272727    0.695048963636364    -46.687438221602    -74.0243190502437    
2022-04-22T17:09:08Z    31.6636666666667    -64.1648333333333    1213      -1201.05362430516    1e-12          4.1067e-14    5.50735             35.2535418181818   27.6980927272727    -0.00378181818181818     -0.0193454545454546                       211.546954545455    304.289618181818    0.695214872727273    -46.687438221602    -74.0243190502437    
2022-04-22T17:09:08Z    31.6636666666667    -64.1648333333333    1213.5    -1201.5778902428     1e-12          4.1009e-14    5.50224090909091    35.2529372727273   27.6982445454545    -0.00378181818181818     -0.0194363636363636                       211.566045454545    304.327545454545    0.695191936363636    -46.687438221602    -74.0243190502437    
2022-04-22T17:09:08Z    31.6636666666667    -64.1648333333333    1214      -1202.07747201725    1e-12          4.1038e-14    5.49789545454546    35.2525918181818   27.6985409090909    -0.00378181818181818     -0.0194363636363636                       211.6035            304.359309090909    0.695247772727273    -46.687438221602    -74.0243190502437    
2022-04-22T17:09:08Z    31.6636666666667    -64.1648333333333    1214.5    -1202.52867429492    1e-12          4.1009e-14    5.49407727272727    35.2520572727273   27.6985663636364    -0.00311818181818182     -0.0194363636363636                       211.674909090909    304.388081818182    0.695416945454545    -46.687438221602    -74.0243190502437    
2022-04-22T17:09:08Z    31.6636666666667    -64.1648333333333    1215      -1203.0460253826     1e-12          4.1009e-14    5.48984090909091    35.2514381818182   27.6985836363636    -0.00444545454545455     -0.0194363636363636                       211.722227272727    304.42              0.695501827272727    -46.687438221602    -74.0243190502437    
2022-04-22T17:09:08Z    31.6636666666667    -64.1648333333333    1215.5    -1203.54609730988    1e-12          4.1038e-14    5.48553181818182    35.2507945454546   27.6986145454545    -0.00510909090909091     -0.0194363636363636                       211.7635            304.4523            0.695562718181818    -46.687438221602    -74.0243190502437    
2022-04-22T17:09:08Z    31.6636666666667    -64.1648333333333    1216      -1203.99779008226    1e-12          4.1096e-14    5.47961363636364    35.2495981818182   27.6983990909091    -0.00577272727272727     -0.0194363636363636                       211.8295            304.497845454546    0.695677472727273    -46.687438221602    -74.0243190502437    
2022-04-22T17:09:08Z    31.6636666666667    -64.1648333333333    1216.5    -1204.52204866941    1e-12          4.1096e-14    5.47253181818182    35.2486427272727   27.6985072727273    -0.00643636363636364     -0.0193454545454546                       211.922409090909    304.550627272727    0.695864845454546    -46.687438221602    -74.0243190502437    
2022-04-22T17:09:08Z    31.6636666666667    -64.1648333333333    1217      -1204.94856316386    1e-12          4.1125e-14    5.46516363636364    35.2476345454545   27.6985963636364    -0.0071                  -0.0192545454545455                       212.040636363636    304.605281818182    0.696128627272727    -46.687438221602    -74.0243190502437    
2022-04-22T17:09:08Z    31.6636666666667    -64.1648333333333    1217.5    -1205.49404629337    1e-12          4.1067e-14    5.45708181818182    35.2464381818182   27.6986309090909    -0.0071                  -0.0191636363636364                       212.140454545455    304.6653            0.696322072727273    -46.687438221602    -74.0243190502437    
2022-04-22T17:09:08Z    31.6636666666667    -64.1648333333333    1218      -1206.03952800704    1e-12          4.1067e-14    5.44741363636364    35.2452427272727   27.6988590909091    -0.00643636363636364     -0.0190727272727273                       212.206045454545    304.736672727273    0.696381772727273    -46.687438221602    -74.0243190502437    
2022-04-22T17:09:08Z    31.6636666666667    -64.1648333333333    1218.5    -1206.53564362641    1e-12          4.1009e-14    5.43851818181818    35.2442572727273   27.6991390909091    -0.00643636363636364     -0.0190727272727273                       212.247772727273    304.802409090909    0.696366081818182    -46.687438221602    -74.0243190502437    
2022-04-22T17:09:08Z    31.6636666666667    -64.1648333333333    1219      -1207.03866911376    1e-12          4.0951e-14    5.43053636363636    35.2432436363636   27.6992863636364    -0.0071                  -0.0189818181818182                       212.319772727273    304.861345454545    0.696467881818182    -46.687438221602    -74.0243190502437    
2022-04-22T17:09:08Z    31.6636666666667    -64.1648333333333    1219.5    -1207.48640520867    1e-12          4.09655e-14   5.42308181818182    35.2421836363636   27.6993145454545    -0.00776363636363636     -0.0188909090909091                       212.430227272727    304.9169            0.696696618181818    -46.687438221602    -74.0243190502437    
2022-04-22T17:09:08Z    31.6636666666667    -64.1648333333333    1220      -1207.98350469702    1e-12          4.0922e-14    5.41462272727273    35.2410254545455   27.6994336363636    -0.00842727272727273     -0.0188909090909091                       212.513272727273    304.9796            0.696823709090909    -46.687438221602    -74.0243190502437    
2022-04-22T17:09:08Z    31.6636666666667    -64.1648333333333    1220.5    -1208.45838910479    1e-12          4.0951e-14    5.40657727272727    35.2399345454545   27.6995518181818    -0.00776363636363636     -0.0189818181818182                       212.565590909091    305.0393            0.696855827272727    -46.687438221602    -74.0243190502437    
2022-04-22T17:09:08Z    31.6636666666667    -64.1648333333333    1221      -1209.02854515515    1e-12          4.0922e-14    5.39862272727273    35.2388881818182   27.6996663636364    -0.0071                  -0.0190727272727273                       212.623318181818    305.098409090909    0.696910118181818    -46.687438221602    -74.0243190502437    
2022-04-22T17:09:08Z    31.6636666666667    -64.1648333333333    1221.5    -1209.45850597481    1e-12          4.1067e-14    5.39221363636364    35.2383763636364   27.7000227272727    -0.00643636363636364     -0.0190727272727273                       212.7175            305.144790909091    0.697111172727273    -46.687438221602    -74.0243190502437    
2022-04-22T17:09:08Z    31.6636666666667    -64.1648333333333    1222      -1209.93141248956    1e-12          4.1154e-14    5.38703181818182    35.2376245454545   27.7000472727273    -0.00643636363636364     -0.0190727272727273                       212.754272727273    305.183409090909    0.697141054545454    -46.687438221602    -74.0243190502437    
2022-04-22T17:09:08Z    31.6636666666667    -64.1648333333333    1222.5    -1210.43393619714    1e-12          4.1183e-14    5.38207727272727    35.2369009090909   27.7000836363636    -0.00643636363636364     -0.0190727272727273                       212.819181818182    305.220772727273    0.6972675            -46.687438221602    -74.0243190502437    
2022-04-22T17:09:08Z    31.6636666666667    -64.1648333333333    1223      -1210.93349688558    1e-12          4.1125e-14    5.37799545454545    35.2364690909091   27.7002418181818    -0.00643636363636364     -0.0190727272727273                       212.871545454545    305.251081818182    0.697365109090909    -46.687438221602    -74.0243190502437    
2022-04-22T17:09:08Z    31.6636666666667    -64.1648333333333    1223.5    -1211.40245099385    1e-12          4.1096e-14    5.37607272727273    35.2362009090909   27.7002418181818    -0.0071                  -0.0190727272727273                       212.923             305.2659            0.697492072727273    -46.687438221602    -74.0243190502437    
2022-04-22T17:09:08Z    31.6636666666667    -64.1648333333333    1224      -1211.92669108282    1e-12          4.1096e-14    5.3746              35.2358109090909   27.7001290909091    -0.0071                  -0.0190727272727273                       213.002409090909    305.277590909091    0.697726218181818    -46.687438221602    -74.0243190502437    
2022-04-22T17:09:08Z    31.6636666666667    -64.1648333333333    1224.5    -1212.42378005006    1e-12          4.10235e-14   5.3726              35.2353936363636   27.70005            -0.0071                  -0.0190727272727273                       213.108045454545    305.293281818182    0.698036727272727    -46.687438221602    -74.0243190502437    
2022-04-22T17:09:08Z    31.6636666666667    -64.1648333333333    1225      -1212.92037420451    1e-12          4.098e-14     5.37050909090909    35.2351345454545   27.7001190909091    -0.0071                  -0.0190727272727273                       213.181045454545    305.309063636364    0.698244245454545    -46.687438221602    -74.0243190502437    
2022-04-22T17:09:08Z    31.6636666666667    -64.1648333333333    1225.5    -1213.35328883767    1e-12          4.098e-14     5.36988636363636    35.2349954545455   27.7000863636364    -0.0071                  -0.0189818181818182                       213.203090909091    305.314245454545    0.6983046            -46.687438221602    -74.0243190502437    
2022-04-22T17:09:08Z    31.6636666666667    -64.1648333333333    1226      -1213.91997618474    1e-12          4.0951e-14    5.36920454545455    35.2348063636364   27.7000227272727    -0.0071                  -0.0188909090909091                       213.256909090909    305.319763636364    0.698467890909091    -46.687438221602    -74.0243190502437    
2022-04-22T17:09:08Z    31.6636666666667    -64.1648333333333    1226.5    -1214.39484716404    1e-12          4.0893e-14    5.36865             35.2346218181818   27.6999481818182    -0.00576363636363636     -0.0188                                   213.350181818182    305.324509090909    0.698762963636364    -46.687438221602    -74.0243190502437    
2022-04-22T17:09:08Z    31.6636666666667    -64.1648333333333    1227      -1214.87070431901    1e-12          4.0922e-14    5.36810454545455    35.2344436363636   27.6998845454545    -0.0051                  -0.0188                                   213.411454545455    305.329245454545    0.698952545454545    -46.687438221602    -74.0243190502437    
2022-04-22T17:09:08Z    31.6636666666667    -64.1648333333333    1227.5    -1215.39493574492    1e-12          4.0893e-14    5.36733181818182    35.2342409090909   27.6998218181818    -0.0051                  -0.0188                                   213.501136363636    305.335463636364    0.699233109090909    -46.687438221602    -74.0243190502437    
2022-04-22T17:09:08Z    31.6636666666667    -64.1648333333333    1228      -1215.90633161812    1e-12          4.0864e-14    5.3665              35.2340636363636   27.6997809090909    -0.0051                  -0.0188                                   213.551136363636    305.342036363636    0.699382163636364    -46.687438221602    -74.0243190502437    
2022-04-22T17:09:08Z    31.6636666666667    -64.1648333333333    1228.5    -1216.4310540808     1e-12          4.0922e-14    5.36549090909091    35.2338245454546   27.6996963636364    -0.0051                  -0.0188                                   213.617318181818    305.350190909091    0.699580518181818    -46.687438221602    -74.0243190502437    
2022-04-22T17:09:08Z    31.6636666666667    -64.1648333333333    1229      -1216.76030071371    1e-12          4.1096e-14    5.36431818181818    35.2335927272727   27.6996572727273    -0.0051                  -0.0188                                   213.649909090909    305.359381818182    0.699666609090909    -46.687438221602    -74.0243190502437    
2022-04-22T17:09:08Z    31.6636666666667    -64.1648333333333    1229.5    -1217.37634100228    1e-12          4.1183e-14    5.36306363636364    35.2333818181818   27.6996381818182    -0.00443636363636364     -0.0188                                   213.649272727273    305.369118181818    0.699644309090909    -46.687438221602    -74.0243190502437    
2022-04-22T17:09:08Z    31.6636666666667    -64.1648333333333    1230      -1217.90056617006    1e-12          4.1242e-14    5.36177272727273    35.2331336363636   27.6995881818182    -0.00377272727272727     -0.0188                                   213.629909090909    305.379336363636    0.699556963636364    -46.687438221602    -74.0243190502437    
2022-04-22T17:09:08Z    31.6636666666667    -64.1648333333333    1230.5    -1218.37641537706    1e-12          4.1213e-14    5.36026363636364    35.2328763636364   27.6995645454545    -0.00310909090909091     -0.0188                                   213.580454545455    305.391009090909    0.6993692            -46.687438221602    -74.0243190502437    
2022-04-22T17:09:08Z    31.6636666666667    -64.1648333333333    1231      -1218.86411033291    1e-12          4.1183e-14    5.35843636363636    35.2325645454545   27.6995145454546    -0.00244545454545455     -0.0188                                   213.574             305.405345454545    0.699315518181818    -46.687438221602    -74.0243190502437    
2022-04-22T17:09:08Z    31.6636666666667    -64.1648333333333    1231.5    -1219.33897012218    1e-12          4.1067e-14    5.35636363636364    35.2323954545455   27.6996363636364    -0.00178181818181818     -0.0188                                   213.565363636364    305.420763636364    0.699252381818182    -46.687438221602    -74.0243190502437    
2022-04-22T17:09:08Z    31.6636666666667    -64.1648333333333    1232      -1219.8508499945     1e-12          4.1038e-14    5.35425909090909    35.2323072727273   27.6998209090909    -0.00245454545454546     -0.0188                                   213.559318181818    305.436209090909    0.6991972            -46.687438221602    -74.0243190502437    
2022-04-22T17:09:08Z    31.6636666666667    -64.1648333333333    1232.5    -1220.36963923263    1e-12          4.1009e-14    5.35208636363636    35.2321772727273   27.6999709090909    -0.00245454545454546     -0.0188                                   213.550136363636    305.452272727273    0.699130345454546    -46.687438221602    -74.0243190502437    
2022-04-22T17:09:08Z    31.6636666666667    -64.1648333333333    1233      -1220.80796824007    1e-12          4.0922e-14    5.34981818181818    35.2320472727273   27.7001336363636    -0.00179090909090909     -0.0188                                   213.564             305.469109090909    0.699137836363636    -46.687438221602    -74.0243190502437    
2022-04-22T17:09:08Z    31.6636666666667    -64.1648333333333    1233.5    -1221.27097694082    1e-12          4.0893e-14    5.3478              35.2319572727273   27.70029            -0.00179090909090909     -0.0188                                   213.599454545455    305.483945454545    0.6992197            -46.687438221602    -74.0243190502437    
2022-04-22T17:09:08Z    31.6636666666667    -64.1648333333333    1234      -1221.78926905109    1e-12          4.0922e-14    5.34536818181818    35.2318463636364   27.7005118181818    -0.00112727272727273     -0.0188                                   213.713045454545    305.501763636364    0.699550763636363    -46.687438221602    -74.0243190502437    
2022-04-22T17:09:08Z    31.6636666666667    -64.1648333333333    1234.5    -1222.32286178177    1e-12          4.0864e-14    5.34285454545455    35.2317072727273   27.7007072727273    -0.000463636363636364    -0.0188                                   213.849363636364    305.520354545455    0.699953454545455    -46.687438221602    -74.0243190502437    
2022-04-22T17:09:08Z    31.6636666666667    -64.1648333333333    1235      -1222.83769603594    1e-12          4.0922e-14    5.33972272727273    35.23117           27.7007036363636    0.000209090909090909     -0.0188                                   213.977409090909    305.544218181818    0.700302472727273    -46.687438221602    -74.0243190502437    
2022-04-22T17:09:08Z    31.6636666666667    -64.1648333333333    1235.5    -1223.36832445851    1e-12          4.0922e-14    5.33491363636364    35.2307781818182   27.7009818181818    0.000881818181818182     -0.0188                                   214.080590909091    305.579554545455    0.700557272727273    -46.687438221602    -74.0243190502437    
2022-04-22T17:09:08Z    31.6636666666667    -64.1648333333333    1236      -1223.64326349519    1e-12          4.1213e-14    5.32998636363636    35.2304163636364   27.70128            0.00155454545454545      -0.0188                                   214.186863636364    305.615909090909    0.700821036363636    -46.687438221602    -74.0243190502437    
2022-04-22T17:09:08Z    31.6636666666667    -64.1648333333333    1236.5    -1224.27113010646    1e-12          4.1154e-14    5.32543181818182    35.2301218181818   27.7016172727273    0.00155454545454545      -0.0188                                   214.296045454545    305.648954545455    0.701100745454545    -46.687438221602    -74.0243190502437    
2022-04-22T17:09:08Z    31.6636666666667    -64.1648333333333    1237      -1224.7222846703     1e-12          4.1096e-14    5.32085             35.2296645454545   27.7017954545455    0.00155454545454545      -0.0188                                   214.375181818182    305.683127272727    0.701282790909091    -46.687438221602    -74.0243190502437    
2022-04-22T17:09:08Z    31.6636666666667    -64.1648333333333    1237.5    -1225.25883155915    1e-12          4.1038e-14    5.31580909090909    35.2290209090909   27.7018836363636    0.00155454545454545      -0.0188                                   214.4345            305.720581818182    0.701391963636364    -46.687438221602    -74.0243190502437    
2022-04-22T17:09:08Z    31.6636666666667    -64.1648333333333    1238      -1225.75835696834    1e-12          4.0951e-14    5.31065454545455    35.2283545454545   27.7019827272727    0.00122272727272727      -0.0188                                   214.486545454545    305.759309090909    0.701473727272727    -46.687438221602    -74.0243190502437    
2022-04-22T17:09:08Z    31.6636666666667    -64.1648333333333    1238.5    -1226.24307317245    1e-12          4.09655e-14   5.30561363636364    35.2278345454545   27.7021836363636    0.00122272727272727      -0.0188                                   214.495954545455    305.796854545455    0.701417172727273    -46.687438221602    -74.0243190502437    
2022-04-22T17:09:08Z    31.6636666666667    -64.1648333333333    1239      -1226.73420504809    1e-12          4.0922e-14    5.30052272727273    35.2272718181818   27.7023627272727    0.00188636363636364      -0.0188                                   214.482590909091    305.834881818182    0.701287190909091    -46.687438221602    -74.0243190502437    
2022-04-22T17:09:08Z    31.6636666666667    -64.1648333333333    1239.5    -1227.21546380787    1e-12          4.0922e-14    5.29590909090909    35.2267054545455   27.7024727272727    0.00188636363636364      -0.0188                                   214.410409090909    305.869409090909    0.700971572727273    -46.687438221602    -74.0243190502437    
2022-04-22T17:09:08Z    31.6636666666667    -64.1648333333333    1240      -1227.72781807613    1e-12          4.0951e-14    5.29134090909091    35.2261845454545   27.7026090909091    0.00188636363636364      -0.0188                                   214.384272727273    305.903463636364    0.700808027272727    -46.687438221602    -74.0243190502437    
2022-04-22T17:09:08Z    31.6636666666667    -64.1648333333333    1240.5    -1228.22733761067    1e-12          4.0922e-14    5.28723636363636    35.2260345454546   27.7029345454545    0.00055                  -0.0188                                   214.408090909091    305.933409090909    0.700830627272727    -46.687438221602    -74.0243190502437    
2022-04-22T17:09:08Z    31.6636666666667    -64.1648333333333    1241      -1228.69674668031    1e-12          4.0922e-14    5.28311363636364    35.2256190909091   27.7031036363636    -0.000122727272727273    -0.0188                                   214.464863636364    305.964027272727    0.700952490909091    -46.687438221602    -74.0243190502437    
2022-04-22T17:09:08Z    31.6636666666667    -64.1648333333333    1241.5    -1229.24562325028    1e-12          4.098e-14     5.27865909090909    35.2251045454545   27.7032218181818    -0.000795454545454545    -0.0188                                   214.531227272727    305.997363636364    0.701097281818182    -46.687438221602    -74.0243190502437    
2022-04-22T17:09:08Z    31.6636666666667    -64.1648333333333    1242      -1229.72045955693    1e-12          4.1009e-14    5.27393181818182    35.2246490909091   27.7034227272727    -0.00145909090909091     -0.0188                                   214.573863636364    306.032518181818    0.701157854545455    -46.687438221602    -74.0243190502437    
2022-04-22T17:09:08Z    31.6636666666667    -64.1648333333333    1242.5    -1230.24564108194    1e-12          4.1183e-14    5.26954090909091    35.2241963636364   27.7035918181818    -0.00179090909090909     -0.0188                                   214.640363636364    306.065181818182    0.701299536363636    -46.687438221602    -74.0243190502437    
2022-04-22T17:09:08Z    31.6636666666667    -64.1648333333333    1243      -1230.72096871685    1e-12          4.133e-14     5.26549545454546    35.2238445454545   27.7038018181818    -0.00245454545454545     -0.0188909090909091                       214.714727272727    306.0955            0.701471790909091    -46.687438221602    -74.0243190502437    
2022-04-22T17:09:08Z    31.6636666666667    -64.1648333333333    1243.5    -1231.14792356704    1e-12          4.1213e-14    5.26108636363636    35.2234054545454   27.7039727272727    -0.00212272727272727     -0.0189818181818182                       214.800681818182    306.1282            0.701677509090909    -46.687438221602    -74.0243190502437    
2022-04-22T17:09:08Z    31.6636666666667    -64.1648333333333    1244      -1231.67211434606    1e-12          4.1125e-14    5.25665909090909    35.2229572727273   27.7041436363636    -0.00278636363636364     -0.0190727272727273                       214.920818181818    306.161118181818    0.701994054545454    -46.687438221602    -74.0243190502437    
2022-04-22T17:09:08Z    31.6636666666667    -64.1648333333333    1244.5    -1232.23875224728    1e-12          4.098e-14     5.25200454545455    35.2225072727273   27.7043372727273    -0.00345                 -0.0190727272727273                       215.044727272727    306.195618181818    0.702319454545454    -46.687438221602    -74.0243190502437    
2022-04-22T17:09:08Z    31.6636666666667    -64.1648333333333    1245      -1232.69038327584    1e-12          4.0922e-14    5.24745             35.2221090909091   27.7045572727273    -0.00345                 -0.0190727272727273                       215.140681818182    306.229418181818    0.702556154545454    -46.687438221602    -74.0243190502437    
2022-04-22T17:09:08Z    31.6636666666667    -64.1648333333333    1245.5    -1233.23875582303    1e-12          4.0893e-14    5.24305             35.2217236363636   27.7047727272727    -0.00411363636363636     -0.0190727272727273                       215.215318181818    306.262054545455    0.702725536363636    -46.687438221602    -74.0243190502437    
2022-04-22T17:09:08Z    31.6636666666667    -64.1648333333333    1246      -1233.71457026485    1e-12          4.0864e-14    5.23865909090909    35.2211836363636   27.7048890909091    -0.00411363636363636     -0.0190727272727273                       215.281             306.2951            0.702865381818182    -46.687438221602    -74.0243190502437    
2022-04-22T17:09:08Z    31.6636666666667    -64.1648333333333    1246.5    -1234.14151902202    1e-12          4.0836e-14    5.23597272727273    35.2208963636364   27.7049672727273    -0.00411363636363636     -0.0190727272727273                       215.377954545455    306.315281818182    0.703130663636364    -46.687438221602    -74.0243190502437    
2022-04-22T17:09:08Z    31.6636666666667    -64.1648333333333    1247      -1234.66520875249    1e-12          4.0864e-14    5.2339              35.22069           27.7050618181818    -0.00477727272727273     -0.0190727272727273                       215.492681818182    306.330963636364    0.703466345454545    -46.687438221602    -74.0243190502437    
2022-04-22T17:09:08Z    31.6636666666667    -64.1648333333333    1247.5    -1235.09264916201    1e-12          4.0864e-14    5.23043636363636    35.2197881818182   27.7047436363636    -0.00477727272727273     -0.0190727272727273                       215.668045454546    306.3582            0.703967390909091    -46.687438221602    -74.0243190502437    
2022-04-22T17:09:08Z    31.6636666666667    -64.1648333333333    1248      -1235.61683009305    1e-12          4.0836e-14    5.22629545454545    35.2193609090909   27.7048963636364    -0.00510909090909091     -0.0190727272727273                       215.839545454545    306.389136363636    0.704456372727273    -46.687438221602    -74.0243190502437    
2022-04-22T17:09:08Z    31.6636666666667    -64.1648333333333    1248.5    -1236.18345734899    1e-12          4.0893e-14    5.22131363636364    35.2187290909091   27.7049854545455    -0.00444545454545455     -0.0189818181818182                       216.030636363636    306.426554545455    0.704990563636364    -46.687438221602    -74.0243190502437    
2022-04-22T17:09:08Z    31.6636666666667    -64.1648333333333    1249      -1236.70862270872    1e-12          4.1242e-14    5.21659545454545    35.2184281818182   27.7053081818182    -0.00444545454545455     -0.0188909090909091                       216.212090909091    306.461318181818    0.705502545454545    -46.687438221602    -74.0243190502437    
2022-04-22T17:09:08Z    31.6636666666667    -64.1648333333333    1249.5    -1237.06251629262    1e-12          4.1242e-14    5.21205             35.2180236363636   27.7055218181818    -0.00378181818181818     -0.0188                                   216.353227272727    306.495081818182    0.705885118181818    -46.687438221602    -74.0243190502437    
2022-04-22T17:09:08Z    31.6636666666667    -64.1648333333333    1250      -1237.56250719083    1e-12          4.1154e-14    5.20759545454546    35.2176254545455   27.7057381818182    -0.00311818181818182     -0.0188                                   216.458863636364    306.528245454545    0.706153609090909    -46.687438221602    -74.0243190502437    
2022-04-22T17:09:08Z    31.6636666666667    -64.1648333333333    1250.5    -1238.11086701149    1e-12          4.10815e-14   5.20316818181818    35.2172281818182   27.7059509090909    -0.00311818181818182     -0.0188                                   216.545772727273    306.5612            0.706360381818182    -46.687438221602    -74.0243190502437    
2022-04-22T17:09:08Z    31.6636666666667    -64.1648333333333    1251      -1238.60493255694    1e-12          4.098e-14     5.19875909090909    35.21682           27.7061472727273    -0.00245454545454546     -0.0188                                   216.603681818182    306.594027272727    0.706473636363636    -46.687438221602    -74.0243190502437    
2022-04-22T17:09:08Z    31.6636666666667    -64.1648333333333    1251.5    -1239.08073483926    1e-12          4.0922e-14    5.19453181818182    35.2165554545454   27.7064136363636    -0.00179090909090909     -0.0188                                   216.632636363636    306.625118181818    0.706496409090909    -46.687438221602    -74.0243190502437    
2022-04-22T17:09:08Z    31.6636666666667    -64.1648333333333    1252      -1239.60490581511    1e-12          4.0893e-14    5.19045909090909    35.2162381818182   27.7066554545455    -0.00245454545454546     -0.0188                                   216.621545454545    306.655463636364    0.706390509090909    -46.687438221602    -74.0243190502437    
2022-04-22T17:09:08Z    31.6636666666667    -64.1648333333333    1252.5    -1240.08021225812    1e-12          4.08785e-14   5.18643181818182    35.2158845454545   27.7068572727273    -0.00179090909090909     -0.0188                                   216.603454545455    306.6853            0.706261745454546    -46.687438221602    -74.0243190502437    
2022-04-22T17:09:08Z    31.6636666666667    -64.1648333333333    1253      -1240.55551763671    1e-12          4.0836e-14    5.18400454545455    35.21616           27.7073863636364    -0.00112727272727273     -0.0188                                   216.551818181818    306.702345454545    0.706062645454545    -46.687438221602    -74.0243190502437    
2022-04-22T17:09:08Z    31.6636666666667    -64.1648333333333    1253.5    -1241.08067206258    1e-12          4.0864e-14    5.18239090909091    35.21601           27.7074672727273    -0.000463636363636364    -0.0188                                   216.581136363636    306.714654545454    0.706131045454545    -46.687438221602    -74.0243190502437    
2022-04-22T17:09:08Z    31.6636666666667    -64.1648333333333    1254      -1241.58657616477    1e-12          4.0864e-14    5.18173636363636    35.2160127272727   27.70757            -0.000463636363636364    -0.0188                                   216.627409090909    306.719490909091    0.706274472727273    -46.687438221602    -74.0243190502437    
2022-04-22T17:09:08Z    31.6636666666667    -64.1648333333333    1254.5    -1242.07372364673    1e-12          4.0864e-14    5.18101363636364    35.2158872727273   27.7075563636364    -0.00112727272727273     -0.0188                                   216.712772727273    306.725309090909    0.706539854545455    -46.687438221602    -74.0243190502437    
2022-04-22T17:09:08Z    31.6636666666667    -64.1648333333333    1255      -1242.54951806985    1e-12          4.0893e-14    5.18033181818182    35.21577           27.7075527272727    -0.00179090909090909     -0.0188                                   216.835136363636    306.730881818182    0.706926118181818    -46.687438221602    -74.0243190502437    
2022-04-22T17:09:08Z    31.6636666666667    -64.1648333333333    1255.5    -1243.04406673228    1e-12          4.0922e-14    5.17961363636364    35.2156318181818   27.7075281818182    -0.00179090909090909     -0.0188                                   216.983227272727    306.736718181818    0.707395154545455    -46.687438221602    -74.0243190502437    
2022-04-22T17:09:08Z    31.6636666666667    -64.1648333333333    1256      -1243.55045966489    1e-12          4.1154e-14    5.17889545454546    35.2155254545454   27.7075336363636    -0.00179090909090909     -0.0188                                   217.116772727273    306.742354545455    0.707817590909091    -46.687438221602    -74.0243190502437    
2022-04-22T17:09:08Z    31.6636666666667    -64.1648333333333    1256.5    -1243.97788198915    1e-12          4.1125e-14    5.17818181818182    35.2154027272727   27.7075272727273    -0.00179090909090909     -0.0188                                   217.2505            306.748072727273    0.708240409090909    -46.687438221602    -74.0243190502437    
2022-04-22T17:09:08Z    31.6636666666667    -64.1648333333333    1257      -1244.53264130455    1e-12          4.1096e-14    5.17746818181818    35.2153            27.7075372727273    -0.00179090909090909     -0.0188                                   217.3755            306.753772727273    0.708634936363636    -46.687438221602    -74.0243190502437    
2022-04-22T17:09:08Z    31.6636666666667    -64.1648333333333    1257.5    -1245.02323684403    1e-12          4.1067e-14    5.17675             35.2151709090909   27.7075236363636    -0.00112727272727273     -0.0188                                   217.470136363636    306.759581818182    0.708929963636364    -46.687438221602    -74.0243190502437    
2022-04-22T17:09:08Z    31.6636666666667    -64.1648333333333    1258      -1245.50790858308    1e-12          4.1009e-14    5.17590454545455    35.2150618181818   27.7075390909091    -0.00112727272727273     -0.0188                                   217.562409090909    306.766218181818    0.709214836363636    -46.687438221602    -74.0243190502437    
2022-04-22T17:09:08Z    31.6636666666667    -64.1648333333333    1258.5    -1245.99850183549    1e-12          4.1009e-14    5.17504090909091    35.2149536363636   27.7075590909091    -0.00112727272727273     -0.0188                                   217.656227272727    306.773             0.709505063636364    -46.687438221602    -74.0243190502437    
2022-04-22T17:09:08Z    31.6636666666667    -64.1648333333333    1259      -1246.52907174273    1e-12          4.0951e-14    5.17402272727273    35.2148309090909   27.7075836363636    -0.00112727272727273     -0.0188                                   217.678590909091    306.780927272727    0.709556681818182    -46.687438221602    -74.0243190502437    
2022-04-22T17:09:08Z    31.6636666666667    -64.1648333333333    1259.5    -1247.05075636928    1e-12          4.0922e-14    5.17295             35.2147981818182   27.7076709090909    -0.000454545454545454    -0.0188                                   217.680772727273    306.789227272727    0.7095441            -46.687438221602    -74.0243190502437    
2022-04-22T17:09:08Z    31.6636666666667    -64.1648333333333    1260      -1247.54430733402    1e-12          4.0951e-14    5.17220909090909    35.2147218181818   27.7076963636364    0.000209090909090909     -0.0188                                   217.640136363636    306.795081818182    0.709397545454545    -46.687438221602    -74.0243190502437    
2022-04-22T17:09:08Z    31.6636666666667    -64.1648333333333    1260.5    -1247.97172153048    1e-12          4.0922e-14    5.17142727272727    35.2146281818182   27.7077190909091    0.000209090909090909     -0.0187                                   217.600045454545    306.801190909091    0.709252836363636    -46.687438221602    -74.0243190502437    
2022-04-22T17:09:08Z    31.6636666666667    -64.1648333333333    1261      -1248.47760903317    1e-12          4.09075e-14   5.17068181818182    35.2145509090909   27.7077545454545    0.000209090909090909     -0.0187909090909091                       217.567590909091    306.807054545455    0.709133427272727    -46.687438221602    -74.0243190502437    
2022-04-22T17:09:08Z    31.6636666666667    -64.1648333333333    1261.5    -1248.97165019064    1e-12          4.098e-14     5.16998181818182    35.2144654545455   27.7077754545454    -0.000454545454545454    -0.0187909090909091                       217.553227272727    306.812609090909    0.7090738            -46.687438221602    -74.0243190502437    
2022-04-22T17:09:08Z    31.6636666666667    -64.1648333333333    1262      -1249.47753528497    1e-12          4.098e-14     5.16931363636364    35.2143736363636   27.7077854545454    -0.00111818181818182     -0.0187909090909091                       217.539045454545    306.818009090909    0.709015209090909    -46.687438221602    -74.0243190502437    
2022-04-22T17:09:08Z    31.6636666666667    -64.1648333333333    1262.5    -1249.96565155427    1e-12          4.1038e-14    5.16862727272727    35.2142772727273   27.7077945454545    -0.00111818181818182     -0.0187909090909091                       217.528             306.823490909091    0.708966636363636    -46.687438221602    -74.0243190502437    
2022-04-22T17:09:08Z    31.6636666666667    -64.1648333333333    1263      -1250.44142809945    1e-12          4.1067e-14    5.16795454545455    35.2142027272727   27.7078172727273    -0.000445454545454545    -0.0187909090909091                       217.545545454545    306.828818181818    0.709011527272727    -46.687438221602    -74.0243190502437    
2022-04-22T17:09:08Z    31.6636666666667    -64.1648333333333    1263.5    -1250.92904858559    1e-12          4.1067e-14    5.1674              35.2141054545455   27.7078118181818    0.000227272727272727     -0.0187909090909091                       217.567818181818    306.833327272727    0.7090741            -46.687438221602    -74.0243190502437    
2022-04-22T17:09:08Z    31.6636666666667    -64.1648333333333    1264      -1251.39297795679    1e-12          4.1067e-14    5.16687272727273    35.2140281818182   27.7078181818182    -0.000436363636363636    -0.0187909090909091                       217.593909090909    306.837572727273    0.709149445454546    -46.687438221602    -74.0243190502437    
2022-04-22T17:09:08Z    31.6636666666667    -64.1648333333333    1264.5    -1251.89885721954    1e-12          4.1067e-14    5.16637272727273    35.2139736363636   27.7078345454545    -0.0011                  -0.0187909090909091                       217.620818181818    306.841554545455    0.709228518181818    -46.687438221602    -74.0243190502437    
2022-04-22T17:09:08Z    31.6636666666667    -64.1648333333333    1265      -1252.37462938591    1e-12          4.1038e-14    5.16592727272727    35.2139045454545   27.7078372727273    -0.00243636363636364     -0.0187909090909091                       217.621818181818    306.845263636364    0.709223209090909    -46.687438221602    -74.0243190502437    
2022-04-22T17:09:08Z    31.6636666666667    -64.1648333333333    1265.5    -1252.91801515892    1e-12          4.1067e-14    5.16556363636364    35.2138472727273   27.7078463636364    -0.0031                  -0.0187909090909091                       217.630818181818    306.8484            0.709245527272727    -46.687438221602    -74.0243190502437    
2022-04-22T17:09:08Z    31.6636666666667    -64.1648333333333    1266      -1253.39970745222    1e-12          4.10235e-14   5.16520909090909    35.2137854545455   27.7078418181818    -0.0031                  -0.0188909090909091                       217.613863636364    306.851427272727    0.709183927272727    -46.687438221602    -74.0243190502437    
2022-04-22T17:09:08Z    31.6636666666667    -64.1648333333333    1266.5    -1253.89669824817    1e-12          4.10525e-14   5.16480909090909    35.2137145454545   27.7078372727273    -0.00376363636363636     -0.0188                                   217.563227272727    306.854772727273    0.709011854545454    -46.687438221602    -74.0243190502437    
2022-04-22T17:09:08Z    31.6636666666667    -64.1648333333333    1267      -1254.32064477723    1e-12          4.10525e-14   5.16425454545455    35.2136345454545   27.7078418181818    -0.00376363636363636     -0.0188                                   217.548772727273    306.859327272727    0.708954445454545    -46.687438221602    -74.0243190502437    
2022-04-22T17:09:08Z    31.6636666666667    -64.1648333333333    1267.5    -1254.82404932525    1e-12          4.1038e-14    5.16351818181818    35.21358           27.7078918181818    -0.0031                  -0.0188                                   217.558772727273    306.8651            0.708973             -46.687438221602    -74.0243190502437    
2022-04-22T17:09:08Z    31.6636666666667    -64.1648333333333    1268      -1255.3876635725     1e-12          4.1038e-14    5.16278181818182    35.2135318181818   27.7079445454545    -0.0031                  -0.0188                                   217.603863636364    306.870836363636    0.709106618181818    -46.687438221602    -74.0243190502437    
2022-04-22T17:09:08Z    31.6636666666667    -64.1648333333333    1268.5    -1255.86984373779    1e-12          4.09655e-14   5.16194545454546    35.2135118181818   27.7080336363636    -0.00377272727272727     -0.0188                                   217.648681818182    306.8772            0.709237454545454    -46.687438221602    -74.0243190502437    
2022-04-22T17:09:08Z    31.6636666666667    -64.1648333333333    1269      -1256.33919102424    1e-12          4.0951e-14    5.16106363636364    35.2135154545455   27.7081390909091    -0.00444545454545455     -0.0188                                   217.654136363636    306.883854545455    0.709239518181818    -46.687438221602    -74.0243190502437    
2022-04-22T17:09:08Z    31.6636666666667    -64.1648333333333    1269.5    -1256.82136900121    1e-12          4.0893e-14    5.16022727272727    35.2135036363636   27.70823            -0.00378181818181818     -0.0188                                   217.641318181818    306.8903            0.709182527272727    -46.687438221602    -74.0243190502437    
2022-04-22T17:09:08Z    31.6636666666667    -64.1648333333333    1270      -1257.34598923688    1e-12          4.0922e-14    5.15941818181818    35.2134836363636   27.7083136363636    -0.00311818181818182     -0.0188                                   217.662136363636    306.896472727273    0.709235709090909    -46.687438221602    -74.0243190502437    
2022-04-22T17:09:08Z    31.6636666666667    -64.1648333333333    1270.5    -1257.86419231838    1e-12          4.0922e-14    5.15857727272727    35.21346           27.7083963636364    -0.00245454545454546     -0.0188                                   217.704136363636    306.902927272727    0.709357390909091    -46.687438221602    -74.0243190502437    
2022-04-22T17:09:08Z    31.6636666666667    -64.1648333333333    1271      -1258.33995097439    1e-12          4.0951e-14    5.15771363636364    35.21347           27.7085072727273    -0.00179090909090909     -0.0188                                   217.736045454545    306.909381818182    0.709446372727273    -46.687438221602    -74.0243190502437    
2022-04-22T17:09:08Z    31.6636666666667    -64.1648333333333    1271.5    -1258.86407388965    1e-12          4.0922e-14    5.15682272727273    35.2134709090909   27.7086218181818    -0.00112727272727273     -0.0188                                   217.782272727273    306.916054545455    0.7095803            -46.687438221602    -74.0243190502437    
2022-04-22T17:09:08Z    31.6636666666667    -64.1648333333333    1272      -1259.32206346304    1e-12          4.0951e-14    5.15566363636364    35.21354           27.7088181818182    0.000209090909090909     -0.0188                                   217.860227272727    306.924490909091    0.709814045454546    -46.687438221602    -74.0243190502437    
2022-04-22T17:09:08Z    31.6636666666667    -64.1648333333333    1272.5    -1259.82249489723    1e-12          4.1009e-14    5.15484545454545    35.2137454545455   27.70909            0.00154545454545455      -0.0188                                   217.906227272727    306.930127272727    0.709950709090909    -46.687438221602    -74.0243190502437    
2022-04-22T17:09:08Z    31.6636666666667    -64.1648333333333    1273      -1260.31650937238    1e-12          4.1096e-14    5.15425454545455    35.2139381818182   27.7093127272727    0.00221818181818182      -0.0188                                   217.938954545455    306.934245454545    0.710048327272727    -46.687438221602    -74.0243190502437    
2022-04-22T17:09:08Z    31.6636666666667    -64.1648333333333    1273.5    -1260.77400226246    1e-12          4.1096e-14    5.15379090909091    35.2141609090909   27.7095527272727    0.00289090909090909      -0.0188                                   217.948681818182    306.937445454545    0.710072818181818    -46.687438221602    -74.0243190502437    
2022-04-22T17:09:08Z    31.6636666666667    -64.1648333333333    1274      -1261.29219688848    1e-12          4.1154e-14    5.15353636363636    35.2144245454546   27.7097963636364    0.00356363636363636      -0.0188                                   217.950636363636    306.939036363636    0.710076009090909    -46.687438221602    -74.0243190502437    
2022-04-22T17:09:08Z    31.6636666666667    -64.1648333333333    1274.5    -1261.78966252521    1e-12          4.1096e-14    5.15395454545455    35.2148290909091   27.7100772727273    0.00356363636363636      -0.0188                                   217.994545454545    306.9356            0.710227636363636    -46.687438221602    -74.0243190502437    
2022-04-22T17:09:08Z    31.6636666666667    -64.1648333333333    1275      -1262.26837338706    1e-12          4.1125e-14    5.15408636363636    35.2151263636364   27.7103009090909    0.00356363636363636      -0.0188                                   218.040045454545    306.934390909091    0.710378745454545    -46.687438221602    -74.0243190502437    
2022-04-22T17:09:08Z    31.6636666666667    -64.1648333333333    1275.5    -1262.76879780341    1e-12          4.1038e-14    5.15395             35.2154745454545   27.7106054545455    0.00356363636363636      -0.0188                                   218.051590909091    306.934945454545    0.710414872727273    -46.687438221602    -74.0243190502437    
2022-04-22T17:09:08Z    31.6636666666667    -64.1648333333333    1276      -1263.29290967014    1e-12          4.1038e-14    5.15368636363636    35.2158209090909   27.7109136363636    0.00356363636363636      -0.0188                                   218.042545454545    306.9364            0.710382254545455    -46.687438221602    -74.0243190502437    
2022-04-22T17:09:08Z    31.6636666666667    -64.1648333333333    1276.5    -1263.76618846663    1e-12          4.098e-14     5.15335909090909    35.2161254545455   27.7112             0.00356363636363636      -0.0188                                   218.037272727273    306.938354545455    0.710358709090909    -46.687438221602    -74.0243190502437    
2022-04-22T17:09:08Z    31.6636666666667    -64.1648333333333    1277      -1264.2444013186     1e-12          4.0922e-14    5.15280454545454    35.2164109090909   27.7114890909091    0.00356363636363636      -0.0188                                   218.055272727273    306.942136363636    0.710409236363636    -46.687438221602    -74.0243190502437    
2022-04-22T17:09:08Z    31.6636666666667    -64.1648333333333    1277.5    -1264.74185996612    1e-12          4.0951e-14    5.15242727272727    35.2165254545455   27.71168            0.00156363636363636      -0.0188909090909091                       218.095681818182    306.945036363636    0.710527090909091    -46.687438221602    -74.0243190502437    
2022-04-22T17:09:08Z    31.6636666666667    -64.1648333333333    1278      -1265.23931743811    1e-12          4.0922e-14    5.15106363636364    35.2165427272727   27.7118490909091    -0.000436363636363637    -0.0188909090909091                       218.176681818182    306.955290909091    0.710766954545455    -46.687438221602    -74.0243190502437    
2022-04-22T17:09:08Z    31.6636666666667    -64.1648333333333    1278.5    -1265.73924126804    1e-12          4.0951e-14    5.1495              35.2165418181818   27.7120381818182    -0.00110909090909091     -0.0189818181818182                       218.255409090909    306.966818181818    0.7109966            -46.687438221602    -74.0243190502437    
2022-04-22T17:09:08Z    31.6636666666667    -64.1648333333333    1279      -1266.19080027234    1e-12          4.0922e-14    5.14758181818182    35.2164854545455   27.7122190909091    -0.00178181818181818     -0.0189818181818182                       218.346772727273    306.981             0.711260909090909    -46.687438221602    -74.0243190502437    
2022-04-22T17:09:08Z    31.6636666666667    -64.1648333333333    1279.5    -1266.76425413196    1e-12          4.1009e-14    5.14549090909091    35.2163490909091   27.7123581818182    -0.00245454545454545     -0.0189818181818182                       218.435045454545    306.996645454545    0.711512563636364    -46.687438221602    -74.0243190502437    
2022-04-22T17:09:08Z    31.6636666666667    -64.1648333333333    1280      -1267.23999263498    1e-12          4.1067e-14    5.14271818181818    35.2160590909091   27.7124545454545    -0.00245454545454545     -0.0190727272727273                       218.510545454545    307.017390909091    0.711710109090909    -46.687438221602    -74.0243190502437    
2022-04-22T17:09:08Z    31.6636666666667    -64.1648333333333    1280.5    -1267.71573006089    1e-12          4.1125e-14    5.14024545454545    35.2158836363636   27.7126127272727    -0.00178181818181818     -0.0191636363636364                       218.571636363636    307.035818181818    0.711866281818182    -46.687438221602    -74.0243190502437    
2022-04-22T17:09:08Z    31.6636666666667    -64.1648333333333    1281      -1268.19245341346    1e-12          4.1183e-14    5.13809090909091    35.2156636363636   27.7126881818182    -0.00110909090909091     -0.0192545454545455                       218.650227272727    307.052127272727    0.712084963636364    -46.687438221602    -74.0243190502437    
2022-04-22T17:09:08Z    31.6636666666667    -64.1648333333333    1281.5    -1268.66818868296    1e-12          4.1125e-14    5.13609545454545    35.2154590909091   27.7127663636364    -0.000436363636363637    -0.0193454545454546                       218.745727272727    307.067227272727    0.712360818181818    -46.687438221602    -74.0243190502437    
2022-04-22T17:09:08Z    31.6636666666667    -64.1648333333333    1282      -1269.18636384023    1e-12          4.1067e-14    5.13417727272727    35.2152481818182   27.7128281818182    -0.000436363636363637    -0.0194363636363636                       218.849227272727    307.081845454545    0.712665636363636    -46.687438221602    -74.0243190502437    
2022-04-22T17:09:08Z    31.6636666666667    -64.1648333333333    1282.5    -1269.68677177784    1e-12          4.098e-14     5.13258636363636    35.2150881818182   27.7128963636364    -0.000436363636363637    -0.0195272727272727                       218.921318181818    307.093963636364    0.712872072727273    -46.687438221602    -74.0243190502437    
2022-04-22T17:09:08Z    31.6636666666667    -64.1648333333333    1283      -1270.16299716156    1e-12          4.09655e-14   5.13108636363636    35.21502           27.7129736363636    0.000890909090909091     -0.0195272727272727                       218.978090909091    307.105254545455    0.7130381            -46.687438221602    -74.0243190502437    
2022-04-22T17:09:08Z    31.6636666666667    -64.1648333333333    1283.5    -1270.68758408103    1e-12          4.0893e-14    5.13023181818182    35.2148854545455   27.7129763636364    0.00221818181818182      -0.0196181818181818                       218.974909090909    307.111927272727    0.713011872727273    -46.687438221602    -74.0243190502437    
2022-04-22T17:09:08Z    31.6636666666667    -64.1648333333333    1284      -1271.16331370171    1e-12          4.0922e-14    5.12893181818182    35.2147054545455   27.7129827272727    0.00221818181818182      -0.0196181818181818                       218.972227272727    307.122072727273    0.712982390909091    -46.687438221602    -74.0243190502437    
2022-04-22T17:09:08Z    31.6636666666667    -64.1648333333333    1284.5    -1271.66322343508    1e-12          4.09075e-14   5.12708636363636    35.2145936363636   27.71311            0.00221818181818182      -0.0197090909090909                       218.984227272727    307.135918181818    0.712992763636364    -46.687438221602    -74.0243190502437    
2022-04-22T17:09:08Z    31.6636666666667    -64.1648333333333    1285      -1272.13944434537    1e-12          4.0893e-14    5.12508636363636    35.2144427272727   27.7132354545455    0.00221818181818182      -0.0198                                   219.011636363636    307.1509            0.713045654545455    -46.687438221602    -74.0243190502437    
2022-04-22T17:09:08Z    31.6636666666667    -64.1648333333333    1285.5    -1272.63984525086    1e-12          4.0922e-14    5.12271363636364    35.2143            27.7134036363636    0.00221818181818182      -0.0198                                   219.043318181818    307.168645454545    0.713106972727273    -46.687438221602    -74.0243190502437    
2022-04-22T17:09:08Z    31.6636666666667    -64.1648333333333    1286      -1273.13679053088    1e-12          4.0922e-14    5.1202              35.2141918181818   27.7136145454545    0.000881818181818181     -0.0198                                   219.087636363636    307.187272727273    0.713208136363636    -46.687438221602    -74.0243190502437    
2022-04-22T17:09:08Z    31.6636666666667    -64.1648333333333    1286.5    -1273.65840909776    1e-12          4.1038e-14    5.11761363636364    35.2140663636364   27.7138209090909    -0.000454545454545454    -0.0198                                   219.1095            307.206509090909    0.713235372727273    -46.687438221602    -74.0243190502437    
2022-04-22T17:09:08Z    31.6636666666667    -64.1648333333333    1287      -1274.18348077959    1e-12          4.1183e-14    5.11484090909091    35.2139372727273   27.7140445454545    -0.00179090909090909     -0.0198                                   219.117590909091    307.227018181818    0.713214163636364    -46.687438221602    -74.0243190502437    
2022-04-22T17:09:08Z    31.6636666666667    -64.1648333333333    1287.5    -1274.61084078531    1e-12          4.1125e-14    5.11199545454545    35.2138254545455   27.7142872727273    -0.00378181818181818     -0.0198                                   219.124818181818    307.248118181818    0.713188763636364    -46.687438221602    -74.0243190502437    
2022-04-22T17:09:08Z    31.6636666666667    -64.1648333333333    1288      -1275.13591008753    1e-12          4.1038e-14    5.10908636363636    35.2137309090909   27.7145554545455    -0.00577272727272727     -0.0198                                   219.159909090909    307.269563636364    0.713253109090909    -46.687438221602    -74.0243190502437    
2022-04-22T17:09:08Z    31.6636666666667    -64.1648333333333    1288.5    -1275.61162963841    1e-12          4.0951e-14    5.10618636363636    35.2136672727273   27.7148427272727    -0.00743181818181818     -0.0198                                   219.191863636364    307.290781818182    0.7133079            -46.687438221602    -74.0243190502437    
2022-04-22T17:09:08Z    31.6636666666667    -64.1648333333333    1289      -1276.08438720753    1e-12          4.09075e-14   5.10341363636364    35.2135881818182   27.7151             -0.00743181818181818     -0.0197090909090909                       219.282136363636    307.311245454545    0.713555327272727    -46.687438221602    -74.0243190502437    
2022-04-22T17:09:08Z    31.6636666666667    -64.1648333333333    1289.5    -1276.53592398418    1e-12          4.0864e-14    5.10117727272727    35.2135854545455   27.7153709090909    -0.00809545454545454     -0.0196181818181818                       219.376090909091    307.327627272727    0.713820372727273    -46.687438221602    -74.0243190502437    
2022-04-22T17:09:08Z    31.6636666666667    -64.1648333333333    1290      -1277.03878183017    1e-12          4.0864e-14    5.09957272727273    35.2134990909091   27.7154954545455    -0.00875909090909091     -0.0195272727272727                       219.436727272727    307.339745454545    0.713986336363636    -46.687438221602    -74.0243190502437    
2022-04-22T17:09:08Z    31.6636666666667    -64.1648333333333    1290.5    -1277.56384506651    1e-12          4.0864e-14    5.09804545454545    35.2134581818182   27.7156418181818    -0.00942272727272727     -0.0194363636363636                       219.504954545455    307.351236363636    0.714182             -46.687438221602    -74.0243190502437    
2022-04-22T17:09:08Z    31.6636666666667    -64.1648333333333    1291      -1278.08249176436    1e-12          4.0864e-14    5.09690909090909    35.2134136363636   27.7157454545455    -0.0100863636363636      -0.0193454545454546                       219.551318181818    307.359809090909    0.714314854545455    -46.687438221602    -74.0243190502437    
2022-04-22T17:09:08Z    31.6636666666667    -64.1648333333333    1291.5    -1278.51527210018    1e-12          4.0893e-14    5.09589090909091    35.2133436363636   27.7158136363636    -0.0100863636363636      -0.0192545454545455                       219.611681818182    307.367645454545    0.714493327272727    -46.687438221602    -74.0243190502437    
2022-04-22T17:09:08Z    31.6636666666667    -64.1648333333333    1292      -1279.04033164792    1e-12          4.0922e-14    5.09484090909091    35.2132681818182   27.7158809090909    -0.0100863636363636      -0.0191636363636364                       219.709227272727    307.375709090909    0.714791863636364    -46.687438221602    -74.0243190502437    
2022-04-22T17:09:08Z    31.6636666666667    -64.1648333333333    1292.5    -1279.53430094521    1e-12          4.0922e-14    5.09400454545455    35.2132390909091   27.71596            -0.0100863636363636      -0.0190727272727273                       219.7935            307.382154545455    0.715051154545455    -46.687438221602    -74.0243190502437    
2022-04-22T17:09:08Z    31.6636666666667    -64.1648333333333    1293      -1280.05935794666    1e-12          4.1067e-14    5.09328636363636    35.2132045454545   27.7160263636364    -0.00809545454545454     -0.0189818181818182                       219.885045454545    307.387727272727    0.715336481818182    -46.687438221602    -74.0243190502437    
2022-04-22T17:09:08Z    31.6636666666667    -64.1648333333333    1293.5    -1280.60859380314    1e-12          4.1271e-14    5.09266818181818    35.2132345454545   27.71612            -0.00676818181818182     -0.0188909090909091                       219.948136363636    307.392445454545    0.715532763636364    -46.687438221602    -74.0243190502437    
2022-04-22T17:09:08Z    31.6636666666667    -64.1648333333333    1294      -1280.94514192881    1e-12          4.1242e-14    5.09225             35.2132518181818   27.7161881818182    -0.00577272727272727     -0.0188                                   219.995863636364    307.395845454545    0.715680172727273    -46.687438221602    -74.0243190502437    
2022-04-22T17:09:08Z    31.6636666666667    -64.1648333333333    1294.5    -1281.4879603494     1e-12          4.1125e-14    5.09201363636364    35.2134563636364   27.7163809090909    -0.00643636363636364     -0.0188                                   219.985636363636    307.397463636364    0.715642390909091    -46.687438221602    -74.0243190502437    
2022-04-22T17:09:08Z    31.6636666666667    -64.1648333333333    1295      -1282.01251900175    1e-12          4.10235e-14   5.0921              35.2136681818182   27.7165427272727    -0.00577272727272727     -0.0188909090909091                       219.993772727273    307.396845454545    0.715670572727273    -46.687438221602    -74.0243190502437    
2022-04-22T17:09:08Z    31.6636666666667    -64.1648333333333    1295.5    -1282.50055969692    1e-12          4.0893e-14    5.09225909090909    35.2138636363636   27.7166745454545    -0.00577272727272727     -0.0189818181818182                       220.034227272727    307.3956            0.715802836363636    -46.687438221602    -74.0243190502437    
2022-04-22T17:09:08Z    31.6636666666667    -64.1648333333333    1296      -1283.03745249798    1e-12          4.0864e-14    5.09243181818182    35.2141063636364   27.71685            -0.00577272727272727     -0.0189818181818182                       220.057181818182    307.394190909091    0.715881609090909    -46.687438221602    -74.0243190502437    
2022-04-22T17:09:08Z    31.6636666666667    -64.1648333333333    1296.5    -1283.464794501      1e-12          4.0836e-14    5.09265909090909    35.2143890909091   27.7170509090909    -0.00577272727272727     -0.0189818181818182                       220.100409090909    307.392345454545    0.716025445454546    -46.687438221602    -74.0243190502437    
2022-04-22T17:09:08Z    31.6636666666667    -64.1648333333333    1297      -1284.00809987874    1e-12          4.0807e-14    5.09299545454545    35.2146327272727   27.7172081818182    -0.00577272727272727     -0.0189818181818182                       220.133409090909    307.389736363636    0.716138427272727    -46.687438221602    -74.0243190502437    
2022-04-22T17:09:08Z    31.6636666666667    -64.1648333333333    1297.5    -1284.53610648751    1e-12          4.0807e-14    5.09345909090909    35.2149363636364   27.7173990909091    -0.00510909090909091     -0.0189818181818182                       220.138681818182    307.386063636364    0.716163463636364    -46.687438221602    -74.0243190502437    
2022-04-22T17:09:08Z    31.6636666666667    -64.1648333333333    1298      -1284.97775585673    1e-12          4.0836e-14    5.09393181818182    35.2152463636364   27.7175936363636    -0.00510909090909091     -0.0189818181818182                       220.175863636364    307.382390909091    0.716292972727273    -46.687438221602    -74.0243190502437    
2022-04-22T17:09:08Z    31.6636666666667    -64.1648333333333    1298.5    -1285.50872079609    1e-12          4.0807e-14    5.09464090909091    35.2156436363636   27.71784            -0.00577272727272727     -0.0190727272727273                       220.204818181818    307.376709090909    0.716399963636364    -46.687438221602    -74.0243190502437    
2022-04-22T17:09:08Z    31.6636666666667    -64.1648333333333    1299      -1285.98540379058    1e-12          4.0864e-14    5.09572272727273    35.2161954545454   27.7181245454545    -0.00577272727272727     -0.0191636363636364                       220.252             307.368009090909    0.716574972727273    -46.687438221602    -74.0243190502437    
2022-04-22T17:09:08Z    31.6636666666667    -64.1648333333333    1299.5    -1286.46109878616    1e-12          4.1154e-14    5.09715909090909    35.2166781818182   27.7183418181818    -0.00577272727272727     -0.0192545454545455                       220.311636363636    307.356990909091    0.716794936363636    -46.687438221602    -74.0243190502437    
2022-04-22T17:09:08Z    31.6636666666667    -64.1648333333333    1300      -1286.925936632      1e-12          4.1183e-14    5.09853181818182    35.2170945454545   27.7185209090909    -0.00510909090909091     -0.0193454545454546                       220.397863636364    307.346545454545    0.717098690909091    -46.687438221602    -74.0243190502437    
2022-04-22T17:09:08Z    31.6636666666667    -64.1648333333333    1300.5    -1287.40162949924    1e-12          4.1154e-14    5.10005454545454    35.2176081818182   27.7187609090909    -0.00544090909090909     -0.0193454545454546                       220.452909090909    307.334890909091    0.717305990909091    -46.687438221602    -74.0243190502437    
2022-04-22T17:09:08Z    31.6636666666667    -64.1648333333333    1301      -1287.93258831199    1e-12          4.11105e-14   5.10195454545455    35.21859           27.7193036363636    -0.00477727272727273     -0.0193454545454546                       220.484636363636    307.319372727273    0.717440627272727    -46.687438221602    -74.0243190502437    
2022-04-22T17:09:08Z    31.6636666666667    -64.1648333333333    1301.5    -1288.4517028892     1e-12          4.1009e-14    5.10488181818182    35.2194072727273   27.7196154545455    -0.00477727272727273     -0.0194363636363636                       220.511181818182    307.296918181818    0.717579372727273    -46.687438221602    -74.0243190502437    
2022-04-22T17:09:08Z    31.6636666666667    -64.1648333333333    1302      -1288.93923518013    1e-12          4.098e-14     5.10835             35.2203072727273   27.7199327272727    -0.00477727272727273     -0.0195272727272727                       220.545772727273    307.270354545454    0.717754136363636    -46.687438221602    -74.0243190502437    
2022-04-22T17:09:08Z    31.6636666666667    -64.1648333333333    1302.5    -1289.46426869054    1e-12          4.0951e-14    5.11185             35.2212            27.7202409090909    -0.00477727272727273     -0.0196181818181818                       220.591227272727    307.243554545455    0.717963854545455    -46.687438221602    -74.0243190502437    
2022-04-22T17:09:08Z    31.6636666666667    -64.1648333333333    1303      -1289.97992532241    1e-12          4.09075e-14   5.11538636363636    35.2220309090909   27.7204963636364    -0.00544090909090909     -0.0197090909090909                       220.593045454545    307.2166            0.718034718181818    -46.687438221602    -74.0243190502437    
2022-04-22T17:09:08Z    31.6636666666667    -64.1648333333333    1303.5    -1290.44722263947    1e-12          4.0836e-14    5.11872272727273    35.2227645454545   27.7206927272727    -0.00544090909090909     -0.0198                                   220.606863636364    307.191281818182    0.718139627272727    -46.687438221602    -74.0243190502437    
2022-04-22T17:09:08Z    31.6636666666667    -64.1648333333333    1304      -1290.92586822494    1e-12          4.0864e-14    5.12176363636364    35.2234263636364   27.72086            -0.00544090909090909     -0.0198                                   220.598772727273    307.168281818182    0.718167454545454    -46.687438221602    -74.0243190502437    
2022-04-22T17:09:08Z    31.6636666666667    -64.1648333333333    1304.5    -1291.40796686187    1e-12          4.0836e-14    5.12445454545455    35.2239336363636   27.7209881818182    -0.00544090909090909     -0.0198                                   220.591136363636    307.148190909091    0.718186045454545    -46.687438221602    -74.0243190502437    
2022-04-22T17:09:08Z    31.6636666666667    -64.1648333333333    1305      -1291.89894641943    1e-12          4.0807e-14    5.1267              35.2244309090909   27.7211336363636    -0.00544090909090909     -0.0198                                   220.566181818182    307.131218181818    0.718144236363636    -46.687438221602    -74.0243190502437    
2022-04-22T17:09:08Z    31.6636666666667    -64.1648333333333    1305.5    -1292.35094266937    1e-12          4.0864e-14    5.12846363636364    35.2247945454545   27.7212036363636    -0.00610454545454546     -0.0198                                   220.524272727273    307.118154545455    0.718039854545454    -46.687438221602    -74.0243190502437    
2022-04-22T17:09:08Z    31.6636666666667    -64.1648333333333    1306      -1292.98551218194    1e-12          4.098e-14     5.12966363636364    35.2250545454545   27.7212581818182    -0.00643636363636364     -0.0198                                   220.482363636364    307.109045454545    0.7179231            -46.687438221602    -74.0243190502437    
2022-04-22T17:09:08Z    31.6636666666667    -64.1648333333333    1306.5    -1293.36151591927    1e-12          4.1183e-14    5.13036363636364    35.2247336363636   27.7209590909091    -0.00676818181818182     -0.0198                                   220.4355            307.105             0.717786472727273    -46.687438221602    -74.0243190502437    
2022-04-22T17:09:08Z    31.6636666666667    -64.1648333333333    1307      -1293.84706305809    1e-12          4.1154e-14    5.12905454545455    35.22436           27.72082            -0.00676818181818182     -0.0198                                   220.396590909091    307.115481818182    0.717635345454546    -46.687438221602    -74.0243190502437    
2022-04-22T17:09:08Z    31.6636666666667    -64.1648333333333    1307.5    -1294.35382701034    1e-12          4.1183e-14    5.12673636363636    35.2239381818182   27.7207509090909    -0.00676818181818182     -0.0198                                   220.354681818182    307.133281818182    0.717455609090909    -46.687438221602    -74.0243190502437    
2022-04-22T17:09:08Z    31.6636666666667    -64.1648333333333    1308      -1294.84776033119    1e-12          4.1154e-14    5.12353181818182    35.22348           27.72077            -0.00676818181818182     -0.0198                                   220.300909090909    307.157627272727    0.717227727272727    -46.687438221602    -74.0243190502437    
2022-04-22T17:09:08Z    31.6636666666667    -64.1648333333333    1308.5    -1295.35402843904    1e-12          4.1125e-14    5.11989545454545    35.2230336363636   27.7208354545455    -0.00676818181818182     -0.0198                                   220.261363636364    307.185118181818    0.717033018181818    -46.687438221602    -74.0243190502437    
2022-04-22T17:09:08Z    31.6636666666667    -64.1648333333333    1309      -1295.87657874055    1e-12          4.1125e-14    5.11530454545455    35.2225727272727   27.7210218181818    -0.00676818181818182     -0.0198                                   220.199909090909    307.219472727273    0.716750154545454    -46.687438221602    -74.0243190502437    
2022-04-22T17:09:08Z    31.6636666666667    -64.1648333333333    1309.5    -1296.32511239212    1e-12          4.1067e-14    5.11055454545455    35.2221518181818   27.7212427272727    -0.00676818181818182     -0.0198                                   220.165045454545    307.254936363636    0.716553309090909    -46.687438221602    -74.0243190502437    
2022-04-22T17:09:08Z    31.6636666666667    -64.1648333333333    1310      -1296.80423803466    1e-12          4.1038e-14    5.10559090909091    35.2216109090909   27.7213981818182    -0.00610454545454545     -0.0198                                   220.131318181818    307.292145454546    0.7163569            -46.687438221602    -74.0243190502437    
2022-04-22T17:09:08Z    31.6636666666667    -64.1648333333333    1310.5    -1297.28879035648    1e-12          4.1038e-14    5.10043636363636    35.2211736363636   27.7216418181818    -0.00476818181818182     -0.0198                                   220.128045454545    307.330572727273    0.716257             -46.687438221602    -74.0243190502437    
2022-04-22T17:09:08Z    31.6636666666667    -64.1648333333333    1311      -1297.7802496102     1e-12          4.09655e-14   5.09559090909091    35.2207845454545   27.7219172727273    -0.00476818181818182     -0.0198                                   220.171590909091    307.366509090909    0.716314290909091    -46.687438221602    -74.0243190502437    
2022-04-22T17:09:08Z    31.6636666666667    -64.1648333333333    1311.5    -1298.27812233115    1e-12          4.0922e-14    5.0909              35.2203581818182   27.7221354545455    -0.00476818181818182     -0.0198                                   220.290818181818    307.401572727273    0.7166204            -46.687438221602    -74.0243190502437    
2022-04-22T17:09:08Z    31.6636666666667    -64.1648333333333    1312      -1298.79030333679    1e-12          4.0922e-14    5.08631818181818    35.2200790909091   27.7224427272727    -0.0051                  -0.0198                                   220.411227272727    307.435636363636    0.716933854545455    -46.687438221602    -74.0243190502437    
2022-04-22T17:09:08Z    31.6636666666667    -64.1648333333333    1312.5    -1299.30346995886    1e-12          4.0836e-14    5.08243636363636    35.2199354545455   27.7227818181818    -0.0051                  -0.0198                                   220.508272727273    307.464163636364    0.717183054545455    -46.687438221602    -74.0243190502437    
2022-04-22T17:09:08Z    31.6636666666667    -64.1648333333333    1313      -1299.80380620504    1e-12          4.0864e-14    5.07881363636364    35.2196763636364   27.7230145454545    -0.0051                  -0.0198                                   220.603090909091    307.491318181818    0.717431036363636    -46.687438221602    -74.0243190502437    
2022-04-22T17:09:08Z    31.6636666666667    -64.1648333333333    1313.5    -1300.44526119264    1e-12          4.0864e-14    5.07568181818182    35.2195345454545   27.7232627272727    -0.0051                  -0.0198                                   220.695590909091    307.514545454545    0.7176748            -46.687438221602    -74.0243190502437    
2022-04-22T17:09:08Z    31.6636666666667    -64.1648333333333    1314      -1300.68407931837    1e-12          4.1096e-14    5.07275             35.21936           27.7234754545455    -0.0051                  -0.0198                                   220.808136363636    307.536381818182    0.717989745454546    -46.687438221602    -74.0243190502437    
2022-04-22T17:09:08Z    31.6636666666667    -64.1648333333333    1314.5    -1301.30678150282    1e-12          4.1242e-14    5.07081363636364    35.2192272727273   27.7235918181818    -0.0051                  -0.0198                                   220.9415            307.550936363636    0.718391518181818    -46.687438221602    -74.0243190502437    
2022-04-22T17:09:08Z    31.6636666666667    -64.1648333333333    1315      -1301.74296798843    1e-12          4.133e-14     5.06888636363636    35.2190345454545   27.7236627272727    -0.0051                  -0.0197090909090909                       221.078772727273    307.565754545455    0.718803472727273    -46.687438221602    -74.0243190502437    
2022-04-22T17:09:08Z    31.6636666666667    -64.1648333333333    1315.5    -1302.25908793323    1e-12          4.133e-14     5.06684545454545    35.21884           27.72374            -0.00576363636363636     -0.0196181818181818                       221.233181818182    307.581236363636    0.719269690909091    -46.687438221602    -74.0243190502437    
2022-04-22T17:09:08Z    31.6636666666667    -64.1648333333333    1316      -1302.76533819666    1e-12          4.133e-14     5.06472727272727    35.2185809090909   27.7237727272727    -0.0071                  -0.0195272727272727                       221.366045454545    307.597263636364    0.719666772727273    -46.687438221602    -74.0243190502437    
2022-04-22T17:09:08Z    31.6636666666667    -64.1648333333333    1316.5    -1303.25629123107    1e-12          4.133e-14     5.06226818181818    35.2183109090909   27.7238554545455    -0.0071                  -0.0195272727272727                       221.464227272727    307.615972727273    0.719942390909091    -46.687438221602    -74.0243190502437    
2022-04-22T17:09:08Z    31.6636666666667    -64.1648333333333    1317      -1303.72948006538    1e-12          4.1242e-14    5.05952272727273    35.2181254545455   27.7240345454545    -0.0071                  -0.0195272727272727                       221.469272727273    307.636536363636    0.719910654545455    -46.687438221602    -74.0243190502437    
2022-04-22T17:09:08Z    31.6636666666667    -64.1648333333333    1317.5    -1304.20612175131    1e-12          4.1183e-14    5.05673181818182    35.2178754545454   27.72418            -0.00643636363636364     -0.0195272727272727                       221.464454545455    307.657554545455    0.719845954545455    -46.687438221602    -74.0243190502437    
2022-04-22T17:09:08Z    31.6636666666667    -64.1648333333333    1318      -1304.77996532348    1e-12          4.1125e-14    5.05401363636364    35.2177281818182   27.7243818181818    -0.00643636363636364     -0.0195272727272727                       221.479863636364    307.677881818182    0.719848663636364    -46.687438221602    -74.0243190502437    
2022-04-22T17:09:08Z    31.6636666666667    -64.1648333333333    1318.5    -1305.25611121925    1e-12          4.1009e-14    5.05149545454546    35.21761           27.7245754545455    -0.00643636363636364     -0.0195272727272727                       221.500954545455    307.696554545455    0.719871727272727    -46.687438221602    -74.0243190502437    
2022-04-22T17:09:08Z    31.6636666666667    -64.1648333333333    1319      -1305.70758534073    1e-12          4.0922e-14    5.04943181818182    35.2174254545454   27.7246736363636    -0.00643636363636364     -0.0195272727272727                       221.540772727273    307.712227272727    0.719965236363636    -46.687438221602    -74.0243190502437    
2022-04-22T17:09:08Z    31.6636666666667    -64.1648333333333    1319.5    -1306.20741294       1e-12          4.0893e-14    5.0473              35.2173081818182   27.7248318181818    -0.00643636363636364     -0.0195272727272727                       221.575727272727    307.728181818182    0.720041318181818    -46.687438221602    -74.0243190502437    
2022-04-22T17:09:08Z    31.6636666666667    -64.1648333333333    1320      -1306.73240333324    1e-12          4.0721e-14    5.04523636363636    35.2171863636364   27.7249772727273    -0.00643636363636364     -0.0195272727272727                       221.7               307.7437            0.720409345454546    -46.687438221602    -74.0243190502437    
2022-04-22T17:09:08Z    31.6636666666667    -64.1648333333333    1320.5    -1307.20903821312    1e-12          4.0778e-14    5.04330909090909    35.2171318181818   27.7251654545454    -0.0051                  -0.0196181818181818                       221.824181818182    307.758027272727    0.720779218181818    -46.687438221602    -74.0243190502437    
2022-04-22T17:09:08Z    31.6636666666667    -64.1648333333333    1321      -1307.7093556502     1e-12          4.0807e-14    5.04158636363636    35.2171627272727   27.7254036363636    -0.00376363636363636     -0.0197090909090909                       221.901409090909    307.770763636364    0.7210006            -46.687438221602    -74.0243190502437    
2022-04-22T17:09:08Z    31.6636666666667    -64.1648333333333    1321.5    -1308.28072263058    1e-12          4.1067e-14    5.04008181818182    35.2172263636364   27.72565            -0.00242727272727273     -0.0197090909090909                       221.972227272727    307.781918181818    0.721201463636364    -46.687438221602    -74.0243190502437    
2022-04-22T17:09:08Z    31.6636666666667    -64.1648333333333    1322      -1308.4484812083     1e-12          4.0922e-14    5.03895909090909    35.2172990909091   27.7258372727273    -0.00176363636363636     -0.0196181818181818                       222.049454545455    307.790245454545    0.721433545454545    -46.687438221602    -74.0243190502437    
2022-04-22T17:09:08Z    31.6636666666667    -64.1648333333333    1322.5    -1309.11458011883    1e-12          4.1448e-14    5.03808636363636    35.2173136363636   27.7259536363636    -0.00176363636363636     -0.0195272727272727                       222.135454545455    307.796836363636    0.721697736363636    -46.687438221602    -74.0243190502437    
2022-04-22T17:09:08Z    31.6636666666667    -64.1648333333333    1323      -1309.63956325507    1e-12          4.1448e-14    5.03734090909091    35.2174045454545   27.7261027272727    -0.00242727272727273     -0.0195272727272727                       222.226090909091    307.802281818182    0.721978336363636    -46.687438221602    -74.0243190502437    
2022-04-22T17:09:08Z    31.6636666666667    -64.1648333333333    1323.5    -1310.06685119374    1e-12          4.1419e-14    5.03679545454545    35.2173845454545   27.72616            -0.00242727272727273     -0.0195272727272727                       222.310636363636    307.806590909091    0.722242709090909    -46.687438221602    -74.0243190502437    
2022-04-22T17:09:08Z    31.6636666666667    -64.1648333333333    1324      -1310.64067877465    1e-12          4.12565e-14   5.03603181818182    35.2172645454545   27.7261563636364    -0.00242727272727273     -0.0195272727272727                       222.362909090909    307.812772727273    0.7223972            -46.687438221602    -74.0243190502437    
2022-04-22T17:09:08Z    31.6636666666667    -64.1648333333333    1324.5    -1311.13802763722    1e-12          4.12275e-14   5.03478181818182    35.2172227272727   27.7262727272727    -0.00242727272727273     -0.0195272727272727                       222.408954545455    307.822154545455    0.722523545454545    -46.687438221602    -74.0243190502437    
2022-04-22T17:09:08Z    31.6636666666667    -64.1648333333333    1325      -1311.64178954039    1e-12          4.1154e-14    5.03360909090909    35.2171845454545   27.7263809090909    -0.00242727272727273     -0.0195272727272727                       222.463045454545    307.831081818182    0.722678190909091    -46.687438221602    -74.0243190502437    
2022-04-22T17:09:08Z    31.6636666666667    -64.1648333333333    1325.5    -1312.11742649688    1e-12          4.1067e-14    5.03234545454545    35.2171345454545   27.72649            -0.00242727272727273     -0.0195272727272727                       222.381227272727    307.8407            0.722389636363636    -46.687438221602    -74.0243190502437    
2022-04-22T17:09:08Z    31.6636666666667    -64.1648333333333    1326      -1312.68582111718    1e-12          4.0951e-14    5.03097727272727    35.21701           27.7265563636364    -0.00376363636363636     -0.0195272727272727                       222.298136363636    307.850990909091    0.722095072727273    -46.687438221602    -74.0243190502437    
2022-04-22T17:09:08Z    31.6636666666667    -64.1648333333333    1326.5    -1313.11310286728    1e-12          4.0893e-14    5.02945909090909    35.2167945454545   27.7265636363636    -0.0051                  -0.0195272727272727                       222.237863636364    307.862763636364    0.721869127272727    -46.687438221602    -74.0243190502437    
2022-04-22T17:09:08Z    31.6636666666667    -64.1648333333333    1327      -1313.57689499963    1e-12          4.0893e-14    5.02860909090909    35.21664           27.7265681818182    -0.00643636363636364     -0.0196181818181818                       222.270954545455    307.869654545455    0.721960172727273    -46.687438221602    -74.0243190502437    
2022-04-22T17:09:08Z    31.6636666666667    -64.1648333333333    1327.5    -1314.09249251728    1e-12          4.0893e-14    5.02705454545455    35.2164745454545   27.7266327272727    -0.0071                  -0.0197090909090909                       222.216090909091    307.8815            0.721752954545455    -46.687438221602    -74.0243190502437    
2022-04-22T17:09:08Z    31.6636666666667    -64.1648333333333    1328      -1314.63867912387    1e-12          4.0864e-14    5.026               35.2162236363636   27.7265681818182    -0.0071                  -0.0198                                   222.267454545455    307.890018181818    0.721899790909091    -46.687438221602    -74.0243190502437    
2022-04-22T17:09:08Z    31.6636666666667    -64.1648333333333    1328.5    -1315.11480268954    1e-12          4.0836e-14    5.02470909090909    35.2160081818182   27.7265536363636    -0.0071                  -0.0198                                   222.309454545455    307.9001            0.722013290909091    -46.687438221602    -74.0243190502437    
2022-04-22T17:09:08Z    31.6636666666667    -64.1648333333333    1329      -1315.49915451225    1e-12          4.0864e-14    5.02270454545455    35.2156763636364   27.7265309090909    -0.00643636363636364     -0.0198                                   222.381681818182    307.915609090909    0.722213154545455    -46.687438221602    -74.0243190502437    
2022-04-22T17:09:08Z    31.6636666666667    -64.1648333333333    1329.5    -1316.11786571812    1e-12          4.136e-14     5.02043636363636    35.2154890909091   27.7266463636364    -0.00577272727272727     -0.0198                                   222.459045454545    307.932718181818    0.722426863636364    -46.687438221602    -74.0243190502437    
2022-04-22T17:09:08Z    31.6636666666667    -64.1648333333333    1330      -1316.54514049651    1e-12          4.0951e-14    5.01815             35.2152854545455   27.7267427272727    -0.00443636363636364     -0.0198                                   222.519818181818    307.9501            0.722586054545455    -46.687438221602    -74.0243190502437    
2022-04-22T17:09:08Z    31.6636666666667    -64.1648333333333    1330.5    -1317.0207663653     1e-12          4.1271e-14    5.01592272727273    35.2150981818182   27.7268545454545    -0.0031                  -0.0198                                   222.566409090909    307.966990909091    0.722698172727273    -46.687438221602    -74.0243190502437    
2022-04-22T17:09:08Z    31.6636666666667    -64.1648333333333    1331      -1317.50329856474    1e-12          4.1183e-14    5.01377727272727    35.2149            27.7269463636364    -0.00176363636363636     -0.0198                                   222.611954545455    307.9833            0.7228073            -46.687438221602    -74.0243190502437    
2022-04-22T17:09:08Z    31.6636666666667    -64.1648333333333    1331.5    -1318.02579383426    1e-12          4.11395e-14   5.01166363636364    35.2147081818182   27.7270409090909    -0.00143181818181818     -0.0198                                   222.637545454545    307.999418181818    0.722853181818182    -46.687438221602    -74.0243190502437    
2022-04-22T17:09:08Z    31.6636666666667    -64.1648333333333    1332      -1318.50783034933    1e-12          4.10525e-14   5.00951818181818    35.2144645454545   27.7270981818182    -0.00143181818181818     -0.0198                                   222.665090909091    308.015881818182    0.722905945454545    -46.687438221602    -74.0243190502437    
2022-04-22T17:09:08Z    31.6636666666667    -64.1648333333333    1332.5    -1319.03575033704    1e-12          4.0951e-14    5.00618181818182    35.2140581818182   27.7271418181818    -0.00143181818181818     -0.0198                                   222.616727272727    308.041190909091    0.722689918181818    -46.687438221602    -74.0243190502437    
2022-04-22T17:09:08Z    31.6636666666667    -64.1648333333333    1333      -1319.51235733735    1e-12          4.0922e-14    5.00261818181818    35.2136981818182   27.7272572727273    -0.00143181818181818     -0.0198                                   222.670545454545    308.068027272727    0.722803609090909    -46.687438221602    -74.0243190502437    
2022-04-22T17:09:08Z    31.6636666666667    -64.1648333333333    1333.5    -1320.03731452278    1e-12          4.0893e-14    4.99840909090909    35.2134254545455   27.7275218181818    -0.00143181818181818     -0.0198                                   222.646409090909    308.099290909091    0.722652381818182    -46.687438221602    -74.0243190502437    
2022-04-22T17:09:08Z    31.6636666666667    -64.1648333333333    1334      -1320.48234298822    1e-12          4.0864e-14    4.99444545454545    35.2131263636364   27.7277454545455    -0.00143181818181818     -0.0198                                   222.652863636364    308.129054545454    0.722602854545455    -46.687438221602    -74.0243190502437    
2022-04-22T17:09:08Z    31.6636666666667    -64.1648333333333    1334.5    -1320.97670832191    1e-12          4.0836e-14    4.99122727272727    35.2129545454546   27.7279754545455    -0.00209545454545455     -0.0198                                   222.642272727273    308.153109090909    0.722511190909091    -46.687438221602    -74.0243190502437    
2022-04-22T17:09:08Z    31.6636666666667    -64.1648333333333    1335      -1321.51448964864    1e-12          4.0864e-14    4.98796818181818    35.2126990909091   27.7281527272727    -0.00209545454545455     -0.0198                                   222.645             308.177563636364    0.722461063636364    -46.687438221602    -74.0243190502437    
2022-04-22T17:09:08Z    31.6636666666667    -64.1648333333333    1335.5    -1322.02760082558    1e-12          4.0864e-14    4.98472272727273    35.2123672727273   27.7282727272727    -0.00276818181818182     -0.0198                                   222.666090909091    308.202118181818    0.722469590909091    -46.687438221602    -74.0243190502437    
2022-04-22T17:09:08Z    31.6636666666667    -64.1648333333333    1336      -1322.50962816606    1e-12          4.0922e-14    4.98130454545455    35.2119990909091   27.7283836363636    -0.00344090909090909     -0.0198                                   222.715545454545    308.227972727273    0.722568754545455    -46.687438221602    -74.0243190502437    
2022-04-22T17:09:08Z    31.6636666666667    -64.1648333333333    1336.5    -1322.98573392289    1e-12          4.0951e-14    4.97785909090909    35.2116609090909   27.7285172727273    -0.00411363636363636     -0.0198                                   222.780090909091    308.253954545455    0.722717063636364    -46.687438221602    -74.0243190502437    
2022-04-22T17:09:08Z    31.6636666666667    -64.1648333333333    1337      -1323.46233197441    1e-12          4.11105e-14   4.97424545454546    35.2111927272727   27.7285772727273    -0.00378181818181818     -0.0197090909090909                       222.889954545455    308.281545454545    0.723008818181818    -46.687438221602    -74.0243190502437    
2022-04-22T17:09:08Z    31.6636666666667    -64.1648333333333    1337.5    -1323.94484939882    1e-12          4.1242e-14    4.97012727272727    35.2108418181818   27.7287809090909    -0.00311818181818182     -0.0196181818181818                       222.993             308.312327272727    0.723271954545455    -46.687438221602    -74.0243190502437    
2022-04-22T17:09:08Z    31.6636666666667    -64.1648333333333    1338      -1324.45795464821    1e-12          4.1271e-14    4.9663              35.2106645454545   27.72908            -0.00245454545454546     -0.0195272727272727                       223.116272727273    308.340736363636    0.723605418181818    -46.687438221602    -74.0243190502437    
2022-04-22T17:09:08Z    31.6636666666667    -64.1648333333333    1338.5    -1324.95823106005    1e-12          4.1242e-14    4.96339090909091    35.2104681818182   27.7292609090909    -0.00179090909090909     -0.0195272727272727                       223.230454545455    308.362672727273    0.723923372727273    -46.687438221602    -74.0243190502437    
2022-04-22T17:09:08Z    31.6636666666667    -64.1648333333333    1339      -1325.42199708821    1e-12          4.1213e-14    4.96058181818182    35.2102463636364   27.72941            -0.00112727272727273     -0.0195272727272727                       223.327136363636    308.384090909091    0.724187627272727    -46.687438221602    -74.0243190502437    
2022-04-22T17:09:08Z    31.6636666666667    -64.1648333333333    1339.5    -1325.92276457416    1e-12          4.11105e-14   4.95767727272727    35.2100245454545   27.7295709090909    -0.000463636363636364    -0.0195272727272727                       223.392318181818    308.405945454545    0.724348227272727    -46.687438221602    -74.0243190502437    
2022-04-22T17:09:08Z    31.6636666666667    -64.1648333333333    1340      -1326.42057067474    1e-12          4.1038e-14    4.9547              35.2098318181818   27.7297636363636    0.0002                   -0.0195272727272727                       223.457045454545    308.428263636364    0.724504718181818    -46.687438221602    -74.0243190502437    
2022-04-22T17:09:08Z    31.6636666666667    -64.1648333333333    1340.5    -1326.90012113486    1e-12          4.1009e-14    4.95208181818182    35.2096745454545   27.7299463636364    0.0002                   -0.0195272727272727                       223.5185            308.447918181818    0.724657781818182    -46.687438221602    -74.0243190502437    
2022-04-22T17:09:08Z    31.6636666666667    -64.1648333333333    1341      -1327.38855102905    1e-12          4.0922e-14    4.94975454545455    35.2095672727273   27.7301345454546    0.0002                   -0.0195272727272727                       223.575136363636    308.465327272727    0.724800290909091    -46.687438221602    -74.0243190502437    
2022-04-22T17:09:08Z    31.6636666666667    -64.1648333333333    1341.5    -1327.90164788148    1e-12          4.0893e-14    4.94751363636364    35.20944           27.73029            0.0002                   -0.0195272727272727                       223.611363636364    308.482163636364    0.724879136363636    -46.687438221602    -74.0243190502437    
2022-04-22T17:09:08Z    31.6636666666667    -64.1648333333333    1342      -1328.41721028392    1e-12          4.0893e-14    4.94529545454546    35.2093136363636   27.7304427272727    -0.000463636363636364    -0.0195272727272727                       223.684727272727    308.498754545455    0.725074890909091    -46.687438221602    -74.0243190502437    
2022-04-22T17:09:08Z    31.6636666666667    -64.1648333333333    1342.5    -1328.91747728204    1e-12          4.0864e-14    4.94222727272727    35.2092572727273   27.7307390909091    0.000209090909090909     -0.0196181818181818                       223.768545454545    308.521372727273    0.725296809090909    -46.687438221602    -74.0243190502437    
2022-04-22T17:09:08Z    31.6636666666667    -64.1648333333333    1343      -1329.42119660019    1e-12          4.0864e-14    4.93969090909091    35.2092190909091   27.7309954545455    0.000881818181818182     -0.0197090909090909                       223.838772727273    308.540218181818    0.725478209090909    -46.687438221602    -74.0243190502437    
2022-04-22T17:09:08Z    31.6636666666667    -64.1648333333333    1343.5    -1329.89185978904    1e-12          4.0864e-14    4.93720454545455    35.2090945454545   27.7311881818182    0.00155454545454545      -0.0198                                   223.877636363636    308.558872727273    0.725559981818182    -46.687438221602    -74.0243190502437    
2022-04-22T17:09:08Z    31.6636666666667    -64.1648333333333    1344      -1330.46908679083    1e-12          4.098e-14     4.93457272727273    35.2089181818182   27.7313509090909    0.00155454545454545      -0.0198                                   223.901590909091    308.578663636364    0.725591854545455    -46.687438221602    -74.0243190502437    
2022-04-22T17:09:08Z    31.6636666666667    -64.1648333333333    1344.5    -1330.80160829355    1e-12          4.1213e-14    4.93181363636364    35.2087909090909   27.7315654545455    0.00155454545454545      -0.0198                                   223.928727272727    308.599181818182    0.725629963636364    -46.687438221602    -74.0243190502437    
2022-04-22T17:09:08Z    31.6636666666667    -64.1648333333333    1345      -1331.28410888675    1e-12          4.1301e-14    4.92906363636364    35.2086518181818   27.7317727272727    0.00155454545454545      -0.0198                                   223.971909090909    308.619727272727    0.725720945454545    -46.687438221602    -74.0243190502437    
2022-04-22T17:09:08Z    31.6636666666667    -64.1648333333333    1345.5    -1331.84653149462    1e-12          4.1271e-14    4.92646363636364    35.2085227272727   27.7319681818182    0.00089090909090909      -0.0198                                   224.010272727273    308.639209090909    0.725799463636364    -46.687438221602    -74.0243190502437    
2022-04-22T17:09:08Z    31.6636666666667    -64.1648333333333    1346      -1332.32853633473    1e-12          4.1213e-14    4.92403636363636    35.2084054545455   27.7321554545455    0.000227272727272727     -0.0198                                   224.064636363636    308.657363636364    0.725933             -46.687438221602    -74.0243190502437    
2022-04-22T17:09:08Z    31.6636666666667    -64.1648333333333    1346.5    -1332.82928738911    1e-12          4.11395e-14   4.92159545454545    35.2082409090909   27.7323054545455    -0.000436363636363637    -0.0198                                   224.108727272727    308.675736363636    0.726032890909091    -46.687438221602    -74.0243190502437    
2022-04-22T17:09:08Z    31.6636666666667    -64.1648333333333    1347      -1333.35470469761    1e-12          4.11105e-14   4.91912727272727    35.2080972727273   27.7324754545455    -0.0011                  -0.0198                                   224.155045454545    308.694281818182    0.726139063636364    -46.687438221602    -74.0243190502437    
2022-04-22T17:09:08Z    31.6636666666667    -64.1648333333333    1347.5    -1333.75777042101    1e-12          4.1038e-14    4.91627727272727    35.2078881818182   27.7326436363636    -0.000436363636363637    -0.0198                                   224.182954545455    308.715845454545    0.726182018181818    -46.687438221602    -74.0243190502437    
2022-04-22T17:09:08Z    31.6636666666667    -64.1648333333333    1348      -1334.38037470684    1e-12          4.0951e-14    4.91425909090909    35.2077481818182   27.73278            -0.00110909090909091     -0.0198                                   224.1855            308.731163636364    0.726148745454545    -46.687438221602    -74.0243190502437    
2022-04-22T17:09:08Z    31.6636666666667    -64.1648333333333    1348.5    -1334.85102680333    1e-12          4.0951e-14    4.91199545454545    35.2075645454545   27.7329063636364    -0.00178181818181818     -0.0198                                   224.207590909091    308.748309090909    0.726181090909091    -46.687438221602    -74.0243190502437    
2022-04-22T17:09:08Z    31.6636666666667    -64.1648333333333    1349      -1335.33302476143    1e-12          4.0922e-14    4.90926363636364    35.2073463636364   27.73303            -0.00245454545454546     -0.0198                                   224.253636363636    308.768972727273    0.726286509090909    -46.687438221602    -74.0243190502437    
2022-04-22T17:09:08Z    31.6636666666667    -64.1648333333333    1349.5    -1335.85843582411    1e-12          4.0893e-14    4.90636818181818    35.2072572727273   27.73329            -0.00245454545454546     -0.0198                                   224.336045454545    308.790563636364    0.726503072727273    -46.687438221602    -74.0243190502437    
2022-04-22T17:09:08Z    31.6636666666667    -64.1648333333333    1350      -1336.33500471872    1e-12          4.09365e-14   4.90355454545455    35.2071            27.7334963636364    -0.00245454545454546     -0.0198                                   224.410545454545    308.811618181818    0.726694818181818    -46.687438221602    -74.0243190502437    
2022-04-22T17:09:08Z    31.6636666666667    -64.1648333333333    1350.5    -1336.76223844179    1e-12          4.0922e-14    4.90057272727273    35.2069227272727   27.7336990909091    -0.00245454545454546     -0.0198                                   224.520090909091    308.833990909091    0.726997136363636    -46.687438221602    -74.0243190502437    
2022-04-22T17:09:08Z    31.6636666666667    -64.1648333333333    1351      -1337.33648655997    1e-12          4.0922e-14    4.89757272727273    35.2067309090909   27.7338936363636    -0.00212272727272727     -0.0198                                   224.639318181818    308.856445454545    0.727330027272727    -46.687438221602    -74.0243190502437    
2022-04-22T17:09:08Z    31.6636666666667    -64.1648333333333    1351.5    -1337.81305210741    1e-12          4.0922e-14    4.8946              35.2065636363636   27.7341009090909    -0.00145909090909091     -0.0198                                   224.753863636364    308.878818181818    0.727647509090909    -46.687438221602    -74.0243190502437    
2022-04-22T17:09:08Z    31.6636666666667    -64.1648333333333    1352      -1338.31379010549    1e-12          4.098e-14     4.89157727272727    35.2064118181818   27.7343281818182    -0.000795454545454545    -0.0198                                   224.867590909091    308.901436363636    0.727963127272727    -46.687438221602    -74.0243190502437    
2022-04-22T17:09:08Z    31.6636666666667    -64.1648333333333    1352.5    -1338.76617996471    1e-12          4.1242e-14    4.88875909090909    35.20623           27.7345090909091    -0.000795454545454545    -0.0198                                   224.985590909091    308.922627272727    0.728294990909091    -46.687438221602    -74.0243190502437    
2022-04-22T17:09:08Z    31.6636666666667    -64.1648333333333    1353      -1339.24274227461    1e-12          4.133e-14     4.8864              35.20616           27.7347263636364    -0.00145909090909091     -0.0198                                   225.087863636364    308.940290909091    0.728584436363636    -46.687438221602    -74.0243190502437    
2022-04-22T17:09:08Z    31.6636666666667    -64.1648333333333    1353.5    -1339.74347687098    1e-12          4.1271e-14    4.88434545454545    35.2060645454546   27.7348736363636    -0.00212272727272727     -0.0198                                   225.202363636364    308.955745454545    0.728920572727273    -46.687438221602    -74.0243190502437    
2022-04-22T17:09:08Z    31.6636666666667    -64.1648333333333    1354      -1340.19586365698    1e-12          4.1154e-14    4.88270909090909    35.2059909090909   27.7349981818182    -0.00278636363636364     -0.0198                                   225.307454545455    308.968127272727    0.729231627272727    -46.687438221602    -74.0243190502437    
2022-04-22T17:09:08Z    31.6636666666667    -64.1648333333333    1354.5    -1340.72076924177    1e-12          4.1096e-14    4.88150909090909    35.2058272727273   27.7350181818182    -0.00345                 -0.0198                                   225.415             308.977409090909    0.729553872727273    -46.687438221602    -74.0243190502437    
2022-04-22T17:09:08Z    31.6636666666667    -64.1648333333333    1355      -1341.24567351741    1e-12          4.1067e-14    4.88012727272727    35.2055645454545   27.7349881818182    -0.00411363636363636     -0.0198                                   225.461727272727    308.988609090909    0.729682081818182    -46.687438221602    -74.0243190502437    
2022-04-22T17:09:08Z    31.6636666666667    -64.1648333333333    1355.5    -1341.72223021279    1e-12          4.098e-14     4.87878181818182    35.2054590909091   27.7350627272727    -0.00477727272727273     -0.0198                                   225.523636363636    308.999             0.7298576            -46.687438221602    -74.0243190502437    
2022-04-22T17:09:08Z    31.6636666666667    -64.1648333333333    1356      -1342.1982924952     1e-12          4.098e-14     4.87761818181818    35.2052190909091   27.7350063636364    -0.00544090909090909     -0.0198                                   225.556090909091    309.008445454545    0.7299378            -46.687438221602    -74.0243190502437    
2022-04-22T17:09:08Z    31.6636666666667    -64.1648333333333    1356.5    -1342.65067400749    1e-12          4.098e-14     4.87608181818182    35.2050709090909   27.7350663636364    -0.00577272727272727     -0.0198                                   225.579954545455    309.020318181818    0.729987118181818    -46.687438221602    -74.0243190502437    
2022-04-22T17:09:08Z    31.6636666666667    -64.1648333333333    1357      -1343.10256121855    1e-12          4.0951e-14    4.87502727272727    35.2049236363636   27.7350636363636    -0.00577272727272727     -0.0198                                   225.6395            309.028590909091    0.730164190909091    -46.687438221602    -74.0243190502437    
2022-04-22T17:09:08Z    31.6636666666667    -64.1648333333333    1357.5    -1343.67679203709    1e-12          4.0893e-14    4.87384090909091    35.20476           27.7350781818182    -0.00577272727272727     -0.0198                                   225.688409090909    309.037936363636    0.730301136363636    -46.687438221602    -74.0243190502437    
2022-04-22T17:09:08Z    31.6636666666667    -64.1648333333333    1358      -1344.20168894055    1e-12          4.0893e-14    4.87265             35.2045618181818   27.7350572727273    -0.00510909090909091     -0.0198                                   225.729590909091    309.047345454545    0.7304142            -46.687438221602    -74.0243190502437    
2022-04-22T17:09:08Z    31.6636666666667    -64.1648333333333    1358.5    -1344.67823894287    1e-12          4.0893e-14    4.87113181818182    35.2043027272727   27.73502            -0.00444545454545455     -0.0198                                   225.798545454545    309.059227272727    0.730609981818182    -46.687438221602    -74.0243190502437    
2022-04-22T17:09:08Z    31.6636666666667    -64.1648333333333    1359      -1345.15478786622    1e-12          4.0836e-14    4.86916363636364    35.2040054545455   27.73501            -0.00378181818181818     -0.0198                                   225.823727272727    309.074563636364    0.730655145454545    -46.687438221602    -74.0243190502437    
2022-04-22T17:09:08Z    31.6636666666667    -64.1648333333333    1359.5    -1345.68017440392    1e-12          4.1213e-14    4.86704545454546    35.2037754545455   27.7350727272727    -0.00311818181818182     -0.0198                                   225.856727272727    309.090790909091    0.730723563636364    -46.687438221602    -74.0243190502437    
2022-04-22T17:09:08Z    31.6636666666667    -64.1648333333333    1360      -1345.9667931735     1e-12          4.10525e-14   4.86513636363636    35.2037181818182   27.7352563636364    -0.00245454545454546     -0.0198                                   225.863545454545    309.105218181818    0.730710490909091    -46.687438221602    -74.0243190502437    
2022-04-22T17:09:08Z    31.6636666666667    -64.1648333333333    1360.5    -1346.63375995265    1e-12          4.1183e-14    4.86371818181818    35.2036572727273   27.7353618181818    -0.00245454545454546     -0.0198                                   225.893454545455    309.115727272727    0.730777909090909    -46.687438221602    -74.0243190502437    
2022-04-22T17:09:08Z    31.6636666666667    -64.1648333333333    1361      -1347.13398363744    1e-12          4.1154e-14    4.86238181818182    35.2034945454545   27.7353863636364    -0.00245454545454545     -0.0198                                   225.909954545455    309.126090909091    0.730807072727273    -46.687438221602    -74.0243190502437    
2022-04-22T17:09:08Z    31.6636666666667    -64.1648333333333    1361.5    -1347.58635454445    1e-12          4.1125e-14    4.86118181818182    35.2035118181818   27.7355427272727    -0.00245454545454545     -0.0198                                   225.926318181818    309.135018181818    0.730841090909091    -46.687438221602    -74.0243190502437    
2022-04-22T17:09:08Z    31.6636666666667    -64.1648333333333    1362      -1348.1082817968     1e-12          4.10815e-14   4.8604              35.2034409090909   27.7355818181818    -0.00245454545454545     -0.0198                                   225.909590909091    309.141245454545    0.7307724            -46.687438221602    -74.0243190502437    
2022-04-22T17:09:08Z    31.6636666666667    -64.1648333333333    1362.5    -1348.63612754375    1e-12          4.1009e-14    4.8591              35.2033718181818   27.7356918181818    -0.00311818181818182     -0.0197545454545455                       225.8385            309.151227272727    0.730515527272727    -46.687438221602    -74.0243190502437    
2022-04-22T17:09:08Z    31.6636666666667    -64.1648333333333    1363      -1349.11316082422    1e-12          4.1009e-14    4.85803181818182    35.2032936363636   27.7357536363636    -0.00378181818181818     -0.0197545454545455                       225.787181818182    309.1595            0.730328654545454    -46.687438221602    -74.0243190502437    
2022-04-22T17:09:08Z    31.6636666666667    -64.1648333333333    1363.5    -1349.61387192765    1e-12          4.1009e-14    4.85686818181818    35.2032736363636   27.73588            -0.00444545454545455     -0.0197545454545455                       225.736545454545    309.168390909091    0.730142072727273    -46.687438221602    -74.0243190502437    
2022-04-22T17:09:08Z    31.6636666666667    -64.1648333333333    1364      -1350.11458185995    1e-12          4.098e-14     4.85592727272727    35.2032509090909   27.7359809090909    -0.00510909090909091     -0.0197545454545455                       225.674545454545    309.175672727273    0.7299231            -46.687438221602    -74.0243190502437    
2022-04-22T17:09:08Z    31.6636666666667    -64.1648333333333    1364.5    -1350.66412813547    1e-12          4.0922e-14    4.8556              35.2033027272727   27.7360763636364    -0.00610454545454546     -0.0197545454545455                       225.668409090909    309.178272727273    0.729896618181818    -46.687438221602    -74.0243190502437    
2022-04-22T17:09:08Z    31.6636666666667    -64.1648333333333    1365      -1351.06716070549    1e-12          4.09365e-14   4.85542727272727    35.20326           27.7360654545455    -0.00610454545454545     -0.0197545454545455                       225.699409090909    309.180136363636    0.729992654545455    -46.687438221602    -74.0243190502437    
2022-04-22T17:09:08Z    31.6636666666667    -64.1648333333333    1365.5    -1351.58957265476    1e-12          4.0951e-14    4.85498181818182    35.2031745454545   27.7360572727273    -0.00610454545454545     -0.0197545454545455                       225.732318181818    309.183890909091    0.730092072727273    -46.687438221602    -74.0243190502437    
2022-04-22T17:09:08Z    31.6636666666667    -64.1648333333333    1366      -1352.11839626693    1e-12          4.0951e-14    4.85457272727273    35.2031872727273   27.7361190909091    -0.00544090909090909     -0.0197545454545455                       225.768318181818    309.187172727273    0.7302007            -46.687438221602    -74.0243190502437    
2022-04-22T17:09:08Z    31.6636666666667    -64.1648333333333    1366.5    -1352.6126872845     1e-12          4.098e-14     4.85427272727273    35.2032009090909   27.7361718181818    -0.00477727272727273     -0.0197545454545455                       225.815636363636    309.1897            0.7303476            -46.687438221602    -74.0243190502437    
2022-04-22T17:09:08Z    31.6636666666667    -64.1648333333333    1367      -1353.16913327067    1e-12          4.1096e-14    4.85391818181818    35.2032018181818   27.7362136363636    -0.00411363636363636     -0.0197545454545455                       225.831545454545    309.192672727273    0.730391881818182    -46.687438221602    -74.0243190502437    
2022-04-22T17:09:08Z    31.6636666666667    -64.1648333333333    1367.5    -1353.50556532494    1e-12          4.1125e-14    4.85349090909091    35.2032372727273   27.7362909090909    -0.00411363636363636     -0.0197545454545455                       225.886636363636    309.195990909091    0.730562327272727    -46.687438221602    -74.0243190502437    
2022-04-22T17:09:08Z    31.6636666666667    -64.1648333333333    1368      -1354.06792855534    1e-12          4.1096e-14    4.8531              35.2032490909091   27.73635            -0.00411363636363636     -0.0198                                   225.927045454545    309.199163636364    0.730685645454545    -46.687438221602    -74.0243190502437    
2022-04-22T17:09:08Z    31.6636666666667    -64.1648333333333    1368.5    -1354.59871913858    1e-12          4.1009e-14    4.8527              35.2032963636364   27.7364354545455    -0.00411363636363636     -0.0198                                   225.976363636364    309.202309090909    0.730837627272727    -46.687438221602    -74.0243190502437    
2022-04-22T17:09:08Z    31.6636666666667    -64.1648333333333    1369      -1355.0269023885     1e-12          4.098e-14     4.85240909090909    35.2033609090909   27.7365236363636    -0.00411363636363636     -0.0198                                   226.022681818182    309.2046            0.730981863636364    -46.687438221602    -74.0243190502437    
2022-04-22T17:09:08Z    31.6636666666667    -64.1648333333333    1369.5    -1355.50934744927    1e-12          4.0951e-14    4.85215909090909    35.2034609090909   27.7366418181818    -0.00411363636363636     -0.0198                                   226.068681818182    309.206472727273    0.731126509090909    -46.687438221602    -74.0243190502437    
2022-04-22T17:09:08Z    31.6636666666667    -64.1648333333333    1370      -1355.98587185345    1e-12          4.0893e-14    4.85153636363636    35.2035945454545   27.7368172727273    -0.00311818181818182     -0.0198                                   226.083590909091    309.211036363636    0.7311643            -46.687438221602    -74.0243190502437    
2022-04-22T17:09:08Z    31.6636666666667    -64.1648333333333    1370.5    -1356.51172465425    1e-12          4.0922e-14    4.85103636363636    35.2037854545455   27.7370309090909    -0.00311818181818182     -0.0198                                   226.097818181818    309.2145            0.731200954545454    -46.687438221602    -74.0243190502437    
2022-04-22T17:09:08Z    31.6636666666667    -64.1648333333333    1371      -1357.01883098922    1e-12          4.0922e-14    4.85089090909091    35.2040090909091   27.7372263636364    -0.00311818181818182     -0.0198                                   226.133             309.215518181818    0.731310145454545    -46.687438221602    -74.0243190502437    
2022-04-22T17:09:08Z    31.6636666666667    -64.1648333333333    1371.5    -1357.50423123596    1e-12          4.098e-14     4.85072727272727    35.20415           27.7373590909091    -0.00311818181818182     -0.0198                                   226.138727272727    309.216790909091    0.731325272727273    -46.687438221602    -74.0243190502437    
2022-04-22T17:09:08Z    31.6636666666667    -64.1648333333333    1372      -1358.00492239806    1e-12          4.1009e-14    4.85041818181818    35.2042845454545   27.7375027272727    -0.00311818181818182     -0.0198                                   226.138             309.219090909091    0.731317636363636    -46.687438221602    -74.0243190502437    
2022-04-22T17:09:08Z    31.6636666666667    -64.1648333333333    1372.5    -1358.51547816709    1e-12          4.1125e-14    4.85007272727273    35.20443           27.7376681818182    -0.00311818181818182     -0.0198                                   226.177409090909    309.221554545455    0.7314394            -46.687438221602    -74.0243190502437    
2022-04-22T17:09:08Z    31.6636666666667    -64.1648333333333    1373      -1358.958945409      1e-12          4.1213e-14    4.84975             35.2045154545455   27.7377790909091    -0.00311818181818182     -0.0198                                   226.213227272727    309.224072727273    0.731549081818182    -46.687438221602    -74.0243190502437    
2022-04-22T17:09:08Z    31.6636666666667    -64.1648333333333    1373.5    -1359.46851228906    1e-12          4.1242e-14    4.84923181818182    35.2045372727273   27.7378772727273    -0.00245454545454546     -0.0198                                   226.290636363636    309.228054545455    0.731789909090909    -46.687438221602    -74.0243190502437    
2022-04-22T17:09:08Z    31.6636666666667    -64.1648333333333    1374      -1359.97659807559    1e-12          4.1154e-14    4.84846818181818    35.2046054545455   27.7380254545455    -0.00179090909090909     -0.0198                                   226.345181818182    309.2337            0.731952345454545    -46.687438221602    -74.0243190502437    
2022-04-22T17:09:08Z    31.6636666666667    -64.1648333333333    1374.5    -1360.50145433849    1e-12          4.1125e-14    4.84758636363636    35.2046072727273   27.7381245454545    -0.00179090909090909     -0.0198                                   226.4015            309.240463636364    0.7321152            -46.687438221602    -74.0243190502437    
2022-04-22T17:09:08Z    31.6636666666667    -64.1648333333333    1375      -1360.99029954231    1e-12          4.1067e-14    4.84627727272727    35.2044818181818   27.7381745454545    -0.00179090909090909     -0.0198                                   226.448681818182    309.250663636364    0.732243818181818    -46.687438221602    -74.0243190502437    
2022-04-22T17:09:08Z    31.6636666666667    -64.1648333333333    1375.5    -1361.43918769354    1e-12          4.098e-14     4.84490454545455    35.2043781818182   27.7382454545455    -0.00212272727272727     -0.0198                                   226.480454545455    309.261245454545    0.732322245454545    -46.687438221602    -74.0243190502437    
2022-04-22T17:09:08Z    31.6636666666667    -64.1648333333333    1376      -1361.93099041992    1e-12          4.0951e-14    4.84355             35.2043309090909   27.7383727272727    -0.00245454545454545     -0.0198                                   226.470409090909    309.271436363636    0.732266272727273    -46.687438221602    -74.0243190502437    
2022-04-22T17:09:08Z    31.6636666666667    -64.1648333333333    1376.5    -1362.5051698821     1e-12          4.0922e-14    4.84195909090909    35.2042118181818   27.7384645454545    -0.00245454545454545     -0.0198                                   226.455227272727    309.283581818182    0.732189236363636    -46.687438221602    -74.0243190502437    
2022-04-22T17:09:08Z    31.6636666666667    -64.1648333333333    1377      -1362.95109511962    1e-12          4.0864e-14    4.84035909090909    35.2041081818182   27.73857            -0.00245454545454546     -0.0198                                   226.487545454545    309.295763636364    0.732264809090909    -46.687438221602    -74.0243190502437    
2022-04-22T17:09:08Z    31.6636666666667    -64.1648333333333    1377.5    -1363.44634725441    1e-12          4.0893e-14    4.83885             35.20401           27.7386681818182    -0.00311818181818182     -0.0198                                   226.518090909091    309.307236363636    0.732336590909091    -46.687438221602    -74.0243190502437    
2022-04-22T17:09:08Z    31.6636666666667    -64.1648333333333    1378      -1363.94702427493    1e-12          4.0922e-14    4.83748636363636    35.2039181818182   27.7387536363636    -0.00311818181818182     -0.0198                                   226.541318181818    309.317736363636    0.732386845454545    -46.687438221602    -74.0243190502437    
2022-04-22T17:09:08Z    31.6636666666667    -64.1648333333333    1378.5    -1364.39935906682    1e-12          4.0893e-14    4.83617272727273    35.2038545454546   27.7388572727273    -0.00311818181818182     -0.0198                                   226.582954545455    309.3278            0.732497609090909    -46.687438221602    -74.0243190502437    
2022-04-22T17:09:08Z    31.6636666666667    -64.1648333333333    1379      -1364.90348675516    1e-12          4.0922e-14    4.83502727272727    35.2038536363636   27.7389727272727    -0.00311818181818182     -0.0198909090909091                       226.597227272727    309.336572727273    0.732523118181818    -46.687438221602    -74.0243190502437    
2022-04-22T17:09:08Z    31.6636666666667    -64.1648333333333    1379.5    -1365.46285990091    1e-12          4.098e-14     4.83400909090909    35.2038009090909   27.7390490909091    -0.00311818181818182     -0.0199818181818182                       226.619136363636    309.344581818182    0.732576118181818    -46.687438221602    -74.0243190502437    
2022-04-22T17:09:08Z    31.6636666666667    -64.1648333333333    1380      -1365.81703013664    1e-12          4.1154e-14    4.83298181818182    35.2037681818182   27.7391445454545    -0.00245454545454545     -0.0199818181818182                       226.642272727273    309.352436363636    0.732635727272727    -46.687438221602    -74.0243190502437    
2022-04-22T17:09:08Z    31.6636666666667    -64.1648333333333    1380.5    -1366.37344122595    1e-12          4.1242e-14    4.83219090909091    35.2038590909091   27.7393063636364    -0.00179090909090909     -0.0199818181818182                       226.652954545455    309.358327272727    0.732654754545455    -46.687438221602    -74.0243190502437    
2022-04-22T17:09:08Z    31.6636666666667    -64.1648333333333    1381      -1366.9051873261     1e-12          4.1271e-14    4.83136818181818    35.2038254545455   27.7393818181818    -0.00145909090909091     -0.0199818181818182                       226.697454545455    309.364627272727    0.732780509090909    -46.687438221602    -74.0243190502437    
2022-04-22T17:09:08Z    31.6636666666667    -64.1648333333333    1381.5    -1367.39451094302    1e-12          4.1183e-14    4.82985454545455    35.2036009090909   27.7393627272727    -0.00145909090909091     -0.0199818181818182                       226.759818181818    309.376627272727    0.732954009090909    -46.687438221602    -74.0243190502437    
2022-04-22T17:09:08Z    31.6636666666667    -64.1648333333333    1382      -1367.85226426203    1e-12          4.1183e-14    4.82801818181818    35.2033581818182   27.7394             -0.00145909090909091     -0.0199818181818182                       226.817454545455    309.390863636364    0.733106090909091    -46.687438221602    -74.0243190502437    
2022-04-22T17:09:08Z    31.6636666666667    -64.1648333333333    1382.5    -1368.36230288461    1e-12          4.10815e-14   4.82553636363636    35.2031654545455   27.7395281818182    -0.00145909090909091     -0.0199818181818182                       226.858409090909    309.409718181818    0.733193136363636    -46.687438221602    -74.0243190502437    
2022-04-22T17:09:08Z    31.6636666666667    -64.1648333333333    1383      -1368.85458270995    1e-12          4.1009e-14    4.8229              35.2029690909091   27.7396790909091    -0.000795454545454545    -0.0199818181818182                       226.874318181818    309.429736363636    0.733196963636364    -46.687438221602    -74.0243190502437    
2022-04-22T17:09:08Z    31.6636666666667    -64.1648333333333    1383.5    -1369.36511217167    1e-12          4.0951e-14    4.82014545454545    35.2027572727273   27.7398254545455    -0.000795454545454545    -0.0199818181818182                       226.876136363636    309.450590909091    0.7331543            -46.687438221602    -74.0243190502437    
2022-04-22T17:09:08Z    31.6636666666667    -64.1648333333333    1384      -1369.87810671271    1e-12          4.085e-14     4.81732727272727    35.2025209090909   27.7399609090909    -0.000131818181818182    -0.0199818181818182                       226.880818181818    309.472             0.733118745454545    -46.687438221602    -74.0243190502437    
2022-04-22T17:09:08Z    31.6636666666667    -64.1648333333333    1384.5    -1370.35755817341    1e-12          4.0864e-14    4.81453636363636    35.2022654545455   27.74008            -0.000131818181818182    -0.0198909090909091                       226.910818181818    309.493227272727    0.733165127272727    -46.687438221602    -74.0243190502437    
2022-04-22T17:09:08Z    31.6636666666667    -64.1648333333333    1385      -1370.85920529423    1e-12          4.0836e-14    4.81184545454545    35.20202           27.7401918181818    -0.000131818181818182    -0.0198                                   226.954272727273    309.513572727273    0.733256527272727    -46.687438221602    -74.0243190502437    
2022-04-22T17:09:08Z    31.6636666666667    -64.1648333333333    1385.5    -1371.31103196207    1e-12          4.0836e-14    4.80920909090909    35.2017781818182   27.7403063636364    -0.000795454545454545    -0.0198                                   227.001045454545    309.533645454545    0.733359481818182    -46.687438221602    -74.0243190502437    
2022-04-22T17:09:08Z    31.6636666666667    -64.1648333333333    1386      -1371.83684649263    1e-12          4.0836e-14    4.80675454545455    35.2015536363636   27.7404136363636    -0.00145909090909091     -0.0198454545454546                       227.093090909091    309.5524            0.733613990909091    -46.687438221602    -74.0243190502437    
2022-04-22T17:09:08Z    31.6636666666667    -64.1648333333333    1386.5    -1372.40507985647    1e-12          4.1009e-14    4.80456818181818    35.20138           27.7405290909091    -0.00212272727272727     -0.0199363636363636                       227.166545454545    309.569127272727    0.733814209090909    -46.687438221602    -74.0243190502437    
2022-04-22T17:09:08Z    31.6636666666667    -64.1648333333333    1387      -1372.71780485578    1e-12          4.1271e-14    4.80289545454545    35.2012754545455   27.7406481818182    -0.00245454545454545     -0.0199363636363636                       227.215954545455    309.581836363636    0.733943754545454    -46.687438221602    -74.0243190502437    
2022-04-22T17:09:08Z    31.6636666666667    -64.1648333333333    1387.5    -1373.31661767531    1e-12          4.1242e-14    4.80147727272727    35.2011963636364   27.7407281818182    -0.00245454545454545     -0.0199363636363636                       227.271681818182    309.592663636364    0.734099281818182    -46.687438221602    -74.0243190502437    
2022-04-22T17:09:08Z    31.6636666666667    -64.1648333333333    1388      -1373.79310178176    1e-12          4.1271e-14    4.80052727272727    35.2010418181818   27.74072            -0.00245454545454545     -0.0199363636363636                       227.316136363636    309.600272727273    0.734225918181818    -46.687438221602    -74.0243190502437    
2022-04-22T17:09:08Z    31.6636666666667    -64.1648333333333    1388.5    -1374.27007806482    1e-12          4.12275e-14   4.79949090909091    35.2008681818182   27.7407054545455    -0.00245454545454545     -0.0199363636363636                       227.394318181818    309.6086            0.734458690909091    -46.687438221602    -74.0243190502437    
2022-04-22T17:09:08Z    31.6636666666667    -64.1648333333333    1389      -1374.77072936264    1e-12          4.1183e-14    4.79815454545454    35.2006045454545   27.7406618181818    -0.00311818181818182     -0.0199363636363636                       227.440954545455    309.619227272727    0.734583454545454    -46.687438221602    -74.0243190502437    
2022-04-22T17:09:08Z    31.6636666666667    -64.1648333333333    1389.5    -1375.28420398485    1e-12          4.1183e-14    4.79646363636364    35.2004190909091   27.74071            -0.00311818181818182     -0.0199363636363636                       227.479636363636    309.632163636364    0.734679390909091    -46.687438221602    -74.0243190502437    
2022-04-22T17:09:08Z    31.6636666666667    -64.1648333333333    1390      -1375.72467642051    1e-12          4.1154e-14    4.79461363636364    35.2002272727273   27.7407763636364    -0.00311818181818182     -0.0199363636363636                       227.515045454545    309.6464            0.734760172727273    -46.687438221602    -74.0243190502437    
2022-04-22T17:09:08Z    31.6636666666667    -64.1648333333333    1390.5    -1376.24998667802    1e-12          4.1096e-14    4.79253181818182    35.2000072727273   27.7408454545455    -0.00378181818181818     -0.0199363636363636                       227.528954545455    309.662536363636    0.734769445454545    -46.687438221602    -74.0243190502437    
2022-04-22T17:09:08Z    31.6636666666667    -64.1648333333333    1391      -1376.74224806926    1e-12          4.1067e-14    4.79023181818182    35.1998054545455   27.7409481818182    -0.00378181818181818     -0.0199363636363636                       227.545681818182    309.680045454545    0.734782290909091    -46.687438221602    -74.0243190502437    
2022-04-22T17:09:08Z    31.6636666666667    -64.1648333333333    1391.5    -1377.23401505933    1e-12          4.1067e-14    4.78798636363636    35.1995863636364   27.74103            -0.00378181818181818     -0.0198909090909091                       227.506090909091    309.697245454545    0.734614863636363    -46.687438221602    -74.0243190502437    
2022-04-22T17:09:08Z    31.6636666666667    -64.1648333333333    1392      -1377.72923361567    1e-12          4.1009e-14    4.78584545454545    35.1993827272727   27.7411063636364    -0.00378181818181818     -0.0198                                   227.458             309.713654545455    0.734420572727273    -46.687438221602    -74.0243190502437    
2022-04-22T17:09:08Z    31.6636666666667    -64.1648333333333    1392.5    -1378.20570774116    1e-12          4.098e-14     4.78358636363636    35.1991463636364   27.7411809090909    -0.00378181818181818     -0.0198                                   227.478136363636    309.731027272727    0.734444645454545    -46.687438221602    -74.0243190502437    
2022-04-22T17:09:08Z    31.6636666666667    -64.1648333333333    1393      -1378.73150505931    1e-12          4.0951e-14    4.78155             35.19897           27.7412745454545    -0.00378181818181818     -0.0198                                   227.507863636364    309.746581818182    0.734502563636364    -46.687438221602    -74.0243190502437    
2022-04-22T17:09:08Z    31.6636666666667    -64.1648333333333    1393.5    -1379.25631458211    1e-12          4.0893e-14    4.77976363636364    35.1988181818182   27.7413618181818    -0.00378181818181818     -0.0198                                   227.557772727273    309.760354545455    0.734631136363636    -46.687438221602    -74.0243190502437    
2022-04-22T17:09:08Z    31.6636666666667    -64.1648333333333    1394      -1379.78309575809    1e-12          4.0893e-14    4.7781              35.1986172727273   27.7413909090909    -0.00378181818181818     -0.0198                                   227.598045454546    309.773318181818    0.734730481818182    -46.687438221602    -74.0243190502437    
2022-04-22T17:09:08Z    31.6636666666667    -64.1648333333333    1394.5    -1380.11948529546    1e-12          4.0922e-14    4.77642727272727    35.1985009090909   27.7414736363636    -0.00311818181818182     -0.0198                                   227.665227272727    309.786236363636    0.7349162            -46.687438221602    -74.0243190502437    
2022-04-22T17:09:08Z    31.6636666666667    -64.1648333333333    1395      -1380.69460164727    1e-12          4.1009e-14    4.77510454545455    35.1983190909091   27.74148            -0.00378181818181818     -0.0198                                   227.691227272727    309.796754545455    0.734973254545454    -46.687438221602    -74.0243190502437    
2022-04-22T17:09:08Z    31.6636666666667    -64.1648333333333    1395.5    -1381.17106906503    1e-12          4.1067e-14    4.77394545454545    35.1981845454545   27.7415009090909    -0.00378181818181818     -0.0198                                   227.711272727273    309.805872727273    0.735016227272727    -46.687438221602    -74.0243190502437    
2022-04-22T17:09:08Z    31.6636666666667    -64.1648333333333    1396      -1381.67219719313    1e-12          4.1154e-14    4.77309090909091    35.1980872727273   27.7415172727273    -0.00311818181818182     -0.0198                                   227.755181818182    309.812618181818    0.735139263636364    -46.687438221602    -74.0243190502437    
2022-04-22T17:09:08Z    31.6636666666667    -64.1648333333333    1396.5    -1382.12498713678    1e-12          4.1183e-14    4.77255             35.1979936363636   27.7415081818182    -0.00245454545454546     -0.0198                                   227.805681818182    309.817245454545    0.735291563636364    -46.687438221602    -74.0243190502437    
2022-04-22T17:09:08Z    31.6636666666667    -64.1648333333333    1397      -1382.649788205      1e-12          4.1271e-14    4.77200454545455    35.1979254545455   27.7415218181818    -0.00111818181818182     -0.0198                                   227.869772727273    309.821709090909    0.735487081818182    -46.687438221602    -74.0243190502437    
2022-04-22T17:09:08Z    31.6636666666667    -64.1648333333333    1397.5    -1383.15140604768    1e-12          4.1242e-14    4.77134545454545    35.1978136363636   27.7415163636364    0.000218181818181818     -0.0198                                   227.933409090909    309.827081818182    0.735679754545455    -46.687438221602    -74.0243190502437    
2022-04-22T17:09:08Z    31.6636666666667    -64.1648333333333    1398      -1383.70135934321    1e-12          4.1242e-14    4.77081818181818    35.1977409090909   27.7415181818182    0.00155454545454545      -0.0198                                   227.955090909091    309.831463636364    0.735738854545455    -46.687438221602    -74.0243190502437    
2022-04-22T17:09:08Z    31.6636666666667    -64.1648333333333    1398.5    -1384.12948342495    1e-12          4.1183e-14    4.77028181818182    35.1976754545455   27.7415327272727    0.00155454545454545      -0.0198                                   227.942636363636    309.835936363636    0.735688027272727    -46.687438221602    -74.0243190502437    
2022-04-22T17:09:08Z    31.6636666666667    -64.1648333333333    1399      -1384.60692953138    1e-12          4.1067e-14    4.76953636363636    35.1974909090909   27.7414881818182    0.00155454545454545      -0.0198                                   227.926090909091    309.842090909091    0.735621154545455    -46.687438221602    -74.0243190502437    
2022-04-22T17:09:08Z    31.6636666666667    -64.1648333333333    1399.5    -1385.08930683339    1e-12          4.1009e-14    4.76858181818182    35.1974009090909   27.7415236363636    0.00155454545454545      -0.0198                                   227.896727272727    309.8495            0.735508672727273    -46.687438221602    -74.0243190502437    
2022-04-22T17:09:08Z    31.6636666666667    -64.1648333333333    1400      -1385.6091682515     1e-12          4.0951e-14    4.7679              35.1972990909091   27.74153            0.00089090909090909      -0.0198                                   227.884727272727    309.854954545455    0.735458618181818    -46.687438221602    -74.0243190502437    
2022-04-22T17:09:08Z    31.6636666666667    -64.1648333333333    1400.5    -1386.1132451746     1e-12          4.0893e-14    4.76705909090909    35.1971936363636   27.7415490909091    0.000890909090909091     -0.0198                                   227.876909090909    309.861654545455    0.735417790909091    -46.687438221602    -74.0243190502437    
2022-04-22T17:09:08Z    31.6636666666667    -64.1648333333333    1401      -1386.61732089382    1e-12          4.0922e-14    4.76601363636364    35.1970463636364   27.7415572727273    0.000227272727272727     -0.0198                                   227.864363636364    309.869945454545    0.7353569            -46.687438221602    -74.0243190502437    
2022-04-22T17:09:08Z    31.6636666666667    -64.1648333333333    1401.5    -1387.15493456735    1e-12          4.0893e-14    4.76462727272727    35.1968918181818   27.7415981818182    0.000227272727272727     -0.0198                                   227.895818181818    309.880754545455    0.735433981818182    -46.687438221602    -74.0243190502437    
2022-04-22T17:09:08Z    31.6636666666667    -64.1648333333333    1402      -1387.5218921035     1e-12          4.0893e-14    4.76311818181818    35.1967036363636   27.7416154545455    0.000227272727272727     -0.0198                                   227.903954545455    309.8925            0.735431927272727    -46.687438221602    -74.0243190502437    
2022-04-22T17:09:08Z    31.6636666666667    -64.1648333333333    1402.5    -1388.09698824667    1e-12          4.0922e-14    4.76124545454545    35.1964545454546   27.7416309090909    -0.000445454545454546    -0.0198                                   227.894227272727    309.907081818182    0.735365518181818    -46.687438221602    -74.0243190502437    
2022-04-22T17:09:08Z    31.6636666666667    -64.1648333333333    1403      -1388.62276087696    1e-12          4.0922e-14    4.75874545454545    35.19618           27.7416990909091    -0.00178181818181818     -0.0198                                   227.8675            309.926336363636    0.735232936363636    -46.687438221602    -74.0243190502437    
2022-04-22T17:09:08Z    31.6636666666667    -64.1648333333333    1403.5    -1389.09921036366    1e-12          4.098e-14     4.75614545454545    35.1959318181818   27.7418027272727    -0.00245454545454546     -0.0198                                   227.839772727273    309.946236363636    0.735096290909091    -46.687438221602    -74.0243190502437    
2022-04-22T17:09:08Z    31.6636666666667    -64.1648333333333    1404      -1389.67430220125    1e-12          4.11685e-14   4.75354545454545    35.1956854545455   27.7419036363636    -0.00245454545454546     -0.0198                                   227.815863636364    309.966090909091    0.734972009090909    -46.687438221602    -74.0243190502437    
2022-04-22T17:09:08Z    31.6636666666667    -64.1648333333333    1404.5    -1390.00475734974    1e-12          4.1345e-14    4.75112727272727    35.1955336363636   27.7420427272727    -0.00245454545454546     -0.0198                                   227.799909090909    309.984418181818    0.7348755            -46.687438221602    -74.0243190502437    
2022-04-22T17:09:08Z    31.6636666666667    -64.1648333333333    1405      -1390.57886028574    1e-12          4.133e-14     4.74898181818182    35.1953709090909   27.7421563636364    -0.00245454545454546     -0.0198                                   227.809090909091    310.000827272727    0.734866209090909    -46.687438221602    -74.0243190502437    
2022-04-22T17:09:08Z    31.6636666666667    -64.1648333333333    1405.5    -1391.05629177651    1e-12          4.1213e-14    4.7469              35.1952118181818   27.7422654545455    -0.00179090909090909     -0.0198                                   227.811090909091    310.016745454545    0.734833890909091    -46.687438221602    -74.0243190502437    
2022-04-22T17:09:08Z    31.6636666666667    -64.1648333333333    1406      -1391.53273576006    1e-12          4.1154e-14    4.74506363636364    35.1950618181818   27.7423572727273    -0.00179090909090909     -0.0198                                   227.834545454545    310.030927272727    0.734876118181818    -46.687438221602    -74.0243190502437    
2022-04-22T17:09:08Z    31.6636666666667    -64.1648333333333    1406.5    -1392.03729172224    1e-12          4.1038e-14    4.74338181818182    35.19495           27.7424572727273    -0.00112727272727273     -0.0198                                   227.880863636364    310.043845454545    0.734995781818182    -46.687438221602    -74.0243190502437    
2022-04-22T17:09:08Z    31.6636666666667    -64.1648333333333    1407      -1392.49252544117    1e-12          4.09365e-14   4.74197727272727    35.1948327272727   27.7425236363636    -0.00112727272727273     -0.0198                                   227.872954545455    310.0548            0.734943445454545    -46.687438221602    -74.0243190502437    
2022-04-22T17:09:08Z    31.6636666666667    -64.1648333333333    1407.5    -1393.0676080167     1e-12          4.0922e-14    4.74064545454546    35.1947572727273   27.7426245454545    -0.00112727272727273     -0.0198                                   227.888227272727    310.065018181818    0.7349686            -46.687438221602    -74.0243190502437    
2022-04-22T17:09:08Z    31.6636666666667    -64.1648333333333    1408      -1393.5075500594     1e-12          4.0922e-14    4.73970909090909    35.1946872727273   27.7426763636364    -0.00112727272727273     -0.0198                                   227.925909090909    310.072236363636    0.7350731            -46.687438221602    -74.0243190502437    
2022-04-22T17:09:08Z    31.6636666666667    -64.1648333333333    1408.5    -1394.02048581033    1e-12          4.0893e-14    4.73918181818182    35.1946563636364   27.7427127272727    -0.000463636363636364    -0.0198                                   227.975363636364    310.076463636364    0.735223272727273    -46.687438221602    -74.0243190502437    
2022-04-22T17:09:08Z    31.6636666666667    -64.1648333333333    1409      -1394.50037552496    1e-12          4.0893e-14    4.73878181818182    35.1946218181818   27.7427327272727    -0.000463636363636364    -0.0198                                   228.022954545455    310.079763636364    0.7353687            -46.687438221602    -74.0243190502437    
2022-04-22T17:09:08Z    31.6636666666667    -64.1648333333333    1409.5    -1395.03550306799    1e-12          4.0922e-14    4.73830909090909    35.1945445454545   27.7427290909091    -0.000463636363636364    -0.0198                                   228.098409090909    310.083727272727    0.735603618181818    -46.687438221602    -74.0243190502437    
2022-04-22T17:09:08Z    31.6636666666667    -64.1648333333333    1410      -1395.48185264581    1e-12          4.0893e-14    4.73754545454545    35.1944509090909   27.7427454545455    -0.000463636363636364    -0.0198                                   228.148545454545    310.089872727273    0.735748845454545    -46.687438221602    -74.0243190502437    
2022-04-22T17:09:08Z    31.6636666666667    -64.1648333333333    1410.5    -1395.98294673322    1e-12          4.0922e-14    4.73631818181818    35.1942672727273   27.7427336363636    -0.000795454545454546    -0.0198                                   228.170181818182    310.099618181818    0.735797172727273    -46.687438221602    -74.0243190502437    
2022-04-22T17:09:08Z    31.6636666666667    -64.1648333333333    1411      -1396.46579119596    1e-12          4.098e-14     4.73457727272727    35.1941190909091   27.7428218181818    -0.000795454545454546    -0.0198                                   228.197636363636    310.113036363636    0.735853509090909    -46.687438221602    -74.0243190502437    
2022-04-22T17:09:08Z    31.6636666666667    -64.1648333333333    1411.5    -1397.1054720881     1e-12          4.1242e-14    4.73274090909091    35.1940245454545   27.7429527272727    -0.000795454545454545    -0.0198                                   228.224454545455    310.126936363636    0.7359069            -46.687438221602    -74.0243190502437    
2022-04-22T17:09:08Z    31.6636666666667    -64.1648333333333    1412      -1397.37130652295    1e-12          4.136e-14     4.73092272727273    35.1938863636364   27.7430518181818    -0.00145909090909091     -0.0198                                   228.238181818182    310.140818181818    0.735917581818182    -46.687438221602    -74.0243190502437    
2022-04-22T17:09:08Z    31.6636666666667    -64.1648333333333    1412.5    -1397.94045741125    1e-12          4.1183e-14    4.72904090909091    35.1937609090909   27.7431672727273    -0.00212272727272727     -0.0198                                   228.249909090909    310.1552            0.735921281818182    -46.687438221602    -74.0243190502437    
2022-04-22T17:09:08Z    31.6636666666667    -64.1648333333333    1413      -1398.44795719734    1e-12          4.10815e-14   4.72716818181818    35.1936509090909   27.7432945454545    -0.00278636363636364     -0.0198                                   228.259545454545    310.169536363636    0.7359186            -46.687438221602    -74.0243190502437    
2022-04-22T17:09:08Z    31.6636666666667    -64.1648333333333    1413.5    -1398.97025164354    1e-12          4.0922e-14    4.72528636363636    35.1935627272727   27.7434418181818    -0.00345                 -0.0198                                   228.278681818182    310.184018181818    0.735946072727273    -46.687438221602    -74.0243190502437    
2022-04-22T17:09:08Z    31.6636666666667    -64.1648333333333    1414      -1399.46837827647    1e-12          4.0893e-14    4.7236              35.1934609090909   27.7435581818182    -0.00345                 -0.0198                                   228.300681818182    310.196963636364    0.735987090909091    -46.687438221602    -74.0243190502437    
2022-04-22T17:09:08Z    31.6636666666667    -64.1648333333333    1414.5    -1399.9270482809     1e-12          4.0864e-14    4.72181818181818    35.1933581818182   27.74368            -0.00345                 -0.0198909090909091                       228.316954545455    310.210554545455    0.736007254545455    -46.687438221602    -74.0243190502437    
2022-04-22T17:09:08Z    31.6636666666667    -64.1648333333333    1415      -1400.4744918202     1e-12          4.0836e-14    4.71984545454545    35.1932609090909   27.7438118181818    -0.00411363636363636     -0.0198909090909091                       228.318863636364    310.225609090909    0.735978363636364    -46.687438221602    -74.0243190502437    
2022-04-22T17:09:08Z    31.6636666666667    -64.1648333333333    1415.5    -1400.95387367401    1e-12          4.0864e-14    4.71814090909091    35.19315           27.7439318181818    -0.00411363636363636     -0.0198909090909091                       228.346409090909    310.238781818182    0.736039209090909    -46.687438221602    -74.0243190502437    
2022-04-22T17:09:08Z    31.6636666666667    -64.1648333333333    1416      -1401.43128165805    1e-12          4.0864e-14    4.71669090909091    35.1931345454545   27.7440945454545    -0.00378181818181818     -0.0198909090909091                       228.396772727273    310.249809090909    0.736174072727273    -46.687438221602    -74.0243190502437    
2022-04-22T17:09:08Z    31.6636666666667    -64.1648333333333    1416.5    -1401.88353594978    1e-12          4.0836e-14    4.71559545454545    35.1930690909091   27.7441654545455    -0.00378181818181818     -0.0199363636363636                       228.4375            310.258290909091    0.736286045454545    -46.687438221602    -74.0243190502437    
2022-04-22T17:09:08Z    31.6636666666667    -64.1648333333333    1417      -1402.39102625428    1e-12          4.0864e-14    4.71455909090909    35.1929772727273   27.7442145454545    -0.00378181818181818     -0.0200272727272727                       228.5045            310.266536363636    0.736482527272727    -46.687438221602    -74.0243190502437    
2022-04-22T17:09:08Z    31.6636666666667    -64.1648333333333    1417.5    -1402.96016358553    1e-12          4.1067e-14    4.71345909090909    35.19295           27.74432            -0.00378181818181818     -0.0201181818181818                       228.583636363636    310.275009090909    0.736718318181818    -46.687438221602    -74.0243190502437    
2022-04-22T17:09:08Z    31.6636666666667    -64.1648333333333    1418      -1403.2965161211     1e-12          4.1389e-14    4.71241363636364    35.1929190909091   27.7444181818182    -0.00378181818181818     -0.0202090909090909                       228.669727272727    310.283036363636    0.736976618181818    -46.687438221602    -74.0243190502437    
2022-04-22T17:09:08Z    31.6636666666667    -64.1648333333333    1418.5    -1403.86811692605    1e-12          4.1419e-14    4.71140454545455    35.1928881818182   27.7445127272727    -0.00378181818181818     -0.0202090909090909                       228.756454545455    310.290909090909    0.7372376            -46.687438221602    -74.0243190502437    
2022-04-22T17:09:08Z    31.6636666666667    -64.1648333333333    1419      -1404.34453193809    1e-12          4.1389e-14    4.71039545454545    35.1928472727273   27.7445972727273    -0.00378181818181818     -0.0202090909090909                       228.828454545455    310.298681818182    0.737450781818182    -46.687438221602    -74.0243190502437    
2022-04-22T17:09:08Z    31.6636666666667    -64.1648333333333    1419.5    -1404.82489133005    1e-12          4.1301e-14    4.70949090909091    35.1928518181818   27.7447009090909    -0.00444545454545455     -0.0202090909090909                       228.891636363636    310.305609090909    0.737637127272727    -46.687438221602    -74.0243190502437    
2022-04-22T17:09:08Z    31.6636666666667    -64.1648333333333    1420      -1405.3506222236     1e-12          4.1213e-14    4.70870909090909    35.1928190909091   27.7447645454546    -0.00510909090909091     -0.0201181818181818                       228.957454545455    310.311681818182    0.737835281818182    -46.687438221602    -74.0243190502437    
2022-04-22T17:09:08Z    31.6636666666667    -64.1648333333333    1420.5    -1405.82752707429    1e-12          4.1038e-14    4.70813636363636    35.1928236363636   27.7448527272727    -0.00444545454545455     -0.0201181818181818                       229.018454545455    310.316172727273    0.738019472727273    -46.687438221602    -74.0243190502437    
2022-04-22T17:09:08Z    31.6636666666667    -64.1648333333333    1421      -1406.3049240183     1e-12          4.1009e-14    4.70756818181818    35.1928809090909   27.7449527272727    -0.00510909090909091     -0.0201181818181818                       229.067090909091    310.320418181818    0.738164454545455    -46.687438221602    -74.0243190502437    
2022-04-22T17:09:08Z    31.6636666666667    -64.1648333333333    1421.5    -1406.83065122       1e-12          4.09365e-14   4.70720454545455    35.1928781818182   27.7449990909091    -0.00577272727272727     -0.0201181818181818                       229.106590909091    310.323409090909    0.738284272727273    -46.687438221602    -74.0243190502437    
2022-04-22T17:09:08Z    31.6636666666667    -64.1648333333333    1422      -1407.30705954036    1e-12          4.0864e-14    4.7069              35.19292           27.74507            -0.00643636363636364     -0.0200727272727273                       229.149590909091    310.325872727273    0.738416636363636    -46.687438221602    -74.0243190502437    
2022-04-22T17:09:08Z    31.6636666666667    -64.1648333333333    1422.5    -1407.78691900134    1e-12          4.0864e-14    4.70651818181818    35.1929336363636   27.7451281818182    -0.00643636363636364     -0.0200727272727273                       229.164954545455    310.328872727273    0.738458981818182    -46.687438221602    -74.0243190502437    
2022-04-22T17:09:08Z    31.6636666666667    -64.1648333333333    1423      -1408.31609472525    1e-12          4.0864e-14    4.70620909090909    35.1929127272727   27.7451509090909    -0.00643636363636364     -0.0199818181818182                       229.160636363636    310.331527272727    0.738438390909091    -46.687438221602    -74.0243190502437    
2022-04-22T17:09:08Z    31.6636666666667    -64.1648333333333    1423.5    -1408.79249968803    1e-12          4.0836e-14    4.70589090909091    35.1928854545455   27.7451718181818    -0.00643636363636364     -0.0198909090909091                       229.171590909091    310.334327272727    0.7384659            -46.687438221602    -74.0243190502437    
2022-04-22T17:09:08Z    31.6636666666667    -64.1648333333333    1424      -1409.26988991635    1e-12          4.0864e-14    4.7055              35.1928509090909   27.7451909090909    -0.00577272727272727     -0.0198909090909091                       229.171863636364    310.337554545455    0.738458809090909    -46.687438221602    -74.0243190502437    
2022-04-22T17:09:08Z    31.6636666666667    -64.1648333333333    1424.5    -1409.79560972258    1e-12          4.0836e-14    4.70511818181818    35.1928427272727   27.7452318181818    -0.00577272727272727     -0.0199818181818182                       229.193636363636    310.340672727273    0.738521645454545    -46.687438221602    -74.0243190502437    
2022-04-22T17:09:08Z    31.6636666666667    -64.1648333333333    1425      -1410.3706450823     1e-12          4.0893e-14    4.70473636363636    35.1928109090909   27.7452563636364    -0.00577272727272727     -0.0200727272727273                       229.207363636364    310.343945454545    0.7385582            -46.687438221602    -74.0243190502437    
2022-04-22T17:09:08Z    31.6636666666667    -64.1648333333333    1425.5    -1410.70698579198    1e-12          4.1242e-14    4.7043              35.1927772727273   27.7452854545455    -0.00577272727272727     -0.0200727272727273                       229.219545454545    310.347627272727    0.738588581818182    -46.687438221602    -74.0243190502437    
2022-04-22T17:09:08Z    31.6636666666667    -64.1648333333333    1426      -1411.27610066782    1e-12          4.1419e-14    4.70382727272727    35.1927            27.7452818181818    -0.00610454545454545     -0.0200727272727273                       229.226090909091    310.351545454545    0.738600345454545    -46.687438221602    -74.0243190502437    
2022-04-22T17:09:08Z    31.6636666666667    -64.1648333333333    1426.5    -1411.78060936282    1e-12          4.1301e-14    4.70329090909091    35.1925863636364   27.7452654545455    -0.00544090909090909     -0.0200727272727273                       229.230272727273    310.356090909091    0.738602109090909    -46.687438221602    -74.0243190502437    
2022-04-22T17:09:08Z    31.6636666666667    -64.1648333333333    1427      -1412.25454067396    1e-12          4.1242e-14    4.70222727272727    35.1923490909091   27.7452027272727    -0.00544090909090909     -0.0200727272727273                       229.265636363636    310.364781818182    0.738699790909091    -46.687438221602    -74.0243190502437    
2022-04-22T17:09:08Z    31.6636666666667    -64.1648333333333    1427.5    -1412.75559488862    1e-12          4.1096e-14    4.70085909090909    35.1921918181818   27.7452390909091    -0.00544090909090909     -0.0200727272727273                       229.283636363636    310.375590909091    0.738731236363636    -46.687438221602    -74.0243190502437    
2022-04-22T17:09:08Z    31.6636666666667    -64.1648333333333    1428      -1413.23889408394    1e-12          4.098e-14     4.69959090909091    35.1920972727273   27.7453109090909    -0.00544090909090909     -0.0199818181818182                       229.303636363636    310.3855            0.738771545454545    -46.687438221602    -74.0243190502437    
2022-04-22T17:09:08Z    31.6636666666667    -64.1648333333333    1428.5    -1413.71528792059    1e-12          4.0922e-14    4.69829090909091    35.1919681818182   27.7453581818182    -0.00544090909090909     -0.0199818181818182                       229.317045454545    310.395636363636    0.738790672727273    -46.687438221602    -74.0243190502437    
2022-04-22T17:09:08Z    31.6636666666667    -64.1648333333333    1429      -1414.15025526596    1e-12          4.0893e-14    4.697               35.1918554545455   27.7454136363636    -0.00544090909090909     -0.0199818181818182                       229.301454545455    310.4057            0.738717881818182    -46.687438221602    -74.0243190502437    
2022-04-22T17:09:08Z    31.6636666666667    -64.1648333333333    1429.5    -1414.71837452286    1e-12          4.085e-14     4.69578636363636    35.1917290909091   27.7454509090909    -0.00610454545454546     -0.0199818181818182                       229.272545454545    310.415190909091    0.738602681818182    -46.687438221602    -74.0243190502437    
2022-04-22T17:09:08Z    31.6636666666667    -64.1648333333333    1430      -1415.24408074631    1e-12          4.0807e-14    4.69465             35.1915827272727   27.7454681818182    -0.00544090909090909     -0.0198                                   229.254227272727    310.424190909091    0.738521372727273    -46.687438221602    -74.0243190502437    
2022-04-22T17:09:08Z    31.6636666666667    -64.1648333333333    1430.5    -1415.69975749351    1e-12          4.0836e-14    4.69350909090909    35.1914563636364   27.7454990909091    -0.00510909090909091     -0.0197090909090909                       229.264909090909    310.433163636364    0.738534109090909    -46.687438221602    -74.0243190502437    
2022-04-22T17:09:08Z    31.6636666666667    -64.1648333333333    1431      -1416.24716007976    1e-12          4.0836e-14    4.69238181818182    35.1913645454545   27.7455545454545    -0.00510909090909091     -0.0197090909090909                       229.269727272727    310.441945454545    0.738528745454545    -46.687438221602    -74.0243190502437    
2022-04-22T17:09:08Z    31.6636666666667    -64.1648333333333    1431.5    -1416.72453342554    1e-12          4.085e-14     4.69139090909091    35.1913163636364   27.7456290909091    -0.00510909090909091     -0.0197090909090909                       229.298136363636    310.449709090909    0.738601709090909    -46.687438221602    -74.0243190502437    
2022-04-22T17:09:08Z    31.6636666666667    -64.1648333333333    1432      -1417.17971382074    1e-12          4.0922e-14    4.69050909090909    35.1912909090909   27.7457036363636    -0.00577272727272727     -0.0197090909090909                       229.310227272727    310.456545454545    0.738625372727273    -46.687438221602    -74.0243190502437    
2022-04-22T17:09:08Z    31.6636666666667    -64.1648333333333    1432.5    -1417.69012620666    1e-12          4.1096e-14    4.69020454545455    35.1914018181818   27.7458281818182    -0.00510909090909091     -0.0198                                   229.301909090909    310.4589            0.738588454545455    -46.687438221602    -74.0243190502437    
2022-04-22T17:09:08Z    31.6636666666667    -64.1648333333333    1433      -1418.13741411012    1e-12          4.1271e-14    4.69034090909091    35.1914436363636   27.7458481818182    -0.00377272727272727     -0.0198                                   229.304636363636    310.458136363636    0.738599881818182    -46.687438221602    -74.0243190502437    
2022-04-22T17:09:08Z    31.6636666666667    -64.1648333333333    1433.5    -1418.68826241026    1e-12          4.1301e-14    4.69045454545455    35.1914054545455   27.7458072727273    -0.00243636363636364     -0.0198                                   229.325             310.457718181818    0.738667072727273    -46.687438221602    -74.0243190502437    
2022-04-22T17:09:08Z    31.6636666666667    -64.1648333333333    1434      -1419.21395872825    1e-12          4.1213e-14    4.69046363636364    35.1914045454545   27.7458072727273    -0.00243636363636364     -0.0198                                   229.328181818182    310.458018181818    0.738677354545455    -46.687438221602    -74.0243190502437    
2022-04-22T17:09:08Z    31.6636666666667    -64.1648333333333    1434.5    -1419.64201067185    1e-12          4.1154e-14    4.69046363636364    35.1914154545454   27.7458209090909    -0.00243636363636364     -0.0198                                   229.311818181818    310.4582            0.738623890909091    -46.687438221602    -74.0243190502437    
2022-04-22T17:09:08Z    31.6636666666667    -64.1648333333333    1435      -1420.11937633043    1e-12          4.1038e-14    4.69042727272727    35.1914027272727   27.7458236363636    -0.00243636363636364     -0.0198                                   229.343136363636    310.458854545455    0.738722954545455    -46.687438221602    -74.0243190502437    
2022-04-22T17:09:08Z    31.6636666666667    -64.1648333333333    1435.5    -1420.64506907992    1e-12          4.0951e-14    4.69022727272727    35.1913881818182   27.7458390909091    -0.0031                  -0.0198909090909091                       229.336181818182    310.460718181818    0.738697027272727    -46.687438221602    -74.0243190502437    
2022-04-22T17:09:08Z    31.6636666666667    -64.1648333333333    1436      -1421.12243246734    1e-12          4.0922e-14    4.68998636363636    35.1913890909091   27.7458736363636    -0.00343181818181818     -0.0198909090909091                       229.301909090909    310.462845454545    0.738581754545455    -46.687438221602    -74.0243190502437    
2022-04-22T17:09:08Z    31.6636666666667    -64.1648333333333    1436.5    -1421.60571248168    1e-12          4.0951e-14    4.68979545454545    35.1913727272727   27.7458890909091    -0.00343181818181818     -0.0198909090909091                       229.302363636364    310.464672727273    0.738578954545455    -46.687438221602    -74.0243190502437    
2022-04-22T17:09:08Z    31.6636666666667    -64.1648333333333    1437      -1422.10674446838    1e-12          4.0951e-14    4.68955909090909    35.1913518181818   27.7459045454546    -0.00376363636363636     -0.0198909090909091                       229.285727272727    310.466809090909    0.7385203            -46.687438221602    -74.0243190502437    
2022-04-22T17:09:08Z    31.6636666666667    -64.1648333333333    1437.5    -1422.60826840163    1e-12          4.1009e-14    4.68929545454546    35.1913272727273   27.74592            -0.00343181818181818     -0.0198909090909091                       229.305727272727    310.469181818182    0.738579281818182    -46.687438221602    -74.0243190502437    
2022-04-22T17:09:08Z    31.6636666666667    -64.1648333333333    1438      -1423.08562734407    1e-12          4.1038e-14    4.68899545454545    35.1913136363636   27.7459472727273    -0.00409545454545455     -0.0198                                   229.314090909091    310.471745454545    0.738600263636364    -46.687438221602    -74.0243190502437    
2022-04-22T17:09:08Z    31.6636666666667    -64.1648333333333    1438.5    -1423.58665581966    1e-12          4.1009e-14    4.68868636363636    35.19127           27.7459518181818    -0.00543181818181818     -0.0198                                   229.315             310.474381818182    0.738596718181818    -46.687438221602    -74.0243190502437    
2022-04-22T17:09:08Z    31.6636666666667    -64.1648333333333    1439      -1424.13748988252    1e-12          4.1096e-14    4.68832272727273    35.1912254545455   27.7459681818182    -0.00676818181818182     -0.0198                                   229.310727272727    310.477572727273    0.738574809090909    -46.687438221602    -74.0243190502437    
2022-04-22T17:09:08Z    31.6636666666667    -64.1648333333333    1439.5    -1424.56207987863    1e-12          4.1096e-14    4.68795909090909    35.1911790909091   27.7459763636364    -0.00676818181818182     -0.0198                                   229.321272727273    310.480718181818    0.738601436363636    -46.687438221602    -74.0243190502437    
2022-04-22T17:09:08Z    31.6636666666667    -64.1648333333333    1440      -1425.04535200761    1e-12          4.1096e-14    4.68744545454545    35.1910890909091   27.7459654545455    -0.00676818181818182     -0.0198                                   229.373818181818    310.485090909091    0.738759690909091    -46.687438221602    -74.0243190502437    
2022-04-22T17:09:08Z    31.6636666666667    -64.1648333333333    1440.5    -1425.66620713386    1e-12          4.1183e-14    4.68678636363636    35.1909436363636   27.7459436363636    -0.00643636363636364     -0.0198909090909091                       229.388090909091    310.490609090909    0.738792390909091    -46.687438221602    -74.0243190502437    
2022-04-22T17:09:08Z    31.6636666666667    -64.1648333333333    1441      -1426.00350970579    1e-12          4.1154e-14    4.68563181818182    35.1907690909091   27.7459363636364    -0.00643636363636364     -0.0199818181818182                       229.407954545455    310.499818181818    0.738834472727273    -46.687438221602    -74.0243190502437    
2022-04-22T17:09:08Z    31.6636666666667    -64.1648333333333    1441.5    -1426.52918778454    1e-12          4.1067e-14    4.68422272727273    35.1906036363636   27.74597            -0.00643636363636364     -0.0199818181818182                       229.447181818182    310.510809090909    0.738934681818182    -46.687438221602    -74.0243190502437    
2022-04-22T17:09:08Z    31.6636666666667    -64.1648333333333    1442      -1427.10417750316    1e-12          4.1038e-14    4.68266818181818    35.1904645454545   27.7460381818182    -0.00643636363636364     -0.0199818181818182                       229.458545454545    310.522863636364    0.738942381818182    -46.687438221602    -74.0243190502437    
2022-04-22T17:09:08Z    31.6636666666667    -64.1648333333333    1442.5    -1427.55686984769    1e-12          4.098e-14     4.68110909090909    35.1902863636364   27.74608            -0.00610454545454545     -0.0199818181818182                       229.463909090909    310.535036363636    0.738929063636364    -46.687438221602    -74.0243190502437    
2022-04-22T17:09:08Z    31.6636666666667    -64.1648333333333    1443      -1428.0342175868     1e-12          4.098e-14     4.67907272727273    35.1900409090909   27.7461163636364    -0.00643636363636364     -0.0199818181818182                       229.465545454545    310.550745454546    0.738896863636364    -46.687438221602    -74.0243190502437    
2022-04-22T17:09:08Z    31.6636666666667    -64.1648333333333    1443.5    -1428.52339927414    1e-12          4.098e-14     4.67703636363636    35.1898581818182   27.7462009090909    -0.00643636363636364     -0.0199818181818182                       229.478727272727    310.566390909091    0.738902190909091    -46.687438221602    -74.0243190502437    
2022-04-22T17:09:08Z    31.6636666666667    -64.1648333333333    1444      -1428.97017107236    1e-12          4.0922e-14    4.67498181818182    35.18967           27.7462863636364    -0.00643636363636364     -0.0199818181818182                       229.520636363636    310.582290909091    0.738999427272727    -46.687438221602    -74.0243190502437    
2022-04-22T17:09:08Z    31.6636666666667    -64.1648333333333    1444.5    -1429.51408733478    1e-12          4.0951e-14    4.67302272727273    35.1895336363636   27.7463854545455    -0.00643636363636364     -0.0199818181818182                       229.550909090909    310.597181818182    0.739060890909091    -46.687438221602    -74.0243190502437    
2022-04-22T17:09:08Z    31.6636666666667    -64.1648333333333    1445      -1430.01559365613    1e-12          4.098e-14     4.6714              35.1893454545455   27.7464463636364    -0.00577272727272727     -0.0199818181818182                       229.599954545455    310.609872727273    0.739185072727273    -46.687438221602    -74.0243190502437    
2022-04-22T17:09:08Z    31.6636666666667    -64.1648333333333    1445.5    -1430.49885328766    1e-12          4.1009e-14    4.66883636363636    35.1890054545455   27.7464572727273    -0.00577272727272727     -0.0200727272727273                       229.642363636364    310.629827272727    0.739272727272727    -46.687438221602    -74.0243190502437    
2022-04-22T17:09:08Z    31.6636666666667    -64.1648333333333    1446      -1431.01268527282    1e-12          4.1125e-14    4.66583181818182    35.1888854545455   27.7466890909091    -0.00544090909090909     -0.0200727272727273                       229.6825            310.652372727273    0.739348281818182    -46.687438221602    -74.0243190502437    
2022-04-22T17:09:08Z    31.6636666666667    -64.1648333333333    1446.5    -1431.45945179706    1e-12          4.1271e-14    4.66328636363636    35.1888209090909   27.7469236363636    -0.00477727272727273     -0.0200727272727273                       229.725045454545    310.671509090909    0.739439727272727    -46.687438221602    -74.0243190502437    
2022-04-22T17:09:08Z    31.6636666666667    -64.1648333333333    1447      -1431.96144660639    1e-12          4.1271e-14    4.66081363636364    35.1886663636364   27.7470745454545    -0.00411363636363636     -0.0201636363636364                       229.762045454545    310.690354545455    0.739515863636364    -46.687438221602    -74.0243190502437    
2022-04-22T17:09:08Z    31.6636666666667    -64.1648333333333    1447.5    -1432.46344022363    1e-12          4.1183e-14    4.65807727272727    35.1884754545455   27.7472354545455    -0.00345                 -0.0202545454545454                       229.801954545455    310.711154545455    0.7395971            -46.687438221602    -74.0243190502437    
2022-04-22T17:09:08Z    31.6636666666667    -64.1648333333333    1448      -1432.98022611597    1e-12          4.1125e-14    4.6551              35.1882927272727   27.74742            -0.00378181818181818     -0.0203454545454545                       229.846909090909    310.733818181818    0.739691045454545    -46.687438221602    -74.0243190502437    
2022-04-22T17:09:08Z    31.6636666666667    -64.1648333333333    1448.5    -1433.48172418241    1e-12          4.09655e-14   4.65199090909091    35.1881763636364   27.7476718181818    -0.00378181818181818     -0.0204363636363636                       229.886090909091    310.757290909091    0.739761254545454    -46.687438221602    -74.0243190502437    
2022-04-22T17:09:08Z    31.6636666666667    -64.1648333333333    1449      -1433.97434503522    1e-12          4.0922e-14    4.64872727272727    35.1880018181818   27.7478954545454    -0.00378181818181818     -0.0205272727272727                       229.914545454545    310.781872727273    0.739791136363636    -46.687438221602    -74.0243190502437    
2022-04-22T17:09:08Z    31.6636666666667    -64.1648333333333    1449.5    -1434.46943028854    1e-12          4.0864e-14    4.64524545454545    35.1878263636364   27.7481418181818    -0.00378181818181818     -0.0206181818181818                       229.941454545455    310.808009090909    0.739815045454545    -46.687438221602    -74.0243190502437    
2022-04-22T17:09:08Z    31.6636666666667    -64.1648333333333    1450      -1434.95267971372    1e-12          4.0836e-14    4.64170454545455    35.1876381818182   27.7483972727273    -0.00311818181818182     -0.0207090909090909                       229.979409090909    310.834790909091    0.739874336363636    -46.687438221602    -74.0243190502437    
2022-04-22T17:09:08Z    31.6636666666667    -64.1648333333333    1450.5    -1435.43001071192    1e-12          4.0864e-14    4.63791818181818    35.1874827272727   27.7486745454545    -0.00378181818181818     -0.0207090909090909                       230.028590909091    310.863190909091    0.739967345454545    -46.687438221602    -74.0243190502437    
2022-04-22T17:09:08Z    31.6636666666667    -64.1648333333333    1451      -1435.93791337695    1e-12          4.0864e-14    4.63520454545455    35.1875081818182   27.74901            -0.00378181818181818     -0.0206181818181818                       230.063272727273    310.883336363636    0.740032872727273    -46.687438221602    -74.0243190502437    
2022-04-22T17:09:08Z    31.6636666666667    -64.1648333333333    1451.5    -1436.43299402076    1e-12          4.0951e-14    4.63303181818182    35.1873745454545   27.7491436363636    -0.00444545454545455     -0.0206181818181818                       230.101772727273    310.900063636364    0.740116872727273    -46.687438221602    -74.0243190502437    
2022-04-22T17:09:08Z    31.6636666666667    -64.1648333333333    1452      -1436.94089427036    1e-12          4.1038e-14    4.63091363636364    35.1872136363636   27.7492536363636    -0.00510909090909091     -0.0206181818181818                       230.135136363636    310.916236363636    0.740185009090909    -46.687438221602    -74.0243190502437    
2022-04-22T17:09:08Z    31.6636666666667    -64.1648333333333    1452.5    -1437.40638624011    1e-12          4.1198e-14    4.62894090909091    35.1870927272727   27.7493781818182    -0.00510909090909091     -0.0206181818181818                       230.173954545455    310.9313            0.740271981818182    -46.687438221602    -74.0243190502437    
2022-04-22T17:09:08Z    31.6636666666667    -64.1648333333333    1453      -1437.88321858065    1e-12          4.133e-14     4.62729545454545    35.1869781818182   27.7494663636364    -0.00577272727272727     -0.0206181818181818                       230.228318181818    310.944009090909    0.740413063636364    -46.687438221602    -74.0243190502437    
2022-04-22T17:09:08Z    31.6636666666667    -64.1648333333333    1453.5    -1438.38519810113    1e-12          4.136e-14     4.62579545454545    35.1869109090909   27.7495818181818    -0.00510909090909091     -0.0205272727272727                       230.2785            310.955363636364    0.740545936363636    -46.687438221602    -74.0243190502437    
2022-04-22T17:09:08Z    31.6636666666667    -64.1648333333333    1454      -1438.89950397278    1e-12          4.133e-14     4.62485909090909    35.1868190909091   27.7496190909091    -0.00477727272727273     -0.0204363636363636                       230.312954545455    310.962827272727    0.7406396            -46.687438221602    -74.0243190502437    
2022-04-22T17:09:08Z    31.6636666666667    -64.1648333333333    1454.5    -1439.40049487452    1e-12          4.1213e-14    4.62391363636364    35.1867281818182   27.7496563636364    -0.00411363636363636     -0.0203454545454545                       230.342318181818    310.970372727273    0.7407197            -46.687438221602    -74.0243190502437    
2022-04-22T17:09:08Z    31.6636666666667    -64.1648333333333    1455      -1439.8931018922     1e-12          4.11105e-14   4.62315909090909    35.1866827272727   27.7497118181818    -0.00345                 -0.0203454545454546                       230.348045454545    310.976527272727    0.740723772727273    -46.687438221602    -74.0243190502437    
2022-04-22T17:09:08Z    31.6636666666667    -64.1648333333333    1455.5    -1440.36105283951    1e-12          4.098e-14     4.62242272727273    35.1865981818182   27.7497363636364    -0.00411363636363636     -0.0203454545454545                       230.357363636364    310.982309090909    0.740738645454546    -46.687438221602    -74.0243190502437    
2022-04-22T17:09:08Z    31.6636666666667    -64.1648333333333    1456      -1440.83837159758    1e-12          4.0951e-14    4.62163181818182    35.1865436363636   27.7497836363636    -0.00411363636363636     -0.0203454545454545                       230.359909090909    310.988527272727    0.740732390909091    -46.687438221602    -74.0243190502437    
2022-04-22T17:09:08Z    31.6636666666667    -64.1648333333333    1456.5    -1441.32801668018    1e-12          4.0864e-14    4.62076818181818    35.1864345454545   27.7497945454545    -0.00411363636363636     -0.0203454545454545                       230.396409090909    310.995427272727    0.740834154545454    -46.687438221602    -74.0243190502437    
2022-04-22T17:09:08Z    31.6636666666667    -64.1648333333333    1457      -1441.84231537755    1e-12          4.0864e-14    4.61991818181818    35.1863718181818   27.7498363636364    -0.00411363636363636     -0.0202545454545455                       230.456909090909    311.002063636364    0.741012218181818    -46.687438221602    -74.0243190502437    
2022-04-22T17:09:08Z    31.6636666666667    -64.1648333333333    1457.5    -1442.34329928799    1e-12          4.0893e-14    4.61923636363636    35.1862781818182   27.7498381818182    -0.00411363636363636     -0.0201636363636364                       230.552818181818    311.007709090909    0.741308272727273    -46.687438221602    -74.0243190502437    
2022-04-22T17:09:08Z    31.6636666666667    -64.1648333333333    1458      -1442.80286222242    1e-12          4.0864e-14    4.61818181818182    35.1862045454546   27.7498945454545    -0.00444545454545455     -0.0200727272727273                       230.641636363636    311.016072727273    0.741573318181818    -46.687438221602    -74.0243190502437    
2022-04-22T17:09:08Z    31.6636666666667    -64.1648333333333    1458.5    -1443.34082571553    1e-12          4.0893e-14    4.61707272727273    35.1861845454545   27.7500045454545    -0.00310909090909091     -0.0200727272727273                       230.715863636364    311.024618181818    0.741793190909091    -46.687438221602    -74.0243190502437    
2022-04-22T17:09:08Z    31.6636666666667    -64.1648333333333    1459      -1443.84279224748    1e-12          4.0893e-14    4.61604090909091    35.1861490909091   27.7500936363636    -0.00243636363636364     -0.0201636363636364                       230.792772727273    311.032709090909    0.742021445454546    -46.687438221602    -74.0243190502437    
2022-04-22T17:09:08Z    31.6636666666667    -64.1648333333333    1459.5    -1444.49810825074    1e-12          4.1213e-14    4.61498636363636    35.1861327272727   27.7502             -0.00143181818181818     -0.0202090909090909                       230.882727272727    311.040772727273    0.742290554545455    -46.687438221602    -74.0243190502437    
2022-04-22T17:09:08Z    31.6636666666667    -64.1648333333333    1460      -1444.71802573075    1e-12          4.133e-14     4.61406818181818    35.1861245454545   27.7503018181818    -0.00075909090909091     -0.0203                                   230.951227272727    311.047909090909    0.742493209090909    -46.687438221602    -74.0243190502437    
2022-04-22T17:09:08Z    31.6636666666667    -64.1648333333333    1460.5    -1445.2658460748     1e-12          4.1271e-14    4.61317727272727    35.1860954545455   27.75038            -0.00142272727272727     -0.0203                                   231.041318181818    311.054818181818    0.742766445454545    -46.687438221602    -74.0243190502437    
2022-04-22T17:09:08Z    31.6636666666667    -64.1648333333333    1461      -1445.78013517554    1e-12          4.1183e-14    4.61227727272727    35.1860763636364   27.7504627272727    -0.00142272727272727     -0.0202090909090909                       231.125772727273    311.061963636364    0.743022190909091    -46.687438221602    -74.0243190502437    
2022-04-22T17:09:08Z    31.6636666666667    -64.1648333333333    1461.5    -1446.26976878247    1e-12          4.10815e-14   4.61143181818182    35.1860390909091   27.7505345454545    -0.00142272727272727     -0.0202090909090909                       231.214136363636    311.068672727273    0.743289354545455    -46.687438221602    -74.0243190502437    
2022-04-22T17:09:08Z    31.6636666666667    -64.1648333333333    1462      -1446.77419376548    1e-12          4.1067e-14    4.61062272727273    35.1860245454545   27.7506209090909    -0.00142272727272727     -0.0202090909090909                       231.267045454545    311.075036363636    0.743443027272727    -46.687438221602    -74.0243190502437    
2022-04-22T17:09:08Z    31.6636666666667    -64.1648333333333    1462.5    -1447.27565904086    1e-12          4.1009e-14    4.60961363636364    35.1859            27.7506490909091    -0.000759090909090909    -0.0202090909090909                       231.311045454545    311.083045454545    0.743563918181818    -46.687438221602    -74.0243190502437    
2022-04-22T17:09:08Z    31.6636666666667    -64.1648333333333    1463      -1447.80177718823    1e-12          4.0922e-14    4.60807272727273    35.1858190909091   27.7507727272727    -0.000759090909090909    -0.0202090909090909                       231.304272727273    311.094845454546    0.743513972727273    -46.687438221602    -74.0243190502437    
2022-04-22T17:09:08Z    31.6636666666667    -64.1648333333333    1463.5    -1448.2914060986     1e-12          4.0893e-14    4.60659090909091    35.1857372727273   27.7508745454545    -0.00109090909090909     -0.0202090909090909                       231.273363636364    311.1062            0.743385872727273    -46.687438221602    -74.0243190502437    
2022-04-22T17:09:08Z    31.6636666666667    -64.1648333333333    1464      -1448.79631932796    1e-12          4.09075e-14   4.60522727272727    35.18562           27.7509436363636    -0.00242727272727273     -0.0201181818181818                       231.2615            311.116654545455    0.743323009090909    -46.687438221602    -74.0243190502437    
2022-04-22T17:09:08Z    31.6636666666667    -64.1648333333333    1464.5    -1449.32243367732    1e-12          4.0864e-14    4.60363181818182    35.1854690909091   27.7510081818182    -0.00376363636363636     -0.0200272727272727                       231.232363636364    311.129054545455    0.743199336363636    -46.687438221602    -74.0243190502437    
2022-04-22T17:09:08Z    31.6636666666667    -64.1648333333333    1465      -1449.7898706338     1e-12          4.0836e-14    4.60196818181818    35.1853254545455   27.7510790909091    -0.0051                  -0.0199818181818182                       231.231681818182    311.141909090909    0.743166654545455    -46.687438221602    -74.0243190502437    
2022-04-22T17:09:08Z    31.6636666666667    -64.1648333333333    1465.5    -1450.230680479      1e-12          4.0893e-14    4.60015909090909    35.1851645454545   27.7511554545455    -0.00643636363636364     -0.0198909090909091                       231.288727272727    311.155954545455    0.743316572727273    -46.687438221602    -74.0243190502437    
2022-04-22T17:09:08Z    31.6636666666667    -64.1648333333333    1466      -1450.78489647625    1e-12          4.0893e-14    4.59828636363636    35.1849909090909   27.7512309090909    -0.00643636363636364     -0.0198909090909091                       231.343727272727    311.170390909091    0.7434579            -46.687438221602    -74.0243190502437    
2022-04-22T17:09:08Z    31.6636666666667    -64.1648333333333    1466.5    -1451.19809215546    1e-12          4.1125e-14    4.59631363636364    35.1847672727273   27.7512781818182    -0.00643636363636364     -0.0199818181818182                       231.3865            311.185809090909    0.743558509090909    -46.687438221602    -74.0243190502437    
2022-04-22T17:09:08Z    31.6636666666667    -64.1648333333333    1467      -1451.65467736647    1e-12          4.133e-14     4.59417727272727    35.1845854545455   27.7513736363636    -0.00643636363636364     -0.0200727272727273                       231.399363636364    311.202218181818    0.7435607            -46.687438221602    -74.0243190502437    
2022-04-22T17:09:08Z    31.6636666666667    -64.1648333333333    1467.5    -1452.20198663286    1e-12          4.1389e-14    4.59201818181818    35.1844072727273   27.7514718181818    -0.00643636363636364     -0.0201636363636364                       231.398818181818    311.2188            0.7435198            -46.687438221602    -74.0243190502437    
2022-04-22T17:09:08Z    31.6636666666667    -64.1648333333333    1468      -1452.67681325041    1e-12          4.1345e-14    4.58994545454545    35.1843063636364   27.7516172727273    -0.0071                  -0.0202545454545454                       231.402             311.234672727273    0.743494127272727    -46.687438221602    -74.0243190502437    
2022-04-22T17:09:08Z    31.6636666666667    -64.1648333333333    1468.5    -1453.21179315439    1e-12          4.1271e-14    4.58818181818182    35.1842            27.7517172727273    -0.0071                  -0.0202545454545455                       231.431             311.248218181818    0.743553781818182    -46.687438221602    -74.0243190502437    
2022-04-22T17:09:08Z    31.6636666666667    -64.1648333333333    1469      -1453.71373619786    1e-12          4.1242e-14    4.58668181818182    35.1840854545455   27.7518036363636    -0.0071                  -0.0202545454545455                       231.488             311.259763636364    0.743712036363636    -46.687438221602    -74.0243190502437    
2022-04-22T17:09:08Z    31.6636666666667    -64.1648333333333    1469.5    -1454.21567805004    1e-12          4.1125e-14    4.58510454545454    35.1839654545455   27.75188            -0.0071                  -0.0202545454545455                       231.518227272727    311.272218181818    0.743778909090909    -46.687438221602    -74.0243190502437    
2022-04-22T17:09:08Z    31.6636666666667    -64.1648333333333    1470      -1454.69296546062    1e-12          4.10235e-14   4.58371363636364    35.1838509090909   27.7519445454545    -0.0071                  -0.0202545454545455                       231.564909090909    311.283045454545    0.743902781818182    -46.687438221602    -74.0243190502437    
2022-04-22T17:09:08Z    31.6636666666667    -64.1648333333333    1470.5    -1455.17271710567    1e-12          4.098e-14     4.58240454545455    35.1837336363636   27.7520072727273    -0.0071                  -0.0202545454545455                       231.578181818182    311.293445454545    0.743919627272727    -46.687438221602    -74.0243190502437    
2022-04-22T17:09:08Z    31.6636666666667    -64.1648333333333    1471      -1455.67810692757    1e-12          4.09075e-14   4.58108636363636    35.1835890909091   27.7520327272727    -0.0071                  -0.0202545454545455                       231.579818181818    311.303818181818    0.743899863636364    -46.687438221602    -74.0243190502437    
2022-04-22T17:09:08Z    31.6636666666667    -64.1648333333333    1471.5    -1456.18004410651    1e-12          4.0836e-14    4.57980454545454    35.1834618181818   27.7520709090909    -0.0071                  -0.0201636363636364                       231.567909090909    311.313890909091    0.743840009090909    -46.687438221602    -74.0243190502437    
2022-04-22T17:09:08Z    31.6636666666667    -64.1648333333333    1472      -1456.65683400745    1e-12          4.0864e-14    4.57830454545454    35.1833618181818   27.7521554545455    -0.0071                  -0.0201636363636364                       231.602681818182    311.325472727273    0.743922209090909    -46.687438221602    -74.0243190502437    
2022-04-22T17:09:08Z    31.6636666666667    -64.1648333333333    1472.5    -1457.13460896076    1e-12          4.0864e-14    4.57675454545454    35.1831781818182   27.7521763636364    -0.0071                  -0.0200727272727273                       231.640954545455    311.337718181818    0.744016045454545    -46.687438221602    -74.0243190502437    
2022-04-22T17:09:08Z    31.6636666666667    -64.1648333333333    1473      -1457.66020945945    1e-12          4.0836e-14    4.57523181818182    35.1830445454545   27.7522409090909    -0.0071                  -0.0199818181818182                       231.703363636364    311.349618181818    0.744187763636364    -46.687438221602    -74.0243190502437    
2022-04-22T17:09:08Z    31.6636666666667    -64.1648333333333    1473.5    -1458.2844199832     1e-12          4.0864e-14    4.57376818181818    35.1828645454545   27.7522754545455    -0.0071                  -0.0198909090909091                       231.730590909091    311.361172727273    0.744247627272727    -46.687438221602    -74.0243190502437    
2022-04-22T17:09:08Z    31.6636666666667    -64.1648333333333    1474      -1458.42642022367    1e-12          4.12565e-14   4.57222727272727    35.1827154545455   27.7523354545455    -0.00676818181818182     -0.0198909090909091                       231.762818181818    311.373245454545    0.744323063636364    -46.687438221602    -74.0243190502437    
2022-04-22T17:09:08Z    31.6636666666667    -64.1648333333333    1474.5    -1459.05161459028    1e-12          4.1419e-14    4.57075454545455    35.1825672727273   27.7523836363636    -0.00676818181818182     -0.0198909090909091                       231.782090909091    311.384754545455    0.744357154545454    -46.687438221602    -74.0243190502437    
2022-04-22T17:09:08Z    31.6636666666667    -64.1648333333333    1475      -1459.6018629877     1e-12          4.133e-14     4.56935909090909    35.1824009090909   27.7524081818182    -0.00543181818181818     -0.0198909090909091                       231.800136363636    311.395609090909    0.744386436363636    -46.687438221602    -74.0243190502437    
2022-04-22T17:09:08Z    31.6636666666667    -64.1648333333333    1475.5    -1460.05448559648    1e-12          4.1213e-14    4.56774090909091    35.18211           27.7523590909091    -0.00409545454545455     -0.0198909090909091                       231.829681818182    311.408536363636    0.7444508            -46.687438221602    -74.0243190502437    
2022-04-22T17:09:08Z    31.6636666666667    -64.1648333333333    1476      -1460.58698153859    1e-12          4.1125e-14    4.56563181818182    35.1818145454545   27.7523590909091    -0.00275909090909091     -0.0198909090909091                       231.835818181818    311.425009090909    0.744433181818182    -46.687438221602    -74.0243190502437    
2022-04-22T17:09:08Z    31.6636666666667    -64.1648333333333    1476.5    -1461.13476068321    1e-12          4.1038e-14    4.56355909090909    35.1816027272727   27.7524318181818    -0.00142272727272727     -0.0198909090909091                       231.840818181818    311.441045454545    0.744410927272727    -46.687438221602    -74.0243190502437    
2022-04-22T17:09:08Z    31.6636666666667    -64.1648333333333    1477      -1461.54152645659    1e-12          4.098e-14     4.56095909090909    35.18125           27.7524454545455    -0.00075909090909091     -0.0198909090909091                       231.869727272727    311.461390909091    0.744458227272727    -46.687438221602    -74.0243190502437    
2022-04-22T17:09:08Z    31.6636666666667    -64.1648333333333    1477.5    -1462.06810207368    1e-12          4.0922e-14    4.55831363636364    35.1810027272727   27.7525454545455    -0.00075909090909091     -0.0198                                   231.852363636364    311.481718181818    0.744357490909091    -46.687438221602    -74.0243190502437    
2022-04-22T17:09:08Z    31.6636666666667    -64.1648333333333    1478      -1462.57248927198    1e-12          4.09075e-14   4.55574545454545    35.1807981818182   27.7526709090909    -0.000759090909090909    -0.0198                                   231.819272727273    311.501418181818    0.744205209090909    -46.687438221602    -74.0243190502437    
2022-04-22T17:09:08Z    31.6636666666667    -64.1648333333333    1478.5    -1463.04975778003    1e-12          4.0893e-14    4.55380909090909    35.18053           27.7527445454545    -0.000759090909090909    -0.0198                                   231.818363636364    311.516472727273    0.744157118181818    -46.687438221602    -74.0243190502437    
2022-04-22T17:09:08Z    31.6636666666667    -64.1648333333333    1479      -1463.53639306121    1e-12          4.08785e-14   4.55139545454545    35.1803263636364   27.7528481818182    -0.000759090909090909    -0.0198                                   231.799181818182    311.534981818182    0.744058490909091    -46.687438221602    -74.0243190502437    
2022-04-22T17:09:08Z    31.6636666666667    -64.1648333333333    1479.5    -1464.03239502969    1e-12          4.0864e-14    4.54952272727273    35.1800272727273   27.7528309090909    -0.00109090909090909     -0.0198                                   231.875636363636    311.549690909091    0.744271036363636    -46.687438221602    -74.0243190502437    
2022-04-22T17:09:08Z    31.6636666666667    -64.1648333333333    1480      -1464.50966023596    1e-12          4.0864e-14    4.5466              35.1796209090909   27.7528336363636    -0.00109090909090909     -0.0198                                   231.955909090909    311.572572727273    0.744474936363636    -46.687438221602    -74.0243190502437    
2022-04-22T17:09:08Z    31.6636666666667    -64.1648333333333    1480.5    -1464.99284085344    1e-12          4.0864e-14    4.54339090909091    35.17928           27.7529181818182    -0.00242727272727273     -0.0198                                   232.041818181818    311.597463636364    0.744694818181818    -46.687438221602    -74.0243190502437    
2022-04-22T17:09:08Z    31.6636666666667    -64.1648333333333    1481      -1465.71021411763    1e-12          4.133e-14     4.54016818181818    35.1789081818182   27.7529790909091    -0.00376363636363636     -0.0198                                   232.105181818182    311.622390909091    0.744838745454545    -46.687438221602    -74.0243190502437    
2022-04-22T17:09:08Z    31.6636666666667    -64.1648333333333    1481.5    -1465.89904804907    1e-12          4.12565e-14   4.53673181818182    35.1785836363636   27.7530990909091    -0.0051                  -0.0198                                   232.185136363636    311.648790909091    0.745033618181818    -46.687438221602    -74.0243190502437    
2022-04-22T17:09:08Z    31.6636666666667    -64.1648333333333    1482      -1466.47590261561    1e-12          4.1271e-14    4.53329545454545    35.1783190909091   27.7532663636364    -0.00577272727272727     -0.0198                                   232.219772727273    311.675045454545    0.745080863636364    -46.687438221602    -74.0243190502437    
2022-04-22T17:09:08Z    31.6636666666667    -64.1648333333333    1482.5    -1466.95316229584    1e-12          4.11685e-14   4.53027727272727    35.1781490909091   27.75346            -0.00643636363636364     -0.0198                                   232.245954545455    311.698             0.745105345454546    -46.687438221602    -74.0243190502437    
2022-04-22T17:09:08Z    31.6636666666667    -64.1648333333333    1483      -1467.48514779111    1e-12